﻿<?xml version="1.0" encoding="utf-8"?><gpx creator="Garmin Desktop App" version="1.1" xsi:schemaLocation="http://www.topografix.com/GPX/1/1 http://www.topografix.com/GPX/1/1/gpx.xsd http://www.garmin.com/xmlschemas/WaypointExtension/v1 http://www8.garmin.com/xmlschemas/WaypointExtensionv1.xsd http://www.garmin.com/xmlschemas/TrackPointExtension/v1 http://www.garmin.com/xmlschemas/TrackPointExtensionv1.xsd http://www.garmin.com/xmlschemas/GpxExtensions/v3 http://www8.garmin.com/xmlschemas/GpxExtensionsv3.xsd http://www.garmin.com/xmlschemas/ActivityExtension/v1 http://www8.garmin.com/xmlschemas/ActivityExtensionv1.xsd http://www.garmin.com/xmlschemas/AdventuresExtensions/v1 http://www8.garmin.com/xmlschemas/AdventuresExtensionv1.xsd http://www.garmin.com/xmlschemas/PressureExtension/v1 http://www.garmin.com/xmlschemas/PressureExtensionv1.xsd http://www.garmin.com/xmlschemas/TripExtensions/v1 http://www.garmin.com/xmlschemas/TripExtensionsv1.xsd http://www.garmin.com/xmlschemas/TripMetaDataExtensions/v1 http://www.garmin.com/xmlschemas/TripMetaDataExtensionsv1.xsd http://www.garmin.com/xmlschemas/ViaPointTransportationModeExtensions/v1 http://www.garmin.com/xmlschemas/ViaPointTransportationModeExtensionsv1.xsd http://www.garmin.com/xmlschemas/CreationTimeExtension/v1 http://www.garmin.com/xmlschemas/CreationTimeExtensionsv1.xsd http://www.garmin.com/xmlschemas/AccelerationExtension/v1 http://www.garmin.com/xmlschemas/AccelerationExtensionv1.xsd http://www.garmin.com/xmlschemas/PowerExtension/v1 http://www.garmin.com/xmlschemas/PowerExtensionv1.xsd http://www.garmin.com/xmlschemas/VideoExtension/v1 http://www.garmin.com/xmlschemas/VideoExtensionv1.xsd" xmlns="http://www.topografix.com/GPX/1/1" xmlns:xsi="http://www.w3.org/2001/XMLSchema-instance" xmlns:wptx1="http://www.garmin.com/xmlschemas/WaypointExtension/v1" xmlns:gpxtrx="http://www.garmin.com/xmlschemas/GpxExtensions/v3" xmlns:gpxtpx="http://www.garmin.com/xmlschemas/TrackPointExtension/v1" xmlns:gpxx="http://www.garmin.com/xmlschemas/GpxExtensions/v3" xmlns:trp="http://www.garmin.com/xmlschemas/TripExtensions/v1" xmlns:adv="http://www.garmin.com/xmlschemas/AdventuresExtensions/v1" xmlns:prs="http://www.garmin.com/xmlschemas/PressureExtension/v1" xmlns:tmd="http://www.garmin.com/xmlschemas/TripMetaDataExtensions/v1" xmlns:vptm="http://www.garmin.com/xmlschemas/ViaPointTransportationModeExtensions/v1" xmlns:ctx="http://www.garmin.com/xmlschemas/CreationTimeExtension/v1" xmlns:gpxacc="http://www.garmin.com/xmlschemas/AccelerationExtension/v1" xmlns:gpxpx="http://www.garmin.com/xmlschemas/PowerExtension/v1" xmlns:vidx1="http://www.garmin.com/xmlschemas/VideoExtension/v1">

  <metadata>
    <link href="http://www.garmin.com">
      <text>Garmin International</text>
    </link>
    <time>2025-04-26T19:27:29Z</time>
    <bounds maxlat="43.5727150272578" maxlon="1.990650035440922" minlat="43.070162013173103" minlon="-1.453692996874452" />
  </metadata>

  <trk>
    <name>250426_G_Track</name>
    <extensions>
      <gpxx:TrackExtension>
        <gpxx:DisplayColor>DarkGray</gpxx:DisplayColor>
      </gpxx:TrackExtension>
    </extensions>
    <trkseg>
      <trkpt lat="43.273445963859558" lon="1.990650035440922">
        <ele>164.52000000000001</ele>
        <time>2025-04-26T08:09:22Z</time>
      </trkpt>
      <trkpt lat="43.27349198050797" lon="1.990620028227568">
        <ele>151.06</ele>
        <time>2025-04-26T08:09:50Z</time>
      </trkpt>
      <trkpt lat="43.273468008264899" lon="1.990628996863961">
        <ele>148.18000000000001</ele>
        <time>2025-04-26T08:10:31Z</time>
      </trkpt>
      <trkpt lat="43.273379998281598" lon="1.990603012964129">
        <ele>157.31</ele>
        <time>2025-04-26T08:10:51Z</time>
      </trkpt>
      <trkpt lat="43.273390978574753" lon="1.990553978830576">
        <ele>155.38999999999999</ele>
        <time>2025-04-26T08:11:16Z</time>
      </trkpt>
      <trkpt lat="43.273440012708306" lon="1.990414001047611">
        <ele>153.47</ele>
        <time>2025-04-26T08:11:24Z</time>
      </trkpt>
      <trkpt lat="43.273315960541368" lon="1.990294978022575">
        <ele>153.47</ele>
        <time>2025-04-26T08:11:37Z</time>
      </trkpt>
      <trkpt lat="43.27310498803854" lon="1.990102026611567">
        <ele>154.43000000000001</ele>
        <time>2025-04-26T08:11:45Z</time>
      </trkpt>
      <trkpt lat="43.272233018651605" lon="1.989254029467702">
        <ele>157.31</ele>
        <time>2025-04-26T08:11:58Z</time>
      </trkpt>
      <trkpt lat="43.271028958261013" lon="1.988065978512168">
        <ele>157.31</ele>
        <time>2025-04-26T08:12:13Z</time>
      </trkpt>
      <trkpt lat="43.270642971619964" lon="1.987688038498163">
        <ele>156.34999999999999</ele>
        <time>2025-04-26T08:12:20Z</time>
      </trkpt>
      <trkpt lat="43.270611958578229" lon="1.987658031284809">
        <ele>156.34999999999999</ele>
        <time>2025-04-26T08:12:21Z</time>
      </trkpt>
      <trkpt lat="43.27057097107172" lon="1.987617965787649">
        <ele>155.87</ele>
        <time>2025-04-26T08:12:28Z</time>
      </trkpt>
      <trkpt lat="43.270554961636662" lon="1.987515036016703">
        <ele>155.87</ele>
        <time>2025-04-26T08:12:30Z</time>
      </trkpt>
      <trkpt lat="43.270583963021636" lon="1.987485028803349">
        <ele>156.34999999999999</ele>
        <time>2025-04-26T08:12:31Z</time>
      </trkpt>
      <trkpt lat="43.270631991326809" lon="1.987434988841415">
        <ele>156.83000000000001</ele>
        <time>2025-04-26T08:12:32Z</time>
      </trkpt>
      <trkpt lat="43.270695023238659" lon="1.987369023263454">
        <ele>156.83000000000001</ele>
        <time>2025-04-26T08:12:33Z</time>
      </trkpt>
      <trkpt lat="43.270767023786902" lon="1.987294005230069">
        <ele>157.31</ele>
        <time>2025-04-26T08:12:34Z</time>
      </trkpt>
      <trkpt lat="43.271484011784196" lon="1.986546004191041">
        <ele>158.75</ele>
        <time>2025-04-26T08:12:41Z</time>
      </trkpt>
      <trkpt lat="43.272707015275955" lon="1.985268015414476">
        <ele>158.75</ele>
        <time>2025-04-26T08:12:50Z</time>
      </trkpt>
      <trkpt lat="43.275600029155612" lon="1.982214991003275">
        <ele>158.27000000000001</ele>
        <time>2025-04-26T08:13:10Z</time>
      </trkpt>
      <trkpt lat="43.277535997331142" lon="1.980172991752625">
        <ele>157.78999999999999</ele>
        <time>2025-04-26T08:13:24Z</time>
      </trkpt>
      <trkpt lat="43.2778300344944" lon="1.979844002053142">
        <ele>157.78999999999999</ele>
        <time>2025-04-26T08:13:28Z</time>
      </trkpt>
      <trkpt lat="43.277860041707754" lon="1.979808965697885">
        <ele>157.78999999999999</ele>
        <time>2025-04-26T08:13:29Z</time>
      </trkpt>
      <trkpt lat="43.277865992859006" lon="1.979745011776686">
        <ele>157.78999999999999</ele>
        <time>2025-04-26T08:13:30Z</time>
      </trkpt>
      <trkpt lat="43.277839003130794" lon="1.979721039533615">
        <ele>157.78999999999999</ele>
        <time>2025-04-26T08:13:31Z</time>
      </trkpt>
      <trkpt lat="43.277800027281046" lon="1.979684997349978">
        <ele>157.78999999999999</ele>
        <time>2025-04-26T08:13:32Z</time>
      </trkpt>
      <trkpt lat="43.277751998975873" lon="1.979640992358327">
        <ele>157.78999999999999</ele>
        <time>2025-04-26T08:13:33Z</time>
      </trkpt>
      <trkpt lat="43.277690978720784" lon="1.979587012901902">
        <ele>157.78999999999999</ele>
        <time>2025-04-26T08:13:34Z</time>
      </trkpt>
      <trkpt lat="43.276957981288433" lon="1.978918975219131">
        <ele>159.72</ele>
        <time>2025-04-26T08:13:42Z</time>
      </trkpt>
      <trkpt lat="43.2758769672364" lon="1.97760796174407">
        <ele>162.59999999999999</ele>
        <time>2025-04-26T08:13:53Z</time>
      </trkpt>
      <trkpt lat="43.274362022057176" lon="1.976301977410913">
        <ele>165.96000000000001</ele>
        <time>2025-04-26T08:14:06Z</time>
      </trkpt>
      <trkpt lat="43.273156033828855" lon="1.975111998617649">
        <ele>166.93000000000001</ele>
        <time>2025-04-26T08:14:16Z</time>
      </trkpt>
      <trkpt lat="43.27123599126935" lon="1.973398989066482">
        <ele>169.81</ele>
        <time>2025-04-26T08:14:31Z</time>
      </trkpt>
      <trkpt lat="43.269821964204311" lon="1.972095016390085">
        <ele>173.66</ele>
        <time>2025-04-26T08:14:42Z</time>
      </trkpt>
      <trkpt lat="43.268540035933256" lon="1.971007967367768">
        <ele>175.58000000000001</ele>
        <time>2025-04-26T08:14:52Z</time>
      </trkpt>
      <trkpt lat="43.266931967809796" lon="1.969847995787859">
        <ele>177.97999999999999</ele>
        <time>2025-04-26T08:15:04Z</time>
      </trkpt>
      <trkpt lat="43.265179982408881" lon="1.96855902671814">
        <ele>181.34999999999999</ele>
        <time>2025-04-26T08:15:17Z</time>
      </trkpt>
      <trkpt lat="43.263740977272391" lon="1.96752998046577">
        <ele>186.15000000000001</ele>
        <time>2025-04-26T08:15:28Z</time>
      </trkpt>
      <trkpt lat="43.262750990688801" lon="1.966879041865468">
        <ele>190</ele>
        <time>2025-04-26T08:15:37Z</time>
      </trkpt>
      <trkpt lat="43.262481009587646" lon="1.966750966385007">
        <ele>190</ele>
        <time>2025-04-26T08:15:41Z</time>
      </trkpt>
      <trkpt lat="43.262443039566278" lon="1.96673302911222">
        <ele>190</ele>
        <time>2025-04-26T08:15:42Z</time>
      </trkpt>
      <trkpt lat="43.262418983504176" lon="1.966622974723578">
        <ele>189.52000000000001</ele>
        <time>2025-04-26T08:15:43Z</time>
      </trkpt>
      <trkpt lat="43.262446979060769" lon="1.966568995267153">
        <ele>189.52000000000001</ele>
        <time>2025-04-26T08:15:44Z</time>
      </trkpt>
      <trkpt lat="43.262482015416026" lon="1.96649900637567">
        <ele>189.03999999999999</ele>
        <time>2025-04-26T08:15:45Z</time>
      </trkpt>
      <trkpt lat="43.262521997094154" lon="1.966418037191033">
        <ele>189.03999999999999</ele>
        <time>2025-04-26T08:15:46Z</time>
      </trkpt>
      <trkpt lat="43.262617969885468" lon="1.966217961162329">
        <ele>188.56</ele>
        <time>2025-04-26T08:15:48Z</time>
      </trkpt>
      <trkpt lat="43.263055002316833" lon="1.965051032602787">
        <ele>188.08000000000001</ele>
        <time>2025-04-26T08:15:56Z</time>
      </trkpt>
      <trkpt lat="43.263593958690763" lon="1.962880035862327">
        <ele>185.66999999999999</ele>
        <time>2025-04-26T08:16:08Z</time>
      </trkpt>
      <trkpt lat="43.264042977243662" lon="1.961189992725849">
        <ele>184.22999999999999</ele>
        <time>2025-04-26T08:16:18Z</time>
      </trkpt>
      <trkpt lat="43.264106009155512" lon="1.961114974692464">
        <ele>184.22999999999999</ele>
        <time>2025-04-26T08:16:19Z</time>
      </trkpt>
      <trkpt lat="43.264177003875375" lon="1.961069963872433">
        <ele>184.22999999999999</ele>
        <time>2025-04-26T08:16:20Z</time>
      </trkpt>
      <trkpt lat="43.264259984716773" lon="1.961046997457743">
        <ele>184.22999999999999</ele>
        <time>2025-04-26T08:16:21Z</time>
      </trkpt>
      <trkpt lat="43.264350006356835" lon="1.961054960265756">
        <ele>184.22999999999999</ele>
        <time>2025-04-26T08:16:22Z</time>
      </trkpt>
      <trkpt lat="43.264454025775194" lon="1.961087984964252">
        <ele>184.22999999999999</ele>
        <time>2025-04-26T08:16:23Z</time>
      </trkpt>
      <trkpt lat="43.264565002173185" lon="1.961142970249057">
        <ele>184.22999999999999</ele>
        <time>2025-04-26T08:16:24Z</time>
      </trkpt>
      <trkpt lat="43.264945959672332" lon="1.961333993822336">
        <ele>184.22999999999999</ele>
        <time>2025-04-26T08:16:27Z</time>
      </trkpt>
      <trkpt lat="43.265078980475664" lon="1.961400965228677">
        <ele>184.22999999999999</ele>
        <time>2025-04-26T08:16:28Z</time>
      </trkpt>
      <trkpt lat="43.26521803624928" lon="1.961414040997624">
        <ele>184.71000000000001</ele>
        <time>2025-04-26T08:16:29Z</time>
      </trkpt>
      <trkpt lat="43.265362037345767" lon="1.961399037390947">
        <ele>184.71000000000001</ele>
        <time>2025-04-26T08:16:30Z</time>
      </trkpt>
      <trkpt lat="43.265510983765125" lon="1.96138302795589">
        <ele>184.22999999999999</ele>
        <time>2025-04-26T08:16:31Z</time>
      </trkpt>
      <trkpt lat="43.266893997788429" lon="1.960929986089468">
        <ele>184.22999999999999</ele>
        <time>2025-04-26T08:16:40Z</time>
      </trkpt>
      <trkpt lat="43.26857297681272" lon="1.959789041429758">
        <ele>181.34999999999999</ele>
        <time>2025-04-26T08:16:52Z</time>
      </trkpt>
      <trkpt lat="43.268667021766305" lon="1.959689967334271">
        <ele>180.87</ele>
        <time>2025-04-26T08:16:53Z</time>
      </trkpt>
      <trkpt lat="43.26874396763742" lon="1.959564993157983">
        <ele>180.87</ele>
        <time>2025-04-26T08:16:54Z</time>
      </trkpt>
      <trkpt lat="43.268797025084496" lon="1.959411017596722">
        <ele>180.87</ele>
        <time>2025-04-26T08:16:55Z</time>
      </trkpt>
      <trkpt lat="43.268854022026062" lon="1.959250001236796">
        <ele>180.87</ele>
        <time>2025-04-26T08:16:56Z</time>
      </trkpt>
      <trkpt lat="43.268912024796009" lon="1.959084039554">
        <ele>181.34999999999999</ele>
        <time>2025-04-26T08:16:57Z</time>
      </trkpt>
      <trkpt lat="43.269648961722851" lon="1.957056038081646">
        <ele>185.19</ele>
        <time>2025-04-26T08:17:08Z</time>
      </trkpt>
      <trkpt lat="43.270916976034641" lon="1.954018017277122">
        <ele>189.03999999999999</ele>
        <time>2025-04-26T08:17:24Z</time>
      </trkpt>
      <trkpt lat="43.272126987576485" lon="1.951419962570071">
        <ele>192.40000000000001</ele>
        <time>2025-04-26T08:17:39Z</time>
      </trkpt>
      <trkpt lat="43.272799970582128" lon="1.949587007984519">
        <ele>194.31999999999999</ele>
        <time>2025-04-26T08:17:49Z</time>
      </trkpt>
      <trkpt lat="43.273574039340019" lon="1.94739799015224">
        <ele>195.28</ele>
        <time>2025-04-26T08:18:01Z</time>
      </trkpt>
      <trkpt lat="43.274549022316933" lon="1.946081025525928">
        <ele>196.25</ele>
        <time>2025-04-26T08:18:11Z</time>
      </trkpt>
      <trkpt lat="43.275113962590694" lon="1.945425979793072">
        <ele>197.69</ele>
        <time>2025-04-26T08:18:20Z</time>
      </trkpt>
      <trkpt lat="43.275193003937602" lon="1.94533403031528">
        <ele>198.16999999999999</ele>
        <time>2025-04-26T08:18:26Z</time>
      </trkpt>
      <trkpt lat="43.275263998657465" lon="1.945246020331979">
        <ele>198.16999999999999</ele>
        <time>2025-04-26T08:18:35Z</time>
      </trkpt>
      <trkpt lat="43.275312026962638" lon="1.945181982591748">
        <ele>198.16999999999999</ele>
        <time>2025-04-26T08:18:36Z</time>
      </trkpt>
      <trkpt lat="43.275976963341236" lon="1.944284029304981">
        <ele>198.16999999999999</ele>
        <time>2025-04-26T08:18:45Z</time>
      </trkpt>
      <trkpt lat="43.276911964640021" lon="1.943175019696355">
        <ele>198.65000000000001</ele>
        <time>2025-04-26T08:18:54Z</time>
      </trkpt>
      <trkpt lat="43.27819699421525" lon="1.941611962392926">
        <ele>196.72999999999999</ele>
        <time>2025-04-26T08:19:05Z</time>
      </trkpt>
      <trkpt lat="43.279252024367452" lon="1.940590962767601">
        <ele>193.84</ele>
        <time>2025-04-26T08:19:13Z</time>
      </trkpt>
      <trkpt lat="43.279782012104988" lon="1.940095005556941">
        <ele>193.84</ele>
        <time>2025-04-26T08:19:17Z</time>
      </trkpt>
      <trkpt lat="43.279878990724683" lon="1.939957039430738">
        <ele>193.84</ele>
        <time>2025-04-26T08:19:18Z</time>
      </trkpt>
      <trkpt lat="43.279987033456564" lon="1.939801974222064">
        <ele>193.84</ele>
        <time>2025-04-26T08:19:19Z</time>
      </trkpt>
      <trkpt lat="43.280416019260883" lon="1.939059002324939">
        <ele>194.31999999999999</ele>
        <time>2025-04-26T08:19:25Z</time>
      </trkpt>
      <trkpt lat="43.280519032850862" lon="1.938870996236801">
        <ele>194.31999999999999</ele>
        <time>2025-04-26T08:19:31Z</time>
      </trkpt>
      <trkpt lat="43.280519032850862" lon="1.938870996236801">
        <ele>194.31999999999999</ele>
        <time>2025-04-26T08:20:10Z</time>
      </trkpt>
      <trkpt lat="43.280549040064216" lon="1.938815005123615">
        <ele>194.31999999999999</ele>
        <time>2025-04-26T08:20:24Z</time>
      </trkpt>
      <trkpt lat="43.280589021742344" lon="1.938743004575372">
        <ele>194.31999999999999</ele>
        <time>2025-04-26T08:20:25Z</time>
      </trkpt>
      <trkpt lat="43.281015995889902" lon="1.938083013519645">
        <ele>193.84</ele>
        <time>2025-04-26T08:20:31Z</time>
      </trkpt>
      <trkpt lat="43.281555958092213" lon="1.93738304078579">
        <ele>194.31999999999999</ele>
        <time>2025-04-26T08:20:36Z</time>
      </trkpt>
      <trkpt lat="43.281688978895545" lon="1.937274998053908">
        <ele>194.31999999999999</ele>
        <time>2025-04-26T08:20:37Z</time>
      </trkpt>
      <trkpt lat="43.282091980800033" lon="1.936947014182806">
        <ele>193.84</ele>
        <time>2025-04-26T08:20:40Z</time>
      </trkpt>
      <trkpt lat="43.28221301548183" lon="1.936817010864615">
        <ele>193.36000000000001</ele>
        <time>2025-04-26T08:20:41Z</time>
      </trkpt>
      <trkpt lat="43.283162014558911" lon="1.935403989627957">
        <ele>192.88</ele>
        <time>2025-04-26T08:20:50Z</time>
      </trkpt>
      <trkpt lat="43.283241977915168" lon="1.935217995196581">
        <ele>192.88</ele>
        <time>2025-04-26T08:20:51Z</time>
      </trkpt>
      <trkpt lat="43.283382961526513" lon="1.93485296331346">
        <ele>193.36000000000001</ele>
        <time>2025-04-26T08:20:53Z</time>
      </trkpt>
      <trkpt lat="43.283455967903137" lon="1.934697981923819">
        <ele>193.36000000000001</ele>
        <time>2025-04-26T08:20:54Z</time>
      </trkpt>
      <trkpt lat="43.283559987321496" lon="1.934568984434009">
        <ele>193.36000000000001</ele>
        <time>2025-04-26T08:20:55Z</time>
      </trkpt>
      <trkpt lat="43.283680016174912" lon="1.934448033571243">
        <ele>193.36000000000001</ele>
        <time>2025-04-26T08:20:56Z</time>
      </trkpt>
      <trkpt lat="43.283819993957877" lon="1.934326998889446">
        <ele>193.36000000000001</ele>
        <time>2025-04-26T08:20:57Z</time>
      </trkpt>
      <trkpt lat="43.285126984119415" lon="1.933229975402355">
        <ele>189.52000000000001</ele>
        <time>2025-04-26T08:21:05Z</time>
      </trkpt>
      <trkpt lat="43.287359001114964" lon="1.93111103028059">
        <ele>186.63</ele>
        <time>2025-04-26T08:21:19Z</time>
      </trkpt>
      <trkpt lat="43.289308967068791" lon="1.928615989163518">
        <ele>190.47999999999999</ele>
        <time>2025-04-26T08:21:34Z</time>
      </trkpt>
      <trkpt lat="43.291165977716446" lon="1.92707103677094">
        <ele>189.03999999999999</ele>
        <time>2025-04-26T08:21:46Z</time>
      </trkpt>
      <trkpt lat="43.291935017332435" lon="1.926424037665129">
        <ele>188.56</ele>
        <time>2025-04-26T08:21:53Z</time>
      </trkpt>
      <trkpt lat="43.292747978121042" lon="1.925553996115923">
        <ele>187.59</ele>
        <time>2025-04-26T08:22:02Z</time>
      </trkpt>
      <trkpt lat="43.292921986430883" lon="1.925348974764347">
        <ele>187.11000000000001</ele>
        <time>2025-04-26T08:22:04Z</time>
      </trkpt>
      <trkpt lat="43.293348960578442" lon="1.924841031432152">
        <ele>189.03999999999999</ele>
        <time>2025-04-26T08:22:11Z</time>
      </trkpt>
      <trkpt lat="43.293354995548725" lon="1.924834996461868">
        <ele>189.52000000000001</ele>
        <time>2025-04-26T08:22:14Z</time>
      </trkpt>
      <trkpt lat="43.293374022468925" lon="1.924813035875559">
        <ele>190</ele>
        <time>2025-04-26T08:22:15Z</time>
      </trkpt>
      <trkpt lat="43.293373016640544" lon="1.924740029498935">
        <ele>190</ele>
        <time>2025-04-26T08:22:16Z</time>
      </trkpt>
      <trkpt lat="43.293332029134035" lon="1.924698958173394">
        <ele>190.47999999999999</ele>
        <time>2025-04-26T08:22:17Z</time>
      </trkpt>
      <trkpt lat="43.293270003050566" lon="1.924640033394098">
        <ele>190.47999999999999</ele>
        <time>2025-04-26T08:22:18Z</time>
      </trkpt>
      <trkpt lat="43.293191967532039" lon="1.924581024795771">
        <ele>190.47999999999999</ele>
        <time>2025-04-26T08:22:19Z</time>
      </trkpt>
      <trkpt lat="43.292584028095007" lon="1.923951040953398">
        <ele>192.88</ele>
        <time>2025-04-26T08:22:25Z</time>
      </trkpt>
      <trkpt lat="43.291479963809252" lon="1.922826021909714">
        <ele>199.13</ele>
        <time>2025-04-26T08:22:34Z</time>
      </trkpt>
      <trkpt lat="43.290501963347197" lon="1.921813990920782">
        <ele>204.90000000000001</ele>
        <time>2025-04-26T08:22:43Z</time>
      </trkpt>
      <trkpt lat="43.289694031700492" lon="1.920984014868736">
        <ele>208.74000000000001</ele>
        <time>2025-04-26T08:22:52Z</time>
      </trkpt>
      <trkpt lat="43.289183992892504" lon="1.920457966625691">
        <ele>208.25999999999999</ele>
        <time>2025-04-26T08:22:59Z</time>
      </trkpt>
      <trkpt lat="43.289115009829402" lon="1.920395018532872">
        <ele>207.78</ele>
        <time>2025-04-26T08:23:00Z</time>
      </trkpt>
      <trkpt lat="43.288743020966649" lon="1.920002996921539">
        <ele>206.34</ele>
        <time>2025-04-26T08:23:05Z</time>
      </trkpt>
      <trkpt lat="43.288001976907253" lon="1.91925298422575">
        <ele>206.81999999999999</ele>
        <time>2025-04-26T08:23:14Z</time>
      </trkpt>
      <trkpt lat="43.28730502165854" lon="1.918358970433474">
        <ele>208.25999999999999</ele>
        <time>2025-04-26T08:23:22Z</time>
      </trkpt>
      <trkpt lat="43.286736980080605" lon="1.917107971385121">
        <ele>209.22</ele>
        <time>2025-04-26T08:23:31Z</time>
      </trkpt>
      <trkpt lat="43.286549979820848" lon="1.916517969220877">
        <ele>209.22</ele>
        <time>2025-04-26T08:23:35Z</time>
      </trkpt>
      <trkpt lat="43.286507986485958" lon="1.916368016973138">
        <ele>209.22</ele>
        <time>2025-04-26T08:23:36Z</time>
      </trkpt>
      <trkpt lat="43.286389969289303" lon="1.915884967893362">
        <ele>208.74000000000001</ele>
        <time>2025-04-26T08:23:39Z</time>
      </trkpt>
      <trkpt lat="43.286358034238219" lon="1.915709031745791">
        <ele>208.74000000000001</ele>
        <time>2025-04-26T08:23:40Z</time>
      </trkpt>
      <trkpt lat="43.286137003451586" lon="1.91428997553885">
        <ele>211.63</ele>
        <time>2025-04-26T08:23:48Z</time>
      </trkpt>
      <trkpt lat="43.286143038421869" lon="1.914090989157558">
        <ele>212.11000000000001</ele>
        <time>2025-04-26T08:23:49Z</time>
      </trkpt>
      <trkpt lat="43.28619098290801" lon="1.913682036101818">
        <ele>213.55000000000001</ele>
        <time>2025-04-26T08:23:51Z</time>
      </trkpt>
      <trkpt lat="43.286229958757758" lon="1.913475003093481">
        <ele>214.50999999999999</ele>
        <time>2025-04-26T08:23:52Z</time>
      </trkpt>
      <trkpt lat="43.286736980080605" lon="1.911766016855836">
        <ele>221.24000000000001</ele>
        <time>2025-04-26T08:24:00Z</time>
      </trkpt>
      <trkpt lat="43.287045015022159" lon="1.910380991175771">
        <ele>224.61000000000001</ele>
        <time>2025-04-26T08:24:06Z</time>
      </trkpt>
      <trkpt lat="43.287331005558372" lon="1.907896008342505">
        <ele>229.41</ele>
        <time>2025-04-26T08:24:16Z</time>
      </trkpt>
      <trkpt lat="43.287716992199421" lon="1.906166989356279">
        <ele>233.25999999999999</ele>
        <time>2025-04-26T08:24:23Z</time>
      </trkpt>
      <trkpt lat="43.28797398135066" lon="1.90315998159349">
        <ele>238.53999999999999</ele>
        <time>2025-04-26T08:24:34Z</time>
      </trkpt>
      <trkpt lat="43.288033995777369" lon="1.902907015755773">
        <ele>239.50999999999999</ele>
        <time>2025-04-26T08:24:35Z</time>
      </trkpt>
      <trkpt lat="43.288094010204077" lon="1.902656983584166">
        <ele>239.99000000000001</ele>
        <time>2025-04-26T08:24:36Z</time>
      </trkpt>
      <trkpt lat="43.288154024630785" lon="1.902405023574829">
        <ele>240.47</ele>
        <time>2025-04-26T08:24:37Z</time>
      </trkpt>
      <trkpt lat="43.288197023794055" lon="1.902143005281687">
        <ele>240.94999999999999</ele>
        <time>2025-04-26T08:24:38Z</time>
      </trkpt>
      <trkpt lat="43.288233987987041" lon="1.901875035837293">
        <ele>241.91</ele>
        <time>2025-04-26T08:24:39Z</time>
      </trkpt>
      <trkpt lat="43.288648976013064" lon="1.898332005366683">
        <ele>246.22999999999999</ele>
        <time>2025-04-26T08:24:52Z</time>
      </trkpt>
      <trkpt lat="43.288845028728247" lon="1.894881008192897">
        <ele>253.93000000000001</ele>
        <time>2025-04-26T08:25:05Z</time>
      </trkpt>
      <trkpt lat="43.289021970704198" lon="1.892860969528556">
        <ele>259.69</ele>
        <time>2025-04-26T08:25:13Z</time>
      </trkpt>
      <trkpt lat="43.289059018716216" lon="1.892609009519219">
        <ele>260.64999999999998</ele>
        <time>2025-04-26T08:25:14Z</time>
      </trkpt>
      <trkpt lat="43.289144011214375" lon="1.892373980954289">
        <ele>261.62</ele>
        <time>2025-04-26T08:25:15Z</time>
      </trkpt>
      <trkpt lat="43.290199041366577" lon="1.88941097818315">
        <ele>273.63</ele>
        <time>2025-04-26T08:25:27Z</time>
      </trkpt>
      <trkpt lat="43.290396016091108" lon="1.888704970479012">
        <ele>277.95999999999998</ele>
        <time>2025-04-26T08:25:30Z</time>
      </trkpt>
      <trkpt lat="43.29044203273952" lon="1.888486035168171">
        <ele>279.88</ele>
        <time>2025-04-26T08:25:31Z</time>
      </trkpt>
      <trkpt lat="43.290445972234011" lon="1.888266010209918">
        <ele>281.31999999999999</ele>
        <time>2025-04-26T08:25:32Z</time>
      </trkpt>
      <trkpt lat="43.290445972234011" lon="1.888041961938143">
        <ele>282.76999999999998</ele>
        <time>2025-04-26T08:25:33Z</time>
      </trkpt>
      <trkpt lat="43.290413031354547" lon="1.887825960293412">
        <ele>284.20999999999998</ele>
        <time>2025-04-26T08:25:34Z</time>
      </trkpt>
      <trkpt lat="43.290370032191277" lon="1.88760400749743">
        <ele>285.64999999999998</ele>
        <time>2025-04-26T08:25:35Z</time>
      </trkpt>
      <trkpt lat="43.290325021371245" lon="1.887373002246022">
        <ele>287.08999999999997</ele>
        <time>2025-04-26T08:25:36Z</time>
      </trkpt>
      <trkpt lat="43.290299037471414" lon="1.887138979509473">
        <ele>288.05000000000001</ele>
        <time>2025-04-26T08:25:37Z</time>
      </trkpt>
      <trkpt lat="43.290305994451046" lon="1.886896993964911">
        <ele>289.49000000000001</ele>
        <time>2025-04-26T08:25:38Z</time>
      </trkpt>
      <trkpt lat="43.290314041078091" lon="1.886646039783955">
        <ele>290.94</ele>
        <time>2025-04-26T08:25:39Z</time>
      </trkpt>
      <trkpt lat="43.290345976129174" lon="1.886398019269109">
        <ele>292.38</ele>
        <time>2025-04-26T08:25:40Z</time>
      </trkpt>
      <trkpt lat="43.290397021919489" lon="1.886151004582644">
        <ele>293.81999999999999</ele>
        <time>2025-04-26T08:25:41Z</time>
      </trkpt>
      <trkpt lat="43.290447983890772" lon="1.885899966582656">
        <ele>294.77999999999997</ele>
        <time>2025-04-26T08:25:42Z</time>
      </trkpt>
      <trkpt lat="43.2905069924891" lon="1.885650018230081">
        <ele>296.22000000000003</ele>
        <time>2025-04-26T08:25:43Z</time>
      </trkpt>
      <trkpt lat="43.290779991075397" lon="1.884781988337636">
        <ele>301.02999999999997</ele>
        <time>2025-04-26T08:25:47Z</time>
      </trkpt>
      <trkpt lat="43.29082902520895" lon="1.88457696698606">
        <ele>301.50999999999999</ele>
        <time>2025-04-26T08:25:48Z</time>
      </trkpt>
      <trkpt lat="43.290823996067047" lon="1.88436096534133">
        <ele>301.50999999999999</ele>
        <time>2025-04-26T08:25:49Z</time>
      </trkpt>
      <trkpt lat="43.290815027430654" lon="1.88414697535336">
        <ele>301.50999999999999</ele>
        <time>2025-04-26T08:25:50Z</time>
      </trkpt>
      <trkpt lat="43.290784014388919" lon="1.883967015892267">
        <ele>301.50999999999999</ele>
        <time>2025-04-26T08:25:51Z</time>
      </trkpt>
      <trkpt lat="43.290734980255365" lon="1.883819997310638">
        <ele>301.02999999999997</ele>
        <time>2025-04-26T08:25:52Z</time>
      </trkpt>
      <trkpt lat="43.290655016899109" lon="1.883708015084267">
        <ele>301.02999999999997</ele>
        <time>2025-04-26T08:25:53Z</time>
      </trkpt>
      <trkpt lat="43.290558038279414" lon="1.883592009544373">
        <ele>300.55000000000001</ele>
        <time>2025-04-26T08:25:54Z</time>
      </trkpt>
      <trkpt lat="43.290454018861055" lon="1.883468041196466">
        <ele>300.55000000000001</ele>
        <time>2025-04-26T08:25:55Z</time>
      </trkpt>
      <trkpt lat="43.290359973907471" lon="1.883330997079611">
        <ele>300.06999999999999</ele>
        <time>2025-04-26T08:25:56Z</time>
      </trkpt>
      <trkpt lat="43.290305994451046" lon="1.883164029568434">
        <ele>300.06999999999999</ele>
        <time>2025-04-26T08:25:57Z</time>
      </trkpt>
      <trkpt lat="43.290276993066072" lon="1.882992032915354">
        <ele>299.58999999999997</ele>
        <time>2025-04-26T08:25:58Z</time>
      </trkpt>
      <trkpt lat="43.290259977802634" lon="1.882798997685313">
        <ele>299.11000000000001</ele>
        <time>2025-04-26T08:25:59Z</time>
      </trkpt>
      <trkpt lat="43.290289985015988" lon="1.882590958848596">
        <ele>298.63</ele>
        <time>2025-04-26T08:26:00Z</time>
      </trkpt>
      <trkpt lat="43.290322003886104" lon="1.882365988567472">
        <ele>298.14999999999998</ele>
        <time>2025-04-26T08:26:01Z</time>
      </trkpt>
      <trkpt lat="43.29035603441298" lon="1.882127020508051">
        <ele>298.14999999999998</ele>
        <time>2025-04-26T08:26:02Z</time>
      </trkpt>
      <trkpt lat="43.290773034095764" lon="1.879825014621019">
        <ele>291.89999999999998</ele>
        <time>2025-04-26T08:26:11Z</time>
      </trkpt>
      <trkpt lat="43.290811004117131" lon="1.879408014938235">
        <ele>290.94</ele>
        <time>2025-04-26T08:26:13Z</time>
      </trkpt>
      <trkpt lat="43.290797006338835" lon="1.879211040213704">
        <ele>289.97000000000003</ele>
        <time>2025-04-26T08:26:14Z</time>
      </trkpt>
      <trkpt lat="43.290746966376901" lon="1.879030996933579">
        <ele>289.49000000000001</ele>
        <time>2025-04-26T08:26:15Z</time>
      </trkpt>
      <trkpt lat="43.290696004405618" lon="1.878843996673822">
        <ele>289.00999999999999</ele>
        <time>2025-04-26T08:26:16Z</time>
      </trkpt>
      <trkpt lat="43.290642024949193" lon="1.878649033606052">
        <ele>288.05000000000001</ele>
        <time>2025-04-26T08:26:17Z</time>
      </trkpt>
      <trkpt lat="43.290643030777574" lon="1.878442000597715">
        <ele>287.08999999999997</ele>
        <time>2025-04-26T08:26:18Z</time>
      </trkpt>
      <trkpt lat="43.290646970272064" lon="1.878218036144972">
        <ele>286.61000000000001</ele>
        <time>2025-04-26T08:26:19Z</time>
      </trkpt>
      <trkpt lat="43.290650993585587" lon="1.877976972609758">
        <ele>285.17000000000002</ele>
        <time>2025-04-26T08:26:20Z</time>
      </trkpt>
      <trkpt lat="43.290821984410286" lon="1.875575976446271">
        <ele>277.48000000000002</ele>
        <time>2025-04-26T08:26:29Z</time>
      </trkpt>
      <trkpt lat="43.291239989921451" lon="1.873361980542541">
        <ele>270.26999999999998</ele>
        <time>2025-04-26T08:26:38Z</time>
      </trkpt>
      <trkpt lat="43.291220040991902" lon="1.873157965019345">
        <ele>269.31</ele>
        <time>2025-04-26T08:26:39Z</time>
      </trkpt>
      <trkpt lat="43.291200008243322" lon="1.872958978638053">
        <ele>268.82999999999998</ele>
        <time>2025-04-26T08:26:40Z</time>
      </trkpt>
      <trkpt lat="43.291133036836982" lon="1.872772984206677">
        <ele>267.86000000000001</ele>
        <time>2025-04-26T08:26:41Z</time>
      </trkpt>
      <trkpt lat="43.291043015196919" lon="1.872619008645415">
        <ele>267.38</ele>
        <time>2025-04-26T08:26:42Z</time>
      </trkpt>
      <trkpt lat="43.290944024920464" lon="1.872477019205689">
        <ele>266.89999999999998</ele>
        <time>2025-04-26T08:26:43Z</time>
      </trkpt>
      <trkpt lat="43.290815027430654" lon="1.872365958988667">
        <ele>266.42000000000002</ele>
        <time>2025-04-26T08:26:44Z</time>
      </trkpt>
      <trkpt lat="43.290660968050361" lon="1.872293036431074">
        <ele>265.94</ele>
        <time>2025-04-26T08:26:45Z</time>
      </trkpt>
      <trkpt lat="43.290496012195945" lon="1.872233022004366">
        <ele>264.98000000000002</ele>
        <time>2025-04-26T08:26:46Z</time>
      </trkpt>
      <trkpt lat="43.288568006828427" lon="1.871527014300227">
        <ele>259.20999999999998</ele>
        <time>2025-04-26T08:26:56Z</time>
      </trkpt>
      <trkpt lat="43.286148989573121" lon="1.87067499384284">
        <ele>256.32999999999998</ele>
        <time>2025-04-26T08:27:08Z</time>
      </trkpt>
      <trkpt lat="43.284345036372542" lon="1.870044004172087">
        <ele>257.76999999999998</ele>
        <time>2025-04-26T08:27:17Z</time>
      </trkpt>
      <trkpt lat="43.283626958727837" lon="1.869853986427188">
        <ele>258.73000000000002</ele>
        <time>2025-04-26T08:27:21Z</time>
      </trkpt>
      <trkpt lat="43.283445993438363" lon="1.869843006134033">
        <ele>259.20999999999998</ele>
        <time>2025-04-26T08:27:22Z</time>
      </trkpt>
      <trkpt lat="43.282059039920568" lon="1.869926992803812">
        <ele>263.06</ele>
        <time>2025-04-26T08:27:30Z</time>
      </trkpt>
      <trkpt lat="43.281967006623745" lon="1.869871001690626">
        <ele>263.54000000000002</ele>
        <time>2025-04-26T08:27:31Z</time>
      </trkpt>
      <trkpt lat="43.281882014125586" lon="1.869800006970763">
        <ele>263.54000000000002</ele>
        <time>2025-04-26T08:27:32Z</time>
      </trkpt>
      <trkpt lat="43.281799033284187" lon="1.869730018079281">
        <ele>263.54000000000002</ele>
        <time>2025-04-26T08:27:33Z</time>
      </trkpt>
      <trkpt lat="43.281746981665492" lon="1.869652988389134">
        <ele>263.54000000000002</ele>
        <time>2025-04-26T08:27:34Z</time>
      </trkpt>
      <trkpt lat="43.281714962795377" lon="1.869509993121028">
        <ele>263.54000000000002</ele>
        <time>2025-04-26T08:27:35Z</time>
      </trkpt>
      <trkpt lat="43.281670035794377" lon="1.869306983426213">
        <ele>263.54000000000002</ele>
        <time>2025-04-26T08:27:36Z</time>
      </trkpt>
      <trkpt lat="43.281682021915913" lon="1.869176980108023">
        <ele>263.54000000000002</ele>
        <time>2025-04-26T08:27:37Z</time>
      </trkpt>
      <trkpt lat="43.2816999591887" lon="1.868975982069969">
        <ele>263.54000000000002</ele>
        <time>2025-04-26T08:27:38Z</time>
      </trkpt>
      <trkpt lat="43.281816970556974" lon="1.867161970585585">
        <ele>264.5</ele>
        <time>2025-04-26T08:27:45Z</time>
      </trkpt>
      <trkpt lat="43.281874973326921" lon="1.865521967411041">
        <ele>266.42000000000002</ele>
        <time>2025-04-26T08:27:51Z</time>
      </trkpt>
      <trkpt lat="43.281835997477174" lon="1.865305965766311">
        <ele>266.89999999999998</ele>
        <time>2025-04-26T08:27:52Z</time>
      </trkpt>
      <trkpt lat="43.281799033284187" lon="1.865101028233767">
        <ele>267.38</ele>
        <time>2025-04-26T08:27:53Z</time>
      </trkpt>
      <trkpt lat="43.281708005815744" lon="1.864933976903558">
        <ele>267.38</ele>
        <time>2025-04-26T08:27:54Z</time>
      </trkpt>
      <trkpt lat="43.28161203302443" lon="1.864758040755987">
        <ele>267.86000000000001</ele>
        <time>2025-04-26T08:27:55Z</time>
      </trkpt>
      <trkpt lat="43.281512036919594" lon="1.864574979990721">
        <ele>268.35000000000002</ele>
        <time>2025-04-26T08:27:56Z</time>
      </trkpt>
      <trkpt lat="43.281126972287893" lon="1.863784985616803">
        <ele>269.31</ele>
        <time>2025-04-26T08:28:00Z</time>
      </trkpt>
      <trkpt lat="43.281048014760017" lon="1.863598991185427">
        <ele>269.79000000000002</ele>
        <time>2025-04-26T08:28:01Z</time>
      </trkpt>
      <trkpt lat="43.281005015596747" lon="1.863363962620497">
        <ele>270.26999999999998</ele>
        <time>2025-04-26T08:28:02Z</time>
      </trkpt>
      <trkpt lat="43.280960004776716" lon="1.863123988732696">
        <ele>270.26999999999998</ele>
        <time>2025-04-26T08:28:03Z</time>
      </trkpt>
      <trkpt lat="43.280912982299924" lon="1.862868005409837">
        <ele>270.75</ele>
        <time>2025-04-26T08:28:04Z</time>
      </trkpt>
      <trkpt lat="43.280650964006782" lon="1.861550034955144">
        <ele>274.58999999999997</ele>
        <time>2025-04-26T08:28:09Z</time>
      </trkpt>
      <trkpt lat="43.280572006478906" lon="1.861317018046975">
        <ele>275.06999999999999</ele>
        <time>2025-04-26T08:28:10Z</time>
      </trkpt>
      <trkpt lat="43.280466981232166" lon="1.861106967553496">
        <ele>276.04000000000002</ele>
        <time>2025-04-26T08:28:11Z</time>
      </trkpt>
      <trkpt lat="43.280361033976078" lon="1.860894989222288">
        <ele>276.51999999999998</ele>
        <time>2025-04-26T08:28:12Z</time>
      </trkpt>
      <trkpt lat="43.280244022607803" lon="1.860732967033982">
        <ele>277.95999999999998</ele>
        <time>2025-04-26T08:28:13Z</time>
      </trkpt>
      <trkpt lat="43.28004302456975" lon="1.860403977334499">
        <ele>279.88</ele>
        <time>2025-04-26T08:28:15Z</time>
      </trkpt>
      <trkpt lat="43.279975969344378" lon="1.860226029530168">
        <ele>280.83999999999997</ele>
        <time>2025-04-26T08:28:16Z</time>
      </trkpt>
      <trkpt lat="43.2799609657377" lon="1.860036011785269">
        <ele>281.80000000000001</ele>
        <time>2025-04-26T08:28:17Z</time>
      </trkpt>
      <trkpt lat="43.279972029849887" lon="1.859835013747215">
        <ele>282.76999999999998</ele>
        <time>2025-04-26T08:28:18Z</time>
      </trkpt>
      <trkpt lat="43.280005976557732" lon="1.859625969082117">
        <ele>283.73000000000002</ele>
        <time>2025-04-26T08:28:19Z</time>
      </trkpt>
      <trkpt lat="43.280051993206143" lon="1.859402004629374">
        <ele>284.69</ele>
        <time>2025-04-26T08:28:20Z</time>
      </trkpt>
      <trkpt lat="43.280102033168077" lon="1.859162030741572">
        <ele>285.64999999999998</ele>
        <time>2025-04-26T08:28:21Z</time>
      </trkpt>
      <trkpt lat="43.28015299513936" lon="1.858911998569965">
        <ele>286.13</ele>
        <time>2025-04-26T08:28:22Z</time>
      </trkpt>
      <trkpt lat="43.280204040929675" lon="1.858661966398358">
        <ele>286.61000000000001</ele>
        <time>2025-04-26T08:28:23Z</time>
      </trkpt>
      <trkpt lat="43.280316023156047" lon="1.857902985066176">
        <ele>288.52999999999997</ele>
        <time>2025-04-26T08:28:26Z</time>
      </trkpt>
      <trkpt lat="43.280298002064228" lon="1.856314027681947">
        <ele>293.33999999999997</ele>
        <time>2025-04-26T08:28:32Z</time>
      </trkpt>
      <trkpt lat="43.280342007055879" lon="1.856075981631875">
        <ele>294.30000000000001</ele>
        <time>2025-04-26T08:28:33Z</time>
      </trkpt>
      <trkpt lat="43.280406966805458" lon="1.855837013572455">
        <ele>295.25999999999999</ele>
        <time>2025-04-26T08:28:34Z</time>
      </trkpt>
      <trkpt lat="43.280918011441827" lon="1.854200027883053">
        <ele>301.02999999999997</ele>
        <time>2025-04-26T08:28:42Z</time>
      </trkpt>
      <trkpt lat="43.280991017818451" lon="1.854035994037986">
        <ele>301.02999999999997</ele>
        <time>2025-04-26T08:28:43Z</time>
      </trkpt>
      <trkpt lat="43.2810989767313" lon="1.853891992941499">
        <ele>301.50999999999999</ele>
        <time>2025-04-26T08:28:44Z</time>
      </trkpt>
      <trkpt lat="43.281220011413097" lon="1.853742962703109">
        <ele>301.50999999999999</ele>
        <time>2025-04-26T08:28:45Z</time>
      </trkpt>
      <trkpt lat="43.281535003334284" lon="1.853270977735519">
        <ele>300.55000000000001</ele>
        <time>2025-04-26T08:28:48Z</time>
      </trkpt>
      <trkpt lat="43.281597029417753" lon="1.853103004395962">
        <ele>300.06999999999999</ele>
        <time>2025-04-26T08:28:49Z</time>
      </trkpt>
      <trkpt lat="43.281618990004063" lon="1.852951040491462">
        <ele>299.58999999999997</ele>
        <time>2025-04-26T08:28:50Z</time>
      </trkpt>
      <trkpt lat="43.281596023589373" lon="1.852762028574944">
        <ele>299.58999999999997</ele>
        <time>2025-04-26T08:28:51Z</time>
      </trkpt>
      <trkpt lat="43.28157096169889" lon="1.852558013051748">
        <ele>299.11000000000001</ele>
        <time>2025-04-26T08:28:52Z</time>
      </trkpt>
      <trkpt lat="43.281544977799058" lon="1.85234502889216">
        <ele>298.63</ele>
        <time>2025-04-26T08:28:53Z</time>
      </trkpt>
      <trkpt lat="43.281516982242465" lon="1.852120980620384">
        <ele>298.14999999999998</ele>
        <time>2025-04-26T08:28:54Z</time>
      </trkpt>
      <trkpt lat="43.281492004171014" lon="1.851886035874486">
        <ele>297.67000000000002</ele>
        <time>2025-04-26T08:28:55Z</time>
      </trkpt>
      <trkpt lat="43.281388990581036" lon="1.849801037460566">
        <ele>293.81999999999999</ele>
        <time>2025-04-26T08:29:03Z</time>
      </trkpt>
      <trkpt lat="43.281411034986377" lon="1.849567014724016">
        <ele>293.33999999999997</ele>
        <time>2025-04-26T08:29:04Z</time>
      </trkpt>
      <trkpt lat="43.281469959765673" lon="1.849355958402157">
        <ele>292.86000000000001</ele>
        <time>2025-04-26T08:29:05Z</time>
      </trkpt>
      <trkpt lat="43.281546989455819" lon="1.849163006991148">
        <ele>292.38</ele>
        <time>2025-04-26T08:29:06Z</time>
      </trkpt>
      <trkpt lat="43.281637011095881" lon="1.848970977589488">
        <ele>291.42000000000002</ele>
        <time>2025-04-26T08:29:07Z</time>
      </trkpt>
      <trkpt lat="43.281756034120917" lon="1.848819013684988">
        <ele>290.94</ele>
        <time>2025-04-26T08:29:08Z</time>
      </trkpt>
      <trkpt lat="43.281885031610727" lon="1.84869596734643">
        <ele>290.45999999999998</ele>
        <time>2025-04-26T08:29:09Z</time>
      </trkpt>
      <trkpt lat="43.282007994130254" lon="1.848578033968806">
        <ele>289.97000000000003</ele>
        <time>2025-04-26T08:29:10Z</time>
      </trkpt>
      <trkpt lat="43.28212701715529" lon="1.848464040085673">
        <ele>289.97000000000003</ele>
        <time>2025-04-26T08:29:11Z</time>
      </trkpt>
      <trkpt lat="43.282215027138591" lon="1.848314004018903">
        <ele>289.49000000000001</ele>
        <time>2025-04-26T08:29:12Z</time>
      </trkpt>
      <trkpt lat="43.282291973009706" lon="1.848171008750796">
        <ele>289.00999999999999</ele>
        <time>2025-04-26T08:29:13Z</time>
      </trkpt>
      <trkpt lat="43.282332960516214" lon="1.847959030419588">
        <ele>288.52999999999997</ele>
        <time>2025-04-26T08:29:14Z</time>
      </trkpt>
      <trkpt lat="43.282374031841755" lon="1.847745040431619">
        <ele>288.05000000000001</ele>
        <time>2025-04-26T08:29:15Z</time>
      </trkpt>
      <trkpt lat="43.282390041276813" lon="1.847515041008592">
        <ele>288.05000000000001</ele>
        <time>2025-04-26T08:29:16Z</time>
      </trkpt>
      <trkpt lat="43.282406972721219" lon="1.846454981714487">
        <ele>285.64999999999998</ele>
        <time>2025-04-26T08:29:21Z</time>
      </trkpt>
      <trkpt lat="43.282352993264794" lon="1.846262030303478">
        <ele>285.64999999999998</ele>
        <time>2025-04-26T08:29:22Z</time>
      </trkpt>
      <trkpt lat="43.282276969403028" lon="1.846096990630031">
        <ele>284.69</ele>
        <time>2025-04-26T08:29:23Z</time>
      </trkpt>
      <trkpt lat="43.28199801966548" lon="1.845554010942578">
        <ele>283.25</ele>
        <time>2025-04-26T08:29:26Z</time>
      </trkpt>
      <trkpt lat="43.281952003017068" lon="1.845140028744936">
        <ele>282.27999999999997</ele>
        <time>2025-04-26T08:29:28Z</time>
      </trkpt>
      <trkpt lat="43.281929958611727" lon="1.844926038756967">
        <ele>281.80000000000001</ele>
        <time>2025-04-26T08:29:29Z</time>
      </trkpt>
      <trkpt lat="43.281852006912231" lon="1.844521025195718">
        <ele>280.83999999999997</ele>
        <time>2025-04-26T08:29:31Z</time>
      </trkpt>
      <trkpt lat="43.281801966950297" lon="1.844362020492554">
        <ele>280.36000000000001</ele>
        <time>2025-04-26T08:29:32Z</time>
      </trkpt>
      <trkpt lat="43.281681016087532" lon="1.844233023002744">
        <ele>279.39999999999998</ele>
        <time>2025-04-26T08:29:33Z</time>
      </trkpt>
      <trkpt lat="43.281573979184031" lon="1.844133026897907">
        <ele>278.92000000000002</ele>
        <time>2025-04-26T08:29:34Z</time>
      </trkpt>
      <trkpt lat="43.281454034149647" lon="1.844080975279212">
        <ele>277.95999999999998</ele>
        <time>2025-04-26T08:29:35Z</time>
      </trkpt>
      <trkpt lat="43.281325036659837" lon="1.844025989994407">
        <ele>276.51999999999998</ele>
        <time>2025-04-26T08:29:36Z</time>
      </trkpt>
      <trkpt lat="43.281194027513266" lon="1.84396899305284">
        <ele>275.56</ele>
        <time>2025-04-26T08:29:37Z</time>
      </trkpt>
      <trkpt lat="43.281080033630133" lon="1.843889029696584">
        <ele>274.11000000000001</ele>
        <time>2025-04-26T08:29:38Z</time>
      </trkpt>
      <trkpt lat="43.281005015596747" lon="1.843815017491579">
        <ele>272.67000000000002</ele>
        <time>2025-04-26T08:29:39Z</time>
      </trkpt>
      <trkpt lat="43.280920023098588" lon="1.843657018616796">
        <ele>271.70999999999998</ele>
        <time>2025-04-26T08:29:40Z</time>
      </trkpt>
      <trkpt lat="43.280854979529977" lon="1.843535983934999">
        <ele>270.26999999999998</ele>
        <time>2025-04-26T08:29:41Z</time>
      </trkpt>
      <trkpt lat="43.280823966488242" lon="1.843354012817144">
        <ele>268.82999999999998</ele>
        <time>2025-04-26T08:29:42Z</time>
      </trkpt>
      <trkpt lat="43.280792031437159" lon="1.843157038092613">
        <ele>267.38</ele>
        <time>2025-04-26T08:29:43Z</time>
      </trkpt>
      <trkpt lat="43.280756995081902" lon="1.842950005084276">
        <ele>265.94</ele>
        <time>2025-04-26T08:29:44Z</time>
      </trkpt>
      <trkpt lat="43.280630009248853" lon="1.84229202568531">
        <ele>261.62</ele>
        <time>2025-04-26T08:29:47Z</time>
      </trkpt>
      <trkpt lat="43.280558008700609" lon="1.842094967141748">
        <ele>260.17000000000002</ele>
        <time>2025-04-26T08:29:48Z</time>
      </trkpt>
      <trkpt lat="43.280486008152366" lon="1.841898998245597">
        <ele>258.73000000000002</ele>
        <time>2025-04-26T08:29:49Z</time>
      </trkpt>
      <trkpt lat="43.280210997909307" lon="1.841154014691711">
        <ele>253.93000000000001</ele>
        <time>2025-04-26T08:29:53Z</time>
      </trkpt>
      <trkpt lat="43.280210997909307" lon="1.840945975854993">
        <ele>252.47999999999999</ele>
        <time>2025-04-26T08:29:54Z</time>
      </trkpt>
      <trkpt lat="43.280210997909307" lon="1.840737015008926">
        <ele>251.52000000000001</ele>
        <time>2025-04-26T08:29:55Z</time>
      </trkpt>
      <trkpt lat="43.280210997909307" lon="1.840316997841001">
        <ele>249.59999999999999</ele>
        <time>2025-04-26T08:29:57Z</time>
      </trkpt>
      <trkpt lat="43.280143020674586" lon="1.840106025338173">
        <ele>248.63999999999999</ele>
        <time>2025-04-26T08:29:58Z</time>
      </trkpt>
      <trkpt lat="43.280074959620833" lon="1.839917013421655">
        <ele>247.68000000000001</ele>
        <time>2025-04-26T08:29:59Z</time>
      </trkpt>
      <trkpt lat="43.279502978548408" lon="1.838299976661801">
        <ele>246.22999999999999</ele>
        <time>2025-04-26T08:30:07Z</time>
      </trkpt>
      <trkpt lat="43.279502978548408" lon="1.838064026087523">
        <ele>245.75</ele>
        <time>2025-04-26T08:30:08Z</time>
      </trkpt>
      <trkpt lat="43.279502978548408" lon="1.837857998907566">
        <ele>245.75</ele>
        <time>2025-04-26T08:30:09Z</time>
      </trkpt>
      <trkpt lat="43.279517982155085" lon="1.837659012526274">
        <ele>245.27000000000001</ele>
        <time>2025-04-26T08:30:10Z</time>
      </trkpt>
      <trkpt lat="43.279544971883297" lon="1.837471006438136">
        <ele>245.27000000000001</ele>
        <time>2025-04-26T08:30:11Z</time>
      </trkpt>
      <trkpt lat="43.279604986310005" lon="1.836972031742334">
        <ele>244.78999999999999</ele>
        <time>2025-04-26T08:30:14Z</time>
      </trkpt>
      <trkpt lat="43.279585037380457" lon="1.836819984018803">
        <ele>244.78999999999999</ele>
        <time>2025-04-26T08:30:15Z</time>
      </trkpt>
      <trkpt lat="43.279540026560426" lon="1.836667014285922">
        <ele>244.78999999999999</ele>
        <time>2025-04-26T08:30:16Z</time>
      </trkpt>
      <trkpt lat="43.27948696911335" lon="1.836515972390771">
        <ele>244.78999999999999</ele>
        <time>2025-04-26T08:30:17Z</time>
      </trkpt>
      <trkpt lat="43.279403988271952" lon="1.83638596907258">
        <ele>244.78999999999999</ele>
        <time>2025-04-26T08:30:18Z</time>
      </trkpt>
      <trkpt lat="43.279312960803509" lon="1.836241967976093">
        <ele>244.31</ele>
        <time>2025-04-26T08:30:19Z</time>
      </trkpt>
      <trkpt lat="43.279116991907358" lon="1.835934016853571">
        <ele>243.83000000000001</ele>
        <time>2025-04-26T08:30:21Z</time>
      </trkpt>
      <trkpt lat="43.279022024944425" lon="1.835759002715349">
        <ele>243.83000000000001</ele>
        <time>2025-04-26T08:30:22Z</time>
      </trkpt>
      <trkpt lat="43.278944995254278" lon="1.835575019940734">
        <ele>243.34999999999999</ele>
        <time>2025-04-26T08:30:23Z</time>
      </trkpt>
      <trkpt lat="43.278899984434247" lon="1.835337979719043">
        <ele>243.34999999999999</ele>
        <time>2025-04-26T08:30:24Z</time>
      </trkpt>
      <trkpt lat="43.278856985270977" lon="1.835104962810874">
        <ele>243.34999999999999</ele>
        <time>2025-04-26T08:30:25Z</time>
      </trkpt>
      <trkpt lat="43.278811974450946" lon="1.834864988923073">
        <ele>242.87</ele>
        <time>2025-04-26T08:30:26Z</time>
      </trkpt>
      <trkpt lat="43.278594966977835" lon="1.832745959982276">
        <ele>241.43000000000001</ele>
        <time>2025-04-26T08:30:34Z</time>
      </trkpt>
      <trkpt lat="43.278390029445291" lon="1.831069998443127">
        <ele>240.94999999999999</ele>
        <time>2025-04-26T08:30:41Z</time>
      </trkpt>
      <trkpt lat="43.278314005583525" lon="1.830859025940299">
        <ele>241.43000000000001</ele>
        <time>2025-04-26T08:30:42Z</time>
      </trkpt>
      <trkpt lat="43.277404988184571" lon="1.828784001991153">
        <ele>242.87</ele>
        <time>2025-04-26T08:30:51Z</time>
      </trkpt>
      <trkpt lat="43.27699201181531" lon="1.827893005684018">
        <ele>243.34999999999999</ele>
        <time>2025-04-26T08:30:55Z</time>
      </trkpt>
      <trkpt lat="43.276882963255048" lon="1.827753027901053">
        <ele>243.83000000000001</ele>
        <time>2025-04-26T08:30:56Z</time>
      </trkpt>
      <trkpt lat="43.276754971593618" lon="1.827640039846301">
        <ele>243.83000000000001</ele>
        <time>2025-04-26T08:30:57Z</time>
      </trkpt>
      <trkpt lat="43.27660602517426" lon="1.827536020427942">
        <ele>243.83000000000001</ele>
        <time>2025-04-26T08:30:58Z</time>
      </trkpt>
      <trkpt lat="43.276447020471096" lon="1.827424960210919">
        <ele>244.31</ele>
        <time>2025-04-26T08:30:59Z</time>
      </trkpt>
      <trkpt lat="43.275012038648129" lon="1.826772009953857">
        <ele>245.27000000000001</ele>
        <time>2025-04-26T08:31:07Z</time>
      </trkpt>
      <trkpt lat="43.274603001773357" lon="1.826529018580914">
        <ele>244.78999999999999</ele>
        <time>2025-04-26T08:31:10Z</time>
      </trkpt>
      <trkpt lat="43.274474004283547" lon="1.826444026082754">
        <ele>244.31</ele>
        <time>2025-04-26T08:31:11Z</time>
      </trkpt>
      <trkpt lat="43.274376019835472" lon="1.826297007501125">
        <ele>243.83000000000001</ele>
        <time>2025-04-26T08:31:12Z</time>
      </trkpt>
      <trkpt lat="43.27357797883451" lon="1.824927991256118">
        <ele>239.50999999999999</ele>
        <time>2025-04-26T08:31:19Z</time>
      </trkpt>
      <trkpt lat="43.272749008610845" lon="1.823411034420133">
        <ele>236.13999999999999</ele>
        <time>2025-04-26T08:31:26Z</time>
      </trkpt>
      <trkpt lat="43.272672984749079" lon="1.823216993361712">
        <ele>235.66</ele>
        <time>2025-04-26T08:31:27Z</time>
      </trkpt>
      <trkpt lat="43.272619005292654" lon="1.823013983666897">
        <ele>235.18000000000001</ele>
        <time>2025-04-26T08:31:28Z</time>
      </trkpt>
      <trkpt lat="43.272607019171119" lon="1.822803011164069">
        <ele>234.69999999999999</ele>
        <time>2025-04-26T08:31:29Z</time>
      </trkpt>
      <trkpt lat="43.272597966715693" lon="1.82259296067059">
        <ele>234.22</ele>
        <time>2025-04-26T08:31:30Z</time>
      </trkpt>
      <trkpt lat="43.272612970322371" lon="1.82237695902586">
        <ele>234.22</ele>
        <time>2025-04-26T08:31:31Z</time>
      </trkpt>
      <trkpt lat="43.27265202999115" lon="1.822156012058258">
        <ele>233.74000000000001</ele>
        <time>2025-04-26T08:31:32Z</time>
      </trkpt>
      <trkpt lat="43.272722018882632" lon="1.821947973221541">
        <ele>233.25999999999999</ele>
        <time>2025-04-26T08:31:33Z</time>
      </trkpt>
      <trkpt lat="43.272796031087637" lon="1.821746975183487">
        <ele>233.25999999999999</ele>
        <time>2025-04-26T08:31:34Z</time>
      </trkpt>
      <trkpt lat="43.272901978343725" lon="1.821577996015549">
        <ele>232.78</ele>
        <time>2025-04-26T08:31:35Z</time>
      </trkpt>
      <trkpt lat="43.27301999554038" lon="1.821405999362469">
        <ele>232.78</ele>
        <time>2025-04-26T08:31:36Z</time>
      </trkpt>
      <trkpt lat="43.273144969716668" lon="1.821225034072995">
        <ele>232.78</ele>
        <time>2025-04-26T08:31:37Z</time>
      </trkpt>
      <trkpt lat="43.273546965792775" lon="1.820679036900401">
        <ele>231.81</ele>
        <time>2025-04-26T08:31:40Z</time>
      </trkpt>
      <trkpt lat="43.273686021566391" lon="1.820520032197237">
        <ele>231.81</ele>
        <time>2025-04-26T08:31:41Z</time>
      </trkpt>
      <trkpt lat="43.27383597381413" lon="1.820390028879046">
        <ele>231.33000000000001</ele>
        <time>2025-04-26T08:31:42Z</time>
      </trkpt>
      <trkpt lat="43.27430997043848" lon="1.820018040016294">
        <ele>231.33000000000001</ele>
        <time>2025-04-26T08:31:45Z</time>
      </trkpt>
      <trkpt lat="43.27445900067687" lon="1.81986004114151">
        <ele>231.33000000000001</ele>
        <time>2025-04-26T08:31:46Z</time>
      </trkpt>
      <trkpt lat="43.274591015651822" lon="1.819664994254708">
        <ele>231.33000000000001</ele>
        <time>2025-04-26T08:31:47Z</time>
      </trkpt>
      <trkpt lat="43.275417974218726" lon="1.818059021607041">
        <ele>233.25999999999999</ele>
        <time>2025-04-26T08:31:54Z</time>
      </trkpt>
      <trkpt lat="43.27585500665009" lon="1.816455982625485">
        <ele>236.13999999999999</ele>
        <time>2025-04-26T08:32:01Z</time>
      </trkpt>
      <trkpt lat="43.27594100497663" lon="1.816263031214476">
        <ele>236.13999999999999</ele>
        <time>2025-04-26T08:32:02Z</time>
      </trkpt>
      <trkpt lat="43.276011999696493" lon="1.816204022616148">
        <ele>236.62</ele>
        <time>2025-04-26T08:32:03Z</time>
      </trkpt>
      <trkpt lat="43.276121970266104" lon="1.816114000976086">
        <ele>237.09999999999999</ele>
        <time>2025-04-26T08:32:04Z</time>
      </trkpt>
      <trkpt lat="43.276350041851401" lon="1.815924989059568">
        <ele>237.58000000000001</ele>
        <time>2025-04-26T08:32:06Z</time>
      </trkpt>
      <trkpt lat="43.276482978835702" lon="1.81575802154839">
        <ele>238.06</ele>
        <time>2025-04-26T08:32:07Z</time>
      </trkpt>
      <trkpt lat="43.27654198743403" lon="1.81552198715508">
        <ele>239.02000000000001</ele>
        <time>2025-04-26T08:32:08Z</time>
      </trkpt>
      <trkpt lat="43.27654198743403" lon="1.815379997715354">
        <ele>239.50999999999999</ele>
        <time>2025-04-26T08:32:09Z</time>
      </trkpt>
      <trkpt lat="43.276504017412663" lon="1.815184028819203">
        <ele>239.99000000000001</ele>
        <time>2025-04-26T08:32:10Z</time>
      </trkpt>
      <trkpt lat="43.27645598910749" lon="1.815067017450929">
        <ele>240.94999999999999</ele>
        <time>2025-04-26T08:32:11Z</time>
      </trkpt>
      <trkpt lat="43.276409972459078" lon="1.814956963062286">
        <ele>241.43000000000001</ele>
        <time>2025-04-26T08:32:12Z</time>
      </trkpt>
      <trkpt lat="43.276321040466428" lon="1.814880017191172">
        <ele>241.91</ele>
        <time>2025-04-26T08:32:13Z</time>
      </trkpt>
      <trkpt lat="43.27622096054256" lon="1.814835006371141">
        <ele>242.38999999999999</ele>
        <time>2025-04-26T08:32:14Z</time>
      </trkpt>
      <trkpt lat="43.276095986366272" lon="1.814780021086335">
        <ele>242.87</ele>
        <time>2025-04-26T08:32:15Z</time>
      </trkpt>
      <trkpt lat="43.275964977219701" lon="1.814711038023233">
        <ele>243.34999999999999</ele>
        <time>2025-04-26T08:32:16Z</time>
      </trkpt>
      <trkpt lat="43.275829022750258" lon="1.814613975584507">
        <ele>243.83000000000001</ele>
        <time>2025-04-26T08:32:17Z</time>
      </trkpt>
      <trkpt lat="43.27570497058332" lon="1.814524959772825">
        <ele>244.31</ele>
        <time>2025-04-26T08:32:18Z</time>
      </trkpt>
      <trkpt lat="43.275581002235413" lon="1.814387999475002">
        <ele>244.78999999999999</ele>
        <time>2025-04-26T08:32:19Z</time>
      </trkpt>
      <trkpt lat="43.275486035272479" lon="1.814266964793205">
        <ele>245.27000000000001</ele>
        <time>2025-04-26T08:32:20Z</time>
      </trkpt>
      <trkpt lat="43.275407999753952" lon="1.814137967303395">
        <ele>245.27000000000001</ele>
        <time>2025-04-26T08:32:21Z</time>
      </trkpt>
      <trkpt lat="43.275373969227076" lon="1.813989020884037">
        <ele>245.75</ele>
        <time>2025-04-26T08:32:22Z</time>
      </trkpt>
      <trkpt lat="43.275357959792018" lon="1.813809983432293">
        <ele>246.72</ele>
        <time>2025-04-26T08:32:23Z</time>
      </trkpt>
      <trkpt lat="43.275340022519231" lon="1.813602028414607">
        <ele>247.68000000000001</ele>
        <time>2025-04-26T08:32:24Z</time>
      </trkpt>
      <trkpt lat="43.275351002812386" lon="1.813423996791244">
        <ele>248.16</ele>
        <time>2025-04-26T08:32:25Z</time>
      </trkpt>
      <trkpt lat="43.275365000590682" lon="1.8132000323385">
        <ele>249.12</ele>
        <time>2025-04-26T08:32:26Z</time>
      </trkpt>
      <trkpt lat="43.275380004197359" lon="1.812957040965557">
        <ele>249.59999999999999</ele>
        <time>2025-04-26T08:32:27Z</time>
      </trkpt>
      <trkpt lat="43.275385033339262" lon="1.811480987817049">
        <ele>254.88999999999999</ele>
        <time>2025-04-26T08:32:33Z</time>
      </trkpt>
      <trkpt lat="43.275275984779" lon="1.810297966003418">
        <ele>258.73000000000002</ele>
        <time>2025-04-26T08:32:39Z</time>
      </trkpt>
      <trkpt lat="43.27531898394227" lon="1.810104008764029">
        <ele>259.20999999999998</ele>
        <time>2025-04-26T08:32:40Z</time>
      </trkpt>
      <trkpt lat="43.275366006419063" lon="1.809897981584072">
        <ele>259.20999999999998</ele>
        <time>2025-04-26T08:32:41Z</time>
      </trkpt>
      <trkpt lat="43.275586031377316" lon="1.809258023276925">
        <ele>259.20999999999998</ele>
        <time>2025-04-26T08:32:44Z</time>
      </trkpt>
      <trkpt lat="43.275667000561953" lon="1.809021988883615">
        <ele>259.20999999999998</ele>
        <time>2025-04-26T08:32:45Z</time>
      </trkpt>
      <trkpt lat="43.275824999436736" lon="1.808561990037561">
        <ele>258.73000000000002</ele>
        <time>2025-04-26T08:32:47Z</time>
      </trkpt>
      <trkpt lat="43.27591803856194" lon="1.808360991999507">
        <ele>258.25</ele>
        <time>2025-04-26T08:32:48Z</time>
      </trkpt>
      <trkpt lat="43.276033038273454" lon="1.808205004781485">
        <ele>257.76999999999998</ele>
        <time>2025-04-26T08:32:49Z</time>
      </trkpt>
      <trkpt lat="43.276220038533211" lon="1.80800199508667">
        <ele>257.76999999999998</ele>
        <time>2025-04-26T08:32:51Z</time>
      </trkpt>
      <trkpt lat="43.27630402520299" lon="1.807819018140435">
        <ele>257.29000000000002</ele>
        <time>2025-04-26T08:32:52Z</time>
      </trkpt>
      <trkpt lat="43.276349036023021" lon="1.807687003165484">
        <ele>257.29000000000002</ele>
        <time>2025-04-26T08:32:53Z</time>
      </trkpt>
      <trkpt lat="43.276349036023021" lon="1.807494973763824">
        <ele>257.29000000000002</ele>
        <time>2025-04-26T08:32:54Z</time>
      </trkpt>
      <trkpt lat="43.276349036023021" lon="1.807282995432615">
        <ele>256.81</ele>
        <time>2025-04-26T08:32:55Z</time>
      </trkpt>
      <trkpt lat="43.276349036023021" lon="1.807054001837969">
        <ele>256.81</ele>
        <time>2025-04-26T08:32:56Z</time>
      </trkpt>
      <trkpt lat="43.276316011324525" lon="1.805542996153235">
        <ele>254.88999999999999</ele>
        <time>2025-04-26T08:33:02Z</time>
      </trkpt>
      <trkpt lat="43.276269994676113" lon="1.805288018658757">
        <ele>254.41</ele>
        <time>2025-04-26T08:33:03Z</time>
      </trkpt>
      <trkpt lat="43.27604703605175" lon="1.804032996296883">
        <ele>252.96000000000001</ele>
        <time>2025-04-26T08:33:08Z</time>
      </trkpt>
      <trkpt lat="43.27600596472621" lon="1.80379101075232">
        <ele>252</ele>
        <time>2025-04-26T08:33:09Z</time>
      </trkpt>
      <trkpt lat="43.276017028838396" lon="1.803542990237474">
        <ele>251.52000000000001</ele>
        <time>2025-04-26T08:33:10Z</time>
      </trkpt>
      <trkpt lat="43.276062961667776" lon="1.80280202999711">
        <ele>250.08000000000001</ele>
        <time>2025-04-26T08:33:13Z</time>
      </trkpt>
      <trkpt lat="43.276109984144568" lon="1.802568007260561">
        <ele>249.59999999999999</ele>
        <time>2025-04-26T08:33:14Z</time>
      </trkpt>
      <trkpt lat="43.276190031319857" lon="1.802359968423843">
        <ele>248.63999999999999</ele>
        <time>2025-04-26T08:33:15Z</time>
      </trkpt>
      <trkpt lat="43.276274017989635" lon="1.802142960950732">
        <ele>248.16</ele>
        <time>2025-04-26T08:33:16Z</time>
      </trkpt>
      <trkpt lat="43.276363033801317" lon="1.801920002326369">
        <ele>247.19999999999999</ele>
        <time>2025-04-26T08:33:17Z</time>
      </trkpt>
      <trkpt lat="43.276751032099128" lon="1.801121961325407">
        <ele>245.27000000000001</ele>
        <time>2025-04-26T08:33:21Z</time>
      </trkpt>
      <trkpt lat="43.276879023760557" lon="1.801005033776164">
        <ele>244.78999999999999</ele>
        <time>2025-04-26T08:33:22Z</time>
      </trkpt>
      <trkpt lat="43.277013972401619" lon="1.800906965509057">
        <ele>244.31</ele>
        <time>2025-04-26T08:33:23Z</time>
      </trkpt>
      <trkpt lat="43.277170965448022" lon="1.800857009366155">
        <ele>243.83000000000001</ele>
        <time>2025-04-26T08:33:24Z</time>
      </trkpt>
      <trkpt lat="43.277341034263372" lon="1.80080302990973">
        <ele>242.87</ele>
        <time>2025-04-26T08:33:25Z</time>
      </trkpt>
      <trkpt lat="43.277819976210594" lon="1.800650982186198">
        <ele>241.43000000000001</ele>
        <time>2025-04-26T08:33:28Z</time>
      </trkpt>
      <trkpt lat="43.277932964265347" lon="1.800595996901393">
        <ele>240.47</ele>
        <time>2025-04-26T08:33:29Z</time>
      </trkpt>
      <trkpt lat="43.278003958985209" lon="1.800496000796557">
        <ele>239.99000000000001</ele>
        <time>2025-04-26T08:33:30Z</time>
      </trkpt>
      <trkpt lat="43.278041006997228" lon="1.800377983599901">
        <ele>239.50999999999999</ele>
        <time>2025-04-26T08:33:31Z</time>
      </trkpt>
      <trkpt lat="43.278064979240298" lon="1.800230965018272">
        <ele>239.02000000000001</ele>
        <time>2025-04-26T08:33:32Z</time>
      </trkpt>
      <trkpt lat="43.278060033917427" lon="1.800055028870702">
        <ele>238.53999999999999</ele>
        <time>2025-04-26T08:33:33Z</time>
      </trkpt>
      <trkpt lat="43.278056010603905" lon="1.799857970327139">
        <ele>238.06</ele>
        <time>2025-04-26T08:33:34Z</time>
      </trkpt>
      <trkpt lat="43.27804503031075" lon="1.798576964065433">
        <ele>234.69999999999999</ele>
        <time>2025-04-26T08:33:40Z</time>
      </trkpt>
      <trkpt lat="43.278081994503736" lon="1.798391975462437">
        <ele>233.74000000000001</ele>
        <time>2025-04-26T08:33:41Z</time>
      </trkpt>
      <trkpt lat="43.278158018365502" lon="1.79822601377964">
        <ele>233.25999999999999</ele>
        <time>2025-04-26T08:33:42Z</time>
      </trkpt>
      <trkpt lat="43.278236975893378" lon="1.798067009076476">
        <ele>232.78</ele>
        <time>2025-04-26T08:33:43Z</time>
      </trkpt>
      <trkpt lat="43.278320040553808" lon="1.797900041565299">
        <ele>232.30000000000001</ele>
        <time>2025-04-26T08:33:44Z</time>
      </trkpt>
      <trkpt lat="43.278736034408212" lon="1.797271985560656">
        <ele>229.88999999999999</ele>
        <time>2025-04-26T08:33:48Z</time>
      </trkpt>
      <trkpt lat="43.278874000534415" lon="1.797147011384368">
        <ele>229.41</ele>
        <time>2025-04-26T08:33:49Z</time>
      </trkpt>
      <trkpt lat="43.279525022953749" lon="1.796535970643163">
        <ele>225.56999999999999</ele>
        <time>2025-04-26T08:33:54Z</time>
      </trkpt>
      <trkpt lat="43.279620995745063" lon="1.796403033658862">
        <ele>225.09</ele>
        <time>2025-04-26T08:33:55Z</time>
      </trkpt>
      <trkpt lat="43.279674975201488" lon="1.796230031177402">
        <ele>225.09</ele>
        <time>2025-04-26T08:33:56Z</time>
      </trkpt>
      <trkpt lat="43.279739012941718" lon="1.796029033139348">
        <ele>224.61000000000001</ele>
        <time>2025-04-26T08:33:57Z</time>
      </trkpt>
      <trkpt lat="43.27976600266993" lon="1.795878997072578">
        <ele>224.61000000000001</ele>
        <time>2025-04-26T08:33:58Z</time>
      </trkpt>
      <trkpt lat="43.279796009883285" lon="1.795713035389781">
        <ele>224.12</ele>
        <time>2025-04-26T08:33:59Z</time>
      </trkpt>
      <trkpt lat="43.279824005439878" lon="1.795555958524346">
        <ele>223.63999999999999</ele>
        <time>2025-04-26T08:34:00Z</time>
      </trkpt>
      <trkpt lat="43.279881002381444" lon="1.795241972431541">
        <ele>223.16</ele>
        <time>2025-04-26T08:34:02Z</time>
      </trkpt>
      <trkpt lat="43.279974963515997" lon="1.794277969747782">
        <ele>221.72</ele>
        <time>2025-04-26T08:34:10Z</time>
      </trkpt>
      <trkpt lat="43.279993990436196" lon="1.79405702278018">
        <ele>221.72</ele>
        <time>2025-04-26T08:34:12Z</time>
      </trkpt>
      <trkpt lat="43.280026009306312" lon="1.793920984491706">
        <ele>221.72</ele>
        <time>2025-04-26T08:34:13Z</time>
      </trkpt>
      <trkpt lat="43.280063979327679" lon="1.793781006708741">
        <ele>221.72</ele>
        <time>2025-04-26T08:34:14Z</time>
      </trkpt>
      <trkpt lat="43.280146960169077" lon="1.793274991214275">
        <ele>222.19999999999999</ele>
        <time>2025-04-26T08:34:17Z</time>
      </trkpt>
      <trkpt lat="43.280162969604135" lon="1.793080028146505">
        <ele>222.68000000000001</ele>
        <time>2025-04-26T08:34:18Z</time>
      </trkpt>
      <trkpt lat="43.280143020674586" lon="1.792877018451691">
        <ele>223.16</ele>
        <time>2025-04-26T08:34:19Z</time>
      </trkpt>
      <trkpt lat="43.279954008758068" lon="1.79152300581336">
        <ele>227.00999999999999</ele>
        <time>2025-04-26T08:34:25Z</time>
      </trkpt>
      <trkpt lat="43.279869016259909" lon="1.791327958926559">
        <ele>227.97</ele>
        <time>2025-04-26T08:34:26Z</time>
      </trkpt>
      <trkpt lat="43.279329976066947" lon="1.790173016488552">
        <ele>232.78</ele>
        <time>2025-04-26T08:34:32Z</time>
      </trkpt>
      <trkpt lat="43.279223022982478" lon="1.790028009563685">
        <ele>233.74000000000001</ele>
        <time>2025-04-26T08:34:33Z</time>
      </trkpt>
      <trkpt lat="43.279091008007526" lon="1.789943017065525">
        <ele>234.22</ele>
        <time>2025-04-26T08:34:34Z</time>
      </trkpt>
      <trkpt lat="43.278950024396181" lon="1.789878979325295">
        <ele>235.18000000000001</ele>
        <time>2025-04-26T08:34:35Z</time>
      </trkpt>
      <trkpt lat="43.278796970844269" lon="1.78984603844583">
        <ele>236.13999999999999</ele>
        <time>2025-04-26T08:34:36Z</time>
      </trkpt>
      <trkpt lat="43.278638971969485" lon="1.789830029010773">
        <ele>237.58000000000001</ele>
        <time>2025-04-26T08:34:37Z</time>
      </trkpt>
      <trkpt lat="43.278472004458308" lon="1.789834974333644">
        <ele>238.53999999999999</ele>
        <time>2025-04-26T08:34:38Z</time>
      </trkpt>
      <trkpt lat="43.278314005583525" lon="1.789840003475547">
        <ele>239.99000000000001</ele>
        <time>2025-04-26T08:34:39Z</time>
      </trkpt>
      <trkpt lat="43.27817696146667" lon="1.789844026789069">
        <ele>241.43000000000001</ele>
        <time>2025-04-26T08:34:40Z</time>
      </trkpt>
      <trkpt lat="43.278056010603905" lon="1.78984796628356">
        <ele>242.87</ele>
        <time>2025-04-26T08:34:41Z</time>
      </trkpt>
      <trkpt lat="43.277957020327449" lon="1.789809996262193">
        <ele>243.83000000000001</ele>
        <time>2025-04-26T08:34:42Z</time>
      </trkpt>
      <trkpt lat="43.277915026992559" lon="1.789784012362361">
        <ele>245.27000000000001</ele>
        <time>2025-04-26T08:34:43Z</time>
      </trkpt>
      <trkpt lat="43.277854006737471" lon="1.789646968245506">
        <ele>246.72</ele>
        <time>2025-04-26T08:34:44Z</time>
      </trkpt>
      <trkpt lat="43.277820982038975" lon="1.789531968533993">
        <ele>248.16</ele>
        <time>2025-04-26T08:34:45Z</time>
      </trkpt>
      <trkpt lat="43.277797009795904" lon="1.789362989366055">
        <ele>249.12</ele>
        <time>2025-04-26T08:34:46Z</time>
      </trkpt>
      <trkpt lat="43.277770020067692" lon="1.789176994934678">
        <ele>250.08000000000001</ele>
        <time>2025-04-26T08:34:47Z</time>
      </trkpt>
      <trkpt lat="43.277685027569532" lon="1.788581041619182">
        <ele>253.44</ele>
        <time>2025-04-26T08:34:50Z</time>
      </trkpt>
      <trkpt lat="43.277652002871037" lon="1.788376020267606">
        <ele>254.41</ele>
        <time>2025-04-26T08:34:51Z</time>
      </trkpt>
      <trkpt lat="43.277575979009271" lon="1.78819103166461">
        <ele>254.88999999999999</ele>
        <time>2025-04-26T08:34:52Z</time>
      </trkpt>
      <trkpt lat="43.277491992339492" lon="1.788003025576472">
        <ele>255.37</ele>
        <time>2025-04-26T08:34:53Z</time>
      </trkpt>
      <trkpt lat="43.277385039255023" lon="1.787857012823224">
        <ele>255.37</ele>
        <time>2025-04-26T08:34:54Z</time>
      </trkpt>
      <trkpt lat="43.277056971564889" lon="1.787402965128422">
        <ele>255.84999999999999</ele>
        <time>2025-04-26T08:34:57Z</time>
      </trkpt>
      <trkpt lat="43.277011960744858" lon="1.787235997617245">
        <ele>255.84999999999999</ele>
        <time>2025-04-26T08:34:58Z</time>
      </trkpt>
      <trkpt lat="43.27697298489511" lon="1.787066012620926">
        <ele>255.84999999999999</ele>
        <time>2025-04-26T08:34:59Z</time>
      </trkpt>
      <trkpt lat="43.27699301764369" lon="1.786884963512421">
        <ele>255.84999999999999</ele>
        <time>2025-04-26T08:35:00Z</time>
      </trkpt>
      <trkpt lat="43.27701497823" lon="1.786691006273031">
        <ele>255.84999999999999</ele>
        <time>2025-04-26T08:35:01Z</time>
      </trkpt>
      <trkpt lat="43.277088990435004" lon="1.786506017670035">
        <ele>256.32999999999998</ele>
        <time>2025-04-26T08:35:02Z</time>
      </trkpt>
      <trkpt lat="43.277167025953531" lon="1.786310970783234">
        <ele>256.81</ele>
        <time>2025-04-26T08:35:03Z</time>
      </trkpt>
      <trkpt lat="43.277675975114107" lon="1.784940026700497">
        <ele>259.69</ele>
        <time>2025-04-26T08:35:09Z</time>
      </trkpt>
      <trkpt lat="43.27793899923563" lon="1.783699002116919">
        <ele>263.06</ele>
        <time>2025-04-26T08:35:14Z</time>
      </trkpt>
      <trkpt lat="43.2779819983989" lon="1.783462967723608">
        <ele>264.01999999999998</ele>
        <time>2025-04-26T08:35:15Z</time>
      </trkpt>
      <trkpt lat="43.27802499756217" lon="1.783223999664187">
        <ele>264.98000000000002</ele>
        <time>2025-04-26T08:35:16Z</time>
      </trkpt>
      <trkpt lat="43.278164975345135" lon="1.782224038615823">
        <ele>267.86000000000001</ele>
        <time>2025-04-26T08:35:20Z</time>
      </trkpt>
      <trkpt lat="43.278163969516754" lon="1.781970988959074">
        <ele>268.82999999999998</ele>
        <time>2025-04-26T08:35:21Z</time>
      </trkpt>
      <trkpt lat="43.278118036687374" lon="1.781475031748414">
        <ele>270.75</ele>
        <time>2025-04-26T08:35:23Z</time>
      </trkpt>
      <trkpt lat="43.278124993667006" lon="1.781218964606524">
        <ele>271.23000000000002</ele>
        <time>2025-04-26T08:35:24Z</time>
      </trkpt>
      <trkpt lat="43.278150977566838" lon="1.780971027910709">
        <ele>272.19</ele>
        <time>2025-04-26T08:35:25Z</time>
      </trkpt>
      <trkpt lat="43.278275029733777" lon="1.778979990631342">
        <ele>278.92000000000002</ele>
        <time>2025-04-26T08:35:33Z</time>
      </trkpt>
      <trkpt lat="43.278278969228268" lon="1.778785027563572">
        <ele>279.88</ele>
        <time>2025-04-26T08:35:34Z</time>
      </trkpt>
      <trkpt lat="43.278249967843294" lon="1.778600038960576">
        <ele>280.83999999999997</ele>
        <time>2025-04-26T08:35:35Z</time>
      </trkpt>
      <trkpt lat="43.278204035013914" lon="1.778427036479116">
        <ele>281.80000000000001</ele>
        <time>2025-04-26T08:35:36Z</time>
      </trkpt>
      <trkpt lat="43.278116025030613" lon="1.778282029554248">
        <ele>282.27999999999997</ele>
        <time>2025-04-26T08:35:37Z</time>
      </trkpt>
      <trkpt lat="43.278016028925776" lon="1.778141967952251">
        <ele>283.25</ele>
        <time>2025-04-26T08:35:38Z</time>
      </trkpt>
      <trkpt lat="43.277898011729121" lon="1.778012970462441">
        <ele>283.73000000000002</ele>
        <time>2025-04-26T08:35:39Z</time>
      </trkpt>
      <trkpt lat="43.277773037552834" lon="1.777895037084818">
        <ele>284.69</ele>
        <time>2025-04-26T08:35:40Z</time>
      </trkpt>
      <trkpt lat="43.277657032012939" lon="1.777784982696176">
        <ele>285.64999999999998</ele>
        <time>2025-04-26T08:35:41Z</time>
      </trkpt>
      <trkpt lat="43.277570027858019" lon="1.777661014348269">
        <ele>286.61000000000001</ele>
        <time>2025-04-26T08:35:42Z</time>
      </trkpt>
      <trkpt lat="43.277506995946169" lon="1.777489017695189">
        <ele>287.08999999999997</ele>
        <time>2025-04-26T08:35:43Z</time>
      </trkpt>
      <trkpt lat="43.277475982904434" lon="1.777332024648786">
        <ele>288.05000000000001</ele>
        <time>2025-04-26T08:35:44Z</time>
      </trkpt>
      <trkpt lat="43.277438012883067" lon="1.777142006903887">
        <ele>289.00999999999999</ele>
        <time>2025-04-26T08:35:45Z</time>
      </trkpt>
      <trkpt lat="43.277396019548178" lon="1.776932962238789">
        <ele>289.97000000000003</ele>
        <time>2025-04-26T08:35:46Z</time>
      </trkpt>
      <trkpt lat="43.277351008728147" lon="1.776710003614426">
        <ele>290.94</ele>
        <time>2025-04-26T08:35:47Z</time>
      </trkpt>
      <trkpt lat="43.277265010401607" lon="1.776501964777708">
        <ele>291.89999999999998</ele>
        <time>2025-04-26T08:35:48Z</time>
      </trkpt>
      <trkpt lat="43.277160990983248" lon="1.77631001919508">
        <ele>292.38</ele>
        <time>2025-04-26T08:35:49Z</time>
      </trkpt>
      <trkpt lat="43.277062000706792" lon="1.776126036420465">
        <ele>293.81999999999999</ele>
        <time>2025-04-26T08:35:50Z</time>
      </trkpt>
      <trkpt lat="43.276967033743858" lon="1.775952028110623">
        <ele>294.77999999999997</ele>
        <time>2025-04-26T08:35:51Z</time>
      </trkpt>
      <trkpt lat="43.276900984346867" lon="1.775759998708963">
        <ele>295.25999999999999</ele>
        <time>2025-04-26T08:35:52Z</time>
      </trkpt>
      <trkpt lat="43.276851028203964" lon="1.775541985407472">
        <ele>296.22000000000003</ele>
        <time>2025-04-26T08:35:53Z</time>
      </trkpt>
      <trkpt lat="43.276802999898791" lon="1.775307962670922">
        <ele>297.18000000000001</ele>
        <time>2025-04-26T08:35:54Z</time>
      </trkpt>
      <trkpt lat="43.276758994907141" lon="1.775057008489966">
        <ele>298.14999999999998</ele>
        <time>2025-04-26T08:35:55Z</time>
      </trkpt>
      <trkpt lat="43.276279969140887" lon="1.773215001448989">
        <ele>301.99000000000001</ele>
        <time>2025-04-26T08:36:02Z</time>
      </trkpt>
      <trkpt lat="43.276134040206671" lon="1.772939991205931">
        <ele>304.38999999999999</ele>
        <time>2025-04-26T08:36:04Z</time>
      </trkpt>
      <trkpt lat="43.276030020788312" lon="1.772888023406267">
        <ele>305.36000000000001</ele>
        <time>2025-04-26T08:36:05Z</time>
      </trkpt>
      <trkpt lat="43.27593999914825" lon="1.772843012586236">
        <ele>306.31999999999999</ele>
        <time>2025-04-26T08:36:06Z</time>
      </trkpt>
      <trkpt lat="43.275867998600006" lon="1.772860027849674">
        <ele>306.80000000000001</ele>
        <time>2025-04-26T08:36:07Z</time>
      </trkpt>
      <trkpt lat="43.275755010545254" lon="1.772919958457351">
        <ele>307.27999999999997</ele>
        <time>2025-04-26T08:36:08Z</time>
      </trkpt>
      <trkpt lat="43.275628024712205" lon="1.772986007854343">
        <ele>307.75999999999999</ele>
        <time>2025-04-26T08:36:09Z</time>
      </trkpt>
      <trkpt lat="43.27549098059535" lon="1.773058008402586">
        <ele>308.24000000000001</ele>
        <time>2025-04-26T08:36:10Z</time>
      </trkpt>
      <trkpt lat="43.27434903010726" lon="1.773568969219923">
        <ele>312.08999999999997</ele>
        <time>2025-04-26T08:36:17Z</time>
      </trkpt>
      <trkpt lat="43.27347001992166" lon="1.773803997784853">
        <ele>314.97000000000003</ele>
        <time>2025-04-26T08:36:22Z</time>
      </trkpt>
      <trkpt lat="43.273323001340032" lon="1.773863006383181">
        <ele>315.44999999999999</ele>
        <time>2025-04-26T08:36:23Z</time>
      </trkpt>
      <trkpt lat="43.273146981373429" lon="1.774009019136429">
        <ele>315.93000000000001</ele>
        <time>2025-04-26T08:36:24Z</time>
      </trkpt>
      <trkpt lat="43.272993005812168" lon="1.774138016626239">
        <ele>316.41000000000003</ele>
        <time>2025-04-26T08:36:25Z</time>
      </trkpt>
      <trkpt lat="43.272852022200823" lon="1.774256033822894">
        <ele>316.88999999999999</ele>
        <time>2025-04-26T08:36:26Z</time>
      </trkpt>
      <trkpt lat="43.272551028057933" lon="1.77450698800385">
        <ele>317.37</ele>
        <time>2025-04-26T08:36:29Z</time>
      </trkpt>
      <trkpt lat="43.272475004196167" lon="1.774481004104018">
        <ele>317.37</ele>
        <time>2025-04-26T08:36:30Z</time>
      </trkpt>
      <trkpt lat="43.272405015304685" lon="1.774458037689328">
        <ele>316.88999999999999</ele>
        <time>2025-04-26T08:36:31Z</time>
      </trkpt>
      <trkpt lat="43.27235396951437" lon="1.774428030475974">
        <ele>316.88999999999999</ele>
        <time>2025-04-26T08:36:32Z</time>
      </trkpt>
      <trkpt lat="43.272332008928061" lon="1.774339014664292">
        <ele>316.88999999999999</ele>
        <time>2025-04-26T08:36:33Z</time>
      </trkpt>
      <trkpt lat="43.272293033078313" lon="1.774185039103031">
        <ele>316.41000000000003</ele>
        <time>2025-04-26T08:36:34Z</time>
      </trkpt>
      <trkpt lat="43.272324968129396" lon="1.774061992764473">
        <ele>316.41000000000003</ele>
        <time>2025-04-26T08:36:35Z</time>
      </trkpt>
      <trkpt lat="43.272365033626556" lon="1.773908017203212">
        <ele>315.93000000000001</ele>
        <time>2025-04-26T08:36:36Z</time>
      </trkpt>
      <trkpt lat="43.272409960627556" lon="1.773735014721751">
        <ele>315.44999999999999</ele>
        <time>2025-04-26T08:36:37Z</time>
      </trkpt>
      <trkpt lat="43.272475004196167" lon="1.773546002805233">
        <ele>315.44999999999999</ele>
        <time>2025-04-26T08:36:38Z</time>
      </trkpt>
      <trkpt lat="43.27256603166461" lon="1.773377023637295">
        <ele>314.49000000000001</ele>
        <time>2025-04-26T08:36:39Z</time>
      </trkpt>
      <trkpt lat="43.272662004455924" lon="1.77319698035717">
        <ele>314.00999999999999</ele>
        <time>2025-04-26T08:36:40Z</time>
      </trkpt>
      <trkpt lat="43.272765018045902" lon="1.773005034774542">
        <ele>313.05000000000001</ele>
        <time>2025-04-26T08:36:41Z</time>
      </trkpt>
      <trkpt lat="43.272813968360424" lon="1.772824991494417">
        <ele>312.08999999999997</ele>
        <time>2025-04-26T08:36:42Z</time>
      </trkpt>
      <trkpt lat="43.272841963917017" lon="1.772622987627983">
        <ele>311.12</ele>
        <time>2025-04-26T08:36:43Z</time>
      </trkpt>
      <trkpt lat="43.272858979180455" lon="1.772412015125155">
        <ele>310.16000000000003</ele>
        <time>2025-04-26T08:36:44Z</time>
      </trkpt>
      <trkpt lat="43.272864008322358" lon="1.772194001823664">
        <ele>309.68000000000001</ele>
        <time>2025-04-26T08:36:45Z</time>
      </trkpt>
      <trkpt lat="43.272834001109004" lon="1.77197297103703">
        <ele>308.72000000000003</ele>
        <time>2025-04-26T08:36:46Z</time>
      </trkpt>
      <trkpt lat="43.27280499972403" lon="1.771763004362583">
        <ele>307.75999999999999</ele>
        <time>2025-04-26T08:36:47Z</time>
      </trkpt>
      <trkpt lat="43.272758983075619" lon="1.771565023809671">
        <ele>306.80000000000001</ele>
        <time>2025-04-26T08:36:48Z</time>
      </trkpt>
      <trkpt lat="43.272691005840898" lon="1.771400989964604">
        <ele>306.31999999999999</ele>
        <time>2025-04-26T08:36:49Z</time>
      </trkpt>
      <trkpt lat="43.272590003907681" lon="1.771275009959936">
        <ele>305.36000000000001</ele>
        <time>2025-04-26T08:36:50Z</time>
      </trkpt>
      <trkpt lat="43.272484978660941" lon="1.771160010248423">
        <ele>304.88</ele>
        <time>2025-04-26T08:36:51Z</time>
      </trkpt>
      <trkpt lat="43.272356986999512" lon="1.771085998043418">
        <ele>304.38999999999999</ele>
        <time>2025-04-26T08:36:52Z</time>
      </trkpt>
      <trkpt lat="43.272219020873308" lon="1.771021038293839">
        <ele>303.43000000000001</ele>
        <time>2025-04-26T08:36:53Z</time>
      </trkpt>
      <trkpt lat="43.272075019776821" lon="1.770951971411705">
        <ele>302.94999999999999</ele>
        <time>2025-04-26T08:36:54Z</time>
      </trkpt>
      <trkpt lat="43.271753992885351" lon="1.770867984741926">
        <ele>301.99000000000001</ele>
        <time>2025-04-26T08:36:56Z</time>
      </trkpt>
      <trkpt lat="43.271593982353806" lon="1.770838983356953">
        <ele>301.50999999999999</ele>
        <time>2025-04-26T08:36:57Z</time>
      </trkpt>
      <trkpt lat="43.271434977650642" lon="1.770859016105533">
        <ele>301.02999999999997</ele>
        <time>2025-04-26T08:36:58Z</time>
      </trkpt>
      <trkpt lat="43.271287037059665" lon="1.770877037197352">
        <ele>301.02999999999997</ele>
        <time>2025-04-26T08:36:59Z</time>
      </trkpt>
      <trkpt lat="43.271163990721107" lon="1.770892962813377">
        <ele>300.55000000000001</ele>
        <time>2025-04-26T08:37:00Z</time>
      </trkpt>
      <trkpt lat="43.271090984344482" lon="1.770902015268803">
        <ele>300.06999999999999</ele>
        <time>2025-04-26T08:37:01Z</time>
      </trkpt>
      <trkpt lat="43.270985959097743" lon="1.770838983356953">
        <ele>299.58999999999997</ele>
        <time>2025-04-26T08:37:02Z</time>
      </trkpt>
      <trkpt lat="43.270876994356513" lon="1.770773017778993">
        <ele>299.11000000000001</ele>
        <time>2025-04-26T08:37:03Z</time>
      </trkpt>
      <trkpt lat="43.270844975486398" lon="1.77070202305913">
        <ele>298.14999999999998</ele>
        <time>2025-04-26T08:37:04Z</time>
      </trkpt>
      <trkpt lat="43.270770041272044" lon="1.770536983385682">
        <ele>297.67000000000002</ele>
        <time>2025-04-26T08:37:05Z</time>
      </trkpt>
      <trkpt lat="43.27074003405869" lon="1.770399017259479">
        <ele>296.69999999999999</ele>
        <time>2025-04-26T08:37:06Z</time>
      </trkpt>
      <trkpt lat="43.270698040723801" lon="1.770204976201057">
        <ele>296.22000000000003</ele>
        <time>2025-04-26T08:37:07Z</time>
      </trkpt>
      <trkpt lat="43.270529983565211" lon="1.769321020692587">
        <ele>293.33999999999997</ele>
        <time>2025-04-26T08:37:11Z</time>
      </trkpt>
      <trkpt lat="43.270506011322141" lon="1.769109964370728">
        <ele>292.38</ele>
        <time>2025-04-26T08:37:12Z</time>
      </trkpt>
      <trkpt lat="43.270508022978902" lon="1.76887602545321">
        <ele>291.89999999999998</ele>
        <time>2025-04-26T08:37:13Z</time>
      </trkpt>
      <trkpt lat="43.27054800465703" lon="1.76866396330297">
        <ele>291.42000000000002</ele>
        <time>2025-04-26T08:37:14Z</time>
      </trkpt>
      <trkpt lat="43.27061103656888" lon="1.768451984971762">
        <ele>290.45999999999998</ele>
        <time>2025-04-26T08:37:15Z</time>
      </trkpt>
      <trkpt lat="43.270674990490079" lon="1.768250986933708">
        <ele>289.49000000000001</ele>
        <time>2025-04-26T08:37:16Z</time>
      </trkpt>
      <trkpt lat="43.270751014351845" lon="1.768063986673951">
        <ele>289.00999999999999</ele>
        <time>2025-04-26T08:37:17Z</time>
      </trkpt>
      <trkpt lat="43.270854027941823" lon="1.767927026376128">
        <ele>288.05000000000001</ele>
        <time>2025-04-26T08:37:18Z</time>
      </trkpt>
      <trkpt lat="43.27095502987504" lon="1.767835998907685">
        <ele>287.08999999999997</ele>
        <time>2025-04-26T08:37:19Z</time>
      </trkpt>
      <trkpt lat="43.271085033193231" lon="1.767771961167455">
        <ele>286.61000000000001</ele>
        <time>2025-04-26T08:37:20Z</time>
      </trkpt>
      <trkpt lat="43.271217970177531" lon="1.767741031944752">
        <ele>286.13</ele>
        <time>2025-04-26T08:37:21Z</time>
      </trkpt>
      <trkpt lat="43.271363982930779" lon="1.767742037773132">
        <ele>285.17000000000002</ele>
        <time>2025-04-26T08:37:22Z</time>
      </trkpt>
      <trkpt lat="43.271508989855647" lon="1.767771039158106">
        <ele>284.69</ele>
        <time>2025-04-26T08:37:23Z</time>
      </trkpt>
      <trkpt lat="43.271657014265656" lon="1.767817977815867">
        <ele>283.73000000000002</ele>
        <time>2025-04-26T08:37:24Z</time>
      </trkpt>
      <trkpt lat="43.271800009533763" lon="1.767894001677632">
        <ele>283.25</ele>
        <time>2025-04-26T08:37:25Z</time>
      </trkpt>
      <trkpt lat="43.271930012851954" lon="1.767980000004172">
        <ele>282.76999999999998</ele>
        <time>2025-04-26T08:37:26Z</time>
      </trkpt>
      <trkpt lat="43.272046018391848" lon="1.768085025250912">
        <ele>281.80000000000001</ele>
        <time>2025-04-26T08:37:27Z</time>
      </trkpt>
      <trkpt lat="43.272270988672972" lon="1.768287029117346">
        <ele>280.83999999999997</ele>
        <time>2025-04-26T08:37:29Z</time>
      </trkpt>
      <trkpt lat="43.272386994212866" lon="1.768345031887293">
        <ele>280.36000000000001</ele>
        <time>2025-04-26T08:37:30Z</time>
      </trkpt>
      <trkpt lat="43.272511968389153" lon="1.76836003549397">
        <ele>279.88</ele>
        <time>2025-04-26T08:37:31Z</time>
      </trkpt>
      <trkpt lat="43.272626968100667" lon="1.768316030502319">
        <ele>279.88</ele>
        <time>2025-04-26T08:37:32Z</time>
      </trkpt>
      <trkpt lat="43.272765018045902" lon="1.768261967226863">
        <ele>279.39999999999998</ele>
        <time>2025-04-26T08:37:33Z</time>
      </trkpt>
      <trkpt lat="43.272845987230539" lon="1.768182003870606">
        <ele>279.39999999999998</ele>
        <time>2025-04-26T08:37:34Z</time>
      </trkpt>
      <trkpt lat="43.272922011092305" lon="1.768040014430881">
        <ele>279.39999999999998</ele>
        <time>2025-04-26T08:37:35Z</time>
      </trkpt>
      <trkpt lat="43.272984959185123" lon="1.767894001677632">
        <ele>278.92000000000002</ele>
        <time>2025-04-26T08:37:36Z</time>
      </trkpt>
      <trkpt lat="43.273009015247226" lon="1.767703983932734">
        <ele>278.92000000000002</ele>
        <time>2025-04-26T08:37:37Z</time>
      </trkpt>
      <trkpt lat="43.273017983883619" lon="1.767517989501357">
        <ele>278.92000000000002</ele>
        <time>2025-04-26T08:37:38Z</time>
      </trkpt>
      <trkpt lat="43.27303902246058" lon="1.767126973718405">
        <ele>278.92000000000002</ele>
        <time>2025-04-26T08:37:40Z</time>
      </trkpt>
      <trkpt lat="43.273021001368761" lon="1.766912983730435">
        <ele>278.44</ele>
        <time>2025-04-26T08:37:41Z</time>
      </trkpt>
      <trkpt lat="43.272974984720349" lon="1.76670502871275">
        <ele>277.95999999999998</ele>
        <time>2025-04-26T08:37:42Z</time>
      </trkpt>
      <trkpt lat="43.272927040234208" lon="1.76649103872478">
        <ele>277.48000000000002</ele>
        <time>2025-04-26T08:37:43Z</time>
      </trkpt>
      <trkpt lat="43.272878006100655" lon="1.766270007938147">
        <ele>277.48000000000002</ele>
        <time>2025-04-26T08:37:44Z</time>
      </trkpt>
      <trkpt lat="43.272828971967101" lon="1.766047971323133">
        <ele>277</ele>
        <time>2025-04-26T08:37:45Z</time>
      </trkpt>
      <trkpt lat="43.272783039137721" lon="1.76582501269877">
        <ele>277</ele>
        <time>2025-04-26T08:37:46Z</time>
      </trkpt>
      <trkpt lat="43.272644989192486" lon="1.764800995588303">
        <ele>275.56</ele>
        <time>2025-04-26T08:37:51Z</time>
      </trkpt>
      <trkpt lat="43.272585980594158" lon="1.764660011976957">
        <ele>275.56</ele>
        <time>2025-04-26T08:37:52Z</time>
      </trkpt>
      <trkpt lat="43.272510962560773" lon="1.764553980901837">
        <ele>275.06999999999999</ele>
        <time>2025-04-26T08:37:53Z</time>
      </trkpt>
      <trkpt lat="43.272413983941078" lon="1.764492960646749">
        <ele>274.58999999999997</ele>
        <time>2025-04-26T08:37:54Z</time>
      </trkpt>
      <trkpt lat="43.272304013371468" lon="1.764425989240408">
        <ele>274.11000000000001</ele>
        <time>2025-04-26T08:37:55Z</time>
      </trkpt>
      <trkpt lat="43.272193958982825" lon="1.764359017834067">
        <ele>273.63</ele>
        <time>2025-04-26T08:37:56Z</time>
      </trkpt>
      <trkpt lat="43.272087005898356" lon="1.764253992587328">
        <ele>273.14999999999998</ele>
        <time>2025-04-26T08:37:57Z</time>
      </trkpt>
      <trkpt lat="43.272006958723068" lon="1.764114014804363">
        <ele>272.67000000000002</ele>
        <time>2025-04-26T08:37:58Z</time>
      </trkpt>
      <trkpt lat="43.271932024508715" lon="1.763946963474155">
        <ele>272.19</ele>
        <time>2025-04-26T08:37:59Z</time>
      </trkpt>
      <trkpt lat="43.271879972890019" lon="1.763752000406385">
        <ele>271.70999999999998</ele>
        <time>2025-04-26T08:38:00Z</time>
      </trkpt>
      <trkpt lat="43.271826999261975" lon="1.763552008196712">
        <ele>271.23000000000002</ele>
        <time>2025-04-26T08:38:01Z</time>
      </trkpt>
      <trkpt lat="43.271776959300041" lon="1.763360984623432">
        <ele>270.26999999999998</ele>
        <time>2025-04-26T08:38:02Z</time>
      </trkpt>
      <trkpt lat="43.271763967350125" lon="1.76318203099072">
        <ele>269.79000000000002</ele>
        <time>2025-04-26T08:38:03Z</time>
      </trkpt>
      <trkpt lat="43.271777965128422" lon="1.76301397383213">
        <ele>269.31</ele>
        <time>2025-04-26T08:38:04Z</time>
      </trkpt>
      <trkpt lat="43.271817024797201" lon="1.762867961078882">
        <ele>269.31</ele>
        <time>2025-04-26T08:38:05Z</time>
      </trkpt>
      <trkpt lat="43.271902017295361" lon="1.762749021872878">
        <ele>268.82999999999998</ele>
        <time>2025-04-26T08:38:06Z</time>
      </trkpt>
      <trkpt lat="43.271991033107042" lon="1.762633016332984">
        <ele>268.82999999999998</ele>
        <time>2025-04-26T08:38:07Z</time>
      </trkpt>
      <trkpt lat="43.272077031433582" lon="1.762520028278232">
        <ele>268.82999999999998</ele>
        <time>2025-04-26T08:38:08Z</time>
      </trkpt>
      <trkpt lat="43.272139979526401" lon="1.762377033010125">
        <ele>268.82999999999998</ele>
        <time>2025-04-26T08:38:09Z</time>
      </trkpt>
      <trkpt lat="43.272196976467967" lon="1.762219034135342">
        <ele>268.35000000000002</ele>
        <time>2025-04-26T08:38:10Z</time>
      </trkpt>
      <trkpt lat="43.272204017266631" lon="1.762060029432178">
        <ele>268.35000000000002</ele>
        <time>2025-04-26T08:38:11Z</time>
      </trkpt>
      <trkpt lat="43.272197982296348" lon="1.761883003637195">
        <ele>267.86000000000001</ele>
        <time>2025-04-26T08:38:12Z</time>
      </trkpt>
      <trkpt lat="43.272193036973476" lon="1.761692985892296">
        <ele>267.86000000000001</ele>
        <time>2025-04-26T08:38:13Z</time>
      </trkpt>
      <trkpt lat="43.272187002003193" lon="1.761482013389468">
        <ele>267.86000000000001</ele>
        <time>2025-04-26T08:38:14Z</time>
      </trkpt>
      <trkpt lat="43.272213991731405" lon="1.761254025623202">
        <ele>267.38</ele>
        <time>2025-04-26T08:38:15Z</time>
      </trkpt>
      <trkpt lat="43.272479027509689" lon="1.759332977235317">
        <ele>264.01999999999998</ele>
        <time>2025-04-26T08:38:23Z</time>
      </trkpt>
      <trkpt lat="43.272541975602508" lon="1.75910197198391">
        <ele>263.54000000000002</ele>
        <time>2025-04-26T08:38:24Z</time>
      </trkpt>
      <trkpt lat="43.272606013342738" lon="1.758869038894773">
        <ele>263.06</ele>
        <time>2025-04-26T08:38:25Z</time>
      </trkpt>
      <trkpt lat="43.272669967263937" lon="1.758631998673081">
        <ele>262.57999999999998</ele>
        <time>2025-04-26T08:38:26Z</time>
      </trkpt>
      <trkpt lat="43.273582002148032" lon="1.756469970569015">
        <ele>256.32999999999998</ele>
        <time>2025-04-26T08:38:36Z</time>
      </trkpt>
      <trkpt lat="43.273929012939334" lon="1.755187958478928">
        <ele>251.52000000000001</ele>
        <time>2025-04-26T08:38:43Z</time>
      </trkpt>
      <trkpt lat="43.273949967697263" lon="1.755004981532693">
        <ele>251.03999999999999</ele>
        <time>2025-04-26T08:38:44Z</time>
      </trkpt>
      <trkpt lat="43.273963965475559" lon="1.754810018464923">
        <ele>250.56</ele>
        <time>2025-04-26T08:38:45Z</time>
      </trkpt>
      <trkpt lat="43.273890037089586" lon="1.753661027178168">
        <ele>248.63999999999999</ele>
        <time>2025-04-26T08:38:50Z</time>
      </trkpt>
      <trkpt lat="43.273901017382741" lon="1.753433961421251">
        <ele>248.16</ele>
        <time>2025-04-26T08:38:51Z</time>
      </trkpt>
      <trkpt lat="43.273953991010785" lon="1.753206979483366">
        <ele>248.16</ele>
        <time>2025-04-26T08:38:52Z</time>
      </trkpt>
      <trkpt lat="43.27400897629559" lon="1.752973962575197">
        <ele>248.16</ele>
        <time>2025-04-26T08:38:53Z</time>
      </trkpt>
      <trkpt lat="43.274078965187073" lon="1.752744968980551">
        <ele>248.63999999999999</ele>
        <time>2025-04-26T08:38:54Z</time>
      </trkpt>
      <trkpt lat="43.274162029847503" lon="1.752513041719794">
        <ele>249.12</ele>
        <time>2025-04-26T08:38:55Z</time>
      </trkpt>
      <trkpt lat="43.27493098564446" lon="1.750295022502542">
        <ele>253.93000000000001</ele>
        <time>2025-04-26T08:39:04Z</time>
      </trkpt>
      <trkpt lat="43.275555018335581" lon="1.748070968315005">
        <ele>262.10000000000002</ele>
        <time>2025-04-26T08:39:13Z</time>
      </trkpt>
      <trkpt lat="43.27557697892189" lon="1.747844992205501">
        <ele>263.06</ele>
        <time>2025-04-26T08:39:14Z</time>
      </trkpt>
      <trkpt lat="43.27559701167047" lon="1.747642988339067">
        <ele>263.54000000000002</ele>
        <time>2025-04-26T08:39:15Z</time>
      </trkpt>
      <trkpt lat="43.275560969486833" lon="1.747469985857606">
        <ele>264.5</ele>
        <time>2025-04-26T08:39:16Z</time>
      </trkpt>
      <trkpt lat="43.275522999465466" lon="1.747321961447597">
        <ele>264.98000000000002</ele>
        <time>2025-04-26T08:39:17Z</time>
      </trkpt>
      <trkpt lat="43.275454016402364" lon="1.74719799309969">
        <ele>265.45999999999998</ele>
        <time>2025-04-26T08:39:18Z</time>
      </trkpt>
      <trkpt lat="43.275374975055456" lon="1.747121969237924">
        <ele>266.42000000000002</ele>
        <time>2025-04-26T08:39:19Z</time>
      </trkpt>
      <trkpt lat="43.275273973122239" lon="1.747072013095021">
        <ele>267.38</ele>
        <time>2025-04-26T08:39:20Z</time>
      </trkpt>
      <trkpt lat="43.275168025866151" lon="1.747088022530079">
        <ele>268.35000000000002</ele>
        <time>2025-04-26T08:39:21Z</time>
      </trkpt>
      <trkpt lat="43.275031987577677" lon="1.747130015864968">
        <ele>268.82999999999998</ele>
        <time>2025-04-26T08:39:22Z</time>
      </trkpt>
      <trkpt lat="43.274886980652809" lon="1.747174020856619">
        <ele>269.79000000000002</ele>
        <time>2025-04-26T08:39:23Z</time>
      </trkpt>
      <trkpt lat="43.27473996207118" lon="1.747214002534747">
        <ele>270.26999999999998</ele>
        <time>2025-04-26T08:39:24Z</time>
      </trkpt>
      <trkpt lat="43.274595960974693" lon="1.747226994484663">
        <ele>271.23000000000002</ele>
        <time>2025-04-26T08:39:25Z</time>
      </trkpt>
      <trkpt lat="43.274455983191729" lon="1.747195981442928">
        <ele>271.70999999999998</ele>
        <time>2025-04-26T08:39:26Z</time>
      </trkpt>
      <trkpt lat="43.274327991530299" lon="1.747122975066304">
        <ele>272.19</ele>
        <time>2025-04-26T08:39:27Z</time>
      </trkpt>
      <trkpt lat="43.274207040667534" lon="1.747008981183171">
        <ele>272.67000000000002</ele>
        <time>2025-04-26T08:39:28Z</time>
      </trkpt>
      <trkpt lat="43.274087011814117" lon="1.746893981471658">
        <ele>273.63</ele>
        <time>2025-04-26T08:39:29Z</time>
      </trkpt>
      <trkpt lat="43.273976035416126" lon="1.74678803421557">
        <ele>274.58999999999997</ele>
        <time>2025-04-26T08:39:30Z</time>
      </trkpt>
      <trkpt lat="43.273872015997767" lon="1.746715027838945">
        <ele>275.06999999999999</ele>
        <time>2025-04-26T08:39:31Z</time>
      </trkpt>
      <trkpt lat="43.273763973265886" lon="1.74670203588903">
        <ele>276.04000000000002</ele>
        <time>2025-04-26T08:39:32Z</time>
      </trkpt>
      <trkpt lat="43.273654002696276" lon="1.746739000082016">
        <ele>276.51999999999998</ele>
        <time>2025-04-26T08:39:33Z</time>
      </trkpt>
      <trkpt lat="43.273530034348369" lon="1.746806977316737">
        <ele>277</ele>
        <time>2025-04-26T08:39:34Z</time>
      </trkpt>
      <trkpt lat="43.273417968302965" lon="1.746922982856631">
        <ele>277.48000000000002</ele>
        <time>2025-04-26T08:39:35Z</time>
      </trkpt>
      <trkpt lat="43.273301962763071" lon="1.747067989781499">
        <ele>278.44</ele>
        <time>2025-04-26T08:39:36Z</time>
      </trkpt>
      <trkpt lat="43.272571982815862" lon="1.747984969988465">
        <ele>282.27999999999997</ele>
        <time>2025-04-26T08:39:42Z</time>
      </trkpt>
      <trkpt lat="43.272423958405852" lon="1.748096030205488">
        <ele>282.76999999999998</ele>
        <time>2025-04-26T08:39:43Z</time>
      </trkpt>
      <trkpt lat="43.272314993664622" lon="1.748178005218506">
        <ele>283.73000000000002</ele>
        <time>2025-04-26T08:39:44Z</time>
      </trkpt>
      <trkpt lat="43.272178033366799" lon="1.748160989955068">
        <ele>284.20999999999998</ele>
        <time>2025-04-26T08:39:45Z</time>
      </trkpt>
      <trkpt lat="43.272040989249945" lon="1.748143974691629">
        <ele>284.69</ele>
        <time>2025-04-26T08:39:46Z</time>
      </trkpt>
      <trkpt lat="43.271907968446612" lon="1.748094018548727">
        <ele>285.17000000000002</ele>
        <time>2025-04-26T08:39:47Z</time>
      </trkpt>
      <trkpt lat="43.271777965128422" lon="1.748009026050568">
        <ele>285.64999999999998</ele>
        <time>2025-04-26T08:39:48Z</time>
      </trkpt>
      <trkpt lat="43.271648967638612" lon="1.747925039380789">
        <ele>286.61000000000001</ele>
        <time>2025-04-26T08:39:49Z</time>
      </trkpt>
      <trkpt lat="43.271520975977182" lon="1.747840968891978">
        <ele>287.08999999999997</ele>
        <time>2025-04-26T08:39:50Z</time>
      </trkpt>
      <trkpt lat="43.271371023729444" lon="1.747804004698992">
        <ele>287.56999999999999</ele>
        <time>2025-04-26T08:39:51Z</time>
      </trkpt>
      <trkpt lat="43.271217970177531" lon="1.747801993042231">
        <ele>288.52999999999997</ele>
        <time>2025-04-26T08:39:52Z</time>
      </trkpt>
      <trkpt lat="43.271078998222947" lon="1.747862007468939">
        <ele>289.00999999999999</ele>
        <time>2025-04-26T08:39:53Z</time>
      </trkpt>
      <trkpt lat="43.270944971591234" lon="1.747919004410505">
        <ele>289.97000000000003</ele>
        <time>2025-04-26T08:39:54Z</time>
      </trkpt>
      <trkpt lat="43.270836006850004" lon="1.748054036870599">
        <ele>290.45999999999998</ele>
        <time>2025-04-26T08:39:55Z</time>
      </trkpt>
      <trkpt lat="43.270704997703433" lon="1.748221004381776">
        <ele>290.94</ele>
        <time>2025-04-26T08:39:56Z</time>
      </trkpt>
      <trkpt lat="43.270621011033654" lon="1.748371040448546">
        <ele>291.89999999999998</ele>
        <time>2025-04-26T08:39:57Z</time>
      </trkpt>
      <trkpt lat="43.270514979958534" lon="1.748557034879923">
        <ele>292.86000000000001</ele>
        <time>2025-04-26T08:39:58Z</time>
      </trkpt>
      <trkpt lat="43.269585007801652" lon="1.750135011970997">
        <ele>298.14999999999998</ele>
        <time>2025-04-26T08:40:06Z</time>
      </trkpt>
      <trkpt lat="43.2694529928267" lon="1.750243976712227">
        <ele>299.11000000000001</ele>
        <time>2025-04-26T08:40:07Z</time>
      </trkpt>
      <trkpt lat="43.269312009215355" lon="1.750320000573993">
        <ele>299.58999999999997</ele>
        <time>2025-04-26T08:40:08Z</time>
      </trkpt>
      <trkpt lat="43.269168008118868" lon="1.750367023050785">
        <ele>300.55000000000001</ele>
        <time>2025-04-26T08:40:09Z</time>
      </trkpt>
      <trkpt lat="43.269016966223717" lon="1.750367023050785">
        <ele>301.02999999999997</ele>
        <time>2025-04-26T08:40:10Z</time>
      </trkpt>
      <trkpt lat="43.268866008147597" lon="1.750367023050785">
        <ele>301.50999999999999</ele>
        <time>2025-04-26T08:40:11Z</time>
      </trkpt>
      <trkpt lat="43.268725024536252" lon="1.750303991138935">
        <ele>302.47000000000003</ele>
        <time>2025-04-26T08:40:12Z</time>
      </trkpt>
      <trkpt lat="43.268579011783004" lon="1.750223021954298">
        <ele>302.94999999999999</ele>
        <time>2025-04-26T08:40:13Z</time>
      </trkpt>
      <trkpt lat="43.268431993201375" lon="1.750137023627758">
        <ele>303.91000000000003</ele>
        <time>2025-04-26T08:40:14Z</time>
      </trkpt>
      <trkpt lat="43.268284974619746" lon="1.750025963410735">
        <ele>304.88</ele>
        <time>2025-04-26T08:40:15Z</time>
      </trkpt>
      <trkpt lat="43.266800036653876" lon="1.748950984328985">
        <ele>313.52999999999997</ele>
        <time>2025-04-26T08:40:25Z</time>
      </trkpt>
      <trkpt lat="43.266689982265234" lon="1.74891896545887">
        <ele>314.00999999999999</ele>
        <time>2025-04-26T08:40:26Z</time>
      </trkpt>
      <trkpt lat="43.266570037230849" lon="1.748926006257534">
        <ele>314.49000000000001</ele>
        <time>2025-04-26T08:40:27Z</time>
      </trkpt>
      <trkpt lat="43.266449002549052" lon="1.748954001814127">
        <ele>314.49000000000001</ele>
        <time>2025-04-26T08:40:28Z</time>
      </trkpt>
      <trkpt lat="43.266330985352397" lon="1.749008987098932">
        <ele>314.49000000000001</ele>
        <time>2025-04-26T08:40:29Z</time>
      </trkpt>
      <trkpt lat="43.266214979812503" lon="1.749116024002433">
        <ele>314.49000000000001</ele>
        <time>2025-04-26T08:40:30Z</time>
      </trkpt>
      <trkpt lat="43.266092017292976" lon="1.749229012057185">
        <ele>314.00999999999999</ele>
        <time>2025-04-26T08:40:31Z</time>
      </trkpt>
      <trkpt lat="43.265332030132413" lon="1.750145992264152">
        <ele>314.97000000000003</ele>
        <time>2025-04-26T08:40:37Z</time>
      </trkpt>
      <trkpt lat="43.265234967693686" lon="1.750308014452457">
        <ele>314.97000000000003</ele>
        <time>2025-04-26T08:40:38Z</time>
      </trkpt>
      <trkpt lat="43.265169002115726" lon="1.750488979741931">
        <ele>315.44999999999999</ele>
        <time>2025-04-26T08:40:39Z</time>
      </trkpt>
      <trkpt lat="43.265110999345779" lon="1.750681009143591">
        <ele>315.93000000000001</ele>
        <time>2025-04-26T08:40:40Z</time>
      </trkpt>
      <trkpt lat="43.265054002404213" lon="1.750876978039742">
        <ele>315.93000000000001</ele>
        <time>2025-04-26T08:40:41Z</time>
      </trkpt>
      <trkpt lat="43.264994993805885" lon="1.751081999391317">
        <ele>316.41000000000003</ele>
        <time>2025-04-26T08:40:42Z</time>
      </trkpt>
      <trkpt lat="43.264933973550797" lon="1.751295989379287">
        <ele>316.88999999999999</ele>
        <time>2025-04-26T08:40:43Z</time>
      </trkpt>
      <trkpt lat="43.264869013801217" lon="1.751524982973933">
        <ele>317.37</ele>
        <time>2025-04-26T08:40:44Z</time>
      </trkpt>
      <trkpt lat="43.264775974676013" lon="1.751742996275425">
        <ele>317.85000000000002</ele>
        <time>2025-04-26T08:40:45Z</time>
      </trkpt>
      <trkpt lat="43.26418798416853" lon="1.753073958680034">
        <ele>320.25999999999999</ele>
        <time>2025-04-26T08:40:51Z</time>
      </trkpt>
      <trkpt lat="43.264069966971874" lon="1.753225000575185">
        <ele>320.74000000000001</ele>
        <time>2025-04-26T08:40:52Z</time>
      </trkpt>
      <trkpt lat="43.263945998623967" lon="1.753382999449968">
        <ele>321.69999999999999</ele>
        <time>2025-04-26T08:40:53Z</time>
      </trkpt>
      <trkpt lat="43.263389021158218" lon="1.754043996334076">
        <ele>324.10000000000002</ele>
        <time>2025-04-26T08:40:57Z</time>
      </trkpt>
      <trkpt lat="43.263268992304802" lon="1.754220016300678">
        <ele>325.06</ele>
        <time>2025-04-26T08:40:58Z</time>
      </trkpt>
      <trkpt lat="43.263180982321501" lon="1.754420008510351">
        <ele>326.01999999999998</ele>
        <time>2025-04-26T08:40:59Z</time>
      </trkpt>
      <trkpt lat="43.263120967894793" lon="1.754616983234882">
        <ele>326.5</ele>
        <time>2025-04-26T08:41:00Z</time>
      </trkpt>
      <trkpt lat="43.263076962903142" lon="1.75480498932302">
        <ele>327.47000000000003</ele>
        <time>2025-04-26T08:41:01Z</time>
      </trkpt>
      <trkpt lat="43.263031030073762" lon="1.754982015118003">
        <ele>328.43000000000001</ele>
        <time>2025-04-26T08:41:02Z</time>
      </trkpt>
      <trkpt lat="43.262986019253731" lon="1.755152000114322">
        <ele>329.38999999999999</ele>
        <time>2025-04-26T08:41:03Z</time>
      </trkpt>
      <trkpt lat="43.262904966250062" lon="1.755296001210809">
        <ele>329.87</ele>
        <time>2025-04-26T08:41:04Z</time>
      </trkpt>
      <trkpt lat="43.262826008722186" lon="1.755426004528999">
        <ele>330.35000000000002</ele>
        <time>2025-04-26T08:41:05Z</time>
      </trkpt>
      <trkpt lat="43.262750990688801" lon="1.755548967048526">
        <ele>331.31</ele>
        <time>2025-04-26T08:41:06Z</time>
      </trkpt>
      <trkpt lat="43.262648982927203" lon="1.755606969818473">
        <ele>331.79000000000002</ele>
        <time>2025-04-26T08:41:07Z</time>
      </trkpt>
      <trkpt lat="43.26255502179265" lon="1.755653992295265">
        <ele>332.26999999999998</ele>
        <time>2025-04-26T08:41:08Z</time>
      </trkpt>
      <trkpt lat="43.262476986274123" lon="1.755618033930659">
        <ele>332.75</ele>
        <time>2025-04-26T08:41:09Z</time>
      </trkpt>
      <trkpt lat="43.262397022917867" lon="1.755546033382416">
        <ele>333.23000000000002</ele>
        <time>2025-04-26T08:41:10Z</time>
      </trkpt>
      <trkpt lat="43.262294009327888" lon="1.755451988428831">
        <ele>333.70999999999998</ele>
        <time>2025-04-26T08:41:11Z</time>
      </trkpt>
      <trkpt lat="43.262282023206353" lon="1.755314022302628">
        <ele>333.70999999999998</ele>
        <time>2025-04-26T08:41:12Z</time>
      </trkpt>
      <trkpt lat="43.262268025428057" lon="1.755145965144038">
        <ele>333.70999999999998</ele>
        <time>2025-04-26T08:41:13Z</time>
      </trkpt>
      <trkpt lat="43.262251010164618" lon="1.754937004297972">
        <ele>333.70999999999998</ele>
        <time>2025-04-26T08:41:14Z</time>
      </trkpt>
      <trkpt lat="43.26225302182138" lon="1.754760984331369">
        <ele>333.23000000000002</ele>
        <time>2025-04-26T08:41:15Z</time>
      </trkpt>
      <trkpt lat="43.262270037084818" lon="1.754548000171781">
        <ele>333.23000000000002</ele>
        <time>2025-04-26T08:41:16Z</time>
      </trkpt>
      <trkpt lat="43.262331979349256" lon="1.753749959170818">
        <ele>330.35000000000002</ele>
        <time>2025-04-26T08:41:20Z</time>
      </trkpt>
      <trkpt lat="43.262312030419707" lon="1.75357704050839">
        <ele>329.87</ele>
        <time>2025-04-26T08:41:21Z</time>
      </trkpt>
      <trkpt lat="43.26227598823607" lon="1.753410995006561">
        <ele>329.38999999999999</ele>
        <time>2025-04-26T08:41:22Z</time>
      </trkpt>
      <trkpt lat="43.262241035699844" lon="1.753252996131778">
        <ele>328.43000000000001</ele>
        <time>2025-04-26T08:41:23Z</time>
      </trkpt>
      <trkpt lat="43.262181021273136" lon="1.753118969500065">
        <ele>327.94999999999999</ele>
        <time>2025-04-26T08:41:24Z</time>
      </trkpt>
      <trkpt lat="43.262106003239751" lon="1.752996006980538">
        <ele>327.47000000000003</ele>
        <time>2025-04-26T08:41:25Z</time>
      </trkpt>
      <trkpt lat="43.262028973549604" lon="1.75287002697587">
        <ele>326.99000000000001</ele>
        <time>2025-04-26T08:41:26Z</time>
      </trkpt>
      <trkpt lat="43.261954039335251" lon="1.752745974808931">
        <ele>326.5</ele>
        <time>2025-04-26T08:41:27Z</time>
      </trkpt>
      <trkpt lat="43.261863011866808" lon="1.75267699174583">
        <ele>325.54000000000002</ele>
        <time>2025-04-26T08:41:28Z</time>
      </trkpt>
      <trkpt lat="43.261756980791688" lon="1.752630975097418">
        <ele>325.06</ele>
        <time>2025-04-26T08:41:29Z</time>
      </trkpt>
      <trkpt lat="43.261646004393697" lon="1.752583030611277">
        <ele>324.57999999999998</ele>
        <time>2025-04-26T08:41:30Z</time>
      </trkpt>
      <trkpt lat="43.26143603771925" lon="1.752490997314453">
        <ele>323.62</ele>
        <time>2025-04-26T08:41:32Z</time>
      </trkpt>
      <trkpt lat="43.261336963623762" lon="1.752371974289417">
        <ele>323.62</ele>
        <time>2025-04-26T08:41:33Z</time>
      </trkpt>
      <trkpt lat="43.26126697473228" lon="1.752265021204948">
        <ele>323.13999999999999</ele>
        <time>2025-04-26T08:41:34Z</time>
      </trkpt>
      <trkpt lat="43.261217018589377" lon="1.752145998179913">
        <ele>322.66000000000003</ele>
        <time>2025-04-26T08:41:35Z</time>
      </trkpt>
      <trkpt lat="43.261200003325939" lon="1.751976013183594">
        <ele>321.69999999999999</ele>
        <time>2025-04-26T08:41:36Z</time>
      </trkpt>
      <trkpt lat="43.261220036074519" lon="1.751828994601965">
        <ele>321.22000000000003</ele>
        <time>2025-04-26T08:41:37Z</time>
      </trkpt>
      <trkpt lat="43.26124501414597" lon="1.751647023484111">
        <ele>320.25999999999999</ele>
        <time>2025-04-26T08:41:38Z</time>
      </trkpt>
      <trkpt lat="43.261450035497546" lon="1.750792991369963">
        <ele>317.85000000000002</ele>
        <time>2025-04-26T08:41:42Z</time>
      </trkpt>
      <trkpt lat="43.261941969394684" lon="1.749238986521959">
        <ele>312.08999999999997</ele>
        <time>2025-04-26T08:41:49Z</time>
      </trkpt>
      <trkpt lat="43.26199502684176" lon="1.74909096211195">
        <ele>311.60000000000002</ele>
        <time>2025-04-26T08:41:50Z</time>
      </trkpt>
      <trkpt lat="43.262067027390003" lon="1.748989038169384">
        <ele>311.60000000000002</ele>
        <time>2025-04-26T08:41:51Z</time>
      </trkpt>
      <trkpt lat="43.26216802932322" lon="1.748932963237166">
        <ele>310.63999999999999</ele>
        <time>2025-04-26T08:41:52Z</time>
      </trkpt>
      <trkpt lat="43.262266013771296" lon="1.748888958245516">
        <ele>310.16000000000003</ele>
        <time>2025-04-26T08:41:53Z</time>
      </trkpt>
      <trkpt lat="43.26238201931119" lon="1.74895903095603">
        <ele>309.68000000000001</ele>
        <time>2025-04-26T08:41:54Z</time>
      </trkpt>
      <trkpt lat="43.262480003759265" lon="1.749023990705609">
        <ele>309.19999999999999</ele>
        <time>2025-04-26T08:41:55Z</time>
      </trkpt>
      <trkpt lat="43.262569019570947" lon="1.749084005132318">
        <ele>308.72000000000003</ele>
        <time>2025-04-26T08:41:56Z</time>
      </trkpt>
      <trkpt lat="43.262659041211009" lon="1.749144019559026">
        <ele>308.24000000000001</ele>
        <time>2025-04-26T08:41:57Z</time>
      </trkpt>
      <trkpt lat="43.262755014002323" lon="1.749167991802096">
        <ele>308.24000000000001</ele>
        <time>2025-04-26T08:41:58Z</time>
      </trkpt>
      <trkpt lat="43.26285501010716" lon="1.749158017337322">
        <ele>308.24000000000001</ele>
        <time>2025-04-26T08:41:59Z</time>
      </trkpt>
      <trkpt lat="43.262932961806655" lon="1.749071013182402">
        <ele>308.72000000000003</ele>
        <time>2025-04-26T08:42:00Z</time>
      </trkpt>
      <trkpt lat="43.263013008981943" lon="1.748960958793759">
        <ele>308.24000000000001</ele>
        <time>2025-04-26T08:42:01Z</time>
      </trkpt>
      <trkpt lat="43.263062965124846" lon="1.748811006546021">
        <ele>308.24000000000001</ele>
        <time>2025-04-26T08:42:02Z</time>
      </trkpt>
      <trkpt lat="43.263115016743541" lon="1.748655019327998">
        <ele>307.75999999999999</ele>
        <time>2025-04-26T08:42:03Z</time>
      </trkpt>
      <trkpt lat="43.26315701007843" lon="1.748481011018157">
        <ele>307.27999999999997</ele>
        <time>2025-04-26T08:42:04Z</time>
      </trkpt>
      <trkpt lat="43.263172013685107" lon="1.748287975788117">
        <ele>306.80000000000001</ele>
        <time>2025-04-26T08:42:05Z</time>
      </trkpt>
      <trkpt lat="43.263187017291784" lon="1.748097036033869">
        <ele>306.31999999999999</ele>
        <time>2025-04-26T08:42:06Z</time>
      </trkpt>
      <trkpt lat="43.263217024505138" lon="1.747726975008845">
        <ele>305.83999999999997</ele>
        <time>2025-04-26T08:42:08Z</time>
      </trkpt>
      <trkpt lat="43.263165978714824" lon="1.747562019154429">
        <ele>305.36000000000001</ele>
        <time>2025-04-26T08:42:09Z</time>
      </trkpt>
      <trkpt lat="43.263131026178598" lon="1.747448025271297">
        <ele>304.38999999999999</ele>
        <time>2025-04-26T08:42:10Z</time>
      </trkpt>
      <trkpt lat="43.263044022023678" lon="1.747336965054274">
        <ele>303.91000000000003</ele>
        <time>2025-04-26T08:42:11Z</time>
      </trkpt>
      <trkpt lat="43.262954000383615" lon="1.747235963121057">
        <ele>303.43000000000001</ele>
        <time>2025-04-26T08:42:12Z</time>
      </trkpt>
      <trkpt lat="43.262839000672102" lon="1.747153988108039">
        <ele>302.94999999999999</ele>
        <time>2025-04-26T08:42:13Z</time>
      </trkpt>
      <trkpt lat="43.261814983561635" lon="1.746329963207245">
        <ele>300.06999999999999</ele>
        <time>2025-04-26T08:42:20Z</time>
      </trkpt>
      <trkpt lat="43.261516001075506" lon="1.746068028733134">
        <ele>298.63</ele>
        <time>2025-04-26T08:42:22Z</time>
      </trkpt>
      <trkpt lat="43.261275021359324" lon="1.745749013498426">
        <ele>296.69999999999999</ele>
        <time>2025-04-26T08:42:24Z</time>
      </trkpt>
      <trkpt lat="43.261174019426107" lon="1.745585985481739">
        <ele>296.22000000000003</ele>
        <time>2025-04-26T08:42:25Z</time>
      </trkpt>
      <trkpt lat="43.261053990572691" lon="1.745189018547535">
        <ele>294.30000000000001</ele>
        <time>2025-04-26T08:42:27Z</time>
      </trkpt>
      <trkpt lat="43.261015014722943" lon="1.744983997195959">
        <ele>293.33999999999997</ele>
        <time>2025-04-26T08:42:28Z</time>
      </trkpt>
      <trkpt lat="43.261023983359337" lon="1.744815018028021">
        <ele>292.38</ele>
        <time>2025-04-26T08:42:29Z</time>
      </trkpt>
      <trkpt lat="43.26105298474431" lon="1.744607985019684">
        <ele>291.42000000000002</ele>
        <time>2025-04-26T08:42:30Z</time>
      </trkpt>
      <trkpt lat="43.261080980300903" lon="1.744414027780294">
        <ele>290.94</ele>
        <time>2025-04-26T08:42:31Z</time>
      </trkpt>
      <trkpt lat="43.261106964200735" lon="1.744229961186647">
        <ele>290.45999999999998</ele>
        <time>2025-04-26T08:42:32Z</time>
      </trkpt>
      <trkpt lat="43.261133031919599" lon="1.744052013382316">
        <ele>289.97000000000003</ele>
        <time>2025-04-26T08:42:33Z</time>
      </trkpt>
      <trkpt lat="43.261104030534625" lon="1.743869036436081">
        <ele>289.00999999999999</ele>
        <time>2025-04-26T08:42:34Z</time>
      </trkpt>
      <trkpt lat="43.261077040806413" lon="1.743727969005704">
        <ele>288.52999999999997</ele>
        <time>2025-04-26T08:42:35Z</time>
      </trkpt>
      <trkpt lat="43.260992970317602" lon="1.743625039234757">
        <ele>288.05000000000001</ele>
        <time>2025-04-26T08:42:36Z</time>
      </trkpt>
      <trkpt lat="43.260899009183049" lon="1.743542980402708">
        <ele>287.56999999999999</ele>
        <time>2025-04-26T08:42:37Z</time>
      </trkpt>
      <trkpt lat="43.260790966451168" lon="1.743496041744947">
        <ele>287.08999999999997</ele>
        <time>2025-04-26T08:42:38Z</time>
      </trkpt>
      <trkpt lat="43.2606649864465" lon="1.74344097264111">
        <ele>286.13</ele>
        <time>2025-04-26T08:42:39Z</time>
      </trkpt>
      <trkpt lat="43.260378995910287" lon="1.743315998464823">
        <ele>285.17000000000002</ele>
        <time>2025-04-26T08:42:41Z</time>
      </trkpt>
      <trkpt lat="43.26021202839911" lon="1.743242992088199">
        <ele>284.69</ele>
        <time>2025-04-26T08:42:42Z</time>
      </trkpt>
      <trkpt lat="43.260090993717313" lon="1.743131009861827">
        <ele>283.73000000000002</ele>
        <time>2025-04-26T08:42:43Z</time>
      </trkpt>
      <trkpt lat="43.259932994842529" lon="1.742984997108579">
        <ele>283.25</ele>
        <time>2025-04-26T08:42:44Z</time>
      </trkpt>
      <trkpt lat="43.259830987080932" lon="1.742831021547318">
        <ele>282.76999999999998</ele>
        <time>2025-04-26T08:42:45Z</time>
      </trkpt>
      <trkpt lat="43.25971900485456" lon="1.742662964388728">
        <ele>282.27999999999997</ele>
        <time>2025-04-26T08:42:46Z</time>
      </trkpt>
      <trkpt lat="43.259635018184781" lon="1.742443023249507">
        <ele>281.80000000000001</ele>
        <time>2025-04-26T08:42:47Z</time>
      </trkpt>
      <trkpt lat="43.259553965181112" lon="1.742232972756028">
        <ele>281.31999999999999</ele>
        <time>2025-04-26T08:42:48Z</time>
      </trkpt>
      <trkpt lat="43.259476013481617" lon="1.742028035223484">
        <ele>280.83999999999997</ele>
        <time>2025-04-26T08:42:49Z</time>
      </trkpt>
      <trkpt lat="43.259330000728369" lon="1.741605000570417">
        <ele>279.39999999999998</ele>
        <time>2025-04-26T08:42:51Z</time>
      </trkpt>
      <trkpt lat="43.259316002950072" lon="1.741391010582447">
        <ele>278.92000000000002</ele>
        <time>2025-04-26T08:42:52Z</time>
      </trkpt>
      <trkpt lat="43.259303011000156" lon="1.741184983402491">
        <ele>278.44</ele>
        <time>2025-04-26T08:42:53Z</time>
      </trkpt>
      <trkpt lat="43.259279038757086" lon="1.740788016468287">
        <ele>277</ele>
        <time>2025-04-26T08:42:55Z</time>
      </trkpt>
      <trkpt lat="43.259263029322028" lon="1.740616019815207">
        <ele>276.04000000000002</ele>
        <time>2025-04-26T08:42:56Z</time>
      </trkpt>
      <trkpt lat="43.259178036823869" lon="1.740467995405197">
        <ele>275.56</ele>
        <time>2025-04-26T08:42:57Z</time>
      </trkpt>
      <trkpt lat="43.259090026840568" lon="1.740317037329078">
        <ele>275.06999999999999</ele>
        <time>2025-04-26T08:42:58Z</time>
      </trkpt>
      <trkpt lat="43.259004028514028" lon="1.740167001262307">
        <ele>274.11000000000001</ele>
        <time>2025-04-26T08:42:59Z</time>
      </trkpt>
      <trkpt lat="43.258928004652262" lon="1.740006990730763">
        <ele>273.63</ele>
        <time>2025-04-26T08:43:00Z</time>
      </trkpt>
      <trkpt lat="43.258874025195837" lon="1.73983097076416">
        <ele>272.67000000000002</ele>
        <time>2025-04-26T08:43:01Z</time>
      </trkpt>
      <trkpt lat="43.258848041296005" lon="1.73963500186801">
        <ele>272.19</ele>
        <time>2025-04-26T08:43:02Z</time>
      </trkpt>
      <trkpt lat="43.258856004104018" lon="1.739431992173195">
        <ele>271.70999999999998</ele>
        <time>2025-04-26T08:43:03Z</time>
      </trkpt>
      <trkpt lat="43.258889028802514" lon="1.739231999963522">
        <ele>271.23000000000002</ele>
        <time>2025-04-26T08:43:04Z</time>
      </trkpt>
      <trkpt lat="43.258923981338739" lon="1.739021027460694">
        <ele>270.26999999999998</ele>
        <time>2025-04-26T08:43:05Z</time>
      </trkpt>
      <trkpt lat="43.25896798633039" lon="1.73858298920095">
        <ele>269.31</ele>
        <time>2025-04-26T08:43:07Z</time>
      </trkpt>
      <trkpt lat="43.258961029350758" lon="1.738390037789941">
        <ele>268.82999999999998</ele>
        <time>2025-04-26T08:43:08Z</time>
      </trkpt>
      <trkpt lat="43.258910989388824" lon="1.738209994509816">
        <ele>268.35000000000002</ele>
        <time>2025-04-26T08:43:09Z</time>
      </trkpt>
      <trkpt lat="43.258807975798845" lon="1.737838005647063">
        <ele>267.86000000000001</ele>
        <time>2025-04-26T08:43:11Z</time>
      </trkpt>
      <trkpt lat="43.258755002170801" lon="1.737646982073784">
        <ele>267.86000000000001</ele>
        <time>2025-04-26T08:43:12Z</time>
      </trkpt>
      <trkpt lat="43.258721977472305" lon="1.737436009570956">
        <ele>267.38</ele>
        <time>2025-04-26T08:43:13Z</time>
      </trkpt>
      <trkpt lat="43.258588034659624" lon="1.736558005213738">
        <ele>265.94</ele>
        <time>2025-04-26T08:43:17Z</time>
      </trkpt>
      <trkpt lat="43.258550986647606" lon="1.736354995518923">
        <ele>265.45999999999998</ele>
        <time>2025-04-26T08:43:18Z</time>
      </trkpt>
      <trkpt lat="43.258478986099362" lon="1.736192973330617">
        <ele>264.98000000000002</ele>
        <time>2025-04-26T08:43:19Z</time>
      </trkpt>
      <trkpt lat="43.258415032178164" lon="1.73604897223413">
        <ele>264.5</ele>
        <time>2025-04-26T08:43:20Z</time>
      </trkpt>
      <trkpt lat="43.258320987224579" lon="1.735941013321281">
        <ele>264.01999999999998</ele>
        <time>2025-04-26T08:43:21Z</time>
      </trkpt>
      <trkpt lat="43.258204981684685" lon="1.735855014994741">
        <ele>264.01999999999998</ele>
        <time>2025-04-26T08:43:22Z</time>
      </trkpt>
      <trkpt lat="43.257961990311742" lon="1.735663991421461">
        <ele>263.06</ele>
        <time>2025-04-26T08:43:24Z</time>
      </trkpt>
      <trkpt lat="43.257861994206905" lon="1.735528036952019">
        <ele>263.06</ele>
        <time>2025-04-26T08:43:25Z</time>
      </trkpt>
      <trkpt lat="43.25688298791647" lon="1.734382985159755">
        <ele>260.64999999999998</ele>
        <time>2025-04-26T08:43:33Z</time>
      </trkpt>
      <trkpt lat="43.25662599876523" lon="1.734132030978799">
        <ele>260.64999999999998</ele>
        <time>2025-04-26T08:43:35Z</time>
      </trkpt>
      <trkpt lat="43.256490966305137" lon="1.734064975753427">
        <ele>260.64999999999998</ele>
        <time>2025-04-26T08:43:36Z</time>
      </trkpt>
      <trkpt lat="43.256360040977597" lon="1.734013007953763">
        <ele>260.64999999999998</ele>
        <time>2025-04-26T08:43:37Z</time>
      </trkpt>
      <trkpt lat="43.256222996860743" lon="1.734002027660608">
        <ele>260.64999999999998</ele>
        <time>2025-04-26T08:43:38Z</time>
      </trkpt>
      <trkpt lat="43.25608997605741" lon="1.734010996297002">
        <ele>260.64999999999998</ele>
        <time>2025-04-26T08:43:39Z</time>
      </trkpt>
      <trkpt lat="43.25595997273922" lon="1.734058018773794">
        <ele>260.64999999999998</ele>
        <time>2025-04-26T08:43:40Z</time>
      </trkpt>
      <trkpt lat="43.255827035754919" lon="1.734105963259935">
        <ele>261.13999999999999</ele>
        <time>2025-04-26T08:43:41Z</time>
      </trkpt>
      <trkpt lat="43.255693009123206" lon="1.734153991565108">
        <ele>261.13999999999999</ele>
        <time>2025-04-26T08:43:42Z</time>
      </trkpt>
      <trkpt lat="43.255557976663113" lon="1.734193973243237">
        <ele>261.13999999999999</ele>
        <time>2025-04-26T08:43:43Z</time>
      </trkpt>
      <trkpt lat="43.255411963909864" lon="1.734216017648578">
        <ele>261.13999999999999</ele>
        <time>2025-04-26T08:43:44Z</time>
      </trkpt>
      <trkpt lat="43.255263017490506" lon="1.734218029305339">
        <ele>261.13999999999999</ele>
        <time>2025-04-26T08:43:45Z</time>
      </trkpt>
      <trkpt lat="43.255113987252116" lon="1.734185004606843">
        <ele>261.13999999999999</ele>
        <time>2025-04-26T08:43:46Z</time>
      </trkpt>
      <trkpt lat="43.254959005862474" lon="1.734151979908347">
        <ele>261.62</ele>
        <time>2025-04-26T08:43:47Z</time>
      </trkpt>
      <trkpt lat="43.25479899533093" lon="1.734117027372122">
        <ele>261.62</ele>
        <time>2025-04-26T08:43:48Z</time>
      </trkpt>
      <trkpt lat="43.254633033648133" lon="1.734079979360104">
        <ele>262.10000000000002</ele>
        <time>2025-04-26T08:43:49Z</time>
      </trkpt>
      <trkpt lat="43.254500012844801" lon="1.733987024053931">
        <ele>262.57999999999998</ele>
        <time>2025-04-26T08:43:50Z</time>
      </trkpt>
      <trkpt lat="43.254371015354991" lon="1.73387504182756">
        <ele>263.06</ele>
        <time>2025-04-26T08:43:51Z</time>
      </trkpt>
      <trkpt lat="43.254246963188052" lon="1.733732968568802">
        <ele>263.54000000000002</ele>
        <time>2025-04-26T08:43:52Z</time>
      </trkpt>
      <trkpt lat="43.254118971526623" lon="1.733585027977824">
        <ele>263.54000000000002</ele>
        <time>2025-04-26T08:43:53Z</time>
      </trkpt>
      <trkpt lat="43.253186987712979" lon="1.732165971770883">
        <ele>265.94</ele>
        <time>2025-04-26T08:44:01Z</time>
      </trkpt>
      <trkpt lat="43.252998981624842" lon="1.73183798789978">
        <ele>265.94</ele>
        <time>2025-04-26T08:44:03Z</time>
      </trkpt>
      <trkpt lat="43.252891022711992" lon="1.731717959046364">
        <ele>266.42000000000002</ele>
        <time>2025-04-26T08:44:04Z</time>
      </trkpt>
      <trkpt lat="43.252756996080279" lon="1.731650987640023">
        <ele>266.42000000000002</ele>
        <time>2025-04-26T08:44:05Z</time>
      </trkpt>
      <trkpt lat="43.252620035782456" lon="1.731603965163231">
        <ele>266.42000000000002</ele>
        <time>2025-04-26T08:44:06Z</time>
      </trkpt>
      <trkpt lat="43.252472011372447" lon="1.731584016233683">
        <ele>265.94</ele>
        <time>2025-04-26T08:44:07Z</time>
      </trkpt>
      <trkpt lat="43.251669025048614" lon="1.73138502985239">
        <ele>264.98000000000002</ele>
        <time>2025-04-26T08:44:12Z</time>
      </trkpt>
      <trkpt lat="43.251501973718405" lon="1.73129903152585">
        <ele>264.5</ele>
        <time>2025-04-26T08:44:13Z</time>
      </trkpt>
      <trkpt lat="43.250966034829617" lon="1.731037013232708">
        <ele>264.01999999999998</ele>
        <time>2025-04-26T08:44:16Z</time>
      </trkpt>
      <trkpt lat="43.250128012150526" lon="1.730831991881132">
        <ele>264.5</ele>
        <time>2025-04-26T08:44:21Z</time>
      </trkpt>
      <trkpt lat="43.249976970255375" lon="1.730861999094486">
        <ele>264.98000000000002</ele>
        <time>2025-04-26T08:44:22Z</time>
      </trkpt>
      <trkpt lat="43.249866999685764" lon="1.730928970500827">
        <ele>265.45999999999998</ele>
        <time>2025-04-26T08:44:23Z</time>
      </trkpt>
      <trkpt lat="43.249744959175587" lon="1.731002982705832">
        <ele>265.45999999999998</ele>
        <time>2025-04-26T08:44:24Z</time>
      </trkpt>
      <trkpt lat="43.249626019969583" lon="1.731076994910836">
        <ele>264.98000000000002</ele>
        <time>2025-04-26T08:44:25Z</time>
      </trkpt>
      <trkpt lat="43.249501967802644" lon="1.731138015165925">
        <ele>264.5</ele>
        <time>2025-04-26T08:44:26Z</time>
      </trkpt>
      <trkpt lat="43.249387973919511" lon="1.731189982965589">
        <ele>264.01999999999998</ele>
        <time>2025-04-26T08:44:27Z</time>
      </trkpt>
      <trkpt lat="43.24929803609848" lon="1.731185959652066">
        <ele>263.54000000000002</ele>
        <time>2025-04-26T08:44:28Z</time>
      </trkpt>
      <trkpt lat="43.249232992529869" lon="1.731163999065757">
        <ele>262.57999999999998</ele>
        <time>2025-04-26T08:44:29Z</time>
      </trkpt>
      <trkpt lat="43.249226035550237" lon="1.731161987408996">
        <ele>262.10000000000002</ele>
        <time>2025-04-26T08:44:30Z</time>
      </trkpt>
      <trkpt lat="43.249197034165263" lon="1.73104397021234">
        <ele>261.62</ele>
        <time>2025-04-26T08:44:31Z</time>
      </trkpt>
      <trkpt lat="43.249161997810006" lon="1.730904998257756">
        <ele>260.64999999999998</ele>
        <time>2025-04-26T08:44:32Z</time>
      </trkpt>
      <trkpt lat="43.24917197227478" lon="1.730799973011017">
        <ele>260.17000000000002</ele>
        <time>2025-04-26T08:44:33Z</time>
      </trkpt>
      <trkpt lat="43.249188987538218" lon="1.730616996064782">
        <ele>259.69</ele>
        <time>2025-04-26T08:44:34Z</time>
      </trkpt>
      <trkpt lat="43.249222012236714" lon="1.730410968884826">
        <ele>259.20999999999998</ele>
        <time>2025-04-26T08:44:35Z</time>
      </trkpt>
      <trkpt lat="43.249294012784958" lon="1.730234026908875">
        <ele>258.73000000000002</ele>
        <time>2025-04-26T08:44:36Z</time>
      </trkpt>
      <trkpt lat="43.249360984191298" lon="1.730068987235427">
        <ele>258.25</ele>
        <time>2025-04-26T08:44:37Z</time>
      </trkpt>
      <trkpt lat="43.249425021931529" lon="1.729913000017405">
        <ele>257.29000000000002</ele>
        <time>2025-04-26T08:44:38Z</time>
      </trkpt>
      <trkpt lat="43.249441031366587" lon="1.729759024456143">
        <ele>256.32999999999998</ele>
        <time>2025-04-26T08:44:39Z</time>
      </trkpt>
      <trkpt lat="43.249441031366587" lon="1.729552997276187">
        <ele>254.88999999999999</ele>
        <time>2025-04-26T08:44:40Z</time>
      </trkpt>
      <trkpt lat="43.249391997233033" lon="1.729418970644474">
        <ele>253.93000000000001</ele>
        <time>2025-04-26T08:44:41Z</time>
      </trkpt>
      <trkpt lat="43.249330976977944" lon="1.729250997304916">
        <ele>252.96000000000001</ele>
        <time>2025-04-26T08:44:42Z</time>
      </trkpt>
      <trkpt lat="43.249268028885126" lon="1.729076988995075">
        <ele>252.47999999999999</ele>
        <time>2025-04-26T08:44:43Z</time>
      </trkpt>
      <trkpt lat="43.249135008081794" lon="1.728711035102606">
        <ele>251.52000000000001</ele>
        <time>2025-04-26T08:44:45Z</time>
      </trkpt>
      <trkpt lat="43.24908203445375" lon="1.728510037064552">
        <ele>251.03999999999999</ele>
        <time>2025-04-26T08:44:46Z</time>
      </trkpt>
      <trkpt lat="43.24887097813189" lon="1.726906998082995">
        <ele>250.08000000000001</ele>
        <time>2025-04-26T08:44:53Z</time>
      </trkpt>
      <trkpt lat="43.248882964253426" lon="1.726699965074658">
        <ele>250.56</ele>
        <time>2025-04-26T08:44:54Z</time>
      </trkpt>
      <trkpt lat="43.248924035578966" lon="1.726497961208224">
        <ele>250.56</ele>
        <time>2025-04-26T08:44:55Z</time>
      </trkpt>
      <trkpt lat="43.248965023085475" lon="1.726296041160822">
        <ele>250.56</ele>
        <time>2025-04-26T08:44:56Z</time>
      </trkpt>
      <trkpt lat="43.249008022248745" lon="1.726088002324104">
        <ele>251.03999999999999</ele>
        <time>2025-04-26T08:44:57Z</time>
      </trkpt>
      <trkpt lat="43.249083962291479" lon="1.725661028176546">
        <ele>251.52000000000001</ele>
        <time>2025-04-26T08:44:59Z</time>
      </trkpt>
      <trkpt lat="43.24908597394824" lon="1.725442009046674">
        <ele>251.03999999999999</ele>
        <time>2025-04-26T08:45:00Z</time>
      </trkpt>
      <trkpt lat="43.249054038897157" lon="1.72524000518024">
        <ele>251.03999999999999</ele>
        <time>2025-04-26T08:45:01Z</time>
      </trkpt>
      <trkpt lat="43.2489999756217" lon="1.725028026849031">
        <ele>251.52000000000001</ele>
        <time>2025-04-26T08:45:02Z</time>
      </trkpt>
      <trkpt lat="43.248943984508514" lon="1.724812025204301">
        <ele>251.52000000000001</ele>
        <time>2025-04-26T08:45:03Z</time>
      </trkpt>
      <trkpt lat="43.248881036415696" lon="1.724601974710822">
        <ele>251.52000000000001</ele>
        <time>2025-04-26T08:45:04Z</time>
      </trkpt>
      <trkpt lat="43.248795960098505" lon="1.724391002207995">
        <ele>252</ele>
        <time>2025-04-26T08:45:05Z</time>
      </trkpt>
      <trkpt lat="43.248696969822049" lon="1.724199978634715">
        <ele>252.47999999999999</ele>
        <time>2025-04-26T08:45:06Z</time>
      </trkpt>
      <trkpt lat="43.2485890109092" lon="1.724009038880467">
        <ele>252.96000000000001</ele>
        <time>2025-04-26T08:45:07Z</time>
      </trkpt>
      <trkpt lat="43.248262032866478" lon="1.723432028666139">
        <ele>254.41</ele>
        <time>2025-04-26T08:45:10Z</time>
      </trkpt>
      <trkpt lat="43.248154995962977" lon="1.72324301674962">
        <ele>254.88999999999999</ele>
        <time>2025-04-26T08:45:11Z</time>
      </trkpt>
      <trkpt lat="43.247497016564012" lon="1.721486002206802">
        <ele>255.84999999999999</ele>
        <time>2025-04-26T08:45:19Z</time>
      </trkpt>
      <trkpt lat="43.247125027701259" lon="1.71937401406467">
        <ele>251.52000000000001</ele>
        <time>2025-04-26T08:45:28Z</time>
      </trkpt>
      <trkpt lat="43.246821016073227" lon="1.717510968446732">
        <ele>244.78999999999999</ele>
        <time>2025-04-26T08:45:38Z</time>
      </trkpt>
      <trkpt lat="43.246711967512965" lon="1.716128038242459">
        <ele>241.91</ele>
        <time>2025-04-26T08:45:47Z</time>
      </trkpt>
      <trkpt lat="43.246788997203112" lon="1.714825993403792">
        <ele>242.38999999999999</ele>
        <time>2025-04-26T08:45:55Z</time>
      </trkpt>
      <trkpt lat="43.246836019679904" lon="1.714344033971429">
        <ele>242.87</ele>
        <time>2025-04-26T08:45:58Z</time>
      </trkpt>
      <trkpt lat="43.24687298387289" lon="1.713998029008508">
        <ele>243.83000000000001</ele>
        <time>2025-04-26T08:46:00Z</time>
      </trkpt>
      <trkpt lat="43.247030982747674" lon="1.712256018072367">
        <ele>249.12</ele>
        <time>2025-04-26T08:46:09Z</time>
      </trkpt>
      <trkpt lat="43.247175989672542" lon="1.710559017956257">
        <ele>245.27000000000001</ele>
        <time>2025-04-26T08:46:17Z</time>
      </trkpt>
      <trkpt lat="43.247399032115936" lon="1.708140000700951">
        <ele>240.47</ele>
        <time>2025-04-26T08:46:27Z</time>
      </trkpt>
      <trkpt lat="43.247582009062171" lon="1.706007979810238">
        <ele>241.43000000000001</ele>
        <time>2025-04-26T08:46:36Z</time>
      </trkpt>
      <trkpt lat="43.247802034020424" lon="1.703444039449096">
        <ele>241.43000000000001</ele>
        <time>2025-04-26T08:46:46Z</time>
      </trkpt>
      <trkpt lat="43.248221967369318" lon="1.700809020549059">
        <ele>241.43000000000001</ele>
        <time>2025-04-26T08:46:56Z</time>
      </trkpt>
      <trkpt lat="43.248878018930554" lon="1.698070988059044">
        <ele>236.13999999999999</ele>
        <time>2025-04-26T08:47:07Z</time>
      </trkpt>
      <trkpt lat="43.249559970572591" lon="1.695259027183056">
        <ele>234.22</ele>
        <time>2025-04-26T08:47:18Z</time>
      </trkpt>
      <trkpt lat="43.249627025797963" lon="1.694986028596759">
        <ele>234.22</ele>
        <time>2025-04-26T08:47:19Z</time>
      </trkpt>
      <trkpt lat="43.250578036531806" lon="1.69110101647675">
        <ele>232.78</ele>
        <time>2025-04-26T08:47:34Z</time>
      </trkpt>
      <trkpt lat="43.251181030645967" lon="1.688568005338311">
        <ele>231.33000000000001</ele>
        <time>2025-04-26T08:47:44Z</time>
      </trkpt>
      <trkpt lat="43.25185501947999" lon="1.685725031420589">
        <ele>230.37</ele>
        <time>2025-04-26T08:47:56Z</time>
      </trkpt>
      <trkpt lat="43.252203036099672" lon="1.68426901102066">
        <ele>230.37</ele>
        <time>2025-04-26T08:48:05Z</time>
      </trkpt>
      <trkpt lat="43.252564966678619" lon="1.682932013645768">
        <ele>229.41</ele>
        <time>2025-04-26T08:48:14Z</time>
      </trkpt>
      <trkpt lat="43.252621041610837" lon="1.682795975357294">
        <ele>229.41</ele>
        <time>2025-04-26T08:48:15Z</time>
      </trkpt>
      <trkpt lat="43.252695975825191" lon="1.682671001181006">
        <ele>229.41</ele>
        <time>2025-04-26T08:48:16Z</time>
      </trkpt>
      <trkpt lat="43.253223029896617" lon="1.681849993765354">
        <ele>229.41</ele>
        <time>2025-04-26T08:48:23Z</time>
      </trkpt>
      <trkpt lat="43.253378011286259" lon="1.681613037362695">
        <ele>230.37</ele>
        <time>2025-04-26T08:48:25Z</time>
      </trkpt>
      <trkpt lat="43.253762992098927" lon="1.68102303519845">
        <ele>232.30000000000001</ele>
        <time>2025-04-26T08:48:32Z</time>
      </trkpt>
      <trkpt lat="43.253784030675888" lon="1.680993027985096">
        <ele>232.78</ele>
        <time>2025-04-26T08:48:33Z</time>
      </trkpt>
      <trkpt lat="43.253775984048843" lon="1.680941982194781">
        <ele>233.25999999999999</ele>
        <time>2025-04-26T08:48:34Z</time>
      </trkpt>
      <trkpt lat="43.253752011805773" lon="1.680906023830175">
        <ele>233.25999999999999</ele>
        <time>2025-04-26T08:48:35Z</time>
      </trkpt>
      <trkpt lat="43.253719992935658" lon="1.680856989696622">
        <ele>233.25999999999999</ele>
        <time>2025-04-26T08:48:36Z</time>
      </trkpt>
      <trkpt lat="43.253668025135994" lon="1.680779037997127">
        <ele>233.74000000000001</ele>
        <time>2025-04-26T08:48:37Z</time>
      </trkpt>
      <trkpt lat="43.253602981567383" lon="1.680693039670587">
        <ele>234.22</ele>
        <time>2025-04-26T08:48:39Z</time>
      </trkpt>
      <trkpt lat="43.253050027415156" lon="1.679976973682642">
        <ele>239.99000000000001</ele>
        <time>2025-04-26T08:48:52Z</time>
      </trkpt>
      <trkpt lat="43.252789014950395" lon="1.67962996289134">
        <ele>240.94999999999999</ele>
        <time>2025-04-26T08:48:59Z</time>
      </trkpt>
      <trkpt lat="43.2528440002352" lon="1.679459977895021">
        <ele>241.43000000000001</ele>
        <time>2025-04-26T08:49:01Z</time>
      </trkpt>
      <trkpt lat="43.252880964428186" lon="1.679394012317061">
        <ele>241.43000000000001</ele>
        <time>2025-04-26T08:49:02Z</time>
      </trkpt>
      <trkpt lat="43.252919018268585" lon="1.67932502925396">
        <ele>241.91</ele>
        <time>2025-04-26T08:49:03Z</time>
      </trkpt>
      <trkpt lat="43.253089003264904" lon="1.679020011797547">
        <ele>243.34999999999999</ele>
        <time>2025-04-26T08:49:07Z</time>
      </trkpt>
      <trkpt lat="43.253114987164736" lon="1.678976006805897">
        <ele>243.83000000000001</ele>
        <time>2025-04-26T08:49:08Z</time>
      </trkpt>
      <trkpt lat="43.253153041005135" lon="1.678912974894047">
        <ele>243.83000000000001</ele>
        <time>2025-04-26T08:49:09Z</time>
      </trkpt>
      <trkpt lat="43.253235016018152" lon="1.678775008767843">
        <ele>244.78999999999999</ele>
        <time>2025-04-26T08:49:11Z</time>
      </trkpt>
      <trkpt lat="43.253277009353042" lon="1.678705019876361">
        <ele>244.78999999999999</ele>
        <time>2025-04-26T08:49:12Z</time>
      </trkpt>
      <trkpt lat="43.253319002687931" lon="1.678636036813259">
        <ele>245.27000000000001</ele>
        <time>2025-04-26T08:49:13Z</time>
      </trkpt>
      <trkpt lat="43.253363007679582" lon="1.678566969931126">
        <ele>245.75</ele>
        <time>2025-04-26T08:49:14Z</time>
      </trkpt>
      <trkpt lat="43.253407012671232" lon="1.678501004353166">
        <ele>246.22999999999999</ele>
        <time>2025-04-26T08:49:15Z</time>
      </trkpt>
      <trkpt lat="43.253948986530304" lon="1.677676979452372">
        <ele>247.19999999999999</ele>
        <time>2025-04-26T08:49:25Z</time>
      </trkpt>
      <trkpt lat="43.254150990396738" lon="1.677317982539535">
        <ele>247.19999999999999</ele>
        <time>2025-04-26T08:49:29Z</time>
      </trkpt>
      <trkpt lat="43.254182003438473" lon="1.677251011133194">
        <ele>247.19999999999999</ele>
        <time>2025-04-26T08:49:30Z</time>
      </trkpt>
      <trkpt lat="43.254168005660176" lon="1.67715797200799">
        <ele>247.19999999999999</ele>
        <time>2025-04-26T08:49:31Z</time>
      </trkpt>
      <trkpt lat="43.254140010103583" lon="1.677077002823353">
        <ele>246.72</ele>
        <time>2025-04-26T08:49:32Z</time>
      </trkpt>
      <trkpt lat="43.254085024818778" lon="1.676992010325193">
        <ele>246.72</ele>
        <time>2025-04-26T08:49:33Z</time>
      </trkpt>
      <trkpt lat="43.254030961543322" lon="1.676908023655415">
        <ele>246.72</ele>
        <time>2025-04-26T08:49:34Z</time>
      </trkpt>
      <trkpt lat="43.253977987915277" lon="1.676824958994985">
        <ele>246.72</ele>
        <time>2025-04-26T08:49:35Z</time>
      </trkpt>
      <trkpt lat="43.25391998514533" lon="1.676752958446741">
        <ele>246.22999999999999</ele>
        <time>2025-04-26T08:49:36Z</time>
      </trkpt>
      <trkpt lat="43.253640029579401" lon="1.676421035081148">
        <ele>247.68000000000001</ele>
        <time>2025-04-26T08:49:41Z</time>
      </trkpt>
      <trkpt lat="43.253589989617467" lon="1.676363032311201">
        <ele>247.68000000000001</ele>
        <time>2025-04-26T08:49:42Z</time>
      </trkpt>
      <trkpt lat="43.253549002110958" lon="1.676313998177648">
        <ele>247.68000000000001</ele>
        <time>2025-04-26T08:49:43Z</time>
      </trkpt>
      <trkpt lat="43.253518994897604" lon="1.676278961822391">
        <ele>248.16</ele>
        <time>2025-04-26T08:49:44Z</time>
      </trkpt>
      <trkpt lat="43.253496028482914" lon="1.676251972094178">
        <ele>248.16</ele>
        <time>2025-04-26T08:49:45Z</time>
      </trkpt>
      <trkpt lat="43.253496028482914" lon="1.676251972094178">
        <ele>248.16</ele>
        <time>2025-04-26T08:49:46Z</time>
      </trkpt>
      <trkpt lat="43.253410030156374" lon="1.676145019009709">
        <ele>248.63999999999999</ele>
        <time>2025-04-26T08:49:47Z</time>
      </trkpt>
      <trkpt lat="43.253399971872568" lon="1.676135966554284">
        <ele>249.12</ele>
        <time>2025-04-26T08:49:48Z</time>
      </trkpt>
      <trkpt lat="43.253348004072905" lon="1.676092967391014">
        <ele>249.59999999999999</ele>
        <time>2025-04-26T08:49:49Z</time>
      </trkpt>
      <trkpt lat="43.253282038494945" lon="1.676036976277828">
        <ele>250.08000000000001</ele>
        <time>2025-04-26T08:49:50Z</time>
      </trkpt>
      <trkpt lat="43.253233004361391" lon="1.676005041226745">
        <ele>250.56</ele>
        <time>2025-04-26T08:49:51Z</time>
      </trkpt>
      <trkpt lat="43.253167038783431" lon="1.675961036235094">
        <ele>250.56</ele>
        <time>2025-04-26T08:49:52Z</time>
      </trkpt>
      <trkpt lat="43.253023959696293" lon="1.675895992666483">
        <ele>251.52000000000001</ele>
        <time>2025-04-26T08:49:55Z</time>
      </trkpt>
      <trkpt lat="43.252931004390121" lon="1.67584796436131">
        <ele>252.47999999999999</ele>
        <time>2025-04-26T08:49:57Z</time>
      </trkpt>
      <trkpt lat="43.252867972478271" lon="1.675814017653465">
        <ele>252.47999999999999</ele>
        <time>2025-04-26T08:49:58Z</time>
      </trkpt>
      <trkpt lat="43.252803012728691" lon="1.675777975469828">
        <ele>252</ele>
        <time>2025-04-26T08:49:59Z</time>
      </trkpt>
      <trkpt lat="43.25273503549397" lon="1.675741011276841">
        <ele>251.52000000000001</ele>
        <time>2025-04-26T08:50:00Z</time>
      </trkpt>
      <trkpt lat="43.252666974440217" lon="1.675703963264823">
        <ele>250.08000000000001</ele>
        <time>2025-04-26T08:50:01Z</time>
      </trkpt>
      <trkpt lat="43.252602014690638" lon="1.675669010728598">
        <ele>249.12</ele>
        <time>2025-04-26T08:50:02Z</time>
      </trkpt>
      <trkpt lat="43.252533031627536" lon="1.675631040707231">
        <ele>248.16</ele>
        <time>2025-04-26T08:50:03Z</time>
      </trkpt>
      <trkpt lat="43.252385007217526" lon="1.675612013787031">
        <ele>246.22999999999999</ele>
        <time>2025-04-26T08:50:05Z</time>
      </trkpt>
      <trkpt lat="43.252187026664615" lon="1.67558703571558">
        <ele>244.78999999999999</ele>
        <time>2025-04-26T08:50:08Z</time>
      </trkpt>
      <trkpt lat="43.252073032781482" lon="1.675606984645128">
        <ele>244.31</ele>
        <time>2025-04-26T08:50:09Z</time>
      </trkpt>
      <trkpt lat="43.252005977556109" lon="1.675619976595044">
        <ele>243.83000000000001</ele>
        <time>2025-04-26T08:50:10Z</time>
      </trkpt>
      <trkpt lat="43.251654021441936" lon="1.675708992406726">
        <ele>241.43000000000001</ele>
        <time>2025-04-26T08:50:15Z</time>
      </trkpt>
      <trkpt lat="43.251589983701706" lon="1.675747968256474">
        <ele>240.94999999999999</ele>
        <time>2025-04-26T08:50:16Z</time>
      </trkpt>
      <trkpt lat="43.251224029809237" lon="1.676013004034758">
        <ele>240.47</ele>
        <time>2025-04-26T08:50:22Z</time>
      </trkpt>
      <trkpt lat="43.251156974583864" lon="1.676062038168311">
        <ele>240.94999999999999</ele>
        <time>2025-04-26T08:50:23Z</time>
      </trkpt>
      <trkpt lat="43.250645007938147" lon="1.676434027031064">
        <ele>241.43000000000001</ele>
        <time>2025-04-26T08:50:31Z</time>
      </trkpt>
      <trkpt lat="43.250585999339819" lon="1.676476020365953">
        <ele>241.91</ele>
        <time>2025-04-26T08:50:32Z</time>
      </trkpt>
      <trkpt lat="43.250491032376885" lon="1.676543997600675">
        <ele>242.38999999999999</ele>
        <time>2025-04-26T08:50:34Z</time>
      </trkpt>
      <trkpt lat="43.250460019335151" lon="1.676565958186984">
        <ele>242.38999999999999</ele>
        <time>2025-04-26T08:50:35Z</time>
      </trkpt>
      <trkpt lat="43.250449039041996" lon="1.676574004814029">
        <ele>242.87</ele>
        <time>2025-04-26T08:50:36Z</time>
      </trkpt>
      <trkpt lat="43.250390030443668" lon="1.676514996215701">
        <ele>242.87</ele>
        <time>2025-04-26T08:50:37Z</time>
      </trkpt>
      <trkpt lat="43.250361029058695" lon="1.676484989002347">
        <ele>243.34999999999999</ele>
        <time>2025-04-26T08:50:38Z</time>
      </trkpt>
      <trkpt lat="43.250328004360199" lon="1.676452970132232">
        <ele>243.34999999999999</ele>
        <time>2025-04-26T08:50:39Z</time>
      </trkpt>
      <trkpt lat="43.250289028510451" lon="1.676413994282484">
        <ele>243.83000000000001</ele>
        <time>2025-04-26T08:50:40Z</time>
      </trkpt>
      <trkpt lat="43.250248963013291" lon="1.676370995119214">
        <ele>244.31</ele>
        <time>2025-04-26T08:50:41Z</time>
      </trkpt>
      <trkpt lat="43.250170005485415" lon="1.676263958215714">
        <ele>244.78999999999999</ele>
        <time>2025-04-26T08:50:43Z</time>
      </trkpt>
      <trkpt lat="43.24992198497057" lon="1.675935974344611">
        <ele>245.75</ele>
        <time>2025-04-26T08:50:50Z</time>
      </trkpt>
      <trkpt lat="43.24987999163568" lon="1.675880989059806">
        <ele>246.22999999999999</ele>
        <time>2025-04-26T08:50:51Z</time>
      </trkpt>
      <trkpt lat="43.249839004129171" lon="1.675828015431762">
        <ele>246.22999999999999</ele>
        <time>2025-04-26T08:50:52Z</time>
      </trkpt>
      <trkpt lat="43.249305998906493" lon="1.675139022991061">
        <ele>247.68000000000001</ele>
        <time>2025-04-26T08:51:03Z</time>
      </trkpt>
      <trkpt lat="43.248957982286811" lon="1.674688998609781">
        <ele>244.31</ele>
        <time>2025-04-26T08:51:12Z</time>
      </trkpt>
      <trkpt lat="43.248925963416696" lon="1.674648011103272">
        <ele>244.31</ele>
        <time>2025-04-26T08:51:13Z</time>
      </trkpt>
      <trkpt lat="43.248898973688483" lon="1.674612974748015">
        <ele>243.83000000000001</ele>
        <time>2025-04-26T08:51:14Z</time>
      </trkpt>
      <trkpt lat="43.248837031424046" lon="1.674533011391759">
        <ele>242.38999999999999</ele>
        <time>2025-04-26T08:51:17Z</time>
      </trkpt>
      <trkpt lat="43.248819010332227" lon="1.674509961158037">
        <ele>241.91</ele>
        <time>2025-04-26T08:51:18Z</time>
      </trkpt>
      <trkpt lat="43.248800989240408" lon="1.674485988914967">
        <ele>241.91</ele>
        <time>2025-04-26T08:51:19Z</time>
      </trkpt>
      <trkpt lat="43.248781962320209" lon="1.674462016671896">
        <ele>241.91</ele>
        <time>2025-04-26T08:51:20Z</time>
      </trkpt>
      <trkpt lat="43.248766958713531" lon="1.674442989751697">
        <ele>241.91</ele>
        <time>2025-04-26T08:51:21Z</time>
      </trkpt>
      <trkpt lat="43.248766958713531" lon="1.674442989751697">
        <ele>241.91</ele>
        <time>2025-04-26T08:51:33Z</time>
      </trkpt>
      <trkpt lat="43.248766958713531" lon="1.674442989751697">
        <ele>241.91</ele>
        <time>2025-04-26T08:52:15Z</time>
      </trkpt>
      <trkpt lat="43.248638967052102" lon="1.674274010583758">
        <ele>247.19999999999999</ele>
        <time>2025-04-26T08:52:34Z</time>
      </trkpt>
      <trkpt lat="43.248536037281156" lon="1.674139983952045">
        <ele>248.63999999999999</ele>
        <time>2025-04-26T08:52:38Z</time>
      </trkpt>
      <trkpt lat="43.248239988461137" lon="1.673753997310996">
        <ele>248.16</ele>
        <time>2025-04-26T08:52:45Z</time>
      </trkpt>
      <trkpt lat="43.247976964339614" lon="1.673412015661597">
        <ele>248.16</ele>
        <time>2025-04-26T08:52:50Z</time>
      </trkpt>
      <trkpt lat="43.247917033731937" lon="1.67333398014307">
        <ele>248.16</ele>
        <time>2025-04-26T08:52:51Z</time>
      </trkpt>
      <trkpt lat="43.247875962406397" lon="1.673278994858265">
        <ele>248.16</ele>
        <time>2025-04-26T08:52:52Z</time>
      </trkpt>
      <trkpt lat="43.247828017920256" lon="1.673215962946415">
        <ele>248.16</ele>
        <time>2025-04-26T08:52:53Z</time>
      </trkpt>
      <trkpt lat="43.247778983786702" lon="1.673152009025216">
        <ele>248.63999999999999</ele>
        <time>2025-04-26T08:52:54Z</time>
      </trkpt>
      <trkpt lat="43.247555019333959" lon="1.672858977690339">
        <ele>248.63999999999999</ele>
        <time>2025-04-26T08:52:58Z</time>
      </trkpt>
      <trkpt lat="43.24749500490725" lon="1.672779014334083">
        <ele>248.63999999999999</ele>
        <time>2025-04-26T08:52:59Z</time>
      </trkpt>
      <trkpt lat="43.247439013794065" lon="1.672706007957459">
        <ele>248.63999999999999</ele>
        <time>2025-04-26T08:53:00Z</time>
      </trkpt>
      <trkpt lat="43.247383022680879" lon="1.672633001580834">
        <ele>248.63999999999999</ele>
        <time>2025-04-26T08:53:01Z</time>
      </trkpt>
      <trkpt lat="43.247328959405422" lon="1.672561001032591">
        <ele>248.63999999999999</ele>
        <time>2025-04-26T08:53:02Z</time>
      </trkpt>
      <trkpt lat="43.247219994664192" lon="1.672420017421246">
        <ele>249.59999999999999</ele>
        <time>2025-04-26T08:53:04Z</time>
      </trkpt>
      <trkpt lat="43.247162997722626" lon="1.672352962195873">
        <ele>250.08000000000001</ele>
        <time>2025-04-26T08:53:05Z</time>
      </trkpt>
      <trkpt lat="43.246995024383068" lon="1.672142995521426">
        <ele>250.08000000000001</ele>
        <time>2025-04-26T08:53:08Z</time>
      </trkpt>
      <trkpt lat="43.246482973918319" lon="1.671489039435983">
        <ele>253.93000000000001</ele>
        <time>2025-04-26T08:53:17Z</time>
      </trkpt>
      <trkpt lat="43.246414996683598" lon="1.671402035281062">
        <ele>254.41</ele>
        <time>2025-04-26T08:53:18Z</time>
      </trkpt>
      <trkpt lat="43.245655009523034" lon="1.670419005677104">
        <ele>252</ele>
        <time>2025-04-26T08:53:27Z</time>
      </trkpt>
      <trkpt lat="43.245059978216887" lon="1.669648960232735">
        <ele>249.12</ele>
        <time>2025-04-26T08:53:34Z</time>
      </trkpt>
      <trkpt lat="43.244496965780854" lon="1.668921997770667">
        <ele>252</ele>
        <time>2025-04-26T08:53:41Z</time>
      </trkpt>
      <trkpt lat="43.244237964972854" lon="1.66858496144414">
        <ele>252.96000000000001</ele>
        <time>2025-04-26T08:53:44Z</time>
      </trkpt>
      <trkpt lat="43.243479989469051" lon="1.667611990123987">
        <ele>248.16</ele>
        <time>2025-04-26T08:53:51Z</time>
      </trkpt>
      <trkpt lat="43.243357026949525" lon="1.667454997077584">
        <ele>247.19999999999999</ele>
        <time>2025-04-26T08:53:52Z</time>
      </trkpt>
      <trkpt lat="43.242329992353916" lon="1.666139960289002">
        <ele>240.47</ele>
        <time>2025-04-26T08:54:00Z</time>
      </trkpt>
      <trkpt lat="43.242206024006009" lon="1.665977016091347">
        <ele>239.99000000000001</ele>
        <time>2025-04-26T08:54:01Z</time>
      </trkpt>
      <trkpt lat="43.241296000778675" lon="1.664787959307432">
        <ele>236.62</ele>
        <time>2025-04-26T08:54:08Z</time>
      </trkpt>
      <trkpt lat="43.240659981966019" lon="1.663962006568909">
        <ele>235.66</ele>
        <time>2025-04-26T08:54:14Z</time>
      </trkpt>
      <trkpt lat="43.239948023110628" lon="1.663035973906517">
        <ele>239.02000000000001</ele>
        <time>2025-04-26T08:54:23Z</time>
      </trkpt>
      <trkpt lat="43.239040011540055" lon="1.66190299205482">
        <ele>239.99000000000001</ele>
        <time>2025-04-26T08:54:33Z</time>
      </trkpt>
      <trkpt lat="43.237884985283017" lon="1.66039701551199">
        <ele>241.43000000000001</ele>
        <time>2025-04-26T08:54:43Z</time>
      </trkpt>
      <trkpt lat="43.236574977636337" lon="1.658698003739119">
        <ele>245.27000000000001</ele>
        <time>2025-04-26T08:54:54Z</time>
      </trkpt>
      <trkpt lat="43.235349962487817" lon="1.657152967527509">
        <ele>247.19999999999999</ele>
        <time>2025-04-26T08:55:05Z</time>
      </trkpt>
      <trkpt lat="43.23477697558701" lon="1.656419970095158">
        <ele>250.08000000000001</ele>
        <time>2025-04-26T08:55:13Z</time>
      </trkpt>
      <trkpt lat="43.234726013615727" lon="1.656356016173959">
        <ele>250.08000000000001</ele>
        <time>2025-04-26T08:55:14Z</time>
      </trkpt>
      <trkpt lat="43.234742023050785" lon="1.65614596568048">
        <ele>250.08000000000001</ele>
        <time>2025-04-26T08:55:15Z</time>
      </trkpt>
      <trkpt lat="43.234591986984015" lon="1.655653025954962">
        <ele>250.56</ele>
        <time>2025-04-26T08:55:19Z</time>
      </trkpt>
      <trkpt lat="43.234634986147285" lon="1.655438030138612">
        <ele>250.56</ele>
        <time>2025-04-26T08:55:20Z</time>
      </trkpt>
      <trkpt lat="43.234639009460807" lon="1.655341973528266">
        <ele>250.56</ele>
        <time>2025-04-26T08:55:21Z</time>
      </trkpt>
      <trkpt lat="43.23464697226882" lon="1.655162014067173">
        <ele>250.56</ele>
        <time>2025-04-26T08:55:22Z</time>
      </trkpt>
      <trkpt lat="43.234656024724245" lon="1.654965961351991">
        <ele>250.56</ele>
        <time>2025-04-26T08:55:23Z</time>
      </trkpt>
      <trkpt lat="43.234640015289187" lon="1.654774015769362">
        <ele>250.56</ele>
        <time>2025-04-26T08:55:24Z</time>
      </trkpt>
      <trkpt lat="43.234623000025749" lon="1.654566982761025">
        <ele>250.56</ele>
        <time>2025-04-26T08:55:25Z</time>
      </trkpt>
      <trkpt lat="43.234420996159315" lon="1.652180990204215">
        <ele>250.08000000000001</ele>
        <time>2025-04-26T08:55:35Z</time>
      </trkpt>
      <trkpt lat="43.234057975932956" lon="1.648333026096225">
        <ele>250.56</ele>
        <time>2025-04-26T08:55:49Z</time>
      </trkpt>
      <trkpt lat="43.233746001496911" lon="1.644788989797235">
        <ele>249.59999999999999</ele>
        <time>2025-04-26T08:56:02Z</time>
      </trkpt>
      <trkpt lat="43.233648017048836" lon="1.643567997962236">
        <ele>248.63999999999999</ele>
        <time>2025-04-26T08:56:09Z</time>
      </trkpt>
      <trkpt lat="43.233519019559026" lon="1.643378986045718">
        <ele>248.63999999999999</ele>
        <time>2025-04-26T08:56:10Z</time>
      </trkpt>
      <trkpt lat="43.23316304013133" lon="1.641821041703224">
        <ele>250.56</ele>
        <time>2025-04-26T08:56:18Z</time>
      </trkpt>
      <trkpt lat="43.233034964650869" lon="1.639813994988799">
        <ele>254.41</ele>
        <time>2025-04-26T08:56:26Z</time>
      </trkpt>
      <trkpt lat="43.232922982424498" lon="1.636952999979258">
        <ele>250.56</ele>
        <time>2025-04-26T08:56:37Z</time>
      </trkpt>
      <trkpt lat="43.232749979943037" lon="1.634416971355677">
        <ele>248.63999999999999</ele>
        <time>2025-04-26T08:56:48Z</time>
      </trkpt>
      <trkpt lat="43.23277504183352" lon="1.634252015501261">
        <ele>248.63999999999999</ele>
        <time>2025-04-26T08:56:49Z</time>
      </trkpt>
      <trkpt lat="43.232811000198126" lon="1.634112037718296">
        <ele>248.63999999999999</ele>
        <time>2025-04-26T08:56:50Z</time>
      </trkpt>
      <trkpt lat="43.232872020453215" lon="1.633995026350021">
        <ele>248.63999999999999</ele>
        <time>2025-04-26T08:56:51Z</time>
      </trkpt>
      <trkpt lat="43.232932034879923" lon="1.633882038295269">
        <ele>248.63999999999999</ele>
        <time>2025-04-26T08:56:52Z</time>
      </trkpt>
      <trkpt lat="43.232988025993109" lon="1.633775001391769">
        <ele>248.63999999999999</ele>
        <time>2025-04-26T08:56:53Z</time>
      </trkpt>
      <trkpt lat="43.233085004612803" lon="1.633727978914976">
        <ele>248.63999999999999</ele>
        <time>2025-04-26T08:56:54Z</time>
      </trkpt>
      <trkpt lat="43.233161028474569" lon="1.633652038872242">
        <ele>248.63999999999999</ele>
        <time>2025-04-26T08:56:55Z</time>
      </trkpt>
      <trkpt lat="43.233233029022813" lon="1.633565034717321">
        <ele>248.63999999999999</ele>
        <time>2025-04-26T08:56:56Z</time>
      </trkpt>
      <trkpt lat="43.233254989609122" lon="1.633422961458564">
        <ele>248.63999999999999</ele>
        <time>2025-04-26T08:56:57Z</time>
      </trkpt>
      <trkpt lat="43.233246020972729" lon="1.63330796174705">
        <ele>248.63999999999999</ele>
        <time>2025-04-26T08:56:58Z</time>
      </trkpt>
      <trkpt lat="43.233202015981078" lon="1.633184999227524">
        <ele>248.63999999999999</ele>
        <time>2025-04-26T08:56:59Z</time>
      </trkpt>
      <trkpt lat="43.233138984069228" lon="1.633110987022519">
        <ele>248.63999999999999</ele>
        <time>2025-04-26T08:57:00Z</time>
      </trkpt>
      <trkpt lat="43.233048962429166" lon="1.633071005344391">
        <ele>248.16</ele>
        <time>2025-04-26T08:57:01Z</time>
      </trkpt>
      <trkpt lat="43.232939997687936" lon="1.633058013394475">
        <ele>248.16</ele>
        <time>2025-04-26T08:57:02Z</time>
      </trkpt>
      <trkpt lat="43.232867997139692" lon="1.632979977875948">
        <ele>247.68000000000001</ele>
        <time>2025-04-26T08:57:03Z</time>
      </trkpt>
      <trkpt lat="43.232789039611816" lon="1.632892973721027">
        <ele>247.68000000000001</ele>
        <time>2025-04-26T08:57:04Z</time>
      </trkpt>
      <trkpt lat="43.232701029628515" lon="1.632763976231217">
        <ele>247.68000000000001</ele>
        <time>2025-04-26T08:57:05Z</time>
      </trkpt>
      <trkpt lat="43.232686026021838" lon="1.632604971528053">
        <ele>247.19999999999999</ele>
        <time>2025-04-26T08:57:06Z</time>
      </trkpt>
      <trkpt lat="43.232670016586781" lon="1.63242400623858">
        <ele>247.19999999999999</ele>
        <time>2025-04-26T08:57:07Z</time>
      </trkpt>
      <trkpt lat="43.232651995494962" lon="1.632224014028907">
        <ele>246.72</ele>
        <time>2025-04-26T08:57:08Z</time>
      </trkpt>
      <trkpt lat="43.232450997456908" lon="1.629994008690119">
        <ele>245.27000000000001</ele>
        <time>2025-04-26T08:57:17Z</time>
      </trkpt>
      <trkpt lat="43.232121001929045" lon="1.626335978507996">
        <ele>245.75</ele>
        <time>2025-04-26T08:57:30Z</time>
      </trkpt>
      <trkpt lat="43.231844985857606" lon="1.62322998046875">
        <ele>247.68000000000001</ele>
        <time>2025-04-26T08:57:41Z</time>
      </trkpt>
      <trkpt lat="43.231361014768481" lon="1.620719013735652">
        <ele>247.19999999999999</ele>
        <time>2025-04-26T08:57:50Z</time>
      </trkpt>
      <trkpt lat="43.230261979624629" lon="1.616362016648054">
        <ele>245.75</ele>
        <time>2025-04-26T08:58:06Z</time>
      </trkpt>
      <trkpt lat="43.229413982480764" lon="1.61295996978879">
        <ele>245.75</ele>
        <time>2025-04-26T08:58:19Z</time>
      </trkpt>
      <trkpt lat="43.228750973939896" lon="1.610292010009289">
        <ele>247.19999999999999</ele>
        <time>2025-04-26T08:58:30Z</time>
      </trkpt>
      <trkpt lat="43.228248981758952" lon="1.608380014076829">
        <ele>246.72</ele>
        <time>2025-04-26T08:58:39Z</time>
      </trkpt>
      <trkpt lat="43.227883027866483" lon="1.60696498118341">
        <ele>247.19999999999999</ele>
        <time>2025-04-26T08:58:49Z</time>
      </trkpt>
      <trkpt lat="43.227826030924916" lon="1.606762977316976">
        <ele>247.19999999999999</ele>
        <time>2025-04-26T08:58:51Z</time>
      </trkpt>
      <trkpt lat="43.227787977084517" lon="1.606711009517312">
        <ele>247.19999999999999</ele>
        <time>2025-04-26T08:58:52Z</time>
      </trkpt>
      <trkpt lat="43.227754030376673" lon="1.606662981212139">
        <ele>246.72</ele>
        <time>2025-04-26T08:58:53Z</time>
      </trkpt>
      <trkpt lat="43.227718994021416" lon="1.606615958735347">
        <ele>246.72</ele>
        <time>2025-04-26T08:58:54Z</time>
      </trkpt>
      <trkpt lat="43.2276869751513" lon="1.606571031734347">
        <ele>246.72</ele>
        <time>2025-04-26T08:58:55Z</time>
      </trkpt>
      <trkpt lat="43.22759703733027" lon="1.606686031445861">
        <ele>246.72</ele>
        <time>2025-04-26T08:58:56Z</time>
      </trkpt>
      <trkpt lat="43.227567030116916" lon="1.606719978153706">
        <ele>246.72</ele>
        <time>2025-04-26T08:58:57Z</time>
      </trkpt>
      <trkpt lat="43.227503998205066" lon="1.606790972873569">
        <ele>246.72</ele>
        <time>2025-04-26T08:58:58Z</time>
      </trkpt>
      <trkpt lat="43.227437026798725" lon="1.606865990906954">
        <ele>246.72</ele>
        <time>2025-04-26T08:58:59Z</time>
      </trkpt>
      <trkpt lat="43.227312974631786" lon="1.606887029483914">
        <ele>246.72</ele>
        <time>2025-04-26T08:59:00Z</time>
      </trkpt>
      <trkpt lat="43.227220019325614" lon="1.606892980635166">
        <ele>247.19999999999999</ele>
        <time>2025-04-26T08:59:01Z</time>
      </trkpt>
      <trkpt lat="43.227099990472198" lon="1.606898009777069">
        <ele>247.68000000000001</ele>
        <time>2025-04-26T08:59:02Z</time>
      </trkpt>
      <trkpt lat="43.22701801545918" lon="1.606830032542348">
        <ele>247.68000000000001</ele>
        <time>2025-04-26T08:59:03Z</time>
      </trkpt>
      <trkpt lat="43.226938974112272" lon="1.606714027002454">
        <ele>248.16</ele>
        <time>2025-04-26T08:59:04Z</time>
      </trkpt>
      <trkpt lat="43.22688901796937" lon="1.606600033119321">
        <ele>249.12</ele>
        <time>2025-04-26T08:59:05Z</time>
      </trkpt>
      <trkpt lat="43.226877031847835" lon="1.606443040072918">
        <ele>249.59999999999999</ele>
        <time>2025-04-26T08:59:06Z</time>
      </trkpt>
      <trkpt lat="43.226866973564029" lon="1.60632099956274">
        <ele>249.59999999999999</ele>
        <time>2025-04-26T08:59:07Z</time>
      </trkpt>
      <trkpt lat="43.226893041282892" lon="1.606179010123015">
        <ele>250.08000000000001</ele>
        <time>2025-04-26T08:59:08Z</time>
      </trkpt>
      <trkpt lat="43.226936040446162" lon="1.606055963784456">
        <ele>250.56</ele>
        <time>2025-04-26T08:59:09Z</time>
      </trkpt>
      <trkpt lat="43.22701801545918" lon="1.605966025963426">
        <ele>251.03999999999999</ele>
        <time>2025-04-26T08:59:10Z</time>
      </trkpt>
      <trkpt lat="43.2271050196141" lon="1.605868963524699">
        <ele>251.52000000000001</ele>
        <time>2025-04-26T08:59:11Z</time>
      </trkpt>
      <trkpt lat="43.227217001840472" lon="1.605792017653585">
        <ele>252</ele>
        <time>2025-04-26T08:59:12Z</time>
      </trkpt>
      <trkpt lat="43.227338958531618" lon="1.605706019327045">
        <ele>252.47999999999999</ele>
        <time>2025-04-26T08:59:13Z</time>
      </trkpt>
      <trkpt lat="43.228690037503839" lon="1.604818040505052">
        <ele>255.37</ele>
        <time>2025-04-26T08:59:22Z</time>
      </trkpt>
      <trkpt lat="43.23049801401794" lon="1.603519013151527">
        <ele>256.32999999999998</ele>
        <time>2025-04-26T08:59:33Z</time>
      </trkpt>
      <trkpt lat="43.232366004958749" lon="1.601669965311885">
        <ele>254.41</ele>
        <time>2025-04-26T08:59:45Z</time>
      </trkpt>
      <trkpt lat="43.233991004526615" lon="1.599392015486956">
        <ele>247.19999999999999</ele>
        <time>2025-04-26T08:59:57Z</time>
      </trkpt>
      <trkpt lat="43.235328001901507" lon="1.596834026277065">
        <ele>239.50999999999999</ele>
        <time>2025-04-26T09:00:08Z</time>
      </trkpt>
      <trkpt lat="43.236844036728144" lon="1.593367019668222">
        <ele>234.69999999999999</ele>
        <time>2025-04-26T09:00:22Z</time>
      </trkpt>
      <trkpt lat="43.238668022677302" lon="1.589187970384955">
        <ele>232.30000000000001</ele>
        <time>2025-04-26T09:00:39Z</time>
      </trkpt>
      <trkpt lat="43.240327974781394" lon="1.585384011268616">
        <ele>230.84999999999999</ele>
        <time>2025-04-26T09:00:55Z</time>
      </trkpt>
      <trkpt lat="43.241391973569989" lon="1.582963988184929">
        <ele>229.41</ele>
        <time>2025-04-26T09:01:06Z</time>
      </trkpt>
      <trkpt lat="43.242572983726859" lon="1.580275995656848">
        <ele>227.97</ele>
        <time>2025-04-26T09:01:17Z</time>
      </trkpt>
      <trkpt lat="43.243404971435666" lon="1.578400963917375">
        <ele>226.53</ele>
        <time>2025-04-26T09:01:25Z</time>
      </trkpt>
      <trkpt lat="43.245182018727064" lon="1.574834967032075">
        <ele>227.00999999999999</ele>
        <time>2025-04-26T09:01:41Z</time>
      </trkpt>
      <trkpt lat="43.24715101160109" lon="1.571628972887993">
        <ele>228.44999999999999</ele>
        <time>2025-04-26T09:01:56Z</time>
      </trkpt>
      <trkpt lat="43.248980026692152" lon="1.56923501752317">
        <ele>229.88999999999999</ele>
        <time>2025-04-26T09:02:08Z</time>
      </trkpt>
      <trkpt lat="43.250688007101417" lon="1.567330984398723">
        <ele>232.30000000000001</ele>
        <time>2025-04-26T09:02:19Z</time>
      </trkpt>
      <trkpt lat="43.251634994521737" lon="1.566415010020137">
        <ele>233.25999999999999</ele>
        <time>2025-04-26T09:02:27Z</time>
      </trkpt>
      <trkpt lat="43.252560021355748" lon="1.565610012039542">
        <ele>233.25999999999999</ele>
        <time>2025-04-26T09:02:36Z</time>
      </trkpt>
      <trkpt lat="43.252637973055243" lon="1.565548991784453">
        <ele>233.25999999999999</ele>
        <time>2025-04-26T09:02:37Z</time>
      </trkpt>
      <trkpt lat="43.252709973603487" lon="1.565493000671268">
        <ele>233.74000000000001</ele>
        <time>2025-04-26T09:02:38Z</time>
      </trkpt>
      <trkpt lat="43.25286503881216" lon="1.56556298956275">
        <ele>233.25999999999999</ele>
        <time>2025-04-26T09:02:40Z</time>
      </trkpt>
      <trkpt lat="43.252968974411488" lon="1.565508004277945">
        <ele>233.25999999999999</ele>
        <time>2025-04-26T09:02:41Z</time>
      </trkpt>
      <trkpt lat="43.253003004938364" lon="1.565379006788135">
        <ele>233.25999999999999</ele>
        <time>2025-04-26T09:02:42Z</time>
      </trkpt>
      <trkpt lat="43.253003004938364" lon="1.565297031775117">
        <ele>232.78</ele>
        <time>2025-04-26T09:02:43Z</time>
      </trkpt>
      <trkpt lat="43.252967968583107" lon="1.565209021791816">
        <ele>233.25999999999999</ele>
        <time>2025-04-26T09:02:44Z</time>
      </trkpt>
      <trkpt lat="43.252927986904979" lon="1.565157976001501">
        <ele>233.25999999999999</ele>
        <time>2025-04-26T09:02:45Z</time>
      </trkpt>
      <trkpt lat="43.252917006611824" lon="1.565143978223205">
        <ele>233.25999999999999</ele>
        <time>2025-04-26T09:02:46Z</time>
      </trkpt>
      <trkpt lat="43.252917006611824" lon="1.565143978223205">
        <ele>233.25999999999999</ele>
        <time>2025-04-26T09:02:47Z</time>
      </trkpt>
      <trkpt lat="43.25273796916008" lon="1.565027972683311">
        <ele>233.25999999999999</ele>
        <time>2025-04-26T09:02:48Z</time>
      </trkpt>
      <trkpt lat="43.252707961946726" lon="1.564931999891996">
        <ele>232.78</ele>
        <time>2025-04-26T09:02:49Z</time>
      </trkpt>
      <trkpt lat="43.252675021067262" lon="1.564827980473638">
        <ele>232.78</ele>
        <time>2025-04-26T09:02:50Z</time>
      </trkpt>
      <trkpt lat="43.252639984712005" lon="1.564717004075646">
        <ele>232.30000000000001</ele>
        <time>2025-04-26T09:02:51Z</time>
      </trkpt>
      <trkpt lat="43.252604026347399" lon="1.564603010192514">
        <ele>232.30000000000001</ele>
        <time>2025-04-26T09:02:52Z</time>
      </trkpt>
      <trkpt lat="43.252567984163761" lon="1.564488010481">
        <ele>232.78</ele>
        <time>2025-04-26T09:02:53Z</time>
      </trkpt>
      <trkpt lat="43.252434963360429" lon="1.564064975827932">
        <ele>232.30000000000001</ele>
        <time>2025-04-26T09:02:57Z</time>
      </trkpt>
      <trkpt lat="43.252373021095991" lon="1.564059024676681">
        <ele>231.81</ele>
        <time>2025-04-26T09:02:58Z</time>
      </trkpt>
      <trkpt lat="43.252317029982805" lon="1.564091965556145">
        <ele>231.81</ele>
        <time>2025-04-26T09:02:59Z</time>
      </trkpt>
      <trkpt lat="43.252247041091323" lon="1.564133958891034">
        <ele>231.81</ele>
        <time>2025-04-26T09:03:00Z</time>
      </trkpt>
      <trkpt lat="43.252175040543079" lon="1.564177041873336">
        <ele>231.33000000000001</ele>
        <time>2025-04-26T09:03:01Z</time>
      </trkpt>
      <trkpt lat="43.252098010852933" lon="1.564222974702716">
        <ele>231.33000000000001</ele>
        <time>2025-04-26T09:03:02Z</time>
      </trkpt>
      <trkpt lat="43.251393008977175" lon="1.564628994092345">
        <ele>229.88999999999999</ele>
        <time>2025-04-26T09:03:13Z</time>
      </trkpt>
      <trkpt lat="43.251053038984537" lon="1.564720021560788">
        <ele>229.88999999999999</ele>
        <time>2025-04-26T09:03:17Z</time>
      </trkpt>
      <trkpt lat="43.250950025394559" lon="1.564799984917045">
        <ele>229.41</ele>
        <time>2025-04-26T09:03:19Z</time>
      </trkpt>
      <trkpt lat="43.250955976545811" lon="1.564830997958779">
        <ele>229.41</ele>
        <time>2025-04-26T09:03:20Z</time>
      </trkpt>
      <trkpt lat="43.250964023172855" lon="1.564865028485656">
        <ele>228.93000000000001</ele>
        <time>2025-04-26T09:03:21Z</time>
      </trkpt>
      <trkpt lat="43.250964023172855" lon="1.564865028485656">
        <ele>228.93000000000001</ele>
        <time>2025-04-26T09:03:22Z</time>
      </trkpt>
      <trkpt lat="43.250964023172855" lon="1.564865028485656">
        <ele>228.93000000000001</ele>
        <time>2025-04-26T09:03:23Z</time>
      </trkpt>
      <trkpt lat="43.250964023172855" lon="1.564865028485656">
        <ele>228.93000000000001</ele>
        <time>2025-04-26T09:03:24Z</time>
      </trkpt>
      <trkpt lat="43.251037029549479" lon="1.565243974328041">
        <ele>228.44999999999999</ele>
        <time>2025-04-26T09:03:31Z</time>
      </trkpt>
      <trkpt lat="43.250952959060669" lon="1.565321004018188">
        <ele>227.49000000000001</ele>
        <time>2025-04-26T09:03:35Z</time>
      </trkpt>
      <trkpt lat="43.250725977122784" lon="1.565442038699985">
        <ele>227.00999999999999</ele>
        <time>2025-04-26T09:03:47Z</time>
      </trkpt>
      <trkpt lat="43.25071600265801" lon="1.565501969307661">
        <ele>227.97</ele>
        <time>2025-04-26T09:03:52Z</time>
      </trkpt>
      <trkpt lat="43.250724971294403" lon="1.565539017319679">
        <ele>227.97</ele>
        <time>2025-04-26T09:03:53Z</time>
      </trkpt>
      <trkpt lat="43.250733017921448" lon="1.565569024533033">
        <ele>228.44999999999999</ele>
        <time>2025-04-26T09:03:54Z</time>
      </trkpt>
      <trkpt lat="43.250754978507757" lon="1.565641025081277">
        <ele>228.44999999999999</ele>
        <time>2025-04-26T09:04:03Z</time>
      </trkpt>
      <trkpt lat="43.25076000764966" lon="1.565658040344715">
        <ele>228.44999999999999</ele>
        <time>2025-04-26T09:04:04Z</time>
      </trkpt>
      <trkpt lat="43.250765958800912" lon="1.565677989274263">
        <ele>228.44999999999999</ele>
        <time>2025-04-26T09:04:05Z</time>
      </trkpt>
      <trkpt lat="43.250772999599576" lon="1.565700033679605">
        <ele>227.97</ele>
        <time>2025-04-26T09:04:06Z</time>
      </trkpt>
      <trkpt lat="43.250793032348156" lon="1.565765999257565">
        <ele>227.97</ele>
        <time>2025-04-26T09:04:07Z</time>
      </trkpt>
      <trkpt lat="43.250793032348156" lon="1.565765999257565">
        <ele>227.97</ele>
        <time>2025-04-26T09:04:08Z</time>
      </trkpt>
      <trkpt lat="43.250793032348156" lon="1.565765999257565">
        <ele>227.49000000000001</ele>
        <time>2025-04-26T09:04:21Z</time>
      </trkpt>
      <trkpt lat="43.250789009034634" lon="1.565965991467238">
        <ele>228.44999999999999</ele>
        <time>2025-04-26T09:04:43Z</time>
      </trkpt>
      <trkpt lat="43.250776017084718" lon="1.565974038094282">
        <ele>228.93000000000001</ele>
        <time>2025-04-26T09:04:44Z</time>
      </trkpt>
      <trkpt lat="43.250757995992899" lon="1.565984012559056">
        <ele>228.44999999999999</ele>
        <time>2025-04-26T09:04:45Z</time>
      </trkpt>
      <trkpt lat="43.25073603540659" lon="1.565998010337353">
        <ele>228.44999999999999</ele>
        <time>2025-04-26T09:04:46Z</time>
      </trkpt>
      <trkpt lat="43.25071700848639" lon="1.566008990630508">
        <ele>227.97</ele>
        <time>2025-04-26T09:04:47Z</time>
      </trkpt>
      <trkpt lat="43.250821027904749" lon="1.565879993140698">
        <ele>227.49000000000001</ele>
        <time>2025-04-26T09:04:48Z</time>
      </trkpt>
      <trkpt lat="43.25082597322762" lon="1.565900025889278">
        <ele>227.00999999999999</ele>
        <time>2025-04-26T09:04:49Z</time>
      </trkpt>
      <trkpt lat="43.250765958800912" lon="1.565979989245534">
        <ele>227.00999999999999</ele>
        <time>2025-04-26T09:04:50Z</time>
      </trkpt>
      <trkpt lat="43.250792026519775" lon="1.565963979810476">
        <ele>227.00999999999999</ele>
        <time>2025-04-26T09:04:51Z</time>
      </trkpt>
      <trkpt lat="43.250827984884381" lon="1.565942019224167">
        <ele>227.00999999999999</ele>
        <time>2025-04-26T09:04:52Z</time>
      </trkpt>
      <trkpt lat="43.250807030126452" lon="1.565826013684273">
        <ele>227.00999999999999</ele>
        <time>2025-04-26T09:04:53Z</time>
      </trkpt>
      <trkpt lat="43.250794960185885" lon="1.565774967893958">
        <ele>227.00999999999999</ele>
        <time>2025-04-26T09:04:54Z</time>
      </trkpt>
      <trkpt lat="43.250780962407589" lon="1.565729035064578">
        <ele>227.00999999999999</ele>
        <time>2025-04-26T09:04:55Z</time>
      </trkpt>
      <trkpt lat="43.250694964081049" lon="1.565417982637882">
        <ele>226.53</ele>
        <time>2025-04-26T09:05:04Z</time>
      </trkpt>
      <trkpt lat="43.250616006553173" lon="1.565117994323373">
        <ele>225.56999999999999</ele>
        <time>2025-04-26T09:05:15Z</time>
      </trkpt>
      <trkpt lat="43.250594967976213" lon="1.56504699960351">
        <ele>225.56999999999999</ele>
        <time>2025-04-26T09:05:16Z</time>
      </trkpt>
      <trkpt lat="43.25056697241962" lon="1.564971981570125">
        <ele>225.56999999999999</ele>
        <time>2025-04-26T09:05:17Z</time>
      </trkpt>
      <trkpt lat="43.250512992963195" lon="1.564821023494005">
        <ele>225.56999999999999</ele>
        <time>2025-04-26T09:05:19Z</time>
      </trkpt>
      <trkpt lat="43.250490026548505" lon="1.564752040430903">
        <ele>225.56999999999999</ele>
        <time>2025-04-26T09:05:20Z</time>
      </trkpt>
      <trkpt lat="43.250473011285067" lon="1.564699988812208">
        <ele>225.09</ele>
        <time>2025-04-26T09:05:21Z</time>
      </trkpt>
      <trkpt lat="43.250512992963195" lon="1.564669981598854">
        <ele>225.09</ele>
        <time>2025-04-26T09:05:22Z</time>
      </trkpt>
      <trkpt lat="43.250536965206265" lon="1.564655983820558">
        <ele>225.09</ele>
        <time>2025-04-26T09:05:23Z</time>
      </trkpt>
      <trkpt lat="43.25056403875351" lon="1.564640980213881">
        <ele>225.09</ele>
        <time>2025-04-26T09:05:24Z</time>
      </trkpt>
      <trkpt lat="43.250597985461354" lon="1.564622959122062">
        <ele>225.09</ele>
        <time>2025-04-26T09:05:25Z</time>
      </trkpt>
      <trkpt lat="43.250632015988231" lon="1.564604016020894">
        <ele>225.09</ele>
        <time>2025-04-26T09:05:26Z</time>
      </trkpt>
      <trkpt lat="43.250668980181217" lon="1.564582977443934">
        <ele>225.56999999999999</ele>
        <time>2025-04-26T09:05:27Z</time>
      </trkpt>
      <trkpt lat="43.250708039849997" lon="1.564562022686005">
        <ele>225.56999999999999</ele>
        <time>2025-04-26T09:05:28Z</time>
      </trkpt>
      <trkpt lat="43.250823961570859" lon="1.564496979117394">
        <ele>226.05000000000001</ele>
        <time>2025-04-26T09:05:31Z</time>
      </trkpt>
      <trkpt lat="43.250856986269355" lon="1.564479041844606">
        <ele>226.05000000000001</ele>
        <time>2025-04-26T09:05:32Z</time>
      </trkpt>
      <trkpt lat="43.250896967947483" lon="1.564453979954124">
        <ele>226.53</ele>
        <time>2025-04-26T09:05:33Z</time>
      </trkpt>
      <trkpt lat="43.251098971813917" lon="1.564325988292694">
        <ele>227.49000000000001</ele>
        <time>2025-04-26T09:05:38Z</time>
      </trkpt>
      <trkpt lat="43.251286977902055" lon="1.564277037978172">
        <ele>228.44999999999999</ele>
        <time>2025-04-26T09:05:43Z</time>
      </trkpt>
      <trkpt lat="43.251304998993874" lon="1.564321964979172">
        <ele>228.44999999999999</ele>
        <time>2025-04-26T09:05:44Z</time>
      </trkpt>
      <trkpt lat="43.251325031742454" lon="1.564370999112725">
        <ele>228.93000000000001</ele>
        <time>2025-04-26T09:05:45Z</time>
      </trkpt>
      <trkpt lat="43.25136199593544" lon="1.564490022137761">
        <ele>229.41</ele>
        <time>2025-04-26T09:05:54Z</time>
      </trkpt>
      <trkpt lat="43.251438019797206" lon="1.56459404155612">
        <ele>229.41</ele>
        <time>2025-04-26T09:05:57Z</time>
      </trkpt>
      <trkpt lat="43.251500967890024" lon="1.564542995765805">
        <ele>229.41</ele>
        <time>2025-04-26T09:05:58Z</time>
      </trkpt>
      <trkpt lat="43.25151395983994" lon="1.564535032957792">
        <ele>229.41</ele>
        <time>2025-04-26T09:05:59Z</time>
      </trkpt>
      <trkpt lat="43.252121983096004" lon="1.564208976924419">
        <ele>229.88999999999999</ele>
        <time>2025-04-26T09:06:08Z</time>
      </trkpt>
      <trkpt lat="43.252318035811186" lon="1.564090959727764">
        <ele>230.37</ele>
        <time>2025-04-26T09:06:11Z</time>
      </trkpt>
      <trkpt lat="43.252372015267611" lon="1.564059024676681">
        <ele>230.37</ele>
        <time>2025-04-26T09:06:12Z</time>
      </trkpt>
      <trkpt lat="43.252450972795486" lon="1.564117027446628">
        <ele>230.37</ele>
        <time>2025-04-26T09:06:13Z</time>
      </trkpt>
      <trkpt lat="43.252478968352079" lon="1.564204031601548">
        <ele>230.37</ele>
        <time>2025-04-26T09:06:14Z</time>
      </trkpt>
      <trkpt lat="43.252512998878956" lon="1.564312996342778">
        <ele>230.37</ele>
        <time>2025-04-26T09:06:15Z</time>
      </trkpt>
      <trkpt lat="43.252552980557084" lon="1.564439982175827">
        <ele>230.37</ele>
        <time>2025-04-26T09:06:16Z</time>
      </trkpt>
      <trkpt lat="43.252745009958744" lon="1.56541203148663">
        <ele>230.37</ele>
        <time>2025-04-26T09:06:24Z</time>
      </trkpt>
      <trkpt lat="43.252785997465253" lon="1.56551999039948">
        <ele>230.37</ele>
        <time>2025-04-26T09:06:25Z</time>
      </trkpt>
      <trkpt lat="43.252851963043213" lon="1.565559972077608">
        <ele>230.37</ele>
        <time>2025-04-26T09:06:26Z</time>
      </trkpt>
      <trkpt lat="43.252914994955063" lon="1.565572964027524">
        <ele>230.37</ele>
        <time>2025-04-26T09:06:27Z</time>
      </trkpt>
      <trkpt lat="43.252970986068249" lon="1.565504986792803">
        <ele>230.37</ele>
        <time>2025-04-26T09:06:28Z</time>
      </trkpt>
      <trkpt lat="43.253003004938364" lon="1.565466010943055">
        <ele>230.37</ele>
        <time>2025-04-26T09:06:29Z</time>
      </trkpt>
      <trkpt lat="43.253022031858563" lon="1.565232994034886">
        <ele>230.84999999999999</ele>
        <time>2025-04-26T09:06:30Z</time>
      </trkpt>
      <trkpt lat="43.253104006871581" lon="1.56515596434474">
        <ele>230.37</ele>
        <time>2025-04-26T09:06:31Z</time>
      </trkpt>
      <trkpt lat="43.253197968006134" lon="1.565068960189819">
        <ele>230.37</ele>
        <time>2025-04-26T09:06:32Z</time>
      </trkpt>
      <trkpt lat="43.253301987424493" lon="1.564971981570125">
        <ele>229.88999999999999</ele>
        <time>2025-04-26T09:06:33Z</time>
      </trkpt>
      <trkpt lat="43.253422016277909" lon="1.564876008778811">
        <ele>229.88999999999999</ele>
        <time>2025-04-26T09:06:34Z</time>
      </trkpt>
      <trkpt lat="43.25449800118804" lon="1.564039997756481">
        <ele>228.44999999999999</ele>
        <time>2025-04-26T09:06:41Z</time>
      </trkpt>
      <trkpt lat="43.256630022078753" lon="1.562371999025345">
        <ele>227.00999999999999</ele>
        <time>2025-04-26T09:06:52Z</time>
      </trkpt>
      <trkpt lat="43.259318014606833" lon="1.560266967862845">
        <ele>225.56999999999999</ele>
        <time>2025-04-26T09:07:06Z</time>
      </trkpt>
      <trkpt lat="43.262502970173955" lon="1.557797994464636">
        <ele>223.63999999999999</ele>
        <time>2025-04-26T09:07:23Z</time>
      </trkpt>
      <trkpt lat="43.264864990487695" lon="1.555941989645362">
        <ele>223.16</ele>
        <time>2025-04-26T09:07:36Z</time>
      </trkpt>
      <trkpt lat="43.267769990488887" lon="1.553677031770349">
        <ele>221.24000000000001</ele>
        <time>2025-04-26T09:07:52Z</time>
      </trkpt>
      <trkpt lat="43.270899960771203" lon="1.551264971494675">
        <ele>219.80000000000001</ele>
        <time>2025-04-26T09:08:09Z</time>
      </trkpt>
      <trkpt lat="43.274026997387409" lon="1.548832040280104">
        <ele>218.84</ele>
        <time>2025-04-26T09:08:26Z</time>
      </trkpt>
      <trkpt lat="43.27699301764369" lon="1.546530034393072">
        <ele>217.88</ele>
        <time>2025-04-26T09:08:42Z</time>
      </trkpt>
      <trkpt lat="43.280491037294269" lon="1.54379996471107">
        <ele>215.94999999999999</ele>
        <time>2025-04-26T09:09:01Z</time>
      </trkpt>
      <trkpt lat="43.282154006883502" lon="1.542624989524484">
        <ele>214.99000000000001</ele>
        <time>2025-04-26T09:09:11Z</time>
      </trkpt>
      <trkpt lat="43.283700970932841" lon="1.541570965200663">
        <ele>214.03</ele>
        <time>2025-04-26T09:09:22Z</time>
      </trkpt>
      <trkpt lat="43.285189010202885" lon="1.540192980319262">
        <ele>213.55000000000001</ele>
        <time>2025-04-26T09:09:32Z</time>
      </trkpt>
      <trkpt lat="43.287725960835814" lon="1.538196997717023">
        <ele>212.59</ele>
        <time>2025-04-26T09:09:47Z</time>
      </trkpt>
      <trkpt lat="43.290789965540171" lon="1.535830032080412">
        <ele>211.15000000000001</ele>
        <time>2025-04-26T09:10:04Z</time>
      </trkpt>
      <trkpt lat="43.292490988969803" lon="1.534160021692514">
        <ele>210.19</ele>
        <time>2025-04-26T09:10:14Z</time>
      </trkpt>
      <trkpt lat="43.294935990124941" lon="1.531550986692309">
        <ele>208.74000000000001</ele>
        <time>2025-04-26T09:10:29Z</time>
      </trkpt>
      <trkpt lat="43.297365987673402" lon="1.528959972783923">
        <ele>208.74000000000001</ele>
        <time>2025-04-26T09:10:44Z</time>
      </trkpt>
      <trkpt lat="43.297841995954514" lon="1.52845898643136">
        <ele>208.74000000000001</ele>
        <time>2025-04-26T09:10:47Z</time>
      </trkpt>
      <trkpt lat="43.298002006486058" lon="1.528298975899816">
        <ele>208.74000000000001</ele>
        <time>2025-04-26T09:10:48Z</time>
      </trkpt>
      <trkpt lat="43.300451030954719" lon="1.525589022785425">
        <ele>206.81999999999999</ele>
        <time>2025-04-26T09:11:03Z</time>
      </trkpt>
      <trkpt lat="43.302791006863117" lon="1.523145027458668">
        <ele>205.86000000000001</ele>
        <time>2025-04-26T09:11:17Z</time>
      </trkpt>
      <trkpt lat="43.304157005622983" lon="1.522093014791608">
        <ele>205.86000000000001</ele>
        <time>2025-04-26T09:11:25Z</time>
      </trkpt>
      <trkpt lat="43.305391995236278" lon="1.521273013204336">
        <ele>204.90000000000001</ele>
        <time>2025-04-26T09:11:34Z</time>
      </trkpt>
      <trkpt lat="43.305629035457969" lon="1.521206963807344">
        <ele>204.41999999999999</ele>
        <time>2025-04-26T09:11:36Z</time>
      </trkpt>
      <trkpt lat="43.305734982714057" lon="1.521190032362938">
        <ele>204.41999999999999</ele>
        <time>2025-04-26T09:11:37Z</time>
      </trkpt>
      <trkpt lat="43.305834978818893" lon="1.521177962422371">
        <ele>204.41999999999999</ele>
        <time>2025-04-26T09:11:38Z</time>
      </trkpt>
      <trkpt lat="43.305930029600859" lon="1.521166982129216">
        <ele>204.41999999999999</ele>
        <time>2025-04-26T09:11:39Z</time>
      </trkpt>
      <trkpt lat="43.306018961593509" lon="1.521157007664442">
        <ele>204.41999999999999</ele>
        <time>2025-04-26T09:11:40Z</time>
      </trkpt>
      <trkpt lat="43.306090962141752" lon="1.521287010982633">
        <ele>204.90000000000001</ele>
        <time>2025-04-26T09:11:41Z</time>
      </trkpt>
      <trkpt lat="43.306162962689996" lon="1.521358005702496">
        <ele>204.90000000000001</ele>
        <time>2025-04-26T09:11:42Z</time>
      </trkpt>
      <trkpt lat="43.306262036785483" lon="1.521399999037385">
        <ele>204.90000000000001</ele>
        <time>2025-04-26T09:11:43Z</time>
      </trkpt>
      <trkpt lat="43.306369995698333" lon="1.52141198515892">
        <ele>204.90000000000001</ele>
        <time>2025-04-26T09:11:44Z</time>
      </trkpt>
      <trkpt lat="43.306445013731718" lon="1.521366974338889">
        <ele>204.90000000000001</ele>
        <time>2025-04-26T09:11:45Z</time>
      </trkpt>
      <trkpt lat="43.306522965431213" lon="1.521253986284137">
        <ele>204.90000000000001</ele>
        <time>2025-04-26T09:11:46Z</time>
      </trkpt>
      <trkpt lat="43.306561019271612" lon="1.521107973530889">
        <ele>204.41999999999999</ele>
        <time>2025-04-26T09:11:47Z</time>
      </trkpt>
      <trkpt lat="43.306561019271612" lon="1.520986016839743">
        <ele>204.41999999999999</ele>
        <time>2025-04-26T09:11:48Z</time>
      </trkpt>
      <trkpt lat="43.306561019271612" lon="1.520855007693172">
        <ele>203.94</ele>
        <time>2025-04-26T09:11:49Z</time>
      </trkpt>
      <trkpt lat="43.306561019271612" lon="1.520855007693172">
        <ele>203.94</ele>
        <time>2025-04-26T09:11:50Z</time>
      </trkpt>
      <trkpt lat="43.306495975703001" lon="1.520501961931586">
        <ele>203.46000000000001</ele>
        <time>2025-04-26T09:11:51Z</time>
      </trkpt>
      <trkpt lat="43.306565964594483" lon="1.520349998027086">
        <ele>203.46000000000001</ele>
        <time>2025-04-26T09:11:52Z</time>
      </trkpt>
      <trkpt lat="43.306638970971107" lon="1.520175989717245">
        <ele>202.97999999999999</ele>
        <time>2025-04-26T09:11:53Z</time>
      </trkpt>
      <trkpt lat="43.306718012318015" lon="1.519991001114249">
        <ele>202.97999999999999</ele>
        <time>2025-04-26T09:11:54Z</time>
      </trkpt>
      <trkpt lat="43.307456038892269" lon="1.518239015713334">
        <ele>202.49000000000001</ele>
        <time>2025-04-26T09:12:02Z</time>
      </trkpt>
      <trkpt lat="43.308508973568678" lon="1.516207996755838">
        <ele>202.97999999999999</ele>
        <time>2025-04-26T09:12:11Z</time>
      </trkpt>
      <trkpt lat="43.309734994545579" lon="1.514442013576627">
        <ele>201.53</ele>
        <time>2025-04-26T09:12:21Z</time>
      </trkpt>
      <trkpt lat="43.310277974233031" lon="1.513655036687851">
        <ele>201.05000000000001</ele>
        <time>2025-04-26T09:12:28Z</time>
      </trkpt>
      <trkpt lat="43.310707965865731" lon="1.513115996494889">
        <ele>202.00999999999999</ele>
        <time>2025-04-26T09:12:33Z</time>
      </trkpt>
      <trkpt lat="43.311773976311088" lon="1.512122992426157">
        <ele>202.49000000000001</ele>
        <time>2025-04-26T09:12:44Z</time>
      </trkpt>
      <trkpt lat="43.312656003981829" lon="1.511006020009518">
        <ele>203.46000000000001</ele>
        <time>2025-04-26T09:12:54Z</time>
      </trkpt>
      <trkpt lat="43.313266960904002" lon="1.510060038417578">
        <ele>201.05000000000001</ele>
        <time>2025-04-26T09:13:02Z</time>
      </trkpt>
      <trkpt lat="43.314447971060872" lon="1.50823999196291">
        <ele>201.53</ele>
        <time>2025-04-26T09:13:17Z</time>
      </trkpt>
      <trkpt lat="43.315236959606409" lon="1.506917998194695">
        <ele>202.00999999999999</ele>
        <time>2025-04-26T09:13:25Z</time>
      </trkpt>
      <trkpt lat="43.316502962261438" lon="1.505288975313306">
        <ele>202.00999999999999</ele>
        <time>2025-04-26T09:13:34Z</time>
      </trkpt>
      <trkpt lat="43.318340023979545" lon="1.503355018794537">
        <ele>202.97999999999999</ele>
        <time>2025-04-26T09:13:45Z</time>
      </trkpt>
      <trkpt lat="43.319914983585477" lon="1.5014089923352">
        <ele>203.94</ele>
        <time>2025-04-26T09:13:56Z</time>
      </trkpt>
      <trkpt lat="43.321428000926971" lon="1.499448968097568">
        <ele>203.94</ele>
        <time>2025-04-26T09:14:07Z</time>
      </trkpt>
      <trkpt lat="43.323352988809347" lon="1.497306972742081">
        <ele>203.46000000000001</ele>
        <time>2025-04-26T09:14:20Z</time>
      </trkpt>
      <trkpt lat="43.325053006410599" lon="1.495430013164878">
        <ele>202.49000000000001</ele>
        <time>2025-04-26T09:14:32Z</time>
      </trkpt>
      <trkpt lat="43.327461965382099" lon="1.492760963737965">
        <ele>201.53</ele>
        <time>2025-04-26T09:14:48Z</time>
      </trkpt>
      <trkpt lat="43.330156998708844" lon="1.489754961803556">
        <ele>200.09</ele>
        <time>2025-04-26T09:15:06Z</time>
      </trkpt>
      <trkpt lat="43.331435993313789" lon="1.488306988030672">
        <ele>198.65000000000001</ele>
        <time>2025-04-26T09:15:15Z</time>
      </trkpt>
      <trkpt lat="43.332886984571815" lon="1.486661033704877">
        <ele>197.21000000000001</ele>
        <time>2025-04-26T09:15:25Z</time>
      </trkpt>
      <trkpt lat="43.334528999403119" lon="1.485124966129661">
        <ele>194.80000000000001</ele>
        <time>2025-04-26T09:15:36Z</time>
      </trkpt>
      <trkpt lat="43.335194019600749" lon="1.484200023114681">
        <ele>193.84</ele>
        <time>2025-04-26T09:15:43Z</time>
      </trkpt>
      <trkpt lat="43.335612025111914" lon="1.483458979055286">
        <ele>193.84</ele>
        <time>2025-04-26T09:15:49Z</time>
      </trkpt>
      <trkpt lat="43.335683019831777" lon="1.483336016535759">
        <ele>193.84</ele>
        <time>2025-04-26T09:15:50Z</time>
      </trkpt>
      <trkpt lat="43.336537973955274" lon="1.481829034164548">
        <ele>193.84</ele>
        <time>2025-04-26T09:16:02Z</time>
      </trkpt>
      <trkpt lat="43.336611986160278" lon="1.481699030846357">
        <ele>193.84</ele>
        <time>2025-04-26T09:16:03Z</time>
      </trkpt>
      <trkpt lat="43.337694006040692" lon="1.480104960501194">
        <ele>192.88</ele>
        <time>2025-04-26T09:16:18Z</time>
      </trkpt>
      <trkpt lat="43.337747985497117" lon="1.480055004358292">
        <ele>192.88</ele>
        <time>2025-04-26T09:16:19Z</time>
      </trkpt>
      <trkpt lat="43.337903972715139" lon="1.479931036010385">
        <ele>192.40000000000001</ele>
        <time>2025-04-26T09:16:22Z</time>
      </trkpt>
      <trkpt lat="43.337961975485086" lon="1.479885019361973">
        <ele>192.40000000000001</ele>
        <time>2025-04-26T09:16:23Z</time>
      </trkpt>
      <trkpt lat="43.338151993229985" lon="1.479736994951963">
        <ele>191.91999999999999</ele>
        <time>2025-04-26T09:16:26Z</time>
      </trkpt>
      <trkpt lat="43.338214019313455" lon="1.47968796081841">
        <ele>191.91999999999999</ele>
        <time>2025-04-26T09:16:27Z</time>
      </trkpt>
      <trkpt lat="43.338839979842305" lon="1.479202983900905">
        <ele>190.96000000000001</ele>
        <time>2025-04-26T09:16:36Z</time>
      </trkpt>
      <trkpt lat="43.339776992797852" lon="1.478540981188417">
        <ele>190</ele>
        <time>2025-04-26T09:16:47Z</time>
      </trkpt>
      <trkpt lat="43.341118013486266" lon="1.477512018755078">
        <ele>187.59</ele>
        <time>2025-04-26T09:17:01Z</time>
      </trkpt>
      <trkpt lat="43.34168597124517" lon="1.477075992152095">
        <ele>186.63</ele>
        <time>2025-04-26T09:17:07Z</time>
      </trkpt>
      <trkpt lat="43.341932985931635" lon="1.476891003549099">
        <ele>186.15000000000001</ele>
        <time>2025-04-26T09:17:10Z</time>
      </trkpt>
      <trkpt lat="43.34202996455133" lon="1.47682998329401">
        <ele>185.66999999999999</ele>
        <time>2025-04-26T09:17:11Z</time>
      </trkpt>
      <trkpt lat="43.34295398555696" lon="1.476167980581522">
        <ele>187.11000000000001</ele>
        <time>2025-04-26T09:17:20Z</time>
      </trkpt>
      <trkpt lat="43.343292027711868" lon="1.475924989208579">
        <ele>187.59</ele>
        <time>2025-04-26T09:17:24Z</time>
      </trkpt>
      <trkpt lat="43.34340400993824" lon="1.475965976715088">
        <ele>187.59</ele>
        <time>2025-04-26T09:17:25Z</time>
      </trkpt>
      <trkpt lat="43.343476010486484" lon="1.475948039442301">
        <ele>187.59</ele>
        <time>2025-04-26T09:17:26Z</time>
      </trkpt>
      <trkpt lat="43.343554968014359" lon="1.475928006693721">
        <ele>188.08000000000001</ele>
        <time>2025-04-26T09:17:27Z</time>
      </trkpt>
      <trkpt lat="43.343596961349249" lon="1.475708987563849">
        <ele>188.08000000000001</ele>
        <time>2025-04-26T09:17:28Z</time>
      </trkpt>
      <trkpt lat="43.343660999089479" lon="1.475656013935804">
        <ele>187.59</ele>
        <time>2025-04-26T09:17:29Z</time>
      </trkpt>
      <trkpt lat="43.343739034608006" lon="1.475591976195574">
        <ele>187.59</ele>
        <time>2025-04-26T09:17:30Z</time>
      </trkpt>
      <trkpt lat="43.343821009621024" lon="1.475523998960853">
        <ele>187.59</ele>
        <time>2025-04-26T09:17:31Z</time>
      </trkpt>
      <trkpt lat="43.343906002119184" lon="1.47545401006937">
        <ele>187.59</ele>
        <time>2025-04-26T09:17:32Z</time>
      </trkpt>
      <trkpt lat="43.345251968130469" lon="1.474467040970922">
        <ele>187.11000000000001</ele>
        <time>2025-04-26T09:17:46Z</time>
      </trkpt>
      <trkpt lat="43.346730032935739" lon="1.473349984735251">
        <ele>186.63</ele>
        <time>2025-04-26T09:18:01Z</time>
      </trkpt>
      <trkpt lat="43.347034966573119" lon="1.473128031939268">
        <ele>186.15000000000001</ele>
        <time>2025-04-26T09:18:07Z</time>
      </trkpt>
      <trkpt lat="43.347116019576788" lon="1.473069023340941">
        <ele>185.66999999999999</ele>
        <time>2025-04-26T09:18:09Z</time>
      </trkpt>
      <trkpt lat="43.347116019576788" lon="1.473069023340941">
        <ele>185.66999999999999</ele>
        <time>2025-04-26T09:18:10Z</time>
      </trkpt>
      <trkpt lat="43.347116019576788" lon="1.473069023340941">
        <ele>185.66999999999999</ele>
        <time>2025-04-26T09:18:11Z</time>
      </trkpt>
      <trkpt lat="43.34711903706193" lon="1.473051002249122">
        <ele>185.66999999999999</ele>
        <time>2025-04-26T09:18:12Z</time>
      </trkpt>
      <trkpt lat="43.34712297655642" lon="1.473029041662812">
        <ele>185.66999999999999</ele>
        <time>2025-04-26T09:18:13Z</time>
      </trkpt>
      <trkpt lat="43.347125994041562" lon="1.473009008914232">
        <ele>185.19</ele>
        <time>2025-04-26T09:18:14Z</time>
      </trkpt>
      <trkpt lat="43.347129011526704" lon="1.472994005307555">
        <ele>185.19</ele>
        <time>2025-04-26T09:18:15Z</time>
      </trkpt>
      <trkpt lat="43.347129011526704" lon="1.472994005307555">
        <ele>185.19</ele>
        <time>2025-04-26T09:18:33Z</time>
      </trkpt>
      <trkpt lat="43.347129011526704" lon="1.472994005307555">
        <ele>185.19</ele>
        <time>2025-04-26T09:18:58Z</time>
      </trkpt>
      <trkpt lat="43.347136974334717" lon="1.472940025851131">
        <ele>185.19</ele>
        <time>2025-04-26T09:18:59Z</time>
      </trkpt>
      <trkpt lat="43.347136974334717" lon="1.472940025851131">
        <ele>184.71000000000001</ele>
        <time>2025-04-26T09:19:00Z</time>
      </trkpt>
      <trkpt lat="43.347148960456252" lon="1.472931979224086">
        <ele>184.22999999999999</ele>
        <time>2025-04-26T09:19:01Z</time>
      </trkpt>
      <trkpt lat="43.347167987376451" lon="1.472915969789028">
        <ele>184.22999999999999</ele>
        <time>2025-04-26T09:19:02Z</time>
      </trkpt>
      <trkpt lat="43.347245017066598" lon="1.472855033352971">
        <ele>181.83000000000001</ele>
        <time>2025-04-26T09:19:15Z</time>
      </trkpt>
      <trkpt lat="43.347245017066598" lon="1.472855033352971">
        <ele>180.87</ele>
        <time>2025-04-26T09:19:27Z</time>
      </trkpt>
      <trkpt lat="43.347136974334717" lon="1.472940025851131">
        <ele>179.90000000000001</ele>
        <time>2025-04-26T09:19:30Z</time>
      </trkpt>
      <trkpt lat="43.347269995138049" lon="1.472772974520922">
        <ele>180.38</ele>
        <time>2025-04-26T09:46:50Z</time>
      </trkpt>
      <trkpt lat="43.347218027338386" lon="1.472728969529271">
        <ele>185.66999999999999</ele>
        <time>2025-04-26T09:47:07Z</time>
      </trkpt>
      <trkpt lat="43.347245017066598" lon="1.472855033352971">
        <ele>185.66999999999999</ele>
        <time>2025-04-26T09:47:09Z</time>
      </trkpt>
      <trkpt lat="43.347128005698323" lon="1.472998028621078">
        <ele>185.66999999999999</ele>
        <time>2025-04-26T09:47:18Z</time>
      </trkpt>
      <trkpt lat="43.347123982384801" lon="1.473023006692529">
        <ele>185.66999999999999</ele>
        <time>2025-04-26T09:47:19Z</time>
      </trkpt>
      <trkpt lat="43.347129011526704" lon="1.473058965057135">
        <ele>185.66999999999999</ele>
        <time>2025-04-26T09:47:23Z</time>
      </trkpt>
      <trkpt lat="43.347148960456252" lon="1.473043039441109">
        <ele>185.66999999999999</ele>
        <time>2025-04-26T09:47:24Z</time>
      </trkpt>
      <trkpt lat="43.347187014296651" lon="1.473013032227755">
        <ele>185.19</ele>
        <time>2025-04-26T09:47:25Z</time>
      </trkpt>
      <trkpt lat="43.347232025116682" lon="1.472976990044117">
        <ele>184.71000000000001</ele>
        <time>2025-04-26T09:47:26Z</time>
      </trkpt>
      <trkpt lat="43.347279969602823" lon="1.472938014194369">
        <ele>184.22999999999999</ele>
        <time>2025-04-26T09:47:27Z</time>
      </trkpt>
      <trkpt lat="43.34795999340713" lon="1.472486983984709">
        <ele>181.83000000000001</ele>
        <time>2025-04-26T09:47:38Z</time>
      </trkpt>
      <trkpt lat="43.348596012219787" lon="1.471996977925301">
        <ele>181.34999999999999</ele>
        <time>2025-04-26T09:47:48Z</time>
      </trkpt>
      <trkpt lat="43.348677987232804" lon="1.471932018175721">
        <ele>181.34999999999999</ele>
        <time>2025-04-26T09:47:50Z</time>
      </trkpt>
      <trkpt lat="43.348850989714265" lon="1.471792962402105">
        <ele>181.34999999999999</ele>
        <time>2025-04-26T09:47:55Z</time>
      </trkpt>
      <trkpt lat="43.348882002756" lon="1.471767984330654">
        <ele>181.34999999999999</ele>
        <time>2025-04-26T09:47:56Z</time>
      </trkpt>
      <trkpt lat="43.348916033282876" lon="1.471740994602442">
        <ele>180.87</ele>
        <time>2025-04-26T09:47:57Z</time>
      </trkpt>
      <trkpt lat="43.348951991647482" lon="1.471711993217468">
        <ele>181.34999999999999</ele>
        <time>2025-04-26T09:47:58Z</time>
      </trkpt>
      <trkpt lat="43.348994990810752" lon="1.471677040681243">
        <ele>180.87</ele>
        <time>2025-04-26T09:47:59Z</time>
      </trkpt>
      <trkpt lat="43.349040001630783" lon="1.471643010154367">
        <ele>180.87</ele>
        <time>2025-04-26T09:48:00Z</time>
      </trkpt>
      <trkpt lat="43.349447026848793" lon="1.471337992697954">
        <ele>182.31</ele>
        <time>2025-04-26T09:48:09Z</time>
      </trkpt>
      <trkpt lat="43.349764030426741" lon="1.471132971346378">
        <ele>182.31</ele>
        <time>2025-04-26T09:48:13Z</time>
      </trkpt>
      <trkpt lat="43.349843993782997" lon="1.471085026860237">
        <ele>182.31</ele>
        <time>2025-04-26T09:48:14Z</time>
      </trkpt>
      <trkpt lat="43.349915994331241" lon="1.471042027696967">
        <ele>182.31</ele>
        <time>2025-04-26T09:48:15Z</time>
      </trkpt>
      <trkpt lat="43.350039040669799" lon="1.470968015491962">
        <ele>182.78999999999999</ele>
        <time>2025-04-26T09:48:17Z</time>
      </trkpt>
      <trkpt lat="43.350095031782985" lon="1.470933984965086">
        <ele>182.78999999999999</ele>
        <time>2025-04-26T09:48:18Z</time>
      </trkpt>
      <trkpt lat="43.350339028984308" lon="1.470788978040218">
        <ele>183.75</ele>
        <time>2025-04-26T09:48:22Z</time>
      </trkpt>
      <trkpt lat="43.350402982905507" lon="1.470751008018851">
        <ele>183.75</ele>
        <time>2025-04-26T09:48:23Z</time>
      </trkpt>
      <trkpt lat="43.350466014817357" lon="1.470713960006833">
        <ele>183.75</ele>
        <time>2025-04-26T09:48:24Z</time>
      </trkpt>
      <trkpt lat="43.350929031148553" lon="1.470454037189484">
        <ele>181.83000000000001</ele>
        <time>2025-04-26T09:48:34Z</time>
      </trkpt>
      <trkpt lat="43.351218039169908" lon="1.47029503248632">
        <ele>180.38</ele>
        <time>2025-04-26T09:48:41Z</time>
      </trkpt>
      <trkpt lat="43.351218039169908" lon="1.47029503248632">
        <ele>180.38</ele>
        <time>2025-04-26T09:48:50Z</time>
      </trkpt>
      <trkpt lat="43.351407973095775" lon="1.470171986147761">
        <ele>179.90000000000001</ele>
        <time>2025-04-26T09:49:19Z</time>
      </trkpt>
      <trkpt lat="43.351485002785921" lon="1.470128986984491">
        <ele>179.90000000000001</ele>
        <time>2025-04-26T09:49:27Z</time>
      </trkpt>
      <trkpt lat="43.351549962535501" lon="1.470002001151443">
        <ele>179.90000000000001</ele>
        <time>2025-04-26T09:49:28Z</time>
      </trkpt>
      <trkpt lat="43.351523978635669" lon="1.469969982281327">
        <ele>180.38</ele>
        <time>2025-04-26T09:49:29Z</time>
      </trkpt>
      <trkpt lat="43.351489026099443" lon="1.469924971461296">
        <ele>179.90000000000001</ele>
        <time>2025-04-26T09:49:30Z</time>
      </trkpt>
      <trkpt lat="43.351449966430664" lon="1.469877026975155">
        <ele>179.90000000000001</ele>
        <time>2025-04-26T09:49:31Z</time>
      </trkpt>
      <trkpt lat="43.351327003911138" lon="1.469705030322075">
        <ele>179.90000000000001</ele>
        <time>2025-04-26T09:49:34Z</time>
      </trkpt>
      <trkpt lat="43.351298002526164" lon="1.469635041430593">
        <ele>179.41999999999999</ele>
        <time>2025-04-26T09:49:35Z</time>
      </trkpt>
      <trkpt lat="43.351136986166239" lon="1.469249976798892">
        <ele>178.46000000000001</ele>
        <time>2025-04-26T09:49:40Z</time>
      </trkpt>
      <trkpt lat="43.350852001458406" lon="1.46855897270143">
        <ele>177.97999999999999</ele>
        <time>2025-04-26T09:49:49Z</time>
      </trkpt>
      <trkpt lat="43.350826017558575" lon="1.46849300712347">
        <ele>177.97999999999999</ele>
        <time>2025-04-26T09:49:50Z</time>
      </trkpt>
      <trkpt lat="43.350802967324853" lon="1.468437016010284">
        <ele>178.46000000000001</ele>
        <time>2025-04-26T09:49:51Z</time>
      </trkpt>
      <trkpt lat="43.350785030052066" lon="1.468390999361873">
        <ele>177.97999999999999</ele>
        <time>2025-04-26T09:49:52Z</time>
      </trkpt>
      <trkpt lat="43.35077497176826" lon="1.468361997976899">
        <ele>177.97999999999999</ele>
        <time>2025-04-26T09:49:53Z</time>
      </trkpt>
      <trkpt lat="43.350714035332203" lon="1.468188995495439">
        <ele>177.97999999999999</ele>
        <time>2025-04-26T09:50:03Z</time>
      </trkpt>
      <trkpt lat="43.350485963746905" lon="1.467334041371942">
        <ele>174.13999999999999</ele>
        <time>2025-04-26T09:50:15Z</time>
      </trkpt>
      <trkpt lat="43.350435001775622" lon="1.46716296672821">
        <ele>173.66</ele>
        <time>2025-04-26T09:50:17Z</time>
      </trkpt>
      <trkpt lat="43.350419998168945" lon="1.467067999765277">
        <ele>173.16999999999999</ele>
        <time>2025-04-26T09:50:18Z</time>
      </trkpt>
      <trkpt lat="43.350309021770954" lon="1.466227965429425">
        <ele>173.16999999999999</ele>
        <time>2025-04-26T09:50:27Z</time>
      </trkpt>
      <trkpt lat="43.350306004285812" lon="1.466131992638111">
        <ele>173.16999999999999</ele>
        <time>2025-04-26T09:50:28Z</time>
      </trkpt>
      <trkpt lat="43.350300975143909" lon="1.465152986347675">
        <ele>174.62</ele>
        <time>2025-04-26T09:50:37Z</time>
      </trkpt>
      <trkpt lat="43.350303992629051" lon="1.464995993301272">
        <ele>174.13999999999999</ele>
        <time>2025-04-26T09:50:38Z</time>
      </trkpt>
      <trkpt lat="43.350306004285812" lon="1.464833971112967">
        <ele>174.13999999999999</ele>
        <time>2025-04-26T09:50:39Z</time>
      </trkpt>
      <trkpt lat="43.350309021770954" lon="1.464678989723325">
        <ele>174.13999999999999</ele>
        <time>2025-04-26T09:50:40Z</time>
      </trkpt>
      <trkpt lat="43.350364007055759" lon="1.462849974632263">
        <ele>175.09999999999999</ele>
        <time>2025-04-26T09:50:51Z</time>
      </trkpt>
      <trkpt lat="43.350413963198662" lon="1.46161800250411">
        <ele>175.09999999999999</ele>
        <time>2025-04-26T09:50:59Z</time>
      </trkpt>
      <trkpt lat="43.350418992340565" lon="1.461500991135836">
        <ele>175.09999999999999</ele>
        <time>2025-04-26T09:51:00Z</time>
      </trkpt>
      <trkpt lat="43.350421003997326" lon="1.461461009457707">
        <ele>175.09999999999999</ele>
        <time>2025-04-26T09:51:01Z</time>
      </trkpt>
      <trkpt lat="43.350421003997326" lon="1.461224975064397">
        <ele>175.58000000000001</ele>
        <time>2025-04-26T09:51:02Z</time>
      </trkpt>
      <trkpt lat="43.350421003997326" lon="1.461190022528172">
        <ele>175.58000000000001</ele>
        <time>2025-04-26T09:51:03Z</time>
      </trkpt>
      <trkpt lat="43.350421003997326" lon="1.461072005331516">
        <ele>175.58000000000001</ele>
        <time>2025-04-26T09:51:04Z</time>
      </trkpt>
      <trkpt lat="43.350421003997326" lon="1.460083024576306">
        <ele>175.58000000000001</ele>
        <time>2025-04-26T09:51:11Z</time>
      </trkpt>
      <trkpt lat="43.350424021482468" lon="1.458572018891573">
        <ele>176.06</ele>
        <time>2025-04-26T09:51:20Z</time>
      </trkpt>
      <trkpt lat="43.350454028695822" lon="1.457081967964768">
        <ele>177.02000000000001</ele>
        <time>2025-04-26T09:51:28Z</time>
      </trkpt>
      <trkpt lat="43.350436007604003" lon="1.456870995461941">
        <ele>177.02000000000001</ele>
        <time>2025-04-26T09:51:29Z</time>
      </trkpt>
      <trkpt lat="43.35040801204741" lon="1.45665499381721">
        <ele>177.02000000000001</ele>
        <time>2025-04-26T09:51:30Z</time>
      </trkpt>
      <trkpt lat="43.350346991792321" lon="1.45643999800086">
        <ele>177.02000000000001</ele>
        <time>2025-04-26T09:51:31Z</time>
      </trkpt>
      <trkpt lat="43.350282032042742" lon="1.456218967214227">
        <ele>177.02000000000001</ele>
        <time>2025-04-26T09:51:32Z</time>
      </trkpt>
      <trkpt lat="43.349404027685523" lon="1.453708000481129">
        <ele>177.02000000000001</ele>
        <time>2025-04-26T09:51:44Z</time>
      </trkpt>
      <trkpt lat="43.348613027483225" lon="1.451403982937336">
        <ele>177.97999999999999</ele>
        <time>2025-04-26T09:51:54Z</time>
      </trkpt>
      <trkpt lat="43.347664028406143" lon="1.44874800927937">
        <ele>178.94</ele>
        <time>2025-04-26T09:52:05Z</time>
      </trkpt>
      <trkpt lat="43.346392996609211" lon="1.445560958236456">
        <ele>181.83000000000001</ele>
        <time>2025-04-26T09:52:18Z</time>
      </trkpt>
      <trkpt lat="43.345346013084054" lon="1.44307597540319">
        <ele>184.22999999999999</ele>
        <time>2025-04-26T09:52:28Z</time>
      </trkpt>
      <trkpt lat="43.344444036483765" lon="1.440461995080113">
        <ele>183.75</ele>
        <time>2025-04-26T09:52:38Z</time>
      </trkpt>
      <trkpt lat="43.343835007399321" lon="1.438438016921282">
        <ele>181.34999999999999</ele>
        <time>2025-04-26T09:52:46Z</time>
      </trkpt>
      <trkpt lat="43.343319017440081" lon="1.436238018795848">
        <ele>178.94</ele>
        <time>2025-04-26T09:52:55Z</time>
      </trkpt>
      <trkpt lat="43.342933030799031" lon="1.434142962098122">
        <ele>177.02000000000001</ele>
        <time>2025-04-26T09:53:03Z</time>
      </trkpt>
      <trkpt lat="43.342684004455805" lon="1.432178998365998">
        <ele>176.53999999999999</ele>
        <time>2025-04-26T09:53:11Z</time>
      </trkpt>
      <trkpt lat="43.342648968100548" lon="1.431835005059838">
        <ele>176.53999999999999</ele>
        <time>2025-04-26T09:53:13Z</time>
      </trkpt>
      <trkpt lat="43.342634970322251" lon="1.431691003963351">
        <ele>177.02000000000001</ele>
        <time>2025-04-26T09:53:14Z</time>
      </trkpt>
      <trkpt lat="43.342677969485521" lon="1.431021960452199">
        <ele>179.41999999999999</ele>
        <time>2025-04-26T09:53:20Z</time>
      </trkpt>
      <trkpt lat="43.342704959213734" lon="1.430859016254544">
        <ele>179.90000000000001</ele>
        <time>2025-04-26T09:53:21Z</time>
      </trkpt>
      <trkpt lat="43.342664977535605" lon="1.430777963250876">
        <ele>179.90000000000001</ele>
        <time>2025-04-26T09:53:22Z</time>
      </trkpt>
      <trkpt lat="43.342529023066163" lon="1.430575959384441">
        <ele>180.38</ele>
        <time>2025-04-26T09:53:24Z</time>
      </trkpt>
      <trkpt lat="43.34252399392426" lon="1.430408991873264">
        <ele>180.87</ele>
        <time>2025-04-26T09:53:25Z</time>
      </trkpt>
      <trkpt lat="43.342310003936291" lon="1.428822968155146">
        <ele>183.75</ele>
        <time>2025-04-26T09:53:33Z</time>
      </trkpt>
      <trkpt lat="43.341618999838829" lon="1.427253037691116">
        <ele>185.66999999999999</ele>
        <time>2025-04-26T09:53:41Z</time>
      </trkpt>
      <trkpt lat="43.340561036020517" lon="1.4251350145787">
        <ele>188.08000000000001</ele>
        <time>2025-04-26T09:53:52Z</time>
      </trkpt>
      <trkpt lat="43.3402010332793" lon="1.424104040488601">
        <ele>190.47999999999999</ele>
        <time>2025-04-26T09:53:59Z</time>
      </trkpt>
      <trkpt lat="43.339826026931405" lon="1.422848012298346">
        <ele>191.44</ele>
        <time>2025-04-26T09:54:07Z</time>
      </trkpt>
      <trkpt lat="43.339748997241259" lon="1.422369992360473">
        <ele>191.44</ele>
        <time>2025-04-26T09:54:10Z</time>
      </trkpt>
      <trkpt lat="43.339699041098356" lon="1.421881997957826">
        <ele>190.96000000000001</ele>
        <time>2025-04-26T09:54:13Z</time>
      </trkpt>
      <trkpt lat="43.339700968936086" lon="1.421703966334462">
        <ele>190.96000000000001</ele>
        <time>2025-04-26T09:54:14Z</time>
      </trkpt>
      <trkpt lat="43.339741034433246" lon="1.421546973288059">
        <ele>190.96000000000001</ele>
        <time>2025-04-26T09:54:15Z</time>
      </trkpt>
      <trkpt lat="43.339780010282993" lon="1.421387968584895">
        <ele>190.96000000000001</ele>
        <time>2025-04-26T09:54:16Z</time>
      </trkpt>
      <trkpt lat="43.339819991961122" lon="1.421229969710112">
        <ele>191.44</ele>
        <time>2025-04-26T09:54:17Z</time>
      </trkpt>
      <trkpt lat="43.339857961982489" lon="1.421076999977231">
        <ele>191.44</ele>
        <time>2025-04-26T09:54:18Z</time>
      </trkpt>
      <trkpt lat="43.339882018044591" lon="1.420949008315802">
        <ele>190.96000000000001</ele>
        <time>2025-04-26T09:54:19Z</time>
      </trkpt>
      <trkpt lat="43.339862991124392" lon="1.420797966420651">
        <ele>190.96000000000001</ele>
        <time>2025-04-26T09:54:20Z</time>
      </trkpt>
      <trkpt lat="43.339813034981489" lon="1.420655976980925">
        <ele>190.47999999999999</ele>
        <time>2025-04-26T09:54:21Z</time>
      </trkpt>
      <trkpt lat="43.339758971706033" lon="1.420504013076425">
        <ele>190.96000000000001</ele>
        <time>2025-04-26T09:54:22Z</time>
      </trkpt>
      <trkpt lat="43.33943098783493" lon="1.419618967920542">
        <ele>191.44</ele>
        <time>2025-04-26T09:54:28Z</time>
      </trkpt>
      <trkpt lat="43.339292015880346" lon="1.419362984597683">
        <ele>191.44</ele>
        <time>2025-04-26T09:54:30Z</time>
      </trkpt>
      <trkpt lat="43.3392149861902" lon="1.419244967401028">
        <ele>191.44</ele>
        <time>2025-04-26T09:54:31Z</time>
      </trkpt>
      <trkpt lat="43.339124964550138" lon="1.419142037630081">
        <ele>191.91999999999999</ele>
        <time>2025-04-26T09:54:32Z</time>
      </trkpt>
      <trkpt lat="43.338552983477712" lon="1.418424965813756">
        <ele>193.84</ele>
        <time>2025-04-26T09:54:38Z</time>
      </trkpt>
      <trkpt lat="43.338425997644663" lon="1.418222961947322">
        <ele>194.31999999999999</ele>
        <time>2025-04-26T09:54:39Z</time>
      </trkpt>
      <trkpt lat="43.338358020409942" lon="1.418082984164357">
        <ele>194.31999999999999</ele>
        <time>2025-04-26T09:54:40Z</time>
      </trkpt>
      <trkpt lat="43.337872959673405" lon="1.417087968438864">
        <ele>193.36000000000001</ele>
        <time>2025-04-26T09:54:45Z</time>
      </trkpt>
      <trkpt lat="43.337182039394975" lon="1.415880974382162">
        <ele>193.84</ele>
        <time>2025-04-26T09:54:51Z</time>
      </trkpt>
      <trkpt lat="43.337093023583293" lon="1.415666984394193">
        <ele>193.84</ele>
        <time>2025-04-26T09:54:52Z</time>
      </trkpt>
      <trkpt lat="43.336301017552614" lon="1.413762029260397">
        <ele>193.36000000000001</ele>
        <time>2025-04-26T09:55:00Z</time>
      </trkpt>
      <trkpt lat="43.335849987342954" lon="1.412644973024726">
        <ele>194.80000000000001</ele>
        <time>2025-04-26T09:55:05Z</time>
      </trkpt>
      <trkpt lat="43.335796007886529" lon="1.41243701800704">
        <ele>194.80000000000001</ele>
        <time>2025-04-26T09:55:06Z</time>
      </trkpt>
      <trkpt lat="43.335744962096214" lon="1.412238031625748">
        <ele>194.80000000000001</ele>
        <time>2025-04-26T09:55:07Z</time>
      </trkpt>
      <trkpt lat="43.335721995681524" lon="1.411763029173017">
        <ele>195.28</ele>
        <time>2025-04-26T09:55:09Z</time>
      </trkpt>
      <trkpt lat="43.335816962644458" lon="1.410931963473558">
        <ele>197.21000000000001</ele>
        <time>2025-04-26T09:55:12Z</time>
      </trkpt>
      <trkpt lat="43.335848981514573" lon="1.410643961280584">
        <ele>197.69</ele>
        <time>2025-04-26T09:55:13Z</time>
      </trkpt>
      <trkpt lat="43.335761977359653" lon="1.408901028335095">
        <ele>201.53</ele>
        <time>2025-04-26T09:55:19Z</time>
      </trkpt>
      <trkpt lat="43.335741022601724" lon="1.408661976456642">
        <ele>202.49000000000001</ele>
        <time>2025-04-26T09:55:20Z</time>
      </trkpt>
      <trkpt lat="43.335662987083197" lon="1.407935013994575">
        <ele>204.41999999999999</ele>
        <time>2025-04-26T09:55:23Z</time>
      </trkpt>
      <trkpt lat="43.335634991526604" lon="1.407695040106773">
        <ele>205.38</ele>
        <time>2025-04-26T09:55:24Z</time>
      </trkpt>
      <trkpt lat="43.335419995710254" lon="1.406113039702177">
        <ele>209.69999999999999</ele>
        <time>2025-04-26T09:55:31Z</time>
      </trkpt>
      <trkpt lat="43.335381019860506" lon="1.405925033614039">
        <ele>209.69999999999999</ele>
        <time>2025-04-26T09:55:32Z</time>
      </trkpt>
      <trkpt lat="43.33526099100709" lon="1.405362021178007">
        <ele>211.63</ele>
        <time>2025-04-26T09:55:35Z</time>
      </trkpt>
      <trkpt lat="43.335216986015439" lon="1.405155993998051">
        <ele>211.63</ele>
        <time>2025-04-26T09:55:36Z</time>
      </trkpt>
      <trkpt lat="43.335189996287227" lon="1.404932029545307">
        <ele>212.11000000000001</ele>
        <time>2025-04-26T09:55:37Z</time>
      </trkpt>
      <trkpt lat="43.335256967693567" lon="1.404192997142673">
        <ele>212.59</ele>
        <time>2025-04-26T09:55:40Z</time>
      </trkpt>
      <trkpt lat="43.335415972396731" lon="1.403274005278945">
        <ele>214.50999999999999</ele>
        <time>2025-04-26T09:55:45Z</time>
      </trkpt>
      <trkpt lat="43.335439022630453" lon="1.403076024726033">
        <ele>214.99000000000001</ele>
        <time>2025-04-26T09:55:46Z</time>
      </trkpt>
      <trkpt lat="43.335416978225112" lon="1.402881983667612">
        <ele>215.47</ele>
        <time>2025-04-26T09:55:47Z</time>
      </trkpt>
      <trkpt lat="43.335373979061842" lon="1.402710992842913">
        <ele>215.94999999999999</ele>
        <time>2025-04-26T09:55:48Z</time>
      </trkpt>
      <trkpt lat="43.335317987948656" lon="1.402515023946762">
        <ele>216.91</ele>
        <time>2025-04-26T09:55:49Z</time>
      </trkpt>
      <trkpt lat="43.335253028199077" lon="1.402351995930076">
        <ele>217.40000000000001</ele>
        <time>2025-04-26T09:55:50Z</time>
      </trkpt>
      <trkpt lat="43.335197037085891" lon="1.402193997055292">
        <ele>217.88</ele>
        <time>2025-04-26T09:55:51Z</time>
      </trkpt>
      <trkpt lat="43.33515303209424" lon="1.402006996795535">
        <ele>218.84</ele>
        <time>2025-04-26T09:55:52Z</time>
      </trkpt>
      <trkpt lat="43.335119001567364" lon="1.401807004585862">
        <ele>219.31999999999999</ele>
        <time>2025-04-26T09:55:53Z</time>
      </trkpt>
      <trkpt lat="43.335101986303926" lon="1.401367038488388">
        <ele>220.75999999999999</ele>
        <time>2025-04-26T09:55:55Z</time>
      </trkpt>
      <trkpt lat="43.335093017667532" lon="1.401126980781555">
        <ele>221.24000000000001</ele>
        <time>2025-04-26T09:55:56Z</time>
      </trkpt>
      <trkpt lat="43.335082959383726" lon="1.400882983580232">
        <ele>221.72</ele>
        <time>2025-04-26T09:55:57Z</time>
      </trkpt>
      <trkpt lat="43.335083965212107" lon="1.400630017742515">
        <ele>222.19999999999999</ele>
        <time>2025-04-26T09:55:58Z</time>
      </trkpt>
      <trkpt lat="43.335095029324293" lon="1.400393983349204">
        <ele>222.68000000000001</ele>
        <time>2025-04-26T09:55:59Z</time>
      </trkpt>
      <trkpt lat="43.335154037922621" lon="1.399966003373265">
        <ele>224.12</ele>
        <time>2025-04-26T09:56:01Z</time>
      </trkpt>
      <trkpt lat="43.335187984630466" lon="1.399771962314844">
        <ele>224.61000000000001</ele>
        <time>2025-04-26T09:56:02Z</time>
      </trkpt>
      <trkpt lat="43.335227966308594" lon="1.399534000083804">
        <ele>225.09</ele>
        <time>2025-04-26T09:56:03Z</time>
      </trkpt>
      <trkpt lat="43.335283035412431" lon="1.399380024522543">
        <ele>226.05000000000001</ele>
        <time>2025-04-26T09:56:04Z</time>
      </trkpt>
      <trkpt lat="43.33534698933363" lon="1.399197969585657">
        <ele>227.00999999999999</ele>
        <time>2025-04-26T09:56:05Z</time>
      </trkpt>
      <trkpt lat="43.335450002923608" lon="1.399023039266467">
        <ele>227.49000000000001</ele>
        <time>2025-04-26T09:56:06Z</time>
      </trkpt>
      <trkpt lat="43.335543964058161" lon="1.398876020684838">
        <ele>228.44999999999999</ele>
        <time>2025-04-26T09:56:07Z</time>
      </trkpt>
      <trkpt lat="43.335633985698223" lon="1.398734031245112">
        <ele>229.88999999999999</ele>
        <time>2025-04-26T09:56:08Z</time>
      </trkpt>
      <trkpt lat="43.335836995393038" lon="1.398416021838784">
        <ele>232.30000000000001</ele>
        <time>2025-04-26T09:56:11Z</time>
      </trkpt>
      <trkpt lat="43.335958030074835" lon="1.398224998265505">
        <ele>233.25999999999999</ele>
        <time>2025-04-26T09:56:12Z</time>
      </trkpt>
      <trkpt lat="43.335958030074835" lon="1.398224998265505">
        <ele>233.25999999999999</ele>
        <time>2025-04-26T09:56:13Z</time>
      </trkpt>
      <trkpt lat="43.335958030074835" lon="1.398074962198734">
        <ele>232.78</ele>
        <time>2025-04-26T09:56:14Z</time>
      </trkpt>
      <trkpt lat="43.335923999547958" lon="1.39799801632762">
        <ele>232.78</ele>
        <time>2025-04-26T09:56:15Z</time>
      </trkpt>
      <trkpt lat="43.33586398512125" lon="1.39787002466619">
        <ele>232.78</ele>
        <time>2025-04-26T09:56:16Z</time>
      </trkpt>
      <trkpt lat="43.335790978744626" lon="1.397768016904593">
        <ele>232.30000000000001</ele>
        <time>2025-04-26T09:56:17Z</time>
      </trkpt>
      <trkpt lat="43.335714032873511" lon="1.397659974172711">
        <ele>232.30000000000001</ele>
        <time>2025-04-26T09:56:18Z</time>
      </trkpt>
      <trkpt lat="43.335643038153648" lon="1.39754799194634">
        <ele>231.81</ele>
        <time>2025-04-26T09:56:19Z</time>
      </trkpt>
      <trkpt lat="43.335571959614754" lon="1.397387981414795">
        <ele>231.81</ele>
        <time>2025-04-26T09:56:20Z</time>
      </trkpt>
      <trkpt lat="43.335557961836457" lon="1.39720500446856">
        <ele>231.81</ele>
        <time>2025-04-26T09:56:21Z</time>
      </trkpt>
      <trkpt lat="43.335549999028444" lon="1.397007023915649">
        <ele>231.33000000000001</ele>
        <time>2025-04-26T09:56:22Z</time>
      </trkpt>
      <trkpt lat="43.335528038442135" lon="1.396127007901669">
        <ele>234.69999999999999</ele>
        <time>2025-04-26T09:56:26Z</time>
      </trkpt>
      <trkpt lat="43.335273982957006" lon="1.393845034763217">
        <ele>237.58000000000001</ele>
        <time>2025-04-26T09:56:35Z</time>
      </trkpt>
      <trkpt lat="43.334827981889248" lon="1.391074983403087">
        <ele>242.87</ele>
        <time>2025-04-26T09:56:45Z</time>
      </trkpt>
      <trkpt lat="43.334277961403131" lon="1.388318007811904">
        <ele>255.37</ele>
        <time>2025-04-26T09:56:55Z</time>
      </trkpt>
      <trkpt lat="43.333719978109002" lon="1.384901041164994">
        <ele>267.38</ele>
        <time>2025-04-26T09:57:07Z</time>
      </trkpt>
      <trkpt lat="43.332868041470647" lon="1.380395013839006">
        <ele>285.64999999999998</ele>
        <time>2025-04-26T09:57:23Z</time>
      </trkpt>
      <trkpt lat="43.332480965182185" lon="1.37866297736764">
        <ele>288.05000000000001</ele>
        <time>2025-04-26T09:57:31Z</time>
      </trkpt>
      <trkpt lat="43.332325983792543" lon="1.377897961065173">
        <ele>289.00999999999999</ele>
        <time>2025-04-26T09:57:35Z</time>
      </trkpt>
      <trkpt lat="43.332309974357486" lon="1.37769402936101">
        <ele>289.00999999999999</ele>
        <time>2025-04-26T09:57:36Z</time>
      </trkpt>
      <trkpt lat="43.332324977964163" lon="1.37748003937304">
        <ele>289.49000000000001</ele>
        <time>2025-04-26T09:57:37Z</time>
      </trkpt>
      <trkpt lat="43.332299999892712" lon="1.375583969056606">
        <ele>284.69</ele>
        <time>2025-04-26T09:57:45Z</time>
      </trkpt>
      <trkpt lat="43.332020966336131" lon="1.37322798371315">
        <ele>271.70999999999998</ele>
        <time>2025-04-26T09:57:54Z</time>
      </trkpt>
      <trkpt lat="43.331650989130139" lon="1.370931006968021">
        <ele>258.25</ele>
        <time>2025-04-26T09:58:03Z</time>
      </trkpt>
      <trkpt lat="43.331356029957533" lon="1.367805982008576">
        <ele>239.02000000000001</ele>
        <time>2025-04-26T09:58:14Z</time>
      </trkpt>
      <trkpt lat="43.331346977502108" lon="1.367514040321112">
        <ele>237.58000000000001</ele>
        <time>2025-04-26T09:58:15Z</time>
      </trkpt>
      <trkpt lat="43.331359969452024" lon="1.36600898578763">
        <ele>228.93000000000001</ele>
        <time>2025-04-26T09:58:20Z</time>
      </trkpt>
      <trkpt lat="43.331364998593926" lon="1.365704974159598">
        <ele>227.49000000000001</ele>
        <time>2025-04-26T09:58:21Z</time>
      </trkpt>
      <trkpt lat="43.331338008865714" lon="1.363318981602788">
        <ele>215.47</ele>
        <time>2025-04-26T09:58:29Z</time>
      </trkpt>
      <trkpt lat="43.330994015559554" lon="1.361182015389204">
        <ele>206.34</ele>
        <time>2025-04-26T09:58:37Z</time>
      </trkpt>
      <trkpt lat="43.33072897978127" lon="1.359716020524502">
        <ele>199.61000000000001</ele>
        <time>2025-04-26T09:58:43Z</time>
      </trkpt>
      <trkpt lat="43.330338969826698" lon="1.357461959123612">
        <ele>192.40000000000001</ele>
        <time>2025-04-26T09:58:53Z</time>
      </trkpt>
      <trkpt lat="43.330100001767278" lon="1.355088036507368">
        <ele>188.08000000000001</ele>
        <time>2025-04-26T09:59:02Z</time>
      </trkpt>
      <trkpt lat="43.330137971788645" lon="1.354801040142775">
        <ele>187.59</ele>
        <time>2025-04-26T09:59:03Z</time>
      </trkpt>
      <trkpt lat="43.330181976780295" lon="1.354521000757814">
        <ele>187.59</ele>
        <time>2025-04-26T09:59:04Z</time>
      </trkpt>
      <trkpt lat="43.330245008692145" lon="1.354229981079698">
        <ele>187.59</ele>
        <time>2025-04-26T09:59:05Z</time>
      </trkpt>
      <trkpt lat="43.330324972048402" lon="1.353940973058343">
        <ele>188.56</ele>
        <time>2025-04-26T09:59:06Z</time>
      </trkpt>
      <trkpt lat="43.331507993862033" lon="1.349853035062552">
        <ele>194.31999999999999</ele>
        <time>2025-04-26T09:59:21Z</time>
      </trkpt>
      <trkpt lat="43.332508038729429" lon="1.346489964053035">
        <ele>194.80000000000001</ele>
        <time>2025-04-26T09:59:34Z</time>
      </trkpt>
      <trkpt lat="43.33272697404027" lon="1.345500983297825">
        <ele>195.28</ele>
        <time>2025-04-26T09:59:38Z</time>
      </trkpt>
      <trkpt lat="43.332750024273992" lon="1.345256986096501">
        <ele>195.77000000000001</ele>
        <time>2025-04-26T09:59:39Z</time>
      </trkpt>
      <trkpt lat="43.332756981253624" lon="1.345020029693842">
        <ele>195.77000000000001</ele>
        <time>2025-04-26T09:59:40Z</time>
      </trkpt>
      <trkpt lat="43.332749018445611" lon="1.344779971987009">
        <ele>195.77000000000001</ele>
        <time>2025-04-26T09:59:41Z</time>
      </trkpt>
      <trkpt lat="43.332740971818566" lon="1.344542009755969">
        <ele>196.25</ele>
        <time>2025-04-26T09:59:42Z</time>
      </trkpt>
      <trkpt lat="43.332694033160806" lon="1.344320978969336">
        <ele>196.25</ele>
        <time>2025-04-26T09:59:43Z</time>
      </trkpt>
      <trkpt lat="43.332635024562478" lon="1.344097014516592">
        <ele>196.25</ele>
        <time>2025-04-26T09:59:44Z</time>
      </trkpt>
      <trkpt lat="43.332563024014235" lon="1.34387799538672">
        <ele>196.25</ele>
        <time>2025-04-26T09:59:45Z</time>
      </trkpt>
      <trkpt lat="43.332487000152469" lon="1.343651013448834">
        <ele>196.25</ele>
        <time>2025-04-26T09:59:46Z</time>
      </trkpt>
      <trkpt lat="43.331123013049364" lon="1.340083004906774">
        <ele>196.25</ele>
        <time>2025-04-26T10:00:01Z</time>
      </trkpt>
      <trkpt lat="43.330063037574291" lon="1.338029019534588">
        <ele>197.69</ele>
        <time>2025-04-26T10:00:10Z</time>
      </trkpt>
      <trkpt lat="43.32943900488317" lon="1.336671989411116">
        <ele>196.72999999999999</ele>
        <time>2025-04-26T10:00:16Z</time>
      </trkpt>
      <trkpt lat="43.329382007941604" lon="1.336420029401779">
        <ele>196.25</ele>
        <time>2025-04-26T10:00:17Z</time>
      </trkpt>
      <trkpt lat="43.329325011000037" lon="1.336167985573411">
        <ele>195.28</ele>
        <time>2025-04-26T10:00:18Z</time>
      </trkpt>
      <trkpt lat="43.32905100658536" lon="1.333951978012919">
        <ele>190.96000000000001</ele>
        <time>2025-04-26T10:00:27Z</time>
      </trkpt>
      <trkpt lat="43.328885966911912" lon="1.332606012001634">
        <ele>190</ele>
        <time>2025-04-26T10:00:35Z</time>
      </trkpt>
      <trkpt lat="43.328826958313584" lon="1.332068983465433">
        <ele>190.47999999999999</ele>
        <time>2025-04-26T10:00:39Z</time>
      </trkpt>
      <trkpt lat="43.328876998275518" lon="1.331705963239074">
        <ele>190</ele>
        <time>2025-04-26T10:00:42Z</time>
      </trkpt>
      <trkpt lat="43.328883033245802" lon="1.331670004874468">
        <ele>190</ele>
        <time>2025-04-26T10:00:43Z</time>
      </trkpt>
      <trkpt lat="43.328898036852479" lon="1.331576965749264">
        <ele>190</ele>
        <time>2025-04-26T10:00:44Z</time>
      </trkpt>
      <trkpt lat="43.328790999948978" lon="1.331448974087834">
        <ele>190</ele>
        <time>2025-04-26T10:00:45Z</time>
      </trkpt>
      <trkpt lat="43.328790999948978" lon="1.331327017396689">
        <ele>189.52000000000001</ele>
        <time>2025-04-26T10:00:46Z</time>
      </trkpt>
      <trkpt lat="43.328788988292217" lon="1.331190979108214">
        <ele>189.52000000000001</ele>
        <time>2025-04-26T10:00:47Z</time>
      </trkpt>
      <trkpt lat="43.328784964978695" lon="1.331043038517237">
        <ele>189.52000000000001</ele>
        <time>2025-04-26T10:00:48Z</time>
      </trkpt>
      <trkpt lat="43.328728973865509" lon="1.3296789675951">
        <ele>187.59</ele>
        <time>2025-04-26T10:00:58Z</time>
      </trkpt>
      <trkpt lat="43.328633001074195" lon="1.327865039929748">
        <ele>185.66999999999999</ele>
        <time>2025-04-26T10:01:14Z</time>
      </trkpt>
      <trkpt lat="43.328543985262513" lon="1.326269963756204">
        <ele>186.15000000000001</ele>
        <time>2025-04-26T10:01:28Z</time>
      </trkpt>
      <trkpt lat="43.3285360224545" lon="1.32615496404469">
        <ele>186.63</ele>
        <time>2025-04-26T10:01:29Z</time>
      </trkpt>
      <trkpt lat="43.328510960564017" lon="1.325798984616995">
        <ele>186.63</ele>
        <time>2025-04-26T10:01:32Z</time>
      </trkpt>
      <trkpt lat="43.328409036621451" lon="1.324322009459138">
        <ele>185.19</ele>
        <time>2025-04-26T10:01:45Z</time>
      </trkpt>
      <trkpt lat="43.328403001651168" lon="1.32421899586916">
        <ele>185.19</ele>
        <time>2025-04-26T10:01:46Z</time>
      </trkpt>
      <trkpt lat="43.328395960852504" lon="1.324117993935943">
        <ele>185.19</ele>
        <time>2025-04-26T10:01:47Z</time>
      </trkpt>
      <trkpt lat="43.328387998044491" lon="1.324019003659487">
        <ele>185.19</ele>
        <time>2025-04-26T10:01:48Z</time>
      </trkpt>
      <trkpt lat="43.328365031629801" lon="1.323598986491561">
        <ele>184.22999999999999</ele>
        <time>2025-04-26T10:01:52Z</time>
      </trkpt>
      <trkpt lat="43.328358996659517" lon="1.323503013700247">
        <ele>184.22999999999999</ele>
        <time>2025-04-26T10:01:53Z</time>
      </trkpt>
      <trkpt lat="43.328352961689234" lon="1.323404023423791">
        <ele>183.75</ele>
        <time>2025-04-26T10:01:54Z</time>
      </trkpt>
      <trkpt lat="43.328347010537982" lon="1.323306038975716">
        <ele>183.27000000000001</ele>
        <time>2025-04-26T10:01:55Z</time>
      </trkpt>
      <trkpt lat="43.328340975567698" lon="1.323202019557357">
        <ele>183.27000000000001</ele>
        <time>2025-04-26T10:01:56Z</time>
      </trkpt>
      <trkpt lat="43.328340975567698" lon="1.322554014623165">
        <ele>181.83000000000001</ele>
        <time>2025-04-26T10:02:03Z</time>
      </trkpt>
      <trkpt lat="43.328340975567698" lon="1.322485031560063">
        <ele>181.83000000000001</ele>
        <time>2025-04-26T10:02:04Z</time>
      </trkpt>
      <trkpt lat="43.328340975567698" lon="1.322425017133355">
        <ele>182.31</ele>
        <time>2025-04-26T10:02:05Z</time>
      </trkpt>
      <trkpt lat="43.328340975567698" lon="1.322377994656563">
        <ele>182.31</ele>
        <time>2025-04-26T10:02:06Z</time>
      </trkpt>
      <trkpt lat="43.328382968902588" lon="1.322280010208488">
        <ele>182.31</ele>
        <time>2025-04-26T10:02:07Z</time>
      </trkpt>
      <trkpt lat="43.328423034399748" lon="1.322273975238204">
        <ele>182.31</ele>
        <time>2025-04-26T10:02:08Z</time>
      </trkpt>
      <trkpt lat="43.328466033563018" lon="1.322268024086952">
        <ele>182.31</ele>
        <time>2025-04-26T10:02:09Z</time>
      </trkpt>
      <trkpt lat="43.328513978049159" lon="1.322265006601811">
        <ele>182.31</ele>
        <time>2025-04-26T10:02:10Z</time>
      </trkpt>
      <trkpt lat="43.328565023839474" lon="1.322265006601811">
        <ele>182.31</ele>
        <time>2025-04-26T10:02:11Z</time>
      </trkpt>
      <trkpt lat="43.32922300323844" lon="1.322261989116669">
        <ele>182.31</ele>
        <time>2025-04-26T10:02:21Z</time>
      </trkpt>
      <trkpt lat="43.329296009615064" lon="1.322251008823514">
        <ele>181.83000000000001</ele>
        <time>2025-04-26T10:02:22Z</time>
      </trkpt>
      <trkpt lat="43.329373961314559" lon="1.32224103435874">
        <ele>181.83000000000001</ele>
        <time>2025-04-26T10:02:23Z</time>
      </trkpt>
      <trkpt lat="43.330112993717194" lon="1.322183031588793">
        <ele>184.22999999999999</ele>
        <time>2025-04-26T10:02:33Z</time>
      </trkpt>
      <trkpt lat="43.33016999065876" lon="1.322180014103651">
        <ele>184.71000000000001</ele>
        <time>2025-04-26T10:02:34Z</time>
      </trkpt>
      <trkpt lat="43.33019002340734" lon="1.322102984413505">
        <ele>185.19</ele>
        <time>2025-04-26T10:02:35Z</time>
      </trkpt>
      <trkpt lat="43.330193962901831" lon="1.322029978036881">
        <ele>185.19</ele>
        <time>2025-04-26T10:02:36Z</time>
      </trkpt>
      <trkpt lat="43.330197986215353" lon="1.321938028559089">
        <ele>185.66999999999999</ele>
        <time>2025-04-26T10:02:37Z</time>
      </trkpt>
      <trkpt lat="43.330203015357256" lon="1.321839960291982">
        <ele>186.15000000000001</ele>
        <time>2025-04-26T10:02:38Z</time>
      </trkpt>
      <trkpt lat="43.330244002863765" lon="1.321046026423574">
        <ele>189.52000000000001</ele>
        <time>2025-04-26T10:02:45Z</time>
      </trkpt>
      <trkpt lat="43.330250959843397" lon="1.320919040590525">
        <ele>190</ele>
        <time>2025-04-26T10:02:46Z</time>
      </trkpt>
      <trkpt lat="43.330321032553911" lon="1.319848001003265">
        <ele>197.21000000000001</ele>
        <time>2025-04-26T10:02:53Z</time>
      </trkpt>
      <trkpt lat="43.330331007018685" lon="1.319709029048681">
        <ele>198.16999999999999</ele>
        <time>2025-04-26T10:02:54Z</time>
      </trkpt>
      <trkpt lat="43.330338969826698" lon="1.319586988538504">
        <ele>199.13</ele>
        <time>2025-04-26T10:02:55Z</time>
      </trkpt>
      <trkpt lat="43.330356990918517" lon="1.31936201825738">
        <ele>200.56999999999999</ele>
        <time>2025-04-26T10:02:57Z</time>
      </trkpt>
      <trkpt lat="43.330365959554911" lon="1.319240983575583">
        <ele>201.05000000000001</ele>
        <time>2025-04-26T10:02:58Z</time>
      </trkpt>
      <trkpt lat="43.330376017838717" lon="1.319119026884437">
        <ele>202.00999999999999</ele>
        <time>2025-04-26T10:02:59Z</time>
      </trkpt>
      <trkpt lat="43.330454975366592" lon="1.318643018603325">
        <ele>203.94</ele>
        <time>2025-04-26T10:03:03Z</time>
      </trkpt>
      <trkpt lat="43.330685980618" lon="1.317832991480827">
        <ele>207.30000000000001</ele>
        <time>2025-04-26T10:03:10Z</time>
      </trkpt>
      <trkpt lat="43.330710036680102" lon="1.317712040618062">
        <ele>207.30000000000001</ele>
        <time>2025-04-26T10:03:11Z</time>
      </trkpt>
      <trkpt lat="43.330759992823005" lon="1.317459996789694">
        <ele>206.81999999999999</ele>
        <time>2025-04-26T10:03:13Z</time>
      </trkpt>
      <trkpt lat="43.330926038324833" lon="1.317304009571672">
        <ele>207.30000000000001</ele>
        <time>2025-04-26T10:03:15Z</time>
      </trkpt>
      <trkpt lat="43.330966020002961" lon="1.316852979362011">
        <ele>207.30000000000001</ele>
        <time>2025-04-26T10:03:18Z</time>
      </trkpt>
      <trkpt lat="43.33102704025805" lon="1.316735967993736">
        <ele>207.78</ele>
        <time>2025-04-26T10:03:19Z</time>
      </trkpt>
      <trkpt lat="43.331090994179249" lon="1.31661401130259">
        <ele>208.25999999999999</ele>
        <time>2025-04-26T10:03:20Z</time>
      </trkpt>
      <trkpt lat="43.331683008000255" lon="1.315326970070601">
        <ele>212.59</ele>
        <time>2025-04-26T10:03:29Z</time>
      </trkpt>
      <trkpt lat="43.332464033737779" lon="1.313887964934111">
        <ele>221.24000000000001</ele>
        <time>2025-04-26T10:03:40Z</time>
      </trkpt>
      <trkpt lat="43.332553971558809" lon="1.313780006021261">
        <ele>222.19999999999999</ele>
        <time>2025-04-26T10:03:41Z</time>
      </trkpt>
      <trkpt lat="43.332642987370491" lon="1.313672969117761">
        <ele>223.16</ele>
        <time>2025-04-26T10:03:42Z</time>
      </trkpt>
      <trkpt lat="43.332749018445611" lon="1.313596023246646">
        <ele>223.63999999999999</ele>
        <time>2025-04-26T10:03:43Z</time>
      </trkpt>
      <trkpt lat="43.33285597153008" lon="1.313525028526783">
        <ele>224.61000000000001</ele>
        <time>2025-04-26T10:03:44Z</time>
      </trkpt>
      <trkpt lat="43.332967031747103" lon="1.313468031585217">
        <ele>225.09</ele>
        <time>2025-04-26T10:03:45Z</time>
      </trkpt>
      <trkpt lat="43.333083037286997" lon="1.313426038250327">
        <ele>225.56999999999999</ele>
        <time>2025-04-26T10:03:46Z</time>
      </trkpt>
      <trkpt lat="43.333556028082967" lon="1.313255969434977">
        <ele>227.97</ele>
        <time>2025-04-26T10:03:50Z</time>
      </trkpt>
      <trkpt lat="43.333683013916016" lon="1.313210958614945">
        <ele>227.97</ele>
        <time>2025-04-26T10:03:51Z</time>
      </trkpt>
      <trkpt lat="43.333817962557077" lon="1.313140969723463">
        <ele>228.44999999999999</ele>
        <time>2025-04-26T10:03:52Z</time>
      </trkpt>
      <trkpt lat="43.333957018330693" lon="1.313048014417291">
        <ele>228.93000000000001</ele>
        <time>2025-04-26T10:03:53Z</time>
      </trkpt>
      <trkpt lat="43.334081992506981" lon="1.312915999442339">
        <ele>229.41</ele>
        <time>2025-04-26T10:03:54Z</time>
      </trkpt>
      <trkpt lat="43.334201015532017" lon="1.312760012224317">
        <ele>229.88999999999999</ele>
        <time>2025-04-26T10:03:55Z</time>
      </trkpt>
      <trkpt lat="43.334309980273247" lon="1.312592960894108">
        <ele>230.84999999999999</ele>
        <time>2025-04-26T10:03:56Z</time>
      </trkpt>
      <trkpt lat="43.334397990256548" lon="1.312391040846705">
        <ele>231.33000000000001</ele>
        <time>2025-04-26T10:03:57Z</time>
      </trkpt>
      <trkpt lat="43.334459010511637" lon="1.312174033373594">
        <ele>232.30000000000001</ele>
        <time>2025-04-26T10:03:58Z</time>
      </trkpt>
      <trkpt lat="43.334502009674907" lon="1.311944033950567">
        <ele>232.78</ele>
        <time>2025-04-26T10:03:59Z</time>
      </trkpt>
      <trkpt lat="43.334539979696274" lon="1.311703976243734">
        <ele>233.74000000000001</ele>
        <time>2025-04-26T10:04:00Z</time>
      </trkpt>
      <trkpt lat="43.334520030766726" lon="1.311493003740907">
        <ele>234.22</ele>
        <time>2025-04-26T10:04:01Z</time>
      </trkpt>
      <trkpt lat="43.334451969712973" lon="1.311216987669468">
        <ele>234.69999999999999</ele>
        <time>2025-04-26T10:04:02Z</time>
      </trkpt>
      <trkpt lat="43.334389021620154" lon="1.310965027660132">
        <ele>235.18000000000001</ele>
        <time>2025-04-26T10:04:03Z</time>
      </trkpt>
      <trkpt lat="43.334306962788105" lon="1.310723964124918">
        <ele>236.13999999999999</ele>
        <time>2025-04-26T10:04:04Z</time>
      </trkpt>
      <trkpt lat="43.334192968904972" lon="1.310493964701891">
        <ele>236.62</ele>
        <time>2025-04-26T10:04:05Z</time>
      </trkpt>
      <trkpt lat="43.334050979465246" lon="1.310290032997727">
        <ele>237.09999999999999</ele>
        <time>2025-04-26T10:04:06Z</time>
      </trkpt>
      <trkpt lat="43.333900021389127" lon="1.31008299998939">
        <ele>238.06</ele>
        <time>2025-04-26T10:04:07Z</time>
      </trkpt>
      <trkpt lat="43.333745962008834" lon="1.309877978637815">
        <ele>238.53999999999999</ele>
        <time>2025-04-26T10:04:08Z</time>
      </trkpt>
      <trkpt lat="43.33289603702724" lon="1.308257002383471">
        <ele>244.78999999999999</ele>
        <time>2025-04-26T10:04:15Z</time>
      </trkpt>
      <trkpt lat="43.332203021273017" lon="1.305614020675421">
        <ele>256.32999999999998</ele>
        <time>2025-04-26T10:04:25Z</time>
      </trkpt>
      <trkpt lat="43.332087015733123" lon="1.303023006767035">
        <ele>264.5</ele>
        <time>2025-04-26T10:04:34Z</time>
      </trkpt>
      <trkpt lat="43.332208972424269" lon="1.300935996696353">
        <ele>267.86000000000001</ele>
        <time>2025-04-26T10:04:41Z</time>
      </trkpt>
      <trkpt lat="43.332649022340775" lon="1.298310030251741">
        <ele>272.67000000000002</ele>
        <time>2025-04-26T10:04:50Z</time>
      </trkpt>
      <trkpt lat="43.332732003182173" lon="1.298061003908515">
        <ele>273.63</ele>
        <time>2025-04-26T10:04:51Z</time>
      </trkpt>
      <trkpt lat="43.332857983186841" lon="1.297833016142249">
        <ele>274.11000000000001</ele>
        <time>2025-04-26T10:04:52Z</time>
      </trkpt>
      <trkpt lat="43.332991003990173" lon="1.297603016719222">
        <ele>275.06999999999999</ele>
        <time>2025-04-26T10:04:53Z</time>
      </trkpt>
      <trkpt lat="43.33313500508666" lon="1.297386009246111">
        <ele>275.56</ele>
        <time>2025-04-26T10:04:54Z</time>
      </trkpt>
      <trkpt lat="43.333296021446586" lon="1.297178976237774">
        <ele>276.04000000000002</ele>
        <time>2025-04-26T10:04:55Z</time>
      </trkpt>
      <trkpt lat="43.334956979379058" lon="1.295162038877606">
        <ele>282.27999999999997</ele>
        <time>2025-04-26T10:05:05Z</time>
      </trkpt>
      <trkpt lat="43.335146997123957" lon="1.295009991154075">
        <ele>282.76999999999998</ele>
        <time>2025-04-26T10:05:06Z</time>
      </trkpt>
      <trkpt lat="43.335337014868855" lon="1.294858027249575">
        <ele>283.25</ele>
        <time>2025-04-26T10:05:07Z</time>
      </trkpt>
      <trkpt lat="43.335902960970998" lon="1.294404985383153">
        <ele>283.25</ele>
        <time>2025-04-26T10:05:10Z</time>
      </trkpt>
      <trkpt lat="43.336075963452458" lon="1.294229971244931">
        <ele>283.25</ele>
        <time>2025-04-26T10:05:11Z</time>
      </trkpt>
      <trkpt lat="43.337369961664081" lon="1.292617041617632">
        <ele>273.14999999999998</ele>
        <time>2025-04-26T10:05:19Z</time>
      </trkpt>
      <trkpt lat="43.338217958807945" lon="1.291743982583284">
        <ele>265.45999999999998</ele>
        <time>2025-04-26T10:05:24Z</time>
      </trkpt>
      <trkpt lat="43.338365983217955" lon="1.29154097288847">
        <ele>264.01999999999998</ele>
        <time>2025-04-26T10:05:25Z</time>
      </trkpt>
      <trkpt lat="43.338490035384893" lon="1.291313990950584">
        <ele>262.57999999999998</ele>
        <time>2025-04-26T10:05:26Z</time>
      </trkpt>
      <trkpt lat="43.338588019832969" lon="1.291054990142584">
        <ele>260.64999999999998</ele>
        <time>2025-04-26T10:05:27Z</time>
      </trkpt>
      <trkpt lat="43.338688015937805" lon="1.29078802652657">
        <ele>259.20999999999998</ele>
        <time>2025-04-26T10:05:28Z</time>
      </trkpt>
      <trkpt lat="43.338760016486049" lon="1.290502035990357">
        <ele>257.29000000000002</ele>
        <time>2025-04-26T10:05:29Z</time>
      </trkpt>
      <trkpt lat="43.338826987892389" lon="1.29020900465548">
        <ele>255.37</ele>
        <time>2025-04-26T10:05:30Z</time>
      </trkpt>
      <trkpt lat="43.338889013975859" lon="1.289914967492223">
        <ele>253.44</ele>
        <time>2025-04-26T10:05:31Z</time>
      </trkpt>
      <trkpt lat="43.339478010311723" lon="1.286344025284052">
        <ele>235.66</ele>
        <time>2025-04-26T10:05:43Z</time>
      </trkpt>
      <trkpt lat="43.339798031374812" lon="1.284566977992654">
        <ele>231.33000000000001</ele>
        <time>2025-04-26T10:05:50Z</time>
      </trkpt>
      <trkpt lat="43.339789984747767" lon="1.284331027418375">
        <ele>230.84999999999999</ele>
        <time>2025-04-26T10:05:51Z</time>
      </trkpt>
      <trkpt lat="43.339783027768135" lon="1.284102033823729">
        <ele>230.37</ele>
        <time>2025-04-26T10:05:52Z</time>
      </trkpt>
      <trkpt lat="43.339692000299692" lon="1.283380016684532">
        <ele>229.41</ele>
        <time>2025-04-26T10:05:55Z</time>
      </trkpt>
      <trkpt lat="43.339636009186506" lon="1.283127972856164">
        <ele>228.93000000000001</ele>
        <time>2025-04-26T10:05:56Z</time>
      </trkpt>
      <trkpt lat="43.339066039770842" lon="1.281299963593483">
        <ele>225.09</ele>
        <time>2025-04-26T10:06:03Z</time>
      </trkpt>
      <trkpt lat="43.338494980707765" lon="1.27905897796154">
        <ele>214.99000000000001</ele>
        <time>2025-04-26T10:06:11Z</time>
      </trkpt>
      <trkpt lat="43.338435972109437" lon="1.278494959697127">
        <ele>211.15000000000001</ele>
        <time>2025-04-26T10:06:13Z</time>
      </trkpt>
      <trkpt lat="43.338427003473043" lon="1.27821802161634">
        <ele>209.69999999999999</ele>
        <time>2025-04-26T10:06:14Z</time>
      </trkpt>
      <trkpt lat="43.338452987372875" lon="1.277936976402998">
        <ele>208.25999999999999</ele>
        <time>2025-04-26T10:06:15Z</time>
      </trkpt>
      <trkpt lat="43.3387849945575" lon="1.275203973054886">
        <ele>191.44</ele>
        <time>2025-04-26T10:06:25Z</time>
      </trkpt>
      <trkpt lat="43.338864035904408" lon="1.27495301887393">
        <ele>190.47999999999999</ele>
        <time>2025-04-26T10:06:26Z</time>
      </trkpt>
      <trkpt lat="43.339729970321059" lon="1.272929962724447">
        <ele>190</ele>
        <time>2025-04-26T10:06:34Z</time>
      </trkpt>
      <trkpt lat="43.340362971648574" lon="1.27061203122139">
        <ele>192.40000000000001</ele>
        <time>2025-04-26T10:06:43Z</time>
      </trkpt>
      <trkpt lat="43.340401025488973" lon="1.270360993221402">
        <ele>191.91999999999999</ele>
        <time>2025-04-26T10:06:44Z</time>
      </trkpt>
      <trkpt lat="43.340412005782127" lon="1.270097969099879">
        <ele>191.91999999999999</ele>
        <time>2025-04-26T10:06:45Z</time>
      </trkpt>
      <trkpt lat="43.34041602909565" lon="1.269833017140627">
        <ele>191.44</ele>
        <time>2025-04-26T10:06:46Z</time>
      </trkpt>
      <trkpt lat="43.340391973033547" lon="1.269563036039472">
        <ele>191.44</ele>
        <time>2025-04-26T10:06:47Z</time>
      </trkpt>
      <trkpt lat="43.340348973870277" lon="1.269292971119285">
        <ele>190.96000000000001</ele>
        <time>2025-04-26T10:06:48Z</time>
      </trkpt>
      <trkpt lat="43.340284014120698" lon="1.26902399584651">
        <ele>190.47999999999999</ele>
        <time>2025-04-26T10:06:49Z</time>
      </trkpt>
      <trkpt lat="43.340216958895326" lon="1.268750997260213">
        <ele>190</ele>
        <time>2025-04-26T10:06:50Z</time>
      </trkpt>
      <trkpt lat="43.339799959212542" lon="1.266845958307385">
        <ele>187.11000000000001</ele>
        <time>2025-04-26T10:06:57Z</time>
      </trkpt>
      <trkpt lat="43.339220015332103" lon="1.264876965433359">
        <ele>186.15000000000001</ele>
        <time>2025-04-26T10:07:05Z</time>
      </trkpt>
      <trkpt lat="43.338653985410929" lon="1.263454975560308">
        <ele>185.19</ele>
        <time>2025-04-26T10:07:13Z</time>
      </trkpt>
      <trkpt lat="43.337977984920144" lon="1.262123007327318">
        <ele>185.66999999999999</ele>
        <time>2025-04-26T10:07:23Z</time>
      </trkpt>
      <trkpt lat="43.337439028546214" lon="1.260724989697337">
        <ele>187.11000000000001</ele>
        <time>2025-04-26T10:07:33Z</time>
      </trkpt>
      <trkpt lat="43.337287986651063" lon="1.260287035256624">
        <ele>186.63</ele>
        <time>2025-04-26T10:07:37Z</time>
      </trkpt>
      <trkpt lat="43.337287986651063" lon="1.260187961161137">
        <ele>186.15000000000001</ele>
        <time>2025-04-26T10:07:38Z</time>
      </trkpt>
      <trkpt lat="43.337320005521178" lon="1.260059969499707">
        <ele>185.66999999999999</ele>
        <time>2025-04-26T10:07:39Z</time>
      </trkpt>
      <trkpt lat="43.337356969714165" lon="1.259927032515407">
        <ele>185.19</ele>
        <time>2025-04-26T10:07:40Z</time>
      </trkpt>
      <trkpt lat="43.337435005232692" lon="1.259854026138783">
        <ele>184.71000000000001</ele>
        <time>2025-04-26T10:07:41Z</time>
      </trkpt>
      <trkpt lat="43.337514968588948" lon="1.259779008105397">
        <ele>184.22999999999999</ele>
        <time>2025-04-26T10:07:42Z</time>
      </trkpt>
      <trkpt lat="43.338378975167871" lon="1.259010974317789">
        <ele>182.31</ele>
        <time>2025-04-26T10:07:51Z</time>
      </trkpt>
      <trkpt lat="43.339705998077989" lon="1.257857959717512">
        <ele>185.19</ele>
        <time>2025-04-26T10:08:04Z</time>
      </trkpt>
      <trkpt lat="43.340409994125366" lon="1.257350016385317">
        <ele>189.03999999999999</ele>
        <time>2025-04-26T10:08:11Z</time>
      </trkpt>
      <trkpt lat="43.340492974966764" lon="1.257309028878808">
        <ele>190</ele>
        <time>2025-04-26T10:08:12Z</time>
      </trkpt>
      <trkpt lat="43.340592971071601" lon="1.257334006950259">
        <ele>190.47999999999999</ele>
        <time>2025-04-26T10:08:13Z</time>
      </trkpt>
      <trkpt lat="43.340671006590128" lon="1.257308023050427">
        <ele>190.96000000000001</ele>
        <time>2025-04-26T10:08:14Z</time>
      </trkpt>
      <trkpt lat="43.340764967724681" lon="1.257140971720219">
        <ele>191.44</ele>
        <time>2025-04-26T10:08:15Z</time>
      </trkpt>
      <trkpt lat="43.34080302156508" lon="1.257097972556949">
        <ele>191.44</ele>
        <time>2025-04-26T10:08:16Z</time>
      </trkpt>
      <trkpt lat="43.340883990749717" lon="1.257007028907538">
        <ele>191.91999999999999</ele>
        <time>2025-04-26T10:08:17Z</time>
      </trkpt>
      <trkpt lat="43.341802982613444" lon="1.255949987098575">
        <ele>198.16999999999999</ele>
        <time>2025-04-26T10:08:27Z</time>
      </trkpt>
      <trkpt lat="43.342464985325933" lon="1.255077011883259">
        <ele>198.65000000000001</ele>
        <time>2025-04-26T10:08:35Z</time>
      </trkpt>
      <trkpt lat="43.342519970610738" lon="1.254992019385099">
        <ele>198.16999999999999</ele>
        <time>2025-04-26T10:08:36Z</time>
      </trkpt>
      <trkpt lat="43.342659026384354" lon="1.254948014393449">
        <ele>197.69</ele>
        <time>2025-04-26T10:08:37Z</time>
      </trkpt>
      <trkpt lat="43.342713005840778" lon="1.254994031041861">
        <ele>197.21000000000001</ele>
        <time>2025-04-26T10:08:38Z</time>
      </trkpt>
      <trkpt lat="43.342776959761977" lon="1.255049016326666">
        <ele>197.21000000000001</ele>
        <time>2025-04-26T10:08:39Z</time>
      </trkpt>
      <trkpt lat="43.342849966138601" lon="1.255110958591104">
        <ele>196.72999999999999</ele>
        <time>2025-04-26T10:08:40Z</time>
      </trkpt>
      <trkpt lat="43.342916015535593" lon="1.255188994109631">
        <ele>196.72999999999999</ele>
        <time>2025-04-26T10:08:41Z</time>
      </trkpt>
      <trkpt lat="43.342977035790682" lon="1.255287984386087">
        <ele>196.72999999999999</ele>
        <time>2025-04-26T10:08:42Z</time>
      </trkpt>
      <trkpt lat="43.34303897805512" lon="1.255388986319304">
        <ele>196.25</ele>
        <time>2025-04-26T10:08:43Z</time>
      </trkpt>
      <trkpt lat="43.343066973611712" lon="1.255522007122636">
        <ele>196.25</ele>
        <time>2025-04-26T10:08:44Z</time>
      </trkpt>
      <trkpt lat="43.343076026067138" lon="1.255658967420459">
        <ele>196.25</ele>
        <time>2025-04-26T10:08:45Z</time>
      </trkpt>
      <trkpt lat="43.343074014410377" lon="1.255800034850836">
        <ele>196.72999999999999</ele>
        <time>2025-04-26T10:08:46Z</time>
      </trkpt>
      <trkpt lat="43.343035960569978" lon="1.255936995148659">
        <ele>196.72999999999999</ele>
        <time>2025-04-26T10:08:47Z</time>
      </trkpt>
      <trkpt lat="43.342971000820398" lon="1.25604503788054">
        <ele>196.72999999999999</ele>
        <time>2025-04-26T10:08:48Z</time>
      </trkpt>
      <trkpt lat="43.342877961695194" lon="1.256143022328615">
        <ele>196.72999999999999</ele>
        <time>2025-04-26T10:08:49Z</time>
      </trkpt>
      <trkpt lat="43.342777965590358" lon="1.256203036755323">
        <ele>196.72999999999999</ele>
        <time>2025-04-26T10:08:50Z</time>
      </trkpt>
      <trkpt lat="43.342657014727592" lon="1.256222985684872">
        <ele>197.21000000000001</ele>
        <time>2025-04-26T10:08:51Z</time>
      </trkpt>
      <trkpt lat="43.34254302084446" lon="1.256191972643137">
        <ele>197.21000000000001</ele>
        <time>2025-04-26T10:08:52Z</time>
      </trkpt>
      <trkpt lat="43.342433972284198" lon="1.256128018721938">
        <ele>196.72999999999999</ele>
        <time>2025-04-26T10:08:53Z</time>
      </trkpt>
      <trkpt lat="43.34233095869422" lon="1.25602500513196">
        <ele>196.72999999999999</ele>
        <time>2025-04-26T10:08:54Z</time>
      </trkpt>
      <trkpt lat="43.34222299978137" lon="1.255916962400079">
        <ele>196.25</ele>
        <time>2025-04-26T10:08:56Z</time>
      </trkpt>
      <trkpt lat="43.341051964089274" lon="1.254054000601172">
        <ele>198.16999999999999</ele>
        <time>2025-04-26T10:09:06Z</time>
      </trkpt>
      <trkpt lat="43.339754026383162" lon="1.251783007755876">
        <ele>195.77000000000001</ele>
        <time>2025-04-26T10:09:16Z</time>
      </trkpt>
      <trkpt lat="43.338251989334822" lon="1.249198028817773">
        <ele>195.28</ele>
        <time>2025-04-26T10:09:27Z</time>
      </trkpt>
      <trkpt lat="43.336630007252097" lon="1.246409034356475">
        <ele>198.16999999999999</ele>
        <time>2025-04-26T10:09:39Z</time>
      </trkpt>
      <trkpt lat="43.334584990516305" lon="1.242818981409073">
        <ele>198.65000000000001</ele>
        <time>2025-04-26T10:09:54Z</time>
      </trkpt>
      <trkpt lat="43.33270501345396" lon="1.239479966461659">
        <ele>201.53</ele>
        <time>2025-04-26T10:10:07Z</time>
      </trkpt>
      <trkpt lat="43.330538040027022" lon="1.235726969316602">
        <ele>203.46000000000001</ele>
        <time>2025-04-26T10:10:21Z</time>
      </trkpt>
      <trkpt lat="43.32847299054265" lon="1.232159966602922">
        <ele>200.56999999999999</ele>
        <time>2025-04-26T10:10:33Z</time>
      </trkpt>
      <trkpt lat="43.326948992908001" lon="1.229596026241779">
        <ele>201.53</ele>
        <time>2025-04-26T10:10:42Z</time>
      </trkpt>
      <trkpt lat="43.324406007304788" lon="1.225189995020628">
        <ele>203.94</ele>
        <time>2025-04-26T10:10:57Z</time>
      </trkpt>
      <trkpt lat="43.321971986442804" lon="1.220944980159402">
        <ele>203.94</ele>
        <time>2025-04-26T10:11:11Z</time>
      </trkpt>
      <trkpt lat="43.319220039993525" lon="1.216219011694193">
        <ele>203.94</ele>
        <time>2025-04-26T10:11:26Z</time>
      </trkpt>
      <trkpt lat="43.316817032173276" lon="1.212096959352493">
        <ele>202.97999999999999</ele>
        <time>2025-04-26T10:11:39Z</time>
      </trkpt>
      <trkpt lat="43.313944973051548" lon="1.207147026434541">
        <ele>203.94</ele>
        <time>2025-04-26T10:11:55Z</time>
      </trkpt>
      <trkpt lat="43.310429016128182" lon="1.201083976775408">
        <ele>205.38</ele>
        <time>2025-04-26T10:12:14Z</time>
      </trkpt>
      <trkpt lat="43.306896965950727" lon="1.195017993450165">
        <ele>206.81999999999999</ele>
        <time>2025-04-26T10:12:33Z</time>
      </trkpt>
      <trkpt lat="43.304298995062709" lon="1.190548008307815">
        <ele>206.81999999999999</ele>
        <time>2025-04-26T10:12:47Z</time>
      </trkpt>
      <trkpt lat="43.301884001120925" lon="1.186408018693328">
        <ele>208.74000000000001</ele>
        <time>2025-04-26T10:13:00Z</time>
      </trkpt>
      <trkpt lat="43.298355974256992" lon="1.180346980690956">
        <ele>211.15000000000001</ele>
        <time>2025-04-26T10:13:19Z</time>
      </trkpt>
      <trkpt lat="43.294806992635131" lon="1.174291977658868">
        <ele>213.55000000000001</ele>
        <time>2025-04-26T10:13:38Z</time>
      </trkpt>
      <trkpt lat="43.291580965742469" lon="1.168935019522905">
        <ele>215.94999999999999</ele>
        <time>2025-04-26T10:13:55Z</time>
      </trkpt>
      <trkpt lat="43.289341991767287" lon="1.165104992687702">
        <ele>216.91</ele>
        <time>2025-04-26T10:14:07Z</time>
      </trkpt>
      <trkpt lat="43.286199029535055" lon="1.159661030396819">
        <ele>218.84</ele>
        <time>2025-04-26T10:14:24Z</time>
      </trkpt>
      <trkpt lat="43.283278020098805" lon="1.154512027278543">
        <ele>220.75999999999999</ele>
        <time>2025-04-26T10:14:40Z</time>
      </trkpt>
      <trkpt lat="43.280328009277582" lon="1.149375010281801">
        <ele>223.16</ele>
        <time>2025-04-26T10:14:56Z</time>
      </trkpt>
      <trkpt lat="43.276421958580613" lon="1.142698992043734">
        <ele>224.61000000000001</ele>
        <time>2025-04-26T10:15:17Z</time>
      </trkpt>
      <trkpt lat="43.273822981864214" lon="1.138230012729764">
        <ele>227.00999999999999</ele>
        <time>2025-04-26T10:15:31Z</time>
      </trkpt>
      <trkpt lat="43.271025018766522" lon="1.13345199264586">
        <ele>232.78</ele>
        <time>2025-04-26T10:15:46Z</time>
      </trkpt>
      <trkpt lat="43.267489029094577" lon="1.127391960471869">
        <ele>235.66</ele>
        <time>2025-04-26T10:16:05Z</time>
      </trkpt>
      <trkpt lat="43.263957984745502" lon="1.121337041258812">
        <ele>237.58000000000001</ele>
        <time>2025-04-26T10:16:24Z</time>
      </trkpt>
      <trkpt lat="43.261253982782364" lon="1.116683995351195">
        <ele>239.99000000000001</ele>
        <time>2025-04-26T10:16:39Z</time>
      </trkpt>
      <trkpt lat="43.259579027071595" lon="1.113812020048499">
        <ele>241.43000000000001</ele>
        <time>2025-04-26T10:16:50Z</time>
      </trkpt>
      <trkpt lat="43.258180003613234" lon="1.111416975036264">
        <ele>243.83000000000001</ele>
        <time>2025-04-26T10:16:58Z</time>
      </trkpt>
      <trkpt lat="43.254982978105545" lon="1.105934036895633">
        <ele>245.75</ele>
        <time>2025-04-26T10:17:16Z</time>
      </trkpt>
      <trkpt lat="43.251878991723061" lon="1.100611025467515">
        <ele>248.16</ele>
        <time>2025-04-26T10:17:34Z</time>
      </trkpt>
      <trkpt lat="43.249077005311847" lon="1.095807021483779">
        <ele>249.12</ele>
        <time>2025-04-26T10:17:50Z</time>
      </trkpt>
      <trkpt lat="43.246304020285606" lon="1.091051967814565">
        <ele>250.08000000000001</ele>
        <time>2025-04-26T10:18:06Z</time>
      </trkpt>
      <trkpt lat="43.243610998615623" lon="1.086434964090586">
        <ele>251.03999999999999</ele>
        <time>2025-04-26T10:18:22Z</time>
      </trkpt>
      <trkpt lat="43.241125009953976" lon="1.082178968936205">
        <ele>252</ele>
        <time>2025-04-26T10:18:36Z</time>
      </trkpt>
      <trkpt lat="43.238055976107717" lon="1.076913960278034">
        <ele>255.37</ele>
        <time>2025-04-26T10:18:54Z</time>
      </trkpt>
      <trkpt lat="43.236485039815307" lon="1.074227979406714">
        <ele>254.88999999999999</ele>
        <time>2025-04-26T10:19:03Z</time>
      </trkpt>
      <trkpt lat="43.233693027868867" lon="1.069459011778235">
        <ele>258.25</ele>
        <time>2025-04-26T10:19:19Z</time>
      </trkpt>
      <trkpt lat="43.230655007064342" lon="1.064260974526405">
        <ele>259.20999999999998</ele>
        <time>2025-04-26T10:19:37Z</time>
      </trkpt>
      <trkpt lat="43.228676039725542" lon="1.060878960415721">
        <ele>261.13999999999999</ele>
        <time>2025-04-26T10:19:49Z</time>
      </trkpt>
      <trkpt lat="43.226595986634493" lon="1.057314975187182">
        <ele>264.5</ele>
        <time>2025-04-26T10:20:01Z</time>
      </trkpt>
      <trkpt lat="43.22343097999692" lon="1.051891967654228">
        <ele>258.25</ele>
        <time>2025-04-26T10:20:19Z</time>
      </trkpt>
      <trkpt lat="43.220798978582025" lon="1.047384012490511">
        <ele>259.20999999999998</ele>
        <time>2025-04-26T10:20:34Z</time>
      </trkpt>
      <trkpt lat="43.218153985217214" lon="1.042858958244324">
        <ele>259.69</ele>
        <time>2025-04-26T10:20:49Z</time>
      </trkpt>
      <trkpt lat="43.215141026303172" lon="1.037728982046247">
        <ele>258.73000000000002</ele>
        <time>2025-04-26T10:21:06Z</time>
      </trkpt>
      <trkpt lat="43.212689990177751" lon="1.033556973561645">
        <ele>259.20999999999998</ele>
        <time>2025-04-26T10:21:20Z</time>
      </trkpt>
      <trkpt lat="43.21019503287971" lon="1.029276000335813">
        <ele>260.17000000000002</ele>
        <time>2025-04-26T10:21:35Z</time>
      </trkpt>
      <trkpt lat="43.208825010806322" lon="1.026474013924599">
        <ele>260.64999999999998</ele>
        <time>2025-04-26T10:21:44Z</time>
      </trkpt>
      <trkpt lat="43.20798497647047" lon="1.023616036400199">
        <ele>260.17000000000002</ele>
        <time>2025-04-26T10:21:52Z</time>
      </trkpt>
      <trkpt lat="43.207244016230106" lon="1.019567996263504">
        <ele>259.69</ele>
        <time>2025-04-26T10:22:03Z</time>
      </trkpt>
      <trkpt lat="43.206466007977724" lon="1.01672301068902">
        <ele>260.17000000000002</ele>
        <time>2025-04-26T10:22:11Z</time>
      </trkpt>
      <trkpt lat="43.205218026414514" lon="1.013812981545925">
        <ele>260.64999999999998</ele>
        <time>2025-04-26T10:22:20Z</time>
      </trkpt>
      <trkpt lat="43.20334299467504" lon="1.00986996665597">
        <ele>261.13999999999999</ele>
        <time>2025-04-26T10:22:33Z</time>
      </trkpt>
      <trkpt lat="43.201212985441089" lon="1.005312977358699">
        <ele>262.10000000000002</ele>
        <time>2025-04-26T10:22:48Z</time>
      </trkpt>
      <trkpt lat="43.199330996721983" lon="1.001363005489111">
        <ele>265.45999999999998</ele>
        <time>2025-04-26T10:23:01Z</time>
      </trkpt>
      <trkpt lat="43.196730008348823" lon="0.99584000185132">
        <ele>267.86000000000001</ele>
        <time>2025-04-26T10:23:19Z</time>
      </trkpt>
      <trkpt lat="43.194242008030415" lon="0.990563007071614">
        <ele>268.82999999999998</ele>
        <time>2025-04-26T10:23:36Z</time>
      </trkpt>
      <trkpt lat="43.192032035440207" lon="0.986050022765994">
        <ele>271.23000000000002</ele>
        <time>2025-04-26T10:23:51Z</time>
      </trkpt>
      <trkpt lat="43.19062203168869" lon="0.984091004356742">
        <ele>271.70999999999998</ele>
        <time>2025-04-26T10:23:59Z</time>
      </trkpt>
      <trkpt lat="43.188746999949217" lon="0.98198002204299">
        <ele>269.79000000000002</ele>
        <time>2025-04-26T10:24:10Z</time>
      </trkpt>
      <trkpt lat="43.187332972884178" lon="0.980502963066101">
        <ele>266.89999999999998</ele>
        <time>2025-04-26T10:24:20Z</time>
      </trkpt>
      <trkpt lat="43.187232976779342" lon="0.980333983898163">
        <ele>267.38</ele>
        <time>2025-04-26T10:24:21Z</time>
      </trkpt>
      <trkpt lat="43.187143038958311" lon="0.980153018608689">
        <ele>267.38</ele>
        <time>2025-04-26T10:24:22Z</time>
      </trkpt>
      <trkpt lat="43.186687985435128" lon="0.979420021176338">
        <ele>267.38</ele>
        <time>2025-04-26T10:24:27Z</time>
      </trkpt>
      <trkpt lat="43.186585977673531" lon="0.979309966787696">
        <ele>267.38</ele>
        <time>2025-04-26T10:24:28Z</time>
      </trkpt>
      <trkpt lat="43.186484975740314" lon="0.979201002046466">
        <ele>267.38</ele>
        <time>2025-04-26T10:24:29Z</time>
      </trkpt>
      <trkpt lat="43.186381962150335" lon="0.979175018146634">
        <ele>267.38</ele>
        <time>2025-04-26T10:24:30Z</time>
      </trkpt>
      <trkpt lat="43.186257993802428" lon="0.97914501093328">
        <ele>267.38</ele>
        <time>2025-04-26T10:24:31Z</time>
      </trkpt>
      <trkpt lat="43.186136037111282" lon="0.979116009548306">
        <ele>267.38</ele>
        <time>2025-04-26T10:24:32Z</time>
      </trkpt>
      <trkpt lat="43.18602598272264" lon="0.979090025648475">
        <ele>267.38</ele>
        <time>2025-04-26T10:24:33Z</time>
      </trkpt>
      <trkpt lat="43.185947025194764" lon="0.979070998728275">
        <ele>267.38</ele>
        <time>2025-04-26T10:24:34Z</time>
      </trkpt>
      <trkpt lat="43.185847029089928" lon="0.979023976251483">
        <ele>267.38</ele>
        <time>2025-04-26T10:24:35Z</time>
      </trkpt>
      <trkpt lat="43.185787014663219" lon="0.97899598069489">
        <ele>267.38</ele>
        <time>2025-04-26T10:24:37Z</time>
      </trkpt>
      <trkpt lat="43.185652988031507" lon="0.978933032602072">
        <ele>267.38</ele>
        <time>2025-04-26T10:24:39Z</time>
      </trkpt>
      <trkpt lat="43.185610994696617" lon="0.978905959054828">
        <ele>266.89999999999998</ele>
        <time>2025-04-26T10:24:40Z</time>
      </trkpt>
      <trkpt lat="43.185564978048205" lon="0.978860026225448">
        <ele>266.89999999999998</ele>
        <time>2025-04-26T10:24:41Z</time>
      </trkpt>
      <trkpt lat="43.185506975278258" lon="0.978833036497235">
        <ele>266.89999999999998</ele>
        <time>2025-04-26T10:24:42Z</time>
      </trkpt>
      <trkpt lat="43.185451989993453" lon="0.978808980435133">
        <ele>266.89999999999998</ele>
        <time>2025-04-26T10:24:43Z</time>
      </trkpt>
      <trkpt lat="43.185393987223506" lon="0.978787019848824">
        <ele>266.89999999999998</ele>
        <time>2025-04-26T10:24:44Z</time>
      </trkpt>
      <trkpt lat="43.185260966420174" lon="0.978750977665186">
        <ele>266.89999999999998</ele>
        <time>2025-04-26T10:24:46Z</time>
      </trkpt>
      <trkpt lat="43.185174968093634" lon="0.978727005422115">
        <ele>266.89999999999998</ele>
        <time>2025-04-26T10:24:47Z</time>
      </trkpt>
      <trkpt lat="43.185109002515674" lon="0.978666990995407">
        <ele>266.89999999999998</ele>
        <time>2025-04-26T10:24:48Z</time>
      </trkpt>
      <trkpt lat="43.185031972825527" lon="0.978595996275544">
        <ele>266.89999999999998</ele>
        <time>2025-04-26T10:24:49Z</time>
      </trkpt>
      <trkpt lat="43.184954021126032" lon="0.97852298989892">
        <ele>266.42000000000002</ele>
        <time>2025-04-26T10:24:50Z</time>
      </trkpt>
      <trkpt lat="43.184877997264266" lon="0.978412013500929">
        <ele>266.42000000000002</ele>
        <time>2025-04-26T10:24:51Z</time>
      </trkpt>
      <trkpt lat="43.184836003929377" lon="0.978274969384074">
        <ele>265.94</ele>
        <time>2025-04-26T10:24:52Z</time>
      </trkpt>
      <trkpt lat="43.184787975624204" lon="0.978133985772729">
        <ele>265.45999999999998</ele>
        <time>2025-04-26T10:24:53Z</time>
      </trkpt>
      <trkpt lat="43.184280032292008" lon="0.976925985887647">
        <ele>263.54000000000002</ele>
        <time>2025-04-26T10:25:01Z</time>
      </trkpt>
      <trkpt lat="43.183950036764145" lon="0.976193994283676">
        <ele>264.01999999999998</ele>
        <time>2025-04-26T10:25:06Z</time>
      </trkpt>
      <trkpt lat="43.183885999023914" lon="0.97605099901557">
        <ele>263.54000000000002</ele>
        <time>2025-04-26T10:25:07Z</time>
      </trkpt>
      <trkpt lat="43.183318041265011" lon="0.974815003573895">
        <ele>266.89999999999998</ele>
        <time>2025-04-26T10:25:16Z</time>
      </trkpt>
      <trkpt lat="43.182305004447699" lon="0.972565971314907">
        <ele>272.67000000000002</ele>
        <time>2025-04-26T10:25:33Z</time>
      </trkpt>
      <trkpt lat="43.182152034714818" lon="0.972328009083867">
        <ele>273.63</ele>
        <time>2025-04-26T10:25:35Z</time>
      </trkpt>
      <trkpt lat="43.182084979489446" lon="0.972226001322269">
        <ele>273.63</ele>
        <time>2025-04-26T10:25:36Z</time>
      </trkpt>
      <trkpt lat="43.181808041408658" lon="0.971928024664521">
        <ele>274.11000000000001</ele>
        <time>2025-04-26T10:25:39Z</time>
      </trkpt>
      <trkpt lat="43.180873040109873" lon="0.971272978931665">
        <ele>278.44</ele>
        <time>2025-04-26T10:25:48Z</time>
      </trkpt>
      <trkpt lat="43.180630970746279" lon="0.971125038340688">
        <ele>278.44</ele>
        <time>2025-04-26T10:25:50Z</time>
      </trkpt>
      <trkpt lat="43.18052401766181" lon="0.971056977286935">
        <ele>278.44</ele>
        <time>2025-04-26T10:25:51Z</time>
      </trkpt>
      <trkpt lat="43.180418992415071" lon="0.970990005880594">
        <ele>278.44</ele>
        <time>2025-04-26T10:25:52Z</time>
      </trkpt>
      <trkpt lat="43.179630003869534" lon="0.970489019528031">
        <ele>282.76999999999998</ele>
        <time>2025-04-26T10:25:59Z</time>
      </trkpt>
      <trkpt lat="43.178825005888939" lon="0.969973029568791">
        <ele>289.49000000000001</ele>
        <time>2025-04-26T10:26:07Z</time>
      </trkpt>
      <trkpt lat="43.177857985720038" lon="0.969350002706051">
        <ele>290.94</ele>
        <time>2025-04-26T10:26:16Z</time>
      </trkpt>
      <trkpt lat="43.177779028192163" lon="0.96930499188602">
        <ele>290.45999999999998</ele>
        <time>2025-04-26T10:26:17Z</time>
      </trkpt>
      <trkpt lat="43.176779989153147" lon="0.968711972236633">
        <ele>287.56999999999999</ele>
        <time>2025-04-26T10:26:27Z</time>
      </trkpt>
      <trkpt lat="43.175692018121481" lon="0.968009987846017">
        <ele>286.61000000000001</ele>
        <time>2025-04-26T10:26:37Z</time>
      </trkpt>
      <trkpt lat="43.17470395937562" lon="0.967289982363582">
        <ele>280.36000000000001</ele>
        <time>2025-04-26T10:26:46Z</time>
      </trkpt>
      <trkpt lat="43.173898039385676" lon="0.966399991884828">
        <ele>277.48000000000002</ele>
        <time>2025-04-26T10:26:54Z</time>
      </trkpt>
      <trkpt lat="43.17360601387918" lon="0.966077037155628">
        <ele>276.51999999999998</ele>
        <time>2025-04-26T10:26:58Z</time>
      </trkpt>
      <trkpt lat="43.173565026372671" lon="0.966032026335597">
        <ele>276.04000000000002</ele>
        <time>2025-04-26T10:26:59Z</time>
      </trkpt>
      <trkpt lat="43.173501994460821" lon="0.965766990557313">
        <ele>275.56</ele>
        <time>2025-04-26T10:27:01Z</time>
      </trkpt>
      <trkpt lat="43.173497971147299" lon="0.965747041627765">
        <ele>274.58999999999997</ele>
        <time>2025-04-26T10:27:03Z</time>
      </trkpt>
      <trkpt lat="43.173482967540622" lon="0.965669006109238">
        <ele>274.11000000000001</ele>
        <time>2025-04-26T10:27:04Z</time>
      </trkpt>
      <trkpt lat="43.173465030267835" lon="0.965584013611078">
        <ele>274.11000000000001</ele>
        <time>2025-04-26T10:27:05Z</time>
      </trkpt>
      <trkpt lat="43.173423958942294" lon="0.965502960607409">
        <ele>273.63</ele>
        <time>2025-04-26T10:27:06Z</time>
      </trkpt>
      <trkpt lat="43.173377020284534" lon="0.965434983372688">
        <ele>273.63</ele>
        <time>2025-04-26T10:27:07Z</time>
      </trkpt>
      <trkpt lat="43.173325974494219" lon="0.965361976996064">
        <ele>273.14999999999998</ele>
        <time>2025-04-26T10:27:08Z</time>
      </trkpt>
      <trkpt lat="43.173263026401401" lon="0.965304980054498">
        <ele>273.14999999999998</ele>
        <time>2025-04-26T10:27:09Z</time>
      </trkpt>
      <trkpt lat="43.173194965347648" lon="0.965256029739976">
        <ele>273.63</ele>
        <time>2025-04-26T10:27:10Z</time>
      </trkpt>
      <trkpt lat="43.173118019476533" lon="0.965225016698241">
        <ele>273.63</ele>
        <time>2025-04-26T10:27:11Z</time>
      </trkpt>
      <trkpt lat="43.173032021149993" lon="0.965214036405087">
        <ele>273.63</ele>
        <time>2025-04-26T10:27:12Z</time>
      </trkpt>
      <trkpt lat="43.172944011166692" lon="0.96520196646452">
        <ele>273.63</ele>
        <time>2025-04-26T10:27:13Z</time>
      </trkpt>
      <trkpt lat="43.172859018668532" lon="0.965189980342984">
        <ele>273.63</ele>
        <time>2025-04-26T10:27:14Z</time>
      </trkpt>
      <trkpt lat="43.172792969271541" lon="0.965227028355002">
        <ele>274.11000000000001</ele>
        <time>2025-04-26T10:27:15Z</time>
      </trkpt>
      <trkpt lat="43.172732032835484" lon="0.965283019468188">
        <ele>274.11000000000001</ele>
        <time>2025-04-26T10:27:16Z</time>
      </trkpt>
      <trkpt lat="43.172673024237156" lon="0.965335993096232">
        <ele>274.58999999999997</ele>
        <time>2025-04-26T10:27:17Z</time>
      </trkpt>
      <trkpt lat="43.172615021467209" lon="0.965388966724277">
        <ele>274.11000000000001</ele>
        <time>2025-04-26T10:27:18Z</time>
      </trkpt>
      <trkpt lat="43.172601023688912" lon="0.965482005849481">
        <ele>274.58999999999997</ele>
        <time>2025-04-26T10:27:19Z</time>
      </trkpt>
      <trkpt lat="43.172601023688912" lon="0.965593988075852">
        <ele>274.58999999999997</ele>
        <time>2025-04-26T10:27:20Z</time>
      </trkpt>
      <trkpt lat="43.1722960062325" lon="0.966240987181664">
        <ele>272.67000000000002</ele>
        <time>2025-04-26T10:27:25Z</time>
      </trkpt>
      <trkpt lat="43.172240015119314" lon="0.966365961357951">
        <ele>272.19</ele>
        <time>2025-04-26T10:27:26Z</time>
      </trkpt>
      <trkpt lat="43.172178994864225" lon="0.966500993818045">
        <ele>271.70999999999998</ele>
        <time>2025-04-26T10:27:27Z</time>
      </trkpt>
      <trkpt lat="43.171636015176773" lon="0.967798009514809">
        <ele>265.94</ele>
        <time>2025-04-26T10:27:35Z</time>
      </trkpt>
      <trkpt lat="43.171567032113671" lon="0.967961959540844">
        <ele>264.98000000000002</ele>
        <time>2025-04-26T10:27:36Z</time>
      </trkpt>
      <trkpt lat="43.17150098271668" lon="0.968119036406279">
        <ele>264.98000000000002</ele>
        <time>2025-04-26T10:27:37Z</time>
      </trkpt>
      <trkpt lat="43.17143501713872" lon="0.968275023624301">
        <ele>264.98000000000002</ele>
        <time>2025-04-26T10:27:38Z</time>
      </trkpt>
      <trkpt lat="43.171231001615524" lon="0.968834012746811">
        <ele>265.94</ele>
        <time>2025-04-26T10:27:43Z</time>
      </trkpt>
      <trkpt lat="43.171079959720373" lon="0.968959992751479">
        <ele>267.38</ele>
        <time>2025-04-26T10:27:46Z</time>
      </trkpt>
      <trkpt lat="43.171089012175798" lon="0.96906996332109">
        <ele>267.86000000000001</ele>
        <time>2025-04-26T10:27:47Z</time>
      </trkpt>
      <trkpt lat="43.170811990275979" lon="0.969969006255269">
        <ele>270.75</ele>
        <time>2025-04-26T10:27:54Z</time>
      </trkpt>
      <trkpt lat="43.170366995036602" lon="0.97151798196137">
        <ele>275.56</ele>
        <time>2025-04-26T10:28:02Z</time>
      </trkpt>
      <trkpt lat="43.169744974002242" lon="0.973652014508843">
        <ele>276.51999999999998</ele>
        <time>2025-04-26T10:28:14Z</time>
      </trkpt>
      <trkpt lat="43.169587980955839" lon="0.974092986434698">
        <ele>276.04000000000002</ele>
        <time>2025-04-26T10:28:17Z</time>
      </trkpt>
      <trkpt lat="43.16952402703464" lon="0.97420597448945">
        <ele>276.04000000000002</ele>
        <time>2025-04-26T10:28:18Z</time>
      </trkpt>
      <trkpt lat="43.169467030093074" lon="0.974305970594287">
        <ele>276.04000000000002</ele>
        <time>2025-04-26T10:28:19Z</time>
      </trkpt>
      <trkpt lat="43.169382037594914" lon="0.974457012489438">
        <ele>275.56</ele>
        <time>2025-04-26T10:28:21Z</time>
      </trkpt>
      <trkpt lat="43.169377008453012" lon="0.974539993330836">
        <ele>275.56</ele>
        <time>2025-04-26T10:28:22Z</time>
      </trkpt>
      <trkpt lat="43.169370973482728" lon="0.974628003314137">
        <ele>275.56</ele>
        <time>2025-04-26T10:28:23Z</time>
      </trkpt>
      <trkpt lat="43.169360999017954" lon="0.97491399385035">
        <ele>275.06999999999999</ele>
        <time>2025-04-26T10:28:26Z</time>
      </trkpt>
      <trkpt lat="43.169379020109773" lon="0.975201996043324">
        <ele>274.11000000000001</ele>
        <time>2025-04-26T10:28:31Z</time>
      </trkpt>
      <trkpt lat="43.169382037594914" lon="0.975251030176878">
        <ele>274.58999999999997</ele>
        <time>2025-04-26T10:28:32Z</time>
      </trkpt>
      <trkpt lat="43.169411960989237" lon="0.975270979106426">
        <ele>274.58999999999997</ele>
        <time>2025-04-26T10:28:33Z</time>
      </trkpt>
      <trkpt lat="43.169458983466029" lon="0.975302997976542">
        <ele>274.58999999999997</ele>
        <time>2025-04-26T10:28:34Z</time>
      </trkpt>
      <trkpt lat="43.169511035084724" lon="0.975337028503418">
        <ele>274.11000000000001</ele>
        <time>2025-04-26T10:28:35Z</time>
      </trkpt>
      <trkpt lat="43.16956995986402" lon="0.975368963554502">
        <ele>274.11000000000001</ele>
        <time>2025-04-26T10:28:36Z</time>
      </trkpt>
      <trkpt lat="43.170058960095048" lon="0.975637016817927">
        <ele>273.63</ele>
        <time>2025-04-26T10:28:46Z</time>
      </trkpt>
      <trkpt lat="43.170073041692376" lon="0.97564397379756">
        <ele>273.63</ele>
        <time>2025-04-26T10:28:57Z</time>
      </trkpt>
      <trkpt lat="43.170089973136783" lon="0.975654032081366">
        <ele>272.67000000000002</ele>
        <time>2025-04-26T10:29:35Z</time>
      </trkpt>
      <trkpt lat="43.170029958710074" lon="0.97562100738287">
        <ele>271.70999999999998</ele>
        <time>2025-04-26T10:29:38Z</time>
      </trkpt>
      <trkpt lat="43.170000035315752" lon="0.975604997947812">
        <ele>271.23000000000002</ele>
        <time>2025-04-26T10:29:39Z</time>
      </trkpt>
      <trkpt lat="43.169496031478047" lon="0.975326970219612">
        <ele>270.26999999999998</ele>
        <time>2025-04-26T10:29:46Z</time>
      </trkpt>
      <trkpt lat="43.168379981070757" lon="0.97476102411747">
        <ele>270.75</ele>
        <time>2025-04-26T10:29:55Z</time>
      </trkpt>
      <trkpt lat="43.168255006894469" lon="0.974689023569226">
        <ele>270.75</ele>
        <time>2025-04-26T10:29:56Z</time>
      </trkpt>
      <trkpt lat="43.168141013011336" lon="0.974623980000615">
        <ele>271.23000000000002</ele>
        <time>2025-04-26T10:29:57Z</time>
      </trkpt>
      <trkpt lat="43.167543970048428" lon="0.974175967276096">
        <ele>272.19</ele>
        <time>2025-04-26T10:30:03Z</time>
      </trkpt>
      <trkpt lat="43.167453026399016" lon="0.974069014191628">
        <ele>272.19</ele>
        <time>2025-04-26T10:30:04Z</time>
      </trkpt>
      <trkpt lat="43.167020017281175" lon="0.973525028675795">
        <ele>273.14999999999998</ele>
        <time>2025-04-26T10:30:09Z</time>
      </trkpt>
      <trkpt lat="43.166926978155971" lon="0.973442969843745">
        <ele>273.63</ele>
        <time>2025-04-26T10:30:10Z</time>
      </trkpt>
      <trkpt lat="43.166819019243121" lon="0.973386978730559">
        <ele>273.14999999999998</ele>
        <time>2025-04-26T10:30:11Z</time>
      </trkpt>
      <trkpt lat="43.166711982339621" lon="0.973329981788993">
        <ele>273.14999999999998</ele>
        <time>2025-04-26T10:30:12Z</time>
      </trkpt>
      <trkpt lat="43.166606035083532" lon="0.973274996504188">
        <ele>273.14999999999998</ele>
        <time>2025-04-26T10:30:13Z</time>
      </trkpt>
      <trkpt lat="43.166494974866509" lon="0.973227974027395">
        <ele>272.67000000000002</ele>
        <time>2025-04-26T10:30:14Z</time>
      </trkpt>
      <trkpt lat="43.166261035948992" lon="0.973188998177648">
        <ele>272.19</ele>
        <time>2025-04-26T10:30:16Z</time>
      </trkpt>
      <trkpt lat="43.165327962487936" lon="0.973159996792674">
        <ele>270.75</ele>
        <time>2025-04-26T10:30:24Z</time>
      </trkpt>
      <trkpt lat="43.165115984156728" lon="0.973243983462453">
        <ele>271.23000000000002</ele>
        <time>2025-04-26T10:30:26Z</time>
      </trkpt>
      <trkpt lat="43.165021017193794" lon="0.973299974575639">
        <ele>271.23000000000002</ele>
        <time>2025-04-26T10:30:27Z</time>
      </trkpt>
      <trkpt lat="43.164938036352396" lon="0.973348002880812">
        <ele>271.70999999999998</ele>
        <time>2025-04-26T10:30:28Z</time>
      </trkpt>
      <trkpt lat="43.164876010268927" lon="0.973383961245418">
        <ele>271.70999999999998</ele>
        <time>2025-04-26T10:30:29Z</time>
      </trkpt>
      <trkpt lat="43.164760004729033" lon="0.973369041457772">
        <ele>271.70999999999998</ele>
        <time>2025-04-26T10:30:30Z</time>
      </trkpt>
      <trkpt lat="43.16471298225224" lon="0.973297040909529">
        <ele>272.19</ele>
        <time>2025-04-26T10:30:31Z</time>
      </trkpt>
      <trkpt lat="43.164657996967435" lon="0.973212970420718">
        <ele>272.19</ele>
        <time>2025-04-26T10:30:32Z</time>
      </trkpt>
      <trkpt lat="43.164595970883965" lon="0.973119009286165">
        <ele>272.67000000000002</ele>
        <time>2025-04-26T10:30:33Z</time>
      </trkpt>
      <trkpt lat="43.164050979539752" lon="0.972288027405739">
        <ele>273.63</ele>
        <time>2025-04-26T10:30:40Z</time>
      </trkpt>
      <trkpt lat="43.16335997544229" lon="0.971294017508626">
        <ele>269.79000000000002</ele>
        <time>2025-04-26T10:30:49Z</time>
      </trkpt>
      <trkpt lat="43.163261990994215" lon="0.971229979768395">
        <ele>269.31</ele>
        <time>2025-04-26T10:30:50Z</time>
      </trkpt>
      <trkpt lat="43.163087982684374" lon="0.971116991713643">
        <ele>268.35000000000002</ele>
        <time>2025-04-26T10:30:52Z</time>
      </trkpt>
      <trkpt lat="43.163018999621272" lon="0.971070975065231">
        <ele>268.35000000000002</ele>
        <time>2025-04-26T10:30:53Z</time>
      </trkpt>
      <trkpt lat="43.162496974691749" lon="0.970749026164413">
        <ele>266.42000000000002</ele>
        <time>2025-04-26T10:31:00Z</time>
      </trkpt>
      <trkpt lat="43.161979978904128" lon="0.970435040071607">
        <ele>266.42000000000002</ele>
        <time>2025-04-26T10:31:05Z</time>
      </trkpt>
      <trkpt lat="43.161880988627672" lon="0.970375025644898">
        <ele>266.42000000000002</ele>
        <time>2025-04-26T10:31:06Z</time>
      </trkpt>
      <trkpt lat="43.160662008449435" lon="0.969815030694008">
        <ele>264.98000000000002</ele>
        <time>2025-04-26T10:31:17Z</time>
      </trkpt>
      <trkpt lat="43.160542985424399" lon="0.969773037359118">
        <ele>264.98000000000002</ele>
        <time>2025-04-26T10:31:18Z</time>
      </trkpt>
      <trkpt lat="43.160431003198028" lon="0.969733977690339">
        <ele>265.45999999999998</ele>
        <time>2025-04-26T10:31:19Z</time>
      </trkpt>
      <trkpt lat="43.158855037763715" lon="0.969214970245957">
        <ele>267.38</ele>
        <time>2025-04-26T10:31:33Z</time>
      </trkpt>
      <trkpt lat="43.158521018922329" lon="0.969060994684696">
        <ele>268.35000000000002</ele>
        <time>2025-04-26T10:31:36Z</time>
      </trkpt>
      <trkpt lat="43.158424040302634" lon="0.968977008014917">
        <ele>268.82999999999998</ele>
        <time>2025-04-26T10:31:37Z</time>
      </trkpt>
      <trkpt lat="43.157466994598508" lon="0.968138985335827">
        <ele>271.23000000000002</ele>
        <time>2025-04-26T10:31:47Z</time>
      </trkpt>
      <trkpt lat="43.157403040677309" lon="0.968068996444345">
        <ele>271.23000000000002</ele>
        <time>2025-04-26T10:31:48Z</time>
      </trkpt>
      <trkpt lat="43.157355012372136" lon="0.96801501698792">
        <ele>271.70999999999998</ele>
        <time>2025-04-26T10:31:49Z</time>
      </trkpt>
      <trkpt lat="43.157339002937078" lon="0.967861963436008">
        <ele>271.70999999999998</ele>
        <time>2025-04-26T10:31:50Z</time>
      </trkpt>
      <trkpt lat="43.157374961301684" lon="0.967790968716145">
        <ele>272.19</ele>
        <time>2025-04-26T10:31:51Z</time>
      </trkpt>
      <trkpt lat="43.157421983778477" lon="0.967702958732843">
        <ele>272.19</ele>
        <time>2025-04-26T10:31:52Z</time>
      </trkpt>
      <trkpt lat="43.157477974891663" lon="0.967600028961897">
        <ele>272.67000000000002</ele>
        <time>2025-04-26T10:31:53Z</time>
      </trkpt>
      <trkpt lat="43.157548969611526" lon="0.967493997886777">
        <ele>272.67000000000002</ele>
        <time>2025-04-26T10:31:54Z</time>
      </trkpt>
      <trkpt lat="43.157808976247907" lon="0.967128966003656">
        <ele>272.67000000000002</ele>
        <time>2025-04-26T10:31:57Z</time>
      </trkpt>
      <trkpt lat="43.158612968400121" lon="0.965959019958973">
        <ele>272.67000000000002</ele>
        <time>2025-04-26T10:32:05Z</time>
      </trkpt>
      <trkpt lat="43.158689998090267" lon="0.96582499332726">
        <ele>272.19</ele>
        <time>2025-04-26T10:32:06Z</time>
      </trkpt>
      <trkpt lat="43.158763004466891" lon="0.965689960867167">
        <ele>272.19</ele>
        <time>2025-04-26T10:32:07Z</time>
      </trkpt>
      <trkpt lat="43.158796029165387" lon="0.965539002791047">
        <ele>271.70999999999998</ele>
        <time>2025-04-26T10:32:08Z</time>
      </trkpt>
      <trkpt lat="43.15882695838809" lon="0.96539500169456">
        <ele>271.70999999999998</ele>
        <time>2025-04-26T10:32:09Z</time>
      </trkpt>
      <trkpt lat="43.158980011940002" lon="0.964890997856855">
        <ele>270.75</ele>
        <time>2025-04-26T10:32:14Z</time>
      </trkpt>
      <trkpt lat="43.159015970304608" lon="0.964837018400431">
        <ele>270.75</ele>
        <time>2025-04-26T10:32:15Z</time>
      </trkpt>
      <trkpt lat="43.159046983346343" lon="0.964789995923638">
        <ele>270.75</ele>
        <time>2025-04-26T10:32:16Z</time>
      </trkpt>
      <trkpt lat="43.159055029973388" lon="0.96470600925386">
        <ele>270.75</ele>
        <time>2025-04-26T10:32:17Z</time>
      </trkpt>
      <trkpt lat="43.159023011103272" lon="0.964669967070222">
        <ele>270.75</ele>
        <time>2025-04-26T10:32:18Z</time>
      </trkpt>
      <trkpt lat="43.158976994454861" lon="0.964619005098939">
        <ele>270.26999999999998</ele>
        <time>2025-04-26T10:32:19Z</time>
      </trkpt>
      <trkpt lat="43.158922009170055" lon="0.96455697901547">
        <ele>270.26999999999998</ele>
        <time>2025-04-26T10:32:20Z</time>
      </trkpt>
      <trkpt lat="43.158861994743347" lon="0.964489001780748">
        <ele>269.79000000000002</ele>
        <time>2025-04-26T10:32:21Z</time>
      </trkpt>
      <trkpt lat="43.158795023337007" lon="0.964413983747363">
        <ele>269.79000000000002</ele>
        <time>2025-04-26T10:32:22Z</time>
      </trkpt>
      <trkpt lat="43.158638030290604" lon="0.964237041771412">
        <ele>270.26999999999998</ele>
        <time>2025-04-26T10:32:24Z</time>
      </trkpt>
      <trkpt lat="43.158079963177443" lon="0.963555006310344">
        <ele>270.26999999999998</ele>
        <time>2025-04-26T10:32:30Z</time>
      </trkpt>
      <trkpt lat="43.157891035079956" lon="0.963282007724047">
        <ele>270.75</ele>
        <time>2025-04-26T10:32:32Z</time>
      </trkpt>
      <trkpt lat="43.156850002706051" lon="0.962094962596893">
        <ele>271.23000000000002</ele>
        <time>2025-04-26T10:32:41Z</time>
      </trkpt>
      <trkpt lat="43.156362008303404" lon="0.961535973474383">
        <ele>271.70999999999998</ele>
        <time>2025-04-26T10:32:45Z</time>
      </trkpt>
      <trkpt lat="43.15624700859189" lon="0.961363976821303">
        <ele>271.70999999999998</ele>
        <time>2025-04-26T10:32:46Z</time>
      </trkpt>
      <trkpt lat="43.155588023364544" lon="0.959793040528893">
        <ele>272.67000000000002</ele>
        <time>2025-04-26T10:32:53Z</time>
      </trkpt>
      <trkpt lat="43.154597030952573" lon="0.957941981032491">
        <ele>273.63</ele>
        <time>2025-04-26T10:33:02Z</time>
      </trkpt>
      <trkpt lat="43.154043992981315" lon="0.957244019955397">
        <ele>273.14999999999998</ele>
        <time>2025-04-26T10:33:06Z</time>
      </trkpt>
      <trkpt lat="43.15392698161304" lon="0.957040004432201">
        <ele>273.14999999999998</ele>
        <time>2025-04-26T10:33:07Z</time>
      </trkpt>
      <trkpt lat="43.152941018342972" lon="0.955207971855998">
        <ele>273.63</ele>
        <time>2025-04-26T10:33:16Z</time>
      </trkpt>
      <trkpt lat="43.152812020853162" lon="0.955036981031299">
        <ele>273.63</ele>
        <time>2025-04-26T10:33:17Z</time>
      </trkpt>
      <trkpt lat="43.152665002271533" lon="0.954880993813276">
        <ele>274.11000000000001</ele>
        <time>2025-04-26T10:33:18Z</time>
      </trkpt>
      <trkpt lat="43.152499962598085" lon="0.95475803129375">
        <ele>274.11000000000001</ele>
        <time>2025-04-26T10:33:19Z</time>
      </trkpt>
      <trkpt lat="43.152340035885572" lon="0.954638002440333">
        <ele>274.11000000000001</ele>
        <time>2025-04-26T10:33:20Z</time>
      </trkpt>
      <trkpt lat="43.152169967070222" lon="0.954549992457032">
        <ele>274.11000000000001</ele>
        <time>2025-04-26T10:33:21Z</time>
      </trkpt>
      <trkpt lat="43.151990007609129" lon="0.954470029100776">
        <ele>274.58999999999997</ele>
        <time>2025-04-26T10:33:22Z</time>
      </trkpt>
      <trkpt lat="43.15179998986423" lon="0.954415965825319">
        <ele>275.06999999999999</ele>
        <time>2025-04-26T10:33:23Z</time>
      </trkpt>
      <trkpt lat="43.15160402096808" lon="0.954379001632333">
        <ele>275.06999999999999</ele>
        <time>2025-04-26T10:33:24Z</time>
      </trkpt>
      <trkpt lat="43.150068037211895" lon="0.954157970845699">
        <ele>277.48000000000002</ele>
        <time>2025-04-26T10:33:32Z</time>
      </trkpt>
      <trkpt lat="43.149884976446629" lon="0.954174986109138">
        <ele>277.48000000000002</ele>
        <time>2025-04-26T10:33:33Z</time>
      </trkpt>
      <trkpt lat="43.149709040299058" lon="0.954229971393943">
        <ele>277.95999999999998</ele>
        <time>2025-04-26T10:33:34Z</time>
      </trkpt>
      <trkpt lat="43.149527991190553" lon="0.954301971942186">
        <ele>277.95999999999998</ele>
        <time>2025-04-26T10:33:35Z</time>
      </trkpt>
      <trkpt lat="43.148993980139494" lon="0.954464999958873">
        <ele>278.44</ele>
        <time>2025-04-26T10:33:38Z</time>
      </trkpt>
      <trkpt lat="43.14881200902164" lon="0.95445703715086">
        <ele>278.44</ele>
        <time>2025-04-26T10:33:39Z</time>
      </trkpt>
      <trkpt lat="43.14864001236856" lon="0.954405991360545">
        <ele>278.44</ele>
        <time>2025-04-26T10:33:40Z</time>
      </trkpt>
      <trkpt lat="43.14846902154386" lon="0.954356035217643">
        <ele>278.92000000000002</ele>
        <time>2025-04-26T10:33:41Z</time>
      </trkpt>
      <trkpt lat="43.148311022669077" lon="0.95430901274085">
        <ele>278.92000000000002</ele>
        <time>2025-04-26T10:33:42Z</time>
      </trkpt>
      <trkpt lat="43.148131985217333" lon="0.95420298166573">
        <ele>279.39999999999998</ele>
        <time>2025-04-26T10:33:43Z</time>
      </trkpt>
      <trkpt lat="43.147963006049395" lon="0.954103991389275">
        <ele>279.39999999999998</ele>
        <time>2025-04-26T10:33:44Z</time>
      </trkpt>
      <trkpt lat="43.147821016609669" lon="0.953962001949549">
        <ele>279.88</ele>
        <time>2025-04-26T10:33:45Z</time>
      </trkpt>
      <trkpt lat="43.147684978321195" lon="0.953818000853062">
        <ele>279.88</ele>
        <time>2025-04-26T10:33:46Z</time>
      </trkpt>
      <trkpt lat="43.147554975003004" lon="0.953678023070097">
        <ele>279.88</ele>
        <time>2025-04-26T10:33:47Z</time>
      </trkpt>
      <trkpt lat="43.147448021918535" lon="0.953493034467101">
        <ele>280.36000000000001</ele>
        <time>2025-04-26T10:33:48Z</time>
      </trkpt>
      <trkpt lat="43.147342996671796" lon="0.953310979530215">
        <ele>280.36000000000001</ele>
        <time>2025-04-26T10:33:49Z</time>
      </trkpt>
      <trkpt lat="43.147025993093848" lon="0.952801024541259">
        <ele>281.31999999999999</ele>
        <time>2025-04-26T10:33:52Z</time>
      </trkpt>
      <trkpt lat="43.146646963432431" lon="0.952362986281514">
        <ele>281.31999999999999</ele>
        <time>2025-04-26T10:33:55Z</time>
      </trkpt>
      <trkpt lat="43.146444959565997" lon="0.952003989368677">
        <ele>282.27999999999997</ele>
        <time>2025-04-26T10:33:57Z</time>
      </trkpt>
      <trkpt lat="43.14571799710393" lon="0.950281005352736">
        <ele>283.25</ele>
        <time>2025-04-26T10:34:05Z</time>
      </trkpt>
      <trkpt lat="43.145626969635487" lon="0.950061986222863">
        <ele>283.25</ele>
        <time>2025-04-26T10:34:06Z</time>
      </trkpt>
      <trkpt lat="43.14552303403616" lon="0.949573991820216">
        <ele>282.76999999999998</ele>
        <time>2025-04-26T10:34:08Z</time>
      </trkpt>
      <trkpt lat="43.145323963835835" lon="0.947424033656716">
        <ele>281.31999999999999</ele>
        <time>2025-04-26T10:34:16Z</time>
      </trkpt>
      <trkpt lat="43.145281970500946" lon="0.946969985961914">
        <ele>280.83999999999997</ele>
        <time>2025-04-26T10:34:18Z</time>
      </trkpt>
      <trkpt lat="43.145231008529663" lon="0.946749961003661">
        <ele>280.36000000000001</ele>
        <time>2025-04-26T10:34:19Z</time>
      </trkpt>
      <trkpt lat="43.145180968567729" lon="0.946534965187311">
        <ele>279.88</ele>
        <time>2025-04-26T10:34:20Z</time>
      </trkpt>
      <trkpt lat="43.145079966634512" lon="0.946362968534231">
        <ele>279.39999999999998</ele>
        <time>2025-04-26T10:34:21Z</time>
      </trkpt>
      <trkpt lat="43.144968990236521" lon="0.946185020729899">
        <ele>279.39999999999998</ele>
        <time>2025-04-26T10:34:22Z</time>
      </trkpt>
      <trkpt lat="43.144829012453556" lon="0.946049988269806">
        <ele>278.92000000000002</ele>
        <time>2025-04-26T10:34:23Z</time>
      </trkpt>
      <trkpt lat="43.14468601718545" lon="0.945915961638093">
        <ele>278.92000000000002</ele>
        <time>2025-04-26T10:34:24Z</time>
      </trkpt>
      <trkpt lat="43.144390974193811" lon="0.945637011900544">
        <ele>278.44</ele>
        <time>2025-04-26T10:34:26Z</time>
      </trkpt>
      <trkpt lat="43.144241021946073" lon="0.945496028289199">
        <ele>278.44</ele>
        <time>2025-04-26T10:34:27Z</time>
      </trkpt>
      <trkpt lat="43.144121998921037" lon="0.945300981402397">
        <ele>277.95999999999998</ele>
        <time>2025-04-26T10:34:28Z</time>
      </trkpt>
      <trkpt lat="43.143260003998876" lon="0.943583026528358">
        <ele>278.44</ele>
        <time>2025-04-26T10:34:36Z</time>
      </trkpt>
      <trkpt lat="43.142707971855998" lon="0.941988034173846">
        <ele>280.36000000000001</ele>
        <time>2025-04-26T10:34:43Z</time>
      </trkpt>
      <trkpt lat="43.142135990783572" lon="0.940586999058723">
        <ele>283.25</ele>
        <time>2025-04-26T10:34:50Z</time>
      </trkpt>
      <trkpt lat="43.142047980800271" lon="0.940417014062405">
        <ele>283.73000000000002</ele>
        <time>2025-04-26T10:34:51Z</time>
      </trkpt>
      <trkpt lat="43.141592005267739" lon="0.939798010513186">
        <ele>283.73000000000002</ele>
        <time>2025-04-26T10:34:57Z</time>
      </trkpt>
      <trkpt lat="43.141552023589611" lon="0.939602041617036">
        <ele>283.73000000000002</ele>
        <time>2025-04-26T10:34:58Z</time>
      </trkpt>
      <trkpt lat="43.141552023589611" lon="0.939516965299845">
        <ele>283.73000000000002</ele>
        <time>2025-04-26T10:34:59Z</time>
      </trkpt>
      <trkpt lat="43.141540037468076" lon="0.939328037202358">
        <ele>283.25</ele>
        <time>2025-04-26T10:35:01Z</time>
      </trkpt>
      <trkpt lat="43.141520004719496" lon="0.939233992248774">
        <ele>283.25</ele>
        <time>2025-04-26T10:35:02Z</time>
      </trkpt>
      <trkpt lat="43.141459990292788" lon="0.939043974503875">
        <ele>283.73000000000002</ele>
        <time>2025-04-26T10:35:04Z</time>
      </trkpt>
      <trkpt lat="43.141161007806659" lon="0.93808701261878">
        <ele>284.20999999999998</ele>
        <time>2025-04-26T10:35:13Z</time>
      </trkpt>
      <trkpt lat="43.141128988936543" lon="0.937978969886899">
        <ele>284.69</ele>
        <time>2025-04-26T10:35:14Z</time>
      </trkpt>
      <trkpt lat="43.141096970066428" lon="0.937874028459191">
        <ele>285.17000000000002</ele>
        <time>2025-04-26T10:35:15Z</time>
      </trkpt>
      <trkpt lat="43.141080960631371" lon="0.936654964461923">
        <ele>286.13</ele>
        <time>2025-04-26T10:35:25Z</time>
      </trkpt>
      <trkpt lat="43.141221022233367" lon="0.935703031718731">
        <ele>287.56999999999999</ele>
        <time>2025-04-26T10:35:33Z</time>
      </trkpt>
      <trkpt lat="43.141281036660075" lon="0.93540396541357">
        <ele>285.64999999999998</ele>
        <time>2025-04-26T10:35:36Z</time>
      </trkpt>
      <trkpt lat="43.141300985589623" lon="0.935302041471004">
        <ele>285.17000000000002</ele>
        <time>2025-04-26T10:35:37Z</time>
      </trkpt>
      <trkpt lat="43.141323029994965" lon="0.935197016224265">
        <ele>284.69</ele>
        <time>2025-04-26T10:35:38Z</time>
      </trkpt>
      <trkpt lat="43.141497960314155" lon="0.934485979378223">
        <ele>281.31999999999999</ele>
        <time>2025-04-26T10:35:46Z</time>
      </trkpt>
      <trkpt lat="43.141524028033018" lon="0.934401992708445">
        <ele>281.31999999999999</ele>
        <time>2025-04-26T10:35:47Z</time>
      </trkpt>
      <trkpt lat="43.14155101776123" lon="0.934312976896763">
        <ele>280.83999999999997</ele>
        <time>2025-04-26T10:35:48Z</time>
      </trkpt>
      <trkpt lat="43.141603991389275" lon="0.934137962758541">
        <ele>280.36000000000001</ele>
        <time>2025-04-26T10:35:50Z</time>
      </trkpt>
      <trkpt lat="43.141630981117487" lon="0.93404802493751">
        <ele>279.88</ele>
        <time>2025-04-26T10:35:51Z</time>
      </trkpt>
      <trkpt lat="43.14165998250246" lon="0.933953979983926">
        <ele>279.88</ele>
        <time>2025-04-26T10:35:52Z</time>
      </trkpt>
      <trkpt lat="43.141688983887434" lon="0.933858007192612">
        <ele>279.88</ele>
        <time>2025-04-26T10:35:53Z</time>
      </trkpt>
      <trkpt lat="43.141714967787266" lon="0.933763040229678">
        <ele>279.39999999999998</ele>
        <time>2025-04-26T10:35:54Z</time>
      </trkpt>
      <trkpt lat="43.141793003305793" lon="0.933400020003319">
        <ele>277.95999999999998</ele>
        <time>2025-04-26T10:35:58Z</time>
      </trkpt>
      <trkpt lat="43.141799960285425" lon="0.933309998363256">
        <ele>277.95999999999998</ele>
        <time>2025-04-26T10:35:59Z</time>
      </trkpt>
      <trkpt lat="43.141819993034005" lon="0.933044962584972">
        <ele>277</ele>
        <time>2025-04-26T10:36:02Z</time>
      </trkpt>
      <trkpt lat="43.141826028004289" lon="0.932968016713858">
        <ele>276.51999999999998</ele>
        <time>2025-04-26T10:36:03Z</time>
      </trkpt>
      <trkpt lat="43.141797026619315" lon="0.93282300978899">
        <ele>275.56</ele>
        <time>2025-04-26T10:36:05Z</time>
      </trkpt>
      <trkpt lat="43.141743969172239" lon="0.932675991207361">
        <ele>275.06999999999999</ele>
        <time>2025-04-26T10:36:07Z</time>
      </trkpt>
      <trkpt lat="43.141717985272408" lon="0.932602984830737">
        <ele>274.11000000000001</ele>
        <time>2025-04-26T10:36:08Z</time>
      </trkpt>
      <trkpt lat="43.141692001372576" lon="0.932529978454113">
        <ele>274.11000000000001</ele>
        <time>2025-04-26T10:36:09Z</time>
      </trkpt>
      <trkpt lat="43.141665011644363" lon="0.932454038411379">
        <ele>273.63</ele>
        <time>2025-04-26T10:36:10Z</time>
      </trkpt>
      <trkpt lat="43.14163701608777" lon="0.932379020377994">
        <ele>273.14999999999998</ele>
        <time>2025-04-26T10:36:11Z</time>
      </trkpt>
      <trkpt lat="43.141607008874416" lon="0.932291010394692">
        <ele>272.67000000000002</ele>
        <time>2025-04-26T10:36:12Z</time>
      </trkpt>
      <trkpt lat="43.141575995832682" lon="0.932201994583011">
        <ele>272.67000000000002</ele>
        <time>2025-04-26T10:36:13Z</time>
      </trkpt>
      <trkpt lat="43.141544982790947" lon="0.932110967114568">
        <ele>272.67000000000002</ele>
        <time>2025-04-26T10:36:14Z</time>
      </trkpt>
      <trkpt lat="43.141511958092451" lon="0.932016000151634">
        <ele>272.67000000000002</ele>
        <time>2025-04-26T10:36:15Z</time>
      </trkpt>
      <trkpt lat="43.141453033313155" lon="0.931845009326935">
        <ele>272.67000000000002</ele>
        <time>2025-04-26T10:36:17Z</time>
      </trkpt>
      <trkpt lat="43.141424031928182" lon="0.931760016828775">
        <ele>273.14999999999998</ele>
        <time>2025-04-26T10:36:18Z</time>
      </trkpt>
      <trkpt lat="43.141395030543208" lon="0.931677035987377">
        <ele>273.14999999999998</ele>
        <time>2025-04-26T10:36:19Z</time>
      </trkpt>
      <trkpt lat="43.141364017501473" lon="0.931589026004076">
        <ele>273.63</ele>
        <time>2025-04-26T10:36:20Z</time>
      </trkpt>
      <trkpt lat="43.141334010288119" lon="0.931501016020775">
        <ele>273.63</ele>
        <time>2025-04-26T10:36:21Z</time>
      </trkpt>
      <trkpt lat="43.141074003651738" lon="0.930747985839844">
        <ele>276.04000000000002</ele>
        <time>2025-04-26T10:36:30Z</time>
      </trkpt>
      <trkpt lat="43.141045002266765" lon="0.930663999170065">
        <ele>276.51999999999998</ele>
        <time>2025-04-26T10:36:33Z</time>
      </trkpt>
      <trkpt lat="43.141029998660088" lon="0.930643966421485">
        <ele>277</ele>
        <time>2025-04-26T10:36:34Z</time>
      </trkpt>
      <trkpt lat="43.141003008931875" lon="0.930656958371401">
        <ele>277.48000000000002</ele>
        <time>2025-04-26T10:36:35Z</time>
      </trkpt>
      <trkpt lat="43.140960009768605" lon="0.930676991119981">
        <ele>277.95999999999998</ele>
        <time>2025-04-26T10:36:36Z</time>
      </trkpt>
      <trkpt lat="43.140914998948574" lon="0.930699035525322">
        <ele>278.92000000000002</ele>
        <time>2025-04-26T10:36:37Z</time>
      </trkpt>
      <trkpt lat="43.140865964815021" lon="0.930723007768393">
        <ele>279.39999999999998</ele>
        <time>2025-04-26T10:36:38Z</time>
      </trkpt>
      <trkpt lat="43.140801005065441" lon="0.930754020810127">
        <ele>279.39999999999998</ele>
        <time>2025-04-26T10:36:39Z</time>
      </trkpt>
      <trkpt lat="43.140726992860436" lon="0.930789979174733">
        <ele>279.88</ele>
        <time>2025-04-26T10:36:40Z</time>
      </trkpt>
      <trkpt lat="43.140649041160941" lon="0.930827027186751">
        <ele>279.88</ele>
        <time>2025-04-26T10:36:41Z</time>
      </trkpt>
      <trkpt lat="43.140499005094171" lon="0.930899027734995">
        <ele>279.88</ele>
        <time>2025-04-26T10:36:43Z</time>
      </trkpt>
      <trkpt lat="43.140418035909534" lon="0.930934986099601">
        <ele>279.39999999999998</ele>
        <time>2025-04-26T10:36:44Z</time>
      </trkpt>
      <trkpt lat="43.140337988734245" lon="0.930967004969716">
        <ele>279.39999999999998</ele>
        <time>2025-04-26T10:36:45Z</time>
      </trkpt>
      <trkpt lat="43.140264982357621" lon="0.93099600635469">
        <ele>279.88</ele>
        <time>2025-04-26T10:36:46Z</time>
      </trkpt>
      <trkpt lat="43.140194993466139" lon="0.931024001911283">
        <ele>279.88</ele>
        <time>2025-04-26T10:36:47Z</time>
      </trkpt>
      <trkpt lat="43.140117963775992" lon="0.931051997467875">
        <ele>279.88</ele>
        <time>2025-04-26T10:36:48Z</time>
      </trkpt>
      <trkpt lat="43.139955019578338" lon="0.931084016337991">
        <ele>280.83999999999997</ele>
        <time>2025-04-26T10:36:50Z</time>
      </trkpt>
      <trkpt lat="43.139874972403049" lon="0.931102959439158">
        <ele>281.31999999999999</ele>
        <time>2025-04-26T10:36:51Z</time>
      </trkpt>
      <trkpt lat="43.139794003218412" lon="0.931119974702597">
        <ele>281.80000000000001</ele>
        <time>2025-04-26T10:36:52Z</time>
      </trkpt>
      <trkpt lat="43.139709010720253" lon="0.931134978309274">
        <ele>282.76999999999998</ele>
        <time>2025-04-26T10:36:53Z</time>
      </trkpt>
      <trkpt lat="43.139624018222094" lon="0.931150987744331">
        <ele>282.76999999999998</ele>
        <time>2025-04-26T10:36:54Z</time>
      </trkpt>
      <trkpt lat="43.139541037380695" lon="0.931164985522628">
        <ele>283.25</ele>
        <time>2025-04-26T10:36:55Z</time>
      </trkpt>
      <trkpt lat="43.139136023819447" lon="0.931226005777717">
        <ele>284.69</ele>
        <time>2025-04-26T10:37:00Z</time>
      </trkpt>
      <trkpt lat="43.138343011960387" lon="0.93140403740108">
        <ele>287.08999999999997</ele>
        <time>2025-04-26T10:37:10Z</time>
      </trkpt>
      <trkpt lat="43.137448998168111" lon="0.931634958833456">
        <ele>291.89999999999998</ele>
        <time>2025-04-26T10:37:20Z</time>
      </trkpt>
      <trkpt lat="43.136441996321082" lon="0.931882979348302">
        <ele>292.86000000000001</ele>
        <time>2025-04-26T10:37:29Z</time>
      </trkpt>
      <trkpt lat="43.136263964697719" lon="0.931928995996714">
        <ele>293.81999999999999</ele>
        <time>2025-04-26T10:37:31Z</time>
      </trkpt>
      <trkpt lat="43.136186012998223" lon="0.931948022916913">
        <ele>294.77999999999997</ele>
        <time>2025-04-26T10:37:32Z</time>
      </trkpt>
      <trkpt lat="43.136102026328444" lon="0.931967971846461">
        <ele>295.25999999999999</ele>
        <time>2025-04-26T10:37:33Z</time>
      </trkpt>
      <trkpt lat="43.135831961408257" lon="0.932033015415072">
        <ele>297.18000000000001</ele>
        <time>2025-04-26T10:37:36Z</time>
      </trkpt>
      <trkpt lat="43.135141041129827" lon="0.932208029553294">
        <ele>299.58999999999997</ele>
        <time>2025-04-26T10:37:43Z</time>
      </trkpt>
      <trkpt lat="43.133716033771634" lon="0.932555962353945">
        <ele>301.99000000000001</ele>
        <time>2025-04-26T10:37:56Z</time>
      </trkpt>
      <trkpt lat="43.132673995569348" lon="0.932808006182313">
        <ele>306.31999999999999</ele>
        <time>2025-04-26T10:38:05Z</time>
      </trkpt>
      <trkpt lat="43.131849970668554" lon="0.933019984513521">
        <ele>312.56999999999999</ele>
        <time>2025-04-26T10:38:13Z</time>
      </trkpt>
      <trkpt lat="43.131594993174076" lon="0.933087039738894">
        <ele>315.44999999999999</ele>
        <time>2025-04-26T10:38:17Z</time>
      </trkpt>
      <trkpt lat="43.131594993174076" lon="0.933087039738894">
        <ele>317.37</ele>
        <time>2025-04-26T10:38:23Z</time>
      </trkpt>
      <trkpt lat="43.131594993174076" lon="0.933087039738894">
        <ele>316.88999999999999</ele>
        <time>2025-04-26T10:38:24Z</time>
      </trkpt>
      <trkpt lat="43.131594993174076" lon="0.933087039738894">
        <ele>316.41000000000003</ele>
        <time>2025-04-26T10:38:25Z</time>
      </trkpt>
      <trkpt lat="43.131461972370744" lon="0.933119980618358">
        <ele>316.41000000000003</ele>
        <time>2025-04-26T10:38:26Z</time>
      </trkpt>
      <trkpt lat="43.131438000127673" lon="0.933126015588641">
        <ele>316.41000000000003</ele>
        <time>2025-04-26T10:38:27Z</time>
      </trkpt>
      <trkpt lat="43.131416039541364" lon="0.933130960911512">
        <ele>316.41000000000003</ele>
        <time>2025-04-26T10:38:28Z</time>
      </trkpt>
      <trkpt lat="43.13138603232801" lon="0.933136995881796">
        <ele>316.41000000000003</ele>
        <time>2025-04-26T10:38:29Z</time>
      </trkpt>
      <trkpt lat="43.131341021507978" lon="0.933145964518189">
        <ele>316.41000000000003</ele>
        <time>2025-04-26T10:38:30Z</time>
      </trkpt>
      <trkpt lat="43.131277989596128" lon="0.933160968124866">
        <ele>316.41000000000003</ele>
        <time>2025-04-26T10:38:31Z</time>
      </trkpt>
      <trkpt lat="43.131211018189788" lon="0.933176977559924">
        <ele>315.93000000000001</ele>
        <time>2025-04-26T10:38:32Z</time>
      </trkpt>
      <trkpt lat="43.131139017641544" lon="0.933196004480124">
        <ele>315.93000000000001</ele>
        <time>2025-04-26T10:38:33Z</time>
      </trkpt>
      <trkpt lat="43.130826959386468" lon="0.933274962007999">
        <ele>314.49000000000001</ele>
        <time>2025-04-26T10:38:37Z</time>
      </trkpt>
      <trkpt lat="43.130778009071946" lon="0.933286026120186">
        <ele>314.00999999999999</ele>
        <time>2025-04-26T10:38:38Z</time>
      </trkpt>
      <trkpt lat="43.130812039598823" lon="0.933357020840049">
        <ele>313.05000000000001</ele>
        <time>2025-04-26T10:38:39Z</time>
      </trkpt>
      <trkpt lat="43.130824025720358" lon="0.933442013338208">
        <ele>312.56999999999999</ele>
        <time>2025-04-26T10:38:40Z</time>
      </trkpt>
      <trkpt lat="43.130838023498654" lon="0.933539997786283">
        <ele>311.60000000000002</ele>
        <time>2025-04-26T10:38:41Z</time>
      </trkpt>
      <trkpt lat="43.130857972428203" lon="0.933601018041372">
        <ele>310.63999999999999</ele>
        <time>2025-04-26T10:38:42Z</time>
      </trkpt>
      <trkpt lat="43.130903989076614" lon="0.933665977790952">
        <ele>309.68000000000001</ele>
        <time>2025-04-26T10:38:43Z</time>
      </trkpt>
      <trkpt lat="43.130944976583123" lon="0.933724986389279">
        <ele>308.72000000000003</ele>
        <time>2025-04-26T10:38:44Z</time>
      </trkpt>
      <trkpt lat="43.130982024595141" lon="0.933777038007975">
        <ele>307.75999999999999</ele>
        <time>2025-04-26T10:38:45Z</time>
      </trkpt>
      <trkpt lat="43.13099903985858" lon="0.933795981109142">
        <ele>307.75999999999999</ele>
        <time>2025-04-26T10:38:46Z</time>
      </trkpt>
      <trkpt lat="43.131038015708327" lon="0.933808973059058">
        <ele>307.27999999999997</ele>
        <time>2025-04-26T10:38:47Z</time>
      </trkpt>
      <trkpt lat="43.131058970466256" lon="0.933816013857722">
        <ele>306.80000000000001</ele>
        <time>2025-04-26T10:38:48Z</time>
      </trkpt>
      <trkpt lat="43.131100041791797" lon="0.933816013857722">
        <ele>305.83999999999997</ele>
        <time>2025-04-26T10:38:49Z</time>
      </trkpt>
      <trkpt lat="43.131140023469925" lon="0.933816013857722">
        <ele>305.36000000000001</ele>
        <time>2025-04-26T10:38:50Z</time>
      </trkpt>
      <trkpt lat="43.131144968792796" lon="0.933816013857722">
        <ele>304.88</ele>
        <time>2025-04-26T10:38:51Z</time>
      </trkpt>
      <trkpt lat="43.13117497600615" lon="0.933791035786271">
        <ele>304.38999999999999</ele>
        <time>2025-04-26T10:38:52Z</time>
      </trkpt>
      <trkpt lat="43.131204983219504" lon="0.933765973895788">
        <ele>304.38999999999999</ele>
        <time>2025-04-26T10:38:53Z</time>
      </trkpt>
      <trkpt lat="43.131234990432858" lon="0.933740995824337">
        <ele>303.91000000000003</ele>
        <time>2025-04-26T10:38:54Z</time>
      </trkpt>
      <trkpt lat="43.13125996850431" lon="0.933720041066408">
        <ele>303.43000000000001</ele>
        <time>2025-04-26T10:38:55Z</time>
      </trkpt>
      <trkpt lat="43.131272960454226" lon="0.933708976954222">
        <ele>303.43000000000001</ele>
        <time>2025-04-26T10:38:56Z</time>
      </trkpt>
      <trkpt lat="43.131315959617496" lon="0.933579979464412">
        <ele>302.47000000000003</ele>
        <time>2025-04-26T10:39:00Z</time>
      </trkpt>
      <trkpt lat="43.131314031779766" lon="0.933576039969921">
        <ele>301.99000000000001</ele>
        <time>2025-04-26T10:39:01Z</time>
      </trkpt>
      <trkpt lat="43.131304979324341" lon="0.933552989736199">
        <ele>301.99000000000001</ele>
        <time>2025-04-26T10:39:02Z</time>
      </trkpt>
      <trkpt lat="43.131296010687947" lon="0.933533962816">
        <ele>301.99000000000001</ele>
        <time>2025-04-26T10:39:03Z</time>
      </trkpt>
      <trkpt lat="43.131287964060903" lon="0.933515019714832">
        <ele>301.99000000000001</ele>
        <time>2025-04-26T10:39:04Z</time>
      </trkpt>
      <trkpt lat="43.131252005696297" lon="0.933430027216673">
        <ele>302.47000000000003</ele>
        <time>2025-04-26T10:39:05Z</time>
      </trkpt>
      <trkpt lat="43.131252005696297" lon="0.933430027216673">
        <ele>302.47000000000003</ele>
        <time>2025-04-26T10:39:06Z</time>
      </trkpt>
      <trkpt lat="43.131224010139704" lon="0.933473026379943">
        <ele>301.99000000000001</ele>
        <time>2025-04-26T10:39:09Z</time>
      </trkpt>
      <trkpt lat="43.131212024018168" lon="0.933490041643381">
        <ele>301.99000000000001</ele>
        <time>2025-04-26T10:39:10Z</time>
      </trkpt>
      <trkpt lat="43.13119400292635" lon="0.933517031371593">
        <ele>301.50999999999999</ele>
        <time>2025-04-26T10:39:22Z</time>
      </trkpt>
      <trkpt lat="43.13119400292635" lon="0.933517031371593">
        <ele>301.02999999999997</ele>
        <time>2025-04-26T10:40:03Z</time>
      </trkpt>
      <trkpt lat="43.13119400292635" lon="0.933517031371593">
        <ele>301.02999999999997</ele>
        <time>2025-04-26T10:40:18Z</time>
      </trkpt>
      <trkpt lat="43.13119400292635" lon="0.933517031371593">
        <ele>301.02999999999997</ele>
        <time>2025-04-26T10:40:33Z</time>
      </trkpt>
      <trkpt lat="43.131171958521008" lon="0.933549972251058">
        <ele>300.06999999999999</ele>
        <time>2025-04-26T10:40:41Z</time>
      </trkpt>
      <trkpt lat="43.131118984892964" lon="0.933714006096125">
        <ele>299.11000000000001</ele>
        <time>2025-04-26T10:47:41Z</time>
      </trkpt>
      <trkpt lat="43.131122002378106" lon="0.933690033853054">
        <ele>294.30000000000001</ele>
        <time>2025-04-26T10:48:21Z</time>
      </trkpt>
      <trkpt lat="43.131110016256571" lon="0.933662038296461">
        <ele>299.58999999999997</ele>
        <time>2025-04-26T10:49:13Z</time>
      </trkpt>
      <trkpt lat="43.131117979064584" lon="0.933649968355894">
        <ele>298.63</ele>
        <time>2025-04-26T10:50:05Z</time>
      </trkpt>
      <trkpt lat="43.131115967407823" lon="0.933651980012655">
        <ele>298.63</ele>
        <time>2025-04-26T10:51:07Z</time>
      </trkpt>
      <trkpt lat="43.131115967407823" lon="0.933658014982939">
        <ele>298.63</ele>
        <time>2025-04-26T10:51:48Z</time>
      </trkpt>
      <trkpt lat="43.131069028750062" lon="0.93368299305439">
        <ele>297.67000000000002</ele>
        <time>2025-04-26T10:52:11Z</time>
      </trkpt>
      <trkpt lat="43.131067017093301" lon="0.933713000267744">
        <ele>298.14999999999998</ele>
        <time>2025-04-26T10:52:12Z</time>
      </trkpt>
      <trkpt lat="43.13106500543654" lon="0.933738984167576">
        <ele>297.67000000000002</ele>
        <time>2025-04-26T10:52:13Z</time>
      </trkpt>
      <trkpt lat="43.131060982123017" lon="0.933780977502465">
        <ele>297.18000000000001</ele>
        <time>2025-04-26T10:52:21Z</time>
      </trkpt>
      <trkpt lat="43.131058970466256" lon="0.933816013857722">
        <ele>297.18000000000001</ele>
        <time>2025-04-26T10:52:22Z</time>
      </trkpt>
      <trkpt lat="43.130994010716677" lon="0.933794975280762">
        <ele>296.69999999999999</ele>
        <time>2025-04-26T10:52:23Z</time>
      </trkpt>
      <trkpt lat="43.130948999896646" lon="0.933730015531182">
        <ele>296.69999999999999</ele>
        <time>2025-04-26T10:52:24Z</time>
      </trkpt>
      <trkpt lat="43.13091304153204" lon="0.933678969740868">
        <ele>296.22000000000003</ele>
        <time>2025-04-26T10:52:25Z</time>
      </trkpt>
      <trkpt lat="43.130876999348402" lon="0.933628007769585">
        <ele>296.22000000000003</ele>
        <time>2025-04-26T10:52:26Z</time>
      </trkpt>
      <trkpt lat="43.130842968821526" lon="0.933572016656399">
        <ele>295.74000000000001</ele>
        <time>2025-04-26T10:52:27Z</time>
      </trkpt>
      <trkpt lat="43.130834000185132" lon="0.933505967259407">
        <ele>295.74000000000001</ele>
        <time>2025-04-26T10:52:28Z</time>
      </trkpt>
      <trkpt lat="43.130825031548738" lon="0.93344796448946">
        <ele>295.74000000000001</ele>
        <time>2025-04-26T10:52:29Z</time>
      </trkpt>
      <trkpt lat="43.130818996578455" lon="0.93340496532619">
        <ele>295.25999999999999</ele>
        <time>2025-04-26T10:52:30Z</time>
      </trkpt>
      <trkpt lat="43.130846992135048" lon="0.933272028341889">
        <ele>295.25999999999999</ele>
        <time>2025-04-26T10:52:31Z</time>
      </trkpt>
      <trkpt lat="43.130884040147066" lon="0.933264987543225">
        <ele>295.25999999999999</ele>
        <time>2025-04-26T10:52:32Z</time>
      </trkpt>
      <trkpt lat="43.130939025431871" lon="0.933255013078451">
        <ele>295.25999999999999</ele>
        <time>2025-04-26T10:52:33Z</time>
      </trkpt>
      <trkpt lat="43.131003985181451" lon="0.933243026956916">
        <ele>295.25999999999999</ele>
        <time>2025-04-26T10:52:34Z</time>
      </trkpt>
      <trkpt lat="43.131074979901314" lon="0.933221988379955">
        <ele>294.30000000000001</ele>
        <time>2025-04-26T10:52:35Z</time>
      </trkpt>
      <trkpt lat="43.131848964840174" lon="0.933019984513521">
        <ele>292.86000000000001</ele>
        <time>2025-04-26T10:52:44Z</time>
      </trkpt>
      <trkpt lat="43.132412983104587" lon="0.932873971760273">
        <ele>291.42000000000002</ele>
        <time>2025-04-26T10:52:50Z</time>
      </trkpt>
      <trkpt lat="43.133504977449775" lon="0.932593010365963">
        <ele>289.00999999999999</ele>
        <time>2025-04-26T10:53:00Z</time>
      </trkpt>
      <trkpt lat="43.134307041764259" lon="0.932412967085838">
        <ele>286.13</ele>
        <time>2025-04-26T10:53:07Z</time>
      </trkpt>
      <trkpt lat="43.134420029819012" lon="0.932388994842768">
        <ele>286.61000000000001</ele>
        <time>2025-04-26T10:53:08Z</time>
      </trkpt>
      <trkpt lat="43.134536035358906" lon="0.932362005114555">
        <ele>287.08999999999997</ele>
        <time>2025-04-26T10:53:09Z</time>
      </trkpt>
      <trkpt lat="43.135821986943483" lon="0.932035027071834">
        <ele>287.56999999999999</ele>
        <time>2025-04-26T10:53:20Z</time>
      </trkpt>
      <trkpt lat="43.136420035734773" lon="0.931889014318585">
        <ele>285.17000000000002</ele>
        <time>2025-04-26T10:53:27Z</time>
      </trkpt>
      <trkpt lat="43.136731004342437" lon="0.931815002113581">
        <ele>284.69</ele>
        <time>2025-04-26T10:53:31Z</time>
      </trkpt>
      <trkpt lat="43.136799987405539" lon="0.931798992678523">
        <ele>285.17000000000002</ele>
        <time>2025-04-26T10:53:32Z</time>
      </trkpt>
      <trkpt lat="43.137653013691306" lon="0.931564969941974">
        <ele>285.17000000000002</ele>
        <time>2025-04-26T10:53:43Z</time>
      </trkpt>
      <trkpt lat="43.138548033311963" lon="0.931359026581049">
        <ele>281.80000000000001</ele>
        <time>2025-04-26T10:53:56Z</time>
      </trkpt>
      <trkpt lat="43.138905018568039" lon="0.931265987455845">
        <ele>280.36000000000001</ele>
        <time>2025-04-26T10:54:01Z</time>
      </trkpt>
      <trkpt lat="43.138980036601424" lon="0.931246038526297">
        <ele>280.36000000000001</ele>
        <time>2025-04-26T10:54:02Z</time>
      </trkpt>
      <trkpt lat="43.139396030455828" lon="0.93118803575635">
        <ele>279.39999999999998</ele>
        <time>2025-04-26T10:54:08Z</time>
      </trkpt>
      <trkpt lat="43.139611026272178" lon="0.931154005229473">
        <ele>278.92000000000002</ele>
        <time>2025-04-26T10:54:11Z</time>
      </trkpt>
      <trkpt lat="43.139676991850138" lon="0.931142019107938">
        <ele>278.92000000000002</ele>
        <time>2025-04-26T10:54:12Z</time>
      </trkpt>
      <trkpt lat="43.139801966026425" lon="0.931118968874216">
        <ele>277.95999999999998</ele>
        <time>2025-04-26T10:54:14Z</time>
      </trkpt>
      <trkpt lat="43.140006987378001" lon="0.931074041873217">
        <ele>277.48000000000002</ele>
        <time>2025-04-26T10:54:17Z</time>
      </trkpt>
      <trkpt lat="43.140078987926245" lon="0.931059960275888">
        <ele>277.48000000000002</ele>
        <time>2025-04-26T10:54:18Z</time>
      </trkpt>
      <trkpt lat="43.140147970989347" lon="0.931044034659863">
        <ele>277.48000000000002</ele>
        <time>2025-04-26T10:54:19Z</time>
      </trkpt>
      <trkpt lat="43.140416024252772" lon="0.930935991927981">
        <ele>276.51999999999998</ele>
        <time>2025-04-26T10:54:23Z</time>
      </trkpt>
      <trkpt lat="43.140611993148923" lon="0.930844964459538">
        <ele>276.04000000000002</ele>
        <time>2025-04-26T10:54:26Z</time>
      </trkpt>
      <trkpt lat="43.140806034207344" lon="0.930752009153366">
        <ele>275.56</ele>
        <time>2025-04-26T10:54:29Z</time>
      </trkpt>
      <trkpt lat="43.141065035015345" lon="0.930627034977078">
        <ele>272.67000000000002</ele>
        <time>2025-04-26T10:54:35Z</time>
      </trkpt>
      <trkpt lat="43.141150027513504" lon="0.930587975308299">
        <ele>270.75</ele>
        <time>2025-04-26T10:54:44Z</time>
      </trkpt>
      <trkpt lat="43.141397964209318" lon="0.93048102222383">
        <ele>273.14999999999998</ele>
        <time>2025-04-26T10:54:50Z</time>
      </trkpt>
      <trkpt lat="43.141540959477425" lon="0.930410027503967">
        <ele>274.11000000000001</ele>
        <time>2025-04-26T10:54:53Z</time>
      </trkpt>
      <trkpt lat="43.141583036631346" lon="0.930388988927007">
        <ele>274.11000000000001</ele>
        <time>2025-04-26T10:54:54Z</time>
      </trkpt>
      <trkpt lat="43.141628969460726" lon="0.930366022512317">
        <ele>274.58999999999997</ele>
        <time>2025-04-26T10:54:55Z</time>
      </trkpt>
      <trkpt lat="43.141675991937518" lon="0.930341966450214">
        <ele>275.06999999999999</ele>
        <time>2025-04-26T10:54:56Z</time>
      </trkpt>
      <trkpt lat="43.14172301441431" lon="0.930319000035524">
        <ele>275.56</ele>
        <time>2025-04-26T10:54:57Z</time>
      </trkpt>
      <trkpt lat="43.141764001920819" lon="0.930297039449215">
        <ele>276.04000000000002</ele>
        <time>2025-04-26T10:54:58Z</time>
      </trkpt>
      <trkpt lat="43.14180800691247" lon="0.930271977558732">
        <ele>276.51999999999998</ele>
        <time>2025-04-26T10:54:59Z</time>
      </trkpt>
      <trkpt lat="43.141858968883753" lon="0.930243982002139">
        <ele>277</ele>
        <time>2025-04-26T10:55:00Z</time>
      </trkpt>
      <trkpt lat="43.141912026330829" lon="0.930214980617166">
        <ele>277.48000000000002</ele>
        <time>2025-04-26T10:55:01Z</time>
      </trkpt>
      <trkpt lat="43.141958964988589" lon="0.930188996717334">
        <ele>277.95999999999998</ele>
        <time>2025-04-26T10:55:02Z</time>
      </trkpt>
      <trkpt lat="43.14200003631413" lon="0.930166030302644">
        <ele>278.44</ele>
        <time>2025-04-26T10:55:03Z</time>
      </trkpt>
      <trkpt lat="43.142039012163877" lon="0.930144991725683">
        <ele>278.92000000000002</ele>
        <time>2025-04-26T10:55:04Z</time>
      </trkpt>
      <trkpt lat="43.142115036025643" lon="0.930104004219174">
        <ele>280.36000000000001</ele>
        <time>2025-04-26T10:55:06Z</time>
      </trkpt>
      <trkpt lat="43.142149988561869" lon="0.93005295842886">
        <ele>280.83999999999997</ele>
        <time>2025-04-26T10:55:07Z</time>
      </trkpt>
      <trkpt lat="43.142144959419966" lon="0.92998799867928">
        <ele>281.31999999999999</ele>
        <time>2025-04-26T10:55:08Z</time>
      </trkpt>
      <trkpt lat="43.142140014097095" lon="0.929915998131037">
        <ele>281.80000000000001</ele>
        <time>2025-04-26T10:55:09Z</time>
      </trkpt>
      <trkpt lat="43.142133979126811" lon="0.9298350289464">
        <ele>282.27999999999997</ele>
        <time>2025-04-26T10:55:10Z</time>
      </trkpt>
      <trkpt lat="43.142115036025643" lon="0.929581979289651">
        <ele>283.25</ele>
        <time>2025-04-26T10:55:13Z</time>
      </trkpt>
      <trkpt lat="43.142124004662037" lon="0.929466979578137">
        <ele>283.73000000000002</ele>
        <time>2025-04-26T10:55:14Z</time>
      </trkpt>
      <trkpt lat="43.142154011875391" lon="0.929391961544752">
        <ele>284.20999999999998</ele>
        <time>2025-04-26T10:55:15Z</time>
      </trkpt>
      <trkpt lat="43.142185024917126" lon="0.929304035380483">
        <ele>284.20999999999998</ele>
        <time>2025-04-26T10:55:16Z</time>
      </trkpt>
      <trkpt lat="43.142216959968209" lon="0.92921401374042">
        <ele>284.20999999999998</ele>
        <time>2025-04-26T10:55:17Z</time>
      </trkpt>
      <trkpt lat="43.142259959131479" lon="0.929095996543765">
        <ele>284.20999999999998</ele>
        <time>2025-04-26T10:55:18Z</time>
      </trkpt>
      <trkpt lat="43.142243027687073" lon="0.929019972681999">
        <ele>284.20999999999998</ele>
        <time>2025-04-26T10:55:19Z</time>
      </trkpt>
      <trkpt lat="43.142216959968209" lon="0.928902961313725">
        <ele>284.20999999999998</ele>
        <time>2025-04-26T10:55:20Z</time>
      </trkpt>
      <trkpt lat="43.142101960256696" lon="0.928359981626272">
        <ele>285.64999999999998</ele>
        <time>2025-04-26T10:55:27Z</time>
      </trkpt>
      <trkpt lat="43.14208997413516" lon="0.928297033533454">
        <ele>285.64999999999998</ele>
        <time>2025-04-26T10:55:28Z</time>
      </trkpt>
      <trkpt lat="43.142044963315129" lon="0.928063010796905">
        <ele>286.61000000000001</ele>
        <time>2025-04-26T10:55:31Z</time>
      </trkpt>
      <trkpt lat="43.141829967498779" lon="0.926917036995292">
        <ele>288.52999999999997</ele>
        <time>2025-04-26T10:55:42Z</time>
      </trkpt>
      <trkpt lat="43.14174204133451" lon="0.926455026492476">
        <ele>289.49000000000001</ele>
        <time>2025-04-26T10:55:48Z</time>
      </trkpt>
      <trkpt lat="43.141732988879085" lon="0.926411021500826">
        <ele>289.97000000000003</ele>
        <time>2025-04-26T10:55:49Z</time>
      </trkpt>
      <trkpt lat="43.141574990004301" lon="0.925594959408045">
        <ele>290.94</ele>
        <time>2025-04-26T10:55:58Z</time>
      </trkpt>
      <trkpt lat="43.1413350161165" lon="0.924274977296591">
        <ele>291.89999999999998</ele>
        <time>2025-04-26T10:56:08Z</time>
      </trkpt>
      <trkpt lat="43.141294028609991" lon="0.923771979287267">
        <ele>291.42000000000002</ele>
        <time>2025-04-26T10:56:11Z</time>
      </trkpt>
      <trkpt lat="43.141259998083115" lon="0.9227030351758">
        <ele>290.94</ele>
        <time>2025-04-26T10:56:16Z</time>
      </trkpt>
      <trkpt lat="43.141220016404986" lon="0.922473035752773">
        <ele>290.45999999999998</ele>
        <time>2025-04-26T10:56:17Z</time>
      </trkpt>
      <trkpt lat="43.140984987840056" lon="0.921297976747155">
        <ele>290.45999999999998</ele>
        <time>2025-04-26T10:56:22Z</time>
      </trkpt>
      <trkpt lat="43.140910975635052" lon="0.921102007851005">
        <ele>290.45999999999998</ele>
        <time>2025-04-26T10:56:23Z</time>
      </trkpt>
      <trkpt lat="43.140805028378963" lon="0.92094199731946">
        <ele>290.45999999999998</ele>
        <time>2025-04-26T10:56:24Z</time>
      </trkpt>
      <trkpt lat="43.140232041478157" lon="0.920187961310148">
        <ele>291.89999999999998</ele>
        <time>2025-04-26T10:56:29Z</time>
      </trkpt>
      <trkpt lat="43.140099020674825" lon="0.920087965205312">
        <ele>292.38</ele>
        <time>2025-04-26T10:56:30Z</time>
      </trkpt>
      <trkpt lat="43.139946972951293" lon="0.920058041810989">
        <ele>292.86000000000001</ele>
        <time>2025-04-26T10:56:31Z</time>
      </trkpt>
      <trkpt lat="43.139784028753638" lon="0.920029040426016">
        <ele>293.33999999999997</ele>
        <time>2025-04-26T10:56:32Z</time>
      </trkpt>
      <trkpt lat="43.139615971595049" lon="0.920015964657068">
        <ele>293.81999999999999</ele>
        <time>2025-04-26T10:56:33Z</time>
      </trkpt>
      <trkpt lat="43.139443974941969" lon="0.920011019334197">
        <ele>294.77999999999997</ele>
        <time>2025-04-26T10:56:34Z</time>
      </trkpt>
      <trkpt lat="43.139267032966018" lon="0.920005990192294">
        <ele>295.25999999999999</ele>
        <time>2025-04-26T10:56:35Z</time>
      </trkpt>
      <trkpt lat="43.139082966372371" lon="0.920000961050391">
        <ele>296.22000000000003</ele>
        <time>2025-04-26T10:56:36Z</time>
      </trkpt>
      <trkpt lat="43.138894038274884" lon="0.919984029605985">
        <ele>297.18000000000001</ele>
        <time>2025-04-26T10:56:37Z</time>
      </trkpt>
      <trkpt lat="43.138361033052206" lon="0.919854026287794">
        <ele>299.11000000000001</ele>
        <time>2025-04-26T10:56:40Z</time>
      </trkpt>
      <trkpt lat="43.138179983943701" lon="0.919779008254409">
        <ele>299.58999999999997</ele>
        <time>2025-04-26T10:56:41Z</time>
      </trkpt>
      <trkpt lat="43.137647984549403" lon="0.919556971639395">
        <ele>301.99000000000001</ele>
        <time>2025-04-26T10:56:44Z</time>
      </trkpt>
      <trkpt lat="43.137289993464947" lon="0.919431997463107">
        <ele>303.43000000000001</ele>
        <time>2025-04-26T10:56:46Z</time>
      </trkpt>
      <trkpt lat="43.137108022347093" lon="0.919411964714527">
        <ele>304.38999999999999</ele>
        <time>2025-04-26T10:56:47Z</time>
      </trkpt>
      <trkpt lat="43.13693200238049" lon="0.919393021613359">
        <ele>304.88</ele>
        <time>2025-04-26T10:56:48Z</time>
      </trkpt>
      <trkpt lat="43.136753970757127" lon="0.91937399469316">
        <ele>305.36000000000001</ele>
        <time>2025-04-26T10:56:49Z</time>
      </trkpt>
      <trkpt lat="43.136570993810892" lon="0.91935396194458">
        <ele>305.36000000000001</ele>
        <time>2025-04-26T10:56:50Z</time>
      </trkpt>
      <trkpt lat="43.135088989511132" lon="0.919184982776642">
        <ele>302.94999999999999</ele>
        <time>2025-04-26T10:56:58Z</time>
      </trkpt>
      <trkpt lat="43.133734976872802" lon="0.919017009437084">
        <ele>300.06999999999999</ele>
        <time>2025-04-26T10:57:06Z</time>
      </trkpt>
      <trkpt lat="43.13228901475668" lon="0.918894968926907">
        <ele>300.06999999999999</ele>
        <time>2025-04-26T10:57:14Z</time>
      </trkpt>
      <trkpt lat="43.13061598688364" lon="0.91866496950388">
        <ele>301.50999999999999</ele>
        <time>2025-04-26T10:57:23Z</time>
      </trkpt>
      <trkpt lat="43.130440972745419" lon="0.918630016967654">
        <ele>301.50999999999999</ele>
        <time>2025-04-26T10:57:24Z</time>
      </trkpt>
      <trkpt lat="43.129174970090389" lon="0.918102040886879">
        <ele>301.02999999999997</ele>
        <time>2025-04-26T10:57:31Z</time>
      </trkpt>
      <trkpt lat="43.127402029931545" lon="0.917316991835833">
        <ele>300.55000000000001</ele>
        <time>2025-04-26T10:57:40Z</time>
      </trkpt>
      <trkpt lat="43.126201992854476" lon="0.916772000491619">
        <ele>299.11000000000001</ele>
        <time>2025-04-26T10:57:46Z</time>
      </trkpt>
      <trkpt lat="43.125065993517637" lon="0.91628098860383">
        <ele>299.58999999999997</ele>
        <time>2025-04-26T10:57:52Z</time>
      </trkpt>
      <trkpt lat="43.123797979205847" lon="0.915724011138082">
        <ele>300.55000000000001</ele>
        <time>2025-04-26T10:58:00Z</time>
      </trkpt>
      <trkpt lat="43.123428001999855" lon="0.915534999221563">
        <ele>301.99000000000001</ele>
        <time>2025-04-26T10:58:04Z</time>
      </trkpt>
      <trkpt lat="43.123261034488678" lon="0.915396027266979">
        <ele>302.94999999999999</ele>
        <time>2025-04-26T10:58:06Z</time>
      </trkpt>
      <trkpt lat="43.123182998970151" lon="0.915331989526749">
        <ele>302.94999999999999</ele>
        <time>2025-04-26T10:58:07Z</time>
      </trkpt>
      <trkpt lat="43.123104963451624" lon="0.915267029777169">
        <ele>303.91000000000003</ele>
        <time>2025-04-26T10:58:08Z</time>
      </trkpt>
      <trkpt lat="43.122487971559167" lon="0.914679039269686">
        <ele>306.80000000000001</ele>
        <time>2025-04-26T10:58:17Z</time>
      </trkpt>
      <trkpt lat="43.122184965759516" lon="0.914222979918122">
        <ele>307.75999999999999</ele>
        <time>2025-04-26T10:58:23Z</time>
      </trkpt>
      <trkpt lat="43.122138027101755" lon="0.91413002461195">
        <ele>308.24000000000001</ele>
        <time>2025-04-26T10:58:24Z</time>
      </trkpt>
      <trkpt lat="43.122054040431976" lon="0.913946041837335">
        <ele>307.75999999999999</ele>
        <time>2025-04-26T10:58:26Z</time>
      </trkpt>
      <trkpt lat="43.121928982436657" lon="0.913662984967232">
        <ele>307.75999999999999</ele>
        <time>2025-04-26T10:58:29Z</time>
      </trkpt>
      <trkpt lat="43.121886989101768" lon="0.913568018004298">
        <ele>308.24000000000001</ele>
        <time>2025-04-26T10:58:30Z</time>
      </trkpt>
      <trkpt lat="43.121844995766878" lon="0.913472967222333">
        <ele>308.24000000000001</ele>
        <time>2025-04-26T10:58:31Z</time>
      </trkpt>
      <trkpt lat="43.121779030188918" lon="0.913279009982944">
        <ele>309.19999999999999</ele>
        <time>2025-04-26T10:58:33Z</time>
      </trkpt>
      <trkpt lat="43.12176302075386" lon="0.913167027756572">
        <ele>309.68000000000001</ele>
        <time>2025-04-26T10:58:34Z</time>
      </trkpt>
      <trkpt lat="43.121746005490422" lon="0.913055967539549">
        <ele>310.16000000000003</ele>
        <time>2025-04-26T10:58:35Z</time>
      </trkpt>
      <trkpt lat="43.121681967750192" lon="0.912616001442075">
        <ele>312.56999999999999</ele>
        <time>2025-04-26T10:58:40Z</time>
      </trkpt>
      <trkpt lat="43.121681967750192" lon="0.912421960383654">
        <ele>313.52999999999997</ele>
        <time>2025-04-26T10:58:42Z</time>
      </trkpt>
      <trkpt lat="43.121681967750192" lon="0.91232598759234">
        <ele>314.00999999999999</ele>
        <time>2025-04-26T10:58:43Z</time>
      </trkpt>
      <trkpt lat="43.121681967750192" lon="0.912224985659122">
        <ele>314.00999999999999</ele>
        <time>2025-04-26T10:58:44Z</time>
      </trkpt>
      <trkpt lat="43.121681967750192" lon="0.912119038403034">
        <ele>314.00999999999999</ele>
        <time>2025-04-26T10:58:45Z</time>
      </trkpt>
      <trkpt lat="43.121681967750192" lon="0.912009989842772">
        <ele>314.49000000000001</ele>
        <time>2025-04-26T10:58:46Z</time>
      </trkpt>
      <trkpt lat="43.121681967750192" lon="0.911907982081175">
        <ele>314.97000000000003</ele>
        <time>2025-04-26T10:58:47Z</time>
      </trkpt>
      <trkpt lat="43.121681967750192" lon="0.911391992121935">
        <ele>316.88999999999999</ele>
        <time>2025-04-26T10:58:52Z</time>
      </trkpt>
      <trkpt lat="43.121642991900444" lon="0.911193005740643">
        <ele>317.37</ele>
        <time>2025-04-26T10:58:54Z</time>
      </trkpt>
      <trkpt lat="43.121617008000612" lon="0.911093009635806">
        <ele>317.37</ele>
        <time>2025-04-26T10:58:55Z</time>
      </trkpt>
      <trkpt lat="43.121148962527514" lon="0.909775039181113">
        <ele>314.49000000000001</ele>
        <time>2025-04-26T10:59:08Z</time>
      </trkpt>
      <trkpt lat="43.121017031371593" lon="0.909378994256258">
        <ele>314.97000000000003</ele>
        <time>2025-04-26T10:59:11Z</time>
      </trkpt>
      <trkpt lat="43.120428035035729" lon="0.907617034390569">
        <ele>316.41000000000003</ele>
        <time>2025-04-26T10:59:23Z</time>
      </trkpt>
      <trkpt lat="43.119916990399361" lon="0.906137963756919">
        <ele>314.00999999999999</ele>
        <time>2025-04-26T10:59:31Z</time>
      </trkpt>
      <trkpt lat="43.119374010711908" lon="0.90407500974834">
        <ele>314.97000000000003</ele>
        <time>2025-04-26T10:59:39Z</time>
      </trkpt>
      <trkpt lat="43.119048960506916" lon="0.902712028473616">
        <ele>317.85000000000002</ele>
        <time>2025-04-26T10:59:44Z</time>
      </trkpt>
      <trkpt lat="43.118246980011463" lon="0.900194020941854">
        <ele>320.74000000000001</ele>
        <time>2025-04-26T10:59:54Z</time>
      </trkpt>
      <trkpt lat="43.118145978078246" lon="0.899924961850047">
        <ele>321.69999999999999</ele>
        <time>2025-04-26T10:59:55Z</time>
      </trkpt>
      <trkpt lat="43.117494033649564" lon="0.898152021691203">
        <ele>323.62</ele>
        <time>2025-04-26T11:00:02Z</time>
      </trkpt>
      <trkpt lat="43.11658401042223" lon="0.895524965599179">
        <ele>321.22000000000003</ele>
        <time>2025-04-26T11:00:12Z</time>
      </trkpt>
      <trkpt lat="43.115414986386895" lon="0.892119985073805">
        <ele>321.22000000000003</ele>
        <time>2025-04-26T11:00:25Z</time>
      </trkpt>
      <trkpt lat="43.11518800444901" lon="0.891321022063494">
        <ele>321.69999999999999</ele>
        <time>2025-04-26T11:00:29Z</time>
      </trkpt>
      <trkpt lat="43.11516797170043" lon="0.891123041510582">
        <ele>321.22000000000003</ele>
        <time>2025-04-26T11:00:30Z</time>
      </trkpt>
      <trkpt lat="43.115149028599262" lon="0.890929000452161">
        <ele>321.22000000000003</ele>
        <time>2025-04-26T11:00:31Z</time>
      </trkpt>
      <trkpt lat="43.115143999457359" lon="0.890749963000417">
        <ele>321.22000000000003</ele>
        <time>2025-04-26T11:00:32Z</time>
      </trkpt>
      <trkpt lat="43.115163026377559" lon="0.89058299548924">
        <ele>321.69999999999999</ele>
        <time>2025-04-26T11:00:33Z</time>
      </trkpt>
      <trkpt lat="43.115180041640997" lon="0.890430025756359">
        <ele>321.69999999999999</ele>
        <time>2025-04-26T11:00:34Z</time>
      </trkpt>
      <trkpt lat="43.115237038582563" lon="0.890327012166381">
        <ele>321.69999999999999</ele>
        <time>2025-04-26T11:00:35Z</time>
      </trkpt>
      <trkpt lat="43.115286994725466" lon="0.890172030776739">
        <ele>322.18000000000001</ele>
        <time>2025-04-26T11:00:36Z</time>
      </trkpt>
      <trkpt lat="43.115286994725466" lon="0.89004697278142">
        <ele>322.18000000000001</ele>
        <time>2025-04-26T11:00:37Z</time>
      </trkpt>
      <trkpt lat="43.115209965035319" lon="0.88991797529161">
        <ele>322.18000000000001</ele>
        <time>2025-04-26T11:00:38Z</time>
      </trkpt>
      <trkpt lat="43.115159003064036" lon="0.889849998056889">
        <ele>322.66000000000003</ele>
        <time>2025-04-26T11:00:39Z</time>
      </trkpt>
      <trkpt lat="43.115040985867381" lon="0.889829965308309">
        <ele>322.18000000000001</ele>
        <time>2025-04-26T11:00:40Z</time>
      </trkpt>
      <trkpt lat="43.115030005574226" lon="0.889828037470579">
        <ele>321.69999999999999</ele>
        <time>2025-04-26T11:00:41Z</time>
      </trkpt>
      <trkpt lat="43.114795982837677" lon="0.889826025813818">
        <ele>321.69999999999999</ele>
        <time>2025-04-26T11:00:42Z</time>
      </trkpt>
      <trkpt lat="43.114701015874743" lon="0.889725023880601">
        <ele>321.69999999999999</ele>
        <time>2025-04-26T11:00:43Z</time>
      </trkpt>
      <trkpt lat="43.114590039476752" lon="0.889607006683946">
        <ele>321.22000000000003</ele>
        <time>2025-04-26T11:00:44Z</time>
      </trkpt>
      <trkpt lat="43.114470010623336" lon="0.889470968395472">
        <ele>321.22000000000003</ele>
        <time>2025-04-26T11:00:45Z</time>
      </trkpt>
      <trkpt lat="43.114357022568583" lon="0.889305006712675">
        <ele>320.25999999999999</ele>
        <time>2025-04-26T11:00:46Z</time>
      </trkpt>
      <trkpt lat="43.114245040342212" lon="0.889124041423202">
        <ele>320.25999999999999</ele>
        <time>2025-04-26T11:00:47Z</time>
      </trkpt>
      <trkpt lat="43.11413599178195" lon="0.88893000036478">
        <ele>319.77999999999997</ele>
        <time>2025-04-26T11:00:48Z</time>
      </trkpt>
      <trkpt lat="43.114056028425694" lon="0.888702012598515">
        <ele>319.30000000000001</ele>
        <time>2025-04-26T11:00:49Z</time>
      </trkpt>
      <trkpt lat="43.113149022683501" lon="0.886165983974934">
        <ele>318.32999999999998</ele>
        <time>2025-04-26T11:00:59Z</time>
      </trkpt>
      <trkpt lat="43.111936999484897" lon="0.882637035101652">
        <ele>320.25999999999999</ele>
        <time>2025-04-26T11:01:12Z</time>
      </trkpt>
      <trkpt lat="43.110830001533031" lon="0.879401033744216">
        <ele>319.30000000000001</ele>
        <time>2025-04-26T11:01:24Z</time>
      </trkpt>
      <trkpt lat="43.109696013852954" lon="0.876151034608483">
        <ele>318.81</ele>
        <time>2025-04-26T11:01:37Z</time>
      </trkpt>
      <trkpt lat="43.109314972534776" lon="0.874541960656643">
        <ele>320.74000000000001</ele>
        <time>2025-04-26T11:01:44Z</time>
      </trkpt>
      <trkpt lat="43.109300974756479" lon="0.874038962647319">
        <ele>321.69999999999999</ele>
        <time>2025-04-26T11:01:47Z</time>
      </trkpt>
      <trkpt lat="43.109432989731431" lon="0.872967001050711">
        <ele>323.62</ele>
        <time>2025-04-26T11:01:56Z</time>
      </trkpt>
      <trkpt lat="43.109530974179506" lon="0.872387979179621">
        <ele>324.57999999999998</ele>
        <time>2025-04-26T11:02:02Z</time>
      </trkpt>
      <trkpt lat="43.109548995271325" lon="0.87227800861001">
        <ele>324.57999999999998</ele>
        <time>2025-04-26T11:02:03Z</time>
      </trkpt>
      <trkpt lat="43.109565004706383" lon="0.87217197753489">
        <ele>324.57999999999998</ele>
        <time>2025-04-26T11:02:04Z</time>
      </trkpt>
      <trkpt lat="43.109750999137759" lon="0.870874961838126">
        <ele>324.57999999999998</ele>
        <time>2025-04-26T11:02:14Z</time>
      </trkpt>
      <trkpt lat="43.110059034079313" lon="0.868791975080967">
        <ele>325.54000000000002</ele>
        <time>2025-04-26T11:02:27Z</time>
      </trkpt>
      <trkpt lat="43.110247040167451" lon="0.867488002404571">
        <ele>325.54000000000002</ele>
        <time>2025-04-26T11:02:37Z</time>
      </trkpt>
      <trkpt lat="43.110317029058933" lon="0.866944016888738">
        <ele>326.01999999999998</ele>
        <time>2025-04-26T11:02:43Z</time>
      </trkpt>
      <trkpt lat="43.110336977988482" lon="0.866751987487078">
        <ele>326.5</ele>
        <time>2025-04-26T11:02:45Z</time>
      </trkpt>
      <trkpt lat="43.1103549990803" lon="0.866660038009286">
        <ele>326.99000000000001</ele>
        <time>2025-04-26T11:02:46Z</time>
      </trkpt>
      <trkpt lat="43.11037503182888" lon="0.866558030247688">
        <ele>327.47000000000003</ele>
        <time>2025-04-26T11:02:47Z</time>
      </trkpt>
      <trkpt lat="43.110543005168438" lon="0.865288004279137">
        <ele>330.82999999999998</ele>
        <time>2025-04-26T11:02:57Z</time>
      </trkpt>
      <trkpt lat="43.110799994319677" lon="0.863509029150009">
        <ele>332.26999999999998</ele>
        <time>2025-04-26T11:03:07Z</time>
      </trkpt>
      <trkpt lat="43.11112898401916" lon="0.861243987455964">
        <ele>333.23000000000002</ele>
        <time>2025-04-26T11:03:16Z</time>
      </trkpt>
      <trkpt lat="43.111565010622144" lon="0.858127009123564">
        <ele>334.19999999999999</ele>
        <time>2025-04-26T11:03:27Z</time>
      </trkpt>
      <trkpt lat="43.112063985317945" lon="0.854572998359799">
        <ele>338.51999999999998</ele>
        <time>2025-04-26T11:03:40Z</time>
      </trkpt>
      <trkpt lat="43.112404961138964" lon="0.852058008313179">
        <ele>347.17000000000002</ele>
        <time>2025-04-26T11:03:49Z</time>
      </trkpt>
      <trkpt lat="43.112977026030421" lon="0.848050033673644">
        <ele>359.67000000000002</ele>
        <time>2025-04-26T11:04:03Z</time>
      </trkpt>
      <trkpt lat="43.112991023808718" lon="0.845420965924859">
        <ele>366.88</ele>
        <time>2025-04-26T11:04:12Z</time>
      </trkpt>
      <trkpt lat="43.112991023808718" lon="0.841240994632244">
        <ele>369.75999999999999</ele>
        <time>2025-04-26T11:04:27Z</time>
      </trkpt>
      <trkpt lat="43.112991023808718" lon="0.837248023599386">
        <ele>369.75999999999999</ele>
        <time>2025-04-26T11:04:42Z</time>
      </trkpt>
      <trkpt lat="43.113012984395027" lon="0.834150994196534">
        <ele>370.73000000000002</ele>
        <time>2025-04-26T11:04:54Z</time>
      </trkpt>
      <trkpt lat="43.112955987453461" lon="0.830198004841805">
        <ele>369.75999999999999</ele>
        <time>2025-04-26T11:05:09Z</time>
      </trkpt>
      <trkpt lat="43.112948024645448" lon="0.826605018228292">
        <ele>370.73000000000002</ele>
        <time>2025-04-26T11:05:22Z</time>
      </trkpt>
      <trkpt lat="43.112918017432094" lon="0.821070028468966">
        <ele>371.20999999999998</ele>
        <time>2025-04-26T11:05:42Z</time>
      </trkpt>
      <trkpt lat="43.112906031310558" lon="0.816917968913913">
        <ele>373.13</ele>
        <time>2025-04-26T11:05:57Z</time>
      </trkpt>
      <trkpt lat="43.112930003553629" lon="0.813940968364477">
        <ele>372.64999999999998</ele>
        <time>2025-04-26T11:06:09Z</time>
      </trkpt>
      <trkpt lat="43.112946012988687" lon="0.813411986455321">
        <ele>372.17000000000002</ele>
        <time>2025-04-26T11:06:12Z</time>
      </trkpt>
      <trkpt lat="43.112948024645448" lon="0.813309978693724">
        <ele>372.17000000000002</ele>
        <time>2025-04-26T11:06:13Z</time>
      </trkpt>
      <trkpt lat="43.113055983558297" lon="0.813170000910759">
        <ele>372.64999999999998</ele>
        <time>2025-04-26T11:06:14Z</time>
      </trkpt>
      <trkpt lat="43.113059001043439" lon="0.812991969287395">
        <ele>372.17000000000002</ele>
        <time>2025-04-26T11:06:15Z</time>
      </trkpt>
      <trkpt lat="43.112948024645448" lon="0.812860038131475">
        <ele>372.17000000000002</ele>
        <time>2025-04-26T11:06:16Z</time>
      </trkpt>
      <trkpt lat="43.112938972190022" lon="0.812705978751183">
        <ele>372.17000000000002</ele>
        <time>2025-04-26T11:06:17Z</time>
      </trkpt>
      <trkpt lat="43.112927991896868" lon="0.81252702511847">
        <ele>372.17000000000002</ele>
        <time>2025-04-26T11:06:18Z</time>
      </trkpt>
      <trkpt lat="43.112917011603713" lon="0.812331978231668">
        <ele>372.17000000000002</ele>
        <time>2025-04-26T11:06:19Z</time>
      </trkpt>
      <trkpt lat="43.112883986905217" lon="0.8103789947927">
        <ele>373.13</ele>
        <time>2025-04-26T11:06:27Z</time>
      </trkpt>
      <trkpt lat="43.112883986905217" lon="0.807759985327721">
        <ele>374.56999999999999</ele>
        <time>2025-04-26T11:06:36Z</time>
      </trkpt>
      <trkpt lat="43.112863032147288" lon="0.802938966080546">
        <ele>374.56999999999999</ele>
        <time>2025-04-26T11:06:53Z</time>
      </trkpt>
      <trkpt lat="43.112840987741947" lon="0.799083961173892">
        <ele>376.97000000000003</ele>
        <time>2025-04-26T11:07:07Z</time>
      </trkpt>
      <trkpt lat="43.112840987741947" lon="0.794150959700346">
        <ele>378.42000000000002</ele>
        <time>2025-04-26T11:07:24Z</time>
      </trkpt>
      <trkpt lat="43.112821038812399" lon="0.791504038497806">
        <ele>378.89999999999998</ele>
        <time>2025-04-26T11:07:34Z</time>
      </trkpt>
      <trkpt lat="43.112820032984018" lon="0.788307012990117">
        <ele>379.38</ele>
        <time>2025-04-26T11:07:47Z</time>
      </trkpt>
      <trkpt lat="43.112801006063819" lon="0.785785987973213">
        <ele>379.86000000000001</ele>
        <time>2025-04-26T11:07:58Z</time>
      </trkpt>
      <trkpt lat="43.112848028540611" lon="0.783898970112205">
        <ele>380.81999999999999</ele>
        <time>2025-04-26T11:08:07Z</time>
      </trkpt>
      <trkpt lat="43.112883986905217" lon="0.783422039821744">
        <ele>380.33999999999997</ele>
        <time>2025-04-26T11:08:10Z</time>
      </trkpt>
      <trkpt lat="43.113010972738266" lon="0.783177958801389">
        <ele>380.33999999999997</ele>
        <time>2025-04-26T11:08:12Z</time>
      </trkpt>
      <trkpt lat="43.112970991060138" lon="0.783017026260495">
        <ele>380.81999999999999</ele>
        <time>2025-04-26T11:08:13Z</time>
      </trkpt>
      <trkpt lat="43.112894967198372" lon="0.782900014892221">
        <ele>380.81999999999999</ele>
        <time>2025-04-26T11:08:14Z</time>
      </trkpt>
      <trkpt lat="43.112797988578677" lon="0.78150300309062">
        <ele>381.30000000000001</ele>
        <time>2025-04-26T11:08:22Z</time>
      </trkpt>
      <trkpt lat="43.112788014113903" lon="0.77961296774447">
        <ele>382.25999999999999</ele>
        <time>2025-04-26T11:08:30Z</time>
      </trkpt>
      <trkpt lat="43.112755995243788" lon="0.775988968089223">
        <ele>381.30000000000001</ele>
        <time>2025-04-26T11:08:44Z</time>
      </trkpt>
      <trkpt lat="43.112754989415407" lon="0.772819016128778">
        <ele>384.18000000000001</ele>
        <time>2025-04-26T11:08:56Z</time>
      </trkpt>
      <trkpt lat="43.112734034657478" lon="0.770725971087813">
        <ele>386.11000000000001</ele>
        <time>2025-04-26T11:09:06Z</time>
      </trkpt>
      <trkpt lat="43.112752977758646" lon="0.769314039498568">
        <ele>386.58999999999997</ele>
        <time>2025-04-26T11:09:15Z</time>
      </trkpt>
      <trkpt lat="43.112754989415407" lon="0.769189987331629">
        <ele>386.58999999999997</ele>
        <time>2025-04-26T11:09:16Z</time>
      </trkpt>
      <trkpt lat="43.112861020490527" lon="0.768966022878885">
        <ele>386.58999999999997</ele>
        <time>2025-04-26T11:09:18Z</time>
      </trkpt>
      <trkpt lat="43.112840987741947" lon="0.76887097209692">
        <ele>386.58999999999997</ele>
        <time>2025-04-26T11:09:19Z</time>
      </trkpt>
      <trkpt lat="43.112754989415407" lon="0.768672991544008">
        <ele>386.58999999999997</ele>
        <time>2025-04-26T11:09:20Z</time>
      </trkpt>
      <trkpt lat="43.112754989415407" lon="0.768523039296269">
        <ele>386.58999999999997</ele>
        <time>2025-04-26T11:09:21Z</time>
      </trkpt>
      <trkpt lat="43.112754989415407" lon="0.768357999622822">
        <ele>386.58999999999997</ele>
        <time>2025-04-26T11:09:22Z</time>
      </trkpt>
      <trkpt lat="43.112748032435775" lon="0.768178962171078">
        <ele>386.11000000000001</ele>
        <time>2025-04-26T11:09:23Z</time>
      </trkpt>
      <trkpt lat="43.112734034657478" lon="0.766447009518743">
        <ele>384.66000000000003</ele>
        <time>2025-04-26T11:09:31Z</time>
      </trkpt>
      <trkpt lat="43.112718025222421" lon="0.763496998697519">
        <ele>385.14999999999998</ele>
        <time>2025-04-26T11:09:42Z</time>
      </trkpt>
      <trkpt lat="43.112711990252137" lon="0.762970028445125">
        <ele>385.14999999999998</ele>
        <time>2025-04-26T11:09:44Z</time>
      </trkpt>
      <trkpt lat="43.112711990252137" lon="0.760401980951428">
        <ele>388.50999999999999</ele>
        <time>2025-04-26T11:09:54Z</time>
      </trkpt>
      <trkpt lat="43.112745014950633" lon="0.759756993502378">
        <ele>389.47000000000003</ele>
        <time>2025-04-26T11:09:57Z</time>
      </trkpt>
      <trkpt lat="43.112779967486858" lon="0.759553983807564">
        <ele>389.47000000000003</ele>
        <time>2025-04-26T11:09:58Z</time>
      </trkpt>
      <trkpt lat="43.11282598413527" lon="0.759360026568174">
        <ele>389.47000000000003</ele>
        <time>2025-04-26T11:09:59Z</time>
      </trkpt>
      <trkpt lat="43.112879963591695" lon="0.759186018258333">
        <ele>389.94999999999999</ele>
        <time>2025-04-26T11:10:00Z</time>
      </trkpt>
      <trkpt lat="43.112960010766983" lon="0.759025001898408">
        <ele>390.43000000000001</ele>
        <time>2025-04-26T11:10:01Z</time>
      </trkpt>
      <trkpt lat="43.113046009093523" lon="0.758859040215611">
        <ele>390.43000000000001</ele>
        <time>2025-04-26T11:10:02Z</time>
      </trkpt>
      <trkpt lat="43.113209959119558" lon="0.758527033030987">
        <ele>390.43000000000001</ele>
        <time>2025-04-26T11:10:04Z</time>
      </trkpt>
      <trkpt lat="43.113272991031408" lon="0.758365010842681">
        <ele>390.43000000000001</ele>
        <time>2025-04-26T11:10:05Z</time>
      </trkpt>
      <trkpt lat="43.113382961601019" lon="0.758079020306468">
        <ele>390.91000000000003</ele>
        <time>2025-04-26T11:10:07Z</time>
      </trkpt>
      <trkpt lat="43.113431995734572" lon="0.7579530403018">
        <ele>390.91000000000003</ele>
        <time>2025-04-26T11:10:08Z</time>
      </trkpt>
      <trkpt lat="43.113522017374635" lon="0.75789101421833">
        <ele>391.38999999999999</ele>
        <time>2025-04-26T11:10:09Z</time>
      </trkpt>
      <trkpt lat="43.113595023751259" lon="0.757818007841706">
        <ele>391.38999999999999</ele>
        <time>2025-04-26T11:10:10Z</time>
      </trkpt>
      <trkpt lat="43.113669035956264" lon="0.757732009515166">
        <ele>391.87</ele>
        <time>2025-04-26T11:10:11Z</time>
      </trkpt>
      <trkpt lat="43.113698959350586" lon="0.757587002590299">
        <ele>391.87</ele>
        <time>2025-04-26T11:10:12Z</time>
      </trkpt>
      <trkpt lat="43.113698959350586" lon="0.757498992606997">
        <ele>391.87</ele>
        <time>2025-04-26T11:10:13Z</time>
      </trkpt>
      <trkpt lat="43.113635005429387" lon="0.757349040359259">
        <ele>391.87</ele>
        <time>2025-04-26T11:10:14Z</time>
      </trkpt>
      <trkpt lat="43.113526040688157" lon="0.757258012890816">
        <ele>391.87</ele>
        <time>2025-04-26T11:10:15Z</time>
      </trkpt>
      <trkpt lat="43.113480024039745" lon="0.757127003744245">
        <ele>391.87</ele>
        <time>2025-04-26T11:10:16Z</time>
      </trkpt>
      <trkpt lat="43.113429984077811" lon="0.756985014304519">
        <ele>391.87</ele>
        <time>2025-04-26T11:10:17Z</time>
      </trkpt>
      <trkpt lat="43.113378016278148" lon="0.756832966580987">
        <ele>392.36000000000001</ele>
        <time>2025-04-26T11:10:18Z</time>
      </trkpt>
      <trkpt lat="43.113339962437749" lon="0.756673039868474">
        <ele>392.36000000000001</ele>
        <time>2025-04-26T11:10:19Z</time>
      </trkpt>
      <trkpt lat="43.113246001303196" lon="0.75638797134161">
        <ele>392.36000000000001</ele>
        <time>2025-04-26T11:10:21Z</time>
      </trkpt>
      <trkpt lat="43.113174000754952" lon="0.7562589738518">
        <ele>392.36000000000001</ele>
        <time>2025-04-26T11:10:22Z</time>
      </trkpt>
      <trkpt lat="43.113098982721567" lon="0.756125031039119">
        <ele>392.36000000000001</ele>
        <time>2025-04-26T11:10:23Z</time>
      </trkpt>
      <trkpt lat="43.113022958859801" lon="0.756011959165335">
        <ele>392.36000000000001</ele>
        <time>2025-04-26T11:10:24Z</time>
      </trkpt>
      <trkpt lat="43.112942995503545" lon="0.75589201413095">
        <ele>392.36000000000001</ele>
        <time>2025-04-26T11:10:25Z</time>
      </trkpt>
      <trkpt lat="43.112863032147288" lon="0.755770979449153">
        <ele>392.36000000000001</ele>
        <time>2025-04-26T11:10:26Z</time>
      </trkpt>
      <trkpt lat="43.112786002457142" lon="0.755635024979711">
        <ele>392.36000000000001</ele>
        <time>2025-04-26T11:10:27Z</time>
      </trkpt>
      <trkpt lat="43.112740991637111" lon="0.755483983084559">
        <ele>392.36000000000001</ele>
        <time>2025-04-26T11:10:28Z</time>
      </trkpt>
      <trkpt lat="43.112703021615744" lon="0.755321038886905">
        <ele>392.36000000000001</ele>
        <time>2025-04-26T11:10:29Z</time>
      </trkpt>
      <trkpt lat="43.112690029665828" lon="0.755147030577064">
        <ele>392.36000000000001</ele>
        <time>2025-04-26T11:10:30Z</time>
      </trkpt>
      <trkpt lat="43.112689023837447" lon="0.754976039752364">
        <ele>392.83999999999997</ele>
        <time>2025-04-26T11:10:31Z</time>
      </trkpt>
      <trkpt lat="43.11267402023077" lon="0.753018027171493">
        <ele>395.24000000000001</ele>
        <time>2025-04-26T11:10:43Z</time>
      </trkpt>
      <trkpt lat="43.112668991088867" lon="0.750571014359593">
        <ele>397.63999999999999</ele>
        <time>2025-04-26T11:10:58Z</time>
      </trkpt>
      <trkpt lat="43.112648036330938" lon="0.748636974021792">
        <ele>397.63999999999999</ele>
        <time>2025-04-26T11:11:10Z</time>
      </trkpt>
      <trkpt lat="43.112369002774358" lon="0.746554993093014">
        <ele>399.56999999999999</ele>
        <time>2025-04-26T11:11:23Z</time>
      </trkpt>
      <trkpt lat="43.112061973661184" lon="0.744817005470395">
        <ele>401.49000000000001</ele>
        <time>2025-04-26T11:11:34Z</time>
      </trkpt>
      <trkpt lat="43.111603986471891" lon="0.742120966315269">
        <ele>400.52999999999997</ele>
        <time>2025-04-26T11:11:51Z</time>
      </trkpt>
      <trkpt lat="43.111308021470904" lon="0.74040099978447">
        <ele>401.00999999999999</ele>
        <time>2025-04-26T11:12:03Z</time>
      </trkpt>
      <trkpt lat="43.111267033964396" lon="0.740160020068288">
        <ele>401.00999999999999</ele>
        <time>2025-04-26T11:12:08Z</time>
      </trkpt>
      <trkpt lat="43.111267033964396" lon="0.740160020068288">
        <ele>401.00999999999999</ele>
        <time>2025-04-26T11:12:20Z</time>
      </trkpt>
      <trkpt lat="43.111209031194448" lon="0.739812003448606">
        <ele>401.97000000000003</ele>
        <time>2025-04-26T11:12:47Z</time>
      </trkpt>
      <trkpt lat="43.110968973487616" lon="0.738497972488403">
        <ele>402.44999999999999</ele>
        <time>2025-04-26T11:12:57Z</time>
      </trkpt>
      <trkpt lat="43.110659010708332" lon="0.736629981547594">
        <ele>402.93000000000001</ele>
        <time>2025-04-26T11:13:09Z</time>
      </trkpt>
      <trkpt lat="43.110429011285305" lon="0.735234981402755">
        <ele>402.93000000000001</ele>
        <time>2025-04-26T11:13:19Z</time>
      </trkpt>
      <trkpt lat="43.110242011025548" lon="0.73412898927927">
        <ele>404.37</ele>
        <time>2025-04-26T11:13:30Z</time>
      </trkpt>
      <trkpt lat="43.110003964975476" lon="0.73277598246932">
        <ele>407.25999999999999</ele>
        <time>2025-04-26T11:13:43Z</time>
      </trkpt>
      <trkpt lat="43.109956020489335" lon="0.732492003589869">
        <ele>407.25999999999999</ele>
        <time>2025-04-26T11:13:46Z</time>
      </trkpt>
      <trkpt lat="43.109826017171144" lon="0.731724975630641">
        <ele>407.74000000000001</ele>
        <time>2025-04-26T11:13:53Z</time>
      </trkpt>
      <trkpt lat="43.10971001163125" lon="0.731036989018321">
        <ele>409.18000000000001</ele>
        <time>2025-04-26T11:14:00Z</time>
      </trkpt>
      <trkpt lat="43.109678998589516" lon="0.730853006243706">
        <ele>409.18000000000001</ele>
        <time>2025-04-26T11:14:02Z</time>
      </trkpt>
      <trkpt lat="43.10966701246798" lon="0.730783017352223">
        <ele>408.69999999999999</ele>
        <time>2025-04-26T11:14:03Z</time>
      </trkpt>
      <trkpt lat="43.109505996108055" lon="0.729838963598013">
        <ele>402.93000000000001</ele>
        <time>2025-04-26T11:14:12Z</time>
      </trkpt>
      <trkpt lat="43.109472971409559" lon="0.729641988873482">
        <ele>402.44999999999999</ele>
        <time>2025-04-26T11:14:14Z</time>
      </trkpt>
      <trkpt lat="43.109455034136772" lon="0.729536963626742">
        <ele>402.44999999999999</ele>
        <time>2025-04-26T11:14:15Z</time>
      </trkpt>
      <trkpt lat="43.109437013044953" lon="0.729430010542274">
        <ele>401.97000000000003</ele>
        <time>2025-04-26T11:14:16Z</time>
      </trkpt>
      <trkpt lat="43.109418991953135" lon="0.729325991123915">
        <ele>402.44999999999999</ele>
        <time>2025-04-26T11:14:17Z</time>
      </trkpt>
      <trkpt lat="43.109404994174838" lon="0.729225995019078">
        <ele>402.44999999999999</ele>
        <time>2025-04-26T11:14:18Z</time>
      </trkpt>
      <trkpt lat="43.109390996396542" lon="0.729074031114578">
        <ele>402.93000000000001</ele>
        <time>2025-04-26T11:14:20Z</time>
      </trkpt>
      <trkpt lat="43.109375992789865" lon="0.728905973955989">
        <ele>403.88999999999999</ele>
        <time>2025-04-26T11:14:22Z</time>
      </trkpt>
      <trkpt lat="43.109368029981852" lon="0.728823998942971">
        <ele>404.37</ele>
        <time>2025-04-26T11:14:23Z</time>
      </trkpt>
      <trkpt lat="43.109471965581179" lon="0.728745041415095">
        <ele>404.85000000000002</ele>
        <time>2025-04-26T11:14:24Z</time>
      </trkpt>
      <trkpt lat="43.109486969187856" lon="0.728722997009754">
        <ele>404.85000000000002</ele>
        <time>2025-04-26T11:14:25Z</time>
      </trkpt>
      <trkpt lat="43.109527034685016" lon="0.728662982583046">
        <ele>405.32999999999998</ele>
        <time>2025-04-26T11:14:26Z</time>
      </trkpt>
      <trkpt lat="43.109566010534763" lon="0.72856298647821">
        <ele>405.81</ele>
        <time>2025-04-26T11:14:27Z</time>
      </trkpt>
      <trkpt lat="43.109575984999537" lon="0.728487968444824">
        <ele>406.29000000000002</ele>
        <time>2025-04-26T11:14:28Z</time>
      </trkpt>
      <trkpt lat="43.109512031078339" lon="0.728388978168368">
        <ele>406.29000000000002</ele>
        <time>2025-04-26T11:14:29Z</time>
      </trkpt>
      <trkpt lat="43.109465008601546" lon="0.728334998711944">
        <ele>406.76999999999998</ele>
        <time>2025-04-26T11:14:30Z</time>
      </trkpt>
      <trkpt lat="43.109428966417909" lon="0.728295017033815">
        <ele>407.25999999999999</ele>
        <time>2025-04-26T11:14:31Z</time>
      </trkpt>
      <trkpt lat="43.109374986961484" lon="0.728322006762028">
        <ele>407.74000000000001</ele>
        <time>2025-04-26T11:14:32Z</time>
      </trkpt>
      <trkpt lat="43.109243977814913" lon="0.728293005377054">
        <ele>408.22000000000003</ele>
        <time>2025-04-26T11:14:33Z</time>
      </trkpt>
      <trkpt lat="43.109171977266669" lon="0.728209018707275">
        <ele>409.18000000000001</ele>
        <time>2025-04-26T11:14:35Z</time>
      </trkpt>
      <trkpt lat="43.109122021123767" lon="0.728124026209116">
        <ele>409.66000000000003</ele>
        <time>2025-04-26T11:14:36Z</time>
      </trkpt>
      <trkpt lat="43.10908799059689" lon="0.728065017610788">
        <ele>410.13999999999999</ele>
        <time>2025-04-26T11:14:37Z</time>
      </trkpt>
      <trkpt lat="43.109011966735125" lon="0.727921016514301">
        <ele>411.57999999999998</ele>
        <time>2025-04-26T11:14:39Z</time>
      </trkpt>
      <trkpt lat="43.108983971178532" lon="0.727834012359381">
        <ele>412.06</ele>
        <time>2025-04-26T11:14:40Z</time>
      </trkpt>
      <trkpt lat="43.108823038637638" lon="0.727268988266587">
        <ele>413.98000000000002</ele>
        <time>2025-04-26T11:14:46Z</time>
      </trkpt>
      <trkpt lat="43.108802000060678" lon="0.727177038788795">
        <ele>414.47000000000003</ele>
        <time>2025-04-26T11:14:47Z</time>
      </trkpt>
      <trkpt lat="43.10874299146235" lon="0.726921977475286">
        <ele>415.43000000000001</ele>
        <time>2025-04-26T11:14:51Z</time>
      </trkpt>
      <trkpt lat="43.10874299146235" lon="0.726921977475286">
        <ele>415.43000000000001</ele>
        <time>2025-04-26T11:14:52Z</time>
      </trkpt>
      <trkpt lat="43.108798982575536" lon="0.726876966655254">
        <ele>415.43000000000001</ele>
        <time>2025-04-26T11:14:53Z</time>
      </trkpt>
      <trkpt lat="43.108826978132129" lon="0.726831033825874">
        <ele>415.91000000000003</ele>
        <time>2025-04-26T11:14:54Z</time>
      </trkpt>
      <trkpt lat="43.10885002836585" lon="0.726792979985476">
        <ele>415.91000000000003</ele>
        <time>2025-04-26T11:14:55Z</time>
      </trkpt>
      <trkpt lat="43.108874000608921" lon="0.726769007742405">
        <ele>416.38999999999999</ele>
        <time>2025-04-26T11:14:56Z</time>
      </trkpt>
      <trkpt lat="43.108912976458669" lon="0.726730031892657">
        <ele>416.87</ele>
        <time>2025-04-26T11:14:57Z</time>
      </trkpt>
      <trkpt lat="43.108953963965178" lon="0.726688038557768">
        <ele>417.35000000000002</ele>
        <time>2025-04-26T11:14:58Z</time>
      </trkpt>
      <trkpt lat="43.108993023633957" lon="0.726599022746086">
        <ele>417.82999999999998</ele>
        <time>2025-04-26T11:14:59Z</time>
      </trkpt>
      <trkpt lat="43.1090650241822" lon="0.726428031921387">
        <ele>418.79000000000002</ele>
        <time>2025-04-26T11:15:02Z</time>
      </trkpt>
      <trkpt lat="43.109073992818594" lon="0.726361982524395">
        <ele>418.79000000000002</ele>
        <time>2025-04-26T11:15:03Z</time>
      </trkpt>
      <trkpt lat="43.109081033617258" lon="0.726314038038254">
        <ele>418.79000000000002</ele>
        <time>2025-04-26T11:15:04Z</time>
      </trkpt>
      <trkpt lat="43.109088996425271" lon="0.726256035268307">
        <ele>418.79000000000002</ele>
        <time>2025-04-26T11:15:05Z</time>
      </trkpt>
      <trkpt lat="43.109099976718426" lon="0.726181017234921">
        <ele>419.26999999999998</ele>
        <time>2025-04-26T11:15:06Z</time>
      </trkpt>
      <trkpt lat="43.109111962839961" lon="0.726098036393523">
        <ele>419.26999999999998</ele>
        <time>2025-04-26T11:15:07Z</time>
      </trkpt>
      <trkpt lat="43.10921598225832" lon="0.725529994815588">
        <ele>419.26999999999998</ele>
        <time>2025-04-26T11:15:13Z</time>
      </trkpt>
      <trkpt lat="43.109231991693377" lon="0.725424969568849">
        <ele>419.26999999999998</ele>
        <time>2025-04-26T11:15:14Z</time>
      </trkpt>
      <trkpt lat="43.109273985028267" lon="0.72510696016252">
        <ele>419.75</ele>
        <time>2025-04-26T11:15:17Z</time>
      </trkpt>
      <trkpt lat="43.109285971149802" lon="0.725010987371206">
        <ele>419.75</ele>
        <time>2025-04-26T11:15:18Z</time>
      </trkpt>
      <trkpt lat="43.109298963099718" lon="0.724905040115118">
        <ele>419.75</ele>
        <time>2025-04-26T11:15:19Z</time>
      </trkpt>
      <trkpt lat="43.109314972534776" lon="0.724785011261702">
        <ele>419.26999999999998</ele>
        <time>2025-04-26T11:15:20Z</time>
      </trkpt>
      <trkpt lat="43.109329976141453" lon="0.724669005721807">
        <ele>419.26999999999998</ele>
        <time>2025-04-26T11:15:21Z</time>
      </trkpt>
      <trkpt lat="43.109343973919749" lon="0.724560962989926">
        <ele>418.79000000000002</ele>
        <time>2025-04-26T11:15:22Z</time>
      </trkpt>
      <trkpt lat="43.109335005283356" lon="0.724436994642019">
        <ele>418.31</ele>
        <time>2025-04-26T11:15:23Z</time>
      </trkpt>
      <trkpt lat="43.109326958656311" lon="0.724318977445364">
        <ele>417.82999999999998</ele>
        <time>2025-04-26T11:15:24Z</time>
      </trkpt>
      <trkpt lat="43.109309021383524" lon="0.724098030477762">
        <ele>417.35000000000002</ele>
        <time>2025-04-26T11:15:26Z</time>
      </trkpt>
      <trkpt lat="43.109281025826931" lon="0.723867025226355">
        <ele>415.91000000000003</ele>
        <time>2025-04-26T11:15:31Z</time>
      </trkpt>
      <trkpt lat="43.109246995300055" lon="0.723639959469438">
        <ele>416.38999999999999</ele>
        <time>2025-04-26T11:15:35Z</time>
      </trkpt>
      <trkpt lat="43.10904499143362" lon="0.722777964547277">
        <ele>417.35000000000002</ele>
        <time>2025-04-26T11:15:46Z</time>
      </trkpt>
      <trkpt lat="43.109026970341802" lon="0.722708981484175">
        <ele>417.82999999999998</ele>
        <time>2025-04-26T11:15:47Z</time>
      </trkpt>
      <trkpt lat="43.109008027240634" lon="0.722635975107551">
        <ele>417.82999999999998</ele>
        <time>2025-04-26T11:15:48Z</time>
      </trkpt>
      <trkpt lat="43.108733016997576" lon="0.721637019887567">
        <ele>418.31</ele>
        <time>2025-04-26T11:15:59Z</time>
      </trkpt>
      <trkpt lat="43.108511986210942" lon="0.720925983041525">
        <ele>418.31</ele>
        <time>2025-04-26T11:16:08Z</time>
      </trkpt>
      <trkpt lat="43.108469992876053" lon="0.720866974443197">
        <ele>418.79000000000002</ele>
        <time>2025-04-26T11:16:09Z</time>
      </trkpt>
      <trkpt lat="43.108437974005938" lon="0.720824981108308">
        <ele>418.79000000000002</ele>
        <time>2025-04-26T11:16:10Z</time>
      </trkpt>
      <trkpt lat="43.108379971235991" lon="0.720790028572083">
        <ele>418.79000000000002</ele>
        <time>2025-04-26T11:16:11Z</time>
      </trkpt>
      <trkpt lat="43.108334960415959" lon="0.72076303884387">
        <ele>419.26999999999998</ele>
        <time>2025-04-26T11:16:12Z</time>
      </trkpt>
      <trkpt lat="43.108273018151522" lon="0.720773013308644">
        <ele>419.75</ele>
        <time>2025-04-26T11:16:13Z</time>
      </trkpt>
      <trkpt lat="43.108202023431659" lon="0.720783993601799">
        <ele>419.75</ele>
        <time>2025-04-26T11:16:14Z</time>
      </trkpt>
      <trkpt lat="43.108128011226654" lon="0.720794973894954">
        <ele>420.23000000000002</ele>
        <time>2025-04-26T11:16:15Z</time>
      </trkpt>
      <trkpt lat="43.108053999021649" lon="0.72080603800714">
        <ele>420.70999999999998</ele>
        <time>2025-04-26T11:16:16Z</time>
      </trkpt>
      <trkpt lat="43.107976969331503" lon="0.720819029957056">
        <ele>420.70999999999998</ele>
        <time>2025-04-26T11:16:17Z</time>
      </trkpt>
      <trkpt lat="43.107477994635701" lon="0.720868986099958">
        <ele>419.26999999999998</ele>
        <time>2025-04-26T11:16:23Z</time>
      </trkpt>
      <trkpt lat="43.107383027672768" lon="0.720855994150043">
        <ele>419.26999999999998</ele>
        <time>2025-04-26T11:16:24Z</time>
      </trkpt>
      <trkpt lat="43.107275990769267" lon="0.720835039392114">
        <ele>418.79000000000002</ele>
        <time>2025-04-26T11:16:25Z</time>
      </trkpt>
      <trkpt lat="43.107173983007669" lon="0.720816012471914">
        <ele>418.79000000000002</ele>
        <time>2025-04-26T11:16:26Z</time>
      </trkpt>
      <trkpt lat="43.107116986066103" lon="0.720723979175091">
        <ele>418.79000000000002</ele>
        <time>2025-04-26T11:16:27Z</time>
      </trkpt>
      <trkpt lat="43.107093013823032" lon="0.720677962526679">
        <ele>418.31</ele>
        <time>2025-04-26T11:16:28Z</time>
      </trkpt>
      <trkpt lat="43.107062000781298" lon="0.720607973635197">
        <ele>418.31</ele>
        <time>2025-04-26T11:16:29Z</time>
      </trkpt>
      <trkpt lat="43.10702595859766" lon="0.72052700445056">
        <ele>417.35000000000002</ele>
        <time>2025-04-26T11:16:30Z</time>
      </trkpt>
      <trkpt lat="43.107043979689479" lon="0.720430025830865">
        <ele>417.35000000000002</ele>
        <time>2025-04-26T11:16:31Z</time>
      </trkpt>
      <trkpt lat="43.107064012438059" lon="0.720323994755745">
        <ele>416.87</ele>
        <time>2025-04-26T11:16:32Z</time>
      </trkpt>
      <trkpt lat="43.107083961367607" lon="0.720216035842896">
        <ele>416.87</ele>
        <time>2025-04-26T11:16:33Z</time>
      </trkpt>
      <trkpt lat="43.107102988287807" lon="0.720116039738059">
        <ele>416.87</ele>
        <time>2025-04-26T11:16:34Z</time>
      </trkpt>
      <trkpt lat="43.107139030471444" lon="0.719920992851257">
        <ele>416.38999999999999</ele>
        <time>2025-04-26T11:16:36Z</time>
      </trkpt>
      <trkpt lat="43.107329970225692" lon="0.718887001276016">
        <ele>414.94999999999999</ele>
        <time>2025-04-26T11:16:46Z</time>
      </trkpt>
      <trkpt lat="43.107369029894471" lon="0.718686003237963">
        <ele>414.47000000000003</ele>
        <time>2025-04-26T11:16:48Z</time>
      </trkpt>
      <trkpt lat="43.107388978824019" lon="0.718586007133126">
        <ele>414.47000000000003</ele>
        <time>2025-04-26T11:16:49Z</time>
      </trkpt>
      <trkpt lat="43.107667006552219" lon="0.717224031686783">
        <ele>410.62</ele>
        <time>2025-04-26T11:17:01Z</time>
      </trkpt>
      <trkpt lat="43.107823999598622" lon="0.716449962928891">
        <ele>410.62</ele>
        <time>2025-04-26T11:17:08Z</time>
      </trkpt>
      <trkpt lat="43.107884014025331" lon="0.716363964602351">
        <ele>410.13999999999999</ele>
        <time>2025-04-26T11:17:09Z</time>
      </trkpt>
      <trkpt lat="43.107922989875078" lon="0.716325994580984">
        <ele>409.66000000000003</ele>
        <time>2025-04-26T11:17:10Z</time>
      </trkpt>
      <trkpt lat="43.10790597461164" lon="0.716207977384329">
        <ele>409.66000000000003</ele>
        <time>2025-04-26T11:17:11Z</time>
      </trkpt>
      <trkpt lat="43.10790597461164" lon="0.716107981279492">
        <ele>409.66000000000003</ele>
        <time>2025-04-26T11:17:12Z</time>
      </trkpt>
      <trkpt lat="43.10790597461164" lon="0.716001028195024">
        <ele>410.13999999999999</ele>
        <time>2025-04-26T11:17:13Z</time>
      </trkpt>
      <trkpt lat="43.107909997925162" lon="0.715873036533594">
        <ele>410.62</ele>
        <time>2025-04-26T11:17:14Z</time>
      </trkpt>
      <trkpt lat="43.107933970168233" lon="0.715753007680178">
        <ele>411.10000000000002</ele>
        <time>2025-04-26T11:17:15Z</time>
      </trkpt>
      <trkpt lat="43.108235970139503" lon="0.714206965640187">
        <ele>412.06</ele>
        <time>2025-04-26T11:17:27Z</time>
      </trkpt>
      <trkpt lat="43.10861399397254" lon="0.712269991636276">
        <ele>411.57999999999998</ele>
        <time>2025-04-26T11:17:43Z</time>
      </trkpt>
      <trkpt lat="43.108718013390899" lon="0.711637996137142">
        <ele>411.10000000000002</ele>
        <time>2025-04-26T11:17:50Z</time>
      </trkpt>
      <trkpt lat="43.108736034482718" lon="0.711540011689067">
        <ele>411.10000000000002</ele>
        <time>2025-04-26T11:17:51Z</time>
      </trkpt>
      <trkpt lat="43.108754977583885" lon="0.711434986442328">
        <ele>410.62</ele>
        <time>2025-04-26T11:17:52Z</time>
      </trkpt>
      <trkpt lat="43.108954969793558" lon="0.710054989904165">
        <ele>409.18000000000001</ele>
        <time>2025-04-26T11:18:03Z</time>
      </trkpt>
      <trkpt lat="43.108999980613589" lon="0.709421988576651">
        <ele>409.66000000000003</ele>
        <time>2025-04-26T11:18:08Z</time>
      </trkpt>
      <trkpt lat="43.109085978940129" lon="0.709283016622067">
        <ele>409.66000000000003</ele>
        <time>2025-04-26T11:18:09Z</time>
      </trkpt>
      <trkpt lat="43.109119003638625" lon="0.709098028019071">
        <ele>409.66000000000003</ele>
        <time>2025-04-26T11:18:11Z</time>
      </trkpt>
      <trkpt lat="43.10910802334547" lon="0.709003983065486">
        <ele>409.66000000000003</ele>
        <time>2025-04-26T11:18:12Z</time>
      </trkpt>
      <trkpt lat="43.10904398560524" lon="0.708924019709229">
        <ele>409.66000000000003</ele>
        <time>2025-04-26T11:18:13Z</time>
      </trkpt>
      <trkpt lat="43.109034011140466" lon="0.708750011399388">
        <ele>409.66000000000003</ele>
        <time>2025-04-26T11:18:14Z</time>
      </trkpt>
      <trkpt lat="43.109045997262001" lon="0.708616990596056">
        <ele>409.66000000000003</ele>
        <time>2025-04-26T11:18:15Z</time>
      </trkpt>
      <trkpt lat="43.109058989211917" lon="0.708471983671188">
        <ele>409.18000000000001</ele>
        <time>2025-04-26T11:18:16Z</time>
      </trkpt>
      <trkpt lat="43.109095031395555" lon="0.70832203142345">
        <ele>409.18000000000001</ele>
        <time>2025-04-26T11:18:17Z</time>
      </trkpt>
      <trkpt lat="43.10915001668036" lon="0.708179036155343">
        <ele>408.69999999999999</ele>
        <time>2025-04-26T11:18:18Z</time>
      </trkpt>
      <trkpt lat="43.109207013621926" lon="0.708029000088573">
        <ele>408.22000000000003</ele>
        <time>2025-04-26T11:18:19Z</time>
      </trkpt>
      <trkpt lat="43.109265016391873" lon="0.707876030355692">
        <ele>407.74000000000001</ele>
        <time>2025-04-26T11:18:20Z</time>
      </trkpt>
      <trkpt lat="43.109330981969833" lon="0.707729011774063">
        <ele>406.76999999999998</ele>
        <time>2025-04-26T11:18:21Z</time>
      </trkpt>
      <trkpt lat="43.109415974467993" lon="0.707584004849195">
        <ele>405.81</ele>
        <time>2025-04-26T11:18:22Z</time>
      </trkpt>
      <trkpt lat="43.109500966966152" lon="0.707437992095947">
        <ele>404.85000000000002</ele>
        <time>2025-04-26T11:18:23Z</time>
      </trkpt>
      <trkpt lat="43.109600963070989" lon="0.707265995442867">
        <ele>403.88999999999999</ele>
        <time>2025-04-26T11:18:24Z</time>
      </trkpt>
      <trkpt lat="43.10968997888267" lon="0.707149989902973">
        <ele>402.93000000000001</ele>
        <time>2025-04-26T11:18:25Z</time>
      </trkpt>
      <trkpt lat="43.110274029895663" lon="0.706301992759109">
        <ele>397.16000000000003</ele>
        <time>2025-04-26T11:18:30Z</time>
      </trkpt>
      <trkpt lat="43.110378971323371" lon="0.706085991114378">
        <ele>395.72000000000003</ele>
        <time>2025-04-26T11:18:31Z</time>
      </trkpt>
      <trkpt lat="43.110459018498659" lon="0.705834031105042">
        <ele>394.75999999999999</ele>
        <time>2025-04-26T11:18:32Z</time>
      </trkpt>
      <trkpt lat="43.110533030703664" lon="0.705572012811899">
        <ele>393.31999999999999</ele>
        <time>2025-04-26T11:18:33Z</time>
      </trkpt>
      <trkpt lat="43.110605031251907" lon="0.705303037539124">
        <ele>391.38999999999999</ele>
        <time>2025-04-26T11:18:34Z</time>
      </trkpt>
      <trkpt lat="43.110631015151739" lon="0.705026015639305">
        <ele>389.94999999999999</ele>
        <time>2025-04-26T11:18:35Z</time>
      </trkpt>
      <trkpt lat="43.110624980181456" lon="0.704730972647667">
        <ele>388.02999999999997</ele>
        <time>2025-04-26T11:18:36Z</time>
      </trkpt>
      <trkpt lat="43.110609976574779" lon="0.704427966848016">
        <ele>386.11000000000001</ele>
        <time>2025-04-26T11:18:37Z</time>
      </trkpt>
      <trkpt lat="43.110594972968102" lon="0.704123033210635">
        <ele>384.18000000000001</ele>
        <time>2025-04-26T11:18:38Z</time>
      </trkpt>
      <trkpt lat="43.110605031251907" lon="0.701913982629776">
        <ele>375.52999999999997</ele>
        <time>2025-04-26T11:18:46Z</time>
      </trkpt>
      <trkpt lat="43.111049020662904" lon="0.699411984533072">
        <ele>373.61000000000001</ele>
        <time>2025-04-26T11:18:56Z</time>
      </trkpt>
      <trkpt lat="43.111638016998768" lon="0.696330964565277">
        <ele>373.61000000000001</ele>
        <time>2025-04-26T11:19:09Z</time>
      </trkpt>
      <trkpt lat="43.11179299838841" lon="0.695844981819391">
        <ele>373.61000000000001</ele>
        <time>2025-04-26T11:19:12Z</time>
      </trkpt>
      <trkpt lat="43.111960971727967" lon="0.695564020425081">
        <ele>374.08999999999997</ele>
        <time>2025-04-26T11:19:14Z</time>
      </trkpt>
      <trkpt lat="43.111960971727967" lon="0.695465030148625">
        <ele>374.56999999999999</ele>
        <time>2025-04-26T11:19:15Z</time>
      </trkpt>
      <trkpt lat="43.111925013363361" lon="0.695152971893549">
        <ele>375.05000000000001</ele>
        <time>2025-04-26T11:19:17Z</time>
      </trkpt>
      <trkpt lat="43.111946973949671" lon="0.694994973018765">
        <ele>375.05000000000001</ele>
        <time>2025-04-26T11:19:18Z</time>
      </trkpt>
      <trkpt lat="43.112284010276198" lon="0.693194037303329">
        <ele>375.52999999999997</ele>
        <time>2025-04-26T11:19:27Z</time>
      </trkpt>
      <trkpt lat="43.112872000783682" lon="0.690034981817007">
        <ele>375.05000000000001</ele>
        <time>2025-04-26T11:19:40Z</time>
      </trkpt>
      <trkpt lat="43.113473989069462" lon="0.686614997684956">
        <ele>373.61000000000001</ele>
        <time>2025-04-26T11:19:55Z</time>
      </trkpt>
      <trkpt lat="43.114016968756914" lon="0.68340296857059">
        <ele>373.13</ele>
        <time>2025-04-26T11:20:09Z</time>
      </trkpt>
      <trkpt lat="43.113885037600994" lon="0.681862039491534">
        <ele>374.08999999999997</ele>
        <time>2025-04-26T11:20:15Z</time>
      </trkpt>
      <trkpt lat="43.113441970199347" lon="0.679301032796502">
        <ele>376.49000000000001</ele>
        <time>2025-04-26T11:20:25Z</time>
      </trkpt>
      <trkpt lat="43.113626958802342" lon="0.677925981581211">
        <ele>379.86000000000001</ele>
        <time>2025-04-26T11:20:30Z</time>
      </trkpt>
      <trkpt lat="43.113702982664108" lon="0.677666980773211">
        <ele>380.81999999999999</ele>
        <time>2025-04-26T11:20:31Z</time>
      </trkpt>
      <trkpt lat="43.114657010883093" lon="0.675626993179321">
        <ele>387.55000000000001</ele>
        <time>2025-04-26T11:20:40Z</time>
      </trkpt>
      <trkpt lat="43.1157479993999" lon="0.673377038910985">
        <ele>385.63</ele>
        <time>2025-04-26T11:20:50Z</time>
      </trkpt>
      <trkpt lat="43.116276981309056" lon="0.671722032129765">
        <ele>383.69999999999999</ele>
        <time>2025-04-26T11:20:58Z</time>
      </trkpt>
      <trkpt lat="43.116540005430579" lon="0.670814020559192">
        <ele>384.66000000000003</ele>
        <time>2025-04-26T11:21:04Z</time>
      </trkpt>
      <trkpt lat="43.116595996543765" lon="0.670723998919129">
        <ele>384.66000000000003</ele>
        <time>2025-04-26T11:21:05Z</time>
      </trkpt>
      <trkpt lat="43.116696998476982" lon="0.670541021972895">
        <ele>384.66000000000003</ele>
        <time>2025-04-26T11:21:07Z</time>
      </trkpt>
      <trkpt lat="43.116661040112376" lon="0.67029501311481">
        <ele>384.18000000000001</ele>
        <time>2025-04-26T11:21:08Z</time>
      </trkpt>
      <trkpt lat="43.116763969883323" lon="0.66928599961102">
        <ele>383.69999999999999</ele>
        <time>2025-04-26T11:21:15Z</time>
      </trkpt>
      <trkpt lat="43.117278032004833" lon="0.666565988212824">
        <ele>385.14999999999998</ele>
        <time>2025-04-26T11:21:30Z</time>
      </trkpt>
      <trkpt lat="43.117691008374095" lon="0.664260964840651">
        <ele>386.11000000000001</ele>
        <time>2025-04-26T11:21:41Z</time>
      </trkpt>
      <trkpt lat="43.118234993889928" lon="0.661407010629773">
        <ele>387.06999999999999</ele>
        <time>2025-04-26T11:21:54Z</time>
      </trkpt>
      <trkpt lat="43.118804041296244" lon="0.6583490408957">
        <ele>388.50999999999999</ele>
        <time>2025-04-26T11:22:07Z</time>
      </trkpt>
      <trkpt lat="43.118909988552332" lon="0.657627023756504">
        <ele>388.99000000000001</ele>
        <time>2025-04-26T11:22:10Z</time>
      </trkpt>
      <trkpt lat="43.118901019915938" lon="0.657381014898419">
        <ele>389.47000000000003</ele>
        <time>2025-04-26T11:22:11Z</time>
      </trkpt>
      <trkpt lat="43.118889033794403" lon="0.657136011868715">
        <ele>389.47000000000003</ele>
        <time>2025-04-26T11:22:12Z</time>
      </trkpt>
      <trkpt lat="43.118856009095907" lon="0.656892014667392">
        <ele>389.47000000000003</ele>
        <time>2025-04-26T11:22:13Z</time>
      </trkpt>
      <trkpt lat="43.118822984397411" lon="0.656652040779591">
        <ele>389.47000000000003</ele>
        <time>2025-04-26T11:22:14Z</time>
      </trkpt>
      <trkpt lat="43.118790965527296" lon="0.65641600638628">
        <ele>389.47000000000003</ele>
        <time>2025-04-26T11:22:15Z</time>
      </trkpt>
      <trkpt lat="43.11873103491962" lon="0.656198998913169">
        <ele>389.47000000000003</ele>
        <time>2025-04-26T11:22:16Z</time>
      </trkpt>
      <trkpt lat="43.118660040199757" lon="0.655974028632045">
        <ele>389.47000000000003</ele>
        <time>2025-04-26T11:22:17Z</time>
      </trkpt>
      <trkpt lat="43.118584016337991" lon="0.655754003673792">
        <ele>389.47000000000003</ele>
        <time>2025-04-26T11:22:18Z</time>
      </trkpt>
      <trkpt lat="43.117715986445546" lon="0.653272960335016">
        <ele>388.50999999999999</ele>
        <time>2025-04-26T11:22:28Z</time>
      </trkpt>
      <trkpt lat="43.116687024012208" lon="0.650030001997948">
        <ele>388.50999999999999</ele>
        <time>2025-04-26T11:22:40Z</time>
      </trkpt>
      <trkpt lat="43.116410002112389" lon="0.648370971903205">
        <ele>390.43000000000001</ele>
        <time>2025-04-26T11:22:46Z</time>
      </trkpt>
      <trkpt lat="43.116333978250623" lon="0.645874002948403">
        <ele>394.75999999999999</ele>
        <time>2025-04-26T11:22:55Z</time>
      </trkpt>
      <trkpt lat="43.116042036563158" lon="0.643684985116124">
        <ele>397.16000000000003</ele>
        <time>2025-04-26T11:23:03Z</time>
      </trkpt>
      <trkpt lat="43.115837015211582" lon="0.643197996541858">
        <ele>397.63999999999999</ele>
        <time>2025-04-26T11:23:05Z</time>
      </trkpt>
      <trkpt lat="43.115723021328449" lon="0.642977971583605">
        <ele>397.63999999999999</ele>
        <time>2025-04-26T11:23:06Z</time>
      </trkpt>
      <trkpt lat="43.115582037717104" lon="0.642765993252397">
        <ele>398.12</ele>
        <time>2025-04-26T11:23:07Z</time>
      </trkpt>
      <trkpt lat="43.115441976115108" lon="0.64255703240633">
        <ele>398.12</ele>
        <time>2025-04-26T11:23:08Z</time>
      </trkpt>
      <trkpt lat="43.115290012210608" lon="0.642381012439728">
        <ele>398.60000000000002</ele>
        <time>2025-04-26T11:23:09Z</time>
      </trkpt>
      <trkpt lat="43.115122960880399" lon="0.642213961109519">
        <ele>398.60000000000002</ele>
        <time>2025-04-26T11:23:10Z</time>
      </trkpt>
      <trkpt lat="43.114958005025983" lon="0.642049005255103">
        <ele>398.60000000000002</ele>
        <time>2025-04-26T11:23:11Z</time>
      </trkpt>
      <trkpt lat="43.113492010161281" lon="0.640544034540653">
        <ele>400.05000000000001</ele>
        <time>2025-04-26T11:23:20Z</time>
      </trkpt>
      <trkpt lat="43.112634038552642" lon="0.638909982517362">
        <ele>398.60000000000002</ele>
        <time>2025-04-26T11:23:27Z</time>
      </trkpt>
      <trkpt lat="43.111582025885582" lon="0.63600498251617">
        <ele>398.12</ele>
        <time>2025-04-26T11:23:39Z</time>
      </trkpt>
      <trkpt lat="43.110286016017199" lon="0.632332032546401">
        <ele>400.52999999999997</ele>
        <time>2025-04-26T11:23:55Z</time>
      </trkpt>
      <trkpt lat="43.109376998618245" lon="0.629812013357878">
        <ele>402.93000000000001</ele>
        <time>2025-04-26T11:24:06Z</time>
      </trkpt>
      <trkpt lat="43.108309982344508" lon="0.626805005595088">
        <ele>403.88999999999999</ele>
        <time>2025-04-26T11:24:18Z</time>
      </trkpt>
      <trkpt lat="43.107117991894484" lon="0.623320983722806">
        <ele>405.32999999999998</ele>
        <time>2025-04-26T11:24:32Z</time>
      </trkpt>
      <trkpt lat="43.105897000059485" lon="0.619871998205781">
        <ele>404.85000000000002</ele>
        <time>2025-04-26T11:24:46Z</time>
      </trkpt>
      <trkpt lat="43.104877006262541" lon="0.61703497543931">
        <ele>401.97000000000003</ele>
        <time>2025-04-26T11:24:57Z</time>
      </trkpt>
      <trkpt lat="43.103407993912697" lon="0.612941002473235">
        <ele>405.81</ele>
        <time>2025-04-26T11:25:13Z</time>
      </trkpt>
      <trkpt lat="43.101900005713105" lon="0.608738986775279">
        <ele>409.18000000000001</ele>
        <time>2025-04-26T11:25:28Z</time>
      </trkpt>
      <trkpt lat="43.100883029401302" lon="0.60588201507926">
        <ele>412.06</ele>
        <time>2025-04-26T11:25:39Z</time>
      </trkpt>
      <trkpt lat="43.100106026977301" lon="0.60364899225533">
        <ele>415.43000000000001</ele>
        <time>2025-04-26T11:25:49Z</time>
      </trkpt>
      <trkpt lat="43.099154010415077" lon="0.601319996640086">
        <ele>416.87</ele>
        <time>2025-04-26T11:25:59Z</time>
      </trkpt>
      <trkpt lat="43.097982974722981" lon="0.599497016519308">
        <ele>419.75</ele>
        <time>2025-04-26T11:26:08Z</time>
      </trkpt>
      <trkpt lat="43.097476959228516" lon="0.598819004371762">
        <ele>420.70999999999998</ele>
        <time>2025-04-26T11:26:12Z</time>
      </trkpt>
      <trkpt lat="43.0974190402776" lon="0.598627980798483">
        <ele>421.19</ele>
        <time>2025-04-26T11:26:13Z</time>
      </trkpt>
      <trkpt lat="43.097364977002144" lon="0.598450032994151">
        <ele>421.19</ele>
        <time>2025-04-26T11:26:14Z</time>
      </trkpt>
      <trkpt lat="43.097327006980777" lon="0.598311983048916">
        <ele>421.19</ele>
        <time>2025-04-26T11:26:15Z</time>
      </trkpt>
      <trkpt lat="43.097327006980777" lon="0.598149038851261">
        <ele>421.68000000000001</ele>
        <time>2025-04-26T11:26:16Z</time>
      </trkpt>
      <trkpt lat="43.097327006980777" lon="0.597994979470968">
        <ele>422.16000000000003</ele>
        <time>2025-04-26T11:26:17Z</time>
      </trkpt>
      <trkpt lat="43.097360031679273" lon="0.597894983366132">
        <ele>422.63999999999999</ele>
        <time>2025-04-26T11:26:18Z</time>
      </trkpt>
      <trkpt lat="43.097358020022511" lon="0.5977170355618">
        <ele>422.16000000000003</ele>
        <time>2025-04-26T11:26:19Z</time>
      </trkpt>
      <trkpt lat="43.097344022244215" lon="0.597576973959804">
        <ele>422.16000000000003</ele>
        <time>2025-04-26T11:26:20Z</time>
      </trkpt>
      <trkpt lat="43.097244026139379" lon="0.597469015046954">
        <ele>422.16000000000003</ele>
        <time>2025-04-26T11:26:21Z</time>
      </trkpt>
      <trkpt lat="43.097165990620852" lon="0.597430039197207">
        <ele>421.68000000000001</ele>
        <time>2025-04-26T11:26:22Z</time>
      </trkpt>
      <trkpt lat="43.09712097980082" lon="0.597347980365157">
        <ele>421.68000000000001</ele>
        <time>2025-04-26T11:26:23Z</time>
      </trkpt>
      <trkpt lat="43.097073035314679" lon="0.597238009795547">
        <ele>421.19</ele>
        <time>2025-04-26T11:26:24Z</time>
      </trkpt>
      <trkpt lat="43.097010003402829" lon="0.597097026184201">
        <ele>420.23000000000002</ele>
        <time>2025-04-26T11:26:25Z</time>
      </trkpt>
      <trkpt lat="43.096932973712683" lon="0.596924023702741">
        <ele>419.75</ele>
        <time>2025-04-26T11:26:26Z</time>
      </trkpt>
      <trkpt lat="43.096421007066965" lon="0.59501001611352">
        <ele>415.43000000000001</ele>
        <time>2025-04-26T11:26:34Z</time>
      </trkpt>
      <trkpt lat="43.095905017107725" lon="0.5925830360502">
        <ele>416.87</ele>
        <time>2025-04-26T11:26:43Z</time>
      </trkpt>
      <trkpt lat="43.09522901661694" lon="0.590009959414601">
        <ele>426.48000000000002</ele>
        <time>2025-04-26T11:26:52Z</time>
      </trkpt>
      <trkpt lat="43.094458971172571" lon="0.588125037029386">
        <ele>440.89999999999998</ele>
        <time>2025-04-26T11:27:00Z</time>
      </trkpt>
      <trkpt lat="43.093213001266122" lon="0.585963008925319">
        <ele>451.95999999999998</ele>
        <time>2025-04-26T11:27:12Z</time>
      </trkpt>
      <trkpt lat="43.091730996966362" lon="0.583416000008583">
        <ele>456.27999999999997</ele>
        <time>2025-04-26T11:27:26Z</time>
      </trkpt>
      <trkpt lat="43.090530959889293" lon="0.581379029899836">
        <ele>455.80000000000001</ele>
        <time>2025-04-26T11:27:37Z</time>
      </trkpt>
      <trkpt lat="43.089601993560791" lon="0.579808009788394">
        <ele>452.44</ele>
        <time>2025-04-26T11:27:47Z</time>
      </trkpt>
      <trkpt lat="43.088751984760165" lon="0.578327011317015">
        <ele>441.38</ele>
        <time>2025-04-26T11:27:57Z</time>
      </trkpt>
      <trkpt lat="43.087950004264712" lon="0.577007029205561">
        <ele>432.73000000000002</ele>
        <time>2025-04-26T11:28:08Z</time>
      </trkpt>
      <trkpt lat="43.087144000455737" lon="0.575614040717483">
        <ele>429.37</ele>
        <time>2025-04-26T11:28:19Z</time>
      </trkpt>
      <trkpt lat="43.086686013266444" lon="0.574821028858423">
        <ele>429.37</ele>
        <time>2025-04-26T11:28:27Z</time>
      </trkpt>
      <trkpt lat="43.086499013006687" lon="0.574562028050423">
        <ele>428.88999999999999</ele>
        <time>2025-04-26T11:28:33Z</time>
      </trkpt>
      <trkpt lat="43.086472023278475" lon="0.574506958946586">
        <ele>428.88999999999999</ele>
        <time>2025-04-26T11:28:34Z</time>
      </trkpt>
      <trkpt lat="43.086448973044753" lon="0.574457002803683">
        <ele>428.88999999999999</ele>
        <time>2025-04-26T11:28:35Z</time>
      </trkpt>
      <trkpt lat="43.086428018286824" lon="0.574406962841749">
        <ele>428.88999999999999</ele>
        <time>2025-04-26T11:28:36Z</time>
      </trkpt>
      <trkpt lat="43.086406979709864" lon="0.574361030012369">
        <ele>428.88999999999999</ele>
        <time>2025-04-26T11:28:37Z</time>
      </trkpt>
      <trkpt lat="43.086366998031735" lon="0.57425600476563">
        <ele>428.39999999999998</ele>
        <time>2025-04-26T11:28:39Z</time>
      </trkpt>
      <trkpt lat="43.086341014131904" lon="0.574186015874147">
        <ele>428.39999999999998</ele>
        <time>2025-04-26T11:28:40Z</time>
      </trkpt>
      <trkpt lat="43.086320981383324" lon="0.57412700727582">
        <ele>428.88999999999999</ele>
        <time>2025-04-26T11:28:41Z</time>
      </trkpt>
      <trkpt lat="43.086384013295174" lon="0.573971020057797">
        <ele>428.88999999999999</ele>
        <time>2025-04-26T11:28:42Z</time>
      </trkpt>
      <trkpt lat="43.086368003860116" lon="0.573931038379669">
        <ele>428.88999999999999</ele>
        <time>2025-04-26T11:28:43Z</time>
      </trkpt>
      <trkpt lat="43.086341014131904" lon="0.573863983154297">
        <ele>429.37</ele>
        <time>2025-04-26T11:28:44Z</time>
      </trkpt>
      <trkpt lat="43.086238000541925" lon="0.57389298453927">
        <ele>429.37</ele>
        <time>2025-04-26T11:28:45Z</time>
      </trkpt>
      <trkpt lat="43.086147978901863" lon="0.573863983154297">
        <ele>429.85000000000002</ele>
        <time>2025-04-26T11:28:46Z</time>
      </trkpt>
      <trkpt lat="43.086086036637425" lon="0.573802962899208">
        <ele>430.32999999999998</ele>
        <time>2025-04-26T11:28:47Z</time>
      </trkpt>
      <trkpt lat="43.086021998897195" lon="0.573726017028093">
        <ele>430.32999999999998</ele>
        <time>2025-04-26T11:28:48Z</time>
      </trkpt>
      <trkpt lat="43.085966007784009" lon="0.573629960417748">
        <ele>430.81</ele>
        <time>2025-04-26T11:28:49Z</time>
      </trkpt>
      <trkpt lat="43.085433002561331" lon="0.572720021009445">
        <ele>432.73000000000002</ele>
        <time>2025-04-26T11:28:59Z</time>
      </trkpt>
      <trkpt lat="43.085404001176357" lon="0.572668975219131">
        <ele>432.73000000000002</ele>
        <time>2025-04-26T11:29:00Z</time>
      </trkpt>
      <trkpt lat="43.085381034761667" lon="0.572628993541002">
        <ele>433.20999999999998</ele>
        <time>2025-04-26T11:29:01Z</time>
      </trkpt>
      <trkpt lat="43.085374999791384" lon="0.572619019076228">
        <ele>433.20999999999998</ele>
        <time>2025-04-26T11:29:02Z</time>
      </trkpt>
      <trkpt lat="43.085195040330291" lon="0.572367981076241">
        <ele>434.17000000000002</ele>
        <time>2025-04-26T11:29:06Z</time>
      </trkpt>
      <trkpt lat="43.085134020075202" lon="0.572314001619816">
        <ele>434.64999999999998</ele>
        <time>2025-04-26T11:29:07Z</time>
      </trkpt>
      <trkpt lat="43.085055984556675" lon="0.5723010096699">
        <ele>435.13</ele>
        <time>2025-04-26T11:29:08Z</time>
      </trkpt>
      <trkpt lat="43.084976021200418" lon="0.572287011891603">
        <ele>435.61000000000001</ele>
        <time>2025-04-26T11:29:09Z</time>
      </trkpt>
      <trkpt lat="43.08489496819675" lon="0.572272008284926">
        <ele>436.57999999999998</ele>
        <time>2025-04-26T11:29:10Z</time>
      </trkpt>
      <trkpt lat="43.0848060362041" lon="0.572257004678249">
        <ele>437.06</ele>
        <time>2025-04-26T11:29:11Z</time>
      </trkpt>
      <trkpt lat="43.084531025961041" lon="0.572205958887935">
        <ele>439.45999999999998</ele>
        <time>2025-04-26T11:29:14Z</time>
      </trkpt>
      <trkpt lat="43.084431029856205" lon="0.572188021615148">
        <ele>439.94</ele>
        <time>2025-04-26T11:29:15Z</time>
      </trkpt>
      <trkpt lat="43.084328016266227" lon="0.572167988866568">
        <ele>440.89999999999998</ele>
        <time>2025-04-26T11:29:16Z</time>
      </trkpt>
      <trkpt lat="43.084229025989771" lon="0.572149967774749">
        <ele>441.38</ele>
        <time>2025-04-26T11:29:17Z</time>
      </trkpt>
      <trkpt lat="43.084151996299624" lon="0.572082996368408">
        <ele>441.38</ele>
        <time>2025-04-26T11:29:18Z</time>
      </trkpt>
      <trkpt lat="43.084087958559394" lon="0.572018958628178">
        <ele>441.86000000000001</ele>
        <time>2025-04-26T11:29:19Z</time>
      </trkpt>
      <trkpt lat="43.084044959396124" lon="0.571943018585444">
        <ele>443.31</ele>
        <time>2025-04-26T11:29:20Z</time>
      </trkpt>
      <trkpt lat="43.084044959396124" lon="0.571837993338704">
        <ele>444.26999999999998</ele>
        <time>2025-04-26T11:29:21Z</time>
      </trkpt>
      <trkpt lat="43.084044959396124" lon="0.571730034425855">
        <ele>445.70999999999998</ele>
        <time>2025-04-26T11:29:22Z</time>
      </trkpt>
      <trkpt lat="43.084059963002801" lon="0.571614028885961">
        <ele>447.14999999999998</ele>
        <time>2025-04-26T11:29:23Z</time>
      </trkpt>
      <trkpt lat="43.084100028499961" lon="0.571510009467602">
        <ele>448.11000000000001</ele>
        <time>2025-04-26T11:29:24Z</time>
      </trkpt>
      <trkpt lat="43.084139004349709" lon="0.571408001706004">
        <ele>449.06999999999999</ele>
        <time>2025-04-26T11:29:25Z</time>
      </trkpt>
      <trkpt lat="43.084362968802452" lon="0.570816993713379">
        <ele>453.88</ele>
        <time>2025-04-26T11:29:31Z</time>
      </trkpt>
      <trkpt lat="43.084401022642851" lon="0.570724038407207">
        <ele>454.36000000000001</ele>
        <time>2025-04-26T11:29:32Z</time>
      </trkpt>
      <trkpt lat="43.084775023162365" lon="0.569795994088054">
        <ele>460.13</ele>
        <time>2025-04-26T11:29:43Z</time>
      </trkpt>
      <trkpt lat="43.084843000397086" lon="0.569625003263354">
        <ele>461.08999999999997</ele>
        <time>2025-04-26T11:29:45Z</time>
      </trkpt>
      <trkpt lat="43.084878036752343" lon="0.569536993280053">
        <ele>461.08999999999997</ele>
        <time>2025-04-26T11:29:46Z</time>
      </trkpt>
      <trkpt lat="43.084911983460188" lon="0.569452000781894">
        <ele>461.56999999999999</ele>
        <time>2025-04-26T11:29:47Z</time>
      </trkpt>
      <trkpt lat="43.085051039233804" lon="0.56910096667707">
        <ele>462.52999999999997</ele>
        <time>2025-04-26T11:29:51Z</time>
      </trkpt>
      <trkpt lat="43.08508699759841" lon="0.569009017199278">
        <ele>462.52999999999997</ele>
        <time>2025-04-26T11:29:52Z</time>
      </trkpt>
      <trkpt lat="43.085122033953667" lon="0.568920001387596">
        <ele>463.00999999999999</ele>
        <time>2025-04-26T11:29:53Z</time>
      </trkpt>
      <trkpt lat="43.085155980661511" lon="0.568832997232676">
        <ele>463.00999999999999</ele>
        <time>2025-04-26T11:29:54Z</time>
      </trkpt>
      <trkpt lat="43.085191017016768" lon="0.568745993077755">
        <ele>463.00999999999999</ele>
        <time>2025-04-26T11:29:55Z</time>
      </trkpt>
      <trkpt lat="43.085300987586379" lon="0.568487998098135">
        <ele>462.05000000000001</ele>
        <time>2025-04-26T11:29:58Z</time>
      </trkpt>
      <trkpt lat="43.085390003398061" lon="0.56821902282536">
        <ele>461.08999999999997</ele>
        <time>2025-04-26T11:30:01Z</time>
      </trkpt>
      <trkpt lat="43.085416993126273" lon="0.568136963993311">
        <ele>461.56999999999999</ele>
        <time>2025-04-26T11:30:02Z</time>
      </trkpt>
      <trkpt lat="43.085460998117924" lon="0.567963039502501">
        <ele>461.08999999999997</ele>
        <time>2025-04-26T11:30:04Z</time>
      </trkpt>
      <trkpt lat="43.085482958704233" lon="0.567878969013691">
        <ele>461.08999999999997</ele>
        <time>2025-04-26T11:30:05Z</time>
      </trkpt>
      <trkpt lat="43.085505003109574" lon="0.56779196485877">
        <ele>460.61000000000001</ele>
        <time>2025-04-26T11:30:06Z</time>
      </trkpt>
      <trkpt lat="43.085527969524264" lon="0.56770303286612">
        <ele>460.61000000000001</ele>
        <time>2025-04-26T11:30:07Z</time>
      </trkpt>
      <trkpt lat="43.085550013929605" lon="0.5676160287112">
        <ele>460.61000000000001</ele>
        <time>2025-04-26T11:30:08Z</time>
      </trkpt>
      <trkpt lat="43.085571974515915" lon="0.567529024556279">
        <ele>460.61000000000001</ele>
        <time>2025-04-26T11:30:09Z</time>
      </trkpt>
      <trkpt lat="43.085761992260814" lon="0.566783035174012">
        <ele>459.64999999999998</ele>
        <time>2025-04-26T11:30:17Z</time>
      </trkpt>
      <trkpt lat="43.085761992260814" lon="0.56671597994864">
        <ele>459.64999999999998</ele>
        <time>2025-04-26T11:30:18Z</time>
      </trkpt>
      <trkpt lat="43.085761992260814" lon="0.566336028277874">
        <ele>459.64999999999998</ele>
        <time>2025-04-26T11:30:22Z</time>
      </trkpt>
      <trkpt lat="43.085761992260814" lon="0.566236032173038">
        <ele>459.64999999999998</ele>
        <time>2025-04-26T11:30:23Z</time>
      </trkpt>
      <trkpt lat="43.085761992260814" lon="0.566132012754679">
        <ele>459.64999999999998</ele>
        <time>2025-04-26T11:30:24Z</time>
      </trkpt>
      <trkpt lat="43.085765009745955" lon="0.566030004993081">
        <ele>459.64999999999998</ele>
        <time>2025-04-26T11:30:25Z</time>
      </trkpt>
      <trkpt lat="43.085768027231097" lon="0.565927997231483">
        <ele>459.64999999999998</ele>
        <time>2025-04-26T11:30:26Z</time>
      </trkpt>
      <trkpt lat="43.085771966725588" lon="0.565821966156363">
        <ele>459.64999999999998</ele>
        <time>2025-04-26T11:30:27Z</time>
      </trkpt>
      <trkpt lat="43.085782025009394" lon="0.565316034480929">
        <ele>459.17000000000002</ele>
        <time>2025-04-26T11:30:32Z</time>
      </trkpt>
      <trkpt lat="43.085776995867491" lon="0.565212015062571">
        <ele>459.17000000000002</ele>
        <time>2025-04-26T11:30:33Z</time>
      </trkpt>
      <trkpt lat="43.085767021402717" lon="0.565005987882614">
        <ele>458.69</ele>
        <time>2025-04-26T11:30:35Z</time>
      </trkpt>
      <trkpt lat="43.085761992260814" lon="0.564895011484623">
        <ele>458.69</ele>
        <time>2025-04-26T11:30:36Z</time>
      </trkpt>
      <trkpt lat="43.085737014189363" lon="0.564784035086632">
        <ele>458.69</ele>
        <time>2025-04-26T11:30:37Z</time>
      </trkpt>
      <trkpt lat="43.085535010322928" lon="0.56347100995481">
        <ele>460.13</ele>
        <time>2025-04-26T11:30:49Z</time>
      </trkpt>
      <trkpt lat="43.085486982017756" lon="0.563244028016925">
        <ele>462.05000000000001</ele>
        <time>2025-04-26T11:30:56Z</time>
      </trkpt>
      <trkpt lat="43.085478013381362" lon="0.563199017196894">
        <ele>462.05000000000001</ele>
        <time>2025-04-26T11:30:57Z</time>
      </trkpt>
      <trkpt lat="43.085297970101237" lon="0.562412040308118">
        <ele>465.89999999999998</ele>
        <time>2025-04-26T11:31:05Z</time>
      </trkpt>
      <trkpt lat="43.085100995376706" lon="0.56149497628212">
        <ele>469.25999999999999</ele>
        <time>2025-04-26T11:31:13Z</time>
      </trkpt>
      <trkpt lat="43.085095966234803" lon="0.561356004327536">
        <ele>469.25999999999999</ele>
        <time>2025-04-26T11:31:14Z</time>
      </trkpt>
      <trkpt lat="43.085095966234803" lon="0.561204040423036">
        <ele>469.74000000000001</ele>
        <time>2025-04-26T11:31:15Z</time>
      </trkpt>
      <trkpt lat="43.085338035598397" lon="0.55962597951293">
        <ele>470.69999999999999</ele>
        <time>2025-04-26T11:31:25Z</time>
      </trkpt>
      <trkpt lat="43.085655039176345" lon="0.557307964190841">
        <ele>474.06999999999999</ele>
        <time>2025-04-26T11:31:39Z</time>
      </trkpt>
      <trkpt lat="43.08590398170054" lon="0.555538041517138">
        <ele>479.35000000000002</ele>
        <time>2025-04-26T11:31:49Z</time>
      </trkpt>
      <trkpt lat="43.086310001090169" lon="0.552830016240478">
        <ele>485.12</ele>
        <time>2025-04-26T11:32:04Z</time>
      </trkpt>
      <trkpt lat="43.086588028818369" lon="0.55088197812438">
        <ele>487.52999999999997</ele>
        <time>2025-04-26T11:32:12Z</time>
      </trkpt>
      <trkpt lat="43.087006034329534" lon="0.548029029741883">
        <ele>493.76999999999998</ele>
        <time>2025-04-26T11:32:22Z</time>
      </trkpt>
      <trkpt lat="43.087390009313822" lon="0.545529965311289">
        <ele>500.01999999999998</ele>
        <time>2025-04-26T11:32:31Z</time>
      </trkpt>
      <trkpt lat="43.087764009833336" lon="0.542854964733124">
        <ele>503.87</ele>
        <time>2025-04-26T11:32:41Z</time>
      </trkpt>
      <trkpt lat="43.088314030319452" lon="0.539067015051842">
        <ele>505.31</ele>
        <time>2025-04-26T11:32:55Z</time>
      </trkpt>
      <trkpt lat="43.088881988078356" lon="0.535131962969899">
        <ele>521.64999999999998</ele>
        <time>2025-04-26T11:33:09Z</time>
      </trkpt>
      <trkpt lat="43.089347016066313" lon="0.531813986599445">
        <ele>532.23000000000002</ele>
        <time>2025-04-26T11:33:21Z</time>
      </trkpt>
      <trkpt lat="43.089928971603513" lon="0.527877006679773">
        <ele>540.88</ele>
        <time>2025-04-26T11:33:35Z</time>
      </trkpt>
      <trkpt lat="43.090380001813173" lon="0.524599011987448">
        <ele>545.20000000000005</ele>
        <time>2025-04-26T11:33:46Z</time>
      </trkpt>
      <trkpt lat="43.090516962110996" lon="0.521264020353556">
        <ele>551.45000000000005</ele>
        <time>2025-04-26T11:33:57Z</time>
      </trkpt>
      <trkpt lat="43.09071603231132" lon="0.517310025170445">
        <ele>556.25999999999999</ele>
        <time>2025-04-26T11:34:10Z</time>
      </trkpt>
      <trkpt lat="43.09116798453033" lon="0.513132987543941">
        <ele>558.65999999999997</ele>
        <time>2025-04-26T11:34:24Z</time>
      </trkpt>
      <trkpt lat="43.091304022818804" lon="0.510779013857245">
        <ele>554.82000000000005</ele>
        <time>2025-04-26T11:34:32Z</time>
      </trkpt>
      <trkpt lat="43.091451963409781" lon="0.508063025772572">
        <ele>555.77999999999997</ele>
        <time>2025-04-26T11:34:41Z</time>
      </trkpt>
      <trkpt lat="43.091864017769694" lon="0.505005978047848">
        <ele>561.54999999999995</ele>
        <time>2025-04-26T11:34:51Z</time>
      </trkpt>
      <trkpt lat="43.092788038775325" lon="0.501679033041">
        <ele>562.50999999999999</ele>
        <time>2025-04-26T11:35:02Z</time>
      </trkpt>
      <trkpt lat="43.093852959573269" lon="0.49800499342382">
        <ele>566.83000000000004</ele>
        <time>2025-04-26T11:35:15Z</time>
      </trkpt>
      <trkpt lat="43.094651000574231" lon="0.495267966762185">
        <ele>570.20000000000005</ele>
        <time>2025-04-26T11:35:25Z</time>
      </trkpt>
      <trkpt lat="43.095583990216255" lon="0.492049986496568">
        <ele>570.67999999999995</ele>
        <time>2025-04-26T11:35:36Z</time>
      </trkpt>
      <trkpt lat="43.096790984272957" lon="0.487887030467391">
        <ele>577.88999999999999</ele>
        <time>2025-04-26T11:35:50Z</time>
      </trkpt>
      <trkpt lat="43.097566980868578" lon="0.485236002132297">
        <ele>580.28999999999996</ele>
        <time>2025-04-26T11:35:59Z</time>
      </trkpt>
      <trkpt lat="43.098942032083869" lon="0.480519002303481">
        <ele>576.92999999999995</ele>
        <time>2025-04-26T11:36:16Z</time>
      </trkpt>
      <trkpt lat="43.099992033094168" lon="0.476890979334712">
        <ele>577.88999999999999</ele>
        <time>2025-04-26T11:36:29Z</time>
      </trkpt>
      <trkpt lat="43.100974978879094" lon="0.473515000194311">
        <ele>576.45000000000005</ele>
        <time>2025-04-26T11:36:41Z</time>
      </trkpt>
      <trkpt lat="43.101949961856008" lon="0.470157964155078">
        <ele>573.08000000000004</ele>
        <time>2025-04-26T11:36:53Z</time>
      </trkpt>
      <trkpt lat="43.102911030873656" lon="0.466903019696474">
        <ele>574.52999999999997</ele>
        <time>2025-04-26T11:37:05Z</time>
      </trkpt>
      <trkpt lat="43.104064967483282" lon="0.462860008701682">
        <ele>576.45000000000005</ele>
        <time>2025-04-26T11:37:20Z</time>
      </trkpt>
      <trkpt lat="43.104860996827483" lon="0.460093980655074">
        <ele>577.88999999999999</ele>
        <time>2025-04-26T11:37:30Z</time>
      </trkpt>
      <trkpt lat="43.105921978130937" lon="0.456421030685306">
        <ele>583.65999999999997</ele>
        <time>2025-04-26T11:37:43Z</time>
      </trkpt>
      <trkpt lat="43.107029981911182" lon="0.452485978603363">
        <ele>591.83000000000004</ele>
        <time>2025-04-26T11:37:58Z</time>
      </trkpt>
      <trkpt lat="43.108100015670061" lon="0.448800958693028">
        <ele>598.55999999999995</ele>
        <time>2025-04-26T11:38:12Z</time>
      </trkpt>
      <trkpt lat="43.108639977872372" lon="0.446850992739201">
        <ele>598.55999999999995</ele>
        <time>2025-04-26T11:38:20Z</time>
      </trkpt>
      <trkpt lat="43.109514964744449" lon="0.443825963884592">
        <ele>598.55999999999995</ele>
        <time>2025-04-26T11:38:33Z</time>
      </trkpt>
      <trkpt lat="43.109955014660954" lon="0.44222803786397">
        <ele>597.60000000000002</ele>
        <time>2025-04-26T11:38:41Z</time>
      </trkpt>
      <trkpt lat="43.110537976026535" lon="0.440201964229345">
        <ele>593.75</ele>
        <time>2025-04-26T11:38:54Z</time>
      </trkpt>
      <trkpt lat="43.111210037022829" lon="0.438123000785708">
        <ele>588.46000000000004</ele>
        <time>2025-04-26T11:39:07Z</time>
      </trkpt>
      <trkpt lat="43.111397959291935" lon="0.437885038554668">
        <ele>586.53999999999996</ele>
        <time>2025-04-26T11:39:09Z</time>
      </trkpt>
      <trkpt lat="43.111497033387423" lon="0.437759980559349">
        <ele>585.58000000000004</ele>
        <time>2025-04-26T11:39:10Z</time>
      </trkpt>
      <trkpt lat="43.11160197481513" lon="0.437644980847836">
        <ele>584.62</ele>
        <time>2025-04-26T11:39:11Z</time>
      </trkpt>
      <trkpt lat="43.112388029694557" lon="0.437008962035179">
        <ele>580.76999999999998</ele>
        <time>2025-04-26T11:39:19Z</time>
      </trkpt>
      <trkpt lat="43.113412968814373" lon="0.436202958226204">
        <ele>582.22000000000003</ele>
        <time>2025-04-26T11:39:29Z</time>
      </trkpt>
      <trkpt lat="43.114633960649371" lon="0.435213977470994">
        <ele>587.98000000000002</ele>
        <time>2025-04-26T11:39:41Z</time>
      </trkpt>
      <trkpt lat="43.115476006641984" lon="0.434525990858674">
        <ele>592.30999999999995</ele>
        <time>2025-04-26T11:39:50Z</time>
      </trkpt>
      <trkpt lat="43.115688990801573" lon="0.434350976720452">
        <ele>593.26999999999998</ele>
        <time>2025-04-26T11:39:53Z</time>
      </trkpt>
      <trkpt lat="43.115755040198565" lon="0.434290040284395">
        <ele>593.75</ele>
        <time>2025-04-26T11:39:54Z</time>
      </trkpt>
      <trkpt lat="43.115821005776525" lon="0.434229020029306">
        <ele>593.75</ele>
        <time>2025-04-26T11:39:55Z</time>
      </trkpt>
      <trkpt lat="43.115884959697723" lon="0.434169005602598">
        <ele>594.23000000000002</ele>
        <time>2025-04-26T11:39:56Z</time>
      </trkpt>
      <trkpt lat="43.115953020751476" lon="0.434105973690748">
        <ele>594.23000000000002</ele>
        <time>2025-04-26T11:39:57Z</time>
      </trkpt>
      <trkpt lat="43.116209004074335" lon="0.433783018961549">
        <ele>594.23000000000002</ele>
        <time>2025-04-26T11:40:01Z</time>
      </trkpt>
      <trkpt lat="43.116267006844282" lon="0.433686962351203">
        <ele>594.23000000000002</ele>
        <time>2025-04-26T11:40:02Z</time>
      </trkpt>
      <trkpt lat="43.116318974643946" lon="0.433583026751876">
        <ele>594.23000000000002</ele>
        <time>2025-04-26T11:40:03Z</time>
      </trkpt>
      <trkpt lat="43.116364991292357" lon="0.433470960706472">
        <ele>593.75</ele>
        <time>2025-04-26T11:40:04Z</time>
      </trkpt>
      <trkpt lat="43.116410002112389" lon="0.43335503898561">
        <ele>593.75</ele>
        <time>2025-04-26T11:40:05Z</time>
      </trkpt>
      <trkpt lat="43.116445960476995" lon="0.433230986818671">
        <ele>593.75</ele>
        <time>2025-04-26T11:40:06Z</time>
      </trkpt>
      <trkpt lat="43.116465993225574" lon="0.433097966015339">
        <ele>593.26999999999998</ele>
        <time>2025-04-26T11:40:07Z</time>
      </trkpt>
      <trkpt lat="43.116486025974154" lon="0.432962011545897">
        <ele>593.26999999999998</ele>
        <time>2025-04-26T11:40:08Z</time>
      </trkpt>
      <trkpt lat="43.116712002083659" lon="0.43144497089088">
        <ele>594.71000000000004</ele>
        <time>2025-04-26T11:40:19Z</time>
      </trkpt>
      <trkpt lat="43.116932027041912" lon="0.429710000753403">
        <ele>596.14999999999998</ele>
        <time>2025-04-26T11:40:31Z</time>
      </trkpt>
      <trkpt lat="43.117133025079966" lon="0.428231013938785">
        <ele>600</ele>
        <time>2025-04-26T11:40:42Z</time>
      </trkpt>
      <trkpt lat="43.1173350289464" lon="0.426728976890445">
        <ele>601.91999999999996</ele>
        <time>2025-04-26T11:40:53Z</time>
      </trkpt>
      <trkpt lat="43.117546001449227" lon="0.425130967050791">
        <ele>600.96000000000004</ele>
        <time>2025-04-26T11:41:01Z</time>
      </trkpt>
      <trkpt lat="43.117898041382432" lon="0.422482034191489">
        <ele>599.03999999999996</ele>
        <time>2025-04-26T11:41:11Z</time>
      </trkpt>
      <trkpt lat="43.118137009441853" lon="0.420679003000259">
        <ele>596.63999999999999</ele>
        <time>2025-04-26T11:41:19Z</time>
      </trkpt>
      <trkpt lat="43.118436997756362" lon="0.418452015146613">
        <ele>600.96000000000004</ele>
        <time>2025-04-26T11:41:30Z</time>
      </trkpt>
      <trkpt lat="43.118721982464194" lon="0.416342038661242">
        <ele>603.85000000000002</ele>
        <time>2025-04-26T11:41:41Z</time>
      </trkpt>
      <trkpt lat="43.118959022685885" lon="0.414602961391211">
        <ele>606.25</ele>
        <time>2025-04-26T11:41:51Z</time>
      </trkpt>
      <trkpt lat="43.119159014895558" lon="0.413080975413322">
        <ele>608.16999999999996</ele>
        <time>2025-04-26T11:42:01Z</time>
      </trkpt>
      <trkpt lat="43.119255993515253" lon="0.412632962688804">
        <ele>608.64999999999998</ele>
        <time>2025-04-26T11:42:06Z</time>
      </trkpt>
      <trkpt lat="43.119274014607072" lon="0.412561967968941">
        <ele>608.64999999999998</ele>
        <time>2025-04-26T11:42:07Z</time>
      </trkpt>
      <trkpt lat="43.119299998506904" lon="0.412459038197994">
        <ele>609.13</ele>
        <time>2025-04-26T11:42:08Z</time>
      </trkpt>
      <trkpt lat="43.119382979348302" lon="0.41234596632421">
        <ele>609.61000000000001</ele>
        <time>2025-04-26T11:42:10Z</time>
      </trkpt>
      <trkpt lat="43.119414998218417" lon="0.41225896216929">
        <ele>609.61000000000001</ele>
        <time>2025-04-26T11:42:11Z</time>
      </trkpt>
      <trkpt lat="43.119410974904895" lon="0.412132982164621">
        <ele>609.61000000000001</ele>
        <time>2025-04-26T11:42:12Z</time>
      </trkpt>
      <trkpt lat="43.119407035410404" lon="0.412115966901183">
        <ele>609.61000000000001</ele>
        <time>2025-04-26T11:42:13Z</time>
      </trkpt>
      <trkpt lat="43.11929396353662" lon="0.411884039640427">
        <ele>609.13</ele>
        <time>2025-04-26T11:42:14Z</time>
      </trkpt>
      <trkpt lat="43.11931299045682" lon="0.411760993301868">
        <ele>609.13</ele>
        <time>2025-04-26T11:42:15Z</time>
      </trkpt>
      <trkpt lat="43.11933402903378" lon="0.411625038832426">
        <ele>608.64999999999998</ele>
        <time>2025-04-26T11:42:16Z</time>
      </trkpt>
      <trkpt lat="43.11942296102643" lon="0.411037970334291">
        <ele>608.64999999999998</ele>
        <time>2025-04-26T11:42:20Z</time>
      </trkpt>
      <trkpt lat="43.119636029005051" lon="0.409523025155067">
        <ele>612.5</ele>
        <time>2025-04-26T11:42:30Z</time>
      </trkpt>
      <trkpt lat="43.119858987629414" lon="0.407799035310745">
        <ele>612.01999999999998</ele>
        <time>2025-04-26T11:42:41Z</time>
      </trkpt>
      <trkpt lat="43.120192000642419" lon="0.405328972265124">
        <ele>606.25</ele>
        <time>2025-04-26T11:42:55Z</time>
      </trkpt>
      <trkpt lat="43.120419988408685" lon="0.403595007956028">
        <ele>598.08000000000004</ele>
        <time>2025-04-26T11:43:05Z</time>
      </trkpt>
      <trkpt lat="43.120653005316854" lon="0.401806980371475">
        <ele>597.12</ele>
        <time>2025-04-26T11:43:15Z</time>
      </trkpt>
      <trkpt lat="43.120701033622026" lon="0.401415964588523">
        <ele>599.03999999999996</ele>
        <time>2025-04-26T11:43:19Z</time>
      </trkpt>
      <trkpt lat="43.120704973116517" lon="0.401354022324085">
        <ele>599.03999999999996</ele>
        <time>2025-04-26T11:43:20Z</time>
      </trkpt>
      <trkpt lat="43.120715031400323" lon="0.401232987642288">
        <ele>600</ele>
        <time>2025-04-26T11:43:22Z</time>
      </trkpt>
      <trkpt lat="43.120879987254739" lon="0.401070965453982">
        <ele>600.96000000000004</ele>
        <time>2025-04-26T11:43:24Z</time>
      </trkpt>
      <trkpt lat="43.120868001133204" lon="0.400971975177526">
        <ele>600.96000000000004</ele>
        <time>2025-04-26T11:43:25Z</time>
      </trkpt>
      <trkpt lat="43.120865989476442" lon="0.40095797739923">
        <ele>601.44000000000005</ele>
        <time>2025-04-26T11:43:26Z</time>
      </trkpt>
      <trkpt lat="43.120786026120186" lon="0.400704005733132">
        <ele>601.44000000000005</ele>
        <time>2025-04-26T11:43:27Z</time>
      </trkpt>
      <trkpt lat="43.120809998363256" lon="0.400553969666362">
        <ele>601.91999999999996</ele>
        <time>2025-04-26T11:43:28Z</time>
      </trkpt>
      <trkpt lat="43.120833970606327" lon="0.400377027690411">
        <ele>601.91999999999996</ele>
        <time>2025-04-26T11:43:29Z</time>
      </trkpt>
      <trkpt lat="43.120860038325191" lon="0.400188015773892">
        <ele>601.91999999999996</ele>
        <time>2025-04-26T11:43:30Z</time>
      </trkpt>
      <trkpt lat="43.121092971414328" lon="0.39850601926446">
        <ele>606.25</ele>
        <time>2025-04-26T11:43:40Z</time>
      </trkpt>
      <trkpt lat="43.121360018849373" lon="0.396610032767057">
        <ele>607.69000000000005</ele>
        <time>2025-04-26T11:43:51Z</time>
      </trkpt>
      <trkpt lat="43.121652966365218" lon="0.394256981089711">
        <ele>605.76999999999998</ele>
        <time>2025-04-26T11:44:05Z</time>
      </trkpt>
      <trkpt lat="43.121878020465374" lon="0.392561992630363">
        <ele>602.39999999999998</ele>
        <time>2025-04-26T11:44:15Z</time>
      </trkpt>
      <trkpt lat="43.122140038758516" lon="0.390597023069859">
        <ele>592.30999999999995</ele>
        <time>2025-04-26T11:44:27Z</time>
      </trkpt>
      <trkpt lat="43.122208015993237" lon="0.390110034495592">
        <ele>587.98000000000002</ele>
        <time>2025-04-26T11:44:30Z</time>
      </trkpt>
      <trkpt lat="43.122381018474698" lon="0.388756021857262">
        <ele>578.85000000000002</ele>
        <time>2025-04-26T11:44:39Z</time>
      </trkpt>
      <trkpt lat="43.12247003428638" lon="0.388128971680999">
        <ele>575.97000000000003</ele>
        <time>2025-04-26T11:44:47Z</time>
      </trkpt>
      <trkpt lat="43.122518984600902" lon="0.387847004458308">
        <ele>575.49000000000001</ele>
        <time>2025-04-26T11:44:52Z</time>
      </trkpt>
      <trkpt lat="43.122528959065676" lon="0.387684982270002">
        <ele>575.97000000000003</ele>
        <time>2025-04-26T11:44:54Z</time>
      </trkpt>
      <trkpt lat="43.122518984600902" lon="0.387610970064998">
        <ele>575.97000000000003</ele>
        <time>2025-04-26T11:44:55Z</time>
      </trkpt>
      <trkpt lat="43.122401973232627" lon="0.387562019750476">
        <ele>575.97000000000003</ele>
        <time>2025-04-26T11:44:56Z</time>
      </trkpt>
      <trkpt lat="43.122351011261344" lon="0.387409972026944">
        <ele>575.97000000000003</ele>
        <time>2025-04-26T11:44:58Z</time>
      </trkpt>
      <trkpt lat="43.122023027390242" lon="0.386656019836664">
        <ele>576.92999999999995</ele>
        <time>2025-04-26T11:45:06Z</time>
      </trkpt>
      <trkpt lat="43.12167702242732" lon="0.385737027972937">
        <ele>580.28999999999996</ele>
        <time>2025-04-26T11:45:15Z</time>
      </trkpt>
      <trkpt lat="43.121617008000612" lon="0.385505016893148">
        <ele>580.76999999999998</ele>
        <time>2025-04-26T11:45:17Z</time>
      </trkpt>
      <trkpt lat="43.121395977213979" lon="0.383865013718605">
        <ele>585.58000000000004</ele>
        <time>2025-04-26T11:45:30Z</time>
      </trkpt>
      <trkpt lat="43.121346021071076" lon="0.383499981835485">
        <ele>587.01999999999998</ele>
        <time>2025-04-26T11:45:35Z</time>
      </trkpt>
      <trkpt lat="43.121337974444032" lon="0.383449019864202">
        <ele>587.5</ele>
        <time>2025-04-26T11:45:36Z</time>
      </trkpt>
      <trkpt lat="43.121400000527501" lon="0.383328991010785">
        <ele>587.5</ele>
        <time>2025-04-26T11:45:37Z</time>
      </trkpt>
      <trkpt lat="43.121380973607302" lon="0.38325497880578">
        <ele>587.98000000000002</ele>
        <time>2025-04-26T11:45:38Z</time>
      </trkpt>
      <trkpt lat="43.12128902412951" lon="0.38312204182148">
        <ele>588.46000000000004</ele>
        <time>2025-04-26T11:45:39Z</time>
      </trkpt>
      <trkpt lat="43.121281983330846" lon="0.382984997704625">
        <ele>588.46000000000004</ele>
        <time>2025-04-26T11:45:40Z</time>
      </trkpt>
      <trkpt lat="43.121273014694452" lon="0.382834039628506">
        <ele>588.95000000000005</ele>
        <time>2025-04-26T11:45:41Z</time>
      </trkpt>
      <trkpt lat="43.121265973895788" lon="0.382675034925342">
        <ele>589.42999999999995</ele>
        <time>2025-04-26T11:45:42Z</time>
      </trkpt>
      <trkpt lat="43.121259016916156" lon="0.382511001080275">
        <ele>589.90999999999997</ele>
        <time>2025-04-26T11:45:43Z</time>
      </trkpt>
      <trkpt lat="43.121220963075757" lon="0.381889985874295">
        <ele>592.30999999999995</ele>
        <time>2025-04-26T11:45:47Z</time>
      </trkpt>
      <trkpt lat="43.121206965297461" lon="0.381751013919711">
        <ele>592.78999999999996</ele>
        <time>2025-04-26T11:45:48Z</time>
      </trkpt>
      <trkpt lat="43.121193973347545" lon="0.381615981459618">
        <ele>593.75</ele>
        <time>2025-04-26T11:45:49Z</time>
      </trkpt>
      <trkpt lat="43.121158014982939" lon="0.381495030596852">
        <ele>594.23000000000002</ele>
        <time>2025-04-26T11:45:50Z</time>
      </trkpt>
      <trkpt lat="43.121100012212992" lon="0.381368966773152">
        <ele>594.71000000000004</ele>
        <time>2025-04-26T11:45:51Z</time>
      </trkpt>
      <trkpt lat="43.120430968701839" lon="0.379769029095769">
        <ele>599.51999999999998</ele>
        <time>2025-04-26T11:46:02Z</time>
      </trkpt>
      <trkpt lat="43.119900980964303" lon="0.378173030912876">
        <ele>601.44000000000005</ele>
        <time>2025-04-26T11:46:13Z</time>
      </trkpt>
      <trkpt lat="43.119758991524577" lon="0.377012975513935">
        <ele>598.08000000000004</ele>
        <time>2025-04-26T11:46:21Z</time>
      </trkpt>
      <trkpt lat="43.119754968211055" lon="0.376898981630802">
        <ele>598.08000000000004</ele>
        <time>2025-04-26T11:46:22Z</time>
      </trkpt>
      <trkpt lat="43.119836021214724" lon="0.376732014119625">
        <ele>597.60000000000002</ele>
        <time>2025-04-26T11:46:23Z</time>
      </trkpt>
      <trkpt lat="43.119899975135922" lon="0.376621037721634">
        <ele>597.12</ele>
        <time>2025-04-26T11:46:25Z</time>
      </trkpt>
      <trkpt lat="43.119912967085838" lon="0.376478964462876">
        <ele>596.63999999999999</ele>
        <time>2025-04-26T11:46:26Z</time>
      </trkpt>
      <trkpt lat="43.119903998449445" lon="0.37637896835804">
        <ele>596.63999999999999</ele>
        <time>2025-04-26T11:46:27Z</time>
      </trkpt>
      <trkpt lat="43.119828980416059" lon="0.376309985294938">
        <ele>596.63999999999999</ele>
        <time>2025-04-26T11:46:28Z</time>
      </trkpt>
      <trkpt lat="43.119758991524577" lon="0.376275032758713">
        <ele>596.14999999999998</ele>
        <time>2025-04-26T11:46:29Z</time>
      </trkpt>
      <trkpt lat="43.119728984311223" lon="0.376260029152036">
        <ele>596.14999999999998</ele>
        <time>2025-04-26T11:46:30Z</time>
      </trkpt>
      <trkpt lat="43.11957098543644" lon="0.376208983361721">
        <ele>595.66999999999996</ele>
        <time>2025-04-26T11:46:31Z</time>
      </trkpt>
      <trkpt lat="43.119510971009731" lon="0.376114016398788">
        <ele>595.66999999999996</ele>
        <time>2025-04-26T11:46:32Z</time>
      </trkpt>
      <trkpt lat="43.119440982118249" lon="0.376001028344035">
        <ele>595.66999999999996</ele>
        <time>2025-04-26T11:46:33Z</time>
      </trkpt>
      <trkpt lat="43.119362024590373" lon="0.375874964520335">
        <ele>595.66999999999996</ele>
        <time>2025-04-26T11:46:34Z</time>
      </trkpt>
      <trkpt lat="43.118794988840818" lon="0.374590018764138">
        <ele>593.26999999999998</ele>
        <time>2025-04-26T11:46:42Z</time>
      </trkpt>
      <trkpt lat="43.118041036650538" lon="0.372716998681426">
        <ele>592.78999999999996</ele>
        <time>2025-04-26T11:46:52Z</time>
      </trkpt>
      <trkpt lat="43.117047026753426" lon="0.370159009471536">
        <ele>600.96000000000004</ele>
        <time>2025-04-26T11:47:05Z</time>
      </trkpt>
      <trkpt lat="43.116143960505724" lon="0.367767987772822">
        <ele>607.69000000000005</ele>
        <time>2025-04-26T11:47:17Z</time>
      </trkpt>
      <trkpt lat="43.114970996975899" lon="0.364770032465458">
        <ele>615.86000000000001</ele>
        <time>2025-04-26T11:47:32Z</time>
      </trkpt>
      <trkpt lat="43.114215033128858" lon="0.362804979085922">
        <ele>615.38</ele>
        <time>2025-04-26T11:47:41Z</time>
      </trkpt>
      <trkpt lat="43.113537020981312" lon="0.361071014776826">
        <ele>616.82000000000005</ele>
        <time>2025-04-26T11:47:49Z</time>
      </trkpt>
      <trkpt lat="43.112862026318908" lon="0.359200006350875">
        <ele>619.23000000000002</ele>
        <time>2025-04-26T11:47:58Z</time>
      </trkpt>
      <trkpt lat="43.112807041034102" lon="0.358988028019667">
        <ele>618.75</ele>
        <time>2025-04-26T11:47:59Z</time>
      </trkpt>
      <trkpt lat="43.112754989415407" lon="0.358793986961246">
        <ele>618.75</ele>
        <time>2025-04-26T11:48:00Z</time>
      </trkpt>
      <trkpt lat="43.112732023000717" lon="0.358585026115179">
        <ele>618.75</ele>
        <time>2025-04-26T11:48:01Z</time>
      </trkpt>
      <trkpt lat="43.112709978595376" lon="0.358386039733887">
        <ele>618.25999999999999</ele>
        <time>2025-04-26T11:48:02Z</time>
      </trkpt>
      <trkpt lat="43.112563965842128" lon="0.356574039906263">
        <ele>614.89999999999998</ele>
        <time>2025-04-26T11:48:12Z</time>
      </trkpt>
      <trkpt lat="43.112531024962664" lon="0.356176989153028">
        <ele>613.94000000000005</ele>
        <time>2025-04-26T11:48:15Z</time>
      </trkpt>
      <trkpt lat="43.112605037167668" lon="0.355983031913638">
        <ele>613.94000000000005</ele>
        <time>2025-04-26T11:48:16Z</time>
      </trkpt>
      <trkpt lat="43.112633032724261" lon="0.355809023603797">
        <ele>613.94000000000005</ele>
        <time>2025-04-26T11:48:18Z</time>
      </trkpt>
      <trkpt lat="43.112605037167668" lon="0.355725036934018">
        <ele>614.41999999999996</ele>
        <time>2025-04-26T11:48:19Z</time>
      </trkpt>
      <trkpt lat="43.112490959465504" lon="0.355614982545376">
        <ele>613.94000000000005</ele>
        <time>2025-04-26T11:48:20Z</time>
      </trkpt>
      <trkpt lat="43.112477967515588" lon="0.355477016419172">
        <ele>613.94000000000005</ele>
        <time>2025-04-26T11:48:21Z</time>
      </trkpt>
      <trkpt lat="43.112462963908911" lon="0.355318011716008">
        <ele>613.94000000000005</ele>
        <time>2025-04-26T11:48:22Z</time>
      </trkpt>
      <trkpt lat="43.112446032464504" lon="0.355141991749406">
        <ele>613.94000000000005</ele>
        <time>2025-04-26T11:48:23Z</time>
      </trkpt>
      <trkpt lat="43.11215702444315" lon="0.353328986093402">
        <ele>611.05999999999995</ele>
        <time>2025-04-26T11:48:32Z</time>
      </trkpt>
      <trkpt lat="43.112079994753003" lon="0.353121031075716">
        <ele>610.57000000000005</ele>
        <time>2025-04-26T11:48:33Z</time>
      </trkpt>
      <trkpt lat="43.11196499504149" lon="0.352936964482069">
        <ele>609.61000000000001</ele>
        <time>2025-04-26T11:48:34Z</time>
      </trkpt>
      <trkpt lat="43.111839015036821" lon="0.352773014456034">
        <ele>609.13</ele>
        <time>2025-04-26T11:48:35Z</time>
      </trkpt>
      <trkpt lat="43.111688978970051" lon="0.352631025016308">
        <ele>608.64999999999998</ele>
        <time>2025-04-26T11:48:36Z</time>
      </trkpt>
      <trkpt lat="43.111537015065551" lon="0.352487023919821">
        <ele>608.16999999999996</ele>
        <time>2025-04-26T11:48:37Z</time>
      </trkpt>
      <trkpt lat="43.111375998705626" lon="0.352372024208307">
        <ele>607.69000000000005</ele>
        <time>2025-04-26T11:48:38Z</time>
      </trkpt>
      <trkpt lat="43.111202996224165" lon="0.352280996739864">
        <ele>607.21000000000004</ele>
        <time>2025-04-26T11:48:39Z</time>
      </trkpt>
      <trkpt lat="43.111023958772421" lon="0.352208996191621">
        <ele>606.73000000000002</ele>
        <time>2025-04-26T11:48:40Z</time>
      </trkpt>
      <trkpt lat="43.110835030674934" lon="0.35216398537159">
        <ele>605.76999999999998</ele>
        <time>2025-04-26T11:48:41Z</time>
      </trkpt>
      <trkpt lat="43.110647024586797" lon="0.352119980379939">
        <ele>605.28999999999996</ele>
        <time>2025-04-26T11:48:42Z</time>
      </trkpt>
      <trkpt lat="43.109039040282369" lon="0.351995006203651">
        <ele>598.55999999999995</ele>
        <time>2025-04-26T11:48:51Z</time>
      </trkpt>
      <trkpt lat="43.108375025913119" lon="0.351877994835377">
        <ele>596.14999999999998</ele>
        <time>2025-04-26T11:48:55Z</time>
      </trkpt>
      <trkpt lat="43.108217027038336" lon="0.351784033700824">
        <ele>595.66999999999996</ele>
        <time>2025-04-26T11:48:56Z</time>
      </trkpt>
      <trkpt lat="43.108058022335172" lon="0.351687977090478">
        <ele>595.19000000000005</ele>
        <time>2025-04-26T11:48:57Z</time>
      </trkpt>
      <trkpt lat="43.107919972389936" lon="0.351551016792655">
        <ele>594.71000000000004</ele>
        <time>2025-04-26T11:48:58Z</time>
      </trkpt>
      <trkpt lat="43.107793992385268" lon="0.351381031796336">
        <ele>594.23000000000002</ele>
        <time>2025-04-26T11:48:59Z</time>
      </trkpt>
      <trkpt lat="43.107669018208981" lon="0.351211968809366">
        <ele>594.23000000000002</ele>
        <time>2025-04-26T11:49:00Z</time>
      </trkpt>
      <trkpt lat="43.107569022104144" lon="0.351020023226738">
        <ele>594.23000000000002</ele>
        <time>2025-04-26T11:49:01Z</time>
      </trkpt>
      <trkpt lat="43.107476988807321" lon="0.350809972733259">
        <ele>594.23000000000002</ele>
        <time>2025-04-26T11:49:02Z</time>
      </trkpt>
      <trkpt lat="43.106533018872142" lon="0.348514001816511">
        <ele>592.30999999999995</ele>
        <time>2025-04-26T11:49:13Z</time>
      </trkpt>
      <trkpt lat="43.105360977351665" lon="0.346571998670697">
        <ele>590.38999999999999</ele>
        <time>2025-04-26T11:49:24Z</time>
      </trkpt>
      <trkpt lat="43.104872982949018" lon="0.345817040652037">
        <ele>588.46000000000004</ele>
        <time>2025-04-26T11:49:29Z</time>
      </trkpt>
      <trkpt lat="43.10468296520412" lon="0.345336003229022">
        <ele>587.5</ele>
        <time>2025-04-26T11:49:32Z</time>
      </trkpt>
      <trkpt lat="43.10463803820312" lon="0.345183033496141">
        <ele>587.01999999999998</ele>
        <time>2025-04-26T11:49:33Z</time>
      </trkpt>
      <trkpt lat="43.104599984362721" lon="0.345043977722526">
        <ele>587.01999999999998</ele>
        <time>2025-04-26T11:49:34Z</time>
      </trkpt>
      <trkpt lat="43.104585986584425" lon="0.3449019882828">
        <ele>586.53999999999996</ele>
        <time>2025-04-26T11:49:35Z</time>
      </trkpt>
      <trkpt lat="43.104593027383089" lon="0.344780031591654">
        <ele>586.05999999999995</ele>
        <time>2025-04-26T11:49:36Z</time>
      </trkpt>
      <trkpt lat="43.104623034596443" lon="0.344632007181644">
        <ele>586.05999999999995</ele>
        <time>2025-04-26T11:49:37Z</time>
      </trkpt>
      <trkpt lat="43.104606019333005" lon="0.344511978328228">
        <ele>585.58000000000004</ele>
        <time>2025-04-26T11:49:38Z</time>
      </trkpt>
      <trkpt lat="43.104537958279252" lon="0.344402007758617">
        <ele>585.58000000000004</ele>
        <time>2025-04-26T11:49:39Z</time>
      </trkpt>
      <trkpt lat="43.104515997692943" lon="0.344374012202024">
        <ele>585.58000000000004</ele>
        <time>2025-04-26T11:49:40Z</time>
      </trkpt>
      <trkpt lat="43.104394041001797" lon="0.34434400498867">
        <ele>585.58000000000004</ele>
        <time>2025-04-26T11:49:41Z</time>
      </trkpt>
      <trkpt lat="43.104344001039863" lon="0.344331013038754">
        <ele>585.10000000000002</ele>
        <time>2025-04-26T11:49:42Z</time>
      </trkpt>
      <trkpt lat="43.1042539793998" lon="0.344124985858798">
        <ele>585.10000000000002</ele>
        <time>2025-04-26T11:49:43Z</time>
      </trkpt>
      <trkpt lat="43.104198994114995" lon="0.343996994197369">
        <ele>585.10000000000002</ele>
        <time>2025-04-26T11:49:44Z</time>
      </trkpt>
      <trkpt lat="43.104135040193796" lon="0.343847963958979">
        <ele>585.10000000000002</ele>
        <time>2025-04-26T11:49:45Z</time>
      </trkpt>
      <trkpt lat="43.103877967223525" lon="0.342571986839175">
        <ele>583.65999999999997</ele>
        <time>2025-04-26T11:49:51Z</time>
      </trkpt>
      <trkpt lat="43.10397301800549" lon="0.340729979798198">
        <ele>579.80999999999995</ele>
        <time>2025-04-26T11:49:58Z</time>
      </trkpt>
      <trkpt lat="43.1042539793998" lon="0.337629010900855">
        <ele>575.00999999999999</ele>
        <time>2025-04-26T11:50:09Z</time>
      </trkpt>
      <trkpt lat="43.1044249702245" lon="0.334816966205835">
        <ele>580.76999999999998</ele>
        <time>2025-04-26T11:50:19Z</time>
      </trkpt>
      <trkpt lat="43.104603001847863" lon="0.333040002733469">
        <ele>584.13999999999999</ele>
        <time>2025-04-26T11:50:26Z</time>
      </trkpt>
      <trkpt lat="43.104768041521311" lon="0.331727983430028">
        <ele>587.98000000000002</ele>
        <time>2025-04-26T11:50:34Z</time>
      </trkpt>
      <trkpt lat="43.10521898791194" lon="0.329541983082891">
        <ele>593.26999999999998</ele>
        <time>2025-04-26T11:50:48Z</time>
      </trkpt>
      <trkpt lat="43.105700025334954" lon="0.327353971078992">
        <ele>597.60000000000002</ele>
        <time>2025-04-26T11:51:02Z</time>
      </trkpt>
      <trkpt lat="43.10616597533226" lon="0.32517802901566">
        <ele>597.60000000000002</ele>
        <time>2025-04-26T11:51:16Z</time>
      </trkpt>
      <trkpt lat="43.106180978938937" lon="0.325030004605651">
        <ele>597.60000000000002</ele>
        <time>2025-04-26T11:51:17Z</time>
      </trkpt>
      <trkpt lat="43.106161030009389" lon="0.324881980195642">
        <ele>597.60000000000002</ele>
        <time>2025-04-26T11:51:18Z</time>
      </trkpt>
      <trkpt lat="43.106107972562313" lon="0.324745019897819">
        <ele>597.60000000000002</ele>
        <time>2025-04-26T11:51:19Z</time>
      </trkpt>
      <trkpt lat="43.106041001155972" lon="0.324628008529544">
        <ele>597.60000000000002</ele>
        <time>2025-04-26T11:51:20Z</time>
      </trkpt>
      <trkpt lat="43.105959026142955" lon="0.324533963575959">
        <ele>597.60000000000002</ele>
        <time>2025-04-26T11:51:21Z</time>
      </trkpt>
      <trkpt lat="43.105887025594711" lon="0.324450982734561">
        <ele>598.08000000000004</ele>
        <time>2025-04-26T11:51:22Z</time>
      </trkpt>
      <trkpt lat="43.105817958712578" lon="0.324372025206685">
        <ele>598.08000000000004</ele>
        <time>2025-04-26T11:51:23Z</time>
      </trkpt>
      <trkpt lat="43.105757022276521" lon="0.324307987466455">
        <ele>598.08000000000004</ele>
        <time>2025-04-26T11:51:24Z</time>
      </trkpt>
      <trkpt lat="43.105760039761662" lon="0.324117969721556">
        <ele>598.08000000000004</ele>
        <time>2025-04-26T11:51:25Z</time>
      </trkpt>
      <trkpt lat="43.105748975649476" lon="0.324072036892176">
        <ele>598.08000000000004</ele>
        <time>2025-04-26T11:51:26Z</time>
      </trkpt>
      <trkpt lat="43.105702959001064" lon="0.323942033573985">
        <ele>598.08000000000004</ele>
        <time>2025-04-26T11:51:27Z</time>
      </trkpt>
      <trkpt lat="43.105625007301569" lon="0.323915965855122">
        <ele>598.08000000000004</ele>
        <time>2025-04-26T11:51:28Z</time>
      </trkpt>
      <trkpt lat="43.105587959289551" lon="0.323903979733586">
        <ele>598.08000000000004</ele>
        <time>2025-04-26T11:51:29Z</time>
      </trkpt>
      <trkpt lat="43.105427026748657" lon="0.323840025812387">
        <ele>598.08000000000004</ele>
        <time>2025-04-26T11:51:30Z</time>
      </trkpt>
      <trkpt lat="43.105380004271865" lon="0.323727959766984">
        <ele>598.55999999999995</ele>
        <time>2025-04-26T11:51:31Z</time>
      </trkpt>
      <trkpt lat="43.105328036472201" lon="0.323602985590696">
        <ele>598.55999999999995</ele>
        <time>2025-04-26T11:51:32Z</time>
      </trkpt>
      <trkpt lat="43.105268022045493" lon="0.323472982272506">
        <ele>598.55999999999995</ele>
        <time>2025-04-26T11:51:33Z</time>
      </trkpt>
      <trkpt lat="43.105204990133643" lon="0.323342978954315">
        <ele>599.03999999999996</ele>
        <time>2025-04-26T11:51:34Z</time>
      </trkpt>
      <trkpt lat="43.105013966560364" lon="0.322947017848492">
        <ele>599.03999999999996</ele>
        <time>2025-04-26T11:51:37Z</time>
      </trkpt>
      <trkpt lat="43.104499988257885" lon="0.321882013231516">
        <ele>600</ele>
        <time>2025-04-26T11:51:45Z</time>
      </trkpt>
      <trkpt lat="43.103833040222526" lon="0.320501010864973">
        <ele>599.03999999999996</ele>
        <time>2025-04-26T11:51:55Z</time>
      </trkpt>
      <trkpt lat="43.103256030008197" lon="0.319301979616284">
        <ele>600.96000000000004</ele>
        <time>2025-04-26T11:52:04Z</time>
      </trkpt>
      <trkpt lat="43.102525966241956" lon="0.317764990031719">
        <ele>607.21000000000004</ele>
        <time>2025-04-26T11:52:16Z</time>
      </trkpt>
      <trkpt lat="43.102305019274354" lon="0.317242965102196">
        <ele>609.61000000000001</ele>
        <time>2025-04-26T11:52:22Z</time>
      </trkpt>
      <trkpt lat="43.10227601788938" lon="0.31714498065412">
        <ele>610.09000000000003</ele>
        <time>2025-04-26T11:52:23Z</time>
      </trkpt>
      <trkpt lat="43.102227989584208" lon="0.316748013719916">
        <ele>611.05999999999995</ele>
        <time>2025-04-26T11:52:27Z</time>
      </trkpt>
      <trkpt lat="43.102240981534123" lon="0.316234035417438">
        <ele>612.98000000000002</ele>
        <time>2025-04-26T11:52:32Z</time>
      </trkpt>
      <trkpt lat="43.102240981534123" lon="0.316133033484221">
        <ele>613.94000000000005</ele>
        <time>2025-04-26T11:52:33Z</time>
      </trkpt>
      <trkpt lat="43.102259002625942" lon="0.316023984923959">
        <ele>614.41999999999996</ele>
        <time>2025-04-26T11:52:34Z</time>
      </trkpt>
      <trkpt lat="43.102303007617593" lon="0.315803037956357">
        <ele>615.38</ele>
        <time>2025-04-26T11:52:36Z</time>
      </trkpt>
      <trkpt lat="43.102541975677013" lon="0.31465002335608">
        <ele>612.01999999999998</ele>
        <time>2025-04-26T11:52:46Z</time>
      </trkpt>
      <trkpt lat="43.102568965405226" lon="0.314527982845902">
        <ele>612.01999999999998</ele>
        <time>2025-04-26T11:52:47Z</time>
      </trkpt>
      <trkpt lat="43.102830983698368" lon="0.313227027654648">
        <ele>610.09000000000003</ele>
        <time>2025-04-26T11:52:57Z</time>
      </trkpt>
      <trkpt lat="43.103128038346767" lon="0.311791962012649">
        <ele>609.61000000000001</ele>
        <time>2025-04-26T11:53:07Z</time>
      </trkpt>
      <trkpt lat="43.10319802723825" lon="0.3114939853549">
        <ele>609.61000000000001</ele>
        <time>2025-04-26T11:53:09Z</time>
      </trkpt>
      <trkpt lat="43.103360971435905" lon="0.310926027595997">
        <ele>609.61000000000001</ele>
        <time>2025-04-26T11:53:13Z</time>
      </trkpt>
      <trkpt lat="43.103577978909016" lon="0.310414982959628">
        <ele>609.61000000000001</ele>
        <time>2025-04-26T11:53:17Z</time>
      </trkpt>
      <trkpt lat="43.103646039962769" lon="0.310294032096863">
        <ele>609.61000000000001</ele>
        <time>2025-04-26T11:53:18Z</time>
      </trkpt>
      <trkpt lat="43.103729020804167" lon="0.310168974101543">
        <ele>609.61000000000001</ele>
        <time>2025-04-26T11:53:19Z</time>
      </trkpt>
      <trkpt lat="43.103828011080623" lon="0.310039976611733">
        <ele>609.61000000000001</ele>
        <time>2025-04-26T11:53:20Z</time>
      </trkpt>
      <trkpt lat="43.10392901301384" lon="0.309907961636782">
        <ele>609.13</ele>
        <time>2025-04-26T11:53:21Z</time>
      </trkpt>
      <trkpt lat="43.104011993855238" lon="0.30973001383245">
        <ele>608.64999999999998</ele>
        <time>2025-04-26T11:53:22Z</time>
      </trkpt>
      <trkpt lat="43.10457400046289" lon="0.308281034231186">
        <ele>604.33000000000004</ele>
        <time>2025-04-26T11:53:29Z</time>
      </trkpt>
      <trkpt lat="43.105254024267197" lon="0.306561989709735">
        <ele>600.96000000000004</ele>
        <time>2025-04-26T11:53:39Z</time>
      </trkpt>
      <trkpt lat="43.10603697784245" lon="0.304772034287453">
        <ele>595.66999999999996</ele>
        <time>2025-04-26T11:53:49Z</time>
      </trkpt>
      <trkpt lat="43.106920011341572" lon="0.303347026929259">
        <ele>585.58000000000004</ele>
        <time>2025-04-26T11:53:56Z</time>
      </trkpt>
      <trkpt lat="43.10807503759861" lon="0.301591018214822">
        <ele>575.49000000000001</ele>
        <time>2025-04-26T11:54:04Z</time>
      </trkpt>
      <trkpt lat="43.10945101082325" lon="0.299521023407578">
        <ele>565.38999999999999</ele>
        <time>2025-04-26T11:54:14Z</time>
      </trkpt>
      <trkpt lat="43.110459018498659" lon="0.298046981915832">
        <ele>555.29999999999995</ele>
        <time>2025-04-26T11:54:21Z</time>
      </trkpt>
      <trkpt lat="43.111513964831829" lon="0.297251036390662">
        <ele>546.16999999999996</ele>
        <time>2025-04-26T11:54:27Z</time>
      </trkpt>
      <trkpt lat="43.112557008862495" lon="0.296719036996365">
        <ele>537.50999999999999</ele>
        <time>2025-04-26T11:54:33Z</time>
      </trkpt>
      <trkpt lat="43.112686006352305" lon="0.296561038121581">
        <ele>536.07000000000005</ele>
        <time>2025-04-26T11:54:34Z</time>
      </trkpt>
      <trkpt lat="43.112812992185354" lon="0.296403961256146">
        <ele>535.11000000000001</ele>
        <time>2025-04-26T11:54:35Z</time>
      </trkpt>
      <trkpt lat="43.112935032695532" lon="0.296233976259828">
        <ele>534.14999999999998</ele>
        <time>2025-04-26T11:54:36Z</time>
      </trkpt>
      <trkpt lat="43.11304097995162" lon="0.296027027070522">
        <ele>533.19000000000005</ele>
        <time>2025-04-26T11:54:37Z</time>
      </trkpt>
      <trkpt lat="43.113135024905205" lon="0.295799961313605">
        <ele>532.23000000000002</ele>
        <time>2025-04-26T11:54:38Z</time>
      </trkpt>
      <trkpt lat="43.113232003524899" lon="0.295561999082565">
        <ele>531.26999999999998</ele>
        <time>2025-04-26T11:54:39Z</time>
      </trkpt>
      <trkpt lat="43.113603992387652" lon="0.293999025598168">
        <ele>526.94000000000005</ele>
        <time>2025-04-26T11:54:46Z</time>
      </trkpt>
      <trkpt lat="43.113721003755927" lon="0.292380983009934">
        <ele>517.80999999999995</ele>
        <time>2025-04-26T11:54:55Z</time>
      </trkpt>
      <trkpt lat="43.113657971844077" lon="0.290786996483803">
        <ele>506.75</ele>
        <time>2025-04-26T11:55:05Z</time>
      </trkpt>
      <trkpt lat="43.113563004881144" lon="0.289793992415071">
        <ele>500.98000000000002</ele>
        <time>2025-04-26T11:55:13Z</time>
      </trkpt>
      <trkpt lat="43.11346803791821" lon="0.288638966158032">
        <ele>497.62</ele>
        <time>2025-04-26T11:55:23Z</time>
      </trkpt>
      <trkpt lat="43.113458985462785" lon="0.288513991981745">
        <ele>497.62</ele>
        <time>2025-04-26T11:55:24Z</time>
      </trkpt>
      <trkpt lat="43.113450016826391" lon="0.288386000320315">
        <ele>497.62</ele>
        <time>2025-04-26T11:55:25Z</time>
      </trkpt>
      <trkpt lat="43.113443981856108" lon="0.288251973688602">
        <ele>497.62</ele>
        <time>2025-04-26T11:55:26Z</time>
      </trkpt>
      <trkpt lat="43.113464014604688" lon="0.288118030875921">
        <ele>497.62</ele>
        <time>2025-04-26T11:55:27Z</time>
      </trkpt>
      <trkpt lat="43.113609021529555" lon="0.287306997925043">
        <ele>499.06</ele>
        <time>2025-04-26T11:55:33Z</time>
      </trkpt>
      <trkpt lat="43.113656966015697" lon="0.287186969071627">
        <ele>500.01999999999998</ele>
        <time>2025-04-26T11:55:34Z</time>
      </trkpt>
      <trkpt lat="43.113891994580626" lon="0.286592021584511">
        <ele>502.91000000000003</ele>
        <time>2025-04-26T11:55:39Z</time>
      </trkpt>
      <trkpt lat="43.113940022885799" lon="0.286475010216236">
        <ele>503.38999999999999</ele>
        <time>2025-04-26T11:55:40Z</time>
      </trkpt>
      <trkpt lat="43.11400699429214" lon="0.286371996626258">
        <ele>504.35000000000002</ele>
        <time>2025-04-26T11:55:41Z</time>
      </trkpt>
      <trkpt lat="43.114279992878437" lon="0.285956002771854">
        <ele>506.26999999999998</ele>
        <time>2025-04-26T11:55:45Z</time>
      </trkpt>
      <trkpt lat="43.1143509875983" lon="0.285847960039973">
        <ele>507.23000000000002</ele>
        <time>2025-04-26T11:55:46Z</time>
      </trkpt>
      <trkpt lat="43.114950964227319" lon="0.284483972936869">
        <ele>514.44000000000005</ele>
        <time>2025-04-26T11:55:56Z</time>
      </trkpt>
      <trkpt lat="43.114977031946182" lon="0.284332009032369">
        <ele>515.39999999999998</ele>
        <time>2025-04-26T11:55:57Z</time>
      </trkpt>
      <trkpt lat="43.115134024992585" lon="0.283409999683499">
        <ele>518.28999999999996</ele>
        <time>2025-04-26T11:56:03Z</time>
      </trkpt>
      <trkpt lat="43.115180041640997" lon="0.283263986930251">
        <ele>518.28999999999996</ele>
        <time>2025-04-26T11:56:04Z</time>
      </trkpt>
      <trkpt lat="43.11542303301394" lon="0.282556973397732">
        <ele>517.33000000000004</ele>
        <time>2025-04-26T11:56:09Z</time>
      </trkpt>
      <trkpt lat="43.115547001361847" lon="0.282297972589731">
        <ele>516.37</ele>
        <time>2025-04-26T11:56:11Z</time>
      </trkpt>
      <trkpt lat="43.11589702963829" lon="0.281775025650859">
        <ele>512.03999999999996</ele>
        <time>2025-04-26T11:56:16Z</time>
      </trkpt>
      <trkpt lat="43.115976992994547" lon="0.281697995960712">
        <ele>511.56</ele>
        <time>2025-04-26T11:56:17Z</time>
      </trkpt>
      <trkpt lat="43.11652097851038" lon="0.281140012666583">
        <ele>506.75</ele>
        <time>2025-04-26T11:56:24Z</time>
      </trkpt>
      <trkpt lat="43.116583004593849" lon="0.281054014340043">
        <ele>506.26999999999998</ele>
        <time>2025-04-26T11:56:25Z</time>
      </trkpt>
      <trkpt lat="43.116661040112376" lon="0.280944965779781">
        <ele>505.79000000000002</ele>
        <time>2025-04-26T11:56:26Z</time>
      </trkpt>
      <trkpt lat="43.116704039275646" lon="0.28085301630199">
        <ele>506.26999999999998</ele>
        <time>2025-04-26T11:56:27Z</time>
      </trkpt>
      <trkpt lat="43.116751983761787" lon="0.280748996883631">
        <ele>506.26999999999998</ele>
        <time>2025-04-26T11:56:28Z</time>
      </trkpt>
      <trkpt lat="43.116981983184814" lon="0.280258990824223">
        <ele>510.12</ele>
        <time>2025-04-26T11:56:33Z</time>
      </trkpt>
      <trkpt lat="43.116957005113363" lon="0.280142985284328">
        <ele>511.07999999999998</ele>
        <time>2025-04-26T11:56:34Z</time>
      </trkpt>
      <trkpt lat="43.11692900955677" lon="0.280056986957788">
        <ele>512.03999999999996</ele>
        <time>2025-04-26T11:56:35Z</time>
      </trkpt>
      <trkpt lat="43.116862960159779" lon="0.280004013329744">
        <ele>513</ele>
        <time>2025-04-26T11:56:36Z</time>
      </trkpt>
      <trkpt lat="43.116793977096677" lon="0.279948022216558">
        <ele>513.96000000000004</ele>
        <time>2025-04-26T11:56:37Z</time>
      </trkpt>
      <trkpt lat="43.116718959063292" lon="0.27988700196147">
        <ele>514.44000000000005</ele>
        <time>2025-04-26T11:56:38Z</time>
      </trkpt>
      <trkpt lat="43.116566995158792" lon="0.279764039441943">
        <ele>514.91999999999996</ele>
        <time>2025-04-26T11:56:40Z</time>
      </trkpt>
      <trkpt lat="43.116488959640265" lon="0.279701007530093">
        <ele>514.91999999999996</ele>
        <time>2025-04-26T11:56:41Z</time>
      </trkpt>
      <trkpt lat="43.116436991840601" lon="0.279580978676677">
        <ele>514.44000000000005</ele>
        <time>2025-04-26T11:56:42Z</time>
      </trkpt>
      <trkpt lat="43.116382006555796" lon="0.279456004500389">
        <ele>514.44000000000005</ele>
        <time>2025-04-26T11:56:43Z</time>
      </trkpt>
      <trkpt lat="43.11632601544261" lon="0.279326001182199">
        <ele>513.96000000000004</ele>
        <time>2025-04-26T11:56:44Z</time>
      </trkpt>
      <trkpt lat="43.116268012672663" lon="0.279193986207247">
        <ele>513.48000000000002</ele>
        <time>2025-04-26T11:56:45Z</time>
      </trkpt>
      <trkpt lat="43.115825029090047" lon="0.278271976858377">
        <ele>507.23000000000002</ele>
        <time>2025-04-26T11:56:53Z</time>
      </trkpt>
      <trkpt lat="43.115755962207913" lon="0.27819100767374">
        <ele>506.26999999999998</ele>
        <time>2025-04-26T11:56:54Z</time>
      </trkpt>
      <trkpt lat="43.115683039650321" lon="0.278106015175581">
        <ele>505.31</ele>
        <time>2025-04-26T11:56:55Z</time>
      </trkpt>
      <trkpt lat="43.115384979173541" lon="0.27791297994554">
        <ele>502.43000000000001</ele>
        <time>2025-04-26T11:56:58Z</time>
      </trkpt>
      <trkpt lat="43.115277020260692" lon="0.277840979397297">
        <ele>500.98000000000002</ele>
        <time>2025-04-26T11:56:59Z</time>
      </trkpt>
      <trkpt lat="43.115186998620629" lon="0.277716005221009">
        <ele>500.01999999999998</ele>
        <time>2025-04-26T11:57:00Z</time>
      </trkpt>
      <trkpt lat="43.115112986415625" lon="0.277604022994637">
        <ele>498.57999999999998</ele>
        <time>2025-04-26T11:57:01Z</time>
      </trkpt>
      <trkpt lat="43.115080967545509" lon="0.277454992756248">
        <ele>497.62</ele>
        <time>2025-04-26T11:57:02Z</time>
      </trkpt>
      <trkpt lat="43.115064958110452" lon="0.277308980002999">
        <ele>496.66000000000003</ele>
        <time>2025-04-26T11:57:03Z</time>
      </trkpt>
      <trkpt lat="43.115063030272722" lon="0.277166990563273">
        <ele>495.22000000000003</ele>
        <time>2025-04-26T11:57:04Z</time>
      </trkpt>
      <trkpt lat="43.115113992244005" lon="0.277063976973295">
        <ele>494.25999999999999</ele>
        <time>2025-04-26T11:57:05Z</time>
      </trkpt>
      <trkpt lat="43.115159003064036" lon="0.276975966989994">
        <ele>493.76999999999998</ele>
        <time>2025-04-26T11:57:06Z</time>
      </trkpt>
      <trkpt lat="43.115226980298758" lon="0.27692299336195">
        <ele>492.81</ele>
        <time>2025-04-26T11:57:07Z</time>
      </trkpt>
      <trkpt lat="43.115321025252342" lon="0.276921987533569">
        <ele>492.32999999999998</ele>
        <time>2025-04-26T11:57:08Z</time>
      </trkpt>
      <trkpt lat="43.115410041064024" lon="0.276951994746923">
        <ele>491.85000000000002</ele>
        <time>2025-04-26T11:57:09Z</time>
      </trkpt>
      <trkpt lat="43.115516994148493" lon="0.277004968374968">
        <ele>490.88999999999999</ele>
        <time>2025-04-26T11:57:10Z</time>
      </trkpt>
      <trkpt lat="43.115621013566852" lon="0.277088033035398">
        <ele>490.41000000000003</ele>
        <time>2025-04-26T11:57:11Z</time>
      </trkpt>
      <trkpt lat="43.116221996024251" lon="0.277536967769265">
        <ele>487.52999999999997</ele>
        <time>2025-04-26T11:57:16Z</time>
      </trkpt>
      <trkpt lat="43.116351999342442" lon="0.277597988024354">
        <ele>487.05000000000001</ele>
        <time>2025-04-26T11:57:17Z</time>
      </trkpt>
      <trkpt lat="43.11647797934711" lon="0.277658002451062">
        <ele>486.07999999999998</ele>
        <time>2025-04-26T11:57:18Z</time>
      </trkpt>
      <trkpt lat="43.116590967401862" lon="0.277658002451062">
        <ele>485.12</ele>
        <time>2025-04-26T11:57:19Z</time>
      </trkpt>
      <trkpt lat="43.116681994870305" lon="0.277619026601315">
        <ele>484.16000000000003</ele>
        <time>2025-04-26T11:57:20Z</time>
      </trkpt>
      <trkpt lat="43.116780985146761" lon="0.27748198248446">
        <ele>483.19999999999999</ele>
        <time>2025-04-26T11:57:21Z</time>
      </trkpt>
      <trkpt lat="43.116849968209863" lon="0.277322977781296">
        <ele>482.72000000000003</ele>
        <time>2025-04-26T11:57:22Z</time>
      </trkpt>
      <trkpt lat="43.116921968758106" lon="0.277156010270119">
        <ele>481.75999999999999</ele>
        <time>2025-04-26T11:57:23Z</time>
      </trkpt>
      <trkpt lat="43.116995980963111" lon="0.276985019445419">
        <ele>480.80000000000001</ele>
        <time>2025-04-26T11:57:24Z</time>
      </trkpt>
      <trkpt lat="43.117066975682974" lon="0.276817968115211">
        <ele>479.83999999999997</ele>
        <time>2025-04-26T11:57:25Z</time>
      </trkpt>
      <trkpt lat="43.117191027849913" lon="0.276499958708882">
        <ele>476.94999999999999</ele>
        <time>2025-04-26T11:57:27Z</time>
      </trkpt>
      <trkpt lat="43.117212988436222" lon="0.276356963440776">
        <ele>475.50999999999999</ele>
        <time>2025-04-26T11:57:28Z</time>
      </trkpt>
      <trkpt lat="43.117172000929713" lon="0.276218997314572">
        <ele>474.06999999999999</ele>
        <time>2025-04-26T11:57:29Z</time>
      </trkpt>
      <trkpt lat="43.117110980674624" lon="0.276087988168001">
        <ele>473.11000000000001</ele>
        <time>2025-04-26T11:57:30Z</time>
      </trkpt>
      <trkpt lat="43.117024982348084" lon="0.275947004556656">
        <ele>472.13999999999999</ele>
        <time>2025-04-26T11:57:31Z</time>
      </trkpt>
      <trkpt lat="43.11632702127099" lon="0.274635991081595">
        <ele>464.93000000000001</ele>
        <time>2025-04-26T11:57:38Z</time>
      </trkpt>
      <trkpt lat="43.116234987974167" lon="0.274441028013825">
        <ele>463.97000000000003</ele>
        <time>2025-04-26T11:57:39Z</time>
      </trkpt>
      <trkpt lat="43.116145972162485" lon="0.274251010268927">
        <ele>463.00999999999999</ele>
        <time>2025-04-26T11:57:40Z</time>
      </trkpt>
      <trkpt lat="43.116124011576176" lon="0.274017993360758">
        <ele>462.05000000000001</ele>
        <time>2025-04-26T11:57:41Z</time>
      </trkpt>
      <trkpt lat="43.116059973835945" lon="0.272280005738139">
        <ele>454.83999999999997</ele>
        <time>2025-04-26T11:57:48Z</time>
      </trkpt>
      <trkpt lat="43.116044970229268" lon="0.271867029368877">
        <ele>451.95999999999998</ele>
        <time>2025-04-26T11:57:50Z</time>
      </trkpt>
      <trkpt lat="43.115977998822927" lon="0.271673994138837">
        <ele>450.51999999999998</ele>
        <time>2025-04-26T11:57:51Z</time>
      </trkpt>
      <trkpt lat="43.115908009931445" lon="0.271468972787261">
        <ele>449.06999999999999</ele>
        <time>2025-04-26T11:57:52Z</time>
      </trkpt>
      <trkpt lat="43.115664012730122" lon="0.270906966179609">
        <ele>444.26999999999998</ele>
        <time>2025-04-26T11:57:55Z</time>
      </trkpt>
      <trkpt lat="43.11557600274682" lon="0.270745027810335">
        <ele>442.81999999999999</ele>
        <time>2025-04-26T11:57:56Z</time>
      </trkpt>
      <trkpt lat="43.115473994985223" lon="0.270642014220357">
        <ele>441.38</ele>
        <time>2025-04-26T11:57:57Z</time>
      </trkpt>
      <trkpt lat="43.11533804051578" lon="0.270550986751914">
        <ele>440.42000000000002</ele>
        <time>2025-04-26T11:57:58Z</time>
      </trkpt>
      <trkpt lat="43.115195967257023" lon="0.27045601978898">
        <ele>438.98000000000002</ele>
        <time>2025-04-26T11:57:59Z</time>
      </trkpt>
      <trkpt lat="43.115054983645678" lon="0.270361974835396">
        <ele>438.01999999999998</ele>
        <time>2025-04-26T11:58:00Z</time>
      </trkpt>
      <trkpt lat="43.114910982549191" lon="0.270266002044082">
        <ele>437.06</ele>
        <time>2025-04-26T11:58:01Z</time>
      </trkpt>
      <trkpt lat="43.114760024473071" lon="0.270156031474471">
        <ele>436.10000000000002</ele>
        <time>2025-04-26T11:58:02Z</time>
      </trkpt>
      <trkpt lat="43.114643013104796" lon="0.269990991801023">
        <ele>434.64999999999998</ele>
        <time>2025-04-26T11:58:03Z</time>
      </trkpt>
      <trkpt lat="43.114524995908141" lon="0.269823018461466">
        <ele>433.20999999999998</ele>
        <time>2025-04-26T11:58:04Z</time>
      </trkpt>
      <trkpt lat="43.114405972883105" lon="0.269654039293528">
        <ele>432.25</ele>
        <time>2025-04-26T11:58:05Z</time>
      </trkpt>
      <trkpt lat="43.113893000409007" lon="0.268979966640472">
        <ele>426.95999999999998</ele>
        <time>2025-04-26T11:58:09Z</time>
      </trkpt>
      <trkpt lat="43.113740030676126" lon="0.268838983029127">
        <ele>425.51999999999998</ele>
        <time>2025-04-26T11:58:10Z</time>
      </trkpt>
      <trkpt lat="43.113571973517537" lon="0.268738986924291">
        <ele>423.60000000000002</ele>
        <time>2025-04-26T11:58:11Z</time>
      </trkpt>
      <trkpt lat="43.113391008228064" lon="0.268690036609769">
        <ele>422.16000000000003</ele>
        <time>2025-04-26T11:58:12Z</time>
      </trkpt>
      <trkpt lat="43.113200990483165" lon="0.268656006082892">
        <ele>420.70999999999998</ele>
        <time>2025-04-26T11:58:13Z</time>
      </trkpt>
      <trkpt lat="43.113011978566647" lon="0.268621975556016">
        <ele>419.75</ele>
        <time>2025-04-26T11:58:14Z</time>
      </trkpt>
      <trkpt lat="43.111762991175056" lon="0.268707973882556">
        <ele>412.06</ele>
        <time>2025-04-26T11:58:21Z</time>
      </trkpt>
      <trkpt lat="43.111590994521976" lon="0.268805958330631">
        <ele>410.62</ele>
        <time>2025-04-26T11:58:22Z</time>
      </trkpt>
      <trkpt lat="43.110773004591465" lon="0.269202003255486">
        <ele>401.49000000000001</ele>
        <time>2025-04-26T11:58:27Z</time>
      </trkpt>
      <trkpt lat="43.110466981306672" lon="0.269249025732279">
        <ele>398.12</ele>
        <time>2025-04-26T11:58:29Z</time>
      </trkpt>
      <trkpt lat="43.110333038493991" lon="0.269235027953982">
        <ele>396.19999999999999</ele>
        <time>2025-04-26T11:58:30Z</time>
      </trkpt>
      <trkpt lat="43.110232958570123" lon="0.269190017133951">
        <ele>394.75999999999999</ele>
        <time>2025-04-26T11:58:31Z</time>
      </trkpt>
      <trkpt lat="43.11013899743557" lon="0.269121034070849">
        <ele>393.31999999999999</ele>
        <time>2025-04-26T11:58:32Z</time>
      </trkpt>
      <trkpt lat="43.110051993280649" lon="0.269058002158999">
        <ele>391.87</ele>
        <time>2025-04-26T11:58:33Z</time>
      </trkpt>
      <trkpt lat="43.110000025480986" lon="0.268941996619105">
        <ele>390.43000000000001</ele>
        <time>2025-04-26T11:58:34Z</time>
      </trkpt>
      <trkpt lat="43.1099440343678" lon="0.268815010786057">
        <ele>388.99000000000001</ele>
        <time>2025-04-26T11:58:35Z</time>
      </trkpt>
      <trkpt lat="43.109887037426233" lon="0.268686013296247">
        <ele>387.55000000000001</ele>
        <time>2025-04-26T11:58:36Z</time>
      </trkpt>
      <trkpt lat="43.109862981364131" lon="0.268542012199759">
        <ele>386.11000000000001</ele>
        <time>2025-04-26T11:58:37Z</time>
      </trkpt>
      <trkpt lat="43.109841020777822" lon="0.268374960869551">
        <ele>385.14999999999998</ele>
        <time>2025-04-26T11:58:38Z</time>
      </trkpt>
      <trkpt lat="43.1098179705441" lon="0.268201036378741">
        <ele>384.18000000000001</ele>
        <time>2025-04-26T11:58:39Z</time>
      </trkpt>
      <trkpt lat="43.10979500412941" lon="0.268028033897281">
        <ele>382.25999999999999</ele>
        <time>2025-04-26T11:58:40Z</time>
      </trkpt>
      <trkpt lat="43.109833979979157" lon="0.267305010929704">
        <ele>376.97000000000003</ele>
        <time>2025-04-26T11:58:44Z</time>
      </trkpt>
      <trkpt lat="43.109865998849273" lon="0.267135025933385">
        <ele>375.52999999999997</ele>
        <time>2025-04-26T11:58:45Z</time>
      </trkpt>
      <trkpt lat="43.109900029376149" lon="0.26697400957346">
        <ele>374.56999999999999</ele>
        <time>2025-04-26T11:58:46Z</time>
      </trkpt>
      <trkpt lat="43.109957026317716" lon="0.266694976016879">
        <ele>372.17000000000002</ele>
        <time>2025-04-26T11:58:48Z</time>
      </trkpt>
      <trkpt lat="43.10994696803391" lon="0.266571007668972">
        <ele>371.20999999999998</ele>
        <time>2025-04-26T11:58:49Z</time>
      </trkpt>
      <trkpt lat="43.10992400161922" lon="0.266467994078994">
        <ele>370.24000000000001</ele>
        <time>2025-04-26T11:58:50Z</time>
      </trkpt>
      <trkpt lat="43.109862981364131" lon="0.266421977430582">
        <ele>369.27999999999997</ele>
        <time>2025-04-26T11:58:51Z</time>
      </trkpt>
      <trkpt lat="43.109793998301029" lon="0.26637596078217">
        <ele>367.83999999999997</ele>
        <time>2025-04-26T11:58:52Z</time>
      </trkpt>
      <trkpt lat="43.109704982489347" lon="0.266410997137427">
        <ele>366.88</ele>
        <time>2025-04-26T11:58:53Z</time>
      </trkpt>
      <trkpt lat="43.109610015526414" lon="0.266448967158794">
        <ele>365.92000000000002</ele>
        <time>2025-04-26T11:58:54Z</time>
      </trkpt>
      <trkpt lat="43.10951798222959" lon="0.266522979363799">
        <ele>365.44</ele>
        <time>2025-04-26T11:58:55Z</time>
      </trkpt>
      <trkpt lat="43.108811974525452" lon="0.267377011477947">
        <ele>359.67000000000002</ele>
        <time>2025-04-26T11:59:03Z</time>
      </trkpt>
      <trkpt lat="43.10863696038723" lon="0.267523024231195">
        <ele>357.26999999999998</ele>
        <time>2025-04-26T11:59:06Z</time>
      </trkpt>
      <trkpt lat="43.108578035607934" lon="0.267571974545717">
        <ele>356.79000000000002</ele>
        <time>2025-04-26T11:59:07Z</time>
      </trkpt>
      <trkpt lat="43.10807797126472" lon="0.26779199950397">
        <ele>352.94</ele>
        <time>2025-04-26T11:59:13Z</time>
      </trkpt>
      <trkpt lat="43.108009994029999" lon="0.267751011997461">
        <ele>351.98000000000002</ele>
        <time>2025-04-26T11:59:14Z</time>
      </trkpt>
      <trkpt lat="43.107960959896445" lon="0.267698960378766">
        <ele>351.5</ele>
        <time>2025-04-26T11:59:15Z</time>
      </trkpt>
      <trkpt lat="43.107927013188601" lon="0.26759603060782">
        <ele>350.54000000000002</ele>
        <time>2025-04-26T11:59:16Z</time>
      </trkpt>
      <trkpt lat="43.107909997925162" lon="0.267483964562416">
        <ele>350.06</ele>
        <time>2025-04-26T11:59:17Z</time>
      </trkpt>
      <trkpt lat="43.107921984046698" lon="0.267358990386128">
        <ele>350.06</ele>
        <time>2025-04-26T11:59:18Z</time>
      </trkpt>
      <trkpt lat="43.107955008745193" lon="0.267221024259925">
        <ele>349.57999999999998</ele>
        <time>2025-04-26T11:59:19Z</time>
      </trkpt>
      <trkpt lat="43.108005970716476" lon="0.267075011506677">
        <ele>349.10000000000002</ele>
        <time>2025-04-26T11:59:20Z</time>
      </trkpt>
      <trkpt lat="43.108352981507778" lon="0.2660290338099">
        <ele>343.32999999999998</ele>
        <time>2025-04-26T11:59:26Z</time>
      </trkpt>
      <trkpt lat="43.108394974842668" lon="0.265845973044634">
        <ele>342.37</ele>
        <time>2025-04-26T11:59:27Z</time>
      </trkpt>
      <trkpt lat="43.108420958742499" lon="0.265656039118767">
        <ele>341.41000000000003</ele>
        <time>2025-04-26T11:59:28Z</time>
      </trkpt>
      <trkpt lat="43.108436968177557" lon="0.264921030029655">
        <ele>336.12</ele>
        <time>2025-04-26T11:59:32Z</time>
      </trkpt>
      <trkpt lat="43.108457000926137" lon="0.264745010063052">
        <ele>335.16000000000003</ele>
        <time>2025-04-26T11:59:33Z</time>
      </trkpt>
      <trkpt lat="43.108503017574549" lon="0.264575025066733">
        <ele>334.19999999999999</ele>
        <time>2025-04-26T11:59:34Z</time>
      </trkpt>
      <trkpt lat="43.108560014516115" lon="0.264423983171582">
        <ele>333.23000000000002</ele>
        <time>2025-04-26T11:59:35Z</time>
      </trkpt>
      <trkpt lat="43.108628997579217" lon="0.264284005388618">
        <ele>331.79000000000002</ele>
        <time>2025-04-26T11:59:36Z</time>
      </trkpt>
      <trkpt lat="43.108707033097744" lon="0.264171017333865">
        <ele>330.82999999999998</ele>
        <time>2025-04-26T11:59:37Z</time>
      </trkpt>
      <trkpt lat="43.108778027817607" lon="0.264069009572268">
        <ele>329.38999999999999</ele>
        <time>2025-04-26T11:59:38Z</time>
      </trkpt>
      <trkpt lat="43.10887198895216" lon="0.264001032337546">
        <ele>328.43000000000001</ele>
        <time>2025-04-26T11:59:39Z</time>
      </trkpt>
      <trkpt lat="43.108963016420603" lon="0.263940012082458">
        <ele>327.47000000000003</ele>
        <time>2025-04-26T11:59:40Z</time>
      </trkpt>
      <trkpt lat="43.10906401835382" lon="0.263873040676117">
        <ele>326.5</ele>
        <time>2025-04-26T11:59:41Z</time>
      </trkpt>
      <trkpt lat="43.109171977266669" lon="0.263801040127873">
        <ele>325.54000000000002</ele>
        <time>2025-04-26T11:59:42Z</time>
      </trkpt>
      <trkpt lat="43.10988200828433" lon="0.263445982709527">
        <ele>318.81</ele>
        <time>2025-04-26T11:59:50Z</time>
      </trkpt>
      <trkpt lat="43.109936993569136" lon="0.263369036838412">
        <ele>318.32999999999998</ele>
        <time>2025-04-26T11:59:51Z</time>
      </trkpt>
      <trkpt lat="43.109970018267632" lon="0.263270968571305">
        <ele>317.85000000000002</ele>
        <time>2025-04-26T11:59:52Z</time>
      </trkpt>
      <trkpt lat="43.109978986904025" lon="0.263140965253115">
        <ele>317.85000000000002</ele>
        <time>2025-04-26T11:59:53Z</time>
      </trkpt>
      <trkpt lat="43.10998996719718" lon="0.262993024662137">
        <ele>317.37</ele>
        <time>2025-04-26T11:59:54Z</time>
      </trkpt>
      <trkpt lat="43.110001031309366" lon="0.262829996645451">
        <ele>317.37</ele>
        <time>2025-04-26T11:59:55Z</time>
      </trkpt>
      <trkpt lat="43.109883014112711" lon="0.261091003194451">
        <ele>311.60000000000002</ele>
        <time>2025-04-26T12:00:04Z</time>
      </trkpt>
      <trkpt lat="43.109658965840936" lon="0.25872697122395">
        <ele>305.36000000000001</ele>
        <time>2025-04-26T12:00:16Z</time>
      </trkpt>
      <trkpt lat="43.109640022739768" lon="0.257010022178292">
        <ele>307.75999999999999</ele>
        <time>2025-04-26T12:00:25Z</time>
      </trkpt>
      <trkpt lat="43.109730966389179" lon="0.254938015714288">
        <ele>312.56999999999999</ele>
        <time>2025-04-26T12:00:35Z</time>
      </trkpt>
      <trkpt lat="43.109785029664636" lon="0.252832984551787">
        <ele>315.93000000000001</ele>
        <time>2025-04-26T12:00:44Z</time>
      </trkpt>
      <trkpt lat="43.109801961109042" lon="0.251475032418966">
        <ele>319.77999999999997</ele>
        <time>2025-04-26T12:00:50Z</time>
      </trkpt>
      <trkpt lat="43.109770026057959" lon="0.251245032995939">
        <ele>320.74000000000001</ele>
        <time>2025-04-26T12:00:51Z</time>
      </trkpt>
      <trkpt lat="43.109718980267644" lon="0.25101101025939">
        <ele>322.18000000000001</ele>
        <time>2025-04-26T12:00:52Z</time>
      </trkpt>
      <trkpt lat="43.109552012756467" lon="0.250250017270446">
        <ele>325.54000000000002</ele>
        <time>2025-04-26T12:00:55Z</time>
      </trkpt>
      <trkpt lat="43.109496021643281" lon="0.249991016462445">
        <ele>326.5</ele>
        <time>2025-04-26T12:00:56Z</time>
      </trkpt>
      <trkpt lat="43.109526028856635" lon="0.249761017039418">
        <ele>327.47000000000003</ele>
        <time>2025-04-26T12:00:57Z</time>
      </trkpt>
      <trkpt lat="43.10956098139286" lon="0.249523976817727">
        <ele>328.91000000000003</ele>
        <time>2025-04-26T12:00:58Z</time>
      </trkpt>
      <trkpt lat="43.109598029404879" lon="0.249272016808391">
        <ele>330.35000000000002</ele>
        <time>2025-04-26T12:00:59Z</time>
      </trkpt>
      <trkpt lat="43.109707999974489" lon="0.248586963862181">
        <ele>333.70999999999998</ele>
        <time>2025-04-26T12:01:02Z</time>
      </trkpt>
      <trkpt lat="43.109716968610883" lon="0.248427037149668">
        <ele>334.68000000000001</ele>
        <time>2025-04-26T12:01:03Z</time>
      </trkpt>
      <trkpt lat="43.109741024672985" lon="0.248007019981742">
        <ele>339</ele>
        <time>2025-04-26T12:01:07Z</time>
      </trkpt>
      <trkpt lat="43.109743036329746" lon="0.247963014990091">
        <ele>339.95999999999998</ele>
        <time>2025-04-26T12:01:08Z</time>
      </trkpt>
      <trkpt lat="43.109962977468967" lon="0.248043984174728">
        <ele>345.25</ele>
        <time>2025-04-26T12:01:14Z</time>
      </trkpt>
      <trkpt lat="43.110045958310366" lon="0.248299967497587">
        <ele>350.54000000000002</ele>
        <time>2025-04-26T12:01:21Z</time>
      </trkpt>
      <trkpt lat="43.110064985230565" lon="0.248329974710941">
        <ele>351.98000000000002</ele>
        <time>2025-04-26T12:01:34Z</time>
      </trkpt>
      <trkpt lat="43.110064985230565" lon="0.248329974710941">
        <ele>351.98000000000002</ele>
        <time>2025-04-26T12:01:47Z</time>
      </trkpt>
      <trkpt lat="43.110276041552424" lon="0.248537007719278">
        <ele>287.56999999999999</ele>
        <time>2025-04-26T12:07:51Z</time>
      </trkpt>
      <trkpt lat="43.110069008544087" lon="0.248216986656189">
        <ele>362.55000000000001</ele>
        <time>2025-04-26T12:08:40Z</time>
      </trkpt>
      <trkpt lat="43.110109996050596" lon="0.248208018019795">
        <ele>362.55000000000001</ele>
        <time>2025-04-26T12:09:33Z</time>
      </trkpt>
      <trkpt lat="43.110103039070964" lon="0.248221009969711">
        <ele>361.58999999999997</ele>
        <time>2025-04-26T12:10:28Z</time>
      </trkpt>
      <trkpt lat="43.110111001878977" lon="0.248221009969711">
        <ele>361.58999999999997</ele>
        <time>2025-04-26T12:11:21Z</time>
      </trkpt>
      <trkpt lat="43.110111001878977" lon="0.248231990262866">
        <ele>362.06999999999999</ele>
        <time>2025-04-26T12:12:15Z</time>
      </trkpt>
      <trkpt lat="43.110113013535738" lon="0.248230984434485">
        <ele>362.06999999999999</ele>
        <time>2025-04-26T12:12:18Z</time>
      </trkpt>
      <trkpt lat="43.110031960532069" lon="0.248080026358366">
        <ele>361.11000000000001</ele>
        <time>2025-04-26T12:12:24Z</time>
      </trkpt>
      <trkpt lat="43.10975200496614" lon="0.247795963659883">
        <ele>357.75</ele>
        <time>2025-04-26T12:12:33Z</time>
      </trkpt>
      <trkpt lat="43.109756028279662" lon="0.247718011960387">
        <ele>357.26999999999998</ele>
        <time>2025-04-26T12:12:34Z</time>
      </trkpt>
      <trkpt lat="43.109760973602533" lon="0.247614998370409">
        <ele>356.79000000000002</ele>
        <time>2025-04-26T12:12:35Z</time>
      </trkpt>
      <trkpt lat="43.109766002744436" lon="0.247495975345373">
        <ele>356.31</ele>
        <time>2025-04-26T12:12:36Z</time>
      </trkpt>
      <trkpt lat="43.109766002744436" lon="0.247495975345373">
        <ele>355.82999999999998</ele>
        <time>2025-04-26T12:12:37Z</time>
      </trkpt>
      <trkpt lat="43.109804978594184" lon="0.247235968708992">
        <ele>355.33999999999997</ele>
        <time>2025-04-26T12:12:38Z</time>
      </trkpt>
      <trkpt lat="43.10983900912106" lon="0.247099008411169">
        <ele>354.86000000000001</ele>
        <time>2025-04-26T12:12:39Z</time>
      </trkpt>
      <trkpt lat="43.109875973314047" lon="0.246948972344399">
        <ele>354.38</ele>
        <time>2025-04-26T12:12:40Z</time>
      </trkpt>
      <trkpt lat="43.109942022711039" lon="0.246802037581801">
        <ele>354.38</ele>
        <time>2025-04-26T12:12:41Z</time>
      </trkpt>
      <trkpt lat="43.110018968582153" lon="0.246635992079973">
        <ele>354.38</ele>
        <time>2025-04-26T12:12:42Z</time>
      </trkpt>
      <trkpt lat="43.110550967976451" lon="0.245392033830285">
        <ele>357.26999999999998</ele>
        <time>2025-04-26T12:12:49Z</time>
      </trkpt>
      <trkpt lat="43.110606959089637" lon="0.245208973065019">
        <ele>357.75</ele>
        <time>2025-04-26T12:12:50Z</time>
      </trkpt>
      <trkpt lat="43.110636966302991" lon="0.245007975026965">
        <ele>358.70999999999998</ele>
        <time>2025-04-26T12:12:51Z</time>
      </trkpt>
      <trkpt lat="43.110647024586797" lon="0.244803037494421">
        <ele>359.67000000000002</ele>
        <time>2025-04-26T12:12:52Z</time>
      </trkpt>
      <trkpt lat="43.110634032636881" lon="0.2445899695158">
        <ele>361.11000000000001</ele>
        <time>2025-04-26T12:12:53Z</time>
      </trkpt>
      <trkpt lat="43.110593967139721" lon="0.244388971477747">
        <ele>362.55000000000001</ele>
        <time>2025-04-26T12:12:54Z</time>
      </trkpt>
      <trkpt lat="43.110552979633212" lon="0.244185961782932">
        <ele>364.48000000000002</ele>
        <time>2025-04-26T12:12:55Z</time>
      </trkpt>
      <trkpt lat="43.110459018498659" lon="0.243639964610338">
        <ele>369.75999999999999</ele>
        <time>2025-04-26T12:12:58Z</time>
      </trkpt>
      <trkpt lat="43.110478967428207" lon="0.243457993492484">
        <ele>371.69</ele>
        <time>2025-04-26T12:12:59Z</time>
      </trkpt>
      <trkpt lat="43.110544010996819" lon="0.243308041244745">
        <ele>373.61000000000001</ele>
        <time>2025-04-26T12:13:00Z</time>
      </trkpt>
      <trkpt lat="43.110608970746398" lon="0.243160016834736">
        <ele>375.52999999999997</ele>
        <time>2025-04-26T12:13:01Z</time>
      </trkpt>
      <trkpt lat="43.110695974901319" lon="0.243028001859784">
        <ele>376.97000000000003</ele>
        <time>2025-04-26T12:13:02Z</time>
      </trkpt>
      <trkpt lat="43.111223028972745" lon="0.241924021393061">
        <ele>386.11000000000001</ele>
        <time>2025-04-26T12:13:08Z</time>
      </trkpt>
      <trkpt lat="43.111308021470904" lon="0.241712965071201">
        <ele>387.55000000000001</ele>
        <time>2025-04-26T12:13:09Z</time>
      </trkpt>
      <trkpt lat="43.111440036445856" lon="0.241279033944011">
        <ele>389.94999999999999</ele>
        <time>2025-04-26T12:13:11Z</time>
      </trkpt>
      <trkpt lat="43.111464008688927" lon="0.241059008985758">
        <ele>391.38999999999999</ele>
        <time>2025-04-26T12:13:12Z</time>
      </trkpt>
      <trkpt lat="43.111511031165719" lon="0.240625999867916">
        <ele>394.27999999999997</ele>
        <time>2025-04-26T12:13:14Z</time>
      </trkpt>
      <trkpt lat="43.111614966765046" lon="0.240233978256583">
        <ele>397.16000000000003</ele>
        <time>2025-04-26T12:13:16Z</time>
      </trkpt>
      <trkpt lat="43.111720997840166" lon="0.240074973553419">
        <ele>399.07999999999998</ele>
        <time>2025-04-26T12:13:17Z</time>
      </trkpt>
      <trkpt lat="43.111829040572047" lon="0.239913035184145">
        <ele>400.52999999999997</ele>
        <time>2025-04-26T12:13:18Z</time>
      </trkpt>
      <trkpt lat="43.11194303445518" lon="0.239741960540414">
        <ele>402.44999999999999</ele>
        <time>2025-04-26T12:13:19Z</time>
      </trkpt>
      <trkpt lat="43.112064991146326" lon="0.23955998942256">
        <ele>404.85000000000002</ele>
        <time>2025-04-26T12:13:20Z</time>
      </trkpt>
      <trkpt lat="43.112938972190022" lon="0.238564973697066">
        <ele>416.87</ele>
        <time>2025-04-26T12:13:26Z</time>
      </trkpt>
      <trkpt lat="43.113253964111209" lon="0.238289041444659">
        <ele>420.70999999999998</ele>
        <time>2025-04-26T12:13:28Z</time>
      </trkpt>
      <trkpt lat="43.113411040976644" lon="0.238134982064366">
        <ele>422.63999999999999</ele>
        <time>2025-04-26T12:13:29Z</time>
      </trkpt>
      <trkpt lat="43.114088969305158" lon="0.237262006849051">
        <ele>432.25</ele>
        <time>2025-04-26T12:13:34Z</time>
      </trkpt>
      <trkpt lat="43.114243028685451" lon="0.237173996865749">
        <ele>434.17000000000002</ele>
        <time>2025-04-26T12:13:35Z</time>
      </trkpt>
      <trkpt lat="43.114397004246712" lon="0.237085986882448">
        <ele>436.10000000000002</ele>
        <time>2025-04-26T12:13:36Z</time>
      </trkpt>
      <trkpt lat="43.114555003121495" lon="0.236995965242386">
        <ele>438.01999999999998</ele>
        <time>2025-04-26T12:13:37Z</time>
      </trkpt>
      <trkpt lat="43.114718031138182" lon="0.236875014379621">
        <ele>439.45999999999998</ele>
        <time>2025-04-26T12:13:38Z</time>
      </trkpt>
      <trkpt lat="43.114869995042682" lon="0.236742999404669">
        <ele>441.38</ele>
        <time>2025-04-26T12:13:39Z</time>
      </trkpt>
      <trkpt lat="43.115020031109452" lon="0.236612996086478">
        <ele>442.81999999999999</ele>
        <time>2025-04-26T12:13:40Z</time>
      </trkpt>
      <trkpt lat="43.115153973922133" lon="0.23642398416996">
        <ele>444.26999999999998</ele>
        <time>2025-04-26T12:13:41Z</time>
      </trkpt>
      <trkpt lat="43.11525103636086" lon="0.236218040809035">
        <ele>445.23000000000002</ele>
        <time>2025-04-26T12:13:42Z</time>
      </trkpt>
      <trkpt lat="43.115351032465696" lon="0.236006984487176">
        <ele>446.67000000000002</ele>
        <time>2025-04-26T12:13:43Z</time>
      </trkpt>
      <trkpt lat="43.115559993311763" lon="0.235626026988029">
        <ele>449.06999999999999</ele>
        <time>2025-04-26T12:13:45Z</time>
      </trkpt>
      <trkpt lat="43.115675998851657" lon="0.235467022284865">
        <ele>450.51999999999998</ele>
        <time>2025-04-26T12:13:46Z</time>
      </trkpt>
      <trkpt lat="43.11581002548337" lon="0.235334001481533">
        <ele>451.95999999999998</ele>
        <time>2025-04-26T12:13:47Z</time>
      </trkpt>
      <trkpt lat="43.115950003266335" lon="0.235216990113258">
        <ele>453.39999999999998</ele>
        <time>2025-04-26T12:13:48Z</time>
      </trkpt>
      <trkpt lat="43.116105990484357" lon="0.235141972079873">
        <ele>454.36000000000001</ele>
        <time>2025-04-26T12:13:49Z</time>
      </trkpt>
      <trkpt lat="43.116273041814566" lon="0.23509000428021">
        <ele>455.80000000000001</ele>
        <time>2025-04-26T12:13:50Z</time>
      </trkpt>
      <trkpt lat="43.116446966305375" lon="0.23509000428021">
        <ele>457.24000000000001</ele>
        <time>2025-04-26T12:13:51Z</time>
      </trkpt>
      <trkpt lat="43.116631032899022" lon="0.23509000428021">
        <ele>458.69</ele>
        <time>2025-04-26T12:13:52Z</time>
      </trkpt>
      <trkpt lat="43.116809986531734" lon="0.23509000428021">
        <ele>460.13</ele>
        <time>2025-04-26T12:13:53Z</time>
      </trkpt>
      <trkpt lat="43.117090025916696" lon="0.23509000428021">
        <ele>463.00999999999999</ele>
        <time>2025-04-26T12:13:55Z</time>
      </trkpt>
      <trkpt lat="43.117221035063267" lon="0.235024960711598">
        <ele>464.44999999999999</ele>
        <time>2025-04-26T12:13:56Z</time>
      </trkpt>
      <trkpt lat="43.117322036996484" lon="0.23496201261878">
        <ele>465.89999999999998</ele>
        <time>2025-04-26T12:13:57Z</time>
      </trkpt>
      <trkpt lat="43.117411974817514" lon="0.234853969886899">
        <ele>466.86000000000001</ele>
        <time>2025-04-26T12:13:58Z</time>
      </trkpt>
      <trkpt lat="43.117432007566094" lon="0.234692031517625">
        <ele>468.30000000000001</ele>
        <time>2025-04-26T12:13:59Z</time>
      </trkpt>
      <trkpt lat="43.117454973980784" lon="0.234508970752358">
        <ele>469.74000000000001</ele>
        <time>2025-04-26T12:14:00Z</time>
      </trkpt>
      <trkpt lat="43.117476012557745" lon="0.23433898575604">
        <ele>471.18000000000001</ele>
        <time>2025-04-26T12:14:01Z</time>
      </trkpt>
      <trkpt lat="43.117543989792466" lon="0.234142011031508">
        <ele>472.63</ele>
        <time>2025-04-26T12:14:02Z</time>
      </trkpt>
      <trkpt lat="43.117610039189458" lon="0.23395299911499">
        <ele>473.58999999999997</ele>
        <time>2025-04-26T12:14:03Z</time>
      </trkpt>
      <trkpt lat="43.117697965353727" lon="0.233532981947064">
        <ele>476.47000000000003</ele>
        <time>2025-04-26T12:14:05Z</time>
      </trkpt>
      <trkpt lat="43.11772202141583" lon="0.233319997787476">
        <ele>477.43000000000001</ele>
        <time>2025-04-26T12:14:06Z</time>
      </trkpt>
      <trkpt lat="43.117714980617166" lon="0.23309201002121">
        <ele>478.87</ele>
        <time>2025-04-26T12:14:07Z</time>
      </trkpt>
      <trkpt lat="43.117683967575431" lon="0.232873996719718">
        <ele>480.31999999999999</ele>
        <time>2025-04-26T12:14:08Z</time>
      </trkpt>
      <trkpt lat="43.117652032524347" lon="0.232652965933084">
        <ele>481.75999999999999</ele>
        <time>2025-04-26T12:14:09Z</time>
      </trkpt>
      <trkpt lat="43.117624958977103" lon="0.232424978166819">
        <ele>483.19999999999999</ele>
        <time>2025-04-26T12:14:10Z</time>
      </trkpt>
      <trkpt lat="43.117605010047555" lon="0.231849979609251">
        <ele>488.49000000000001</ele>
        <time>2025-04-26T12:14:13Z</time>
      </trkpt>
      <trkpt lat="43.117682039737701" lon="0.231606988236308">
        <ele>489.93000000000001</ele>
        <time>2025-04-26T12:14:14Z</time>
      </trkpt>
      <trkpt lat="43.117736019194126" lon="0.231435997411609">
        <ele>491.37</ele>
        <time>2025-04-26T12:14:15Z</time>
      </trkpt>
      <trkpt lat="43.117839032784104" lon="0.231111031025648">
        <ele>494.25999999999999</ele>
        <time>2025-04-26T12:14:17Z</time>
      </trkpt>
      <trkpt lat="43.117883959785104" lon="0.230969963595271">
        <ele>495.69999999999999</ele>
        <time>2025-04-26T12:14:18Z</time>
      </trkpt>
      <trkpt lat="43.117836015298963" lon="0.230764020234346">
        <ele>496.18000000000001</ele>
        <time>2025-04-26T12:14:19Z</time>
      </trkpt>
      <trkpt lat="43.117795027792454" lon="0.230592023581266">
        <ele>497.62</ele>
        <time>2025-04-26T12:14:20Z</time>
      </trkpt>
      <trkpt lat="43.117754962295294" lon="0.230419021099806">
        <ele>498.57999999999998</ele>
        <time>2025-04-26T12:14:21Z</time>
      </trkpt>
      <trkpt lat="43.117705006152391" lon="0.230262028053403">
        <ele>499.54000000000002</ele>
        <time>2025-04-26T12:14:22Z</time>
      </trkpt>
      <trkpt lat="43.117640968412161" lon="0.230116015300155">
        <ele>500.5</ele>
        <time>2025-04-26T12:14:23Z</time>
      </trkpt>
      <trkpt lat="43.117528986185789" lon="0.229857014492154">
        <ele>502.91000000000003</ele>
        <time>2025-04-26T12:14:25Z</time>
      </trkpt>
      <trkpt lat="43.117472995072603" lon="0.229728017002344">
        <ele>503.87</ele>
        <time>2025-04-26T12:14:26Z</time>
      </trkpt>
      <trkpt lat="43.117413986474276" lon="0.229592984542251">
        <ele>504.35000000000002</ele>
        <time>2025-04-26T12:14:27Z</time>
      </trkpt>
      <trkpt lat="43.117154985666275" lon="0.229226024821401">
        <ele>506.75</ele>
        <time>2025-04-26T12:14:30Z</time>
      </trkpt>
      <trkpt lat="43.117072004824877" lon="0.229136003181338">
        <ele>508.19</ele>
        <time>2025-04-26T12:14:31Z</time>
      </trkpt>
      <trkpt lat="43.116967985406518" lon="0.229076994583011">
        <ele>509.16000000000003</ele>
        <time>2025-04-26T12:14:32Z</time>
      </trkpt>
      <trkpt lat="43.116852985695004" lon="0.229101972654462">
        <ele>509.63999999999999</ele>
        <time>2025-04-26T12:14:33Z</time>
      </trkpt>
      <trkpt lat="43.116733962669969" lon="0.229157963767648">
        <ele>510.60000000000002</ele>
        <time>2025-04-26T12:14:34Z</time>
      </trkpt>
      <trkpt lat="43.1166079826653" lon="0.229217978194356">
        <ele>511.56</ele>
        <time>2025-04-26T12:14:35Z</time>
      </trkpt>
      <trkpt lat="43.116531958803535" lon="0.229254020377994">
        <ele>512.51999999999998</ele>
        <time>2025-04-26T12:14:36Z</time>
      </trkpt>
      <trkpt lat="43.116368008777499" lon="0.229215966537595">
        <ele>513.48000000000002</ele>
        <time>2025-04-26T12:14:37Z</time>
      </trkpt>
      <trkpt lat="43.116234987974167" lon="0.229185037314892">
        <ele>514.91999999999996</ele>
        <time>2025-04-26T12:14:38Z</time>
      </trkpt>
      <trkpt lat="43.116234987974167" lon="0.229185037314892">
        <ele>515.39999999999998</ele>
        <time>2025-04-26T12:14:39Z</time>
      </trkpt>
      <trkpt lat="43.115959977731109" lon="0.229126028716564">
        <ele>516.37</ele>
        <time>2025-04-26T12:14:40Z</time>
      </trkpt>
      <trkpt lat="43.11581396497786" lon="0.229133991524577">
        <ele>516.85000000000002</ele>
        <time>2025-04-26T12:14:41Z</time>
      </trkpt>
      <trkpt lat="43.115657977759838" lon="0.229142960160971">
        <ele>517.33000000000004</ele>
        <time>2025-04-26T12:14:42Z</time>
      </trkpt>
      <trkpt lat="43.115502996370196" lon="0.229201968759298">
        <ele>518.76999999999998</ele>
        <time>2025-04-26T12:14:43Z</time>
      </trkpt>
      <trkpt lat="43.115370981395245" lon="0.229271035641432">
        <ele>520.21000000000004</ele>
        <time>2025-04-26T12:14:44Z</time>
      </trkpt>
      <trkpt lat="43.115249024704099" lon="0.22933398373425">
        <ele>521.16999999999996</ele>
        <time>2025-04-26T12:14:45Z</time>
      </trkpt>
      <trkpt lat="43.115136036649346" lon="0.229392992332578">
        <ele>522.61000000000001</ele>
        <time>2025-04-26T12:14:46Z</time>
      </trkpt>
      <trkpt lat="43.11503604054451" lon="0.229390980675817">
        <ele>523.58000000000004</ele>
        <time>2025-04-26T12:14:47Z</time>
      </trkpt>
      <trkpt lat="43.114946018904448" lon="0.229317974299192">
        <ele>524.05999999999995</ele>
        <time>2025-04-26T12:14:48Z</time>
      </trkpt>
      <trkpt lat="43.114875024184585" lon="0.229206997901201">
        <ele>525.01999999999998</ele>
        <time>2025-04-26T12:14:49Z</time>
      </trkpt>
      <trkpt lat="43.114833030849695" lon="0.22907598875463">
        <ele>525.98000000000002</ele>
        <time>2025-04-26T12:14:50Z</time>
      </trkpt>
      <trkpt lat="43.11482397839427" lon="0.228912960737944">
        <ele>526.94000000000005</ele>
        <time>2025-04-26T12:14:51Z</time>
      </trkpt>
      <trkpt lat="43.114815009757876" lon="0.228759991005063">
        <ele>527.89999999999998</ele>
        <time>2025-04-26T12:14:52Z</time>
      </trkpt>
      <trkpt lat="43.114859014749527" lon="0.2285819593817">
        <ele>528.38</ele>
        <time>2025-04-26T12:14:53Z</time>
      </trkpt>
      <trkpt lat="43.114903019741178" lon="0.228401999920607">
        <ele>528.38</ele>
        <time>2025-04-26T12:14:54Z</time>
      </trkpt>
      <trkpt lat="43.114950964227319" lon="0.228207958862185">
        <ele>528.86000000000001</ele>
        <time>2025-04-26T12:14:55Z</time>
      </trkpt>
      <trkpt lat="43.114999998360872" lon="0.228007966652513">
        <ele>528.86000000000001</ele>
        <time>2025-04-26T12:14:56Z</time>
      </trkpt>
      <trkpt lat="43.115131007507443" lon="0.22733498364687">
        <ele>530.29999999999995</ele>
        <time>2025-04-26T12:14:59Z</time>
      </trkpt>
      <trkpt lat="43.115243995562196" lon="0.226579019799829">
        <ele>533.19000000000005</ele>
        <time>2025-04-26T12:15:02Z</time>
      </trkpt>
      <trkpt lat="43.115238966420293" lon="0.226324964314699">
        <ele>533.66999999999996</ele>
        <time>2025-04-26T12:15:03Z</time>
      </trkpt>
      <trkpt lat="43.115234021097422" lon="0.226080967113376">
        <ele>534.63</ele>
        <time>2025-04-26T12:15:04Z</time>
      </trkpt>
      <trkpt lat="43.115229997783899" lon="0.225843004882336">
        <ele>535.59000000000003</ele>
        <time>2025-04-26T12:15:05Z</time>
      </trkpt>
      <trkpt lat="43.115224968641996" lon="0.225599007681012">
        <ele>536.54999999999995</ele>
        <time>2025-04-26T12:15:06Z</time>
      </trkpt>
      <trkpt lat="43.115239972248673" lon="0.225352998822927">
        <ele>537.99000000000001</ele>
        <time>2025-04-26T12:15:07Z</time>
      </trkpt>
      <trkpt lat="43.115400988608599" lon="0.224089007824659">
        <ele>542.32000000000005</ele>
        <time>2025-04-26T12:15:12Z</time>
      </trkpt>
      <trkpt lat="43.115473994985223" lon="0.223870994523168">
        <ele>541.84000000000003</ele>
        <time>2025-04-26T12:15:13Z</time>
      </trkpt>
      <trkpt lat="43.115560999140143" lon="0.223675025627017">
        <ele>539.91999999999996</ele>
        <time>2025-04-26T12:15:14Z</time>
      </trkpt>
      <trkpt lat="43.115873979404569" lon="0.22288897074759">
        <ele>534.63</ele>
        <time>2025-04-26T12:15:18Z</time>
      </trkpt>
      <trkpt lat="43.115887977182865" lon="0.222706999629736">
        <ele>534.14999999999998</ele>
        <time>2025-04-26T12:15:19Z</time>
      </trkpt>
      <trkpt lat="43.115887977182865" lon="0.222512958571315">
        <ele>534.14999999999998</ele>
        <time>2025-04-26T12:15:20Z</time>
      </trkpt>
      <trkpt lat="43.115846989676356" lon="0.222391001880169">
        <ele>534.14999999999998</ele>
        <time>2025-04-26T12:15:21Z</time>
      </trkpt>
      <trkpt lat="43.1157670263201" lon="0.222229985520244">
        <ele>534.14999999999998</ele>
        <time>2025-04-26T12:15:22Z</time>
      </trkpt>
      <trkpt lat="43.115686979144812" lon="0.222077015787363">
        <ele>533.66999999999996</ele>
        <time>2025-04-26T12:15:23Z</time>
      </trkpt>
      <trkpt lat="43.115565022453666" lon="0.221933014690876">
        <ele>533.66999999999996</ele>
        <time>2025-04-26T12:15:24Z</time>
      </trkpt>
      <trkpt lat="43.11510301195085" lon="0.221367990598083">
        <ele>534.63</ele>
        <time>2025-04-26T12:15:28Z</time>
      </trkpt>
      <trkpt lat="43.115032017230988" lon="0.221179984509945">
        <ele>535.11000000000001</ele>
        <time>2025-04-26T12:15:29Z</time>
      </trkpt>
      <trkpt lat="43.114958005025983" lon="0.220983009785414">
        <ele>535.11000000000001</ele>
        <time>2025-04-26T12:15:30Z</time>
      </trkpt>
      <trkpt lat="43.114879969507456" lon="0.220778994262218">
        <ele>535.59000000000003</ele>
        <time>2025-04-26T12:15:31Z</time>
      </trkpt>
      <trkpt lat="43.114773016422987" lon="0.220605991780758">
        <ele>536.07000000000005</ele>
        <time>2025-04-26T12:15:32Z</time>
      </trkpt>
      <trkpt lat="43.114660028368235" lon="0.220423014834523">
        <ele>536.07000000000005</ele>
        <time>2025-04-26T12:15:33Z</time>
      </trkpt>
      <trkpt lat="43.114536982029676" lon="0.220264010131359">
        <ele>536.07000000000005</ele>
        <time>2025-04-26T12:15:34Z</time>
      </trkpt>
      <trkpt lat="43.114391975104809" lon="0.220119003206491">
        <ele>536.07000000000005</ele>
        <time>2025-04-26T12:15:35Z</time>
      </trkpt>
      <trkpt lat="43.114248979836702" lon="0.219976007938385">
        <ele>536.54999999999995</ele>
        <time>2025-04-26T12:15:36Z</time>
      </trkpt>
      <trkpt lat="43.113415986299515" lon="0.219377037137747">
        <ele>537.02999999999997</ele>
        <time>2025-04-26T12:15:42Z</time>
      </trkpt>
      <trkpt lat="43.113311966881156" lon="0.219231024384499">
        <ele>537.50999999999999</ele>
        <time>2025-04-26T12:15:43Z</time>
      </trkpt>
      <trkpt lat="43.113209959119558" lon="0.219088029116392">
        <ele>537.99000000000001</ele>
        <time>2025-04-26T12:15:44Z</time>
      </trkpt>
      <trkpt lat="43.113165032118559" lon="0.218890970572829">
        <ele>537.99000000000001</ele>
        <time>2025-04-26T12:15:45Z</time>
      </trkpt>
      <trkpt lat="43.113120021298528" lon="0.218674968928099">
        <ele>538.48000000000002</ele>
        <time>2025-04-26T12:15:46Z</time>
      </trkpt>
      <trkpt lat="43.113133013248444" lon="0.218471037223935">
        <ele>538.96000000000004</ele>
        <time>2025-04-26T12:15:47Z</time>
      </trkpt>
      <trkpt lat="43.11314701102674" lon="0.218240031972528">
        <ele>539.44000000000005</ele>
        <time>2025-04-26T12:15:48Z</time>
      </trkpt>
      <trkpt lat="43.113176012411714" lon="0.216170959174633">
        <ele>546.16999999999996</ele>
        <time>2025-04-26T12:15:56Z</time>
      </trkpt>
      <trkpt lat="43.113036034628749" lon="0.214846031740308">
        <ele>550.49000000000001</ele>
        <time>2025-04-26T12:16:01Z</time>
      </trkpt>
      <trkpt lat="43.112449971958995" lon="0.212534973397851">
        <ele>560.11000000000001</ele>
        <time>2025-04-26T12:16:10Z</time>
      </trkpt>
      <trkpt lat="43.111886037513614" lon="0.209384970366955">
        <ele>566.35000000000002</ele>
        <time>2025-04-26T12:16:22Z</time>
      </trkpt>
      <trkpt lat="43.111134013161063" lon="0.205095028504729">
        <ele>580.28999999999996</ele>
        <time>2025-04-26T12:16:37Z</time>
      </trkpt>
      <trkpt lat="43.110813992097974" lon="0.203270958736539">
        <ele>587.98000000000002</ele>
        <time>2025-04-26T12:16:45Z</time>
      </trkpt>
      <trkpt lat="43.11074199154973" lon="0.202607028186321">
        <ele>589.90999999999997</ele>
        <time>2025-04-26T12:16:49Z</time>
      </trkpt>
      <trkpt lat="43.110758000984788" lon="0.202451040968299">
        <ele>589.90999999999997</ele>
        <time>2025-04-26T12:16:50Z</time>
      </trkpt>
      <trkpt lat="43.110773004591465" lon="0.202298993244767">
        <ele>589.90999999999997</ele>
        <time>2025-04-26T12:16:51Z</time>
      </trkpt>
      <trkpt lat="43.110811980441213" lon="0.202148035168648">
        <ele>589.42999999999995</ele>
        <time>2025-04-26T12:16:52Z</time>
      </trkpt>
      <trkpt lat="43.110864032059908" lon="0.202033035457134">
        <ele>589.42999999999995</ele>
        <time>2025-04-26T12:16:53Z</time>
      </trkpt>
      <trkpt lat="43.110950030386448" lon="0.201842011883855">
        <ele>589.42999999999995</ele>
        <time>2025-04-26T12:16:55Z</time>
      </trkpt>
      <trkpt lat="43.111081961542368" lon="0.201808987185359">
        <ele>589.42999999999995</ele>
        <time>2025-04-26T12:16:56Z</time>
      </trkpt>
      <trkpt lat="43.111111968755722" lon="0.201786020770669">
        <ele>589.42999999999995</ele>
        <time>2025-04-26T12:16:57Z</time>
      </trkpt>
      <trkpt lat="43.111177012324333" lon="0.201717037707567">
        <ele>589.90999999999997</ele>
        <time>2025-04-26T12:16:58Z</time>
      </trkpt>
      <trkpt lat="43.111206013709307" lon="0.201631039381027">
        <ele>589.90999999999997</ele>
        <time>2025-04-26T12:16:59Z</time>
      </trkpt>
      <trkpt lat="43.111193021759391" lon="0.201483014971018">
        <ele>589.42999999999995</ele>
        <time>2025-04-26T12:17:00Z</time>
      </trkpt>
      <trkpt lat="43.111152034252882" lon="0.201413026079535">
        <ele>589.90999999999997</ele>
        <time>2025-04-26T12:17:01Z</time>
      </trkpt>
      <trkpt lat="43.111053965985775" lon="0.201386036351323">
        <ele>589.90999999999997</ele>
        <time>2025-04-26T12:17:02Z</time>
      </trkpt>
      <trkpt lat="43.111017001792789" lon="0.20138000138104">
        <ele>589.90999999999997</ele>
        <time>2025-04-26T12:17:03Z</time>
      </trkpt>
      <trkpt lat="43.110864032059908" lon="0.201399028301239">
        <ele>589.42999999999995</ele>
        <time>2025-04-26T12:17:04Z</time>
      </trkpt>
      <trkpt lat="43.110779961571097" lon="0.20131403580308">
        <ele>589.42999999999995</ele>
        <time>2025-04-26T12:17:05Z</time>
      </trkpt>
      <trkpt lat="43.110684994608164" lon="0.201218985021114">
        <ele>589.42999999999995</ele>
        <time>2025-04-26T12:17:06Z</time>
      </trkpt>
      <trkpt lat="43.110584998503327" lon="0.201119994744658">
        <ele>589.42999999999995</ele>
        <time>2025-04-26T12:17:07Z</time>
      </trkpt>
      <trkpt lat="43.110481984913349" lon="0.201032990589738">
        <ele>589.42999999999995</ele>
        <time>2025-04-26T12:17:08Z</time>
      </trkpt>
      <trkpt lat="43.109568022191525" lon="0.200062030926347">
        <ele>585.58000000000004</ele>
        <time>2025-04-26T12:17:16Z</time>
      </trkpt>
      <trkpt lat="43.107634987682104" lon="0.198236033320427">
        <ele>577.40999999999997</ele>
        <time>2025-04-26T12:17:30Z</time>
      </trkpt>
      <trkpt lat="43.105420991778374" lon="0.196180958300829">
        <ele>574.03999999999996</ele>
        <time>2025-04-26T12:17:46Z</time>
      </trkpt>
      <trkpt lat="43.103144969791174" lon="0.194066036492586">
        <ele>569.72000000000003</ele>
        <time>2025-04-26T12:18:02Z</time>
      </trkpt>
      <trkpt lat="43.101197015494108" lon="0.192266022786498">
        <ele>567.79999999999995</ele>
        <time>2025-04-26T12:18:15Z</time>
      </trkpt>
      <trkpt lat="43.098659981042147" lon="0.189974997192621">
        <ele>570.67999999999995</ele>
        <time>2025-04-26T12:18:31Z</time>
      </trkpt>
      <trkpt lat="43.096417989581823" lon="0.188429960981011">
        <ele>561.07000000000005</ele>
        <time>2025-04-26T12:18:44Z</time>
      </trkpt>
      <trkpt lat="43.094740016385913" lon="0.187139986082911">
        <ele>551.92999999999995</ele>
        <time>2025-04-26T12:18:54Z</time>
      </trkpt>
      <trkpt lat="43.093852959573269" lon="0.185657981783152">
        <ele>550.00999999999999</ele>
        <time>2025-04-26T12:19:01Z</time>
      </trkpt>
      <trkpt lat="43.093074029311538" lon="0.18378596752882">
        <ele>559.13999999999999</ele>
        <time>2025-04-26T12:19:10Z</time>
      </trkpt>
      <trkpt lat="43.092104997485876" lon="0.181540958583355">
        <ele>575.49000000000001</ele>
        <time>2025-04-26T12:19:22Z</time>
      </trkpt>
      <trkpt lat="43.090699017047882" lon="0.178245026618242">
        <ele>604.33000000000004</ele>
        <time>2025-04-26T12:19:39Z</time>
      </trkpt>
      <trkpt lat="43.089354978874326" lon="0.175326028838754">
        <ele>624.99000000000001</ele>
        <time>2025-04-26T12:19:52Z</time>
      </trkpt>
      <trkpt lat="43.087594024837017" lon="0.172708025202155">
        <ele>629.32000000000005</ele>
        <time>2025-04-26T12:20:05Z</time>
      </trkpt>
      <trkpt lat="43.085454041138291" lon="0.169550981372595">
        <ele>630.27999999999997</ele>
        <time>2025-04-26T12:20:20Z</time>
      </trkpt>
      <trkpt lat="43.083748994395137" lon="0.167021993547678">
        <ele>637.97000000000003</ele>
        <time>2025-04-26T12:20:33Z</time>
      </trkpt>
      <trkpt lat="43.083135019987822" lon="0.166118005290627">
        <ele>640.86000000000001</ele>
        <time>2025-04-26T12:20:40Z</time>
      </trkpt>
      <trkpt lat="43.082416020333767" lon="0.165059035643935">
        <ele>646.13999999999999</ele>
        <time>2025-04-26T12:20:49Z</time>
      </trkpt>
      <trkpt lat="43.081820989027619" lon="0.164248002693057">
        <ele>650.95000000000005</ele>
        <time>2025-04-26T12:20:57Z</time>
      </trkpt>
      <trkpt lat="43.081748988479376" lon="0.164194023236632">
        <ele>650.47000000000003</ele>
        <time>2025-04-26T12:20:58Z</time>
      </trkpt>
      <trkpt lat="43.081646980717778" lon="0.164171978831291">
        <ele>649.99000000000001</ele>
        <time>2025-04-26T12:20:59Z</time>
      </trkpt>
      <trkpt lat="43.081556037068367" lon="0.164151024073362">
        <ele>649.02999999999997</ele>
        <time>2025-04-26T12:21:00Z</time>
      </trkpt>
      <trkpt lat="43.081456962972879" lon="0.164196034893394">
        <ele>648.07000000000005</ele>
        <time>2025-04-26T12:21:01Z</time>
      </trkpt>
      <trkpt lat="43.081346992403269" lon="0.164245991036296">
        <ele>646.62</ele>
        <time>2025-04-26T12:21:02Z</time>
      </trkpt>
      <trkpt lat="43.081230986863375" lon="0.164287984371185">
        <ele>645.65999999999997</ele>
        <time>2025-04-26T12:21:03Z</time>
      </trkpt>
      <trkpt lat="43.080997969955206" lon="0.164366019889712">
        <ele>644.22000000000003</ele>
        <time>2025-04-26T12:21:05Z</time>
      </trkpt>
      <trkpt lat="43.080851035192609" lon="0.164326038211584">
        <ele>643.74000000000001</ele>
        <time>2025-04-26T12:21:06Z</time>
      </trkpt>
      <trkpt lat="43.080731006339192" lon="0.164274992421269">
        <ele>642.77999999999997</ele>
        <time>2025-04-26T12:21:07Z</time>
      </trkpt>
      <trkpt lat="43.080611983314157" lon="0.164172984659672">
        <ele>641.82000000000005</ele>
        <time>2025-04-26T12:21:08Z</time>
      </trkpt>
      <trkpt lat="43.08051198720932" lon="0.164036024361849">
        <ele>641.34000000000003</ele>
        <time>2025-04-26T12:21:09Z</time>
      </trkpt>
      <trkpt lat="43.080406961962581" lon="0.163892023265362">
        <ele>640.86000000000001</ele>
        <time>2025-04-26T12:21:10Z</time>
      </trkpt>
      <trkpt lat="43.079730039462447" lon="0.163034973666072">
        <ele>641.82000000000005</ele>
        <time>2025-04-26T12:21:16Z</time>
      </trkpt>
      <trkpt lat="43.07958603836596" lon="0.162916034460068">
        <ele>641.34000000000003</ele>
        <time>2025-04-26T12:21:17Z</time>
      </trkpt>
      <trkpt lat="43.078987989574671" lon="0.162367019802332">
        <ele>638.45000000000005</ele>
        <time>2025-04-26T12:21:21Z</time>
      </trkpt>
      <trkpt lat="43.078853962942958" lon="0.162202985957265">
        <ele>637.49000000000001</ele>
        <time>2025-04-26T12:21:22Z</time>
      </trkpt>
      <trkpt lat="43.078596973791718" lon="0.161888999864459">
        <ele>635.57000000000005</ele>
        <time>2025-04-26T12:21:24Z</time>
      </trkpt>
      <trkpt lat="43.078461019322276" lon="0.161764025688171">
        <ele>634.13</ele>
        <time>2025-04-26T12:21:25Z</time>
      </trkpt>
      <trkpt lat="43.078317018225789" lon="0.161652965471148">
        <ele>633.16999999999996</ele>
        <time>2025-04-26T12:21:26Z</time>
      </trkpt>
      <trkpt lat="43.077357960864902" lon="0.160830030217767">
        <ele>622.59000000000003</ele>
        <time>2025-04-26T12:21:33Z</time>
      </trkpt>
      <trkpt lat="43.077258970588446" lon="0.160683011636138">
        <ele>621.14999999999998</ele>
        <time>2025-04-26T12:21:34Z</time>
      </trkpt>
      <trkpt lat="43.077169032767415" lon="0.160552002489567">
        <ele>619.71000000000004</ele>
        <time>2025-04-26T12:21:35Z</time>
      </trkpt>
      <trkpt lat="43.077093008905649" lon="0.160439014434814">
        <ele>617.77999999999997</ele>
        <time>2025-04-26T12:21:36Z</time>
      </trkpt>
      <trkpt lat="43.076964011415839" lon="0.16038604080677">
        <ele>615.86000000000001</ele>
        <time>2025-04-26T12:21:37Z</time>
      </trkpt>
      <trkpt lat="43.076822021976113" lon="0.160327032208443">
        <ele>614.41999999999996</ele>
        <time>2025-04-26T12:21:38Z</time>
      </trkpt>
      <trkpt lat="43.076508035883307" lon="0.160197028890252">
        <ele>611.05999999999995</ele>
        <time>2025-04-26T12:21:40Z</time>
      </trkpt>
      <trkpt lat="43.076230008155107" lon="0.16000097617507">
        <ele>608.64999999999998</ele>
        <time>2025-04-26T12:21:42Z</time>
      </trkpt>
      <trkpt lat="43.076137974858284" lon="0.159839959815145">
        <ele>607.21000000000004</ele>
        <time>2025-04-26T12:21:43Z</time>
      </trkpt>
      <trkpt lat="43.076058011502028" lon="0.159679027274251">
        <ele>605.76999999999998</ele>
        <time>2025-04-26T12:21:44Z</time>
      </trkpt>
      <trkpt lat="43.07602196931839" lon="0.159492027014494">
        <ele>603.85000000000002</ele>
        <time>2025-04-26T12:21:45Z</time>
      </trkpt>
      <trkpt lat="43.075997997075319" lon="0.159302009269595">
        <ele>602.39999999999998</ele>
        <time>2025-04-26T12:21:46Z</time>
      </trkpt>
      <trkpt lat="43.075997997075319" lon="0.159122971817851">
        <ele>600.96000000000004</ele>
        <time>2025-04-26T12:21:47Z</time>
      </trkpt>
      <trkpt lat="43.075960027053952" lon="0.158958015963435">
        <ele>599.03999999999996</ele>
        <time>2025-04-26T12:21:48Z</time>
      </trkpt>
      <trkpt lat="43.07591300457716" lon="0.158850979059935">
        <ele>597.60000000000002</ele>
        <time>2025-04-26T12:21:49Z</time>
      </trkpt>
      <trkpt lat="43.075809990987182" lon="0.158748971298337">
        <ele>595.66999999999996</ele>
        <time>2025-04-26T12:21:50Z</time>
      </trkpt>
      <trkpt lat="43.075706977397203" lon="0.158701026812196">
        <ele>594.23000000000002</ele>
        <time>2025-04-26T12:21:51Z</time>
      </trkpt>
      <trkpt lat="43.075590971857309" lon="0.15868803486228">
        <ele>593.26999999999998</ele>
        <time>2025-04-26T12:21:52Z</time>
      </trkpt>
      <trkpt lat="43.075471026822925" lon="0.15871200710535">
        <ele>592.30999999999995</ele>
        <time>2025-04-26T12:21:53Z</time>
      </trkpt>
      <trkpt lat="43.075372958555818" lon="0.158767998218536">
        <ele>591.35000000000002</ele>
        <time>2025-04-26T12:21:54Z</time>
      </trkpt>
      <trkpt lat="43.075280003249645" lon="0.158861959353089">
        <ele>589.90999999999997</ele>
        <time>2025-04-26T12:21:55Z</time>
      </trkpt>
      <trkpt lat="43.075180007144809" lon="0.158961033448577">
        <ele>588.95000000000005</ele>
        <time>2025-04-26T12:21:56Z</time>
      </trkpt>
      <trkpt lat="43.07507598772645" lon="0.159064969047904">
        <ele>587.98000000000002</ele>
        <time>2025-04-26T12:21:57Z</time>
      </trkpt>
      <trkpt lat="43.074939027428627" lon="0.159129006788135">
        <ele>586.53999999999996</ele>
        <time>2025-04-26T12:21:58Z</time>
      </trkpt>
      <trkpt lat="43.074797037988901" lon="0.159193966537714">
        <ele>585.58000000000004</ele>
        <time>2025-04-26T12:21:59Z</time>
      </trkpt>
      <trkpt lat="43.074668040499091" lon="0.159208970144391">
        <ele>584.62</ele>
        <time>2025-04-26T12:22:00Z</time>
      </trkpt>
      <trkpt lat="43.074530996382236" lon="0.159194972366095">
        <ele>583.65999999999997</ele>
        <time>2025-04-26T12:22:01Z</time>
      </trkpt>
      <trkpt lat="43.07413000613451" lon="0.159091036766768">
        <ele>579.80999999999995</ele>
        <time>2025-04-26T12:22:04Z</time>
      </trkpt>
      <trkpt lat="43.074002014473081" lon="0.159036973491311">
        <ele>578.85000000000002</ele>
        <time>2025-04-26T12:22:05Z</time>
      </trkpt>
      <trkpt lat="43.073880979791284" lon="0.15898902900517">
        <ele>577.40999999999997</ele>
        <time>2025-04-26T12:22:06Z</time>
      </trkpt>
      <trkpt lat="43.073759023100138" lon="0.15894896350801">
        <ele>575.97000000000003</ele>
        <time>2025-04-26T12:22:07Z</time>
      </trkpt>
      <trkpt lat="43.073640000075102" lon="0.158908981829882">
        <ele>574.52999999999997</ele>
        <time>2025-04-26T12:22:08Z</time>
      </trkpt>
      <trkpt lat="43.073522988706827" lon="0.158919040113688">
        <ele>573.08000000000004</ele>
        <time>2025-04-26T12:22:09Z</time>
      </trkpt>
      <trkpt lat="43.073407988995314" lon="0.158959021791816">
        <ele>572.12</ele>
        <time>2025-04-26T12:22:10Z</time>
      </trkpt>
      <trkpt lat="43.073295000940561" lon="0.158996991813183">
        <ele>571.15999999999997</ele>
        <time>2025-04-26T12:22:11Z</time>
      </trkpt>
      <trkpt lat="43.073182012885809" lon="0.159036973491311">
        <ele>569.72000000000003</ele>
        <time>2025-04-26T12:22:12Z</time>
      </trkpt>
      <trkpt lat="43.073069024831057" lon="0.15907502733171">
        <ele>568.75999999999999</ele>
        <time>2025-04-26T12:22:13Z</time>
      </trkpt>
      <trkpt lat="43.072972968220711" lon="0.159108974039555">
        <ele>567.32000000000005</ele>
        <time>2025-04-26T12:22:14Z</time>
      </trkpt>
      <trkpt lat="43.07283902540803" lon="0.159095982089639">
        <ele>566.35000000000002</ele>
        <time>2025-04-26T12:22:15Z</time>
      </trkpt>
      <trkpt lat="43.072737017646432" lon="0.159087013453245">
        <ele>565.38999999999999</ele>
        <time>2025-04-26T12:22:16Z</time>
      </trkpt>
      <trkpt lat="43.072636015713215" lon="0.159003026783466">
        <ele>564.42999999999995</ele>
        <time>2025-04-26T12:22:17Z</time>
      </trkpt>
      <trkpt lat="43.07254096493125" lon="0.158923985436559">
        <ele>563.47000000000003</ele>
        <time>2025-04-26T12:22:18Z</time>
      </trkpt>
      <trkpt lat="43.072447003796697" lon="0.15884100459516">
        <ele>562.50999999999999</ele>
        <time>2025-04-26T12:22:19Z</time>
      </trkpt>
      <trkpt lat="43.071405971422791" lon="0.157821010798216">
        <ele>551.45000000000005</ele>
        <time>2025-04-26T12:22:30Z</time>
      </trkpt>
      <trkpt lat="43.070740029215813" lon="0.157169988378882">
        <ele>542.79999999999995</ele>
        <time>2025-04-26T12:22:39Z</time>
      </trkpt>
      <trkpt lat="43.070208029821515" lon="0.156679982319474">
        <ele>537.50999999999999</ele>
        <time>2025-04-26T12:22:47Z</time>
      </trkpt>
      <trkpt lat="43.070162013173103" lon="0.156624997034669">
        <ele>536.54999999999995</ele>
        <time>2025-04-26T12:22:48Z</time>
      </trkpt>
      <trkpt lat="43.070162013173103" lon="0.15656397677958">
        <ele>536.54999999999995</ele>
        <time>2025-04-26T12:22:49Z</time>
      </trkpt>
      <trkpt lat="43.070211969316006" lon="0.156515026465058">
        <ele>536.07000000000005</ele>
        <time>2025-04-26T12:22:50Z</time>
      </trkpt>
      <trkpt lat="43.07026200927794" lon="0.156495999544859">
        <ele>535.59000000000003</ele>
        <time>2025-04-26T12:22:51Z</time>
      </trkpt>
      <trkpt lat="43.070322023704648" lon="0.15647403895855">
        <ele>534.63</ele>
        <time>2025-04-26T12:22:52Z</time>
      </trkpt>
      <trkpt lat="43.070395030081272" lon="0.156445959582925">
        <ele>534.63</ele>
        <time>2025-04-26T12:22:53Z</time>
      </trkpt>
      <trkpt lat="43.070480022579432" lon="0.156414024531841">
        <ele>534.14999999999998</ele>
        <time>2025-04-26T12:22:54Z</time>
      </trkpt>
      <trkpt lat="43.070657970383763" lon="0.15634797513485">
        <ele>533.19000000000005</ele>
        <time>2025-04-26T12:22:56Z</time>
      </trkpt>
      <trkpt lat="43.070753021165729" lon="0.156312016770244">
        <ele>533.19000000000005</ele>
        <time>2025-04-26T12:22:57Z</time>
      </trkpt>
      <trkpt lat="43.071967978030443" lon="0.155707010999322">
        <ele>532.23000000000002</ele>
        <time>2025-04-26T12:23:09Z</time>
      </trkpt>
      <trkpt lat="43.07314395904541" lon="0.155138969421387">
        <ele>531.26999999999998</ele>
        <time>2025-04-26T12:23:20Z</time>
      </trkpt>
      <trkpt lat="43.074549017474055" lon="0.15473697334528">
        <ele>531.75</ele>
        <time>2025-04-26T12:23:32Z</time>
      </trkpt>
      <trkpt lat="43.075357032939792" lon="0.15454201027751">
        <ele>533.19000000000005</ele>
        <time>2025-04-26T12:23:40Z</time>
      </trkpt>
      <trkpt lat="43.075430961325765" lon="0.154523989185691">
        <ele>533.19000000000005</ele>
        <time>2025-04-26T12:23:41Z</time>
      </trkpt>
      <trkpt lat="43.07552601210773" lon="0.154645023867488">
        <ele>533.66999999999996</ele>
        <time>2025-04-26T12:23:42Z</time>
      </trkpt>
      <trkpt lat="43.075601030141115" lon="0.154634965583682">
        <ele>534.14999999999998</ele>
        <time>2025-04-26T12:23:43Z</time>
      </trkpt>
      <trkpt lat="43.075642017647624" lon="0.154593978077173">
        <ele>534.14999999999998</ele>
        <time>2025-04-26T12:23:44Z</time>
      </trkpt>
      <trkpt lat="43.07565500959754" lon="0.154466992244124">
        <ele>534.63</ele>
        <time>2025-04-26T12:23:45Z</time>
      </trkpt>
      <trkpt lat="43.07565500959754" lon="0.154431033879519">
        <ele>534.63</ele>
        <time>2025-04-26T12:23:46Z</time>
      </trkpt>
      <trkpt lat="43.075569011271" lon="0.154299018904567">
        <ele>535.11000000000001</ele>
        <time>2025-04-26T12:23:47Z</time>
      </trkpt>
      <trkpt lat="43.075594995170832" lon="0.154193993657827">
        <ele>535.11000000000001</ele>
        <time>2025-04-26T12:23:48Z</time>
      </trkpt>
      <trkpt lat="43.07561201043427" lon="0.154109001159668">
        <ele>535.11000000000001</ele>
        <time>2025-04-26T12:23:49Z</time>
      </trkpt>
      <trkpt lat="43.075649980455637" lon="0.153977992013097">
        <ele>535.59000000000003</ele>
        <time>2025-04-26T12:23:50Z</time>
      </trkpt>
      <trkpt lat="43.075672024860978" lon="0.153727037832141">
        <ele>535.59000000000003</ele>
        <time>2025-04-26T12:23:52Z</time>
      </trkpt>
      <trkpt lat="43.075663978233933" lon="0.15359703451395">
        <ele>535.59000000000003</ele>
        <time>2025-04-26T12:23:53Z</time>
      </trkpt>
      <trkpt lat="43.075636988505721" lon="0.153460996225476">
        <ele>535.11000000000001</ele>
        <time>2025-04-26T12:23:54Z</time>
      </trkpt>
      <trkpt lat="43.07561201043427" lon="0.153337027877569">
        <ele>535.11000000000001</ele>
        <time>2025-04-26T12:23:55Z</time>
      </trkpt>
      <trkpt lat="43.075555013492703" lon="0.15318900346756">
        <ele>534.63</ele>
        <time>2025-04-26T12:23:56Z</time>
      </trkpt>
      <trkpt lat="43.075502039864659" lon="0.153052965179086">
        <ele>534.14999999999998</ele>
        <time>2025-04-26T12:23:57Z</time>
      </trkpt>
      <trkpt lat="43.075448982417583" lon="0.152913993224502">
        <ele>534.14999999999998</ele>
        <time>2025-04-26T12:23:58Z</time>
      </trkpt>
      <trkpt lat="43.075393997132778" lon="0.152774015441537">
        <ele>533.66999999999996</ele>
        <time>2025-04-26T12:23:59Z</time>
      </trkpt>
      <trkpt lat="43.075337000191212" lon="0.152634037658572">
        <ele>533.19000000000005</ele>
        <time>2025-04-26T12:24:00Z</time>
      </trkpt>
      <trkpt lat="43.074872978031635" lon="0.151519998908043">
        <ele>531.75</ele>
        <time>2025-04-26T12:24:08Z</time>
      </trkpt>
      <trkpt lat="43.074768036603928" lon="0.151070980355144">
        <ele>531.26999999999998</ele>
        <time>2025-04-26T12:24:11Z</time>
      </trkpt>
      <trkpt lat="43.074463019147515" lon="0.149045996367931">
        <ele>531.26999999999998</ele>
        <time>2025-04-26T12:24:24Z</time>
      </trkpt>
      <trkpt lat="43.074219021946192" lon="0.147875966504216">
        <ele>530.29999999999995</ele>
        <time>2025-04-26T12:24:32Z</time>
      </trkpt>
      <trkpt lat="43.074222039431334" lon="0.147734982892871">
        <ele>529.82000000000005</ele>
        <time>2025-04-26T12:24:33Z</time>
      </trkpt>
      <trkpt lat="43.074236959218979" lon="0.147000979632139">
        <ele>529.34000000000003</ele>
        <time>2025-04-26T12:24:38Z</time>
      </trkpt>
      <trkpt lat="43.074219021946192" lon="0.146868964657187">
        <ele>528.86000000000001</ele>
        <time>2025-04-26T12:24:39Z</time>
      </trkpt>
      <trkpt lat="43.074174011126161" lon="0.146747007966042">
        <ele>528.86000000000001</ele>
        <time>2025-04-26T12:24:40Z</time>
      </trkpt>
      <trkpt lat="43.074125982820988" lon="0.146619016304612">
        <ele>528.86000000000001</ele>
        <time>2025-04-26T12:24:41Z</time>
      </trkpt>
      <trkpt lat="43.074076026678085" lon="0.14648599550128">
        <ele>528.86000000000001</ele>
        <time>2025-04-26T12:24:42Z</time>
      </trkpt>
      <trkpt lat="43.074018023908138" lon="0.146352974697948">
        <ele>529.34000000000003</ele>
        <time>2025-04-26T12:24:43Z</time>
      </trkpt>
      <trkpt lat="43.073491975665092" lon="0.145319988951087">
        <ele>530.78999999999996</ele>
        <time>2025-04-26T12:24:51Z</time>
      </trkpt>
      <trkpt lat="43.073422992601991" lon="0.145183028653264">
        <ele>531.26999999999998</ele>
        <time>2025-04-26T12:24:52Z</time>
      </trkpt>
      <trkpt lat="43.073404971510172" lon="0.145045984536409">
        <ele>531.26999999999998</ele>
        <time>2025-04-26T12:24:53Z</time>
      </trkpt>
      <trkpt lat="43.073272034525871" lon="0.144060021266341">
        <ele>531.75</ele>
        <time>2025-04-26T12:25:01Z</time>
      </trkpt>
      <trkpt lat="43.073273040354252" lon="0.144066978245974">
        <ele>532.23000000000002</ele>
        <time>2025-04-26T12:25:02Z</time>
      </trkpt>
      <trkpt lat="43.073311010375619" lon="0.143900010734797">
        <ele>532.23000000000002</ele>
        <time>2025-04-26T12:25:03Z</time>
      </trkpt>
      <trkpt lat="43.073364989832044" lon="0.143863968551159">
        <ele>532.23000000000002</ele>
        <time>2025-04-26T12:25:04Z</time>
      </trkpt>
      <trkpt lat="43.073428021743894" lon="0.143823986873031">
        <ele>532.23000000000002</ele>
        <time>2025-04-26T12:25:05Z</time>
      </trkpt>
      <trkpt lat="43.073508990928531" lon="0.143771013244987">
        <ele>532.23000000000002</ele>
        <time>2025-04-26T12:25:06Z</time>
      </trkpt>
      <trkpt lat="43.073604963719845" lon="0.143708987161517">
        <ele>531.75</ele>
        <time>2025-04-26T12:25:07Z</time>
      </trkpt>
      <trkpt lat="43.074653036892414" lon="0.143058970570564">
        <ele>528.86000000000001</ele>
        <time>2025-04-26T12:25:17Z</time>
      </trkpt>
      <trkpt lat="43.075415035709739" lon="0.142611963674426">
        <ele>525.98000000000002</ele>
        <time>2025-04-26T12:25:24Z</time>
      </trkpt>
      <trkpt lat="43.075520982965827" lon="0.142542980611324">
        <ele>525.5</ele>
        <time>2025-04-26T12:25:25Z</time>
      </trkpt>
      <trkpt lat="43.0767070222646" lon="0.141834961250424">
        <ele>523.09000000000003</ele>
        <time>2025-04-26T12:25:36Z</time>
      </trkpt>
      <trkpt lat="43.076809030026197" lon="0.141766984015703">
        <ele>523.09000000000003</ele>
        <time>2025-04-26T12:25:37Z</time>
      </trkpt>
      <trkpt lat="43.076912965625525" lon="0.141696995124221">
        <ele>523.58000000000004</ele>
        <time>2025-04-26T12:25:38Z</time>
      </trkpt>
      <trkpt lat="43.078090958297253" lon="0.141015965491533">
        <ele>521.16999999999996</ele>
        <time>2025-04-26T12:25:49Z</time>
      </trkpt>
      <trkpt lat="43.078179974108934" lon="0.140970032662153">
        <ele>521.16999999999996</ele>
        <time>2025-04-26T12:25:50Z</time>
      </trkpt>
      <trkpt lat="43.078348031267524" lon="0.141019988805056">
        <ele>521.16999999999996</ele>
        <time>2025-04-26T12:25:52Z</time>
      </trkpt>
      <trkpt lat="43.078461019322276" lon="0.140959974378347">
        <ele>521.16999999999996</ele>
        <time>2025-04-26T12:25:53Z</time>
      </trkpt>
      <trkpt lat="43.078582976013422" lon="0.140733998268843">
        <ele>520.69000000000005</ele>
        <time>2025-04-26T12:25:55Z</time>
      </trkpt>
      <trkpt lat="43.078682972118258" lon="0.140658980235457">
        <ele>520.69000000000005</ele>
        <time>2025-04-26T12:25:56Z</time>
      </trkpt>
      <trkpt lat="43.080034973099828" lon="0.139831015840173">
        <ele>518.76999999999998</ele>
        <time>2025-04-26T12:26:07Z</time>
      </trkpt>
      <trkpt lat="43.081443971022964" lon="0.138977989554405">
        <ele>517.33000000000004</ele>
        <time>2025-04-26T12:26:18Z</time>
      </trkpt>
      <trkpt lat="43.08218702673912" lon="0.138523019850254">
        <ele>517.80999999999995</ele>
        <time>2025-04-26T12:26:25Z</time>
      </trkpt>
      <trkpt lat="43.083271980285645" lon="0.137890018522739">
        <ele>515.39999999999998</ele>
        <time>2025-04-26T12:26:35Z</time>
      </trkpt>
      <trkpt lat="43.084444021806121" lon="0.137179987505078">
        <ele>512.51999999999998</ele>
        <time>2025-04-26T12:26:46Z</time>
      </trkpt>
      <trkpt lat="43.085511960089207" lon="0.13651798479259">
        <ele>510.60000000000002</ele>
        <time>2025-04-26T12:26:56Z</time>
      </trkpt>
      <trkpt lat="43.086691964417696" lon="0.135799990966916">
        <ele>510.60000000000002</ele>
        <time>2025-04-26T12:27:07Z</time>
      </trkpt>
      <trkpt lat="43.087654039263725" lon="0.135223986580968">
        <ele>511.56</ele>
        <time>2025-04-26T12:27:16Z</time>
      </trkpt>
      <trkpt lat="43.087755963206291" lon="0.135148968547583">
        <ele>511.56</ele>
        <time>2025-04-26T12:27:17Z</time>
      </trkpt>
      <trkpt lat="43.087857970967889" lon="0.13507504016161">
        <ele>511.56</ele>
        <time>2025-04-26T12:27:18Z</time>
      </trkpt>
      <trkpt lat="43.089438965544105" lon="0.134019004181027">
        <ele>510.60000000000002</ele>
        <time>2025-04-26T12:27:33Z</time>
      </trkpt>
      <trkpt lat="43.090881993994117" lon="0.13310101814568">
        <ele>507.23000000000002</ele>
        <time>2025-04-26T12:27:46Z</time>
      </trkpt>
      <trkpt lat="43.091895030811429" lon="0.132380006834865">
        <ele>504.82999999999998</ele>
        <time>2025-04-26T12:27:55Z</time>
      </trkpt>
      <trkpt lat="43.093174025416374" lon="0.131139988079667">
        <ele>501.94999999999999</ele>
        <time>2025-04-26T12:28:05Z</time>
      </trkpt>
      <trkpt lat="43.094759965315461" lon="0.129520017653704">
        <ele>499.54000000000002</ele>
        <time>2025-04-26T12:28:16Z</time>
      </trkpt>
      <trkpt lat="43.097040010616183" lon="0.127208959311247">
        <ele>494.25999999999999</ele>
        <time>2025-04-26T12:28:31Z</time>
      </trkpt>
      <trkpt lat="43.098211968317628" lon="0.125994002446532">
        <ele>490.88999999999999</ele>
        <time>2025-04-26T12:28:39Z</time>
      </trkpt>
      <trkpt lat="43.09928703121841" lon="0.124919023364782">
        <ele>488.97000000000003</ele>
        <time>2025-04-26T12:28:48Z</time>
      </trkpt>
      <trkpt lat="43.100032014772296" lon="0.124174961820245">
        <ele>486.07999999999998</ele>
        <time>2025-04-26T12:28:57Z</time>
      </trkpt>
      <trkpt lat="43.100392017513514" lon="0.123759973794222">
        <ele>485.12</ele>
        <time>2025-04-26T12:29:01Z</time>
      </trkpt>
      <trkpt lat="43.100629979744554" lon="0.123417992144823">
        <ele>484.16000000000003</ele>
        <time>2025-04-26T12:29:04Z</time>
      </trkpt>
      <trkpt lat="43.100694017484784" lon="0.12328002601862">
        <ele>484.16000000000003</ele>
        <time>2025-04-26T12:29:05Z</time>
      </trkpt>
      <trkpt lat="43.101230962201953" lon="0.121997008100152">
        <ele>480.80000000000001</ele>
        <time>2025-04-26T12:29:15Z</time>
      </trkpt>
      <trkpt lat="43.101364988833666" lon="0.121716968715191">
        <ele>479.35000000000002</ele>
        <time>2025-04-26T12:29:19Z</time>
      </trkpt>
      <trkpt lat="43.101388961076736" lon="0.121668018400669">
        <ele>478.87</ele>
        <time>2025-04-26T12:29:20Z</time>
      </trkpt>
      <trkpt lat="43.101407987996936" lon="0.12162703089416">
        <ele>478.87</ele>
        <time>2025-04-26T12:29:21Z</time>
      </trkpt>
      <trkpt lat="43.101421985775232" lon="0.121598029509187">
        <ele>478.38999999999999</ele>
        <time>2025-04-26T12:29:22Z</time>
      </trkpt>
      <trkpt lat="43.101429026573896" lon="0.121585037559271">
        <ele>478.38999999999999</ele>
        <time>2025-04-26T12:29:30Z</time>
      </trkpt>
      <trkpt lat="43.101445036008954" lon="0.121552012860775">
        <ele>477.91000000000003</ele>
        <time>2025-04-26T12:29:31Z</time>
      </trkpt>
      <trkpt lat="43.101473031565547" lon="0.121494010090828">
        <ele>477.91000000000003</ele>
        <time>2025-04-26T12:29:32Z</time>
      </trkpt>
      <trkpt lat="43.101508989930153" lon="0.121418992057443">
        <ele>477.43000000000001</ele>
        <time>2025-04-26T12:29:33Z</time>
      </trkpt>
      <trkpt lat="43.101548971608281" lon="0.121337017044425">
        <ele>476.94999999999999</ele>
        <time>2025-04-26T12:29:34Z</time>
      </trkpt>
      <trkpt lat="43.10214601457119" lon="0.120329009369016">
        <ele>475.50999999999999</ele>
        <time>2025-04-26T12:29:44Z</time>
      </trkpt>
      <trkpt lat="43.102957969531417" lon="0.118978014215827">
        <ele>473.11000000000001</ele>
        <time>2025-04-26T12:29:55Z</time>
      </trkpt>
      <trkpt lat="43.103042040020227" lon="0.118867959827185">
        <ele>472.63</ele>
        <time>2025-04-26T12:29:56Z</time>
      </trkpt>
      <trkpt lat="43.103131977841258" lon="0.118779027834535">
        <ele>472.63</ele>
        <time>2025-04-26T12:29:57Z</time>
      </trkpt>
      <trkpt lat="43.103324007242918" lon="0.118652964010835">
        <ele>472.63</ele>
        <time>2025-04-26T12:29:59Z</time>
      </trkpt>
      <trkpt lat="43.10343598946929" lon="0.118594961240888">
        <ele>472.63</ele>
        <time>2025-04-26T12:30:00Z</time>
      </trkpt>
      <trkpt lat="43.104543993249536" lon="0.118043012917042">
        <ele>472.63</ele>
        <time>2025-04-26T12:30:10Z</time>
      </trkpt>
      <trkpt lat="43.105621989816427" lon="0.117413029074669">
        <ele>472.63</ele>
        <time>2025-04-26T12:30:20Z</time>
      </trkpt>
      <trkpt lat="43.106797970831394" lon="0.116653963923454">
        <ele>472.63</ele>
        <time>2025-04-26T12:30:30Z</time>
      </trkpt>
      <trkpt lat="43.108250973746181" lon="0.115732960402966">
        <ele>473.11000000000001</ele>
        <time>2025-04-26T12:30:39Z</time>
      </trkpt>
      <trkpt lat="43.110129022970796" lon="0.114512974396348">
        <ele>470.22000000000003</ele>
        <time>2025-04-26T12:30:51Z</time>
      </trkpt>
      <trkpt lat="43.112492971122265" lon="0.11299098841846">
        <ele>465.42000000000002</ele>
        <time>2025-04-26T12:31:03Z</time>
      </trkpt>
      <trkpt lat="43.114746026694775" lon="0.111538991332054">
        <ele>463.97000000000003</ele>
        <time>2025-04-26T12:31:15Z</time>
      </trkpt>
      <trkpt lat="43.1158999633044" lon="0.110782021656632">
        <ele>463.00999999999999</ele>
        <time>2025-04-26T12:31:23Z</time>
      </trkpt>
      <trkpt lat="43.11602896079421" lon="0.110695017501712">
        <ele>463.49000000000001</ele>
        <time>2025-04-26T12:31:24Z</time>
      </trkpt>
      <trkpt lat="43.116257032379508" lon="0.110540958121419">
        <ele>463.00999999999999</ele>
        <time>2025-04-26T12:31:26Z</time>
      </trkpt>
      <trkpt lat="43.116360967978835" lon="0.110474992543459">
        <ele>463.00999999999999</ele>
        <time>2025-04-26T12:31:27Z</time>
      </trkpt>
      <trkpt lat="43.116681994870305" lon="0.110313976183534">
        <ele>463.00999999999999</ele>
        <time>2025-04-26T12:31:31Z</time>
      </trkpt>
      <trkpt lat="43.116733962669969" lon="0.11019503697753">
        <ele>462.52999999999997</ele>
        <time>2025-04-26T12:31:32Z</time>
      </trkpt>
      <trkpt lat="43.116720970720053" lon="0.110105015337467">
        <ele>462.05000000000001</ele>
        <time>2025-04-26T12:31:33Z</time>
      </trkpt>
      <trkpt lat="43.116705967113376" lon="0.109989009797573">
        <ele>462.05000000000001</ele>
        <time>2025-04-26T12:31:34Z</time>
      </trkpt>
      <trkpt lat="43.11673698015511" lon="0.109827993437648">
        <ele>461.56999999999999</ele>
        <time>2025-04-26T12:31:35Z</time>
      </trkpt>
      <trkpt lat="43.116773022338748" lon="0.109676029533148">
        <ele>461.56999999999999</ele>
        <time>2025-04-26T12:31:36Z</time>
      </trkpt>
      <trkpt lat="43.116813004016876" lon="0.109503027051687">
        <ele>461.56999999999999</ele>
        <time>2025-04-26T12:31:37Z</time>
      </trkpt>
      <trkpt lat="43.116857009008527" lon="0.10931602679193">
        <ele>461.56999999999999</ele>
        <time>2025-04-26T12:31:38Z</time>
      </trkpt>
      <trkpt lat="43.117410968989134" lon="0.107475025579333">
        <ele>459.64999999999998</ele>
        <time>2025-04-26T12:31:47Z</time>
      </trkpt>
      <trkpt lat="43.11746503226459" lon="0.107293976470828">
        <ele>459.17000000000002</ele>
        <time>2025-04-26T12:31:48Z</time>
      </trkpt>
      <trkpt lat="43.117681033909321" lon="0.106389988213778">
        <ele>458.69</ele>
        <time>2025-04-26T12:31:54Z</time>
      </trkpt>
      <trkpt lat="43.117688996717334" lon="0.106247998774052">
        <ele>458.69</ele>
        <time>2025-04-26T12:31:55Z</time>
      </trkpt>
      <trkpt lat="43.117649015039206" lon="0.10452501475811">
        <ele>463.49000000000001</ele>
        <time>2025-04-26T12:32:06Z</time>
      </trkpt>
      <trkpt lat="43.117418009787798" lon="0.102942008525133">
        <ele>466.86000000000001</ele>
        <time>2025-04-26T12:32:16Z</time>
      </trkpt>
      <trkpt lat="43.11735900118947" lon="0.102822985500097">
        <ele>466.86000000000001</ele>
        <time>2025-04-26T12:32:17Z</time>
      </trkpt>
      <trkpt lat="43.117282977327704" lon="0.102697005495429">
        <ele>466.86000000000001</ele>
        <time>2025-04-26T12:32:18Z</time>
      </trkpt>
      <trkpt lat="43.117196979001164" lon="0.10259198024869">
        <ele>467.33999999999997</ele>
        <time>2025-04-26T12:32:19Z</time>
      </trkpt>
      <trkpt lat="43.11710100620985" lon="0.102476980537176">
        <ele>467.33999999999997</ele>
        <time>2025-04-26T12:32:20Z</time>
      </trkpt>
      <trkpt lat="43.116278992965817" lon="0.101465033367276">
        <ele>472.13999999999999</ele>
        <time>2025-04-26T12:32:28Z</time>
      </trkpt>
      <trkpt lat="43.116201041266322" lon="0.101292030885816">
        <ele>472.63</ele>
        <time>2025-04-26T12:32:29Z</time>
      </trkpt>
      <trkpt lat="43.116166004911065" lon="0.101092038676143">
        <ele>473.11000000000001</ele>
        <time>2025-04-26T12:32:30Z</time>
      </trkpt>
      <trkpt lat="43.116145972162485" lon="0.100887017324567">
        <ele>473.58999999999997</ele>
        <time>2025-04-26T12:32:31Z</time>
      </trkpt>
      <trkpt lat="43.116145972162485" lon="0.100887017324567">
        <ele>474.55000000000001</ele>
        <time>2025-04-26T12:32:32Z</time>
      </trkpt>
      <trkpt lat="43.116145972162485" lon="0.100458031520247">
        <ele>475.02999999999997</ele>
        <time>2025-04-26T12:32:33Z</time>
      </trkpt>
      <trkpt lat="43.116115964949131" lon="0.097939018160105">
        <ele>480.80000000000001</ele>
        <time>2025-04-26T12:32:43Z</time>
      </trkpt>
      <trkpt lat="43.116344036534429" lon="0.095161003991961">
        <ele>486.56</ele>
        <time>2025-04-26T12:32:54Z</time>
      </trkpt>
      <trkpt lat="43.116616029292345" lon="0.094227008521557">
        <ele>491.37</ele>
        <time>2025-04-26T12:32:58Z</time>
      </trkpt>
      <trkpt lat="43.116811998188496" lon="0.093787964433432">
        <ele>494.25999999999999</ele>
        <time>2025-04-26T12:33:00Z</time>
      </trkpt>
      <trkpt lat="43.116924986243248" lon="0.093580009415746">
        <ele>495.69999999999999</ele>
        <time>2025-04-26T12:33:01Z</time>
      </trkpt>
      <trkpt lat="43.117069993168116" lon="0.09339896030724">
        <ele>497.62</ele>
        <time>2025-04-26T12:33:02Z</time>
      </trkpt>
      <trkpt lat="43.117231009528041" lon="0.093229981139302">
        <ele>499.06</ele>
        <time>2025-04-26T12:33:03Z</time>
      </trkpt>
      <trkpt lat="43.117393031716347" lon="0.093059996142983">
        <ele>500.5</ele>
        <time>2025-04-26T12:33:04Z</time>
      </trkpt>
      <trkpt lat="43.11772302724421" lon="0.092776017263532">
        <ele>504.35000000000002</ele>
        <time>2025-04-26T12:33:06Z</time>
      </trkpt>
      <trkpt lat="43.11789401806891" lon="0.092655988410115">
        <ele>506.75</ele>
        <time>2025-04-26T12:33:07Z</time>
      </trkpt>
      <trkpt lat="43.11854001134634" lon="0.092117032036185">
        <ele>514.44000000000005</ele>
        <time>2025-04-26T12:33:11Z</time>
      </trkpt>
      <trkpt lat="43.119020964950323" lon="0.091538010165095">
        <ele>521.64999999999998</ele>
        <time>2025-04-26T12:33:15Z</time>
      </trkpt>
      <trkpt lat="43.119057007133961" lon="0.091358972713351">
        <ele>523.09000000000003</ele>
        <time>2025-04-26T12:33:16Z</time>
      </trkpt>
      <trkpt lat="43.119085002690554" lon="0.091216983273625">
        <ele>524.53999999999996</ele>
        <time>2025-04-26T12:33:17Z</time>
      </trkpt>
      <trkpt lat="43.119060024619102" lon="0.091067031025887">
        <ele>525.98000000000002</ele>
        <time>2025-04-26T12:33:18Z</time>
      </trkpt>
      <trkpt lat="43.119026999920607" lon="0.090940967202187">
        <ele>527.41999999999996</ele>
        <time>2025-04-26T12:33:19Z</time>
      </trkpt>
      <trkpt lat="43.118935972452164" lon="0.090837031602859">
        <ele>528.38</ele>
        <time>2025-04-26T12:33:20Z</time>
      </trkpt>
      <trkpt lat="43.118834970518947" lon="0.090786991640925">
        <ele>529.82000000000005</ele>
        <time>2025-04-26T12:33:21Z</time>
      </trkpt>
      <trkpt lat="43.118720976635814" lon="0.090786991640925">
        <ele>530.78999999999996</ele>
        <time>2025-04-26T12:33:22Z</time>
      </trkpt>
      <trkpt lat="43.118602959439158" lon="0.090851029381156">
        <ele>531.75</ele>
        <time>2025-04-26T12:33:23Z</time>
      </trkpt>
      <trkpt lat="43.118478991091251" lon="0.090919006615877">
        <ele>532.71000000000004</ele>
        <time>2025-04-26T12:33:24Z</time>
      </trkpt>
      <trkpt lat="43.118359968066216" lon="0.090983966365457">
        <ele>533.66999999999996</ele>
        <time>2025-04-26T12:33:25Z</time>
      </trkpt>
      <trkpt lat="43.118170034140348" lon="0.09101296775043">
        <ele>534.63</ele>
        <time>2025-04-26T12:33:27Z</time>
      </trkpt>
      <trkpt lat="43.118121000006795" lon="0.090965023264289">
        <ele>534.63</ele>
        <time>2025-04-26T12:33:28Z</time>
      </trkpt>
      <trkpt lat="43.118069032207131" lon="0.090871984139085">
        <ele>535.11000000000001</ele>
        <time>2025-04-26T12:33:29Z</time>
      </trkpt>
      <trkpt lat="43.118041958659887" lon="0.09075103327632">
        <ele>535.59000000000003</ele>
        <time>2025-04-26T12:33:30Z</time>
      </trkpt>
      <trkpt lat="43.118064003065228" lon="0.090584987774491">
        <ele>535.59000000000003</ele>
        <time>2025-04-26T12:33:31Z</time>
      </trkpt>
      <trkpt lat="43.118094010278583" lon="0.090403016656637">
        <ele>536.07000000000005</ele>
        <time>2025-04-26T12:33:32Z</time>
      </trkpt>
      <trkpt lat="43.118483014404774" lon="0.088529996573925">
        <ele>539.44000000000005</ele>
        <time>2025-04-26T12:33:40Z</time>
      </trkpt>
      <trkpt lat="43.118694992735982" lon="0.087383016943932">
        <ele>543.27999999999997</ele>
        <time>2025-04-26T12:33:45Z</time>
      </trkpt>
      <trkpt lat="43.118713013827801" lon="0.087171038612723">
        <ele>543.75999999999999</ele>
        <time>2025-04-26T12:33:46Z</time>
      </trkpt>
      <trkpt lat="43.118709996342659" lon="0.086968028917909">
        <ele>544.72000000000003</ele>
        <time>2025-04-26T12:33:47Z</time>
      </trkpt>
      <trkpt lat="43.11869197525084" lon="0.08677801117301">
        <ele>545.69000000000005</ele>
        <time>2025-04-26T12:33:48Z</time>
      </trkpt>
      <trkpt lat="43.118670014664531" lon="0.086602997034788">
        <ele>546.64999999999998</ele>
        <time>2025-04-26T12:33:49Z</time>
      </trkpt>
      <trkpt lat="43.118615029379725" lon="0.086462013423443">
        <ele>547.61000000000001</ele>
        <time>2025-04-26T12:33:50Z</time>
      </trkpt>
      <trkpt lat="43.118535988032818" lon="0.086333015933633">
        <ele>548.09000000000003</ele>
        <time>2025-04-26T12:33:51Z</time>
      </trkpt>
      <trkpt lat="43.118419982492924" lon="0.086289010941982">
        <ele>549.04999999999995</ele>
        <time>2025-04-26T12:33:52Z</time>
      </trkpt>
      <trkpt lat="43.118298025801778" lon="0.08624198846519">
        <ele>550.00999999999999</ele>
        <time>2025-04-26T12:33:53Z</time>
      </trkpt>
      <trkpt lat="43.118185037747025" lon="0.08619898930192">
        <ele>550.97000000000003</ele>
        <time>2025-04-26T12:33:54Z</time>
      </trkpt>
      <trkpt lat="43.118087975308299" lon="0.086134029552341">
        <ele>551.45000000000005</ele>
        <time>2025-04-26T12:33:55Z</time>
      </trkpt>
      <trkpt lat="43.118010023608804" lon="0.086032021790743">
        <ele>551.92999999999995</ele>
        <time>2025-04-26T12:33:56Z</time>
      </trkpt>
      <trkpt lat="43.117955960333347" lon="0.085902018472552">
        <ele>551.92999999999995</ele>
        <time>2025-04-26T12:33:57Z</time>
      </trkpt>
      <trkpt lat="43.117926036939025" lon="0.085735972970724">
        <ele>552.40999999999997</ele>
        <time>2025-04-26T12:33:58Z</time>
      </trkpt>
      <trkpt lat="43.117910027503967" lon="0.085550984367728">
        <ele>552.89999999999998</ele>
        <time>2025-04-26T12:33:59Z</time>
      </trkpt>
      <trkpt lat="43.117926036939025" lon="0.085351997986436">
        <ele>553.38</ele>
        <time>2025-04-26T12:34:00Z</time>
      </trkpt>
      <trkpt lat="43.117942968383431" lon="0.085143037140369">
        <ele>553.38</ele>
        <time>2025-04-26T12:34:01Z</time>
      </trkpt>
      <trkpt lat="43.117983033880591" lon="0.084930974990129">
        <ele>553.38</ele>
        <time>2025-04-26T12:34:02Z</time>
      </trkpt>
      <trkpt lat="43.118035001680255" lon="0.084708016365767">
        <ele>552.89999999999998</ele>
        <time>2025-04-26T12:34:03Z</time>
      </trkpt>
      <trkpt lat="43.118592984974384" lon="0.082153966650367">
        <ele>544.24000000000001</ele>
        <time>2025-04-26T12:34:13Z</time>
      </trkpt>
      <trkpt lat="43.118599019944668" lon="0.080142980441451">
        <ele>532.71000000000004</ele>
        <time>2025-04-26T12:34:20Z</time>
      </trkpt>
      <trkpt lat="43.118290985003114" lon="0.078234001994133">
        <ele>521.64999999999998</ele>
        <time>2025-04-26T12:34:27Z</time>
      </trkpt>
      <trkpt lat="43.118301965296268" lon="0.07801397703588">
        <ele>520.69000000000005</ele>
        <time>2025-04-26T12:34:28Z</time>
      </trkpt>
      <trkpt lat="43.118335995823145" lon="0.077803004533052">
        <ele>519.25</ele>
        <time>2025-04-26T12:34:29Z</time>
      </trkpt>
      <trkpt lat="43.118404978886247" lon="0.077598989009857">
        <ele>518.28999999999996</ele>
        <time>2025-04-26T12:34:30Z</time>
      </trkpt>
      <trkpt lat="43.118481002748013" lon="0.077377958223224">
        <ele>516.85000000000002</ele>
        <time>2025-04-26T12:34:31Z</time>
      </trkpt>
      <trkpt lat="43.118617041036487" lon="0.076942015439272">
        <ele>513.96000000000004</ele>
        <time>2025-04-26T12:34:33Z</time>
      </trkpt>
      <trkpt lat="43.118617041036487" lon="0.076942015439272">
        <ele>513.48000000000002</ele>
        <time>2025-04-26T12:34:34Z</time>
      </trkpt>
      <trkpt lat="43.11864897608757" lon="0.076474975794554">
        <ele>513</ele>
        <time>2025-04-26T12:34:35Z</time>
      </trkpt>
      <trkpt lat="43.118639001622796" lon="0.076219998300076">
        <ele>513</ele>
        <time>2025-04-26T12:34:36Z</time>
      </trkpt>
      <trkpt lat="43.118608994409442" lon="0.075962003320456">
        <ele>513</ele>
        <time>2025-04-26T12:34:37Z</time>
      </trkpt>
      <trkpt lat="43.118294002488256" lon="0.073418011888862">
        <ele>521.16999999999996</ele>
        <time>2025-04-26T12:34:47Z</time>
      </trkpt>
      <trkpt lat="43.118133991956711" lon="0.072161983698606">
        <ele>527.41999999999996</ele>
        <time>2025-04-26T12:34:55Z</time>
      </trkpt>
      <trkpt lat="43.11798102222383" lon="0.070824986323714">
        <ele>532.71000000000004</ele>
        <time>2025-04-26T12:35:05Z</time>
      </trkpt>
      <trkpt lat="43.117956966161728" lon="0.070608984678984">
        <ele>533.66999999999996</ele>
        <time>2025-04-26T12:35:07Z</time>
      </trkpt>
      <trkpt lat="43.117939028888941" lon="0.070494990795851">
        <ele>534.14999999999998</ele>
        <time>2025-04-26T12:35:08Z</time>
      </trkpt>
      <trkpt lat="43.117900975048542" lon="0.070389965549111">
        <ele>534.63</ele>
        <time>2025-04-26T12:35:09Z</time>
      </trkpt>
      <trkpt lat="43.117810031399131" lon="0.070197014138103">
        <ele>535.59000000000003</ele>
        <time>2025-04-26T12:35:11Z</time>
      </trkpt>
      <trkpt lat="43.117748005315661" lon="0.070116966962814">
        <ele>536.07000000000005</ele>
        <time>2025-04-26T12:35:12Z</time>
      </trkpt>
      <trkpt lat="43.117677010595798" lon="0.070045972242951">
        <ele>536.07000000000005</ele>
        <time>2025-04-26T12:35:13Z</time>
      </trkpt>
      <trkpt lat="43.116892967373133" lon="0.06914097815752">
        <ele>539.44000000000005</ele>
        <time>2025-04-26T12:35:23Z</time>
      </trkpt>
      <trkpt lat="43.11682197265327" lon="0.069001000374556">
        <ele>539.44000000000005</ele>
        <time>2025-04-26T12:35:24Z</time>
      </trkpt>
      <trkpt lat="43.116788025945425" lon="0.068841995671391">
        <ele>539.44000000000005</ele>
        <time>2025-04-26T12:35:25Z</time>
      </trkpt>
      <trkpt lat="43.116749972105026" lon="0.06866798736155">
        <ele>538.96000000000004</ele>
        <time>2025-04-26T12:35:26Z</time>
      </trkpt>
      <trkpt lat="43.116710996255279" lon="0.068486016243696">
        <ele>538.48000000000002</ele>
        <time>2025-04-26T12:35:27Z</time>
      </trkpt>
      <trkpt lat="43.11641201376915" lon="0.066444016993046">
        <ele>527.41999999999996</ele>
        <time>2025-04-26T12:35:37Z</time>
      </trkpt>
      <trkpt lat="43.116118982434273" lon="0.065055973827839">
        <ele>516.85000000000002</ele>
        <time>2025-04-26T12:35:44Z</time>
      </trkpt>
      <trkpt lat="43.116096016019583" lon="0.064847012981772">
        <ele>515.39999999999998</ele>
        <time>2025-04-26T12:35:45Z</time>
      </trkpt>
      <trkpt lat="43.116088975220919" lon="0.064623970538378">
        <ele>513.96000000000004</ele>
        <time>2025-04-26T12:35:46Z</time>
      </trkpt>
      <trkpt lat="43.116226019337773" lon="0.062893023714423">
        <ele>501.94999999999999</ele>
        <time>2025-04-26T12:35:54Z</time>
      </trkpt>
      <trkpt lat="43.116216966882348" lon="0.062510976567864">
        <ele>499.54000000000002</ele>
        <time>2025-04-26T12:35:56Z</time>
      </trkpt>
      <trkpt lat="43.116201963275671" lon="0.062336968258023">
        <ele>498.10000000000002</ele>
        <time>2025-04-26T12:35:57Z</time>
      </trkpt>
      <trkpt lat="43.116130968555808" lon="0.062163965776563">
        <ele>497.13999999999999</ele>
        <time>2025-04-26T12:35:58Z</time>
      </trkpt>
      <trkpt lat="43.116057962179184" lon="0.06198501214385">
        <ele>496.18000000000001</ele>
        <time>2025-04-26T12:35:59Z</time>
      </trkpt>
      <trkpt lat="43.115985039621592" lon="0.061807986348867">
        <ele>495.22000000000003</ele>
        <time>2025-04-26T12:36:00Z</time>
      </trkpt>
      <trkpt lat="43.115914966911077" lon="0.061636995524168">
        <ele>494.25999999999999</ele>
        <time>2025-04-26T12:36:01Z</time>
      </trkpt>
      <trkpt lat="43.115862999111414" lon="0.061453012749553">
        <ele>493.76999999999998</ele>
        <time>2025-04-26T12:36:02Z</time>
      </trkpt>
      <trkpt lat="43.11585302464664" lon="0.061260983347893">
        <ele>492.81</ele>
        <time>2025-04-26T12:36:03Z</time>
      </trkpt>
      <trkpt lat="43.115831986069679" lon="0.060884971171618">
        <ele>491.37</ele>
        <time>2025-04-26T12:36:05Z</time>
      </trkpt>
      <trkpt lat="43.115824023261666" lon="0.060724960640073">
        <ele>490.41000000000003</ele>
        <time>2025-04-26T12:36:06Z</time>
      </trkpt>
      <trkpt lat="43.115779012441635" lon="0.06056796759367">
        <ele>489.44999999999999</ele>
        <time>2025-04-26T12:36:07Z</time>
      </trkpt>
      <trkpt lat="43.115730984136462" lon="0.06041600368917">
        <ele>488.49000000000001</ele>
        <time>2025-04-26T12:36:08Z</time>
      </trkpt>
      <trkpt lat="43.11563802883029" lon="0.060296980664134">
        <ele>487.52999999999997</ele>
        <time>2025-04-26T12:36:09Z</time>
      </trkpt>
      <trkpt lat="43.115542978048325" lon="0.060175023972988">
        <ele>486.07999999999998</ele>
        <time>2025-04-26T12:36:10Z</time>
      </trkpt>
      <trkpt lat="43.115438958629966" lon="0.060039991512895">
        <ele>485.12</ele>
        <time>2025-04-26T12:36:11Z</time>
      </trkpt>
      <trkpt lat="43.11538003385067" lon="0.059861037880182">
        <ele>483.68000000000001</ele>
        <time>2025-04-26T12:36:12Z</time>
      </trkpt>
      <trkpt lat="43.115325970575213" lon="0.059693986549973">
        <ele>482.72000000000003</ele>
        <time>2025-04-26T12:36:13Z</time>
      </trkpt>
      <trkpt lat="43.115223962813616" lon="0.059377988800406">
        <ele>480.31999999999999</ele>
        <time>2025-04-26T12:36:15Z</time>
      </trkpt>
      <trkpt lat="43.115139976143837" lon="0.059231976047158">
        <ele>478.87</ele>
        <time>2025-04-26T12:36:16Z</time>
      </trkpt>
      <trkpt lat="43.115027993917465" lon="0.059091998264194">
        <ele>477.91000000000003</ele>
        <time>2025-04-26T12:36:17Z</time>
      </trkpt>
      <trkpt lat="43.114041024819016" lon="0.057848040014505">
        <ele>469.25999999999999</ele>
        <time>2025-04-26T12:36:24Z</time>
      </trkpt>
      <trkpt lat="43.113006027415395" lon="0.056500984355807">
        <ele>457.72000000000003</ele>
        <time>2025-04-26T12:36:32Z</time>
      </trkpt>
      <trkpt lat="43.112893961369991" lon="0.056389002129436">
        <ele>456.27999999999997</ele>
        <time>2025-04-26T12:36:33Z</time>
      </trkpt>
      <trkpt lat="43.112779967486858" lon="0.05629001185298">
        <ele>454.36000000000001</ele>
        <time>2025-04-26T12:36:34Z</time>
      </trkpt>
      <trkpt lat="43.112476039677858" lon="0.056025981903076">
        <ele>449.55000000000001</ele>
        <time>2025-04-26T12:36:37Z</time>
      </trkpt>
      <trkpt lat="43.11241501942277" lon="0.055890027433634">
        <ele>448.58999999999997</ele>
        <time>2025-04-26T12:36:38Z</time>
      </trkpt>
      <trkpt lat="43.112361039966345" lon="0.055757006630301">
        <ele>447.14999999999998</ele>
        <time>2025-04-26T12:36:39Z</time>
      </trkpt>
      <trkpt lat="43.112320974469185" lon="0.055599007755518">
        <ele>446.19</ele>
        <time>2025-04-26T12:36:40Z</time>
      </trkpt>
      <trkpt lat="43.112297002226114" lon="0.055426005274057">
        <ele>444.75</ele>
        <time>2025-04-26T12:36:41Z</time>
      </trkpt>
      <trkpt lat="43.112283004447818" lon="0.055232970044017">
        <ele>443.31</ele>
        <time>2025-04-26T12:36:42Z</time>
      </trkpt>
      <trkpt lat="43.11226699501276" lon="0.055028032511473">
        <ele>441.86000000000001</ele>
        <time>2025-04-26T12:36:43Z</time>
      </trkpt>
      <trkpt lat="43.112276969477534" lon="0.054812030866742">
        <ele>439.94</ele>
        <time>2025-04-26T12:36:44Z</time>
      </trkpt>
      <trkpt lat="43.112301025539637" lon="0.054591000080109">
        <ele>438.5</ele>
        <time>2025-04-26T12:36:45Z</time>
      </trkpt>
      <trkpt lat="43.112324997782707" lon="0.054363012313843">
        <ele>436.57999999999998</ele>
        <time>2025-04-26T12:36:46Z</time>
      </trkpt>
      <trkpt lat="43.112840987741947" lon="0.052699958905578">
        <ele>424.07999999999998</ele>
        <time>2025-04-26T12:36:54Z</time>
      </trkpt>
      <trkpt lat="43.112942995503545" lon="0.052546989172697">
        <ele>422.16000000000003</ele>
        <time>2025-04-26T12:36:55Z</time>
      </trkpt>
      <trkpt lat="43.113043997436762" lon="0.052396031096578">
        <ele>420.70999999999998</ele>
        <time>2025-04-26T12:36:56Z</time>
      </trkpt>
      <trkpt lat="43.113156985491514" lon="0.052277008071542">
        <ele>419.26999999999998</ele>
        <time>2025-04-26T12:36:57Z</time>
      </trkpt>
      <trkpt lat="43.113270979374647" lon="0.052163014188409">
        <ele>418.31</ele>
        <time>2025-04-26T12:36:58Z</time>
      </trkpt>
      <trkpt lat="43.113382961601019" lon="0.052051031962037">
        <ele>416.87</ele>
        <time>2025-04-26T12:36:59Z</time>
      </trkpt>
      <trkpt lat="43.113486981019378" lon="0.051947012543678">
        <ele>415.91000000000003</ele>
        <time>2025-04-26T12:37:00Z</time>
      </trkpt>
      <trkpt lat="43.113537020981312" lon="0.051804017275572">
        <ele>414.47000000000003</ele>
        <time>2025-04-26T12:37:01Z</time>
      </trkpt>
      <trkpt lat="43.113575996831059" lon="0.051648030057549">
        <ele>413.5</ele>
        <time>2025-04-26T12:37:02Z</time>
      </trkpt>
      <trkpt lat="43.113588988780975" lon="0.051497993990779">
        <ele>412.54000000000002</ele>
        <time>2025-04-26T12:37:03Z</time>
      </trkpt>
      <trkpt lat="43.113583959639072" lon="0.051330020651221">
        <ele>411.57999999999998</ele>
        <time>2025-04-26T12:37:04Z</time>
      </trkpt>
      <trkpt lat="43.113578008487821" lon="0.051161041483283">
        <ele>410.62</ele>
        <time>2025-04-26T12:37:05Z</time>
      </trkpt>
      <trkpt lat="43.113591000437737" lon="0.050831967964768">
        <ele>408.69999999999999</ele>
        <time>2025-04-26T12:37:07Z</time>
      </trkpt>
      <trkpt lat="43.113621007651091" lon="0.050672963261604">
        <ele>407.74000000000001</ele>
        <time>2025-04-26T12:37:08Z</time>
      </trkpt>
      <trkpt lat="43.113680016249418" lon="0.05051395855844">
        <ele>405.81</ele>
        <time>2025-04-26T12:37:09Z</time>
      </trkpt>
      <trkpt lat="43.113766014575958" lon="0.050357971340418">
        <ele>404.37</ele>
        <time>2025-04-26T12:37:10Z</time>
      </trkpt>
      <trkpt lat="43.113856036216021" lon="0.050198966637254">
        <ele>402.93000000000001</ele>
        <time>2025-04-26T12:37:11Z</time>
      </trkpt>
      <trkpt lat="43.113944968208671" lon="0.050042979419231">
        <ele>401.49000000000001</ele>
        <time>2025-04-26T12:37:12Z</time>
      </trkpt>
      <trkpt lat="43.114024009555578" lon="0.049892021343112">
        <ele>400.05000000000001</ele>
        <time>2025-04-26T12:37:13Z</time>
      </trkpt>
      <trkpt lat="43.114053010940552" lon="0.049699991941452">
        <ele>399.07999999999998</ele>
        <time>2025-04-26T12:37:14Z</time>
      </trkpt>
      <trkpt lat="43.114083018153906" lon="0.049499999731779">
        <ele>397.63999999999999</ele>
        <time>2025-04-26T12:37:15Z</time>
      </trkpt>
      <trkpt lat="43.114062985405326" lon="0.049295984208584">
        <ele>396.68000000000001</ele>
        <time>2025-04-26T12:37:16Z</time>
      </trkpt>
      <trkpt lat="43.114031972363591" lon="0.049091968685389">
        <ele>396.19999999999999</ele>
        <time>2025-04-26T12:37:17Z</time>
      </trkpt>
      <trkpt lat="43.113985033705831" lon="0.048893988132477">
        <ele>395.24000000000001</ele>
        <time>2025-04-26T12:37:18Z</time>
      </trkpt>
      <trkpt lat="43.11394102871418" lon="0.04870698787272">
        <ele>394.27999999999997</ele>
        <time>2025-04-26T12:37:19Z</time>
      </trkpt>
      <trkpt lat="43.113827034831047" lon="0.04799704067409">
        <ele>390.43000000000001</ele>
        <time>2025-04-26T12:37:23Z</time>
      </trkpt>
      <trkpt lat="43.113776994869113" lon="0.047624967992306">
        <ele>388.99000000000001</ele>
        <time>2025-04-26T12:37:25Z</time>
      </trkpt>
      <trkpt lat="43.113729972392321" lon="0.047436961904168">
        <ele>388.02999999999997</ele>
        <time>2025-04-26T12:37:26Z</time>
      </trkpt>
      <trkpt lat="43.113665012642741" lon="0.047254990786314">
        <ele>387.55000000000001</ele>
        <time>2025-04-26T12:37:27Z</time>
      </trkpt>
      <trkpt lat="43.112647030502558" lon="0.044919960200787">
        <ele>390.43000000000001</ele>
        <time>2025-04-26T12:37:39Z</time>
      </trkpt>
      <trkpt lat="43.111248007044196" lon="0.041652023792267">
        <ele>392.36000000000001</ele>
        <time>2025-04-26T12:37:53Z</time>
      </trkpt>
      <trkpt lat="43.109954008832574" lon="0.038648033514619">
        <ele>393.31999999999999</ele>
        <time>2025-04-26T12:38:06Z</time>
      </trkpt>
      <trkpt lat="43.108209986239672" lon="0.034592030569911">
        <ele>397.16000000000003</ele>
        <time>2025-04-26T12:38:23Z</time>
      </trkpt>
      <trkpt lat="43.107601040974259" lon="0.033413032069802">
        <ele>398.12</ele>
        <time>2025-04-26T12:38:29Z</time>
      </trkpt>
      <trkpt lat="43.107474977150559" lon="0.033268025144935">
        <ele>398.60000000000002</ele>
        <time>2025-04-26T12:38:30Z</time>
      </trkpt>
      <trkpt lat="43.10734698548913" lon="0.033140033483505">
        <ele>398.60000000000002</ele>
        <time>2025-04-26T12:38:31Z</time>
      </trkpt>
      <trkpt lat="43.107225028797984" lon="0.033039031550288">
        <ele>398.60000000000002</ele>
        <time>2025-04-26T12:38:32Z</time>
      </trkpt>
      <trkpt lat="43.107106005772948" lon="0.032940041273832">
        <ele>398.60000000000002</ele>
        <time>2025-04-26T12:38:33Z</time>
      </trkpt>
      <trkpt lat="43.106302013620734" lon="0.032496973872185">
        <ele>398.12</ele>
        <time>2025-04-26T12:38:41Z</time>
      </trkpt>
      <trkpt lat="43.105472037568688" lon="0.032101012766361">
        <ele>395.24000000000001</ele>
        <time>2025-04-26T12:38:51Z</time>
      </trkpt>
      <trkpt lat="43.105396013706923" lon="0.03203303553164">
        <ele>394.75999999999999</ele>
        <time>2025-04-26T12:38:52Z</time>
      </trkpt>
      <trkpt lat="43.105352008715272" lon="0.03199297003448">
        <ele>394.75999999999999</ele>
        <time>2025-04-26T12:38:53Z</time>
      </trkpt>
      <trkpt lat="43.105287970975041" lon="0.031844023615122">
        <ele>394.27999999999997</ele>
        <time>2025-04-26T12:38:54Z</time>
      </trkpt>
      <trkpt lat="43.105242038145661" lon="0.03173497505486">
        <ele>393.80000000000001</ele>
        <time>2025-04-26T12:38:55Z</time>
      </trkpt>
      <trkpt lat="43.105204990133643" lon="0.031611006706953">
        <ele>393.80000000000001</ele>
        <time>2025-04-26T12:38:56Z</time>
      </trkpt>
      <trkpt lat="43.105174982920289" lon="0.031484020873904">
        <ele>393.31999999999999</ele>
        <time>2025-04-26T12:38:57Z</time>
      </trkpt>
      <trkpt lat="43.105096025392413" lon="0.03123801201582">
        <ele>393.31999999999999</ele>
        <time>2025-04-26T12:38:59Z</time>
      </trkpt>
      <trkpt lat="43.105049002915621" lon="0.03111002035439">
        <ele>392.83999999999997</ele>
        <time>2025-04-26T12:39:00Z</time>
      </trkpt>
      <trkpt lat="43.104974990710616" lon="0.031006000936031">
        <ele>392.83999999999997</ele>
        <time>2025-04-26T12:39:01Z</time>
      </trkpt>
      <trkpt lat="43.104887986555696" lon="0.030918996781111">
        <ele>392.83999999999997</ele>
        <time>2025-04-26T12:39:02Z</time>
      </trkpt>
      <trkpt lat="43.10479000210762" lon="0.030842972919345">
        <ele>392.83999999999997</ele>
        <time>2025-04-26T12:39:03Z</time>
      </trkpt>
      <trkpt lat="43.10468296520412" lon="0.03078899346292">
        <ele>392.83999999999997</ele>
        <time>2025-04-26T12:39:04Z</time>
      </trkpt>
      <trkpt lat="43.104562014341354" lon="0.03074599429965">
        <ele>393.31999999999999</ele>
        <time>2025-04-26T12:39:05Z</time>
      </trkpt>
      <trkpt lat="43.104440979659557" lon="0.03070299513638">
        <ele>393.31999999999999</ele>
        <time>2025-04-26T12:39:06Z</time>
      </trkpt>
      <trkpt lat="43.102879012003541" lon="0.030305022373796">
        <ele>398.12</ele>
        <time>2025-04-26T12:39:18Z</time>
      </trkpt>
      <trkpt lat="43.101799003779888" lon="0.029705967754126">
        <ele>401.00999999999999</ele>
        <time>2025-04-26T12:39:26Z</time>
      </trkpt>
      <trkpt lat="43.101088972762227" lon="0.028627971187234">
        <ele>401.97000000000003</ele>
        <time>2025-04-26T12:39:32Z</time>
      </trkpt>
      <trkpt lat="43.10092200525105" lon="0.028153974562883">
        <ele>401.97000000000003</ele>
        <time>2025-04-26T12:39:34Z</time>
      </trkpt>
      <trkpt lat="43.10066401027143" lon="0.027185026556253">
        <ele>401.49000000000001</ele>
        <time>2025-04-26T12:39:38Z</time>
      </trkpt>
      <trkpt lat="43.100453037768602" lon="0.026760986074805">
        <ele>401.00999999999999</ele>
        <time>2025-04-26T12:39:40Z</time>
      </trkpt>
      <trkpt lat="43.100321022793651" lon="0.026574991643429">
        <ele>401.00999999999999</ele>
        <time>2025-04-26T12:39:41Z</time>
      </trkpt>
      <trkpt lat="43.099824981763959" lon="0.025834031403065">
        <ele>401.97000000000003</ele>
        <time>2025-04-26T12:39:45Z</time>
      </trkpt>
      <trkpt lat="43.099745018407702" lon="0.025635967031121">
        <ele>402.44999999999999</ele>
        <time>2025-04-26T12:39:46Z</time>
      </trkpt>
      <trkpt lat="43.09967402368784" lon="0.025424994528294">
        <ele>402.44999999999999</ele>
        <time>2025-04-26T12:39:47Z</time>
      </trkpt>
      <trkpt lat="43.099192986264825" lon="0.023045036941767">
        <ele>404.37</ele>
        <time>2025-04-26T12:39:56Z</time>
      </trkpt>
      <trkpt lat="43.098454959690571" lon="0.019536036998034">
        <ele>407.74000000000001</ele>
        <time>2025-04-26T12:40:09Z</time>
      </trkpt>
      <trkpt lat="43.098371978849173" lon="0.019344007596374">
        <ele>408.22000000000003</ele>
        <time>2025-04-26T12:40:10Z</time>
      </trkpt>
      <trkpt lat="43.098270976915956" lon="0.01914300955832">
        <ele>408.69999999999999</ele>
        <time>2025-04-26T12:40:11Z</time>
      </trkpt>
      <trkpt lat="43.097352990880609" lon="0.01723000779748">
        <ele>410.62</ele>
        <time>2025-04-26T12:40:20Z</time>
      </trkpt>
      <trkpt lat="43.097278978675604" lon="0.0170580111444">
        <ele>411.10000000000002</ele>
        <time>2025-04-26T12:40:21Z</time>
      </trkpt>
      <trkpt lat="43.097061971202493" lon="0.016594994813204">
        <ele>411.10000000000002</ele>
        <time>2025-04-26T12:40:24Z</time>
      </trkpt>
      <trkpt lat="43.096666010096669" lon="0.015455977991223">
        <ele>406.76999999999998</ele>
        <time>2025-04-26T12:40:33Z</time>
      </trkpt>
      <trkpt lat="43.096417989581823" lon="0.014638993889093">
        <ele>406.29000000000002</ele>
        <time>2025-04-26T12:40:40Z</time>
      </trkpt>
      <trkpt lat="43.096404997631907" lon="0.014507984742522">
        <ele>406.29000000000002</ele>
        <time>2025-04-26T12:40:41Z</time>
      </trkpt>
      <trkpt lat="43.096404997631907" lon="0.014371024444699">
        <ele>406.29000000000002</ele>
        <time>2025-04-26T12:40:42Z</time>
      </trkpt>
      <trkpt lat="43.096404997631907" lon="0.013957964256406">
        <ele>406.76999999999998</ele>
        <time>2025-04-26T12:40:45Z</time>
      </trkpt>
      <trkpt lat="43.096397034823895" lon="0.013818992301822">
        <ele>407.25999999999999</ele>
        <time>2025-04-26T12:40:46Z</time>
      </trkpt>
      <trkpt lat="43.096379013732076" lon="0.013680020347238">
        <ele>407.74000000000001</ele>
        <time>2025-04-26T12:40:47Z</time>
      </trkpt>
      <trkpt lat="43.09632696211338" lon="0.013410039246082">
        <ele>408.69999999999999</ele>
        <time>2025-04-26T12:40:49Z</time>
      </trkpt>
      <trkpt lat="43.096292009577155" lon="0.01327701844275">
        <ele>408.69999999999999</ele>
        <time>2025-04-26T12:40:50Z</time>
      </trkpt>
      <trkpt lat="43.096244987100363" lon="0.013151960447431">
        <ele>409.66000000000003</ele>
        <time>2025-04-26T12:40:51Z</time>
      </trkpt>
      <trkpt lat="43.096191007643938" lon="0.013033021241426">
        <ele>409.66000000000003</ele>
        <time>2025-04-26T12:40:52Z</time>
      </trkpt>
      <trkpt lat="43.096135016530752" lon="0.012917015701532">
        <ele>410.13999999999999</ele>
        <time>2025-04-26T12:40:53Z</time>
      </trkpt>
      <trkpt lat="43.095967965200543" lon="0.012602023780346">
        <ele>412.06</ele>
        <time>2025-04-26T12:40:56Z</time>
      </trkpt>
      <trkpt lat="43.095909962430596" lon="0.012494986876845">
        <ele>413.01999999999998</ele>
        <time>2025-04-26T12:40:57Z</time>
      </trkpt>
      <trkpt lat="43.09585003182292" lon="0.012385016307235">
        <ele>414.47000000000003</ele>
        <time>2025-04-26T12:40:58Z</time>
      </trkpt>
      <trkpt lat="43.095789011567831" lon="0.012274039909244">
        <ele>415.43000000000001</ele>
        <time>2025-04-26T12:40:59Z</time>
      </trkpt>
      <trkpt lat="43.095726985484362" lon="0.01216096803546">
        <ele>416.38999999999999</ele>
        <time>2025-04-26T12:41:00Z</time>
      </trkpt>
      <trkpt lat="43.095320966094732" lon="0.011370973661542">
        <ele>419.26999999999998</ele>
        <time>2025-04-26T12:41:07Z</time>
      </trkpt>
      <trkpt lat="43.095270004123449" lon="0.011265026405454">
        <ele>419.75</ele>
        <time>2025-04-26T12:41:08Z</time>
      </trkpt>
      <trkpt lat="43.095120973885059" lon="0.010950034484267">
        <ele>419.75</ele>
        <time>2025-04-26T12:41:11Z</time>
      </trkpt>
      <trkpt lat="43.094964986667037" lon="0.010620960965753">
        <ele>419.26999999999998</ele>
        <time>2025-04-26T12:41:14Z</time>
      </trkpt>
      <trkpt lat="43.094915030524135" lon="0.010518031194806">
        <ele>418.79000000000002</ele>
        <time>2025-04-26T12:41:15Z</time>
      </trkpt>
      <trkpt lat="43.09471202082932" lon="0.010005980730057">
        <ele>418.31</ele>
        <time>2025-04-26T12:41:21Z</time>
      </trkpt>
      <trkpt lat="43.094644965603948" lon="0.009805988520384">
        <ele>418.31</ele>
        <time>2025-04-26T12:41:23Z</time>
      </trkpt>
      <trkpt lat="43.094638008624315" lon="0.009656036272645">
        <ele>418.31</ele>
        <time>2025-04-26T12:41:24Z</time>
      </trkpt>
      <trkpt lat="43.094631973654032" lon="0.00951798632741">
        <ele>417.35000000000002</ele>
        <time>2025-04-26T12:41:25Z</time>
      </trkpt>
      <trkpt lat="43.094601966440678" lon="0.007955012843013">
        <ele>415.43000000000001</ele>
        <time>2025-04-26T12:41:35Z</time>
      </trkpt>
      <trkpt lat="43.094594003632665" lon="0.006002029404044">
        <ele>413.98000000000002</ele>
        <time>2025-04-26T12:41:47Z</time>
      </trkpt>
      <trkpt lat="43.094624010846019" lon="0.003776969388127">
        <ele>413.98000000000002</ele>
        <time>2025-04-26T12:41:57Z</time>
      </trkpt>
      <trkpt lat="43.094658963382244" lon="0.00146197155118">
        <ele>412.54000000000002</ele>
        <time>2025-04-26T12:42:07Z</time>
      </trkpt>
      <trkpt lat="43.094670027494431" lon="-0.001636985689402">
        <ele>413.01999999999998</ele>
        <time>2025-04-26T12:42:20Z</time>
      </trkpt>
      <trkpt lat="43.094687964767218" lon="-0.00567396171391">
        <ele>413.5</ele>
        <time>2025-04-26T12:42:36Z</time>
      </trkpt>
      <trkpt lat="43.094709003344178" lon="-0.007393006235361">
        <ele>414.47000000000003</ele>
        <time>2025-04-26T12:42:44Z</time>
      </trkpt>
      <trkpt lat="43.094709003344178" lon="-0.009570037946105">
        <ele>415.43000000000001</ele>
        <time>2025-04-26T12:42:53Z</time>
      </trkpt>
      <trkpt lat="43.094730963930488" lon="-0.012671006843448">
        <ele>416.38999999999999</ele>
        <time>2025-04-26T12:43:05Z</time>
      </trkpt>
      <trkpt lat="43.094773041084409" lon="-0.014574034139514">
        <ele>417.35000000000002</ele>
        <time>2025-04-26T12:43:13Z</time>
      </trkpt>
      <trkpt lat="43.094818973913789" lon="-0.014764973893762">
        <ele>417.35000000000002</ele>
        <time>2025-04-26T12:43:14Z</time>
      </trkpt>
      <trkpt lat="43.095277966931462" lon="-0.016467003151774">
        <ele>417.35000000000002</ele>
        <time>2025-04-26T12:43:22Z</time>
      </trkpt>
      <trkpt lat="43.095477037131786" lon="-0.017915982753038">
        <ele>417.35000000000002</ele>
        <time>2025-04-26T12:43:31Z</time>
      </trkpt>
      <trkpt lat="43.095689015462995" lon="-0.019449032843113">
        <ele>416.87</ele>
        <time>2025-04-26T12:43:41Z</time>
      </trkpt>
      <trkpt lat="43.095963019877672" lon="-0.021496983245015">
        <ele>417.82999999999998</ele>
        <time>2025-04-26T12:43:54Z</time>
      </trkpt>
      <trkpt lat="43.096268959343433" lon="-0.023695975542068">
        <ele>417.82999999999998</ele>
        <time>2025-04-26T12:44:08Z</time>
      </trkpt>
      <trkpt lat="43.096607001498342" lon="-0.026033017784357">
        <ele>417.35000000000002</ele>
        <time>2025-04-26T12:44:23Z</time>
      </trkpt>
      <trkpt lat="43.096642037853599" lon="-0.026164026930928">
        <ele>417.35000000000002</ele>
        <time>2025-04-26T12:44:24Z</time>
      </trkpt>
      <trkpt lat="43.09669098816812" lon="-0.026275003328919">
        <ele>417.82999999999998</ele>
        <time>2025-04-26T12:44:25Z</time>
      </trkpt>
      <trkpt lat="43.096738010644913" lon="-0.026380028575659">
        <ele>417.82999999999998</ele>
        <time>2025-04-26T12:44:26Z</time>
      </trkpt>
      <trkpt lat="43.096790984272957" lon="-0.026499973610044">
        <ele>418.31</ele>
        <time>2025-04-26T12:44:27Z</time>
      </trkpt>
      <trkpt lat="43.09705400839448" lon="-0.026928959414363">
        <ele>419.26999999999998</ele>
        <time>2025-04-26T12:44:32Z</time>
      </trkpt>
      <trkpt lat="43.09716297313571" lon="-0.027107996866107">
        <ele>419.26999999999998</ele>
        <time>2025-04-26T12:44:35Z</time>
      </trkpt>
      <trkpt lat="43.097236985340714" lon="-0.027331961318851">
        <ele>419.26999999999998</ele>
        <time>2025-04-26T12:44:36Z</time>
      </trkpt>
      <trkpt lat="43.097263975068927" lon="-0.027449978515506">
        <ele>418.79000000000002</ele>
        <time>2025-04-26T12:44:37Z</time>
      </trkpt>
      <trkpt lat="43.097290964797139" lon="-0.0275659840554">
        <ele>418.79000000000002</ele>
        <time>2025-04-26T12:44:38Z</time>
      </trkpt>
      <trkpt lat="43.097317032516003" lon="-0.027680983766913">
        <ele>419.26999999999998</ele>
        <time>2025-04-26T12:44:39Z</time>
      </trkpt>
      <trkpt lat="43.097327006980777" lon="-0.027806041762233">
        <ele>418.79000000000002</ele>
        <time>2025-04-26T12:44:40Z</time>
      </trkpt>
      <trkpt lat="43.097434965893626" lon="-0.028257993981242">
        <ele>416.87</ele>
        <time>2025-04-26T12:44:47Z</time>
      </trkpt>
      <trkpt lat="43.09746103361249" lon="-0.028328988701105">
        <ele>415.91000000000003</ele>
        <time>2025-04-26T12:44:50Z</time>
      </trkpt>
      <trkpt lat="43.097552983090281" lon="-0.028421021997929">
        <ele>415.43000000000001</ele>
        <time>2025-04-26T12:44:52Z</time>
      </trkpt>
      <trkpt lat="43.097589025273919" lon="-0.02851003780961">
        <ele>414.94999999999999</ele>
        <time>2025-04-26T12:44:53Z</time>
      </trkpt>
      <trkpt lat="43.097594976425171" lon="-0.028579020872712">
        <ele>414.47000000000003</ele>
        <time>2025-04-26T12:44:54Z</time>
      </trkpt>
      <trkpt lat="43.097601011395454" lon="-0.028649009764194">
        <ele>413.98000000000002</ele>
        <time>2025-04-26T12:44:55Z</time>
      </trkpt>
      <trkpt lat="43.097606040537357" lon="-0.028710030019283">
        <ele>413.5</ele>
        <time>2025-04-26T12:44:56Z</time>
      </trkpt>
      <trkpt lat="43.097577039152384" lon="-0.028761997818947">
        <ele>413.01999999999998</ele>
        <time>2025-04-26T12:44:57Z</time>
      </trkpt>
      <trkpt lat="43.097544014453888" lon="-0.028823018074036">
        <ele>413.01999999999998</ele>
        <time>2025-04-26T12:44:58Z</time>
      </trkpt>
      <trkpt lat="43.097499003633857" lon="-0.028905998915434">
        <ele>412.54000000000002</ele>
        <time>2025-04-26T12:44:59Z</time>
      </trkpt>
      <trkpt lat="43.097480982542038" lon="-0.028993003070354">
        <ele>412.06</ele>
        <time>2025-04-26T12:45:00Z</time>
      </trkpt>
      <trkpt lat="43.09746203944087" lon="-0.029089981690049">
        <ele>411.57999999999998</ele>
        <time>2025-04-26T12:45:01Z</time>
      </trkpt>
      <trkpt lat="43.09744100086391" lon="-0.029194001108408">
        <ele>411.10000000000002</ele>
        <time>2025-04-26T12:45:02Z</time>
      </trkpt>
      <trkpt lat="43.097413005307317" lon="-0.029332973062992">
        <ele>410.62</ele>
        <time>2025-04-26T12:45:03Z</time>
      </trkpt>
      <trkpt lat="43.097413005307317" lon="-0.029759025201201">
        <ele>410.62</ele>
        <time>2025-04-26T12:45:07Z</time>
      </trkpt>
      <trkpt lat="43.097415016964078" lon="-0.029872013255954">
        <ele>410.62</ele>
        <time>2025-04-26T12:45:08Z</time>
      </trkpt>
      <trkpt lat="43.097566980868578" lon="-0.030999965965748">
        <ele>408.22000000000003</ele>
        <time>2025-04-26T12:45:17Z</time>
      </trkpt>
      <trkpt lat="43.097601011395454" lon="-0.031137010082603">
        <ele>406.76999999999998</ele>
        <time>2025-04-26T12:45:19Z</time>
      </trkpt>
      <trkpt lat="43.097710981965065" lon="-0.031516961753368">
        <ele>405.32999999999998</ele>
        <time>2025-04-26T12:45:21Z</time>
      </trkpt>
      <trkpt lat="43.097811983898282" lon="-0.031718965619802">
        <ele>404.37</ele>
        <time>2025-04-26T12:45:23Z</time>
      </trkpt>
      <trkpt lat="43.097855988889933" lon="-0.031805969774723">
        <ele>404.37</ele>
        <time>2025-04-26T12:45:24Z</time>
      </trkpt>
      <trkpt lat="43.097920026630163" lon="-0.031907977536321">
        <ele>403.88999999999999</ele>
        <time>2025-04-26T12:45:25Z</time>
      </trkpt>
      <trkpt lat="43.097993033006787" lon="-0.031907977536321">
        <ele>403.88999999999999</ele>
        <time>2025-04-26T12:45:26Z</time>
      </trkpt>
      <trkpt lat="43.098056986927986" lon="-0.031907977536321">
        <ele>404.37</ele>
        <time>2025-04-26T12:45:27Z</time>
      </trkpt>
      <trkpt lat="43.098135022446513" lon="-0.031922981142998">
        <ele>404.37</ele>
        <time>2025-04-26T12:45:28Z</time>
      </trkpt>
      <trkpt lat="43.098184978589416" lon="-0.031980983912945">
        <ele>404.37</ele>
        <time>2025-04-26T12:45:29Z</time>
      </trkpt>
      <trkpt lat="43.098229989409447" lon="-0.032034041360021">
        <ele>404.85000000000002</ele>
        <time>2025-04-26T12:45:30Z</time>
      </trkpt>
      <trkpt lat="43.098241975530982" lon="-0.032176030799747">
        <ele>404.85000000000002</ele>
        <time>2025-04-26T12:45:31Z</time>
      </trkpt>
      <trkpt lat="43.09823501855135" lon="-0.032266974449158">
        <ele>404.85000000000002</ele>
        <time>2025-04-26T12:45:32Z</time>
      </trkpt>
      <trkpt lat="43.098195036873221" lon="-0.032381974160671">
        <ele>404.85000000000002</ele>
        <time>2025-04-26T12:45:33Z</time>
      </trkpt>
      <trkpt lat="43.098136028274894" lon="-0.03242296166718">
        <ele>404.37</ele>
        <time>2025-04-26T12:45:34Z</time>
      </trkpt>
      <trkpt lat="43.098071990534663" lon="-0.032466966658831">
        <ele>403.88999999999999</ele>
        <time>2025-04-26T12:45:35Z</time>
      </trkpt>
      <trkpt lat="43.097985992208123" lon="-0.032494962215424">
        <ele>403.41000000000003</ele>
        <time>2025-04-26T12:45:36Z</time>
      </trkpt>
      <trkpt lat="43.097918014973402" lon="-0.032461015507579">
        <ele>403.41000000000003</ele>
        <time>2025-04-26T12:45:37Z</time>
      </trkpt>
      <trkpt lat="43.097884990274906" lon="-0.032444000244141">
        <ele>402.93000000000001</ele>
        <time>2025-04-26T12:45:38Z</time>
      </trkpt>
      <trkpt lat="43.097686003893614" lon="-0.03235699608922">
        <ele>402.44999999999999</ele>
        <time>2025-04-26T12:45:40Z</time>
      </trkpt>
      <trkpt lat="43.097608974203467" lon="-0.032398989424109">
        <ele>402.44999999999999</ele>
        <time>2025-04-26T12:45:41Z</time>
      </trkpt>
      <trkpt lat="43.096724012866616" lon="-0.032958984375">
        <ele>400.05000000000001</ele>
        <time>2025-04-26T12:45:51Z</time>
      </trkpt>
      <trkpt lat="43.096257979050279" lon="-0.033549992367625">
        <ele>399.56999999999999</ele>
        <time>2025-04-26T12:45:57Z</time>
      </trkpt>
      <trkpt lat="43.095851959660649" lon="-0.034562023356557">
        <ele>399.56999999999999</ele>
        <time>2025-04-26T12:46:07Z</time>
      </trkpt>
      <trkpt lat="43.095784988254309" lon="-0.034837033599615">
        <ele>399.07999999999998</ele>
        <time>2025-04-26T12:46:11Z</time>
      </trkpt>
      <trkpt lat="43.095822958275676" lon="-0.035962974652648">
        <ele>398.60000000000002</ele>
        <time>2025-04-26T12:46:21Z</time>
      </trkpt>
      <trkpt lat="43.096061004325747" lon="-0.037458976730704">
        <ele>398.60000000000002</ele>
        <time>2025-04-26T12:46:32Z</time>
      </trkpt>
      <trkpt lat="43.09610903263092" lon="-0.03759803250432">
        <ele>398.60000000000002</ele>
        <time>2025-04-26T12:46:33Z</time>
      </trkpt>
      <trkpt lat="43.096162006258965" lon="-0.037696016952395">
        <ele>398.60000000000002</ele>
        <time>2025-04-26T12:46:34Z</time>
      </trkpt>
      <trkpt lat="43.096874970942736" lon="-0.038346033543348">
        <ele>397.63999999999999</ele>
        <time>2025-04-26T12:46:44Z</time>
      </trkpt>
      <trkpt lat="43.097219970077276" lon="-0.038559017702937">
        <ele>397.63999999999999</ele>
        <time>2025-04-26T12:46:51Z</time>
      </trkpt>
      <trkpt lat="43.097308985888958" lon="-0.038567986339331">
        <ele>397.16000000000003</ele>
        <time>2025-04-26T12:46:53Z</time>
      </trkpt>
      <trkpt lat="43.097347039729357" lon="-0.038573015481234">
        <ele>397.16000000000003</ele>
        <time>2025-04-26T12:46:54Z</time>
      </trkpt>
      <trkpt lat="43.097413005307317" lon="-0.038580978289247">
        <ele>397.16000000000003</ele>
        <time>2025-04-26T12:46:55Z</time>
      </trkpt>
      <trkpt lat="43.097413005307317" lon="-0.038611991330981">
        <ele>397.16000000000003</ele>
        <time>2025-04-26T12:46:56Z</time>
      </trkpt>
      <trkpt lat="43.097364977002144" lon="-0.03873897716403">
        <ele>397.16000000000003</ele>
        <time>2025-04-26T12:46:57Z</time>
      </trkpt>
      <trkpt lat="43.097329018637538" lon="-0.038745012134314">
        <ele>397.16000000000003</ele>
        <time>2025-04-26T12:46:58Z</time>
      </trkpt>
      <trkpt lat="43.097278978675604" lon="-0.038752974942327">
        <ele>397.16000000000003</ele>
        <time>2025-04-26T12:46:59Z</time>
      </trkpt>
      <trkpt lat="43.097220975905657" lon="-0.038763033226132">
        <ele>397.16000000000003</ele>
        <time>2025-04-26T12:47:00Z</time>
      </trkpt>
      <trkpt lat="43.097161967307329" lon="-0.038773007690907">
        <ele>396.68000000000001</ele>
        <time>2025-04-26T12:47:01Z</time>
      </trkpt>
      <trkpt lat="43.097156016156077" lon="-0.038774013519287">
        <ele>396.68000000000001</ele>
        <time>2025-04-26T12:47:02Z</time>
      </trkpt>
      <trkpt lat="43.097013020887971" lon="-0.038706958293915">
        <ele>396.19999999999999</ele>
        <time>2025-04-26T12:47:03Z</time>
      </trkpt>
      <trkpt lat="43.096970021724701" lon="-0.038764039054513">
        <ele>396.19999999999999</ele>
        <time>2025-04-26T12:47:04Z</time>
      </trkpt>
      <trkpt lat="43.096922999247909" lon="-0.038825981318951">
        <ele>395.72000000000003</ele>
        <time>2025-04-26T12:47:05Z</time>
      </trkpt>
      <trkpt lat="43.096833983436227" lon="-0.038946010172367">
        <ele>395.24000000000001</ele>
        <time>2025-04-26T12:47:06Z</time>
      </trkpt>
      <trkpt lat="43.096140967682004" lon="-0.039315987378359">
        <ele>387.55000000000001</ele>
        <time>2025-04-26T12:47:16Z</time>
      </trkpt>
      <trkpt lat="43.095538979396224" lon="-0.039603989571333">
        <ele>390.91000000000003</ele>
        <time>2025-04-26T12:47:24Z</time>
      </trkpt>
      <trkpt lat="43.095464967191219" lon="-0.039641037583351">
        <ele>390.91000000000003</ele>
        <time>2025-04-26T12:47:25Z</time>
      </trkpt>
      <trkpt lat="43.094937996938825" lon="-0.039887968450785">
        <ele>393.31999999999999</ele>
        <time>2025-04-26T12:47:35Z</time>
      </trkpt>
      <trkpt lat="43.094774968922138" lon="-0.039996011182666">
        <ele>395.24000000000001</ele>
        <time>2025-04-26T12:47:39Z</time>
      </trkpt>
      <trkpt lat="43.094743033871055" lon="-0.040066000074148">
        <ele>395.24000000000001</ele>
        <time>2025-04-26T12:47:40Z</time>
      </trkpt>
      <trkpt lat="43.094711015000939" lon="-0.040138000622392">
        <ele>395.72000000000003</ele>
        <time>2025-04-26T12:47:41Z</time>
      </trkpt>
      <trkpt lat="43.094676984474063" lon="-0.040216958150268">
        <ele>396.19999999999999</ele>
        <time>2025-04-26T12:47:42Z</time>
      </trkpt>
      <trkpt lat="43.094641026109457" lon="-0.040302034467459">
        <ele>396.68000000000001</ele>
        <time>2025-04-26T12:47:43Z</time>
      </trkpt>
      <trkpt lat="43.094341037794948" lon="-0.041013993322849">
        <ele>399.07999999999998</ele>
        <time>2025-04-26T12:47:50Z</time>
      </trkpt>
      <trkpt lat="43.094299966469407" lon="-0.041110971942544">
        <ele>399.07999999999998</ele>
        <time>2025-04-26T12:47:51Z</time>
      </trkpt>
      <trkpt lat="43.09421899728477" lon="-0.041304007172585">
        <ele>400.05000000000001</ele>
        <time>2025-04-26T12:47:53Z</time>
      </trkpt>
      <trkpt lat="43.094178009778261" lon="-0.04140199162066">
        <ele>400.05000000000001</ele>
        <time>2025-04-26T12:47:54Z</time>
      </trkpt>
      <trkpt lat="43.094059992581606" lon="-0.041708014905453">
        <ele>401.49000000000001</ele>
        <time>2025-04-26T12:47:57Z</time>
      </trkpt>
      <trkpt lat="43.093992015346885" lon="-0.041883029043674">
        <ele>402.44999999999999</ele>
        <time>2025-04-26T12:47:59Z</time>
      </trkpt>
      <trkpt lat="43.094000983983278" lon="-0.042014038190246">
        <ele>402.93000000000001</ele>
        <time>2025-04-26T12:48:00Z</time>
      </trkpt>
      <trkpt lat="43.094000983983278" lon="-0.04204697906971">
        <ele>403.41000000000003</ele>
        <time>2025-04-26T12:48:01Z</time>
      </trkpt>
      <trkpt lat="43.093957984820008" lon="-0.042143035680056">
        <ele>404.37</ele>
        <time>2025-04-26T12:48:02Z</time>
      </trkpt>
      <trkpt lat="43.093941975384951" lon="-0.042167007923126">
        <ele>404.85000000000002</ele>
        <time>2025-04-26T12:48:03Z</time>
      </trkpt>
      <trkpt lat="43.093907022848725" lon="-0.04221998155117">
        <ele>405.81</ele>
        <time>2025-04-26T12:48:04Z</time>
      </trkpt>
      <trkpt lat="43.093867963179946" lon="-0.042285025119781">
        <ele>406.29000000000002</ele>
        <time>2025-04-26T12:48:05Z</time>
      </trkpt>
      <trkpt lat="43.093843990936875" lon="-0.042357025668025">
        <ele>406.76999999999998</ele>
        <time>2025-04-26T12:48:06Z</time>
      </trkpt>
      <trkpt lat="43.093807026743889" lon="-0.042499015107751">
        <ele>407.25999999999999</ele>
        <time>2025-04-26T12:48:08Z</time>
      </trkpt>
      <trkpt lat="43.093786993995309" lon="-0.042529022321105">
        <ele>407.74000000000001</ele>
        <time>2025-04-26T12:48:09Z</time>
      </trkpt>
      <trkpt lat="43.093205960467458" lon="-0.043238969519734">
        <ele>410.13999999999999</ele>
        <time>2025-04-26T12:48:19Z</time>
      </trkpt>
      <trkpt lat="43.092989036813378" lon="-0.043582962825894">
        <ele>411.10000000000002</ele>
        <time>2025-04-26T12:48:25Z</time>
      </trkpt>
      <trkpt lat="43.092949977144599" lon="-0.043644988909364">
        <ele>411.10000000000002</ele>
        <time>2025-04-26T12:48:26Z</time>
      </trkpt>
      <trkpt lat="43.092515962198377" lon="-0.04440899938345">
        <ele>412.06</ele>
        <time>2025-04-26T12:48:36Z</time>
      </trkpt>
      <trkpt lat="43.09241303242743" lon="-0.044588958844543">
        <ele>412.06</ele>
        <time>2025-04-26T12:48:38Z</time>
      </trkpt>
      <trkpt lat="43.09239199385047" lon="-0.044662971049547">
        <ele>412.06</ele>
        <time>2025-04-26T12:48:39Z</time>
      </trkpt>
      <trkpt lat="43.092365004122257" lon="-0.044758021831512">
        <ele>412.54000000000002</ele>
        <time>2025-04-26T12:48:40Z</time>
      </trkpt>
      <trkpt lat="43.092338014394045" lon="-0.044852988794446">
        <ele>413.01999999999998</ele>
        <time>2025-04-26T12:48:41Z</time>
      </trkpt>
      <trkpt lat="43.092316975817084" lon="-0.044958014041185">
        <ele>413.01999999999998</ele>
        <time>2025-04-26T12:48:42Z</time>
      </trkpt>
      <trkpt lat="43.09228403493762" lon="-0.045164041221142">
        <ele>414.47000000000003</ele>
        <time>2025-04-26T12:48:44Z</time>
      </trkpt>
      <trkpt lat="43.09226299636066" lon="-0.045368978753686">
        <ele>415.91000000000003</ele>
        <time>2025-04-26T12:48:46Z</time>
      </trkpt>
      <trkpt lat="43.09226299636066" lon="-0.045463023707271">
        <ele>416.38999999999999</ele>
        <time>2025-04-26T12:48:47Z</time>
      </trkpt>
      <trkpt lat="43.09226299636066" lon="-0.045556984841824">
        <ele>416.87</ele>
        <time>2025-04-26T12:48:48Z</time>
      </trkpt>
      <trkpt lat="43.09221999719739" lon="-0.046047996729612">
        <ele>421.68000000000001</ele>
        <time>2025-04-26T12:48:56Z</time>
      </trkpt>
      <trkpt lat="43.092170963063836" lon="-0.046198032796383">
        <ele>423.12</ele>
        <time>2025-04-26T12:48:59Z</time>
      </trkpt>
      <trkpt lat="43.092118995264173" lon="-0.046198032796383">
        <ele>423.12</ele>
        <time>2025-04-26T12:49:00Z</time>
      </trkpt>
      <trkpt lat="43.092056969180703" lon="-0.046198032796383">
        <ele>423.60000000000002</ele>
        <time>2025-04-26T12:49:01Z</time>
      </trkpt>
      <trkpt lat="43.091991003602743" lon="-0.046198032796383">
        <ele>424.07999999999998</ele>
        <time>2025-04-26T12:49:02Z</time>
      </trkpt>
      <trkpt lat="43.091926965862513" lon="-0.046198032796383">
        <ele>424.56</ele>
        <time>2025-04-26T12:49:03Z</time>
      </trkpt>
      <trkpt lat="43.091725967824459" lon="-0.04619300365448">
        <ele>425.51999999999998</ele>
        <time>2025-04-26T12:49:06Z</time>
      </trkpt>
      <trkpt lat="43.091117022559047" lon="-0.046155033633113">
        <ele>426.95999999999998</ele>
        <time>2025-04-26T12:49:15Z</time>
      </trkpt>
      <trkpt lat="43.0910399928689" lon="-0.046155033633113">
        <ele>426.95999999999998</ele>
        <time>2025-04-26T12:49:16Z</time>
      </trkpt>
      <trkpt lat="43.090981990098953" lon="-0.046155033633113">
        <ele>426.95999999999998</ele>
        <time>2025-04-26T12:49:17Z</time>
      </trkpt>
      <trkpt lat="43.090913007035851" lon="-0.046155033633113">
        <ele>426.95999999999998</ele>
        <time>2025-04-26T12:49:18Z</time>
      </trkpt>
      <trkpt lat="43.090843018144369" lon="-0.046155033633113">
        <ele>426.95999999999998</ele>
        <time>2025-04-26T12:49:19Z</time>
      </trkpt>
      <trkpt lat="43.09076095931232" lon="-0.046155033633113">
        <ele>426.95999999999998</ele>
        <time>2025-04-26T12:49:20Z</time>
      </trkpt>
      <trkpt lat="43.090199958533049" lon="-0.046133995056152">
        <ele>427.44</ele>
        <time>2025-04-26T12:49:28Z</time>
      </trkpt>
      <trkpt lat="43.090130975469947" lon="-0.046133995056152">
        <ele>426.95999999999998</ele>
        <time>2025-04-26T12:49:29Z</time>
      </trkpt>
      <trkpt lat="43.090061992406845" lon="-0.046133995056152">
        <ele>426.48000000000002</ele>
        <time>2025-04-26T12:49:30Z</time>
      </trkpt>
      <trkpt lat="43.089774996042252" lon="-0.046113040298223">
        <ele>426</ele>
        <time>2025-04-26T12:49:34Z</time>
      </trkpt>
      <trkpt lat="43.089711964130402" lon="-0.046113040298223">
        <ele>425.51999999999998</ele>
        <time>2025-04-26T12:49:35Z</time>
      </trkpt>
      <trkpt lat="43.089678017422557" lon="-0.046219993382692">
        <ele>424.07999999999998</ele>
        <time>2025-04-26T12:49:36Z</time>
      </trkpt>
      <trkpt lat="43.089641975238919" lon="-0.046291993930936">
        <ele>422.63999999999999</ele>
        <time>2025-04-26T12:49:37Z</time>
      </trkpt>
      <trkpt lat="43.089597970247269" lon="-0.046378998085856">
        <ele>421.68000000000001</ele>
        <time>2025-04-26T12:49:38Z</time>
      </trkpt>
      <trkpt lat="43.089554971083999" lon="-0.046472037211061">
        <ele>420.70999999999998</ele>
        <time>2025-04-26T12:49:39Z</time>
      </trkpt>
      <trkpt lat="43.089475007727742" lon="-0.046667000278831">
        <ele>419.26999999999998</ele>
        <time>2025-04-26T12:49:41Z</time>
      </trkpt>
      <trkpt lat="43.089436031877995" lon="-0.046764984726906">
        <ele>418.79000000000002</ele>
        <time>2025-04-26T12:49:42Z</time>
      </trkpt>
      <trkpt lat="43.089408036321402" lon="-0.046861963346601">
        <ele>417.82999999999998</ele>
        <time>2025-04-26T12:49:43Z</time>
      </trkpt>
      <trkpt lat="43.089380962774158" lon="-0.046961959451437">
        <ele>416.87</ele>
        <time>2025-04-26T12:49:44Z</time>
      </trkpt>
      <trkpt lat="43.089372999966145" lon="-0.047050975263119">
        <ele>415.91000000000003</ele>
        <time>2025-04-26T12:49:45Z</time>
      </trkpt>
      <trkpt lat="43.089391021057963" lon="-0.047152983024716">
        <ele>414.94999999999999</ele>
        <time>2025-04-26T12:49:46Z</time>
      </trkpt>
      <trkpt lat="43.08940895833075" lon="-0.047255996614695">
        <ele>413.5</ele>
        <time>2025-04-26T12:49:47Z</time>
      </trkpt>
      <trkpt lat="43.089426979422569" lon="-0.047359010204673">
        <ele>412.54000000000002</ele>
        <time>2025-04-26T12:49:48Z</time>
      </trkpt>
      <trkpt lat="43.089462015777826" lon="-0.047446014359593">
        <ele>411.57999999999998</ele>
        <time>2025-04-26T12:49:49Z</time>
      </trkpt>
      <trkpt lat="43.089506020769477" lon="-0.047541987150908">
        <ele>411.10000000000002</ele>
        <time>2025-04-26T12:49:50Z</time>
      </trkpt>
      <trkpt lat="43.089549019932747" lon="-0.047634020447731">
        <ele>410.62</ele>
        <time>2025-04-26T12:49:51Z</time>
      </trkpt>
      <trkpt lat="43.089541979134083" lon="-0.047752037644386">
        <ele>410.62</ele>
        <time>2025-04-26T12:49:52Z</time>
      </trkpt>
      <trkpt lat="43.089524963870645" lon="-0.047851027920842">
        <ele>410.13999999999999</ele>
        <time>2025-04-26T12:49:53Z</time>
      </trkpt>
      <trkpt lat="43.089498979970813" lon="-0.047949012368917">
        <ele>409.66000000000003</ele>
        <time>2025-04-26T12:49:54Z</time>
      </trkpt>
      <trkpt lat="43.089467966929078" lon="-0.048046996816993">
        <ele>409.18000000000001</ele>
        <time>2025-04-26T12:49:55Z</time>
      </trkpt>
      <trkpt lat="43.089408036321402" lon="-0.04823500290513">
        <ele>408.69999999999999</ele>
        <time>2025-04-26T12:49:57Z</time>
      </trkpt>
      <trkpt lat="43.089381968602538" lon="-0.048316977918148">
        <ele>408.22000000000003</ele>
        <time>2025-04-26T12:49:58Z</time>
      </trkpt>
      <trkpt lat="43.089351961389184" lon="-0.04838403314352">
        <ele>407.74000000000001</ele>
        <time>2025-04-26T12:49:59Z</time>
      </trkpt>
      <trkpt lat="43.089014003053308" lon="-0.048977974802256">
        <ele>405.32999999999998</ele>
        <time>2025-04-26T12:50:06Z</time>
      </trkpt>
      <trkpt lat="43.088987013325095" lon="-0.04907201975584">
        <ele>404.85000000000002</ele>
        <time>2025-04-26T12:50:07Z</time>
      </trkpt>
      <trkpt lat="43.088965974748135" lon="-0.049170004203916">
        <ele>404.37</ele>
        <time>2025-04-26T12:50:08Z</time>
      </trkpt>
      <trkpt lat="43.088928004726768" lon="-0.049367984756827">
        <ele>402.93000000000001</ele>
        <time>2025-04-26T12:50:10Z</time>
      </trkpt>
      <trkpt lat="43.088905038312078" lon="-0.049706026911736">
        <ele>401.00999999999999</ele>
        <time>2025-04-26T12:50:13Z</time>
      </trkpt>
      <trkpt lat="43.088915012776852" lon="-0.049838963896036">
        <ele>400.52999999999997</ele>
        <time>2025-04-26T12:50:14Z</time>
      </trkpt>
      <trkpt lat="43.0889349617064" lon="-0.050136018544436">
        <ele>399.07999999999998</ele>
        <time>2025-04-26T12:50:16Z</time>
      </trkpt>
      <trkpt lat="43.089252971112728" lon="-0.051408978179097">
        <ele>389.47000000000003</ele>
        <time>2025-04-26T12:50:25Z</time>
      </trkpt>
      <trkpt lat="43.089455980807543" lon="-0.052172988653183">
        <ele>385.63</ele>
        <time>2025-04-26T12:50:31Z</time>
      </trkpt>
      <trkpt lat="43.089487999677658" lon="-0.052291005849838">
        <ele>384.66000000000003</ele>
        <time>2025-04-26T12:50:32Z</time>
      </trkpt>
      <trkpt lat="43.089796034619212" lon="-0.053404960781336">
        <ele>382.25999999999999</ele>
        <time>2025-04-26T12:50:42Z</time>
      </trkpt>
      <trkpt lat="43.089928971603513" lon="-0.053768986836076">
        <ele>380.33999999999997</ele>
        <time>2025-04-26T12:50:50Z</time>
      </trkpt>
      <trkpt lat="43.089947998523712" lon="-0.053813997656107">
        <ele>380.33999999999997</ele>
        <time>2025-04-26T12:50:51Z</time>
      </trkpt>
      <trkpt lat="43.089974988251925" lon="-0.05386303178966">
        <ele>380.33999999999997</ele>
        <time>2025-04-26T12:50:52Z</time>
      </trkpt>
      <trkpt lat="43.090024022385478" lon="-0.053890021517873">
        <ele>380.33999999999997</ele>
        <time>2025-04-26T12:50:53Z</time>
      </trkpt>
      <trkpt lat="43.090426018461585" lon="-0.054109962657094">
        <ele>380.81999999999999</ele>
        <time>2025-04-26T12:51:00Z</time>
      </trkpt>
      <trkpt lat="43.090487038716674" lon="-0.05414298735559">
        <ele>380.81999999999999</ele>
        <time>2025-04-26T12:51:01Z</time>
      </trkpt>
      <trkpt lat="43.090972015634179" lon="-0.05442101508379">
        <ele>381.30000000000001</ele>
        <time>2025-04-26T12:51:09Z</time>
      </trkpt>
      <trkpt lat="43.091478031128645" lon="-0.054698036983609">
        <ele>381.30000000000001</ele>
        <time>2025-04-26T12:51:20Z</time>
      </trkpt>
      <trkpt lat="43.091660002246499" lon="-0.054804990068078">
        <ele>381.30000000000001</ele>
        <time>2025-04-26T12:51:25Z</time>
      </trkpt>
      <trkpt lat="43.091824036091566" lon="-0.054924013093114">
        <ele>382.25999999999999</ele>
        <time>2025-04-26T12:51:29Z</time>
      </trkpt>
      <trkpt lat="43.091849014163017" lon="-0.054955026134849">
        <ele>382.25999999999999</ele>
        <time>2025-04-26T12:51:30Z</time>
      </trkpt>
      <trkpt lat="43.09187700971961" lon="-0.054996013641357">
        <ele>382.74000000000001</ele>
        <time>2025-04-26T12:51:31Z</time>
      </trkpt>
      <trkpt lat="43.091907016932964" lon="-0.05504596978426">
        <ele>382.74000000000001</ele>
        <time>2025-04-26T12:51:32Z</time>
      </trkpt>
      <trkpt lat="43.091940963640809" lon="-0.055102966725826">
        <ele>382.74000000000001</ele>
        <time>2025-04-26T12:51:33Z</time>
      </trkpt>
      <trkpt lat="43.09204900637269" lon="-0.055274963378906">
        <ele>382.74000000000001</ele>
        <time>2025-04-26T12:51:36Z</time>
      </trkpt>
      <trkpt lat="43.092060992494226" lon="-0.055300025269389">
        <ele>382.74000000000001</ele>
        <time>2025-04-26T12:51:37Z</time>
      </trkpt>
      <trkpt lat="43.092086976394057" lon="-0.055350987240672">
        <ele>382.74000000000001</ele>
        <time>2025-04-26T12:51:38Z</time>
      </trkpt>
      <trkpt lat="43.09211103245616" lon="-0.055399015545845">
        <ele>382.74000000000001</ele>
        <time>2025-04-26T12:51:39Z</time>
      </trkpt>
      <trkpt lat="43.09213399887085" lon="-0.055445032194257">
        <ele>382.74000000000001</ele>
        <time>2025-04-26T12:51:40Z</time>
      </trkpt>
      <trkpt lat="43.092155959457159" lon="-0.055489959195256">
        <ele>382.74000000000001</ele>
        <time>2025-04-26T12:51:41Z</time>
      </trkpt>
      <trkpt lat="43.092232989147305" lon="-0.055599007755518">
        <ele>382.74000000000001</ele>
        <time>2025-04-26T12:51:44Z</time>
      </trkpt>
      <trkpt lat="43.092255033552647" lon="-0.055629014968872">
        <ele>382.74000000000001</ele>
        <time>2025-04-26T12:51:45Z</time>
      </trkpt>
      <trkpt lat="43.09230599552393" lon="-0.05560202524066">
        <ele>382.25999999999999</ele>
        <time>2025-04-26T12:51:46Z</time>
      </trkpt>
      <trkpt lat="43.092345977202058" lon="-0.055565983057022">
        <ele>382.25999999999999</ele>
        <time>2025-04-26T12:51:47Z</time>
      </trkpt>
      <trkpt lat="43.092396017163992" lon="-0.055521978065372">
        <ele>382.25999999999999</ele>
        <time>2025-04-26T12:51:48Z</time>
      </trkpt>
      <trkpt lat="43.092447984963655" lon="-0.05547596141696">
        <ele>381.77999999999997</ele>
        <time>2025-04-26T12:51:49Z</time>
      </trkpt>
      <trkpt lat="43.0925009585917" lon="-0.055429022759199">
        <ele>381.77999999999997</ele>
        <time>2025-04-26T12:51:50Z</time>
      </trkpt>
      <trkpt lat="43.092558039352298" lon="-0.055378982797265">
        <ele>381.77999999999997</ele>
        <time>2025-04-26T12:51:51Z</time>
      </trkpt>
      <trkpt lat="43.093042010441422" lon="-0.054949996992946">
        <ele>381.30000000000001</ele>
        <time>2025-04-26T12:51:59Z</time>
      </trkpt>
      <trkpt lat="43.093103030696511" lon="-0.054896017536521">
        <ele>381.30000000000001</ele>
        <time>2025-04-26T12:52:00Z</time>
      </trkpt>
      <trkpt lat="43.093515001237392" lon="-0.054454961791635">
        <ele>382.25999999999999</ele>
        <time>2025-04-26T12:52:07Z</time>
      </trkpt>
      <trkpt lat="43.093647016212344" lon="-0.054306015372276">
        <ele>382.74000000000001</ele>
        <time>2025-04-26T12:52:09Z</time>
      </trkpt>
      <trkpt lat="43.093794034793973" lon="-0.054160002619028">
        <ele>384.18000000000001</ele>
        <time>2025-04-26T12:52:11Z</time>
      </trkpt>
      <trkpt lat="43.093865029513836" lon="-0.054094959050417">
        <ele>384.66000000000003</ele>
        <time>2025-04-26T12:52:12Z</time>
      </trkpt>
      <trkpt lat="43.09393803589046" lon="-0.054027987644076">
        <ele>385.14999999999998</ele>
        <time>2025-04-26T12:52:13Z</time>
      </trkpt>
      <trkpt lat="43.094008024781942" lon="-0.053965039551258">
        <ele>385.63</ele>
        <time>2025-04-26T12:52:14Z</time>
      </trkpt>
      <trkpt lat="43.094078013673425" lon="-0.053901001811028">
        <ele>385.63</ele>
        <time>2025-04-26T12:52:15Z</time>
      </trkpt>
      <trkpt lat="43.094143979251385" lon="-0.053839981555939">
        <ele>385.63</ele>
        <time>2025-04-26T12:52:16Z</time>
      </trkpt>
      <trkpt lat="43.094144985079765" lon="-0.053839981555939">
        <ele>385.14999999999998</ele>
        <time>2025-04-26T12:52:17Z</time>
      </trkpt>
      <trkpt lat="43.094231989234686" lon="-0.053761024028063">
        <ele>384.66000000000003</ele>
        <time>2025-04-26T12:52:18Z</time>
      </trkpt>
      <trkpt lat="43.094223020598292" lon="-0.053859008476138">
        <ele>384.18000000000001</ele>
        <time>2025-04-26T12:52:19Z</time>
      </trkpt>
      <trkpt lat="43.094229977577925" lon="-0.053873006254435">
        <ele>383.22000000000003</ele>
        <time>2025-04-26T12:52:20Z</time>
      </trkpt>
      <trkpt lat="43.094241041690111" lon="-0.053898990154266">
        <ele>382.74000000000001</ele>
        <time>2025-04-26T12:52:21Z</time>
      </trkpt>
      <trkpt lat="43.094258978962898" lon="-0.053937966004014">
        <ele>382.25999999999999</ele>
        <time>2025-04-26T12:52:22Z</time>
      </trkpt>
      <trkpt lat="43.094279011711478" lon="-0.053982976824045">
        <ele>382.25999999999999</ele>
        <time>2025-04-26T12:52:23Z</time>
      </trkpt>
      <trkpt lat="43.094303989782929" lon="-0.05403796210885">
        <ele>381.77999999999997</ele>
        <time>2025-04-26T12:52:24Z</time>
      </trkpt>
      <trkpt lat="43.094558967277408" lon="-0.054610027000308">
        <ele>377.94</ele>
        <time>2025-04-26T12:52:32Z</time>
      </trkpt>
      <trkpt lat="43.094574976712465" lon="-0.054647997021675">
        <ele>377.94</ele>
        <time>2025-04-26T12:52:33Z</time>
      </trkpt>
      <trkpt lat="43.094600960612297" lon="-0.054712034761906">
        <ele>377.44999999999999</ele>
        <time>2025-04-26T12:52:34Z</time>
      </trkpt>
      <trkpt lat="43.094886029139161" lon="-0.055398009717464">
        <ele>375.05000000000001</ele>
        <time>2025-04-26T12:52:43Z</time>
      </trkpt>
      <trkpt lat="43.094901032745838" lon="-0.05543396808207">
        <ele>374.56999999999999</ele>
        <time>2025-04-26T12:52:44Z</time>
      </trkpt>
      <trkpt lat="43.094865996390581" lon="-0.055509991943836">
        <ele>374.56999999999999</ele>
        <time>2025-04-26T12:52:46Z</time>
      </trkpt>
      <trkpt lat="43.094472968950868" lon="-0.055704033002257">
        <ele>372.64999999999998</ele>
        <time>2025-04-26T12:52:53Z</time>
      </trkpt>
      <trkpt lat="43.094472968950868" lon="-0.055704033002257">
        <ele>372.64999999999998</ele>
        <time>2025-04-26T12:52:54Z</time>
      </trkpt>
      <trkpt lat="43.094472968950868" lon="-0.055704033002257">
        <ele>372.17000000000002</ele>
        <time>2025-04-26T12:52:55Z</time>
      </trkpt>
      <trkpt lat="43.094472968950868" lon="-0.055704033002257">
        <ele>373.61000000000001</ele>
        <time>2025-04-26T12:53:03Z</time>
      </trkpt>
      <trkpt lat="43.094472968950868" lon="-0.055704033002257">
        <ele>373.61000000000001</ele>
        <time>2025-04-26T12:53:04Z</time>
      </trkpt>
      <trkpt lat="43.094471963122487" lon="-0.05571199581027">
        <ele>374.56999999999999</ele>
        <time>2025-04-26T12:53:05Z</time>
      </trkpt>
      <trkpt lat="43.094455031678081" lon="-0.055787013843656">
        <ele>375.52999999999997</ele>
        <time>2025-04-26T12:53:06Z</time>
      </trkpt>
      <trkpt lat="43.094436004757881" lon="-0.055873012170196">
        <ele>376.97000000000003</ele>
        <time>2025-04-26T12:53:07Z</time>
      </trkpt>
      <trkpt lat="43.094415972009301" lon="-0.055962027981877">
        <ele>377.94</ele>
        <time>2025-04-26T12:53:08Z</time>
      </trkpt>
      <trkpt lat="43.094396023079753" lon="-0.056050037965178">
        <ele>378.89999999999998</ele>
        <time>2025-04-26T12:53:09Z</time>
      </trkpt>
      <trkpt lat="43.094410020858049" lon="-0.056151961907744">
        <ele>378.89999999999998</ele>
        <time>2025-04-26T12:53:10Z</time>
      </trkpt>
      <trkpt lat="43.094441033899784" lon="-0.056236032396555">
        <ele>379.38</ele>
        <time>2025-04-26T12:53:11Z</time>
      </trkpt>
      <trkpt lat="43.094470035284758" lon="-0.056318007409573">
        <ele>379.38</ele>
        <time>2025-04-26T12:53:12Z</time>
      </trkpt>
      <trkpt lat="43.094472968950868" lon="-0.056325970217586">
        <ele>379.86000000000001</ele>
        <time>2025-04-26T12:53:13Z</time>
      </trkpt>
      <trkpt lat="43.094472968950868" lon="-0.056325970217586">
        <ele>379.86000000000001</ele>
        <time>2025-04-26T12:53:14Z</time>
      </trkpt>
      <trkpt lat="43.094675978645682" lon="-0.056448010727763">
        <ele>378.42000000000002</ele>
        <time>2025-04-26T12:53:18Z</time>
      </trkpt>
      <trkpt lat="43.094782009720802" lon="-0.05646200850606">
        <ele>377.44999999999999</ele>
        <time>2025-04-26T12:53:21Z</time>
      </trkpt>
      <trkpt lat="43.094856021925807" lon="-0.056467959657311">
        <ele>377.44999999999999</ele>
        <time>2025-04-26T12:53:22Z</time>
      </trkpt>
      <trkpt lat="43.095077974721789" lon="-0.056397970765829">
        <ele>377.44999999999999</ele>
        <time>2025-04-26T12:53:26Z</time>
      </trkpt>
      <trkpt lat="43.095166990533471" lon="-0.05633401684463">
        <ele>377.44999999999999</ele>
        <time>2025-04-26T12:53:28Z</time>
      </trkpt>
      <trkpt lat="43.095236979424953" lon="-0.056283976882696">
        <ele>377.94</ele>
        <time>2025-04-26T12:53:29Z</time>
      </trkpt>
      <trkpt lat="43.095266986638308" lon="-0.056262016296387">
        <ele>378.89999999999998</ele>
        <time>2025-04-26T12:53:30Z</time>
      </trkpt>
      <trkpt lat="43.095332030206919" lon="-0.056154979392886">
        <ele>378.89999999999998</ele>
        <time>2025-04-26T12:53:31Z</time>
      </trkpt>
      <trkpt lat="43.095332030206919" lon="-0.056154979392886">
        <ele>379.38</ele>
        <time>2025-04-26T12:53:32Z</time>
      </trkpt>
      <trkpt lat="43.095332030206919" lon="-0.056121032685041">
        <ele>379.86000000000001</ele>
        <time>2025-04-26T12:53:33Z</time>
      </trkpt>
      <trkpt lat="43.095332030206919" lon="-0.055993041023612">
        <ele>379.38</ele>
        <time>2025-04-26T12:53:47Z</time>
      </trkpt>
      <trkpt lat="43.095350973308086" lon="-0.055917017161846">
        <ele>379.38</ele>
        <time>2025-04-26T12:54:05Z</time>
      </trkpt>
      <trkpt lat="43.09537704102695" lon="-0.055884998291731">
        <ele>379.38</ele>
        <time>2025-04-26T12:54:06Z</time>
      </trkpt>
      <trkpt lat="43.095673006027937" lon="-0.055656004697084">
        <ele>377.44999999999999</ele>
        <time>2025-04-26T12:54:19Z</time>
      </trkpt>
      <trkpt lat="43.096166029572487" lon="-0.055435979738832">
        <ele>375.52999999999997</ele>
        <time>2025-04-26T12:54:34Z</time>
      </trkpt>
      <trkpt lat="43.096190001815557" lon="-0.055424999445677">
        <ele>375.52999999999997</ele>
        <time>2025-04-26T12:54:45Z</time>
      </trkpt>
      <trkpt lat="43.096148008480668" lon="-0.055443020537496">
        <ele>374.08999999999997</ele>
        <time>2025-04-26T12:54:49Z</time>
      </trkpt>
      <trkpt lat="43.096124958246946" lon="-0.05545299500227">
        <ele>373.61000000000001</ele>
        <time>2025-04-26T12:54:50Z</time>
      </trkpt>
      <trkpt lat="43.096097968518734" lon="-0.055464981123805">
        <ele>373.13</ele>
        <time>2025-04-26T12:54:51Z</time>
      </trkpt>
      <trkpt lat="43.09606603346765" lon="-0.055478978902102">
        <ele>372.64999999999998</ele>
        <time>2025-04-26T12:54:52Z</time>
      </trkpt>
      <trkpt lat="43.096028985455632" lon="-0.055494988337159">
        <ele>372.64999999999998</ele>
        <time>2025-04-26T12:54:53Z</time>
      </trkpt>
      <trkpt lat="43.095822036266327" lon="-0.055585009977221">
        <ele>367.83999999999997</ele>
        <time>2025-04-26T12:55:04Z</time>
      </trkpt>
      <trkpt lat="43.095822036266327" lon="-0.055585009977221">
        <ele>366.88</ele>
        <time>2025-04-26T12:55:19Z</time>
      </trkpt>
      <trkpt lat="43.095656996592879" lon="-0.055665979161859">
        <ele>364.95999999999998</ele>
        <time>2025-04-26T12:55:36Z</time>
      </trkpt>
      <trkpt lat="43.095538979396224" lon="-0.055745020508766">
        <ele>364.95999999999998</ele>
        <time>2025-04-26T12:55:47Z</time>
      </trkpt>
      <trkpt lat="43.095450969412923" lon="-0.055752983316779">
        <ele>365.44</ele>
        <time>2025-04-26T12:55:49Z</time>
      </trkpt>
      <trkpt lat="43.095457004383206" lon="-0.055722976103425">
        <ele>365.92000000000002</ele>
        <time>2025-04-26T12:55:50Z</time>
      </trkpt>
      <trkpt lat="43.095567980781198" lon="-0.055724987760186">
        <ele>366.39999999999998</ele>
        <time>2025-04-26T12:55:51Z</time>
      </trkpt>
      <trkpt lat="43.096018005162477" lon="-0.055243028327823">
        <ele>366.88</ele>
        <time>2025-04-26T12:56:07Z</time>
      </trkpt>
      <trkpt lat="43.096312964335084" lon="-0.054931975901127">
        <ele>367.36000000000001</ele>
        <time>2025-04-26T12:56:21Z</time>
      </trkpt>
      <trkpt lat="43.096309024840593" lon="-0.054915966466069">
        <ele>366.88</ele>
        <time>2025-04-26T12:56:36Z</time>
      </trkpt>
      <trkpt lat="43.09623702429235" lon="-0.054642967879772">
        <ele>369.27999999999997</ele>
        <time>2025-04-26T12:56:47Z</time>
      </trkpt>
      <trkpt lat="43.096306007355452" lon="-0.054497960954905">
        <ele>369.27999999999997</ele>
        <time>2025-04-26T12:56:48Z</time>
      </trkpt>
      <trkpt lat="43.096340037882328" lon="-0.054481029510498">
        <ele>369.75999999999999</ele>
        <time>2025-04-26T12:56:49Z</time>
      </trkpt>
      <trkpt lat="43.096372978761792" lon="-0.05446502007544">
        <ele>370.24000000000001</ele>
        <time>2025-04-26T12:56:50Z</time>
      </trkpt>
      <trkpt lat="43.096402985975146" lon="-0.054450016468763">
        <ele>370.73000000000002</ele>
        <time>2025-04-26T12:56:51Z</time>
      </trkpt>
      <trkpt lat="43.096426958218217" lon="-0.054438030347228">
        <ele>371.20999999999998</ele>
        <time>2025-04-26T12:56:52Z</time>
      </trkpt>
      <trkpt lat="43.096446990966797" lon="-0.054427972063422">
        <ele>371.20999999999998</ele>
        <time>2025-04-26T12:56:53Z</time>
      </trkpt>
      <trkpt lat="43.096484960988164" lon="-0.054409028962255">
        <ele>371.20999999999998</ele>
        <time>2025-04-26T12:57:04Z</time>
      </trkpt>
      <trkpt lat="43.096484960988164" lon="-0.054409028962255">
        <ele>371.69</ele>
        <time>2025-04-26T12:57:21Z</time>
      </trkpt>
      <trkpt lat="43.096585040912032" lon="-0.054361000657082">
        <ele>372.17000000000002</ele>
        <time>2025-04-26T12:57:36Z</time>
      </trkpt>
      <trkpt lat="43.09660498984158" lon="-0.054353037849069">
        <ele>372.17000000000002</ele>
        <time>2025-04-26T12:57:37Z</time>
      </trkpt>
      <trkpt lat="43.096700040623546" lon="-0.05435798317194">
        <ele>373.13</ele>
        <time>2025-04-26T12:57:38Z</time>
      </trkpt>
      <trkpt lat="43.096697023138404" lon="-0.054395031183958">
        <ele>373.61000000000001</ele>
        <time>2025-04-26T12:57:39Z</time>
      </trkpt>
      <trkpt lat="43.096680007874966" lon="-0.054571973159909">
        <ele>376.00999999999999</ele>
        <time>2025-04-26T12:57:46Z</time>
      </trkpt>
      <trkpt lat="43.096644971519709" lon="-0.054951002821326">
        <ele>379.38</ele>
        <time>2025-04-26T12:57:55Z</time>
      </trkpt>
      <trkpt lat="43.096644971519709" lon="-0.054951002821326">
        <ele>381.77999999999997</ele>
        <time>2025-04-26T12:58:10Z</time>
      </trkpt>
      <trkpt lat="43.096644971519709" lon="-0.054951002821326">
        <ele>381.77999999999997</ele>
        <time>2025-04-26T12:58:39Z</time>
      </trkpt>
      <trkpt lat="43.096644971519709" lon="-0.054951002821326">
        <ele>382.74000000000001</ele>
        <time>2025-04-26T12:58:54Z</time>
      </trkpt>
      <trkpt lat="43.096644971519709" lon="-0.054951002821326">
        <ele>383.22000000000003</ele>
        <time>2025-04-26T12:59:37Z</time>
      </trkpt>
      <trkpt lat="43.096644971519709" lon="-0.054951002821326">
        <ele>384.18000000000001</ele>
        <time>2025-04-26T13:00:12Z</time>
      </trkpt>
      <trkpt lat="43.096644971519709" lon="-0.054951002821326">
        <ele>384.18000000000001</ele>
        <time>2025-04-26T13:00:36Z</time>
      </trkpt>
      <trkpt lat="43.096644971519709" lon="-0.054951002821326">
        <ele>384.18000000000001</ele>
        <time>2025-04-26T13:00:40Z</time>
      </trkpt>
      <trkpt lat="43.096598032861948" lon="-0.055339001119137">
        <ele>384.18000000000001</ele>
        <time>2025-04-26T13:00:50Z</time>
      </trkpt>
      <trkpt lat="43.096598032861948" lon="-0.055339001119137">
        <ele>384.18000000000001</ele>
        <time>2025-04-26T13:01:14Z</time>
      </trkpt>
      <trkpt lat="43.096567019820213" lon="-0.055345958098769">
        <ele>386.11000000000001</ele>
        <time>2025-04-26T13:43:02Z</time>
      </trkpt>
      <trkpt lat="43.096567019820213" lon="-0.055345958098769">
        <ele>385.14999999999998</ele>
        <time>2025-04-26T13:43:54Z</time>
      </trkpt>
      <trkpt lat="43.096567019820213" lon="-0.055345958098769">
        <ele>384.66000000000003</ele>
        <time>2025-04-26T13:44:40Z</time>
      </trkpt>
      <trkpt lat="43.096567019820213" lon="-0.055345958098769">
        <ele>383.69999999999999</ele>
        <time>2025-04-26T13:45:34Z</time>
      </trkpt>
      <trkpt lat="43.096567019820213" lon="-0.055345958098769">
        <ele>383.22000000000003</ele>
        <time>2025-04-26T13:46:01Z</time>
      </trkpt>
      <trkpt lat="43.096567019820213" lon="-0.055345958098769">
        <ele>384.18000000000001</ele>
        <time>2025-04-26T13:46:10Z</time>
      </trkpt>
      <trkpt lat="43.096651006489992" lon="-0.055679976940155">
        <ele>383.69999999999999</ele>
        <time>2025-04-26T13:46:11Z</time>
      </trkpt>
      <trkpt lat="43.096658969298005" lon="-0.055729011073709">
        <ele>383.22000000000003</ele>
        <time>2025-04-26T13:46:12Z</time>
      </trkpt>
      <trkpt lat="43.096696017310023" lon="-0.05590695887804">
        <ele>382.74000000000001</ele>
        <time>2025-04-26T13:46:15Z</time>
      </trkpt>
      <trkpt lat="43.096709009259939" lon="-0.055965967476368">
        <ele>382.25999999999999</ele>
        <time>2025-04-26T13:46:16Z</time>
      </trkpt>
      <trkpt lat="43.096726024523377" lon="-0.056047020480037">
        <ele>382.25999999999999</ele>
        <time>2025-04-26T13:46:17Z</time>
      </trkpt>
      <trkpt lat="43.096833983436227" lon="-0.056605003774166">
        <ele>382.25999999999999</ele>
        <time>2025-04-26T13:46:24Z</time>
      </trkpt>
      <trkpt lat="43.096872959285975" lon="-0.056726960465312">
        <ele>382.74000000000001</ele>
        <time>2025-04-26T13:46:25Z</time>
      </trkpt>
      <trkpt lat="43.096940014511347" lon="-0.056929970160127">
        <ele>384.18000000000001</ele>
        <time>2025-04-26T13:46:27Z</time>
      </trkpt>
      <trkpt lat="43.096973039209843" lon="-0.057031977921724">
        <ele>384.66000000000003</ele>
        <time>2025-04-26T13:46:28Z</time>
      </trkpt>
      <trkpt lat="43.097039004787803" lon="-0.057232975959778">
        <ele>386.11000000000001</ele>
        <time>2025-04-26T13:46:30Z</time>
      </trkpt>
      <trkpt lat="43.097071023657918" lon="-0.057330038398504">
        <ele>386.58999999999997</ele>
        <time>2025-04-26T13:46:31Z</time>
      </trkpt>
      <trkpt lat="43.097231034189463" lon="-0.057906964793801">
        <ele>391.38999999999999</ele>
        <time>2025-04-26T13:46:38Z</time>
      </trkpt>
      <trkpt lat="43.097261041402817" lon="-0.058075021952391">
        <ele>392.36000000000001</ele>
        <time>2025-04-26T13:46:40Z</time>
      </trkpt>
      <trkpt lat="43.097257018089294" lon="-0.058148028329015">
        <ele>392.83999999999997</ele>
        <time>2025-04-26T13:46:41Z</time>
      </trkpt>
      <trkpt lat="43.097238996997476" lon="-0.058333016932011">
        <ele>393.80000000000001</ele>
        <time>2025-04-26T13:46:43Z</time>
      </trkpt>
      <trkpt lat="43.097186023369431" lon="-0.058892006054521">
        <ele>397.63999999999999</ele>
        <time>2025-04-26T13:46:49Z</time>
      </trkpt>
      <trkpt lat="43.097176970914006" lon="-0.058988984674215">
        <ele>398.12</ele>
        <time>2025-04-26T13:46:50Z</time>
      </trkpt>
      <trkpt lat="43.097173031419516" lon="-0.059080012142658">
        <ele>399.07999999999998</ele>
        <time>2025-04-26T13:46:51Z</time>
      </trkpt>
      <trkpt lat="43.097170013934374" lon="-0.059170033782721">
        <ele>399.56999999999999</ele>
        <time>2025-04-26T13:46:52Z</time>
      </trkpt>
      <trkpt lat="43.097165990620852" lon="-0.059263994917274">
        <ele>400.52999999999997</ele>
        <time>2025-04-26T13:46:53Z</time>
      </trkpt>
      <trkpt lat="43.097161967307329" lon="-0.059358039870858">
        <ele>401.00999999999999</ele>
        <time>2025-04-26T13:46:54Z</time>
      </trkpt>
      <trkpt lat="43.097159033641219" lon="-0.059448983520269">
        <ele>401.97000000000003</ele>
        <time>2025-04-26T13:46:55Z</time>
      </trkpt>
      <trkpt lat="43.097156016156077" lon="-0.059759030118585">
        <ele>404.37</ele>
        <time>2025-04-26T13:46:59Z</time>
      </trkpt>
      <trkpt lat="43.097156016156077" lon="-0.059823989868164">
        <ele>404.85000000000002</ele>
        <time>2025-04-26T13:47:00Z</time>
      </trkpt>
      <trkpt lat="43.097219970077276" lon="-0.059923985973001">
        <ele>404.85000000000002</ele>
        <time>2025-04-26T13:47:01Z</time>
      </trkpt>
      <trkpt lat="43.097234973683953" lon="-0.06031097844243">
        <ele>406.76999999999998</ele>
        <time>2025-04-26T13:47:05Z</time>
      </trkpt>
      <trkpt lat="43.097238996997476" lon="-0.060414997860789">
        <ele>407.25999999999999</ele>
        <time>2025-04-26T13:47:06Z</time>
      </trkpt>
      <trkpt lat="43.097241008654237" lon="-0.06052304059267">
        <ele>408.22000000000003</ele>
        <time>2025-04-26T13:47:07Z</time>
      </trkpt>
      <trkpt lat="43.097241008654237" lon="-0.060752034187317">
        <ele>408.69999999999999</ele>
        <time>2025-04-26T13:47:09Z</time>
      </trkpt>
      <trkpt lat="43.097241008654237" lon="-0.060870973393321">
        <ele>409.18000000000001</ele>
        <time>2025-04-26T13:47:10Z</time>
      </trkpt>
      <trkpt lat="43.097244026139379" lon="-0.060989996418357">
        <ele>409.18000000000001</ele>
        <time>2025-04-26T13:47:11Z</time>
      </trkpt>
      <trkpt lat="43.09724897146225" lon="-0.061101978644729">
        <ele>409.66000000000003</ele>
        <time>2025-04-26T13:47:12Z</time>
      </trkpt>
      <trkpt lat="43.097255006432533" lon="-0.061204992234707">
        <ele>410.13999999999999</ele>
        <time>2025-04-26T13:47:13Z</time>
      </trkpt>
      <trkpt lat="43.097259029746056" lon="-0.061299037188292">
        <ele>410.62</ele>
        <time>2025-04-26T13:47:14Z</time>
      </trkpt>
      <trkpt lat="43.097263975068927" lon="-0.061391992494464">
        <ele>410.62</ele>
        <time>2025-04-26T13:47:15Z</time>
      </trkpt>
      <trkpt lat="43.097278978675604" lon="-0.06168301217258">
        <ele>410.62</ele>
        <time>2025-04-26T13:47:18Z</time>
      </trkpt>
      <trkpt lat="43.097284007817507" lon="-0.061786025762558">
        <ele>410.62</ele>
        <time>2025-04-26T13:47:19Z</time>
      </trkpt>
      <trkpt lat="43.09733203612268" lon="-0.062075033783913">
        <ele>410.62</ele>
        <time>2025-04-26T13:47:22Z</time>
      </trkpt>
      <trkpt lat="43.097347961738706" lon="-0.062166983261704">
        <ele>411.10000000000002</ele>
        <time>2025-04-26T13:47:23Z</time>
      </trkpt>
      <trkpt lat="43.097396995872259" lon="-0.062448028475046">
        <ele>412.06</ele>
        <time>2025-04-26T13:47:26Z</time>
      </trkpt>
      <trkpt lat="43.097429014742374" lon="-0.062636034563184">
        <ele>412.54000000000002</ele>
        <time>2025-04-26T13:47:28Z</time>
      </trkpt>
      <trkpt lat="43.097446030005813" lon="-0.062729995697737">
        <ele>413.01999999999998</ele>
        <time>2025-04-26T13:47:29Z</time>
      </trkpt>
      <trkpt lat="43.0974639672786" lon="-0.062834015116096">
        <ele>413.5</ele>
        <time>2025-04-26T13:47:30Z</time>
      </trkpt>
      <trkpt lat="43.097481988370419" lon="-0.062938034534454">
        <ele>413.5</ele>
        <time>2025-04-26T13:47:31Z</time>
      </trkpt>
      <trkpt lat="43.09750503860414" lon="-0.063041970133781">
        <ele>413.5</ele>
        <time>2025-04-26T13:47:32Z</time>
      </trkpt>
      <trkpt lat="43.097662031650543" lon="-0.063782008364797">
        <ele>414.94999999999999</ele>
        <time>2025-04-26T13:47:39Z</time>
      </trkpt>
      <trkpt lat="43.097683992236853" lon="-0.063888039439917">
        <ele>414.47000000000003</ele>
        <time>2025-04-26T13:47:40Z</time>
      </trkpt>
      <trkpt lat="43.097706036642194" lon="-0.063990969210863">
        <ele>413.98000000000002</ele>
        <time>2025-04-26T13:47:41Z</time>
      </trkpt>
      <trkpt lat="43.097750963643193" lon="-0.064201019704342">
        <ele>412.06</ele>
        <time>2025-04-26T13:47:43Z</time>
      </trkpt>
      <trkpt lat="43.097873004153371" lon="-0.064707035198808">
        <ele>408.69999999999999</ele>
        <time>2025-04-26T13:47:48Z</time>
      </trkpt>
      <trkpt lat="43.097899993881583" lon="-0.064775012433529">
        <ele>408.22000000000003</ele>
        <time>2025-04-26T13:47:49Z</time>
      </trkpt>
      <trkpt lat="43.097927989438176" lon="-0.064845001325011">
        <ele>407.74000000000001</ele>
        <time>2025-04-26T13:47:50Z</time>
      </trkpt>
      <trkpt lat="43.097933018580079" lon="-0.064851958304644">
        <ele>407.25999999999999</ele>
        <time>2025-04-26T13:47:51Z</time>
      </trkpt>
      <trkpt lat="43.097952967509627" lon="-0.064882971346378">
        <ele>406.76999999999998</ele>
        <time>2025-04-26T13:47:52Z</time>
      </trkpt>
      <trkpt lat="43.097970988601446" lon="-0.064909039065242">
        <ele>406.29000000000002</ele>
        <time>2025-04-26T13:47:53Z</time>
      </trkpt>
      <trkpt lat="43.098032008856535" lon="-0.064990008249879">
        <ele>405.81</ele>
        <time>2025-04-26T13:47:54Z</time>
      </trkpt>
      <trkpt lat="43.098082970827818" lon="-0.065058991312981">
        <ele>405.32999999999998</ele>
        <time>2025-04-26T13:47:55Z</time>
      </trkpt>
      <trkpt lat="43.098135022446513" lon="-0.065128980204463">
        <ele>404.37</ele>
        <time>2025-04-26T13:47:56Z</time>
      </trkpt>
      <trkpt lat="43.098363010212779" lon="-0.065431986004114">
        <ele>402.44999999999999</ele>
        <time>2025-04-26T13:48:00Z</time>
      </trkpt>
      <trkpt lat="43.098422018811107" lon="-0.065510021522641">
        <ele>401.97000000000003</ele>
        <time>2025-04-26T13:48:01Z</time>
      </trkpt>
      <trkpt lat="43.0984500143677" lon="-0.065599959343672">
        <ele>401.49000000000001</ele>
        <time>2025-04-26T13:48:02Z</time>
      </trkpt>
      <trkpt lat="43.098482033237815" lon="-0.065700961276889">
        <ele>401.00999999999999</ele>
        <time>2025-04-26T13:48:03Z</time>
      </trkpt>
      <trkpt lat="43.098512040451169" lon="-0.065797017887235">
        <ele>401.00999999999999</ele>
        <time>2025-04-26T13:48:04Z</time>
      </trkpt>
      <trkpt lat="43.098541963845491" lon="-0.065891984850168">
        <ele>400.05000000000001</ele>
        <time>2025-04-26T13:48:05Z</time>
      </trkpt>
      <trkpt lat="43.098555961623788" lon="-0.065991980955005">
        <ele>399.56999999999999</ele>
        <time>2025-04-26T13:48:06Z</time>
      </trkpt>
      <trkpt lat="43.098596027120948" lon="-0.066928993910551">
        <ele>395.72000000000003</ele>
        <time>2025-04-26T13:48:13Z</time>
      </trkpt>
      <trkpt lat="43.098555961623788" lon="-0.06720601581037">
        <ele>394.27999999999997</ele>
        <time>2025-04-26T13:48:16Z</time>
      </trkpt>
      <trkpt lat="43.098359992727637" lon="-0.068015959113836">
        <ele>391.87</ele>
        <time>2025-04-26T13:48:23Z</time>
      </trkpt>
      <trkpt lat="43.097912985831499" lon="-0.068944003432989">
        <ele>388.99000000000001</ele>
        <time>2025-04-26T13:48:32Z</time>
      </trkpt>
      <trkpt lat="43.097867975011468" lon="-0.069022038951516">
        <ele>388.99000000000001</ele>
        <time>2025-04-26T13:48:33Z</time>
      </trkpt>
      <trkpt lat="43.097729003056884" lon="-0.069113988429308">
        <ele>388.50999999999999</ele>
        <time>2025-04-26T13:48:35Z</time>
      </trkpt>
      <trkpt lat="43.097654990851879" lon="-0.06916000507772">
        <ele>388.50999999999999</ele>
        <time>2025-04-26T13:48:36Z</time>
      </trkpt>
      <trkpt lat="43.097582990303636" lon="-0.069205015897751">
        <ele>388.99000000000001</ele>
        <time>2025-04-26T13:48:37Z</time>
      </trkpt>
      <trkpt lat="43.097367994487286" lon="-0.069243991747499">
        <ele>388.50999999999999</ele>
        <time>2025-04-26T13:48:40Z</time>
      </trkpt>
      <trkpt lat="43.097309991717339" lon="-0.069223958998919">
        <ele>388.02999999999997</ele>
        <time>2025-04-26T13:48:41Z</time>
      </trkpt>
      <trkpt lat="43.097244026139379" lon="-0.069192023947835">
        <ele>387.55000000000001</ele>
        <time>2025-04-26T13:48:42Z</time>
      </trkpt>
      <trkpt lat="43.097176970914006" lon="-0.069157993420959">
        <ele>387.06999999999999</ele>
        <time>2025-04-26T13:48:43Z</time>
      </trkpt>
      <trkpt lat="43.097113016992807" lon="-0.069125974550843">
        <ele>386.58999999999997</ele>
        <time>2025-04-26T13:48:44Z</time>
      </trkpt>
      <trkpt lat="43.097050990909338" lon="-0.069124968722463">
        <ele>386.11000000000001</ele>
        <time>2025-04-26T13:48:45Z</time>
      </trkpt>
      <trkpt lat="43.097004974260926" lon="-0.069136032834649">
        <ele>385.63</ele>
        <time>2025-04-26T13:48:46Z</time>
      </trkpt>
      <trkpt lat="43.096965998411179" lon="-0.069146007299423">
        <ele>385.14999999999998</ele>
        <time>2025-04-26T13:48:47Z</time>
      </trkpt>
      <trkpt lat="43.096902966499329" lon="-0.069298977032304">
        <ele>384.18000000000001</ele>
        <time>2025-04-26T13:48:48Z</time>
      </trkpt>
      <trkpt lat="43.096833983436227" lon="-0.0691800378263">
        <ele>384.18000000000001</ele>
        <time>2025-04-26T13:48:49Z</time>
      </trkpt>
      <trkpt lat="43.096930040046573" lon="-0.069344993680716">
        <ele>383.69999999999999</ele>
        <time>2025-04-26T13:48:50Z</time>
      </trkpt>
      <trkpt lat="43.096959041431546" lon="-0.06939503364265">
        <ele>383.22000000000003</ele>
        <time>2025-04-26T13:48:51Z</time>
      </trkpt>
      <trkpt lat="43.096997011452913" lon="-0.069448007270694">
        <ele>382.74000000000001</ele>
        <time>2025-04-26T13:48:52Z</time>
      </trkpt>
      <trkpt lat="43.09705400839448" lon="-0.069497041404247">
        <ele>382.25999999999999</ele>
        <time>2025-04-26T13:48:53Z</time>
      </trkpt>
      <trkpt lat="43.097113016992807" lon="-0.06954800337553">
        <ele>381.77999999999997</ele>
        <time>2025-04-26T13:48:54Z</time>
      </trkpt>
      <trkpt lat="43.097178982570767" lon="-0.069575998932123">
        <ele>381.30000000000001</ele>
        <time>2025-04-26T13:48:55Z</time>
      </trkpt>
      <trkpt lat="43.097265986725688" lon="-0.069595025852323">
        <ele>380.81999999999999</ele>
        <time>2025-04-26T13:48:56Z</time>
      </trkpt>
      <trkpt lat="43.097363971173763" lon="-0.069616986438632">
        <ele>380.81999999999999</ele>
        <time>2025-04-26T13:48:57Z</time>
      </trkpt>
      <trkpt lat="43.097466984763741" lon="-0.069640958681703">
        <ele>380.33999999999997</ele>
        <time>2025-04-26T13:48:58Z</time>
      </trkpt>
      <trkpt lat="43.097566980868578" lon="-0.069663003087044">
        <ele>380.33999999999997</ele>
        <time>2025-04-26T13:48:59Z</time>
      </trkpt>
      <trkpt lat="43.09767703525722" lon="-0.069687981158495">
        <ele>380.33999999999997</ele>
        <time>2025-04-26T13:49:00Z</time>
      </trkpt>
      <trkpt lat="43.098115995526314" lon="-0.069746989756823">
        <ele>379.38</ele>
        <time>2025-04-26T13:49:04Z</time>
      </trkpt>
      <trkpt lat="43.098227977752686" lon="-0.069727040827274">
        <ele>378.89999999999998</ele>
        <time>2025-04-26T13:49:05Z</time>
      </trkpt>
      <trkpt lat="43.098422018811107" lon="-0.069629978388548">
        <ele>377.94</ele>
        <time>2025-04-26T13:49:07Z</time>
      </trkpt>
      <trkpt lat="43.098500976338983" lon="-0.069538028910756">
        <ele>377.44999999999999</ele>
        <time>2025-04-26T13:49:08Z</time>
      </trkpt>
      <trkpt lat="43.098574988543987" lon="-0.069453036412597">
        <ele>376.49000000000001</ele>
        <time>2025-04-26T13:49:09Z</time>
      </trkpt>
      <trkpt lat="43.098651012405753" lon="-0.069366032257676">
        <ele>376.00999999999999</ele>
        <time>2025-04-26T13:49:10Z</time>
      </trkpt>
      <trkpt lat="43.098721001297235" lon="-0.069261007010937">
        <ele>375.05000000000001</ele>
        <time>2025-04-26T13:49:11Z</time>
      </trkpt>
      <trkpt lat="43.09877498075366" lon="-0.069134021177888">
        <ele>374.56999999999999</ele>
        <time>2025-04-26T13:49:12Z</time>
      </trkpt>
      <trkpt lat="43.098830971866846" lon="-0.069005023688078">
        <ele>373.61000000000001</ele>
        <time>2025-04-26T13:49:13Z</time>
      </trkpt>
      <trkpt lat="43.099288959056139" lon="-0.067516984418035">
        <ele>366.39999999999998</ele>
        <time>2025-04-26T13:49:24Z</time>
      </trkpt>
      <trkpt lat="43.099490040913224" lon="-0.067035024985671">
        <ele>366.39999999999998</ele>
        <time>2025-04-26T13:49:28Z</time>
      </trkpt>
      <trkpt lat="43.09954795986414" lon="-0.066935028880835">
        <ele>366.39999999999998</ele>
        <time>2025-04-26T13:49:29Z</time>
      </trkpt>
      <trkpt lat="43.099617026746273" lon="-0.066848024725914">
        <ele>366.39999999999998</ele>
        <time>2025-04-26T13:49:30Z</time>
      </trkpt>
      <trkpt lat="43.09976002201438" lon="-0.066697988659143">
        <ele>366.39999999999998</ele>
        <time>2025-04-26T13:49:32Z</time>
      </trkpt>
      <trkpt lat="43.099841997027397" lon="-0.066641997545958">
        <ele>366.88</ele>
        <time>2025-04-26T13:49:33Z</time>
      </trkpt>
      <trkpt lat="43.099923972040415" lon="-0.066586006432772">
        <ele>366.88</ele>
        <time>2025-04-26T13:49:34Z</time>
      </trkpt>
      <trkpt lat="43.100642971694469" lon="-0.066206976771355">
        <ele>366.39999999999998</ele>
        <time>2025-04-26T13:49:44Z</time>
      </trkpt>
      <trkpt lat="43.100683959200978" lon="-0.066183004528284">
        <ele>365.92000000000002</ele>
        <time>2025-04-26T13:49:48Z</time>
      </trkpt>
      <trkpt lat="43.100701980292797" lon="-0.06623899564147">
        <ele>366.39999999999998</ele>
        <time>2025-04-26T13:49:49Z</time>
      </trkpt>
      <trkpt lat="43.1007070094347" lon="-0.066291969269514">
        <ele>366.39999999999998</ele>
        <time>2025-04-26T13:49:50Z</time>
      </trkpt>
      <trkpt lat="43.100713966414332" lon="-0.066373022273183">
        <ele>365.92000000000002</ele>
        <time>2025-04-26T13:49:51Z</time>
      </trkpt>
      <trkpt lat="43.100723018869758" lon="-0.066472012549639">
        <ele>365.92000000000002</ele>
        <time>2025-04-26T13:49:52Z</time>
      </trkpt>
      <trkpt lat="43.10081597417593" lon="-0.067639024928212">
        <ele>364.95999999999998</ele>
        <time>2025-04-26T13:50:00Z</time>
      </trkpt>
      <trkpt lat="43.100882023572922" lon="-0.068543013185263">
        <ele>364.95999999999998</ele>
        <time>2025-04-26T13:50:05Z</time>
      </trkpt>
      <trkpt lat="43.100950000807643" lon="-0.069477008655667">
        <ele>362.55000000000001</ele>
        <time>2025-04-26T13:50:10Z</time>
      </trkpt>
      <trkpt lat="43.100945977494121" lon="-0.069661997258663">
        <ele>362.06999999999999</ele>
        <time>2025-04-26T13:50:11Z</time>
      </trkpt>
      <trkpt lat="43.100679013878107" lon="-0.071233017370105">
        <ele>361.58999999999997</ele>
        <time>2025-04-26T13:50:19Z</time>
      </trkpt>
      <trkpt lat="43.100629979744554" lon="-0.071414988487959">
        <ele>361.11000000000001</ele>
        <time>2025-04-26T13:50:20Z</time>
      </trkpt>
      <trkpt lat="43.100551022216678" lon="-0.071583967655897">
        <ele>361.11000000000001</ele>
        <time>2025-04-26T13:50:21Z</time>
      </trkpt>
      <trkpt lat="43.099746024236083" lon="-0.073293959721923">
        <ele>364</ele>
        <time>2025-04-26T13:50:31Z</time>
      </trkpt>
      <trkpt lat="43.098983019590378" lon="-0.07513496093452">
        <ele>365.44</ele>
        <time>2025-04-26T13:50:41Z</time>
      </trkpt>
      <trkpt lat="43.098810017108917" lon="-0.075709037482738">
        <ele>365.92000000000002</ele>
        <time>2025-04-26T13:50:45Z</time>
      </trkpt>
      <trkpt lat="43.09881797991693" lon="-0.075813978910446">
        <ele>366.39999999999998</ele>
        <time>2025-04-26T13:50:46Z</time>
      </trkpt>
      <trkpt lat="43.098825020715594" lon="-0.075909029692411">
        <ele>366.88</ele>
        <time>2025-04-26T13:50:47Z</time>
      </trkpt>
      <trkpt lat="43.098840024322271" lon="-0.075979018583894">
        <ele>366.88</ele>
        <time>2025-04-26T13:50:48Z</time>
      </trkpt>
      <trkpt lat="43.0988800060004" lon="-0.076052024960518">
        <ele>367.36000000000001</ele>
        <time>2025-04-26T13:50:49Z</time>
      </trkpt>
      <trkpt lat="43.098918981850147" lon="-0.07612100802362">
        <ele>367.83999999999997</ele>
        <time>2025-04-26T13:50:50Z</time>
      </trkpt>
      <trkpt lat="43.098957035690546" lon="-0.076192002743483">
        <ele>368.31999999999999</ele>
        <time>2025-04-26T13:50:51Z</time>
      </trkpt>
      <trkpt lat="43.099030964076519" lon="-0.076329968869686">
        <ele>368.80000000000001</ele>
        <time>2025-04-26T13:50:53Z</time>
      </trkpt>
      <trkpt lat="43.09907496906817" lon="-0.076410016044974">
        <ele>369.27999999999997</ele>
        <time>2025-04-26T13:50:54Z</time>
      </trkpt>
      <trkpt lat="43.099101036787033" lon="-0.07653197273612">
        <ele>369.75999999999999</ele>
        <time>2025-04-26T13:50:55Z</time>
      </trkpt>
      <trkpt lat="43.099119979888201" lon="-0.076662981882691">
        <ele>370.24000000000001</ele>
        <time>2025-04-26T13:50:56Z</time>
      </trkpt>
      <trkpt lat="43.099124003201723" lon="-0.076802037656307">
        <ele>370.24000000000001</ele>
        <time>2025-04-26T13:50:57Z</time>
      </trkpt>
      <trkpt lat="43.099111011251807" lon="-0.076952995732427">
        <ele>370.24000000000001</ele>
        <time>2025-04-26T13:50:58Z</time>
      </trkpt>
      <trkpt lat="43.099098019301891" lon="-0.077119041234255">
        <ele>370.24000000000001</ele>
        <time>2025-04-26T13:50:59Z</time>
      </trkpt>
      <trkpt lat="43.099068012088537" lon="-0.077469991520047">
        <ele>370.24000000000001</ele>
        <time>2025-04-26T13:51:01Z</time>
      </trkpt>
      <trkpt lat="43.09907203540206" lon="-0.077652968466282">
        <ele>370.24000000000001</ele>
        <time>2025-04-26T13:51:02Z</time>
      </trkpt>
      <trkpt lat="43.099079998210073" lon="-0.077835023403168">
        <ele>369.75999999999999</ele>
        <time>2025-04-26T13:51:03Z</time>
      </trkpt>
      <trkpt lat="43.099173959344625" lon="-0.078729959204793">
        <ele>368.31999999999999</ele>
        <time>2025-04-26T13:51:08Z</time>
      </trkpt>
      <trkpt lat="43.099690033122897" lon="-0.08046300150454">
        <ele>365.44</ele>
        <time>2025-04-26T13:51:17Z</time>
      </trkpt>
      <trkpt lat="43.100353041663766" lon="-0.08258999325335">
        <ele>364.95999999999998</ele>
        <time>2025-04-26T13:51:27Z</time>
      </trkpt>
      <trkpt lat="43.100377013906837" lon="-0.0828240159899">
        <ele>365.92000000000002</ele>
        <time>2025-04-26T13:51:28Z</time>
      </trkpt>
      <trkpt lat="43.100635008886456" lon="-0.084925023838878">
        <ele>370.73000000000002</ele>
        <time>2025-04-26T13:51:37Z</time>
      </trkpt>
      <trkpt lat="43.100954024121165" lon="-0.086774993687868">
        <ele>371.69</ele>
        <time>2025-04-26T13:51:45Z</time>
      </trkpt>
      <trkpt lat="43.101058965548873" lon="-0.08783002384007">
        <ele>373.13</ele>
        <time>2025-04-26T13:51:50Z</time>
      </trkpt>
      <trkpt lat="43.101029964163899" lon="-0.08800595998764">
        <ele>374.08999999999997</ele>
        <time>2025-04-26T13:51:51Z</time>
      </trkpt>
      <trkpt lat="43.100985959172249" lon="-0.0881979893893">
        <ele>374.08999999999997</ele>
        <time>2025-04-26T13:51:52Z</time>
      </trkpt>
      <trkpt lat="43.100668033584952" lon="-0.089646968990564">
        <ele>376.00999999999999</ele>
        <time>2025-04-26T13:51:59Z</time>
      </trkpt>
      <trkpt lat="43.100653029978275" lon="-0.089841010048985">
        <ele>376.49000000000001</ele>
        <time>2025-04-26T13:52:00Z</time>
      </trkpt>
      <trkpt lat="43.100681025534868" lon="-0.090039996430278">
        <ele>376.49000000000001</ele>
        <time>2025-04-26T13:52:01Z</time>
      </trkpt>
      <trkpt lat="43.100709021091461" lon="-0.090236971154809">
        <ele>377.44999999999999</ele>
        <time>2025-04-26T13:52:02Z</time>
      </trkpt>
      <trkpt lat="43.100735004991293" lon="-0.090441992506385">
        <ele>377.94</ele>
        <time>2025-04-26T13:52:03Z</time>
      </trkpt>
      <trkpt lat="43.100758977234364" lon="-0.090651037171483">
        <ele>378.42000000000002</ele>
        <time>2025-04-26T13:52:04Z</time>
      </trkpt>
      <trkpt lat="43.100740034133196" lon="-0.09086100384593">
        <ele>378.42000000000002</ele>
        <time>2025-04-26T13:52:05Z</time>
      </trkpt>
      <trkpt lat="43.100716983899474" lon="-0.091080022975802">
        <ele>378.42000000000002</ele>
        <time>2025-04-26T13:52:06Z</time>
      </trkpt>
      <trkpt lat="43.100511040538549" lon="-0.093072988092899">
        <ele>379.38</ele>
        <time>2025-04-26T13:52:15Z</time>
      </trkpt>
      <trkpt lat="43.100416995584965" lon="-0.09541598148644">
        <ele>384.66000000000003</ele>
        <time>2025-04-26T13:52:25Z</time>
      </trkpt>
      <trkpt lat="43.100416995584965" lon="-0.095642041414976">
        <ele>385.63</ele>
        <time>2025-04-26T13:52:26Z</time>
      </trkpt>
      <trkpt lat="43.100416995584965" lon="-0.095829963684082">
        <ele>386.11000000000001</ele>
        <time>2025-04-26T13:52:27Z</time>
      </trkpt>
      <trkpt lat="43.100479021668434" lon="-0.096047976985574">
        <ele>386.11000000000001</ele>
        <time>2025-04-26T13:52:28Z</time>
      </trkpt>
      <trkpt lat="43.100909013301134" lon="-0.097640035673976">
        <ele>387.55000000000001</ele>
        <time>2025-04-26T13:52:35Z</time>
      </trkpt>
      <trkpt lat="43.101428020745516" lon="-0.099499979987741">
        <ele>388.50999999999999</ele>
        <time>2025-04-26T13:52:43Z</time>
      </trkpt>
      <trkpt lat="43.102003019303083" lon="-0.10123997926712">
        <ele>392.36000000000001</ele>
        <time>2025-04-26T13:52:51Z</time>
      </trkpt>
      <trkpt lat="43.102751020342112" lon="-0.10344902984798">
        <ele>391.38999999999999</ele>
        <time>2025-04-26T13:53:01Z</time>
      </trkpt>
      <trkpt lat="43.103202972561121" lon="-0.105719016864896">
        <ele>389.94999999999999</ele>
        <time>2025-04-26T13:53:10Z</time>
      </trkpt>
      <trkpt lat="43.103558029979467" lon="-0.108099980279803">
        <ele>384.18000000000001</ele>
        <time>2025-04-26T13:53:19Z</time>
      </trkpt>
      <trkpt lat="43.103721980005503" lon="-0.109261963516474">
        <ele>381.77999999999997</ele>
        <time>2025-04-26T13:53:25Z</time>
      </trkpt>
      <trkpt lat="43.103928007185459" lon="-0.110656963661313">
        <ele>378.89999999999998</ele>
        <time>2025-04-26T13:53:33Z</time>
      </trkpt>
      <trkpt lat="43.10405801050365" lon="-0.112215997651219">
        <ele>376.00999999999999</ele>
        <time>2025-04-26T13:53:43Z</time>
      </trkpt>
      <trkpt lat="43.104022974148393" lon="-0.114483973011374">
        <ele>373.61000000000001</ele>
        <time>2025-04-26T13:53:57Z</time>
      </trkpt>
      <trkpt lat="43.103872016072273" lon="-0.116254985332489">
        <ele>370.73000000000002</ele>
        <time>2025-04-26T13:54:08Z</time>
      </trkpt>
      <trkpt lat="43.103646039962769" lon="-0.118173016235232">
        <ele>367.83999999999997</ele>
        <time>2025-04-26T13:54:20Z</time>
      </trkpt>
      <trkpt lat="43.103213030844927" lon="-0.120069002732635">
        <ele>364.95999999999998</ele>
        <time>2025-04-26T13:54:33Z</time>
      </trkpt>
      <trkpt lat="43.102887980639935" lon="-0.12188502587378">
        <ele>366.39999999999998</ele>
        <time>2025-04-26T13:54:44Z</time>
      </trkpt>
      <trkpt lat="43.102247016504407" lon="-0.1236039865762">
        <ele>370.24000000000001</ele>
        <time>2025-04-26T13:54:54Z</time>
      </trkpt>
      <trkpt lat="43.101605968549848" lon="-0.125500978901982">
        <ele>371.20999999999998</ele>
        <time>2025-04-26T13:55:04Z</time>
      </trkpt>
      <trkpt lat="43.101527011021972" lon="-0.125911021605134">
        <ele>371.69</ele>
        <time>2025-04-26T13:55:06Z</time>
      </trkpt>
      <trkpt lat="43.101516030728817" lon="-0.126120988279581">
        <ele>372.17000000000002</ele>
        <time>2025-04-26T13:55:07Z</time>
      </trkpt>
      <trkpt lat="43.101545032113791" lon="-0.128143960610032">
        <ele>371.20999999999998</ele>
        <time>2025-04-26T13:55:17Z</time>
      </trkpt>
      <trkpt lat="43.1019969843328" lon="-0.130786020308733">
        <ele>370.24000000000001</ele>
        <time>2025-04-26T13:55:30Z</time>
      </trkpt>
      <trkpt lat="43.102465029805899" lon="-0.133565962314606">
        <ele>367.83999999999997</ele>
        <time>2025-04-26T13:55:43Z</time>
      </trkpt>
      <trkpt lat="43.102825032547116" lon="-0.13576596044004">
        <ele>364</ele>
        <time>2025-04-26T13:55:53Z</time>
      </trkpt>
      <trkpt lat="43.102946989238262" lon="-0.136222019791603">
        <ele>361.58999999999997</ele>
        <time>2025-04-26T13:55:55Z</time>
      </trkpt>
      <trkpt lat="43.10302896425128" lon="-0.136442966759205">
        <ele>360.63</ele>
        <time>2025-04-26T13:55:56Z</time>
      </trkpt>
      <trkpt lat="43.103572027757764" lon="-0.138662997633219">
        <ele>353.89999999999998</ele>
        <time>2025-04-26T13:56:05Z</time>
      </trkpt>
      <trkpt lat="43.103646039962769" lon="-0.140506010502577">
        <ele>351.01999999999998</ele>
        <time>2025-04-26T13:56:13Z</time>
      </trkpt>
      <trkpt lat="43.103794986382127" lon="-0.141547964885831">
        <ele>350.06</ele>
        <time>2025-04-26T13:56:20Z</time>
      </trkpt>
      <trkpt lat="43.103933036327362" lon="-0.142656974494457">
        <ele>350.54000000000002</ele>
        <time>2025-04-26T13:56:27Z</time>
      </trkpt>
      <trkpt lat="43.103921972215176" lon="-0.142818996682763">
        <ele>350.54000000000002</ele>
        <time>2025-04-26T13:56:28Z</time>
      </trkpt>
      <trkpt lat="43.103895988315344" lon="-0.142973978072405">
        <ele>351.01999999999998</ele>
        <time>2025-04-26T13:56:29Z</time>
      </trkpt>
      <trkpt lat="43.103837985545397" lon="-0.143113033846021">
        <ele>351.98000000000002</ele>
        <time>2025-04-26T13:56:30Z</time>
      </trkpt>
      <trkpt lat="43.10377998277545" lon="-0.143250999972224">
        <ele>352.94</ele>
        <time>2025-04-26T13:56:31Z</time>
      </trkpt>
      <trkpt lat="43.103718962520361" lon="-0.143385026603937">
        <ele>353.42000000000002</ele>
        <time>2025-04-26T13:56:32Z</time>
      </trkpt>
      <trkpt lat="43.103519976139069" lon="-0.143781993538141">
        <ele>355.82999999999998</ele>
        <time>2025-04-26T13:56:35Z</time>
      </trkpt>
      <trkpt lat="43.103454010561109" lon="-0.143917025998235">
        <ele>356.31</ele>
        <time>2025-04-26T13:56:36Z</time>
      </trkpt>
      <trkpt lat="43.103228034451604" lon="-0.144366966560483">
        <ele>358.23000000000002</ele>
        <time>2025-04-26T13:56:39Z</time>
      </trkpt>
      <trkpt lat="43.103147987276316" lon="-0.144522031769156">
        <ele>358.70999999999998</ele>
        <time>2025-04-26T13:56:40Z</time>
      </trkpt>
      <trkpt lat="43.102958975359797" lon="-0.144863007590175">
        <ele>359.19</ele>
        <time>2025-04-26T13:56:42Z</time>
      </trkpt>
      <trkpt lat="43.101912997663021" lon="-0.146738961338997">
        <ele>358.23000000000002</ele>
        <time>2025-04-26T13:56:52Z</time>
      </trkpt>
      <trkpt lat="43.101492980495095" lon="-0.148670990020037">
        <ele>355.82999999999998</ele>
        <time>2025-04-26T13:57:00Z</time>
      </trkpt>
      <trkpt lat="43.101105988025665" lon="-0.150827988982201">
        <ele>353.42000000000002</ele>
        <time>2025-04-26T13:57:10Z</time>
      </trkpt>
      <trkpt lat="43.100743973627687" lon="-0.152690028771758">
        <ele>353.89999999999998</ele>
        <time>2025-04-26T13:57:22Z</time>
      </trkpt>
      <trkpt lat="43.100693011656404" lon="-0.153014995157719">
        <ele>353.89999999999998</ele>
        <time>2025-04-26T13:57:24Z</time>
      </trkpt>
      <trkpt lat="43.100685970857739" lon="-0.153180034831166">
        <ele>354.38</ele>
        <time>2025-04-26T13:57:25Z</time>
      </trkpt>
      <trkpt lat="43.100679013878107" lon="-0.153347002342343">
        <ele>354.86000000000001</ele>
        <time>2025-04-26T13:57:26Z</time>
      </trkpt>
      <trkpt lat="43.100684965029359" lon="-0.153516987338662">
        <ele>354.86000000000001</ele>
        <time>2025-04-26T13:57:27Z</time>
      </trkpt>
      <trkpt lat="43.100706003606319" lon="-0.153674986213446">
        <ele>355.33999999999997</ele>
        <time>2025-04-26T13:57:28Z</time>
      </trkpt>
      <trkpt lat="43.100727964192629" lon="-0.153832985088229">
        <ele>355.33999999999997</ele>
        <time>2025-04-26T13:57:29Z</time>
      </trkpt>
      <trkpt lat="43.100792001932859" lon="-0.154303964227438">
        <ele>355.33999999999997</ele>
        <time>2025-04-26T13:57:32Z</time>
      </trkpt>
      <trkpt lat="43.10081304050982" lon="-0.154461041092873">
        <ele>355.33999999999997</ele>
        <time>2025-04-26T13:57:33Z</time>
      </trkpt>
      <trkpt lat="43.101158961653709" lon="-0.15634797513485">
        <ele>355.33999999999997</ele>
        <time>2025-04-26T13:57:45Z</time>
      </trkpt>
      <trkpt lat="43.101388039067388" lon="-0.157264033332467">
        <ele>355.82999999999998</ele>
        <time>2025-04-26T13:57:51Z</time>
      </trkpt>
      <trkpt lat="43.101446041837335" lon="-0.157407028600574">
        <ele>356.31</ele>
        <time>2025-04-26T13:57:52Z</time>
      </trkpt>
      <trkpt lat="43.101515024900436" lon="-0.157537031918764">
        <ele>356.31</ele>
        <time>2025-04-26T13:57:53Z</time>
      </trkpt>
      <trkpt lat="43.101584007963538" lon="-0.157668963074684">
        <ele>356.31</ele>
        <time>2025-04-26T13:57:54Z</time>
      </trkpt>
      <trkpt lat="43.101662965491414" lon="-0.157798966392875">
        <ele>356.31</ele>
        <time>2025-04-26T13:57:55Z</time>
      </trkpt>
      <trkpt lat="43.101744018495083" lon="-0.157915977761149">
        <ele>356.79000000000002</ele>
        <time>2025-04-26T13:57:56Z</time>
      </trkpt>
      <trkpt lat="43.10182498767972" lon="-0.158031983301044">
        <ele>356.79000000000002</ele>
        <time>2025-04-26T13:57:57Z</time>
      </trkpt>
      <trkpt lat="43.102264031767845" lon="-0.158584015443921">
        <ele>357.75</ele>
        <time>2025-04-26T13:58:02Z</time>
      </trkpt>
      <trkpt lat="43.102352963760495" lon="-0.158680994063616">
        <ele>358.23000000000002</ele>
        <time>2025-04-26T13:58:03Z</time>
      </trkpt>
      <trkpt lat="43.102871971204877" lon="-0.159104028716683">
        <ele>359.67000000000002</ele>
        <time>2025-04-26T13:58:08Z</time>
      </trkpt>
      <trkpt lat="43.102984959259629" lon="-0.15914199873805">
        <ele>360.14999999999998</ele>
        <time>2025-04-26T13:58:09Z</time>
      </trkpt>
      <trkpt lat="43.103077998384833" lon="-0.159173011779785">
        <ele>360.14999999999998</ele>
        <time>2025-04-26T13:58:10Z</time>
      </trkpt>
      <trkpt lat="43.103202972561121" lon="-0.159186003729701">
        <ele>360.14999999999998</ele>
        <time>2025-04-26T13:58:11Z</time>
      </trkpt>
      <trkpt lat="43.103274973109365" lon="-0.159192960709333">
        <ele>360.63</ele>
        <time>2025-04-26T13:58:12Z</time>
      </trkpt>
      <trkpt lat="43.103334987536073" lon="-0.159211987629533">
        <ele>360.63</ele>
        <time>2025-04-26T13:58:13Z</time>
      </trkpt>
      <trkpt lat="43.103390978649259" lon="-0.159234032034874">
        <ele>361.11000000000001</ele>
        <time>2025-04-26T13:58:14Z</time>
      </trkpt>
      <trkpt lat="43.103415034711361" lon="-0.159294968470931">
        <ele>361.58999999999997</ele>
        <time>2025-04-26T13:58:15Z</time>
      </trkpt>
      <trkpt lat="43.103438001126051" lon="-0.15937996096909">
        <ele>361.58999999999997</ele>
        <time>2025-04-26T13:58:16Z</time>
      </trkpt>
      <trkpt lat="43.103463985025883" lon="-0.159477023407817">
        <ele>361.58999999999997</ele>
        <time>2025-04-26T13:58:17Z</time>
      </trkpt>
      <trkpt lat="43.103491980582476" lon="-0.159580959007144">
        <ele>361.58999999999997</ele>
        <time>2025-04-26T13:58:18Z</time>
      </trkpt>
      <trkpt lat="43.103582002222538" lon="-0.160006005316973">
        <ele>361.11000000000001</ele>
        <time>2025-04-26T13:58:22Z</time>
      </trkpt>
      <trkpt lat="43.10369398444891" lon="-0.160542028024793">
        <ele>358.23000000000002</ele>
        <time>2025-04-26T13:58:27Z</time>
      </trkpt>
      <trkpt lat="43.103710999712348" lon="-0.160632971674204">
        <ele>357.75</ele>
        <time>2025-04-26T13:58:28Z</time>
      </trkpt>
      <trkpt lat="43.103721980005503" lon="-0.160728022456169">
        <ele>357.26999999999998</ele>
        <time>2025-04-26T13:58:29Z</time>
      </trkpt>
      <trkpt lat="43.103713011369109" lon="-0.160822989419103">
        <ele>356.79000000000002</ele>
        <time>2025-04-26T13:58:30Z</time>
      </trkpt>
      <trkpt lat="43.103692978620529" lon="-0.160921979695559">
        <ele>356.31</ele>
        <time>2025-04-26T13:58:31Z</time>
      </trkpt>
      <trkpt lat="43.1036720238626" lon="-0.161022981628776">
        <ele>355.82999999999998</ele>
        <time>2025-04-26T13:58:32Z</time>
      </trkpt>
      <trkpt lat="43.103592982515693" lon="-0.161406034603715">
        <ele>354.38</ele>
        <time>2025-04-26T13:58:36Z</time>
      </trkpt>
      <trkpt lat="43.103455016389489" lon="-0.161832002922893">
        <ele>351.98000000000002</ele>
        <time>2025-04-26T13:58:41Z</time>
      </trkpt>
      <trkpt lat="43.103186963126063" lon="-0.162759963423014">
        <ele>346.20999999999998</ele>
        <time>2025-04-26T13:58:51Z</time>
      </trkpt>
      <trkpt lat="43.10311202891171" lon="-0.163038996979594">
        <ele>344.76999999999998</ele>
        <time>2025-04-26T13:58:54Z</time>
      </trkpt>
      <trkpt lat="43.102960987016559" lon="-0.163763025775552">
        <ele>342.85000000000002</ele>
        <time>2025-04-26T13:59:01Z</time>
      </trkpt>
      <trkpt lat="43.102952018380165" lon="-0.163854975253344">
        <ele>342.85000000000002</ele>
        <time>2025-04-26T13:59:02Z</time>
      </trkpt>
      <trkpt lat="43.10294397175312" lon="-0.163938039913774">
        <ele>342.85000000000002</ele>
        <time>2025-04-26T13:59:03Z</time>
      </trkpt>
      <trkpt lat="43.102924022823572" lon="-0.164151024073362">
        <ele>342.37</ele>
        <time>2025-04-26T13:59:06Z</time>
      </trkpt>
      <trkpt lat="43.102908013388515" lon="-0.164312962442636">
        <ele>342.37</ele>
        <time>2025-04-26T13:59:08Z</time>
      </trkpt>
      <trkpt lat="43.10276904143393" lon="-0.165408980101347">
        <ele>341.88999999999999</ele>
        <time>2025-04-26T13:59:18Z</time>
      </trkpt>
      <trkpt lat="43.10257600620389" lon="-0.166314980015159">
        <ele>341.88999999999999</ele>
        <time>2025-04-26T13:59:25Z</time>
      </trkpt>
      <trkpt lat="43.102367967367172" lon="-0.167617024853826">
        <ele>340.92000000000002</ele>
        <time>2025-04-26T13:59:36Z</time>
      </trkpt>
      <trkpt lat="43.102225977927446" lon="-0.169025016948581">
        <ele>338.51999999999998</ele>
        <time>2025-04-26T13:59:47Z</time>
      </trkpt>
      <trkpt lat="43.10223201289773" lon="-0.169168012216687">
        <ele>338.51999999999998</ele>
        <time>2025-04-26T13:59:48Z</time>
      </trkpt>
      <trkpt lat="43.102237964048982" lon="-0.169312013313174">
        <ele>338.04000000000002</ele>
        <time>2025-04-26T13:59:49Z</time>
      </trkpt>
      <trkpt lat="43.102621017023921" lon="-0.170941036194563">
        <ele>340.92000000000002</ele>
        <time>2025-04-26T14:00:00Z</time>
      </trkpt>
      <trkpt lat="43.103018989786506" lon="-0.172380963340402">
        <ele>341.41000000000003</ele>
        <time>2025-04-26T14:00:09Z</time>
      </trkpt>
      <trkpt lat="43.103534979745746" lon="-0.173775963485241">
        <ele>343.81</ele>
        <time>2025-04-26T14:00:19Z</time>
      </trkpt>
      <trkpt lat="43.103705970570445" lon="-0.174234034493566">
        <ele>343.32999999999998</ele>
        <time>2025-04-26T14:00:22Z</time>
      </trkpt>
      <trkpt lat="43.103881990537047" lon="-0.174706019461155">
        <ele>343.32999999999998</ele>
        <time>2025-04-26T14:00:25Z</time>
      </trkpt>
      <trkpt lat="43.104254985228181" lon="-0.175499031320214">
        <ele>344.29000000000002</ele>
        <time>2025-04-26T14:00:30Z</time>
      </trkpt>
      <trkpt lat="43.104297984391451" lon="-0.175687959417701">
        <ele>344.29000000000002</ele>
        <time>2025-04-26T14:00:31Z</time>
      </trkpt>
      <trkpt lat="43.104433016851544" lon="-0.176281984895468">
        <ele>344.76999999999998</ele>
        <time>2025-04-26T14:00:34Z</time>
      </trkpt>
      <trkpt lat="43.104503005743027" lon="-0.176461022347212">
        <ele>344.76999999999998</ele>
        <time>2025-04-26T14:00:35Z</time>
      </trkpt>
      <trkpt lat="43.104590009897947" lon="-0.176632013171911">
        <ele>345.25</ele>
        <time>2025-04-26T14:00:36Z</time>
      </trkpt>
      <trkpt lat="43.105035005137324" lon="-0.177588975057006">
        <ele>347.17000000000002</ele>
        <time>2025-04-26T14:00:41Z</time>
      </trkpt>
      <trkpt lat="43.105527022853494" lon="-0.179009037092328">
        <ele>348.13</ele>
        <time>2025-04-26T14:00:46Z</time>
      </trkpt>
      <trkpt lat="43.105846960097551" lon="-0.179969016462564">
        <ele>348.13</ele>
        <time>2025-04-26T14:00:50Z</time>
      </trkpt>
      <trkpt lat="43.106323974207044" lon="-0.181857962161303">
        <ele>346.69</ele>
        <time>2025-04-26T14:00:59Z</time>
      </trkpt>
      <trkpt lat="43.106741979718208" lon="-0.18399802967906">
        <ele>338.51999999999998</ele>
        <time>2025-04-26T14:01:08Z</time>
      </trkpt>
      <trkpt lat="43.107011038810015" lon="-0.185572989284992">
        <ele>334.19999999999999</ele>
        <time>2025-04-26T14:01:15Z</time>
      </trkpt>
      <trkpt lat="43.107095025479794" lon="-0.186310010030866">
        <ele>333.23000000000002</ele>
        <time>2025-04-26T14:01:19Z</time>
      </trkpt>
      <trkpt lat="43.107155039906502" lon="-0.186467003077269">
        <ele>332.75</ele>
        <time>2025-04-26T14:01:20Z</time>
      </trkpt>
      <trkpt lat="43.107262998819351" lon="-0.186601029708982">
        <ele>332.26999999999998</ele>
        <time>2025-04-26T14:01:21Z</time>
      </trkpt>
      <trkpt lat="43.107377998530865" lon="-0.186742013320327">
        <ele>331.79000000000002</ele>
        <time>2025-04-26T14:01:22Z</time>
      </trkpt>
      <trkpt lat="43.107504984363914" lon="-0.18689900636673">
        <ele>331.31</ele>
        <time>2025-04-26T14:01:23Z</time>
      </trkpt>
      <trkpt lat="43.108745003119111" lon="-0.188285959884524">
        <ele>325.54000000000002</ele>
        <time>2025-04-26T14:01:31Z</time>
      </trkpt>
      <trkpt lat="43.110180990770459" lon="-0.189806018024683">
        <ele>323.62</ele>
        <time>2025-04-26T14:01:40Z</time>
      </trkpt>
      <trkpt lat="43.110365979373455" lon="-0.189910959452391">
        <ele>323.13999999999999</ele>
        <time>2025-04-26T14:01:41Z</time>
      </trkpt>
      <trkpt lat="43.110554991289973" lon="-0.190020008012652">
        <ele>323.13999999999999</ele>
        <time>2025-04-26T14:01:42Z</time>
      </trkpt>
      <trkpt lat="43.111956026405096" lon="-0.190686034038663">
        <ele>323.13999999999999</ele>
        <time>2025-04-26T14:01:49Z</time>
      </trkpt>
      <trkpt lat="43.112141015008092" lon="-0.190773038193583">
        <ele>323.13999999999999</ele>
        <time>2025-04-26T14:01:50Z</time>
      </trkpt>
      <trkpt lat="43.113537020981312" lon="-0.191742992028594">
        <ele>322.66000000000003</ele>
        <time>2025-04-26T14:01:58Z</time>
      </trkpt>
      <trkpt lat="43.114950964227319" lon="-0.192988039925694">
        <ele>321.22000000000003</ele>
        <time>2025-04-26T14:02:07Z</time>
      </trkpt>
      <trkpt lat="43.116178996860981" lon="-0.193635961040854">
        <ele>320.25999999999999</ele>
        <time>2025-04-26T14:02:14Z</time>
      </trkpt>
      <trkpt lat="43.118530036881566" lon="-0.19461203366518">
        <ele>318.81</ele>
        <time>2025-04-26T14:02:27Z</time>
      </trkpt>
      <trkpt lat="43.119520023465157" lon="-0.195265989750624">
        <ele>320.25999999999999</ele>
        <time>2025-04-26T14:02:33Z</time>
      </trkpt>
      <trkpt lat="43.119651032611728" lon="-0.195442009717226">
        <ele>320.74000000000001</ele>
        <time>2025-04-26T14:02:34Z</time>
      </trkpt>
      <trkpt lat="43.119911039248109" lon="-0.19579203799367">
        <ele>321.22000000000003</ele>
        <time>2025-04-26T14:02:36Z</time>
      </trkpt>
      <trkpt lat="43.120140032842755" lon="-0.196172995492816">
        <ele>321.69999999999999</ele>
        <time>2025-04-26T14:02:38Z</time>
      </trkpt>
      <trkpt lat="43.120243968442082" lon="-0.196381034329534">
        <ele>322.18000000000001</ele>
        <time>2025-04-26T14:02:39Z</time>
      </trkpt>
      <trkpt lat="43.120893985033035" lon="-0.198520012199879">
        <ele>323.13999999999999</ele>
        <time>2025-04-26T14:02:48Z</time>
      </trkpt>
      <trkpt lat="43.121536960825324" lon="-0.200605010613799">
        <ele>323.13999999999999</ele>
        <time>2025-04-26T14:02:57Z</time>
      </trkpt>
      <trkpt lat="43.122189994901419" lon="-0.202753040939569">
        <ele>326.01999999999998</ele>
        <time>2025-04-26T14:03:06Z</time>
      </trkpt>
      <trkpt lat="43.12300899066031" lon="-0.205428041517735">
        <ele>327.47000000000003</ele>
        <time>2025-04-26T14:03:18Z</time>
      </trkpt>
      <trkpt lat="43.123375028371811" lon="-0.206272015348077">
        <ele>326.01999999999998</ele>
        <time>2025-04-26T14:03:24Z</time>
      </trkpt>
      <trkpt lat="43.124141972512007" lon="-0.207262001931667">
        <ele>318.32999999999998</ele>
        <time>2025-04-26T14:03:33Z</time>
      </trkpt>
      <trkpt lat="43.124235011637211" lon="-0.207324028015137">
        <ele>317.37</ele>
        <time>2025-04-26T14:03:34Z</time>
      </trkpt>
      <trkpt lat="43.12434196472168" lon="-0.207344982773066">
        <ele>315.93000000000001</ele>
        <time>2025-04-26T14:03:35Z</time>
      </trkpt>
      <trkpt lat="43.124461993575096" lon="-0.207369038835168">
        <ele>315.44999999999999</ele>
        <time>2025-04-26T14:03:36Z</time>
      </trkpt>
      <trkpt lat="43.124588979408145" lon="-0.207395022735">
        <ele>314.49000000000001</ele>
        <time>2025-04-26T14:03:37Z</time>
      </trkpt>
      <trkpt lat="43.1247069966048" lon="-0.20741798914969">
        <ele>314.00999999999999</ele>
        <time>2025-04-26T14:03:38Z</time>
      </trkpt>
      <trkpt lat="43.124818978831172" lon="-0.207441039383411">
        <ele>313.52999999999997</ele>
        <time>2025-04-26T14:03:39Z</time>
      </trkpt>
      <trkpt lat="43.125405041500926" lon="-0.207518991082907">
        <ele>310.63999999999999</ele>
        <time>2025-04-26T14:03:45Z</time>
      </trkpt>
      <trkpt lat="43.126143990084529" lon="-0.207539023831487">
        <ele>308.72000000000003</ele>
        <time>2025-04-26T14:03:53Z</time>
      </trkpt>
      <trkpt lat="43.126238035038114" lon="-0.207539023831487">
        <ele>308.72000000000003</ele>
        <time>2025-04-26T14:03:54Z</time>
      </trkpt>
      <trkpt lat="43.126444984227419" lon="-0.207545980811119">
        <ele>308.24000000000001</ele>
        <time>2025-04-26T14:03:56Z</time>
      </trkpt>
      <trkpt lat="43.126547997817397" lon="-0.207550004124641">
        <ele>308.24000000000001</ele>
        <time>2025-04-26T14:03:57Z</time>
      </trkpt>
      <trkpt lat="43.126641036942601" lon="-0.207554027438164">
        <ele>307.75999999999999</ele>
        <time>2025-04-26T14:03:58Z</time>
      </trkpt>
      <trkpt lat="43.126727035269141" lon="-0.207556961104274">
        <ele>308.24000000000001</ele>
        <time>2025-04-26T14:03:59Z</time>
      </trkpt>
      <trkpt lat="43.12681102193892" lon="-0.207559978589416">
        <ele>308.24000000000001</ele>
        <time>2025-04-26T14:04:00Z</time>
      </trkpt>
      <trkpt lat="43.126997016370296" lon="-0.207559978589416">
        <ele>308.24000000000001</ele>
        <time>2025-04-26T14:04:02Z</time>
      </trkpt>
      <trkpt lat="43.127087960019708" lon="-0.207559978589416">
        <ele>308.24000000000001</ele>
        <time>2025-04-26T14:04:03Z</time>
      </trkpt>
      <trkpt lat="43.127730013802648" lon="-0.207582022994757">
        <ele>310.16000000000003</ele>
        <time>2025-04-26T14:04:11Z</time>
      </trkpt>
      <trkpt lat="43.127804026007652" lon="-0.207594009116292">
        <ele>310.16000000000003</ele>
        <time>2025-04-26T14:04:12Z</time>
      </trkpt>
      <trkpt lat="43.127973005175591" lon="-0.207618987187743">
        <ele>310.63999999999999</ele>
        <time>2025-04-26T14:04:14Z</time>
      </trkpt>
      <trkpt lat="43.128137039020658" lon="-0.207643965259194">
        <ele>310.16000000000003</ele>
        <time>2025-04-26T14:04:16Z</time>
      </trkpt>
      <trkpt lat="43.128218008205295" lon="-0.207657041028142">
        <ele>310.16000000000003</ele>
        <time>2025-04-26T14:04:17Z</time>
      </trkpt>
      <trkpt lat="43.128299983218312" lon="-0.207669027149677">
        <ele>309.68000000000001</ele>
        <time>2025-04-26T14:04:18Z</time>
      </trkpt>
      <trkpt lat="43.128377012908459" lon="-0.207681013271213">
        <ele>309.68000000000001</ele>
        <time>2025-04-26T14:04:19Z</time>
      </trkpt>
      <trkpt lat="43.128454964607954" lon="-0.207692999392748">
        <ele>309.68000000000001</ele>
        <time>2025-04-26T14:04:20Z</time>
      </trkpt>
      <trkpt lat="43.128539035096765" lon="-0.207705991342664">
        <ele>310.16000000000003</ele>
        <time>2025-04-26T14:04:21Z</time>
      </trkpt>
      <trkpt lat="43.128621010109782" lon="-0.207743039354682">
        <ele>310.63999999999999</ele>
        <time>2025-04-26T14:04:22Z</time>
      </trkpt>
      <trkpt lat="43.128780014812946" lon="-0.207842029631138">
        <ele>311.12</ele>
        <time>2025-04-26T14:04:24Z</time>
      </trkpt>
      <trkpt lat="43.128847992047668" lon="-0.207884022966027">
        <ele>311.60000000000002</ele>
        <time>2025-04-26T14:04:25Z</time>
      </trkpt>
      <trkpt lat="43.128913035616279" lon="-0.207925010472536">
        <ele>311.60000000000002</ele>
        <time>2025-04-26T14:04:26Z</time>
      </trkpt>
      <trkpt lat="43.128965003415942" lon="-0.207964992150664">
        <ele>312.08999999999997</ele>
        <time>2025-04-26T14:04:27Z</time>
      </trkpt>
      <trkpt lat="43.129026023671031" lon="-0.208013020455837">
        <ele>312.08999999999997</ele>
        <time>2025-04-26T14:04:28Z</time>
      </trkpt>
      <trkpt lat="43.12921604141593" lon="-0.208161966875196">
        <ele>312.08999999999997</ele>
        <time>2025-04-26T14:04:31Z</time>
      </trkpt>
      <trkpt lat="43.129279995337129" lon="-0.20821200683713">
        <ele>311.60000000000002</ele>
        <time>2025-04-26T14:04:32Z</time>
      </trkpt>
      <trkpt lat="43.129534972831607" lon="-0.208439994603395">
        <ele>310.16000000000003</ele>
        <time>2025-04-26T14:04:36Z</time>
      </trkpt>
      <trkpt lat="43.129703029990196" lon="-0.208624983206391">
        <ele>309.19999999999999</ele>
        <time>2025-04-26T14:04:39Z</time>
      </trkpt>
      <trkpt lat="43.129771007224917" lon="-0.208672005683184">
        <ele>309.19999999999999</ele>
        <time>2025-04-26T14:04:40Z</time>
      </trkpt>
      <trkpt lat="43.130053980275989" lon="-0.208855988457799">
        <ele>309.68000000000001</ele>
        <time>2025-04-26T14:04:44Z</time>
      </trkpt>
      <trkpt lat="43.130124974995852" lon="-0.208911979570985">
        <ele>310.16000000000003</ele>
        <time>2025-04-26T14:04:45Z</time>
      </trkpt>
      <trkpt lat="43.130196975544095" lon="-0.208969982340932">
        <ele>309.68000000000001</ele>
        <time>2025-04-26T14:04:46Z</time>
      </trkpt>
      <trkpt lat="43.130267970263958" lon="-0.209027985110879">
        <ele>309.19999999999999</ele>
        <time>2025-04-26T14:04:47Z</time>
      </trkpt>
      <trkpt lat="43.130342988297343" lon="-0.209089005365968">
        <ele>308.72000000000003</ele>
        <time>2025-04-26T14:04:48Z</time>
      </trkpt>
      <trkpt lat="43.130662003532052" lon="-0.209344988688827">
        <ele>307.27999999999997</ele>
        <time>2025-04-26T14:04:52Z</time>
      </trkpt>
      <trkpt lat="43.130734004080296" lon="-0.209402991458774">
        <ele>307.27999999999997</ele>
        <time>2025-04-26T14:04:53Z</time>
      </trkpt>
      <trkpt lat="43.131119990721345" lon="-0.209712032228708">
        <ele>305.36000000000001</ele>
        <time>2025-04-26T14:04:58Z</time>
      </trkpt>
      <trkpt lat="43.131189979612827" lon="-0.209780009463429">
        <ele>305.36000000000001</ele>
        <time>2025-04-26T14:04:59Z</time>
      </trkpt>
      <trkpt lat="43.131255023181438" lon="-0.209863996133208">
        <ele>305.36000000000001</ele>
        <time>2025-04-26T14:05:00Z</time>
      </trkpt>
      <trkpt lat="43.131377985700965" lon="-0.210024006664753">
        <ele>304.88</ele>
        <time>2025-04-26T14:05:02Z</time>
      </trkpt>
      <trkpt lat="43.13141000457108" lon="-0.210100030526519">
        <ele>304.88</ele>
        <time>2025-04-26T14:05:03Z</time>
      </trkpt>
      <trkpt lat="43.131445962935686" lon="-0.210186028853059">
        <ele>304.88</ele>
        <time>2025-04-26T14:05:04Z</time>
      </trkpt>
      <trkpt lat="43.131478987634182" lon="-0.210268003866076">
        <ele>304.88</ele>
        <time>2025-04-26T14:05:05Z</time>
      </trkpt>
      <trkpt lat="43.131512012332678" lon="-0.210346039384604">
        <ele>304.88</ele>
        <time>2025-04-26T14:05:06Z</time>
      </trkpt>
      <trkpt lat="43.131543025374413" lon="-0.210424996912479">
        <ele>304.88</ele>
        <time>2025-04-26T14:05:07Z</time>
      </trkpt>
      <trkpt lat="43.131574960425496" lon="-0.210508983582258">
        <ele>304.88</ele>
        <time>2025-04-26T14:05:08Z</time>
      </trkpt>
      <trkpt lat="43.131608990952373" lon="-0.210596993565559">
        <ele>305.36000000000001</ele>
        <time>2025-04-26T14:05:09Z</time>
      </trkpt>
      <trkpt lat="43.131874026730657" lon="-0.211036037653685">
        <ele>305.36000000000001</ele>
        <time>2025-04-26T14:05:14Z</time>
      </trkpt>
      <trkpt lat="43.132662009447813" lon="-0.211667027324438">
        <ele>301.50999999999999</ele>
        <time>2025-04-26T14:05:23Z</time>
      </trkpt>
      <trkpt lat="43.134263036772609" lon="-0.212998995557427">
        <ele>299.58999999999997</ele>
        <time>2025-04-26T14:05:39Z</time>
      </trkpt>
      <trkpt lat="43.135705981403589" lon="-0.214151004329324">
        <ele>297.18000000000001</ele>
        <time>2025-04-26T14:05:53Z</time>
      </trkpt>
      <trkpt lat="43.13695496879518" lon="-0.214876960963011">
        <ele>297.67000000000002</ele>
        <time>2025-04-26T14:06:02Z</time>
      </trkpt>
      <trkpt lat="43.13882295973599" lon="-0.216030981391668">
        <ele>295.74000000000001</ele>
        <time>2025-04-26T14:06:13Z</time>
      </trkpt>
      <trkpt lat="43.141574990004301" lon="-0.217739967629313">
        <ele>293.81999999999999</ele>
        <time>2025-04-26T14:06:27Z</time>
      </trkpt>
      <trkpt lat="43.144705966114998" lon="-0.219635032117367">
        <ele>291.42000000000002</ele>
        <time>2025-04-26T14:06:43Z</time>
      </trkpt>
      <trkpt lat="43.147778017446399" lon="-0.22151199169457">
        <ele>292.38</ele>
        <time>2025-04-26T14:06:59Z</time>
      </trkpt>
      <trkpt lat="43.149320958182216" lon="-0.222470965236425">
        <ele>296.22000000000003</ele>
        <time>2025-04-26T14:07:08Z</time>
      </trkpt>
      <trkpt lat="43.15059601329267" lon="-0.223686005920172">
        <ele>295.74000000000001</ele>
        <time>2025-04-26T14:07:17Z</time>
      </trkpt>
      <trkpt lat="43.152330983430147" lon="-0.22538099437952">
        <ele>294.77999999999997</ele>
        <time>2025-04-26T14:07:30Z</time>
      </trkpt>
      <trkpt lat="43.152912016957998" lon="-0.225847028195858">
        <ele>293.33999999999997</ele>
        <time>2025-04-26T14:07:35Z</time>
      </trkpt>
      <trkpt lat="43.153037996962667" lon="-0.225909976288676">
        <ele>293.33999999999997</ele>
        <time>2025-04-26T14:07:36Z</time>
      </trkpt>
      <trkpt lat="43.153183003887534" lon="-0.225946018472314">
        <ele>292.86000000000001</ele>
        <time>2025-04-26T14:07:37Z</time>
      </trkpt>
      <trkpt lat="43.153333961963654" lon="-0.225936966016889">
        <ele>292.38</ele>
        <time>2025-04-26T14:07:38Z</time>
      </trkpt>
      <trkpt lat="43.153491960838437" lon="-0.225922968238592">
        <ele>292.38</ele>
        <time>2025-04-26T14:07:39Z</time>
      </trkpt>
      <trkpt lat="43.153661023825407" lon="-0.225907964631915">
        <ele>292.38</ele>
        <time>2025-04-26T14:07:40Z</time>
      </trkpt>
      <trkpt lat="43.15472099930048" lon="-0.225627003237605">
        <ele>290.45999999999998</ele>
        <time>2025-04-26T14:07:46Z</time>
      </trkpt>
      <trkpt lat="43.154902970418334" lon="-0.225627003237605">
        <ele>289.97000000000003</ele>
        <time>2025-04-26T14:07:47Z</time>
      </trkpt>
      <trkpt lat="43.15508795902133" lon="-0.225676959380507">
        <ele>289.49000000000001</ele>
        <time>2025-04-26T14:07:48Z</time>
      </trkpt>
      <trkpt lat="43.155284011736512" lon="-0.225734962150455">
        <ele>289.00999999999999</ele>
        <time>2025-04-26T14:07:49Z</time>
      </trkpt>
      <trkpt lat="43.15545299090445" lon="-0.225846022367477">
        <ele>288.52999999999997</ele>
        <time>2025-04-26T14:07:50Z</time>
      </trkpt>
      <trkpt lat="43.155635967850685" lon="-0.225965967401862">
        <ele>287.56999999999999</ele>
        <time>2025-04-26T14:07:51Z</time>
      </trkpt>
      <trkpt lat="43.155824979767203" lon="-0.226091025397182">
        <ele>287.56999999999999</ele>
        <time>2025-04-26T14:07:52Z</time>
      </trkpt>
      <trkpt lat="43.157460037618876" lon="-0.227201040834188">
        <ele>280.83999999999997</ele>
        <time>2025-04-26T14:08:00Z</time>
      </trkpt>
      <trkpt lat="43.159654000774026" lon="-0.228699976578355">
        <ele>278.92000000000002</ele>
        <time>2025-04-26T14:08:11Z</time>
      </trkpt>
      <trkpt lat="43.160202009603381" lon="-0.229150000959635">
        <ele>278.44</ele>
        <time>2025-04-26T14:08:14Z</time>
      </trkpt>
      <trkpt lat="43.160365959629416" lon="-0.229337001219392">
        <ele>277.95999999999998</ele>
        <time>2025-04-26T14:08:15Z</time>
      </trkpt>
      <trkpt lat="43.161508999764919" lon="-0.230614989995956">
        <ele>275.06999999999999</ele>
        <time>2025-04-26T14:08:22Z</time>
      </trkpt>
      <trkpt lat="43.161694994196296" lon="-0.230764020234346">
        <ele>274.58999999999997</ele>
        <time>2025-04-26T14:08:23Z</time>
      </trkpt>
      <trkpt lat="43.162099001929164" lon="-0.230928976088762">
        <ele>273.63</ele>
        <time>2025-04-26T14:08:25Z</time>
      </trkpt>
      <trkpt lat="43.162311986088753" lon="-0.230998964980245">
        <ele>273.14999999999998</ele>
        <time>2025-04-26T14:08:26Z</time>
      </trkpt>
      <trkpt lat="43.162521030753851" lon="-0.231067026033998">
        <ele>272.67000000000002</ele>
        <time>2025-04-26T14:08:27Z</time>
      </trkpt>
      <trkpt lat="43.16273502074182" lon="-0.23113701492548">
        <ele>272.67000000000002</ele>
        <time>2025-04-26T14:08:28Z</time>
      </trkpt>
      <trkpt lat="43.162954039871693" lon="-0.231208009645343">
        <ele>272.19</ele>
        <time>2025-04-26T14:08:29Z</time>
      </trkpt>
      <trkpt lat="43.163171969354153" lon="-0.231279004365206">
        <ele>271.70999999999998</ele>
        <time>2025-04-26T14:08:30Z</time>
      </trkpt>
      <trkpt lat="43.164835022762418" lon="-0.232134964317083">
        <ele>270.26999999999998</ele>
        <time>2025-04-26T14:08:38Z</time>
      </trkpt>
      <trkpt lat="43.166209990158677" lon="-0.233199968934059">
        <ele>270.26999999999998</ele>
        <time>2025-04-26T14:08:45Z</time>
      </trkpt>
      <trkpt lat="43.167490996420383" lon="-0.23440302349627">
        <ele>269.79000000000002</ele>
        <time>2025-04-26T14:08:52Z</time>
      </trkpt>
      <trkpt lat="43.168930001556873" lon="-0.235265018418431">
        <ele>266.89999999999998</ele>
        <time>2025-04-26T14:08:59Z</time>
      </trkpt>
      <trkpt lat="43.170764967799187" lon="-0.235859965905547">
        <ele>262.57999999999998</ele>
        <time>2025-04-26T14:09:07Z</time>
      </trkpt>
      <trkpt lat="43.172860024496913" lon="-0.236614001914859">
        <ele>264.01999999999998</ele>
        <time>2025-04-26T14:09:16Z</time>
      </trkpt>
      <trkpt lat="43.174558030441403" lon="-0.237780008465052">
        <ele>268.82999999999998</ele>
        <time>2025-04-26T14:09:25Z</time>
      </trkpt>
      <trkpt lat="43.17519798874855" lon="-0.238374033942819">
        <ele>273.63</ele>
        <time>2025-04-26T14:09:31Z</time>
      </trkpt>
      <trkpt lat="43.17564801312983" lon="-0.238888012245297">
        <ele>276.04000000000002</ele>
        <time>2025-04-26T14:09:36Z</time>
      </trkpt>
      <trkpt lat="43.175742980092764" lon="-0.238948026672006">
        <ele>276.51999999999998</ele>
        <time>2025-04-26T14:09:37Z</time>
      </trkpt>
      <trkpt lat="43.175833001732826" lon="-0.238996976986527">
        <ele>276.51999999999998</ele>
        <time>2025-04-26T14:09:38Z</time>
      </trkpt>
      <trkpt lat="43.175923023372889" lon="-0.239009968936443">
        <ele>277</ele>
        <time>2025-04-26T14:09:39Z</time>
      </trkpt>
      <trkpt lat="43.176027964800596" lon="-0.23898197337985">
        <ele>277.48000000000002</ele>
        <time>2025-04-26T14:09:40Z</time>
      </trkpt>
      <trkpt lat="43.176107006147504" lon="-0.238880971446633">
        <ele>277</ele>
        <time>2025-04-26T14:09:41Z</time>
      </trkpt>
      <trkpt lat="43.176156040281057" lon="-0.23876597173512">
        <ele>276.51999999999998</ele>
        <time>2025-04-26T14:09:42Z</time>
      </trkpt>
      <trkpt lat="43.176209013909101" lon="-0.238643009215593">
        <ele>276.04000000000002</ele>
        <time>2025-04-26T14:09:43Z</time>
      </trkpt>
      <trkpt lat="43.176262993365526" lon="-0.238515017554164">
        <ele>275.56</ele>
        <time>2025-04-26T14:09:44Z</time>
      </trkpt>
      <trkpt lat="43.176424009725451" lon="-0.238137999549508">
        <ele>274.58999999999997</ele>
        <time>2025-04-26T14:09:47Z</time>
      </trkpt>
      <trkpt lat="43.176472038030624" lon="-0.238025011494756">
        <ele>274.58999999999997</ele>
        <time>2025-04-26T14:09:48Z</time>
      </trkpt>
      <trkpt lat="43.176515959203243" lon="-0.237943036481738">
        <ele>274.58999999999997</ele>
        <time>2025-04-26T14:09:49Z</time>
      </trkpt>
      <trkpt lat="43.176598018035293" lon="-0.237934989854693">
        <ele>275.06999999999999</ele>
        <time>2025-04-26T14:09:50Z</time>
      </trkpt>
      <trkpt lat="43.176684016361833" lon="-0.2379260212183">
        <ele>275.06999999999999</ele>
        <time>2025-04-26T14:09:51Z</time>
      </trkpt>
      <trkpt lat="43.176760040223598" lon="-0.237961979582906">
        <ele>274.58999999999997</ele>
        <time>2025-04-26T14:09:52Z</time>
      </trkpt>
      <trkpt lat="43.176846960559487" lon="-0.238048983737826">
        <ele>274.58999999999997</ele>
        <time>2025-04-26T14:09:53Z</time>
      </trkpt>
      <trkpt lat="43.176938993856311" lon="-0.23814101703465">
        <ele>275.06999999999999</ele>
        <time>2025-04-26T14:09:54Z</time>
      </trkpt>
      <trkpt lat="43.177037984132767" lon="-0.238240007311106">
        <ele>275.06999999999999</ele>
        <time>2025-04-26T14:09:55Z</time>
      </trkpt>
      <trkpt lat="43.178093014284968" lon="-0.239440966397524">
        <ele>275.06999999999999</ele>
        <time>2025-04-26T14:10:06Z</time>
      </trkpt>
      <trkpt lat="43.17850498482585" lon="-0.239780014380813">
        <ele>273.14999999999998</ele>
        <time>2025-04-26T14:10:10Z</time>
      </trkpt>
      <trkpt lat="43.17861101590097" lon="-0.239842962473631">
        <ele>272.67000000000002</ele>
        <time>2025-04-26T14:10:11Z</time>
      </trkpt>
      <trkpt lat="43.180081034079194" lon="-0.240425001829863">
        <ele>269.31</ele>
        <time>2025-04-26T14:10:24Z</time>
      </trkpt>
      <trkpt lat="43.181531019508839" lon="-0.240455009043217">
        <ele>267.38</ele>
        <time>2025-04-26T14:10:36Z</time>
      </trkpt>
      <trkpt lat="43.183220978826284" lon="-0.240362975746393">
        <ele>264.98000000000002</ele>
        <time>2025-04-26T14:10:49Z</time>
      </trkpt>
      <trkpt lat="43.1849280372262" lon="-0.240379991009831">
        <ele>264.01999999999998</ele>
        <time>2025-04-26T14:10:59Z</time>
      </trkpt>
      <trkpt lat="43.185412008315325" lon="-0.240404969081283">
        <ele>263.54000000000002</ele>
        <time>2025-04-26T14:11:03Z</time>
      </trkpt>
      <trkpt lat="43.185475040227175" lon="-0.240407986566424">
        <ele>263.54000000000002</ele>
        <time>2025-04-26T14:11:04Z</time>
      </trkpt>
      <trkpt lat="43.185524996370077" lon="-0.240411004051566">
        <ele>263.06</ele>
        <time>2025-04-26T14:11:05Z</time>
      </trkpt>
      <trkpt lat="43.185582999140024" lon="-0.240240013226867">
        <ele>263.06</ele>
        <time>2025-04-26T14:11:06Z</time>
      </trkpt>
      <trkpt lat="43.185590961948037" lon="-0.240231966599822">
        <ele>263.06</ele>
        <time>2025-04-26T14:11:07Z</time>
      </trkpt>
      <trkpt lat="43.185670003294945" lon="-0.240167006850243">
        <ele>262.57999999999998</ele>
        <time>2025-04-26T14:11:08Z</time>
      </trkpt>
      <trkpt lat="43.185734041035175" lon="-0.240141022950411">
        <ele>262.57999999999998</ele>
        <time>2025-04-26T14:11:09Z</time>
      </trkpt>
      <trkpt lat="43.185835964977741" lon="-0.240164995193481">
        <ele>262.57999999999998</ele>
        <time>2025-04-26T14:11:10Z</time>
      </trkpt>
      <trkpt lat="43.185862032696605" lon="-0.240175975486636">
        <ele>262.57999999999998</ele>
        <time>2025-04-26T14:11:11Z</time>
      </trkpt>
      <trkpt lat="43.185947025194764" lon="-0.240303967148066">
        <ele>262.57999999999998</ele>
        <time>2025-04-26T14:11:12Z</time>
      </trkpt>
      <trkpt lat="43.185947025194764" lon="-0.240303967148066">
        <ele>262.57999999999998</ele>
        <time>2025-04-26T14:11:13Z</time>
      </trkpt>
      <trkpt lat="43.186081973835826" lon="-0.240476969629526">
        <ele>262.57999999999998</ele>
        <time>2025-04-26T14:11:14Z</time>
      </trkpt>
      <trkpt lat="43.186171995475888" lon="-0.240477975457907">
        <ele>262.10000000000002</ele>
        <time>2025-04-26T14:11:15Z</time>
      </trkpt>
      <trkpt lat="43.186281966045499" lon="-0.240479987114668">
        <ele>261.62</ele>
        <time>2025-04-26T14:11:16Z</time>
      </trkpt>
      <trkpt lat="43.187456019222736" lon="-0.240492979064584">
        <ele>260.64999999999998</ele>
        <time>2025-04-26T14:11:24Z</time>
      </trkpt>
      <trkpt lat="43.189114965498447" lon="-0.240498008206487">
        <ele>259.20999999999998</ele>
        <time>2025-04-26T14:11:32Z</time>
      </trkpt>
      <trkpt lat="43.192118033766747" lon="-0.240498008206487">
        <ele>258.25</ele>
        <time>2025-04-26T14:11:46Z</time>
      </trkpt>
      <trkpt lat="43.194401012733579" lon="-0.240820962935686">
        <ele>258.73000000000002</ele>
        <time>2025-04-26T14:11:57Z</time>
      </trkpt>
      <trkpt lat="43.196735959500074" lon="-0.241725035011768">
        <ele>258.25</ele>
        <time>2025-04-26T14:12:09Z</time>
      </trkpt>
      <trkpt lat="43.198059964925051" lon="-0.242515029385686">
        <ele>257.76999999999998</ele>
        <time>2025-04-26T14:12:18Z</time>
      </trkpt>
      <trkpt lat="43.198332963511348" lon="-0.242641009390354">
        <ele>257.29000000000002</ele>
        <time>2025-04-26T14:12:21Z</time>
      </trkpt>
      <trkpt lat="43.198415022343397" lon="-0.24267696775496">
        <ele>257.29000000000002</ele>
        <time>2025-04-26T14:12:22Z</time>
      </trkpt>
      <trkpt lat="43.198495991528034" lon="-0.242665987461805">
        <ele>257.29000000000002</ele>
        <time>2025-04-26T14:12:23Z</time>
      </trkpt>
      <trkpt lat="43.198575032874942" lon="-0.242640003561974">
        <ele>257.29000000000002</ele>
        <time>2025-04-26T14:12:24Z</time>
      </trkpt>
      <trkpt lat="43.198677962645888" lon="-0.242671016603708">
        <ele>257.29000000000002</ele>
        <time>2025-04-26T14:12:25Z</time>
      </trkpt>
      <trkpt lat="43.198735965415835" lon="-0.242729019373655">
        <ele>257.29000000000002</ele>
        <time>2025-04-26T14:12:26Z</time>
      </trkpt>
      <trkpt lat="43.198764966800809" lon="-0.242860028520226">
        <ele>257.29000000000002</ele>
        <time>2025-04-26T14:12:27Z</time>
      </trkpt>
      <trkpt lat="43.198824981227517" lon="-0.242973016574979">
        <ele>257.76999999999998</ele>
        <time>2025-04-26T14:12:28Z</time>
      </trkpt>
      <trkpt lat="43.198899999260902" lon="-0.243058009073138">
        <ele>257.76999999999998</ele>
        <time>2025-04-26T14:12:29Z</time>
      </trkpt>
      <trkpt lat="43.198984991759062" lon="-0.243152976036072">
        <ele>258.25</ele>
        <time>2025-04-26T14:12:30Z</time>
      </trkpt>
      <trkpt lat="43.199076019227505" lon="-0.243253977969289">
        <ele>258.25</ele>
        <time>2025-04-26T14:12:31Z</time>
      </trkpt>
      <trkpt lat="43.199815973639488" lon="-0.243799975141883">
        <ele>258.25</ele>
        <time>2025-04-26T14:12:36Z</time>
      </trkpt>
      <trkpt lat="43.20136402733624" lon="-0.244736988097429">
        <ele>257.29000000000002</ele>
        <time>2025-04-26T14:12:43Z</time>
      </trkpt>
      <trkpt lat="43.203168986365199" lon="-0.245526982471347">
        <ele>257.29000000000002</ele>
        <time>2025-04-26T14:12:51Z</time>
      </trkpt>
      <trkpt lat="43.205913975834846" lon="-0.246251011267304">
        <ele>254.41</ele>
        <time>2025-04-26T14:13:03Z</time>
      </trkpt>
      <trkpt lat="43.20890698581934" lon="-0.246408004313707">
        <ele>252.47999999999999</ele>
        <time>2025-04-26T14:13:16Z</time>
      </trkpt>
      <trkpt lat="43.213279992341995" lon="-0.246486961841583">
        <ele>248.63999999999999</ele>
        <time>2025-04-26T14:13:35Z</time>
      </trkpt>
      <trkpt lat="43.216370986774564" lon="-0.246546976268291">
        <ele>245.75</ele>
        <time>2025-04-26T14:13:49Z</time>
      </trkpt>
      <trkpt lat="43.218311984091997" lon="-0.246748980134726">
        <ele>244.78999999999999</ele>
        <time>2025-04-26T14:13:58Z</time>
      </trkpt>
      <trkpt lat="43.218536032363772" lon="-0.246805977076292">
        <ele>245.75</ele>
        <time>2025-04-26T14:13:59Z</time>
      </trkpt>
      <trkpt lat="43.221837999299169" lon="-0.247645005583763">
        <ele>246.22999999999999</ele>
        <time>2025-04-26T14:14:15Z</time>
      </trkpt>
      <trkpt lat="43.223866000771523" lon="-0.248484034091234">
        <ele>243.34999999999999</ele>
        <time>2025-04-26T14:14:26Z</time>
      </trkpt>
      <trkpt lat="43.225180031731725" lon="-0.249525988474488">
        <ele>242.38999999999999</ele>
        <time>2025-04-26T14:14:34Z</time>
      </trkpt>
      <trkpt lat="43.225796017795801" lon="-0.250071985647082">
        <ele>241.43000000000001</ele>
        <time>2025-04-26T14:14:39Z</time>
      </trkpt>
      <trkpt lat="43.226159038022161" lon="-0.25011096149683">
        <ele>240.94999999999999</ele>
        <time>2025-04-26T14:14:42Z</time>
      </trkpt>
      <trkpt lat="43.22622399777174" lon="-0.250208023935556">
        <ele>240.94999999999999</ele>
        <time>2025-04-26T14:14:43Z</time>
      </trkpt>
      <trkpt lat="43.226257022470236" lon="-0.250326041132212">
        <ele>240.94999999999999</ele>
        <time>2025-04-26T14:14:44Z</time>
      </trkpt>
      <trkpt lat="43.226265991106629" lon="-0.250389995053411">
        <ele>240.47</ele>
        <time>2025-04-26T14:14:45Z</time>
      </trkpt>
      <trkpt lat="43.226294992491603" lon="-0.250631980597973">
        <ele>240.47</ele>
        <time>2025-04-26T14:14:46Z</time>
      </trkpt>
      <trkpt lat="43.226357018575072" lon="-0.25079601444304">
        <ele>239.99000000000001</ele>
        <time>2025-04-26T14:14:47Z</time>
      </trkpt>
      <trkpt lat="43.226424995809793" lon="-0.250977985560894">
        <ele>239.99000000000001</ele>
        <time>2025-04-26T14:14:48Z</time>
      </trkpt>
      <trkpt lat="43.226503031328321" lon="-0.25118401274085">
        <ele>239.99000000000001</ele>
        <time>2025-04-26T14:14:49Z</time>
      </trkpt>
      <trkpt lat="43.226620964705944" lon="-0.251362966373563">
        <ele>239.50999999999999</ele>
        <time>2025-04-26T14:14:50Z</time>
      </trkpt>
      <trkpt lat="43.227482959628105" lon="-0.252953013405204">
        <ele>238.53999999999999</ele>
        <time>2025-04-26T14:14:57Z</time>
      </trkpt>
      <trkpt lat="43.228991031646729" lon="-0.256587993353605">
        <ele>238.53999999999999</ele>
        <time>2025-04-26T14:15:11Z</time>
      </trkpt>
      <trkpt lat="43.230199031531811" lon="-0.259280009195209">
        <ele>238.06</ele>
        <time>2025-04-26T14:15:22Z</time>
      </trkpt>
      <trkpt lat="43.231534017249942" lon="-0.261179013177752">
        <ele>235.66</ele>
        <time>2025-04-26T14:15:31Z</time>
      </trkpt>
      <trkpt lat="43.23316304013133" lon="-0.262582981958985">
        <ele>233.74000000000001</ele>
        <time>2025-04-26T14:15:40Z</time>
      </trkpt>
      <trkpt lat="43.235133960843086" lon="-0.263615967705846">
        <ele>231.81</ele>
        <time>2025-04-26T14:15:50Z</time>
      </trkpt>
      <trkpt lat="43.238130994141102" lon="-0.265095960348845">
        <ele>230.84999999999999</ele>
        <time>2025-04-26T14:16:06Z</time>
      </trkpt>
      <trkpt lat="43.239475032314658" lon="-0.265756035223603">
        <ele>230.84999999999999</ele>
        <time>2025-04-26T14:16:13Z</time>
      </trkpt>
      <trkpt lat="43.240889981389046" lon="-0.266449972987175">
        <ele>228.93000000000001</ele>
        <time>2025-04-26T14:16:20Z</time>
      </trkpt>
      <trkpt lat="43.242712039500475" lon="-0.267546996474266">
        <ele>227.00999999999999</ele>
        <time>2025-04-26T14:16:30Z</time>
      </trkpt>
      <trkpt lat="43.243350991979241" lon="-0.267969025298953">
        <ele>225.56999999999999</ele>
        <time>2025-04-26T14:16:35Z</time>
      </trkpt>
      <trkpt lat="43.243472026661038" lon="-0.267990985885262">
        <ele>225.09</ele>
        <time>2025-04-26T14:16:36Z</time>
      </trkpt>
      <trkpt lat="43.243724992498755" lon="-0.268017975613475">
        <ele>225.09</ele>
        <time>2025-04-26T14:16:38Z</time>
      </trkpt>
      <trkpt lat="43.24386203661561" lon="-0.26817798614502">
        <ele>225.09</ele>
        <time>2025-04-26T14:16:39Z</time>
      </trkpt>
      <trkpt lat="43.244863003492355" lon="-0.268875025212765">
        <ele>223.16</ele>
        <time>2025-04-26T14:16:46Z</time>
      </trkpt>
      <trkpt lat="43.245909987017512" lon="-0.2701769862324">
        <ele>221.72</ele>
        <time>2025-04-26T14:16:53Z</time>
      </trkpt>
      <trkpt lat="43.246595039963722" lon="-0.271907011047006">
        <ele>221.72</ele>
        <time>2025-04-26T14:17:00Z</time>
      </trkpt>
      <trkpt lat="43.247631965205073" lon="-0.275046033784747">
        <ele>221.24000000000001</ele>
        <time>2025-04-26T14:17:12Z</time>
      </trkpt>
      <trkpt lat="43.248496977612376" lon="-0.277126003056765">
        <ele>220.75999999999999</ele>
        <time>2025-04-26T14:17:21Z</time>
      </trkpt>
      <trkpt lat="43.249225029721856" lon="-0.27814700268209">
        <ele>220.75999999999999</ele>
        <time>2025-04-26T14:17:29Z</time>
      </trkpt>
      <trkpt lat="43.249318990856409" lon="-0.278214979916811">
        <ele>220.75999999999999</ele>
        <time>2025-04-26T14:17:30Z</time>
      </trkpt>
      <trkpt lat="43.249552007764578" lon="-0.278292009606957">
        <ele>220.75999999999999</ele>
        <time>2025-04-26T14:17:32Z</time>
      </trkpt>
      <trkpt lat="43.249612022191286" lon="-0.278392005711794">
        <ele>220.75999999999999</ele>
        <time>2025-04-26T14:17:33Z</time>
      </trkpt>
      <trkpt lat="43.24964202940464" lon="-0.278570959344506">
        <ele>220.75999999999999</ele>
        <time>2025-04-26T14:17:34Z</time>
      </trkpt>
      <trkpt lat="43.249754011631012" lon="-0.278867008164525">
        <ele>220.28</ele>
        <time>2025-04-26T14:17:36Z</time>
      </trkpt>
      <trkpt lat="43.249826012179255" lon="-0.279024001210928">
        <ele>220.28</ele>
        <time>2025-04-26T14:17:37Z</time>
      </trkpt>
      <trkpt lat="43.250725977122784" lon="-0.280095962807536">
        <ele>220.28</ele>
        <time>2025-04-26T14:17:44Z</time>
      </trkpt>
      <trkpt lat="43.250883975997567" lon="-0.280278017744422">
        <ele>220.75999999999999</ele>
        <time>2025-04-26T14:17:45Z</time>
      </trkpt>
      <trkpt lat="43.252785997465253" lon="-0.282400986179709">
        <ele>220.28</ele>
        <time>2025-04-26T14:17:57Z</time>
      </trkpt>
      <trkpt lat="43.254215028136969" lon="-0.28403302654624">
        <ele>219.80000000000001</ele>
        <time>2025-04-26T14:18:06Z</time>
      </trkpt>
      <trkpt lat="43.256335984915495" lon="-0.286445003002882">
        <ele>220.75999999999999</ele>
        <time>2025-04-26T14:18:19Z</time>
      </trkpt>
      <trkpt lat="43.258142033591866" lon="-0.28843997977674">
        <ele>216.91</ele>
        <time>2025-04-26T14:18:30Z</time>
      </trkpt>
      <trkpt lat="43.259592019021511" lon="-0.289833974093199">
        <ele>214.99000000000001</ele>
        <time>2025-04-26T14:18:39Z</time>
      </trkpt>
      <trkpt lat="43.261428996920586" lon="-0.291480012238026">
        <ele>213.55000000000001</ele>
        <time>2025-04-26T14:18:50Z</time>
      </trkpt>
      <trkpt lat="43.26283497735858" lon="-0.293153040111065">
        <ele>211.63</ele>
        <time>2025-04-26T14:18:59Z</time>
      </trkpt>
      <trkpt lat="43.263913979753852" lon="-0.295111974701285">
        <ele>209.22</ele>
        <time>2025-04-26T14:19:08Z</time>
      </trkpt>
      <trkpt lat="43.264812016859651" lon="-0.2969900239259">
        <ele>208.74000000000001</ele>
        <time>2025-04-26T14:19:16Z</time>
      </trkpt>
      <trkpt lat="43.265880038961768" lon="-0.298706972971559">
        <ele>206.81999999999999</ele>
        <time>2025-04-26T14:19:24Z</time>
      </trkpt>
      <trkpt lat="43.267100024968386" lon="-0.299963001161814">
        <ele>204.41999999999999</ele>
        <time>2025-04-26T14:19:32Z</time>
      </trkpt>
      <trkpt lat="43.268267037346959" lon="-0.30117804184556">
        <ele>203.94</ele>
        <time>2025-04-26T14:19:39Z</time>
      </trkpt>
      <trkpt lat="43.269445030018687" lon="-0.302516967058182">
        <ele>203.94</ele>
        <time>2025-04-26T14:19:45Z</time>
      </trkpt>
      <trkpt lat="43.270650012418628" lon="-0.30397298745811">
        <ele>204.41999999999999</ele>
        <time>2025-04-26T14:19:53Z</time>
      </trkpt>
      <trkpt lat="43.271959014236927" lon="-0.305554987862706">
        <ele>205.38</ele>
        <time>2025-04-26T14:20:02Z</time>
      </trkpt>
      <trkpt lat="43.272093962877989" lon="-0.30573695898056">
        <ele>205.86000000000001</ele>
        <time>2025-04-26T14:20:03Z</time>
      </trkpt>
      <trkpt lat="43.272884041070938" lon="-0.306875975802541">
        <ele>205.86000000000001</ele>
        <time>2025-04-26T14:20:10Z</time>
      </trkpt>
      <trkpt lat="43.273360971361399" lon="-0.307419039309025">
        <ele>206.81999999999999</ele>
        <time>2025-04-26T14:20:15Z</time>
      </trkpt>
      <trkpt lat="43.273540008813143" lon="-0.307543007656932">
        <ele>206.81999999999999</ele>
        <time>2025-04-26T14:20:17Z</time>
      </trkpt>
      <trkpt lat="43.273638999089599" lon="-0.307648032903671">
        <ele>206.81999999999999</ele>
        <time>2025-04-26T14:20:18Z</time>
      </trkpt>
      <trkpt lat="43.273665988817811" lon="-0.307783987373114">
        <ele>206.81999999999999</ele>
        <time>2025-04-26T14:20:19Z</time>
      </trkpt>
      <trkpt lat="43.273670012131333" lon="-0.307911979034543">
        <ele>206.81999999999999</ele>
        <time>2025-04-26T14:20:20Z</time>
      </trkpt>
      <trkpt lat="43.273699013516307" lon="-0.308061009272933">
        <ele>206.81999999999999</ele>
        <time>2025-04-26T14:20:21Z</time>
      </trkpt>
      <trkpt lat="43.273789035156369" lon="-0.30839997343719">
        <ele>206.81999999999999</ele>
        <time>2025-04-26T14:20:23Z</time>
      </trkpt>
      <trkpt lat="43.273868998512626" lon="-0.308559983968735">
        <ele>206.81999999999999</ele>
        <time>2025-04-26T14:20:24Z</time>
      </trkpt>
      <trkpt lat="43.274740967899561" lon="-0.310303000733256">
        <ele>207.30000000000001</ele>
        <time>2025-04-26T14:20:33Z</time>
      </trkpt>
      <trkpt lat="43.27587797306478" lon="-0.312296971678734">
        <ele>205.38</ele>
        <time>2025-04-26T14:20:42Z</time>
      </trkpt>
      <trkpt lat="43.277069041505456" lon="-0.31353397294879">
        <ele>209.69999999999999</ele>
        <time>2025-04-26T14:20:49Z</time>
      </trkpt>
      <trkpt lat="43.278602007776499" lon="-0.314440978690982">
        <ele>222.68000000000001</ele>
        <time>2025-04-26T14:20:56Z</time>
      </trkpt>
      <trkpt lat="43.280967967584729" lon="-0.315122008323669">
        <ele>240.94999999999999</ele>
        <time>2025-04-26T14:21:06Z</time>
      </trkpt>
      <trkpt lat="43.282496994361281" lon="-0.315778981894255">
        <ele>245.75</ele>
        <time>2025-04-26T14:21:13Z</time>
      </trkpt>
      <trkpt lat="43.283515982329845" lon="-0.316995028406382">
        <ele>245.27000000000001</ele>
        <time>2025-04-26T14:21:19Z</time>
      </trkpt>
      <trkpt lat="43.284098021686077" lon="-0.31847502104938">
        <ele>245.27000000000001</ele>
        <time>2025-04-26T14:21:25Z</time>
      </trkpt>
      <trkpt lat="43.2850949652493" lon="-0.321993995457888">
        <ele>238.53999999999999</ele>
        <time>2025-04-26T14:21:40Z</time>
      </trkpt>
      <trkpt lat="43.285875990986824" lon="-0.324739990755916">
        <ele>224.12</ele>
        <time>2025-04-26T14:21:50Z</time>
      </trkpt>
      <trkpt lat="43.28681300394237" lon="-0.327954031527042">
        <ele>214.03</ele>
        <time>2025-04-26T14:22:02Z</time>
      </trkpt>
      <trkpt lat="43.287234026938677" lon="-0.329886982217431">
        <ele>211.63</ele>
        <time>2025-04-26T14:22:10Z</time>
      </trkpt>
      <trkpt lat="43.287505013868213" lon="-0.331809036433697">
        <ele>210.19</ele>
        <time>2025-04-26T14:22:19Z</time>
      </trkpt>
      <trkpt lat="43.287550024688244" lon="-0.331918001174927">
        <ele>209.69999999999999</ele>
        <time>2025-04-26T14:22:21Z</time>
      </trkpt>
      <trkpt lat="43.287652032449841" lon="-0.332136014476419">
        <ele>210.19</ele>
        <time>2025-04-26T14:22:23Z</time>
      </trkpt>
      <trkpt lat="43.287710035219789" lon="-0.332187982276082">
        <ele>209.69999999999999</ele>
        <time>2025-04-26T14:22:24Z</time>
      </trkpt>
      <trkpt lat="43.287781029939651" lon="-0.332249002531171">
        <ele>210.19</ele>
        <time>2025-04-26T14:22:25Z</time>
      </trkpt>
      <trkpt lat="43.287826040759683" lon="-0.332378000020981">
        <ele>210.19</ele>
        <time>2025-04-26T14:22:26Z</time>
      </trkpt>
      <trkpt lat="43.287845989689231" lon="-0.332486964762211">
        <ele>210.19</ele>
        <time>2025-04-26T14:22:27Z</time>
      </trkpt>
      <trkpt lat="43.287813970819116" lon="-0.332588972523808">
        <ele>210.19</ele>
        <time>2025-04-26T14:22:28Z</time>
      </trkpt>
      <trkpt lat="43.287771977484226" lon="-0.332683017477393">
        <ele>209.22</ele>
        <time>2025-04-26T14:22:29Z</time>
      </trkpt>
      <trkpt lat="43.287708023563027" lon="-0.332721993327141">
        <ele>209.22</ele>
        <time>2025-04-26T14:22:30Z</time>
      </trkpt>
      <trkpt lat="43.287577014416456" lon="-0.3328069858253">
        <ele>208.25999999999999</ele>
        <time>2025-04-26T14:22:31Z</time>
      </trkpt>
      <trkpt lat="43.287532003596425" lon="-0.332927014678717">
        <ele>208.25999999999999</ele>
        <time>2025-04-26T14:22:32Z</time>
      </trkpt>
      <trkpt lat="43.287482969462872" lon="-0.333056012168527">
        <ele>207.78</ele>
        <time>2025-04-26T14:22:33Z</time>
      </trkpt>
      <trkpt lat="43.287429995834827" lon="-0.333198001608253">
        <ele>207.78</ele>
        <time>2025-04-26T14:22:34Z</time>
      </trkpt>
      <trkpt lat="43.287405017763376" lon="-0.333400005474687">
        <ele>207.78</ele>
        <time>2025-04-26T14:22:35Z</time>
      </trkpt>
      <trkpt lat="43.28741499222815" lon="-0.333593962714076">
        <ele>207.78</ele>
        <time>2025-04-26T14:22:36Z</time>
      </trkpt>
      <trkpt lat="43.287436030805111" lon="-0.333809964358807">
        <ele>207.30000000000001</ele>
        <time>2025-04-26T14:22:37Z</time>
      </trkpt>
      <trkpt lat="43.287469977512956" lon="-0.334028983488679">
        <ele>206.81999999999999</ele>
        <time>2025-04-26T14:22:38Z</time>
      </trkpt>
      <trkpt lat="43.287507025524974" lon="-0.334260994568467">
        <ele>206.81999999999999</ele>
        <time>2025-04-26T14:22:39Z</time>
      </trkpt>
      <trkpt lat="43.287780024111271" lon="-0.336453029885888">
        <ele>206.34</ele>
        <time>2025-04-26T14:22:47Z</time>
      </trkpt>
      <trkpt lat="43.287827968597412" lon="-0.337893962860107">
        <ele>207.30000000000001</ele>
        <time>2025-04-26T14:22:52Z</time>
      </trkpt>
      <trkpt lat="43.287783963605762" lon="-0.338152963668108">
        <ele>207.78</ele>
        <time>2025-04-26T14:22:53Z</time>
      </trkpt>
      <trkpt lat="43.287738030776381" lon="-0.338421016931534">
        <ele>207.78</ele>
        <time>2025-04-26T14:22:54Z</time>
      </trkpt>
      <trkpt lat="43.287694025784731" lon="-0.338681023567915">
        <ele>207.78</ele>
        <time>2025-04-26T14:22:55Z</time>
      </trkpt>
      <trkpt lat="43.287633005529642" lon="-0.338927032426">
        <ele>208.25999999999999</ele>
        <time>2025-04-26T14:22:56Z</time>
      </trkpt>
      <trkpt lat="43.287552958354354" lon="-0.339168012142181">
        <ele>208.74000000000001</ele>
        <time>2025-04-26T14:22:57Z</time>
      </trkpt>
      <trkpt lat="43.287432007491589" lon="-0.339370016008615">
        <ele>209.22</ele>
        <time>2025-04-26T14:22:58Z</time>
      </trkpt>
      <trkpt lat="43.286837982013822" lon="-0.340311974287033">
        <ele>211.63</ele>
        <time>2025-04-26T14:23:03Z</time>
      </trkpt>
      <trkpt lat="43.285295041278005" lon="-0.342853032052517">
        <ele>210.66999999999999</ele>
        <time>2025-04-26T14:23:15Z</time>
      </trkpt>
      <trkpt lat="43.285198984667659" lon="-0.343035003170371">
        <ele>210.19</ele>
        <time>2025-04-26T14:23:16Z</time>
      </trkpt>
      <trkpt lat="43.285101000219584" lon="-0.34322502091527">
        <ele>210.19</ele>
        <time>2025-04-26T14:23:17Z</time>
      </trkpt>
      <trkpt lat="43.284935960546136" lon="-0.343832038342953">
        <ele>208.74000000000001</ele>
        <time>2025-04-26T14:23:21Z</time>
      </trkpt>
      <trkpt lat="43.284975020214915" lon="-0.344094978645444">
        <ele>208.25999999999999</ele>
        <time>2025-04-26T14:23:22Z</time>
      </trkpt>
      <trkpt lat="43.284976026043296" lon="-0.34410797059536">
        <ele>208.25999999999999</ele>
        <time>2025-04-26T14:23:23Z</time>
      </trkpt>
      <trkpt lat="43.284984994679689" lon="-0.344204027205706">
        <ele>208.25999999999999</ele>
        <time>2025-04-26T14:23:24Z</time>
      </trkpt>
      <trkpt lat="43.284995974972844" lon="-0.344309974461794">
        <ele>207.78</ele>
        <time>2025-04-26T14:23:25Z</time>
      </trkpt>
      <trkpt lat="43.284961022436619" lon="-0.344362026080489">
        <ele>207.30000000000001</ele>
        <time>2025-04-26T14:23:26Z</time>
      </trkpt>
      <trkpt lat="43.284909976646304" lon="-0.344438971951604">
        <ele>207.30000000000001</ele>
        <time>2025-04-26T14:23:27Z</time>
      </trkpt>
      <trkpt lat="43.284818027168512" lon="-0.34462203271687">
        <ele>207.30000000000001</ele>
        <time>2025-04-26T14:23:28Z</time>
      </trkpt>
      <trkpt lat="43.284810986369848" lon="-0.34479696303606">
        <ele>207.78</ele>
        <time>2025-04-26T14:23:29Z</time>
      </trkpt>
      <trkpt lat="43.284803023561835" lon="-0.345007013529539">
        <ele>208.25999999999999</ele>
        <time>2025-04-26T14:23:30Z</time>
      </trkpt>
      <trkpt lat="43.284803023561835" lon="-0.345231983810663">
        <ele>208.74000000000001</ele>
        <time>2025-04-26T14:23:31Z</time>
      </trkpt>
      <trkpt lat="43.284622980281711" lon="-0.347587969154119">
        <ele>206.34</ele>
        <time>2025-04-26T14:23:40Z</time>
      </trkpt>
      <trkpt lat="43.284420976415277" lon="-0.350032970309258">
        <ele>201.05000000000001</ele>
        <time>2025-04-26T14:23:49Z</time>
      </trkpt>
      <trkpt lat="43.284571012482047" lon="-0.351672973483801">
        <ele>197.21000000000001</ele>
        <time>2025-04-26T14:23:55Z</time>
      </trkpt>
      <trkpt lat="43.284508986398578" lon="-0.353267965838313">
        <ele>191.91999999999999</ele>
        <time>2025-04-26T14:24:01Z</time>
      </trkpt>
      <trkpt lat="43.284441009163857" lon="-0.353523027151823">
        <ele>191.44</ele>
        <time>2025-04-26T14:24:02Z</time>
      </trkpt>
      <trkpt lat="43.284368002787232" lon="-0.353784039616585">
        <ele>190.96000000000001</ele>
        <time>2025-04-26T14:24:03Z</time>
      </trkpt>
      <trkpt lat="43.284288039430976" lon="-0.354072963818908">
        <ele>190</ele>
        <time>2025-04-26T14:24:04Z</time>
      </trkpt>
      <trkpt lat="43.284185025840998" lon="-0.354278990998864">
        <ele>189.03999999999999</ele>
        <time>2025-04-26T14:24:05Z</time>
      </trkpt>
      <trkpt lat="43.283655038103461" lon="-0.355135034769773">
        <ele>186.63</ele>
        <time>2025-04-26T14:24:09Z</time>
      </trkpt>
      <trkpt lat="43.283496033400297" lon="-0.355307031422853">
        <ele>185.66999999999999</ele>
        <time>2025-04-26T14:24:10Z</time>
      </trkpt>
      <trkpt lat="43.282024003565311" lon="-0.356503967195749">
        <ele>182.78999999999999</ele>
        <time>2025-04-26T14:24:19Z</time>
      </trkpt>
      <trkpt lat="43.281352026388049" lon="-0.357044013217092">
        <ele>182.78999999999999</ele>
        <time>2025-04-26T14:24:25Z</time>
      </trkpt>
      <trkpt lat="43.281106017529964" lon="-0.357245011255145">
        <ele>182.78999999999999</ele>
        <time>2025-04-26T14:24:29Z</time>
      </trkpt>
      <trkpt lat="43.281009960919619" lon="-0.357323968783021">
        <ele>182.31</ele>
        <time>2025-04-26T14:24:31Z</time>
      </trkpt>
      <trkpt lat="43.280964028090239" lon="-0.35736202262342">
        <ele>182.31</ele>
        <time>2025-04-26T14:24:32Z</time>
      </trkpt>
      <trkpt lat="43.280940977856517" lon="-0.357570983469486">
        <ele>182.31</ele>
        <time>2025-04-26T14:24:33Z</time>
      </trkpt>
      <trkpt lat="43.280878029763699" lon="-0.357696041464806">
        <ele>182.78999999999999</ele>
        <time>2025-04-26T14:24:36Z</time>
      </trkpt>
      <trkpt lat="43.280801000073552" lon="-0.357737028971314">
        <ele>182.31</ele>
        <time>2025-04-26T14:24:37Z</time>
      </trkpt>
      <trkpt lat="43.280790019780397" lon="-0.357741974294186">
        <ele>182.31</ele>
        <time>2025-04-26T14:24:38Z</time>
      </trkpt>
      <trkpt lat="43.280621962621808" lon="-0.357801988720894">
        <ele>182.31</ele>
        <time>2025-04-26T14:24:39Z</time>
      </trkpt>
      <trkpt lat="43.280557002872229" lon="-0.357897039502859">
        <ele>182.78999999999999</ele>
        <time>2025-04-26T14:24:40Z</time>
      </trkpt>
      <trkpt lat="43.280483996495605" lon="-0.357998041436076">
        <ele>183.27000000000001</ele>
        <time>2025-04-26T14:24:41Z</time>
      </trkpt>
      <trkpt lat="43.28041099011898" lon="-0.358098037540913">
        <ele>183.27000000000001</ele>
        <time>2025-04-26T14:24:42Z</time>
      </trkpt>
      <trkpt lat="43.279476994648576" lon="-0.359377032145858">
        <ele>184.71000000000001</ele>
        <time>2025-04-26T14:24:53Z</time>
      </trkpt>
      <trkpt lat="43.279047003015876" lon="-0.359964016824961">
        <ele>185.66999999999999</ele>
        <time>2025-04-26T14:25:00Z</time>
      </trkpt>
      <trkpt lat="43.278893027454615" lon="-0.360198961570859">
        <ele>186.15000000000001</ele>
        <time>2025-04-26T14:25:09Z</time>
      </trkpt>
      <trkpt lat="43.278858996927738" lon="-0.360261993482709">
        <ele>186.15000000000001</ele>
        <time>2025-04-26T14:25:13Z</time>
      </trkpt>
      <trkpt lat="43.2788419816643" lon="-0.360294012352824">
        <ele>186.15000000000001</ele>
        <time>2025-04-26T14:25:14Z</time>
      </trkpt>
      <trkpt lat="43.278809962794185" lon="-0.360353020951152">
        <ele>186.15000000000001</ele>
        <time>2025-04-26T14:25:16Z</time>
      </trkpt>
      <trkpt lat="43.278794959187508" lon="-0.360382022336125">
        <ele>186.15000000000001</ele>
        <time>2025-04-26T14:25:17Z</time>
      </trkpt>
      <trkpt lat="43.278784984722733" lon="-0.360600035637617">
        <ele>186.15000000000001</ele>
        <time>2025-04-26T14:25:19Z</time>
      </trkpt>
      <trkpt lat="43.278756989166141" lon="-0.360670024529099">
        <ele>186.15000000000001</ele>
        <time>2025-04-26T14:25:20Z</time>
      </trkpt>
      <trkpt lat="43.278661016374826" lon="-0.360695002600551">
        <ele>186.15000000000001</ele>
        <time>2025-04-26T14:25:21Z</time>
      </trkpt>
      <trkpt lat="43.278516009449959" lon="-0.360704977065325">
        <ele>185.66999999999999</ele>
        <time>2025-04-26T14:25:23Z</time>
      </trkpt>
      <trkpt lat="43.278430011123419" lon="-0.360750993713737">
        <ele>185.66999999999999</ele>
        <time>2025-04-26T14:25:24Z</time>
      </trkpt>
      <trkpt lat="43.278333032503724" lon="-0.360802039504051">
        <ele>185.66999999999999</ele>
        <time>2025-04-26T14:25:25Z</time>
      </trkpt>
      <trkpt lat="43.278220966458321" lon="-0.360874040052295">
        <ele>185.66999999999999</ele>
        <time>2025-04-26T14:25:26Z</time>
      </trkpt>
      <trkpt lat="43.278136979788542" lon="-0.360980993136764">
        <ele>185.66999999999999</ele>
        <time>2025-04-26T14:25:27Z</time>
      </trkpt>
      <trkpt lat="43.27804796397686" lon="-0.361093981191516">
        <ele>185.66999999999999</ele>
        <time>2025-04-26T14:25:28Z</time>
      </trkpt>
      <trkpt lat="43.277563992887735" lon="-0.361800994724035">
        <ele>185.66999999999999</ele>
        <time>2025-04-26T14:25:33Z</time>
      </trkpt>
      <trkpt lat="43.277475982904434" lon="-0.36198103800416">
        <ele>185.66999999999999</ele>
        <time>2025-04-26T14:25:34Z</time>
      </trkpt>
      <trkpt lat="43.277386967092752" lon="-0.362166026607156">
        <ele>186.15000000000001</ele>
        <time>2025-04-26T14:25:35Z</time>
      </trkpt>
      <trkpt lat="43.277340028434992" lon="-0.362389991059899">
        <ele>186.15000000000001</ele>
        <time>2025-04-26T14:25:36Z</time>
      </trkpt>
      <trkpt lat="43.277299040928483" lon="-0.362614039331675">
        <ele>186.15000000000001</ele>
        <time>2025-04-26T14:25:37Z</time>
      </trkpt>
      <trkpt lat="43.277256041765213" lon="-0.36284202709794">
        <ele>186.63</ele>
        <time>2025-04-26T14:25:38Z</time>
      </trkpt>
      <trkpt lat="43.277213964611292" lon="-0.363070014864206">
        <ele>187.11000000000001</ele>
        <time>2025-04-26T14:25:39Z</time>
      </trkpt>
      <trkpt lat="43.277218993753195" lon="-0.363558009266853">
        <ele>187.59</ele>
        <time>2025-04-26T14:25:41Z</time>
      </trkpt>
      <trkpt lat="43.277226034551859" lon="-0.363802006468177">
        <ele>188.08000000000001</ele>
        <time>2025-04-26T14:25:42Z</time>
      </trkpt>
      <trkpt lat="43.277265010401607" lon="-0.364042986184359">
        <ele>188.08000000000001</ele>
        <time>2025-04-26T14:25:43Z</time>
      </trkpt>
      <trkpt lat="43.277314966544509" lon="-0.364270973950624">
        <ele>188.08000000000001</ele>
        <time>2025-04-26T14:25:44Z</time>
      </trkpt>
      <trkpt lat="43.277372969314456" lon="-0.364499967545271">
        <ele>188.08000000000001</ele>
        <time>2025-04-26T14:25:45Z</time>
      </trkpt>
      <trkpt lat="43.277452010661364" lon="-0.364714963361621">
        <ele>188.56</ele>
        <time>2025-04-26T14:25:46Z</time>
      </trkpt>
      <trkpt lat="43.27753096818924" lon="-0.364929037168622">
        <ele>188.56</ele>
        <time>2025-04-26T14:25:47Z</time>
      </trkpt>
      <trkpt lat="43.278283998370171" lon="-0.366821000352502">
        <ele>189.03999999999999</ele>
        <time>2025-04-26T14:25:56Z</time>
      </trkpt>
      <trkpt lat="43.278450965881348" lon="-0.36750596947968">
        <ele>188.56</ele>
        <time>2025-04-26T14:25:59Z</time>
      </trkpt>
      <trkpt lat="43.278478961437941" lon="-0.367710990831256">
        <ele>188.56</ele>
        <time>2025-04-26T14:26:00Z</time>
      </trkpt>
      <trkpt lat="43.278509974479675" lon="-0.367937972769141">
        <ele>188.08000000000001</ele>
        <time>2025-04-26T14:26:01Z</time>
      </trkpt>
      <trkpt lat="43.278589015826583" lon="-0.369777968153358">
        <ele>185.66999999999999</ele>
        <time>2025-04-26T14:26:09Z</time>
      </trkpt>
      <trkpt lat="43.278677025809884" lon="-0.371773028746247">
        <ele>185.19</ele>
        <time>2025-04-26T14:26:18Z</time>
      </trkpt>
      <trkpt lat="43.278971984982491" lon="-0.373849980533123">
        <ele>187.11000000000001</ele>
        <time>2025-04-26T14:26:28Z</time>
      </trkpt>
      <trkpt lat="43.279111040756106" lon="-0.374635029584169">
        <ele>186.63</ele>
        <time>2025-04-26T14:26:33Z</time>
      </trkpt>
      <trkpt lat="43.279119003564119" lon="-0.374727984890342">
        <ele>186.63</ele>
        <time>2025-04-26T14:26:34Z</time>
      </trkpt>
      <trkpt lat="43.279124032706022" lon="-0.374801997095346">
        <ele>186.63</ele>
        <time>2025-04-26T14:26:35Z</time>
      </trkpt>
      <trkpt lat="43.27914297580719" lon="-0.375044988468289">
        <ele>186.15000000000001</ele>
        <time>2025-04-26T14:26:39Z</time>
      </trkpt>
      <trkpt lat="43.279146999120712" lon="-0.375110032036901">
        <ele>186.63</ele>
        <time>2025-04-26T14:26:40Z</time>
      </trkpt>
      <trkpt lat="43.279152028262615" lon="-0.375191001221538">
        <ele>186.15000000000001</ele>
        <time>2025-04-26T14:26:41Z</time>
      </trkpt>
      <trkpt lat="43.279156973585486" lon="-0.375279011204839">
        <ele>186.15000000000001</ele>
        <time>2025-04-26T14:26:42Z</time>
      </trkpt>
      <trkpt lat="43.279267027974129" lon="-0.375338019803166">
        <ele>186.15000000000001</ele>
        <time>2025-04-26T14:26:43Z</time>
      </trkpt>
      <trkpt lat="43.27931497246027" lon="-0.375419994816184">
        <ele>186.15000000000001</ele>
        <time>2025-04-26T14:26:44Z</time>
      </trkpt>
      <trkpt lat="43.279326958581805" lon="-0.375502975657582">
        <ele>186.63</ele>
        <time>2025-04-26T14:26:45Z</time>
      </trkpt>
      <trkpt lat="43.27929301187396" lon="-0.375585034489632">
        <ele>186.63</ele>
        <time>2025-04-26T14:26:46Z</time>
      </trkpt>
      <trkpt lat="43.279248001053929" lon="-0.37564798258245">
        <ele>186.15000000000001</ele>
        <time>2025-04-26T14:26:47Z</time>
      </trkpt>
      <trkpt lat="43.279224028810859" lon="-0.375681007280946">
        <ele>185.66999999999999</ele>
        <time>2025-04-26T14:26:48Z</time>
      </trkpt>
      <trkpt lat="43.279058989137411" lon="-0.375632978975773">
        <ele>185.66999999999999</ele>
        <time>2025-04-26T14:26:49Z</time>
      </trkpt>
      <trkpt lat="43.278996963053942" lon="-0.375701962038875">
        <ele>185.19</ele>
        <time>2025-04-26T14:26:50Z</time>
      </trkpt>
      <trkpt lat="43.278925968334079" lon="-0.375783015042543">
        <ele>185.19</ele>
        <time>2025-04-26T14:26:51Z</time>
      </trkpt>
      <trkpt lat="43.278863020241261" lon="-0.375907989218831">
        <ele>185.19</ele>
        <time>2025-04-26T14:26:52Z</time>
      </trkpt>
      <trkpt lat="43.278811974450946" lon="-0.37603598088026">
        <ele>185.19</ele>
        <time>2025-04-26T14:26:53Z</time>
      </trkpt>
      <trkpt lat="43.278766041621566" lon="-0.376176964491606">
        <ele>185.66999999999999</ele>
        <time>2025-04-26T14:26:54Z</time>
      </trkpt>
      <trkpt lat="43.278742991387844" lon="-0.376323983073235">
        <ele>185.66999999999999</ele>
        <time>2025-04-26T14:26:55Z</time>
      </trkpt>
      <trkpt lat="43.278718013316393" lon="-0.376477036625147">
        <ele>185.66999999999999</ele>
        <time>2025-04-26T14:26:56Z</time>
      </trkpt>
      <trkpt lat="43.278693035244942" lon="-0.37663503549993">
        <ele>185.66999999999999</ele>
        <time>2025-04-26T14:26:57Z</time>
      </trkpt>
      <trkpt lat="43.278688006103039" lon="-0.376802003011107">
        <ele>185.66999999999999</ele>
        <time>2025-04-26T14:26:58Z</time>
      </trkpt>
      <trkpt lat="43.278688006103039" lon="-0.376976011320949">
        <ele>185.66999999999999</ele>
        <time>2025-04-26T14:26:59Z</time>
      </trkpt>
      <trkpt lat="43.278688006103039" lon="-0.377162005752325">
        <ele>185.66999999999999</ele>
        <time>2025-04-26T14:27:00Z</time>
      </trkpt>
      <trkpt lat="43.278688006103039" lon="-0.377375995740294">
        <ele>185.66999999999999</ele>
        <time>2025-04-26T14:27:01Z</time>
      </trkpt>
      <trkpt lat="43.278987994417548" lon="-0.378792034462094">
        <ele>185.66999999999999</ele>
        <time>2025-04-26T14:27:09Z</time>
      </trkpt>
      <trkpt lat="43.279245989397168" lon="-0.37970800884068">
        <ele>185.66999999999999</ele>
        <time>2025-04-26T14:27:17Z</time>
      </trkpt>
      <trkpt lat="43.279282031580806" lon="-0.379776991903782">
        <ele>185.66999999999999</ele>
        <time>2025-04-26T14:27:18Z</time>
      </trkpt>
      <trkpt lat="43.279320001602173" lon="-0.379847986623645">
        <ele>185.66999999999999</ele>
        <time>2025-04-26T14:27:19Z</time>
      </trkpt>
      <trkpt lat="43.279361994937062" lon="-0.379929039627314">
        <ele>185.66999999999999</ele>
        <time>2025-04-26T14:27:20Z</time>
      </trkpt>
      <trkpt lat="43.279494009912014" lon="-0.380078991875052">
        <ele>185.66999999999999</ele>
        <time>2025-04-26T14:27:22Z</time>
      </trkpt>
      <trkpt lat="43.279522005468607" lon="-0.38017999380827">
        <ele>185.66999999999999</ele>
        <time>2025-04-26T14:27:23Z</time>
      </trkpt>
      <trkpt lat="43.279483029618859" lon="-0.380322989076376">
        <ele>185.66999999999999</ele>
        <time>2025-04-26T14:27:24Z</time>
      </trkpt>
      <trkpt lat="43.279512031003833" lon="-0.380451986566186">
        <ele>185.66999999999999</ele>
        <time>2025-04-26T14:27:25Z</time>
      </trkpt>
      <trkpt lat="43.279542960226536" lon="-0.380593976005912">
        <ele>185.19</ele>
        <time>2025-04-26T14:27:26Z</time>
      </trkpt>
      <trkpt lat="43.279581014066935" lon="-0.380736971274018">
        <ele>184.71000000000001</ele>
        <time>2025-04-26T14:27:27Z</time>
      </trkpt>
      <trkpt lat="43.280116030946374" lon="-0.382277984172106">
        <ele>184.22999999999999</ele>
        <time>2025-04-26T14:27:37Z</time>
      </trkpt>
      <trkpt lat="43.280735034495592" lon="-0.384497009217739">
        <ele>185.19</ele>
        <time>2025-04-26T14:27:49Z</time>
      </trkpt>
      <trkpt lat="43.280975008383393" lon="-0.386000974103808">
        <ele>185.66999999999999</ele>
        <time>2025-04-26T14:27:59Z</time>
      </trkpt>
      <trkpt lat="43.281138958409429" lon="-0.386502966284752">
        <ele>186.63</ele>
        <time>2025-04-26T14:28:06Z</time>
      </trkpt>
      <trkpt lat="43.281187992542982" lon="-0.386630035936832">
        <ele>187.11000000000001</ele>
        <time>2025-04-26T14:28:16Z</time>
      </trkpt>
      <trkpt lat="43.281305003911257" lon="-0.386955002322793">
        <ele>187.11000000000001</ele>
        <time>2025-04-26T14:28:24Z</time>
      </trkpt>
      <trkpt lat="43.281383039429784" lon="-0.387186007574201">
        <ele>187.59</ele>
        <time>2025-04-26T14:28:27Z</time>
      </trkpt>
      <trkpt lat="43.281443975865841" lon="-0.38737703114748">
        <ele>187.59</ele>
        <time>2025-04-26T14:28:30Z</time>
      </trkpt>
      <trkpt lat="43.281599041074514" lon="-0.387483984231949">
        <ele>187.59</ele>
        <time>2025-04-26T14:28:32Z</time>
      </trkpt>
      <trkpt lat="43.281453028321266" lon="-0.38748599588871">
        <ele>187.59</ele>
        <time>2025-04-26T14:28:33Z</time>
      </trkpt>
      <trkpt lat="43.281393013894558" lon="-0.387493958696723">
        <ele>187.11000000000001</ele>
        <time>2025-04-26T14:28:34Z</time>
      </trkpt>
      <trkpt lat="43.280401015654206" lon="-0.387632008641958">
        <ele>185.66999999999999</ele>
        <time>2025-04-26T14:28:44Z</time>
      </trkpt>
      <trkpt lat="43.279187986627221" lon="-0.387780033051968">
        <ele>185.66999999999999</ele>
        <time>2025-04-26T14:28:54Z</time>
      </trkpt>
      <trkpt lat="43.279015989974141" lon="-0.387868965044618">
        <ele>186.15000000000001</ele>
        <time>2025-04-26T14:28:56Z</time>
      </trkpt>
      <trkpt lat="43.278953963890672" lon="-0.387907018885016">
        <ele>186.63</ele>
        <time>2025-04-26T14:28:57Z</time>
      </trkpt>
      <trkpt lat="43.278891015797853" lon="-0.388019001111388">
        <ele>187.11000000000001</ele>
        <time>2025-04-26T14:28:59Z</time>
      </trkpt>
      <trkpt lat="43.278837958350778" lon="-0.388126038014889">
        <ele>187.59</ele>
        <time>2025-04-26T14:29:00Z</time>
      </trkpt>
      <trkpt lat="43.278837958350778" lon="-0.388170965015888">
        <ele>187.59</ele>
        <time>2025-04-26T14:29:01Z</time>
      </trkpt>
      <trkpt lat="43.278837958350778" lon="-0.388281019404531">
        <ele>188.08000000000001</ele>
        <time>2025-04-26T14:29:02Z</time>
      </trkpt>
      <trkpt lat="43.278837958350778" lon="-0.38840901106596">
        <ele>188.08000000000001</ele>
        <time>2025-04-26T14:29:03Z</time>
      </trkpt>
      <trkpt lat="43.278855979442596" lon="-0.388670023530722">
        <ele>188.08000000000001</ele>
        <time>2025-04-26T14:29:05Z</time>
      </trkpt>
      <trkpt lat="43.27890501357615" lon="-0.38879700936377">
        <ele>188.56</ele>
        <time>2025-04-26T14:29:06Z</time>
      </trkpt>
      <trkpt lat="43.278963016346097" lon="-0.388913014903665">
        <ele>188.56</ele>
        <time>2025-04-26T14:29:07Z</time>
      </trkpt>
      <trkpt lat="43.279062006622553" lon="-0.389046035706997">
        <ele>188.56</ele>
        <time>2025-04-26T14:29:08Z</time>
      </trkpt>
      <trkpt lat="43.279170971363783" lon="-0.389130022376776">
        <ele>188.56</ele>
        <time>2025-04-26T14:29:09Z</time>
      </trkpt>
      <trkpt lat="43.279410023242235" lon="-0.389331020414829">
        <ele>188.56</ele>
        <time>2025-04-26T14:29:11Z</time>
      </trkpt>
      <trkpt lat="43.279526028782129" lon="-0.389480972662568">
        <ele>188.56</ele>
        <time>2025-04-26T14:29:12Z</time>
      </trkpt>
      <trkpt lat="43.279646979644895" lon="-0.389636037871242">
        <ele>188.08000000000001</ele>
        <time>2025-04-26T14:29:13Z</time>
      </trkpt>
      <trkpt lat="43.280750038102269" lon="-0.391016034409404">
        <ele>185.66999999999999</ele>
        <time>2025-04-26T14:29:21Z</time>
      </trkpt>
      <trkpt lat="43.280908958986402" lon="-0.391149977222085">
        <ele>185.19</ele>
        <time>2025-04-26T14:29:22Z</time>
      </trkpt>
      <trkpt lat="43.281067041680217" lon="-0.391284003853798">
        <ele>184.71000000000001</ele>
        <time>2025-04-26T14:29:23Z</time>
      </trkpt>
      <trkpt lat="43.281861981377006" lon="-0.391902001574636">
        <ele>183.27000000000001</ele>
        <time>2025-04-26T14:29:28Z</time>
      </trkpt>
      <trkpt lat="43.282004976645112" lon="-0.392029993236065">
        <ele>183.27000000000001</ele>
        <time>2025-04-26T14:29:29Z</time>
      </trkpt>
      <trkpt lat="43.28345999121666" lon="-0.393668990582228">
        <ele>182.31</ele>
        <time>2025-04-26T14:29:39Z</time>
      </trkpt>
      <trkpt lat="43.284069020301104" lon="-0.394597034901381">
        <ele>182.31</ele>
        <time>2025-04-26T14:29:44Z</time>
      </trkpt>
      <trkpt lat="43.284604037180543" lon="-0.396135030314326">
        <ele>181.34999999999999</ele>
        <time>2025-04-26T14:29:52Z</time>
      </trkpt>
      <trkpt lat="43.284989017993212" lon="-0.397281004115939">
        <ele>181.83000000000001</ele>
        <time>2025-04-26T14:30:00Z</time>
      </trkpt>
      <trkpt lat="43.285385984927416" lon="-0.398458996787667">
        <ele>180.38</ele>
        <time>2025-04-26T14:30:08Z</time>
      </trkpt>
      <trkpt lat="43.285574996843934" lon="-0.399070037528872">
        <ele>181.34999999999999</ele>
        <time>2025-04-26T14:30:14Z</time>
      </trkpt>
      <trkpt lat="43.285626964643598" lon="-0.399224013090134">
        <ele>181.83000000000001</ele>
        <time>2025-04-26T14:30:17Z</time>
      </trkpt>
      <trkpt lat="43.285660995170474" lon="-0.399327026680112">
        <ele>181.83000000000001</ele>
        <time>2025-04-26T14:30:19Z</time>
      </trkpt>
      <trkpt lat="43.285811031237245" lon="-0.399390980601311">
        <ele>182.31</ele>
        <time>2025-04-26T14:30:20Z</time>
      </trkpt>
      <trkpt lat="43.285755040124059" lon="-0.399575969204307">
        <ele>182.78999999999999</ele>
        <time>2025-04-26T14:30:21Z</time>
      </trkpt>
      <trkpt lat="43.285947991535068" lon="-0.399855002760887">
        <ele>184.71000000000001</ele>
        <time>2025-04-26T14:30:24Z</time>
      </trkpt>
      <trkpt lat="43.286032984033227" lon="-0.39994896389544">
        <ele>185.19</ele>
        <time>2025-04-26T14:30:25Z</time>
      </trkpt>
      <trkpt lat="43.286112025380135" lon="-0.40003496222198">
        <ele>185.19</ele>
        <time>2025-04-26T14:30:26Z</time>
      </trkpt>
      <trkpt lat="43.28623398207128" lon="-0.400133030489087">
        <ele>185.19</ele>
        <time>2025-04-26T14:30:27Z</time>
      </trkpt>
      <trkpt lat="43.286345964297652" lon="-0.400225985795259">
        <ele>185.19</ele>
        <time>2025-04-26T14:30:28Z</time>
      </trkpt>
      <trkpt lat="43.287368975579739" lon="-0.401078006252646">
        <ele>184.71000000000001</ele>
        <time>2025-04-26T14:30:36Z</time>
      </trkpt>
      <trkpt lat="43.287487998604774" lon="-0.401180014014244">
        <ele>184.71000000000001</ele>
        <time>2025-04-26T14:30:37Z</time>
      </trkpt>
      <trkpt lat="43.288678983226418" lon="-0.402078973129392">
        <ele>181.34999999999999</ele>
        <time>2025-04-26T14:30:46Z</time>
      </trkpt>
      <trkpt lat="43.289768965914845" lon="-0.40325403213501">
        <ele>178.94</ele>
        <time>2025-04-26T14:30:54Z</time>
      </trkpt>
      <trkpt lat="43.290495006367564" lon="-0.404132036492229">
        <ele>177.5</ele>
        <time>2025-04-26T14:31:02Z</time>
      </trkpt>
      <trkpt lat="43.29089499078691" lon="-0.404581977054477">
        <ele>176.53999999999999</ele>
        <time>2025-04-26T14:31:10Z</time>
      </trkpt>
      <trkpt lat="43.291176036000252" lon="-0.404692031443119">
        <ele>175.58000000000001</ele>
        <time>2025-04-26T14:31:17Z</time>
      </trkpt>
      <trkpt lat="43.291176036000252" lon="-0.404692031443119">
        <ele>175.09999999999999</ele>
        <time>2025-04-26T14:31:18Z</time>
      </trkpt>
      <trkpt lat="43.291234960779548" lon="-0.404701000079513">
        <ele>175.09999999999999</ele>
        <time>2025-04-26T14:31:19Z</time>
      </trkpt>
      <trkpt lat="43.291338980197906" lon="-0.404797978699207">
        <ele>175.09999999999999</ele>
        <time>2025-04-26T14:31:20Z</time>
      </trkpt>
      <trkpt lat="43.291326994076371" lon="-0.404941979795694">
        <ele>175.09999999999999</ele>
        <time>2025-04-26T14:31:21Z</time>
      </trkpt>
      <trkpt lat="43.291283994913101" lon="-0.405084975063801">
        <ele>175.09999999999999</ele>
        <time>2025-04-26T14:31:22Z</time>
      </trkpt>
      <trkpt lat="43.291325988247991" lon="-0.405219001695514">
        <ele>175.09999999999999</ele>
        <time>2025-04-26T14:31:23Z</time>
      </trkpt>
      <trkpt lat="43.291377034038305" lon="-0.405378006398678">
        <ele>175.09999999999999</ele>
        <time>2025-04-26T14:31:24Z</time>
      </trkpt>
      <trkpt lat="43.291439982131124" lon="-0.405557965859771">
        <ele>174.62</ele>
        <time>2025-04-26T14:31:25Z</time>
      </trkpt>
      <trkpt lat="43.291508965194225" lon="-0.405751001089811">
        <ele>174.62</ele>
        <time>2025-04-26T14:31:26Z</time>
      </trkpt>
      <trkpt lat="43.291925964877009" lon="-0.407333001494408">
        <ele>173.66</ele>
        <time>2025-04-26T14:31:33Z</time>
      </trkpt>
      <trkpt lat="43.292590985074639" lon="-0.409669959917665">
        <ele>173.66</ele>
        <time>2025-04-26T14:31:42Z</time>
      </trkpt>
      <trkpt lat="43.293189033865929" lon="-0.411058003082871">
        <ele>174.62</ele>
        <time>2025-04-26T14:31:49Z</time>
      </trkpt>
      <trkpt lat="43.294098973274231" lon="-0.412757014855742">
        <ele>172.69</ele>
        <time>2025-04-26T14:31:59Z</time>
      </trkpt>
      <trkpt lat="43.294756030663848" lon="-0.413803998380899">
        <ele>170.77000000000001</ele>
        <time>2025-04-26T14:32:07Z</time>
      </trkpt>
      <trkpt lat="43.295501014217734" lon="-0.414383020251989">
        <ele>168.37</ele>
        <time>2025-04-26T14:32:14Z</time>
      </trkpt>
      <trkpt lat="43.295594975352287" lon="-0.414454014971852">
        <ele>167.88999999999999</ele>
        <time>2025-04-26T14:32:15Z</time>
      </trkpt>
      <trkpt lat="43.295758003368974" lon="-0.414575971662998">
        <ele>167.88999999999999</ele>
        <time>2025-04-26T14:32:17Z</time>
      </trkpt>
      <trkpt lat="43.295824974775314" lon="-0.414627017453313">
        <ele>167.41</ele>
        <time>2025-04-26T14:32:18Z</time>
      </trkpt>
      <trkpt lat="43.295894041657448" lon="-0.414647972211242">
        <ele>167.41</ele>
        <time>2025-04-26T14:32:19Z</time>
      </trkpt>
      <trkpt lat="43.295983979478478" lon="-0.414647972211242">
        <ele>166.93000000000001</ele>
        <time>2025-04-26T14:32:20Z</time>
      </trkpt>
      <trkpt lat="43.296083975583315" lon="-0.41470798663795">
        <ele>166.93000000000001</ele>
        <time>2025-04-26T14:32:21Z</time>
      </trkpt>
      <trkpt lat="43.296138038858771" lon="-0.41479398496449">
        <ele>166.93000000000001</ele>
        <time>2025-04-26T14:32:22Z</time>
      </trkpt>
      <trkpt lat="43.296153964474797" lon="-0.414915019646287">
        <ele>166.93000000000001</ele>
        <time>2025-04-26T14:32:23Z</time>
      </trkpt>
      <trkpt lat="43.296153964474797" lon="-0.415013004094362">
        <ele>167.41</ele>
        <time>2025-04-26T14:32:24Z</time>
      </trkpt>
      <trkpt lat="43.296110965311527" lon="-0.415176032111049">
        <ele>167.41</ele>
        <time>2025-04-26T14:32:25Z</time>
      </trkpt>
      <trkpt lat="43.296110965311527" lon="-0.415347022935748">
        <ele>167.41</ele>
        <time>2025-04-26T14:32:26Z</time>
      </trkpt>
      <trkpt lat="43.29639301635325" lon="-0.416820980608463">
        <ele>169.33000000000001</ele>
        <time>2025-04-26T14:32:33Z</time>
      </trkpt>
      <trkpt lat="43.296668026596308" lon="-0.417404025793076">
        <ele>170.77000000000001</ele>
        <time>2025-04-26T14:32:36Z</time>
      </trkpt>
      <trkpt lat="43.29678000882268" lon="-0.417571999132633">
        <ele>171.25</ele>
        <time>2025-04-26T14:32:37Z</time>
      </trkpt>
      <trkpt lat="43.297306979075074" lon="-0.418240036815405">
        <ele>172.21000000000001</ele>
        <time>2025-04-26T14:32:41Z</time>
      </trkpt>
      <trkpt lat="43.297456009313464" lon="-0.418412033468485">
        <ele>172.69</ele>
        <time>2025-04-26T14:32:42Z</time>
      </trkpt>
      <trkpt lat="43.297603027895093" lon="-0.418583024293184">
        <ele>172.69</ele>
        <time>2025-04-26T14:32:43Z</time>
      </trkpt>
      <trkpt lat="43.298266036435962" lon="-0.419557001441717">
        <ele>174.62</ele>
        <time>2025-04-26T14:32:48Z</time>
      </trkpt>
      <trkpt lat="43.298984030261636" lon="-0.421447036787868">
        <ele>176.06</ele>
        <time>2025-04-26T14:32:56Z</time>
      </trkpt>
      <trkpt lat="43.299929006025195" lon="-0.423920033499599">
        <ele>176.06</ele>
        <time>2025-04-26T14:33:06Z</time>
      </trkpt>
      <trkpt lat="43.300549015402794" lon="-0.426216004416347">
        <ele>173.66</ele>
        <time>2025-04-26T14:33:15Z</time>
      </trkpt>
      <trkpt lat="43.301075985655189" lon="-0.428187008947134">
        <ele>173.16999999999999</ele>
        <time>2025-04-26T14:33:23Z</time>
      </trkpt>
      <trkpt lat="43.301732959225774" lon="-0.430225990712643">
        <ele>174.13999999999999</ele>
        <time>2025-04-26T14:33:32Z</time>
      </trkpt>
      <trkpt lat="43.301929011940956" lon="-0.431155040860176">
        <ele>175.09999999999999</ele>
        <time>2025-04-26T14:33:36Z</time>
      </trkpt>
      <trkpt lat="43.302589002996683" lon="-0.433281026780605">
        <ele>176.53999999999999</ele>
        <time>2025-04-26T14:33:45Z</time>
      </trkpt>
      <trkpt lat="43.303536996245384" lon="-0.435598036274314">
        <ele>174.62</ele>
        <time>2025-04-26T14:33:55Z</time>
      </trkpt>
      <trkpt lat="43.304405026137829" lon="-0.437766015529633">
        <ele>171.72999999999999</ele>
        <time>2025-04-26T14:34:05Z</time>
      </trkpt>
      <trkpt lat="43.305362993851304" lon="-0.439600981771946">
        <ele>168.37</ele>
        <time>2025-04-26T14:34:14Z</time>
      </trkpt>
      <trkpt lat="43.30690199509263" lon="-0.442143967375159">
        <ele>164.03999999999999</ele>
        <time>2025-04-26T14:34:27Z</time>
      </trkpt>
      <trkpt lat="43.307510018348694" lon="-0.444002989679575">
        <ele>163.08000000000001</ele>
        <time>2025-04-26T14:34:35Z</time>
      </trkpt>
      <trkpt lat="43.308077976107597" lon="-0.446094023063779">
        <ele>162.59999999999999</ele>
        <time>2025-04-26T14:34:44Z</time>
      </trkpt>
      <trkpt lat="43.308365978300571" lon="-0.446779998019338">
        <ele>162.12</ele>
        <time>2025-04-26T14:34:48Z</time>
      </trkpt>
      <trkpt lat="43.308720029890537" lon="-0.447545014321804">
        <ele>162.12</ele>
        <time>2025-04-26T14:34:54Z</time>
      </trkpt>
      <trkpt lat="43.309043990448117" lon="-0.447960002347827">
        <ele>162.59999999999999</ele>
        <time>2025-04-26T14:34:58Z</time>
      </trkpt>
      <trkpt lat="43.309860974550247" lon="-0.448794001713395">
        <ele>163.56</ele>
        <time>2025-04-26T14:35:07Z</time>
      </trkpt>
      <trkpt lat="43.311109039932489" lon="-0.449774013832211">
        <ele>162.12</ele>
        <time>2025-04-26T14:35:19Z</time>
      </trkpt>
      <trkpt lat="43.312330031767488" lon="-0.450827032327652">
        <ele>161.16</ele>
        <time>2025-04-26T14:35:31Z</time>
      </trkpt>
      <trkpt lat="43.313525039702654" lon="-0.452385982498527">
        <ele>159.72</ele>
        <time>2025-04-26T14:35:44Z</time>
      </trkpt>
      <trkpt lat="43.314158963039517" lon="-0.453862035647035">
        <ele>159.72</ele>
        <time>2025-04-26T14:35:51Z</time>
      </trkpt>
      <trkpt lat="43.31480504013598" lon="-0.455618966370821">
        <ele>159.24000000000001</ele>
        <time>2025-04-26T14:36:00Z</time>
      </trkpt>
      <trkpt lat="43.315362017601728" lon="-0.456914976239204">
        <ele>158.27000000000001</ele>
        <time>2025-04-26T14:36:09Z</time>
      </trkpt>
      <trkpt lat="43.315390013158321" lon="-0.456974990665913">
        <ele>158.75</ele>
        <time>2025-04-26T14:36:10Z</time>
      </trkpt>
      <trkpt lat="43.315649013966322" lon="-0.457326024770737">
        <ele>159.24000000000001</ele>
        <time>2025-04-26T14:36:15Z</time>
      </trkpt>
      <trkpt lat="43.315615989267826" lon="-0.457542026415467">
        <ele>159.24000000000001</ele>
        <time>2025-04-26T14:36:16Z</time>
      </trkpt>
      <trkpt lat="43.315641973167658" lon="-0.457629030570388">
        <ele>159.24000000000001</ele>
        <time>2025-04-26T14:36:17Z</time>
      </trkpt>
      <trkpt lat="43.315685978159308" lon="-0.457775965332985">
        <ele>159.24000000000001</ele>
        <time>2025-04-26T14:36:18Z</time>
      </trkpt>
      <trkpt lat="43.315733000636101" lon="-0.45793597586453">
        <ele>159.24000000000001</ele>
        <time>2025-04-26T14:36:19Z</time>
      </trkpt>
      <trkpt lat="43.315783040598035" lon="-0.4581050388515">
        <ele>159.24000000000001</ele>
        <time>2025-04-26T14:36:20Z</time>
      </trkpt>
      <trkpt lat="43.316382011398673" lon="-0.460116025060415">
        <ele>159.24000000000001</ele>
        <time>2025-04-26T14:36:30Z</time>
      </trkpt>
      <trkpt lat="43.317134035751224" lon="-0.461902040988207">
        <ele>157.78999999999999</ele>
        <time>2025-04-26T14:36:39Z</time>
      </trkpt>
      <trkpt lat="43.318023020401597" lon="-0.463060000911355">
        <ele>155.87</ele>
        <time>2025-04-26T14:36:47Z</time>
      </trkpt>
      <trkpt lat="43.319196989759803" lon="-0.464206980541348">
        <ele>152.99000000000001</ele>
        <time>2025-04-26T14:36:54Z</time>
      </trkpt>
      <trkpt lat="43.320540022104979" lon="-0.465480023995042">
        <ele>151.53999999999999</ele>
        <time>2025-04-26T14:37:02Z</time>
      </trkpt>
      <trkpt lat="43.322442965582013" lon="-0.467309039086103">
        <ele>151.53999999999999</ele>
        <time>2025-04-26T14:37:15Z</time>
      </trkpt>
      <trkpt lat="43.322571041062474" lon="-0.467433007434011">
        <ele>151.53999999999999</ele>
        <time>2025-04-26T14:37:16Z</time>
      </trkpt>
      <trkpt lat="43.323978027328849" lon="-0.468748966231942">
        <ele>149.62</ele>
        <time>2025-04-26T14:37:26Z</time>
      </trkpt>
      <trkpt lat="43.325092988088727" lon="-0.469788992777467">
        <ele>150.09999999999999</ele>
        <time>2025-04-26T14:37:35Z</time>
      </trkpt>
      <trkpt lat="43.325217040255666" lon="-0.469849007204175">
        <ele>149.62</ele>
        <time>2025-04-26T14:37:36Z</time>
      </trkpt>
      <trkpt lat="43.325332961976528" lon="-0.469888988882303">
        <ele>149.62</ele>
        <time>2025-04-26T14:37:37Z</time>
      </trkpt>
      <trkpt lat="43.3257229719311" lon="-0.469980016350746">
        <ele>149.62</ele>
        <time>2025-04-26T14:37:41Z</time>
      </trkpt>
      <trkpt lat="43.325823973864317" lon="-0.469981022179127">
        <ele>150.09999999999999</ele>
        <time>2025-04-26T14:37:42Z</time>
      </trkpt>
      <trkpt lat="43.326022960245609" lon="-0.469901980832219">
        <ele>150.09999999999999</ele>
        <time>2025-04-26T14:37:44Z</time>
      </trkpt>
      <trkpt lat="43.326094038784504" lon="-0.469922013580799">
        <ele>150.09999999999999</ele>
        <time>2025-04-26T14:37:45Z</time>
      </trkpt>
      <trkpt lat="43.326185988262296" lon="-0.469959983602166">
        <ele>149.62</ele>
        <time>2025-04-26T14:37:46Z</time>
      </trkpt>
      <trkpt lat="43.326253965497017" lon="-0.470041036605835">
        <ele>149.62</ele>
        <time>2025-04-26T14:37:47Z</time>
      </trkpt>
      <trkpt lat="43.326293025165796" lon="-0.470166010782123">
        <ele>149.13999999999999</ele>
        <time>2025-04-26T14:37:48Z</time>
      </trkpt>
      <trkpt lat="43.326310040429235" lon="-0.470292996615171">
        <ele>149.13999999999999</ele>
        <time>2025-04-26T14:37:49Z</time>
      </trkpt>
      <trkpt lat="43.326319009065628" lon="-0.470412019640207">
        <ele>149.62</ele>
        <time>2025-04-26T14:37:50Z</time>
      </trkpt>
      <trkpt lat="43.326283972710371" lon="-0.470534982159734">
        <ele>149.62</ele>
        <time>2025-04-26T14:37:51Z</time>
      </trkpt>
      <trkpt lat="43.326267963275313" lon="-0.470674959942698">
        <ele>150.09999999999999</ele>
        <time>2025-04-26T14:37:52Z</time>
      </trkpt>
      <trkpt lat="43.3262790273875" lon="-0.470824996009469">
        <ele>150.58000000000001</ele>
        <time>2025-04-26T14:37:53Z</time>
      </trkpt>
      <trkpt lat="43.32632496021688" lon="-0.470968997105956">
        <ele>151.06</ele>
        <time>2025-04-26T14:37:54Z</time>
      </trkpt>
      <trkpt lat="43.326375000178814" lon="-0.471130013465881">
        <ele>151.06</ele>
        <time>2025-04-26T14:37:55Z</time>
      </trkpt>
      <trkpt lat="43.326957961544394" lon="-0.472611011937261">
        <ele>152.50999999999999</ele>
        <time>2025-04-26T14:38:03Z</time>
      </trkpt>
      <trkpt lat="43.327657012268901" lon="-0.474471962079406">
        <ele>152.99000000000001</ele>
        <time>2025-04-26T14:38:11Z</time>
      </trkpt>
      <trkpt lat="43.328421022742987" lon="-0.476652011275291">
        <ele>151.53999999999999</ele>
        <time>2025-04-26T14:38:20Z</time>
      </trkpt>
      <trkpt lat="43.32920297048986" lon="-0.478886961936951">
        <ele>150.09999999999999</ele>
        <time>2025-04-26T14:38:28Z</time>
      </trkpt>
      <trkpt lat="43.329836977645755" lon="-0.480811027809978">
        <ele>149.62</ele>
        <time>2025-04-26T14:38:35Z</time>
      </trkpt>
      <trkpt lat="43.330504009500146" lon="-0.483252005651593">
        <ele>147.69999999999999</ele>
        <time>2025-04-26T14:38:44Z</time>
      </trkpt>
      <trkpt lat="43.331127036362886" lon="-0.485684014856815">
        <ele>143.84999999999999</ele>
        <time>2025-04-26T14:38:53Z</time>
      </trkpt>
      <trkpt lat="43.331933040171862" lon="-0.488825971260667">
        <ele>142.41</ele>
        <time>2025-04-26T14:39:04Z</time>
      </trkpt>
      <trkpt lat="43.332642987370491" lon="-0.491417990997434">
        <ele>140.97</ele>
        <time>2025-04-26T14:39:13Z</time>
      </trkpt>
      <trkpt lat="43.333117989823222" lon="-0.492565976455808">
        <ele>141.44999999999999</ele>
        <time>2025-04-26T14:39:17Z</time>
      </trkpt>
      <trkpt lat="43.333259979262948" lon="-0.492865964770317">
        <ele>141.44999999999999</ele>
        <time>2025-04-26T14:39:18Z</time>
      </trkpt>
      <trkpt lat="43.334433026611805" lon="-0.49465499818325">
        <ele>139.53</ele>
        <time>2025-04-26T14:39:25Z</time>
      </trkpt>
      <trkpt lat="43.336730003356934" lon="-0.497925030067563">
        <ele>138.56999999999999</ele>
        <time>2025-04-26T14:39:39Z</time>
      </trkpt>
      <trkpt lat="43.33747498691082" lon="-0.500100972130895">
        <ele>139.53</ele>
        <time>2025-04-26T14:39:47Z</time>
      </trkpt>
      <trkpt lat="43.337769024074078" lon="-0.502783013507724">
        <ele>138.56999999999999</ele>
        <time>2025-04-26T14:39:56Z</time>
      </trkpt>
      <trkpt lat="43.338178982958198" lon="-0.506658973172307">
        <ele>141.93000000000001</ele>
        <time>2025-04-26T14:40:09Z</time>
      </trkpt>
      <trkpt lat="43.338864035904408" lon="-0.508654033765197">
        <ele>143.37</ele>
        <time>2025-04-26T14:40:16Z</time>
      </trkpt>
      <trkpt lat="43.339897021651268" lon="-0.510259000584483">
        <ele>144.81999999999999</ele>
        <time>2025-04-26T14:40:23Z</time>
      </trkpt>
      <trkpt lat="43.342456016689539" lon="-0.513627016916871">
        <ele>144.34</ele>
        <time>2025-04-26T14:40:39Z</time>
      </trkpt>
      <trkpt lat="43.343976996839046" lon="-0.515615036711097">
        <ele>142.41</ele>
        <time>2025-04-26T14:40:49Z</time>
      </trkpt>
      <trkpt lat="43.344751987606287" lon="-0.516628995537758">
        <ele>140.97</ele>
        <time>2025-04-26T14:40:56Z</time>
      </trkpt>
      <trkpt lat="43.345824033021927" lon="-0.518031036481261">
        <ele>140.00999999999999</ele>
        <time>2025-04-26T14:41:08Z</time>
      </trkpt>
      <trkpt lat="43.346501961350441" lon="-0.518918009474874">
        <ele>139.53</ele>
        <time>2025-04-26T14:41:14Z</time>
      </trkpt>
      <trkpt lat="43.34742397069931" lon="-0.520122991874814">
        <ele>138.09</ele>
        <time>2025-04-26T14:41:20Z</time>
      </trkpt>
      <trkpt lat="43.348877979442477" lon="-0.522015038877726">
        <ele>136.63999999999999</ele>
        <time>2025-04-26T14:41:30Z</time>
      </trkpt>
      <trkpt lat="43.350061001256108" lon="-0.52355102263391">
        <ele>135.19999999999999</ele>
        <time>2025-04-26T14:41:40Z</time>
      </trkpt>
      <trkpt lat="43.350772960111499" lon="-0.524544026702642">
        <ele>134.24000000000001</ele>
        <time>2025-04-26T14:41:46Z</time>
      </trkpt>
      <trkpt lat="43.351274030283093" lon="-0.525505011901259">
        <ele>133.28</ele>
        <time>2025-04-26T14:41:54Z</time>
      </trkpt>
      <trkpt lat="43.351315017789602" lon="-0.525588998571038">
        <ele>133.28</ele>
        <time>2025-04-26T14:41:55Z</time>
      </trkpt>
      <trkpt lat="43.351386012509465" lon="-0.525734005495906">
        <ele>133.28</ele>
        <time>2025-04-26T14:41:57Z</time>
      </trkpt>
      <trkpt lat="43.351501012220979" lon="-0.525745991617441">
        <ele>133.28</ele>
        <time>2025-04-26T14:41:58Z</time>
      </trkpt>
      <trkpt lat="43.351627998054028" lon="-0.525827966630459">
        <ele>133.28</ele>
        <time>2025-04-26T14:41:59Z</time>
      </trkpt>
      <trkpt lat="43.351659011095762" lon="-0.525911031290889">
        <ele>132.31999999999999</ele>
        <time>2025-04-26T14:42:00Z</time>
      </trkpt>
      <trkpt lat="43.351664962247014" lon="-0.526029970496893">
        <ele>131.84</ele>
        <time>2025-04-26T14:42:01Z</time>
      </trkpt>
      <trkpt lat="43.351664962247014" lon="-0.526099037379026">
        <ele>131.84</ele>
        <time>2025-04-26T14:42:02Z</time>
      </trkpt>
      <trkpt lat="43.351664962247014" lon="-0.526099037379026">
        <ele>131.36000000000001</ele>
        <time>2025-04-26T14:42:03Z</time>
      </trkpt>
      <trkpt lat="43.351640990003943" lon="-0.526375975459814">
        <ele>131.36000000000001</ele>
        <time>2025-04-26T14:42:04Z</time>
      </trkpt>
      <trkpt lat="43.351689018309116" lon="-0.526490975171328">
        <ele>130.88</ele>
        <time>2025-04-26T14:42:05Z</time>
      </trkpt>
      <trkpt lat="43.352207019925117" lon="-0.527865020558238">
        <ele>129.91999999999999</ele>
        <time>2025-04-26T14:42:14Z</time>
      </trkpt>
      <trkpt lat="43.352904981002212" lon="-0.529713984578848">
        <ele>128.94999999999999</ele>
        <time>2025-04-26T14:42:23Z</time>
      </trkpt>
      <trkpt lat="43.353596990928054" lon="-0.531552974134684">
        <ele>127.98999999999999</ele>
        <time>2025-04-26T14:42:31Z</time>
      </trkpt>
      <trkpt lat="43.354242984205484" lon="-0.533257015049458">
        <ele>126.55</ele>
        <time>2025-04-26T14:42:40Z</time>
      </trkpt>
      <trkpt lat="43.355268007144332" lon="-0.535952970385551">
        <ele>126.55</ele>
        <time>2025-04-26T14:42:52Z</time>
      </trkpt>
      <trkpt lat="43.356063030660152" lon="-0.538407023996115">
        <ele>126.55</ele>
        <time>2025-04-26T14:43:02Z</time>
      </trkpt>
      <trkpt lat="43.357125017791986" lon="-0.541980983689427">
        <ele>127.98999999999999</ele>
        <time>2025-04-26T14:43:16Z</time>
      </trkpt>
      <trkpt lat="43.357765981927514" lon="-0.544723039492965">
        <ele>127.51000000000001</ele>
        <time>2025-04-26T14:43:26Z</time>
      </trkpt>
      <trkpt lat="43.358155991882086" lon="-0.546615002676845">
        <ele>127.03</ele>
        <time>2025-04-26T14:43:32Z</time>
      </trkpt>
      <trkpt lat="43.358642980456352" lon="-0.548835033550859">
        <ele>127.98999999999999</ele>
        <time>2025-04-26T14:43:40Z</time>
      </trkpt>
      <trkpt lat="43.359269024804235" lon="-0.551495030522347">
        <ele>127.03</ele>
        <time>2025-04-26T14:43:51Z</time>
      </trkpt>
      <trkpt lat="43.359607988968492" lon="-0.552746029570699">
        <ele>126.06999999999999</ele>
        <time>2025-04-26T14:43:59Z</time>
      </trkpt>
      <trkpt lat="43.359652999788523" lon="-0.552839990705252">
        <ele>126.06999999999999</ele>
        <time>2025-04-26T14:44:00Z</time>
      </trkpt>
      <trkpt lat="43.359692981466651" lon="-0.552924983203411">
        <ele>126.06999999999999</ele>
        <time>2025-04-26T14:44:01Z</time>
      </trkpt>
      <trkpt lat="43.35971200838685" lon="-0.552963959053159">
        <ele>126.06999999999999</ele>
        <time>2025-04-26T14:44:02Z</time>
      </trkpt>
      <trkpt lat="43.359885010868311" lon="-0.553090022876859">
        <ele>126.06999999999999</ele>
        <time>2025-04-26T14:44:04Z</time>
      </trkpt>
      <trkpt lat="43.359924992546439" lon="-0.553161017596722">
        <ele>126.06999999999999</ele>
        <time>2025-04-26T14:44:05Z</time>
      </trkpt>
      <trkpt lat="43.359947958961129" lon="-0.55328699760139">
        <ele>126.06999999999999</ele>
        <time>2025-04-26T14:44:06Z</time>
      </trkpt>
      <trkpt lat="43.359947958961129" lon="-0.553380958735943">
        <ele>126.06999999999999</ele>
        <time>2025-04-26T14:44:07Z</time>
      </trkpt>
      <trkpt lat="43.359921975061297" lon="-0.55348296649754">
        <ele>126.55</ele>
        <time>2025-04-26T14:44:08Z</time>
      </trkpt>
      <trkpt lat="43.359885010868311" lon="-0.553582962602377">
        <ele>126.06999999999999</ele>
        <time>2025-04-26T14:44:09Z</time>
      </trkpt>
      <trkpt lat="43.359870007261634" lon="-0.553701985627413">
        <ele>126.06999999999999</ele>
        <time>2025-04-26T14:44:10Z</time>
      </trkpt>
      <trkpt lat="43.359855003654957" lon="-0.553826037794352">
        <ele>126.06999999999999</ele>
        <time>2025-04-26T14:44:11Z</time>
      </trkpt>
      <trkpt lat="43.359837988391519" lon="-0.553960986435413">
        <ele>125.59</ele>
        <time>2025-04-26T14:44:13Z</time>
      </trkpt>
      <trkpt lat="43.360001016408205" lon="-0.555386999621987">
        <ele>125.59</ele>
        <time>2025-04-26T14:44:19Z</time>
      </trkpt>
      <trkpt lat="43.360393960028887" lon="-0.558108016848564">
        <ele>124.63</ele>
        <time>2025-04-26T14:44:29Z</time>
      </trkpt>
      <trkpt lat="43.361058980226517" lon="-0.561546022072434">
        <ele>124.15000000000001</ele>
        <time>2025-04-26T14:44:42Z</time>
      </trkpt>
      <trkpt lat="43.361846040934324" lon="-0.565513009205461">
        <ele>122.22</ele>
        <time>2025-04-26T14:44:57Z</time>
      </trkpt>
      <trkpt lat="43.361900020390749" lon="-0.566047020256519">
        <ele>122.70999999999999</ele>
        <time>2025-04-26T14:44:59Z</time>
      </trkpt>
      <trkpt lat="43.361921980977058" lon="-0.568999964743853">
        <ele>120.78</ele>
        <time>2025-04-26T14:45:10Z</time>
      </trkpt>
      <trkpt lat="43.361991969868541" lon="-0.571948969736695">
        <ele>120.78</ele>
        <time>2025-04-26T14:45:20Z</time>
      </trkpt>
      <trkpt lat="43.36203102953732" lon="-0.572219034656882">
        <ele>121.26000000000001</ele>
        <time>2025-04-26T14:45:21Z</time>
      </trkpt>
      <trkpt lat="43.362099006772041" lon="-0.572491027414799">
        <ele>121.73999999999999</ele>
        <time>2025-04-26T14:45:22Z</time>
      </trkpt>
      <trkpt lat="43.362167989835143" lon="-0.572766959667206">
        <ele>122.22</ele>
        <time>2025-04-26T14:45:23Z</time>
      </trkpt>
      <trkpt lat="43.362236972898245" lon="-0.573042975738645">
        <ele>122.22</ele>
        <time>2025-04-26T14:45:24Z</time>
      </trkpt>
      <trkpt lat="43.362357001751661" lon="-0.573281021788716">
        <ele>122.22</ele>
        <time>2025-04-26T14:45:25Z</time>
      </trkpt>
      <trkpt lat="43.36248298175633" lon="-0.573515966534615">
        <ele>122.22</ele>
        <time>2025-04-26T14:45:26Z</time>
      </trkpt>
      <trkpt lat="43.362609967589378" lon="-0.573752000927925">
        <ele>122.22</ele>
        <time>2025-04-26T14:45:27Z</time>
      </trkpt>
      <trkpt lat="43.363747978582978" lon="-0.575806992128491">
        <ele>121.26000000000001</ele>
        <time>2025-04-26T14:45:37Z</time>
      </trkpt>
      <trkpt lat="43.364238990470767" lon="-0.576675022020936">
        <ele>120.78</ele>
        <time>2025-04-26T14:45:44Z</time>
      </trkpt>
      <trkpt lat="43.364431019872427" lon="-0.576852969825268">
        <ele>120.78</ele>
        <time>2025-04-26T14:45:47Z</time>
      </trkpt>
      <trkpt lat="43.364508971571922" lon="-0.576924970373511">
        <ele>120.3</ele>
        <time>2025-04-26T14:45:48Z</time>
      </trkpt>
      <trkpt lat="43.364726984873414" lon="-0.57698498480022">
        <ele>120.3</ele>
        <time>2025-04-26T14:45:50Z</time>
      </trkpt>
      <trkpt lat="43.364811977371573" lon="-0.577054973691702">
        <ele>120.3</ele>
        <time>2025-04-26T14:45:51Z</time>
      </trkpt>
      <trkpt lat="43.364863023161888" lon="-0.577205009758472">
        <ele>119.81999999999999</ele>
        <time>2025-04-26T14:45:52Z</time>
      </trkpt>
      <trkpt lat="43.364897975698113" lon="-0.577317997813225">
        <ele>119.81999999999999</ele>
        <time>2025-04-26T14:45:53Z</time>
      </trkpt>
      <trkpt lat="43.364886995404959" lon="-0.577446995303035">
        <ele>119.81999999999999</ele>
        <time>2025-04-26T14:45:54Z</time>
      </trkpt>
      <trkpt lat="43.364865034818649" lon="-0.577575992792845">
        <ele>120.3</ele>
        <time>2025-04-26T14:45:55Z</time>
      </trkpt>
      <trkpt lat="43.364896969869733" lon="-0.577739020809531">
        <ele>119.81999999999999</ele>
        <time>2025-04-26T14:45:56Z</time>
      </trkpt>
      <trkpt lat="43.36493200622499" lon="-0.577881010249257">
        <ele>119.81999999999999</ele>
        <time>2025-04-26T14:45:57Z</time>
      </trkpt>
      <trkpt lat="43.364994032308459" lon="-0.578019982203841">
        <ele>119.81999999999999</ele>
        <time>2025-04-26T14:45:58Z</time>
      </trkpt>
      <trkpt lat="43.36562099866569" lon="-0.579110970720649">
        <ele>120.3</ele>
        <time>2025-04-26T14:46:05Z</time>
      </trkpt>
      <trkpt lat="43.366914996877313" lon="-0.58139001019299">
        <ele>117.90000000000001</ele>
        <time>2025-04-26T14:46:18Z</time>
      </trkpt>
      <trkpt lat="43.368087038397789" lon="-0.583476014435291">
        <ele>116.45999999999999</ele>
        <time>2025-04-26T14:46:30Z</time>
      </trkpt>
      <trkpt lat="43.368888013064861" lon="-0.584916025400162">
        <ele>115.98</ele>
        <time>2025-04-26T14:46:39Z</time>
      </trkpt>
      <trkpt lat="43.369817985221744" lon="-0.586600033566356">
        <ele>116.45999999999999</ele>
        <time>2025-04-26T14:46:49Z</time>
      </trkpt>
      <trkpt lat="43.370900005102158" lon="-0.588485961779952">
        <ele>115.98</ele>
        <time>2025-04-26T14:46:59Z</time>
      </trkpt>
      <trkpt lat="43.371879011392593" lon="-0.590239958837628">
        <ele>115.01000000000001</ele>
        <time>2025-04-26T14:47:09Z</time>
      </trkpt>
      <trkpt lat="43.373296977952123" lon="-0.59279702603817">
        <ele>113.56999999999999</ele>
        <time>2025-04-26T14:47:22Z</time>
      </trkpt>
      <trkpt lat="43.373639965429902" lon="-0.59417400509119">
        <ele>113.56999999999999</ele>
        <time>2025-04-26T14:47:28Z</time>
      </trkpt>
      <trkpt lat="43.373665027320385" lon="-0.594405010342598">
        <ele>113.56999999999999</ele>
        <time>2025-04-26T14:47:29Z</time>
      </trkpt>
      <trkpt lat="43.373796036466956" lon="-0.596814975142479">
        <ele>112.61</ele>
        <time>2025-04-26T14:47:40Z</time>
      </trkpt>
      <trkpt lat="43.374038022011518" lon="-0.598724959418178">
        <ele>112.61</ele>
        <time>2025-04-26T14:47:49Z</time>
      </trkpt>
      <trkpt lat="43.374690972268581" lon="-0.59988803230226">
        <ele>112.13</ele>
        <time>2025-04-26T14:47:56Z</time>
      </trkpt>
      <trkpt lat="43.376007014885545" lon="-0.601834980770946">
        <ele>112.61</ele>
        <time>2025-04-26T14:48:09Z</time>
      </trkpt>
      <trkpt lat="43.376802960410714" lon="-0.602864027023315">
        <ele>112.13</ele>
        <time>2025-04-26T14:48:18Z</time>
      </trkpt>
      <trkpt lat="43.376888958737254" lon="-0.60291800647974">
        <ele>112.61</ele>
        <time>2025-04-26T14:48:19Z</time>
      </trkpt>
      <trkpt lat="43.376969005912542" lon="-0.602967962622643">
        <ele>112.61</ele>
        <time>2025-04-26T14:48:20Z</time>
      </trkpt>
      <trkpt lat="43.377119963988662" lon="-0.603063013404608">
        <ele>113.09</ele>
        <time>2025-04-26T14:48:22Z</time>
      </trkpt>
      <trkpt lat="43.377190958708525" lon="-0.603108024224639">
        <ele>113.56999999999999</ele>
        <time>2025-04-26T14:48:23Z</time>
      </trkpt>
      <trkpt lat="43.377388017252088" lon="-0.603139959275723">
        <ele>113.56999999999999</ele>
        <time>2025-04-26T14:48:26Z</time>
      </trkpt>
      <trkpt lat="43.377470998093486" lon="-0.603145994246006">
        <ele>113.56999999999999</ele>
        <time>2025-04-26T14:48:27Z</time>
      </trkpt>
      <trkpt lat="43.377525983378291" lon="-0.603200979530811">
        <ele>113.09</ele>
        <time>2025-04-26T14:48:28Z</time>
      </trkpt>
      <trkpt lat="43.377585997804999" lon="-0.603300975635648">
        <ele>113.09</ele>
        <time>2025-04-26T14:48:29Z</time>
      </trkpt>
      <trkpt lat="43.377585997804999" lon="-0.60338999144733">
        <ele>112.61</ele>
        <time>2025-04-26T14:48:30Z</time>
      </trkpt>
      <trkpt lat="43.377585997804999" lon="-0.603489987552166">
        <ele>112.61</ele>
        <time>2025-04-26T14:48:31Z</time>
      </trkpt>
      <trkpt lat="43.377585997804999" lon="-0.603560982272029">
        <ele>112.61</ele>
        <time>2025-04-26T14:48:32Z</time>
      </trkpt>
      <trkpt lat="43.3775669708848" lon="-0.603939006105065">
        <ele>112.61</ele>
        <time>2025-04-26T14:48:35Z</time>
      </trkpt>
      <trkpt lat="43.37760703638196" lon="-0.604014024138451">
        <ele>112.61</ele>
        <time>2025-04-26T14:48:36Z</time>
      </trkpt>
      <trkpt lat="43.377660010010004" lon="-0.60409901663661">
        <ele>112.13</ele>
        <time>2025-04-26T14:48:37Z</time>
      </trkpt>
      <trkpt lat="43.377722958102822" lon="-0.604186020791531">
        <ele>112.13</ele>
        <time>2025-04-26T14:48:38Z</time>
      </trkpt>
      <trkpt lat="43.377786995843053" lon="-0.604276964440942">
        <ele>112.13</ele>
        <time>2025-04-26T14:48:39Z</time>
      </trkpt>
      <trkpt lat="43.377853967249393" lon="-0.604368997737765">
        <ele>112.13</ele>
        <time>2025-04-26T14:48:40Z</time>
      </trkpt>
      <trkpt lat="43.377922028303146" lon="-0.604458013549447">
        <ele>111.65000000000001</ele>
        <time>2025-04-26T14:48:41Z</time>
      </trkpt>
      <trkpt lat="43.378767007961869" lon="-0.605576997622848">
        <ele>110.20999999999999</ele>
        <time>2025-04-26T14:48:51Z</time>
      </trkpt>
      <trkpt lat="43.379783984273672" lon="-0.606993958353996">
        <ele>111.17</ele>
        <time>2025-04-26T14:49:03Z</time>
      </trkpt>
      <trkpt lat="43.380857035517693" lon="-0.608480991795659">
        <ele>112.13</ele>
        <time>2025-04-26T14:49:16Z</time>
      </trkpt>
      <trkpt lat="43.381730010733008" lon="-0.609700977802277">
        <ele>111.17</ele>
        <time>2025-04-26T14:49:26Z</time>
      </trkpt>
      <trkpt lat="43.38265897706151" lon="-0.610559033229947">
        <ele>111.17</ele>
        <time>2025-04-26T14:49:35Z</time>
      </trkpt>
      <trkpt lat="43.383157029747963" lon="-0.610891962423921">
        <ele>111.65000000000001</ele>
        <time>2025-04-26T14:49:40Z</time>
      </trkpt>
      <trkpt lat="43.383240010589361" lon="-0.610926998779178">
        <ele>111.65000000000001</ele>
        <time>2025-04-26T14:49:41Z</time>
      </trkpt>
      <trkpt lat="43.383314022794366" lon="-0.610958011820912">
        <ele>111.65000000000001</ele>
        <time>2025-04-26T14:49:42Z</time>
      </trkpt>
      <trkpt lat="43.383398009464145" lon="-0.610981984063983">
        <ele>111.17</ele>
        <time>2025-04-26T14:49:43Z</time>
      </trkpt>
      <trkpt lat="43.383487025275826" lon="-0.610963962972164">
        <ele>111.17</ele>
        <time>2025-04-26T14:49:44Z</time>
      </trkpt>
      <trkpt lat="43.383630020543933" lon="-0.610968992114067">
        <ele>111.17</ele>
        <time>2025-04-26T14:49:45Z</time>
      </trkpt>
      <trkpt lat="43.383725993335247" lon="-0.610864972695708">
        <ele>111.17</ele>
        <time>2025-04-26T14:49:46Z</time>
      </trkpt>
      <trkpt lat="43.383829006925225" lon="-0.610755002126098">
        <ele>111.17</ele>
        <time>2025-04-26T14:49:47Z</time>
      </trkpt>
      <trkpt lat="43.383940989151597" lon="-0.6106529943645">
        <ele>111.17</ele>
        <time>2025-04-26T14:49:48Z</time>
      </trkpt>
      <trkpt lat="43.384799966588616" lon="-0.610083024948835">
        <ele>110.20999999999999</ele>
        <time>2025-04-26T14:49:56Z</time>
      </trkpt>
      <trkpt lat="43.386345002800226" lon="-0.609583966434002">
        <ele>107.31999999999999</ele>
        <time>2025-04-26T14:50:08Z</time>
      </trkpt>
      <trkpt lat="43.387668002396822" lon="-0.609689997509122">
        <ele>106.36</ele>
        <time>2025-04-26T14:50:15Z</time>
      </trkpt>
      <trkpt lat="43.390166983008385" lon="-0.610083024948835">
        <ele>104.44</ele>
        <time>2025-04-26T14:50:28Z</time>
      </trkpt>
      <trkpt lat="43.392421966418624" lon="-0.610386030748487">
        <ele>102.04000000000001</ele>
        <time>2025-04-26T14:50:40Z</time>
      </trkpt>
      <trkpt lat="43.393345987424254" lon="-0.610616030171514">
        <ele>100.11</ele>
        <time>2025-04-26T14:50:45Z</time>
      </trkpt>
      <trkpt lat="43.393525024875998" lon="-0.610708985477686">
        <ele>100.11</ele>
        <time>2025-04-26T14:50:46Z</time>
      </trkpt>
      <trkpt lat="43.394589023664594" lon="-0.611754963174462">
        <ele>101.08</ele>
        <time>2025-04-26T14:50:53Z</time>
      </trkpt>
      <trkpt lat="43.396156020462513" lon="-0.614497018978">
        <ele>103</ele>
        <time>2025-04-26T14:51:06Z</time>
      </trkpt>
      <trkpt lat="43.397872969508171" lon="-0.617545014247298">
        <ele>102.52</ele>
        <time>2025-04-26T14:51:21Z</time>
      </trkpt>
      <trkpt lat="43.398614013567567" lon="-0.618533995002508">
        <ele>102.04000000000001</ele>
        <time>2025-04-26T14:51:28Z</time>
      </trkpt>
      <trkpt lat="43.400273965671659" lon="-0.620036032050848">
        <ele>100.11</ele>
        <time>2025-04-26T14:51:43Z</time>
      </trkpt>
      <trkpt lat="43.401122968643904" lon="-0.620780009776354">
        <ele>98.189999999999998</ele>
        <time>2025-04-26T14:51:51Z</time>
      </trkpt>
      <trkpt lat="43.402461977675557" lon="-0.622281963005662">
        <ele>98.670000000000002</ele>
        <time>2025-04-26T14:52:05Z</time>
      </trkpt>
      <trkpt lat="43.403785983100533" lon="-0.623752987012267">
        <ele>98.670000000000002</ele>
        <time>2025-04-26T14:52:19Z</time>
      </trkpt>
      <trkpt lat="43.404837995767593" lon="-0.624890998005867">
        <ele>99.150000000000006</ele>
        <time>2025-04-26T14:52:30Z</time>
      </trkpt>
      <trkpt lat="43.405178971588612" lon="-0.625189980491996">
        <ele>99.150000000000006</ele>
        <time>2025-04-26T14:52:33Z</time>
      </trkpt>
      <trkpt lat="43.405315009877086" lon="-0.625239014625549">
        <ele>99.150000000000006</ele>
        <time>2025-04-26T14:52:34Z</time>
      </trkpt>
      <trkpt lat="43.405452976003289" lon="-0.625287964940071">
        <ele>99.150000000000006</ele>
        <time>2025-04-26T14:52:35Z</time>
      </trkpt>
      <trkpt lat="43.405602006241679" lon="-0.625277990475297">
        <ele>98.670000000000002</ele>
        <time>2025-04-26T14:52:36Z</time>
      </trkpt>
      <trkpt lat="43.405737960711122" lon="-0.625255024060607">
        <ele>98.670000000000002</ele>
        <time>2025-04-26T14:52:37Z</time>
      </trkpt>
      <trkpt lat="43.405894031748176" lon="-0.625185035169125">
        <ele>98.189999999999998</ele>
        <time>2025-04-26T14:52:38Z</time>
      </trkpt>
      <trkpt lat="43.406029986217618" lon="-0.625085961073637">
        <ele>98.189999999999998</ele>
        <time>2025-04-26T14:52:39Z</time>
      </trkpt>
      <trkpt lat="43.406151020899415" lon="-0.624951012432575">
        <ele>98.189999999999998</ele>
        <time>2025-04-26T14:52:40Z</time>
      </trkpt>
      <trkpt lat="43.406274989247322" lon="-0.624812040477991">
        <ele>98.189999999999998</ele>
        <time>2025-04-26T14:52:41Z</time>
      </trkpt>
      <trkpt lat="43.406393006443977" lon="-0.62464096583426">
        <ele>98.189999999999998</ele>
        <time>2025-04-26T14:52:42Z</time>
      </trkpt>
      <trkpt lat="43.407536968588829" lon="-0.622558984905481">
        <ele>98.189999999999998</ele>
        <time>2025-04-26T14:52:52Z</time>
      </trkpt>
      <trkpt lat="43.40781700797379" lon="-0.622223038226366">
        <ele>98.189999999999998</ele>
        <time>2025-04-26T14:52:54Z</time>
      </trkpt>
      <trkpt lat="43.407961009070277" lon="-0.622051963582635">
        <ele>99.150000000000006</ele>
        <time>2025-04-26T14:52:55Z</time>
      </trkpt>
      <trkpt lat="43.4081169962883" lon="-0.621909974142909">
        <ele>99.629999999999995</ele>
        <time>2025-04-26T14:52:56Z</time>
      </trkpt>
      <trkpt lat="43.408282035961747" lon="-0.621784999966621">
        <ele>99.629999999999995</ele>
        <time>2025-04-26T14:52:57Z</time>
      </trkpt>
      <trkpt lat="43.408456966280937" lon="-0.621705036610365">
        <ele>100.11</ele>
        <time>2025-04-26T14:52:58Z</time>
      </trkpt>
      <trkpt lat="43.40863399207592" lon="-0.621623983606696">
        <ele>100.11</ele>
        <time>2025-04-26T14:52:59Z</time>
      </trkpt>
      <trkpt lat="43.408812023699284" lon="-0.621559023857117">
        <ele>100.59999999999999</ele>
        <time>2025-04-26T14:53:00Z</time>
      </trkpt>
      <trkpt lat="43.408995000645518" lon="-0.621537985280156">
        <ele>101.08</ele>
        <time>2025-04-26T14:53:01Z</time>
      </trkpt>
      <trkpt lat="43.409177977591753" lon="-0.621517030522227">
        <ele>101.56</ele>
        <time>2025-04-26T14:53:02Z</time>
      </trkpt>
      <trkpt lat="43.409362966194749" lon="-0.621509989723563">
        <ele>102.04000000000001</ele>
        <time>2025-04-26T14:53:03Z</time>
      </trkpt>
      <trkpt lat="43.410323029384017" lon="-0.621896982192993">
        <ele>103.48</ele>
        <time>2025-04-26T14:53:09Z</time>
      </trkpt>
      <trkpt lat="43.410462001338601" lon="-0.621993960812688">
        <ele>103.95999999999999</ele>
        <time>2025-04-26T14:53:10Z</time>
      </trkpt>
      <trkpt lat="43.410569960251451" lon="-0.62210401520133">
        <ele>103.48</ele>
        <time>2025-04-26T14:53:11Z</time>
      </trkpt>
      <trkpt lat="43.410661993548274" lon="-0.622236030176282">
        <ele>103.48</ele>
        <time>2025-04-26T14:53:12Z</time>
      </trkpt>
      <trkpt lat="43.410748997703195" lon="-0.622363016009331">
        <ele>103.48</ele>
        <time>2025-04-26T14:53:13Z</time>
      </trkpt>
      <trkpt lat="43.410836001858115" lon="-0.622486984357238">
        <ele>103</ele>
        <time>2025-04-26T14:53:14Z</time>
      </trkpt>
      <trkpt lat="43.41091001406312" lon="-0.622594021260738">
        <ele>103</ele>
        <time>2025-04-26T14:53:15Z</time>
      </trkpt>
      <trkpt lat="43.411546032875776" lon="-0.623957002535462">
        <ele>99.150000000000006</ele>
        <time>2025-04-26T14:53:25Z</time>
      </trkpt>
      <trkpt lat="43.412194959819317" lon="-0.625548977404833">
        <ele>99.629999999999995</ele>
        <time>2025-04-26T14:53:36Z</time>
      </trkpt>
      <trkpt lat="43.412689995020628" lon="-0.626870971173048">
        <ele>98.670000000000002</ele>
        <time>2025-04-26T14:53:45Z</time>
      </trkpt>
      <trkpt lat="43.412754032760859" lon="-0.627012038603425">
        <ele>98.670000000000002</ele>
        <time>2025-04-26T14:53:46Z</time>
      </trkpt>
      <trkpt lat="43.412848999723792" lon="-0.62710901722312">
        <ele>98.670000000000002</ele>
        <time>2025-04-26T14:53:47Z</time>
      </trkpt>
      <trkpt lat="43.412944972515106" lon="-0.627204990014434">
        <ele>98.670000000000002</ele>
        <time>2025-04-26T14:53:48Z</time>
      </trkpt>
      <trkpt lat="43.413044968619943" lon="-0.627285037189722">
        <ele>98.670000000000002</ele>
        <time>2025-04-26T14:53:49Z</time>
      </trkpt>
      <trkpt lat="43.413159968331456" lon="-0.627311021089554">
        <ele>98.670000000000002</ele>
        <time>2025-04-26T14:53:50Z</time>
      </trkpt>
      <trkpt lat="43.413278991356492" lon="-0.627299034968019">
        <ele>98.189999999999998</ele>
        <time>2025-04-26T14:53:51Z</time>
      </trkpt>
      <trkpt lat="43.413400026038289" lon="-0.627286965027452">
        <ele>97.709999999999994</ele>
        <time>2025-04-26T14:53:52Z</time>
      </trkpt>
      <trkpt lat="43.413548972457647" lon="-0.627271961420774">
        <ele>97.709999999999994</ele>
        <time>2025-04-26T14:53:53Z</time>
      </trkpt>
      <trkpt lat="43.413634970784187" lon="-0.627228962257504">
        <ele>98.189999999999998</ele>
        <time>2025-04-26T14:53:54Z</time>
      </trkpt>
      <trkpt lat="43.413744019344449" lon="-0.627164002507925">
        <ele>98.189999999999998</ele>
        <time>2025-04-26T14:53:55Z</time>
      </trkpt>
      <trkpt lat="43.414064040407538" lon="-0.626971973106265">
        <ele>97.709999999999994</ele>
        <time>2025-04-26T14:53:58Z</time>
      </trkpt>
      <trkpt lat="43.414191026240587" lon="-0.626991000026464">
        <ele>97.709999999999994</ele>
        <time>2025-04-26T14:53:59Z</time>
      </trkpt>
      <trkpt lat="43.414291022345424" lon="-0.627007009461522">
        <ele>97.230000000000004</ele>
        <time>2025-04-26T14:54:00Z</time>
      </trkpt>
      <trkpt lat="43.414483973756433" lon="-0.627056965604424">
        <ele>96.75</ele>
        <time>2025-04-26T14:54:02Z</time>
      </trkpt>
      <trkpt lat="43.414577012881637" lon="-0.627073980867863">
        <ele>96.269999999999996</ele>
        <time>2025-04-26T14:54:03Z</time>
      </trkpt>
      <trkpt lat="43.414652030915022" lon="-0.627055959776044">
        <ele>95.790000000000006</ele>
        <time>2025-04-26T14:54:04Z</time>
      </trkpt>
      <trkpt lat="43.414751021191478" lon="-0.626799976453185">
        <ele>95.790000000000006</ele>
        <time>2025-04-26T14:54:05Z</time>
      </trkpt>
      <trkpt lat="43.414751021191478" lon="-0.626799976453185">
        <ele>95.310000000000002</ele>
        <time>2025-04-26T14:54:06Z</time>
      </trkpt>
      <trkpt lat="43.414815980941057" lon="-0.62674599699676">
        <ele>95.790000000000006</ele>
        <time>2025-04-26T14:54:07Z</time>
      </trkpt>
      <trkpt lat="43.414900973439217" lon="-0.626696040853858">
        <ele>95.790000000000006</ele>
        <time>2025-04-26T14:54:08Z</time>
      </trkpt>
      <trkpt lat="43.414978003129363" lon="-0.626707021147013">
        <ele>95.310000000000002</ele>
        <time>2025-04-26T14:54:09Z</time>
      </trkpt>
      <trkpt lat="43.415060983970761" lon="-0.626784972846508">
        <ele>95.310000000000002</ele>
        <time>2025-04-26T14:54:10Z</time>
      </trkpt>
      <trkpt lat="43.415102977305651" lon="-0.626880023628473">
        <ele>95.310000000000002</ele>
        <time>2025-04-26T14:54:11Z</time>
      </trkpt>
      <trkpt lat="43.415114963427186" lon="-0.627006003633142">
        <ele>94.829999999999998</ele>
        <time>2025-04-26T14:54:12Z</time>
      </trkpt>
      <trkpt lat="43.415110018104315" lon="-0.627133995294571">
        <ele>95.310000000000002</ele>
        <time>2025-04-26T14:54:13Z</time>
      </trkpt>
      <trkpt lat="43.41510096564889" lon="-0.627276990562677">
        <ele>95.310000000000002</ele>
        <time>2025-04-26T14:54:14Z</time>
      </trkpt>
      <trkpt lat="43.415103983134031" lon="-0.627435995265841">
        <ele>94.829999999999998</ele>
        <time>2025-04-26T14:54:15Z</time>
      </trkpt>
      <trkpt lat="43.415131978690624" lon="-0.627592988312244">
        <ele>95.310000000000002</ele>
        <time>2025-04-26T14:54:16Z</time>
      </trkpt>
      <trkpt lat="43.415570016950369" lon="-0.629727020859718">
        <ele>95.310000000000002</ele>
        <time>2025-04-26T14:54:28Z</time>
      </trkpt>
      <trkpt lat="43.416119031608105" lon="-0.631935987621546">
        <ele>95.790000000000006</ele>
        <time>2025-04-26T14:54:39Z</time>
      </trkpt>
      <trkpt lat="43.416844988241792" lon="-0.634923968464136">
        <ele>96.75</ele>
        <time>2025-04-26T14:54:51Z</time>
      </trkpt>
      <trkpt lat="43.417589971795678" lon="-0.637948997318745">
        <ele>95.790000000000006</ele>
        <time>2025-04-26T14:55:03Z</time>
      </trkpt>
      <trkpt lat="43.418340990319848" lon="-0.641016019508243">
        <ele>95.310000000000002</ele>
        <time>2025-04-26T14:55:15Z</time>
      </trkpt>
      <trkpt lat="43.419026965275407" lon="-0.643346020951867">
        <ele>95.790000000000006</ele>
        <time>2025-04-26T14:55:25Z</time>
      </trkpt>
      <trkpt lat="43.419106006622314" lon="-0.643555987626314">
        <ele>95.790000000000006</ele>
        <time>2025-04-26T14:55:26Z</time>
      </trkpt>
      <trkpt lat="43.419187981635332" lon="-0.643751034513116">
        <ele>95.790000000000006</ele>
        <time>2025-04-26T14:55:27Z</time>
      </trkpt>
      <trkpt lat="43.419300969690084" lon="-0.643885983154178">
        <ele>95.790000000000006</ele>
        <time>2025-04-26T14:55:28Z</time>
      </trkpt>
      <trkpt lat="43.419391997158527" lon="-0.643995031714439">
        <ele>96.269999999999996</ele>
        <time>2025-04-26T14:55:29Z</time>
      </trkpt>
      <trkpt lat="43.419471960514784" lon="-0.644091004505754">
        <ele>96.269999999999996</ele>
        <time>2025-04-26T14:55:30Z</time>
      </trkpt>
      <trkpt lat="43.419643035158515" lon="-0.644095027819276">
        <ele>96.269999999999996</ele>
        <time>2025-04-26T14:55:31Z</time>
      </trkpt>
      <trkpt lat="43.419709000736475" lon="-0.644150013104081">
        <ele>96.269999999999996</ele>
        <time>2025-04-26T14:55:32Z</time>
      </trkpt>
      <trkpt lat="43.419772032648325" lon="-0.644201980903745">
        <ele>96.269999999999996</ele>
        <time>2025-04-26T14:55:33Z</time>
      </trkpt>
      <trkpt lat="43.419807991012931" lon="-0.644400967285037">
        <ele>96.269999999999996</ele>
        <time>2025-04-26T14:55:34Z</time>
      </trkpt>
      <trkpt lat="43.419902035966516" lon="-0.644543962553144">
        <ele>96.269999999999996</ele>
        <time>2025-04-26T14:55:35Z</time>
      </trkpt>
      <trkpt lat="43.420001026242971" lon="-0.64466399140656">
        <ele>96.269999999999996</ele>
        <time>2025-04-26T14:55:36Z</time>
      </trkpt>
      <trkpt lat="43.420108985155821" lon="-0.644793994724751">
        <ele>96.75</ele>
        <time>2025-04-26T14:55:37Z</time>
      </trkpt>
      <trkpt lat="43.420225996524096" lon="-0.644935984164476">
        <ele>96.75</ele>
        <time>2025-04-26T14:55:38Z</time>
      </trkpt>
      <trkpt lat="43.421660978347063" lon="-0.646617980673909">
        <ele>97.230000000000004</ele>
        <time>2025-04-26T14:55:49Z</time>
      </trkpt>
      <trkpt lat="43.423046004027128" lon="-0.648199981078506">
        <ele>97.230000000000004</ele>
        <time>2025-04-26T14:55:59Z</time>
      </trkpt>
      <trkpt lat="43.42500502243638" lon="-0.650476003065705">
        <ele>94.829999999999998</ele>
        <time>2025-04-26T14:56:12Z</time>
      </trkpt>
      <trkpt lat="43.426890028640628" lon="-0.652633002027869">
        <ele>95.310000000000002</ele>
        <time>2025-04-26T14:56:24Z</time>
      </trkpt>
      <trkpt lat="43.428405979648232" lon="-0.654419017955661">
        <ele>95.790000000000006</ele>
        <time>2025-04-26T14:56:34Z</time>
      </trkpt>
      <trkpt lat="43.429649015888572" lon="-0.655831033363938">
        <ele>96.269999999999996</ele>
        <time>2025-04-26T14:56:43Z</time>
      </trkpt>
      <trkpt lat="43.431063964962959" lon="-0.657456032931805">
        <ele>97.230000000000004</ele>
        <time>2025-04-26T14:56:53Z</time>
      </trkpt>
      <trkpt lat="43.432705979794264" lon="-0.659341961145401">
        <ele>96.269999999999996</ele>
        <time>2025-04-26T14:57:05Z</time>
      </trkpt>
      <trkpt lat="43.43441597186029" lon="-0.661346996203065">
        <ele>95.310000000000002</ele>
        <time>2025-04-26T14:57:18Z</time>
      </trkpt>
      <trkpt lat="43.435828993096948" lon="-0.662977024912834">
        <ele>94.349999999999994</ele>
        <time>2025-04-26T14:57:28Z</time>
      </trkpt>
      <trkpt lat="43.437413005158305" lon="-0.664800005033612">
        <ele>90.5</ele>
        <time>2025-04-26T14:57:39Z</time>
      </trkpt>
      <trkpt lat="43.439178988337517" lon="-0.666848961263895">
        <ele>88.579999999999998</ele>
        <time>2025-04-26T14:57:51Z</time>
      </trkpt>
      <trkpt lat="43.440524032339454" lon="-0.668400032445788">
        <ele>87.140000000000001</ele>
        <time>2025-04-26T14:58:00Z</time>
      </trkpt>
      <trkpt lat="43.441834039986134" lon="-0.669902991503477">
        <ele>86.659999999999997</ele>
        <time>2025-04-26T14:58:10Z</time>
      </trkpt>
      <trkpt lat="43.442568965256214" lon="-0.670760041102767">
        <ele>85.209999999999994</ele>
        <time>2025-04-26T14:58:18Z</time>
      </trkpt>
      <trkpt lat="43.443878972902894" lon="-0.672255959361792">
        <ele>85.689999999999998</ele>
        <time>2025-04-26T14:58:32Z</time>
      </trkpt>
      <trkpt lat="43.44397502951324" lon="-0.672354027628899">
        <ele>86.180000000000007</ele>
        <time>2025-04-26T14:58:33Z</time>
      </trkpt>
      <trkpt lat="43.444808023050427" lon="-0.673328004777431">
        <ele>86.659999999999997</ele>
        <time>2025-04-26T14:58:42Z</time>
      </trkpt>
      <trkpt lat="43.445356031879783" lon="-0.673980033025146">
        <ele>85.689999999999998</ele>
        <time>2025-04-26T14:58:48Z</time>
      </trkpt>
      <trkpt lat="43.446107972413301" lon="-0.674838004633784">
        <ele>88.099999999999994</ele>
        <time>2025-04-26T14:58:54Z</time>
      </trkpt>
      <trkpt lat="43.446885980665684" lon="-0.675706034526229">
        <ele>89.060000000000002</ele>
        <time>2025-04-26T14:58:59Z</time>
      </trkpt>
      <trkpt lat="43.44704800285399" lon="-0.675886999815702">
        <ele>88.579999999999998</ele>
        <time>2025-04-26T14:59:00Z</time>
      </trkpt>
      <trkpt lat="43.448419030755758" lon="-0.677518034353852">
        <ele>86.180000000000007</ele>
        <time>2025-04-26T14:59:09Z</time>
      </trkpt>
      <trkpt lat="43.449619989842176" lon="-0.678856959566474">
        <ele>85.689999999999998</ele>
        <time>2025-04-26T14:59:17Z</time>
      </trkpt>
      <trkpt lat="43.450914993882179" lon="-0.68058698438108">
        <ele>83.769999999999996</ele>
        <time>2025-04-26T14:59:26Z</time>
      </trkpt>
      <trkpt lat="43.451642962172627" lon="-0.681613013148308">
        <ele>84.25</ele>
        <time>2025-04-26T14:59:33Z</time>
      </trkpt>
      <trkpt lat="43.45224604010582" lon="-0.682419016957283">
        <ele>84.25</ele>
        <time>2025-04-26T14:59:40Z</time>
      </trkpt>
      <trkpt lat="43.45233203843236" lon="-0.68254197947681">
        <ele>84.730000000000004</ele>
        <time>2025-04-26T14:59:41Z</time>
      </trkpt>
      <trkpt lat="43.452764041721821" lon="-0.683123013004661">
        <ele>86.180000000000007</ele>
        <time>2025-04-26T14:59:46Z</time>
      </trkpt>
      <trkpt lat="43.452882980927825" lon="-0.683205993846059">
        <ele>86.180000000000007</ele>
        <time>2025-04-26T14:59:47Z</time>
      </trkpt>
      <trkpt lat="43.453006027266383" lon="-0.683272965252399">
        <ele>86.659999999999997</ele>
        <time>2025-04-26T14:59:48Z</time>
      </trkpt>
      <trkpt lat="43.453157991170883" lon="-0.683298027142882">
        <ele>86.659999999999997</ele>
        <time>2025-04-26T14:59:49Z</time>
      </trkpt>
      <trkpt lat="43.453297968953848" lon="-0.683298027142882">
        <ele>86.659999999999997</ele>
        <time>2025-04-26T14:59:50Z</time>
      </trkpt>
      <trkpt lat="43.453441970050335" lon="-0.683227032423019">
        <ele>86.659999999999997</ele>
        <time>2025-04-26T14:59:51Z</time>
      </trkpt>
      <trkpt lat="43.453583037480712" lon="-0.683137010782957">
        <ele>87.140000000000001</ele>
        <time>2025-04-26T14:59:52Z</time>
      </trkpt>
      <trkpt lat="43.453718991950154" lon="-0.683011030778289">
        <ele>87.620000000000005</ele>
        <time>2025-04-26T14:59:53Z</time>
      </trkpt>
      <trkpt lat="43.453848995268345" lon="-0.682870969176292">
        <ele>88.099999999999994</ele>
        <time>2025-04-26T14:59:54Z</time>
      </trkpt>
      <trkpt lat="43.453984027728438" lon="-0.682737026363611">
        <ele>88.099999999999994</ele>
        <time>2025-04-26T14:59:55Z</time>
      </trkpt>
      <trkpt lat="43.454389963299036" lon="-0.682362020015717">
        <ele>89.540000000000006</ele>
        <time>2025-04-26T14:59:58Z</time>
      </trkpt>
      <trkpt lat="43.455224968492985" lon="-0.681995982304215">
        <ele>93.390000000000001</ele>
        <time>2025-04-26T15:00:05Z</time>
      </trkpt>
      <trkpt lat="43.456129040569067" lon="-0.682058008387685">
        <ele>100.59999999999999</ele>
        <time>2025-04-26T15:00:13Z</time>
      </trkpt>
      <trkpt lat="43.456232976168394" lon="-0.682109976187348">
        <ele>101.08</ele>
        <time>2025-04-26T15:00:14Z</time>
      </trkpt>
      <trkpt lat="43.456320986151695" lon="-0.682204021140933">
        <ele>101.56</ele>
        <time>2025-04-26T15:00:15Z</time>
      </trkpt>
      <trkpt lat="43.456412013620138" lon="-0.682312985882163">
        <ele>102.04000000000001</ele>
        <time>2025-04-26T15:00:16Z</time>
      </trkpt>
      <trkpt lat="43.456499017775059" lon="-0.682427985593677">
        <ele>102.04000000000001</ele>
        <time>2025-04-26T15:00:17Z</time>
      </trkpt>
      <trkpt lat="43.456584010273218" lon="-0.682555977255106">
        <ele>103</ele>
        <time>2025-04-26T15:00:18Z</time>
      </trkpt>
      <trkpt lat="43.456669002771378" lon="-0.682685980573297">
        <ele>103.48</ele>
        <time>2025-04-26T15:00:19Z</time>
      </trkpt>
      <trkpt lat="43.457701988518238" lon="-0.684320032596588">
        <ele>107.81</ele>
        <time>2025-04-26T15:00:32Z</time>
      </trkpt>
      <trkpt lat="43.458797000348568" lon="-0.686085009947419">
        <ele>108.77</ele>
        <time>2025-04-26T15:00:46Z</time>
      </trkpt>
      <trkpt lat="43.460063003003597" lon="-0.688133966177702">
        <ele>106.84</ele>
        <time>2025-04-26T15:01:02Z</time>
      </trkpt>
      <trkpt lat="43.460811004042625" lon="-0.689494013786316">
        <ele>104.92</ele>
        <time>2025-04-26T15:01:12Z</time>
      </trkpt>
      <trkpt lat="43.460865989327431" lon="-0.689657963812351">
        <ele>104.44</ele>
        <time>2025-04-26T15:01:13Z</time>
      </trkpt>
      <trkpt lat="43.460911000147462" lon="-0.689821997657418">
        <ele>103.95999999999999</ele>
        <time>2025-04-26T15:01:14Z</time>
      </trkpt>
      <trkpt lat="43.461137982085347" lon="-0.691920993849635">
        <ele>103.48</ele>
        <time>2025-04-26T15:01:25Z</time>
      </trkpt>
      <trkpt lat="43.461361024528742" lon="-0.693854028359056">
        <ele>103.48</ele>
        <time>2025-04-26T15:01:33Z</time>
      </trkpt>
      <trkpt lat="43.461633017286658" lon="-0.696198027580976">
        <ele>103.95999999999999</ele>
        <time>2025-04-26T15:01:43Z</time>
      </trkpt>
      <trkpt lat="43.461763020604849" lon="-0.697059016674757">
        <ele>103</ele>
        <time>2025-04-26T15:01:47Z</time>
      </trkpt>
      <trkpt lat="43.461826974526048" lon="-0.697264038026333">
        <ele>103</ele>
        <time>2025-04-26T15:01:48Z</time>
      </trkpt>
      <trkpt lat="43.461905010044575" lon="-0.697466963902116">
        <ele>103</ele>
        <time>2025-04-26T15:01:49Z</time>
      </trkpt>
      <trkpt lat="43.462366014719009" lon="-0.698646968230605">
        <ele>103</ele>
        <time>2025-04-26T15:01:55Z</time>
      </trkpt>
      <trkpt lat="43.463236978277564" lon="-0.700808996334672">
        <ele>103.48</ele>
        <time>2025-04-26T15:02:05Z</time>
      </trkpt>
      <trkpt lat="43.464223025366664" lon="-0.703264977782965">
        <ele>103.95999999999999</ele>
        <time>2025-04-26T15:02:16Z</time>
      </trkpt>
      <trkpt lat="43.465368999168277" lon="-0.706049026921391">
        <ele>101.08</ele>
        <time>2025-04-26T15:02:28Z</time>
      </trkpt>
      <trkpt lat="43.466413971036673" lon="-0.708681028336287">
        <ele>100.59999999999999</ele>
        <time>2025-04-26T15:02:39Z</time>
      </trkpt>
      <trkpt lat="43.467274038121104" lon="-0.710832998156548">
        <ele>103</ele>
        <time>2025-04-26T15:02:49Z</time>
      </trkpt>
      <trkpt lat="43.467667987570167" lon="-0.711837988346815">
        <ele>102.04000000000001</ele>
        <time>2025-04-26T15:02:54Z</time>
      </trkpt>
      <trkpt lat="43.468481032177806" lon="-0.713826008141041">
        <ele>98.670000000000002</ele>
        <time>2025-04-26T15:03:04Z</time>
      </trkpt>
      <trkpt lat="43.469278989359736" lon="-0.715828025713563">
        <ele>94.349999999999994</ele>
        <time>2025-04-26T15:03:14Z</time>
      </trkpt>
      <trkpt lat="43.470096979290247" lon="-0.717846974730492">
        <ele>87.620000000000005</ele>
        <time>2025-04-26T15:03:24Z</time>
      </trkpt>
      <trkpt lat="43.47091899253428" lon="-0.720130959525704">
        <ele>82.329999999999998</ele>
        <time>2025-04-26T15:03:34Z</time>
      </trkpt>
      <trkpt lat="43.471431965008378" lon="-0.721915969625115">
        <ele>79.450000000000003</ele>
        <time>2025-04-26T15:03:42Z</time>
      </trkpt>
      <trkpt lat="43.472155993804336" lon="-0.724505977705121">
        <ele>77.040000000000006</ele>
        <time>2025-04-26T15:03:53Z</time>
      </trkpt>
      <trkpt lat="43.473100969567895" lon="-0.726922983303666">
        <ele>74.640000000000001</ele>
        <time>2025-04-26T15:04:03Z</time>
      </trkpt>
      <trkpt lat="43.474504016339779" lon="-0.729710971936584">
        <ele>79.450000000000003</ele>
        <time>2025-04-26T15:04:15Z</time>
      </trkpt>
      <trkpt lat="43.475735988467932" lon="-0.73234599083662">
        <ele>83.290000000000006</ele>
        <time>2025-04-26T15:04:27Z</time>
      </trkpt>
      <trkpt lat="43.476395979523659" lon="-0.734399976208806">
        <ele>83.769999999999996</ele>
        <time>2025-04-26T15:04:35Z</time>
      </trkpt>
      <trkpt lat="43.476540986448526" lon="-0.734897023066878">
        <ele>83.769999999999996</ele>
        <time>2025-04-26T15:04:37Z</time>
      </trkpt>
      <trkpt lat="43.476614998653531" lon="-0.735149988904595">
        <ele>84.25</ele>
        <time>2025-04-26T15:04:38Z</time>
      </trkpt>
      <trkpt lat="43.477540025487542" lon="-0.738332010805607">
        <ele>83.290000000000006</ele>
        <time>2025-04-26T15:04:51Z</time>
      </trkpt>
      <trkpt lat="43.478242009878159" lon="-0.740753039717674">
        <ele>79.450000000000003</ele>
        <time>2025-04-26T15:05:01Z</time>
      </trkpt>
      <trkpt lat="43.47893200814724" lon="-0.743074994534254">
        <ele>80.890000000000001</ele>
        <time>2025-04-26T15:05:11Z</time>
      </trkpt>
      <trkpt lat="43.479485968127847" lon="-0.744923958554864">
        <ele>77.519999999999996</ele>
        <time>2025-04-26T15:05:20Z</time>
      </trkpt>
      <trkpt lat="43.479543970897794" lon="-0.745115987956524">
        <ele>77.519999999999996</ele>
        <time>2025-04-26T15:05:21Z</time>
      </trkpt>
      <trkpt lat="43.479838008061051" lon="-0.746185015887022">
        <ele>78.480000000000004</ele>
        <time>2025-04-26T15:05:27Z</time>
      </trkpt>
      <trkpt lat="43.480193987488747" lon="-0.747366026043892">
        <ele>81.849999999999994</ele>
        <time>2025-04-26T15:05:35Z</time>
      </trkpt>
      <trkpt lat="43.480686005204916" lon="-0.748831015080214">
        <ele>85.209999999999994</ele>
        <time>2025-04-26T15:05:45Z</time>
      </trkpt>
      <trkpt lat="43.480815002694726" lon="-0.749068977311254">
        <ele>86.180000000000007</ele>
        <time>2025-04-26T15:05:50Z</time>
      </trkpt>
      <trkpt lat="43.480884991586208" lon="-0.749195041134954">
        <ele>87.140000000000001</ele>
        <time>2025-04-26T15:05:57Z</time>
      </trkpt>
      <trkpt lat="43.480928996577859" lon="-0.749204009771347">
        <ele>87.620000000000005</ele>
        <time>2025-04-26T15:05:58Z</time>
      </trkpt>
      <trkpt lat="43.481022035703063" lon="-0.749267041683197">
        <ele>87.620000000000005</ele>
        <time>2025-04-26T15:06:00Z</time>
      </trkpt>
      <trkpt lat="43.481063023209572" lon="-0.749332001432776">
        <ele>87.620000000000005</ele>
        <time>2025-04-26T15:06:01Z</time>
      </trkpt>
      <trkpt lat="43.481119014322758" lon="-0.749411964789033">
        <ele>87.620000000000005</ele>
        <time>2025-04-26T15:06:02Z</time>
      </trkpt>
      <trkpt lat="43.481119014322758" lon="-0.749513972550631">
        <ele>87.620000000000005</ele>
        <time>2025-04-26T15:06:03Z</time>
      </trkpt>
      <trkpt lat="43.48108196631074" lon="-0.749612040817738">
        <ele>87.620000000000005</ele>
        <time>2025-04-26T15:06:04Z</time>
      </trkpt>
      <trkpt lat="43.481037961319089" lon="-0.749766016378999">
        <ele>88.099999999999994</ele>
        <time>2025-04-26T15:06:05Z</time>
      </trkpt>
      <trkpt lat="43.481051037088037" lon="-0.749908005818725">
        <ele>88.099999999999994</ele>
        <time>2025-04-26T15:06:06Z</time>
      </trkpt>
      <trkpt lat="43.481064029037952" lon="-0.750063993036747">
        <ele>88.579999999999998</ele>
        <time>2025-04-26T15:06:07Z</time>
      </trkpt>
      <trkpt lat="43.481452027335763" lon="-0.751634007319808">
        <ele>90.019999999999996</ele>
        <time>2025-04-26T15:06:17Z</time>
      </trkpt>
      <trkpt lat="43.481885958462954" lon="-0.753198992460966">
        <ele>91.459999999999994</ele>
        <time>2025-04-26T15:06:27Z</time>
      </trkpt>
      <trkpt lat="43.482581991702318" lon="-0.755541985854506">
        <ele>85.689999999999998</ele>
        <time>2025-04-26T15:06:42Z</time>
      </trkpt>
      <trkpt lat="43.483400987461209" lon="-0.758303990587592">
        <ele>72.239999999999995</ele>
        <time>2025-04-26T15:07:00Z</time>
      </trkpt>
      <trkpt lat="43.483977997675538" lon="-0.760278012603521">
        <ele>66.469999999999999</ele>
        <time>2025-04-26T15:07:13Z</time>
      </trkpt>
      <trkpt lat="43.484014961868525" lon="-0.760378008708358">
        <ele>66.950000000000003</ele>
        <time>2025-04-26T15:07:14Z</time>
      </trkpt>
      <trkpt lat="43.484071958810091" lon="-0.760506000369787">
        <ele>67.909999999999997</ele>
        <time>2025-04-26T15:07:17Z</time>
      </trkpt>
      <trkpt lat="43.484215037897229" lon="-0.760585963726044">
        <ele>67.909999999999997</ele>
        <time>2025-04-26T15:07:20Z</time>
      </trkpt>
      <trkpt lat="43.484187964349985" lon="-0.760782016441226">
        <ele>67.909999999999997</ele>
        <time>2025-04-26T15:07:21Z</time>
      </trkpt>
      <trkpt lat="43.484187964349985" lon="-0.760782016441226">
        <ele>67.430000000000007</ele>
        <time>2025-04-26T15:07:23Z</time>
      </trkpt>
      <trkpt lat="43.484206991270185" lon="-0.761032970622182">
        <ele>67.430000000000007</ele>
        <time>2025-04-26T15:07:25Z</time>
      </trkpt>
      <trkpt lat="43.4842390101403" lon="-0.761174038052559">
        <ele>67.430000000000007</ele>
        <time>2025-04-26T15:07:26Z</time>
      </trkpt>
      <trkpt lat="43.484272034838796" lon="-0.761303035542369">
        <ele>67.430000000000007</ele>
        <time>2025-04-26T15:07:27Z</time>
      </trkpt>
      <trkpt lat="43.484306987375021" lon="-0.761434966698289">
        <ele>67.909999999999997</ele>
        <time>2025-04-26T15:07:28Z</time>
      </trkpt>
      <trkpt lat="43.484343029558659" lon="-0.761574022471905">
        <ele>67.909999999999997</ele>
        <time>2025-04-26T15:07:29Z</time>
      </trkpt>
      <trkpt lat="43.484383011236787" lon="-0.761714000254869">
        <ele>68.390000000000001</ele>
        <time>2025-04-26T15:07:30Z</time>
      </trkpt>
      <trkpt lat="43.484580991789699" lon="-0.762385977432132">
        <ele>70.790000000000006</ele>
        <time>2025-04-26T15:07:35Z</time>
      </trkpt>
      <trkpt lat="43.484618039801717" lon="-0.76250902377069">
        <ele>71.269999999999996</ele>
        <time>2025-04-26T15:07:36Z</time>
      </trkpt>
      <trkpt lat="43.48469297401607" lon="-0.762765007093549">
        <ele>71.760000000000005</ele>
        <time>2025-04-26T15:07:38Z</time>
      </trkpt>
      <trkpt lat="43.484980976209044" lon="-0.763763040304184">
        <ele>73.680000000000007</ele>
        <time>2025-04-26T15:07:46Z</time>
      </trkpt>
      <trkpt lat="43.485017018392682" lon="-0.763890026137233">
        <ele>73.680000000000007</ele>
        <time>2025-04-26T15:07:47Z</time>
      </trkpt>
      <trkpt lat="43.485410967841744" lon="-0.765219982713461">
        <ele>73.680000000000007</ele>
        <time>2025-04-26T15:07:57Z</time>
      </trkpt>
      <trkpt lat="43.48583098500967" lon="-0.766652030870318">
        <ele>71.760000000000005</ele>
        <time>2025-04-26T15:08:09Z</time>
      </trkpt>
      <trkpt lat="43.485859986394644" lon="-0.766775999218225">
        <ele>71.760000000000005</ele>
        <time>2025-04-26T15:08:10Z</time>
      </trkpt>
      <trkpt lat="43.485889993607998" lon="-0.766899967566133">
        <ele>71.760000000000005</ele>
        <time>2025-04-26T15:08:11Z</time>
      </trkpt>
      <trkpt lat="43.486243039369583" lon="-0.768111990764737">
        <ele>73.200000000000003</ele>
        <time>2025-04-26T15:08:21Z</time>
      </trkpt>
      <trkpt lat="43.486277991905808" lon="-0.768230007961392">
        <ele>73.200000000000003</ele>
        <time>2025-04-26T15:08:22Z</time>
      </trkpt>
      <trkpt lat="43.486320991069078" lon="-0.768346013501287">
        <ele>72.719999999999999</ele>
        <time>2025-04-26T15:08:23Z</time>
      </trkpt>
      <trkpt lat="43.486371031031013" lon="-0.768451038748026">
        <ele>72.719999999999999</ele>
        <time>2025-04-26T15:08:24Z</time>
      </trkpt>
      <trkpt lat="43.486420987173915" lon="-0.768550029024482">
        <ele>72.239999999999995</ele>
        <time>2025-04-26T15:08:25Z</time>
      </trkpt>
      <trkpt lat="43.48647303879261" lon="-0.768651030957699">
        <ele>71.760000000000005</ele>
        <time>2025-04-26T15:08:26Z</time>
      </trkpt>
      <trkpt lat="43.486527018249035" lon="-0.768756978213787">
        <ele>71.760000000000005</ele>
        <time>2025-04-26T15:08:27Z</time>
      </trkpt>
      <trkpt lat="43.486844021826982" lon="-0.769357960671186">
        <ele>70.790000000000006</ele>
        <time>2025-04-26T15:08:33Z</time>
      </trkpt>
      <trkpt lat="43.486895989626646" lon="-0.769443958997726">
        <ele>70.790000000000006</ele>
        <time>2025-04-26T15:08:34Z</time>
      </trkpt>
      <trkpt lat="43.48701098933816" lon="-0.769688962027431">
        <ele>71.269999999999996</ele>
        <time>2025-04-26T15:08:37Z</time>
      </trkpt>
      <trkpt lat="43.487078966572881" lon="-0.769904963672161">
        <ele>71.269999999999996</ele>
        <time>2025-04-26T15:08:40Z</time>
      </trkpt>
      <trkpt lat="43.487083995714784" lon="-0.76992298476398">
        <ele>71.269999999999996</ele>
        <time>2025-04-26T15:08:41Z</time>
      </trkpt>
      <trkpt lat="43.487060023471713" lon="-0.769964978098869">
        <ele>71.760000000000005</ele>
        <time>2025-04-26T15:08:42Z</time>
      </trkpt>
      <trkpt lat="43.487026998773217" lon="-0.770023986697197">
        <ele>72.239999999999995</ele>
        <time>2025-04-26T15:08:43Z</time>
      </trkpt>
      <trkpt lat="43.486995985731483" lon="-0.770075032487512">
        <ele>72.239999999999995</ele>
        <time>2025-04-26T15:08:44Z</time>
      </trkpt>
      <trkpt lat="43.486938988789916" lon="-0.770119959488511">
        <ele>72.239999999999995</ele>
        <time>2025-04-26T15:08:45Z</time>
      </trkpt>
      <trkpt lat="43.486879980191588" lon="-0.770167987793684">
        <ele>72.719999999999999</ele>
        <time>2025-04-26T15:08:46Z</time>
      </trkpt>
      <trkpt lat="43.486818037927151" lon="-0.770218027755618">
        <ele>72.719999999999999</ele>
        <time>2025-04-26T15:08:47Z</time>
      </trkpt>
      <trkpt lat="43.486292995512486" lon="-0.770650031045079">
        <ele>74.640000000000001</ele>
        <time>2025-04-26T15:08:55Z</time>
      </trkpt>
      <trkpt lat="43.486204985529184" lon="-0.77078104019165">
        <ele>75.120000000000005</ele>
        <time>2025-04-26T15:08:57Z</time>
      </trkpt>
      <trkpt lat="43.486183024942875" lon="-0.770886987447739">
        <ele>75.120000000000005</ele>
        <time>2025-04-26T15:08:58Z</time>
      </trkpt>
      <trkpt lat="43.486203979700804" lon="-0.770985977724195">
        <ele>75.120000000000005</ele>
        <time>2025-04-26T15:08:59Z</time>
      </trkpt>
      <trkpt lat="43.486226024106145" lon="-0.771089997142553">
        <ele>75.120000000000005</ele>
        <time>2025-04-26T15:09:00Z</time>
      </trkpt>
      <trkpt lat="43.486251002177596" lon="-0.771198039874434">
        <ele>75.599999999999994</ele>
        <time>2025-04-26T15:09:01Z</time>
      </trkpt>
      <trkpt lat="43.486290983855724" lon="-0.771305998787284">
        <ele>75.599999999999994</ele>
        <time>2025-04-26T15:09:02Z</time>
      </trkpt>
      <trkpt lat="43.486695997416973" lon="-0.772554986178875">
        <ele>74.640000000000001</ele>
        <time>2025-04-26T15:09:13Z</time>
      </trkpt>
      <trkpt lat="43.486906969919801" lon="-0.773221012204885">
        <ele>73.200000000000003</ele>
        <time>2025-04-26T15:09:22Z</time>
      </trkpt>
      <trkpt lat="43.486919961869717" lon="-0.773265017196536">
        <ele>73.200000000000003</ele>
        <time>2025-04-26T15:09:23Z</time>
      </trkpt>
      <trkpt lat="43.486947035416961" lon="-0.773323019966483">
        <ele>73.200000000000003</ele>
        <time>2025-04-26T15:09:24Z</time>
      </trkpt>
      <trkpt lat="43.486985005438328" lon="-0.773353027179837">
        <ele>72.719999999999999</ele>
        <time>2025-04-26T15:09:25Z</time>
      </trkpt>
      <trkpt lat="43.487039990723133" lon="-0.773408012464643">
        <ele>72.719999999999999</ele>
        <time>2025-04-26T15:09:26Z</time>
      </trkpt>
      <trkpt lat="43.487020041793585" lon="-0.773528041318059">
        <ele>72.719999999999999</ele>
        <time>2025-04-26T15:09:27Z</time>
      </trkpt>
      <trkpt lat="43.487030016258359" lon="-0.77355301938951">
        <ele>72.239999999999995</ele>
        <time>2025-04-26T15:09:28Z</time>
      </trkpt>
      <trkpt lat="43.487063040956855" lon="-0.773634994402528">
        <ele>72.239999999999995</ele>
        <time>2025-04-26T15:09:29Z</time>
      </trkpt>
      <trkpt lat="43.487078966572881" lon="-0.773689979687333">
        <ele>72.239999999999995</ele>
        <time>2025-04-26T15:09:30Z</time>
      </trkpt>
      <trkpt lat="43.487103022634983" lon="-0.77376801520586">
        <ele>72.239999999999995</ele>
        <time>2025-04-26T15:09:31Z</time>
      </trkpt>
      <trkpt lat="43.487208969891071" lon="-0.774137992411852">
        <ele>72.719999999999999</ele>
        <time>2025-04-26T15:09:35Z</time>
      </trkpt>
      <trkpt lat="43.487283987924457" lon="-0.774462958797812">
        <ele>71.760000000000005</ele>
        <time>2025-04-26T15:09:38Z</time>
      </trkpt>
      <trkpt lat="43.487305026501417" lon="-0.774581981822848">
        <ele>71.269999999999996</ele>
        <time>2025-04-26T15:09:39Z</time>
      </trkpt>
      <trkpt lat="43.48733201622963" lon="-0.774707039818168">
        <ele>71.269999999999996</ele>
        <time>2025-04-26T15:09:40Z</time>
      </trkpt>
      <trkpt lat="43.487364035099745" lon="-0.774826984852552">
        <ele>71.760000000000005</ele>
        <time>2025-04-26T15:09:41Z</time>
      </trkpt>
      <trkpt lat="43.487393958494067" lon="-0.774938967078924">
        <ele>71.760000000000005</ele>
        <time>2025-04-26T15:09:42Z</time>
      </trkpt>
      <trkpt lat="43.487640973180532" lon="-0.775797022506595">
        <ele>70.790000000000006</ele>
        <time>2025-04-26T15:09:50Z</time>
      </trkpt>
      <trkpt lat="43.48767701536417" lon="-0.775911016389728">
        <ele>70.310000000000002</ele>
        <time>2025-04-26T15:09:51Z</time>
      </trkpt>
      <trkpt lat="43.487813975661993" lon="-0.776446033269167">
        <ele>67.909999999999997</ele>
        <time>2025-04-26T15:09:56Z</time>
      </trkpt>
      <trkpt lat="43.487796038389206" lon="-0.776557009667158">
        <ele>67.430000000000007</ele>
        <time>2025-04-26T15:09:57Z</time>
      </trkpt>
      <trkpt lat="43.487793020904064" lon="-0.776575030758977">
        <ele>66.469999999999999</ele>
        <time>2025-04-26T15:09:58Z</time>
      </trkpt>
      <trkpt lat="43.487719008699059" lon="-0.776720959693193">
        <ele>65.510000000000005</ele>
        <time>2025-04-26T15:09:59Z</time>
      </trkpt>
      <trkpt lat="43.487670980393887" lon="-0.77681802213192">
        <ele>64.069999999999993</ele>
        <time>2025-04-26T15:10:00Z</time>
      </trkpt>
      <trkpt lat="43.487621024250984" lon="-0.776918018236756">
        <ele>63.579999999999998</ele>
        <time>2025-04-26T15:10:01Z</time>
      </trkpt>
      <trkpt lat="43.487565033137798" lon="-0.776993036270142">
        <ele>62.619999999999997</ele>
        <time>2025-04-26T15:10:02Z</time>
      </trkpt>
      <trkpt lat="43.487503007054329" lon="-0.777091020718217">
        <ele>62.619999999999997</ele>
        <time>2025-04-26T15:10:03Z</time>
      </trkpt>
      <trkpt lat="43.487443998456001" lon="-0.77718598768115">
        <ele>63.579999999999998</ele>
        <time>2025-04-26T15:10:04Z</time>
      </trkpt>
      <trkpt lat="43.487256998196244" lon="-0.777469966560602">
        <ele>65.030000000000001</ele>
        <time>2025-04-26T15:10:07Z</time>
      </trkpt>
      <trkpt lat="43.487197989597917" lon="-0.777578009292483">
        <ele>65.030000000000001</ele>
        <time>2025-04-26T15:10:08Z</time>
      </trkpt>
      <trkpt lat="43.48713998682797" lon="-0.777693009003997">
        <ele>65.030000000000001</ele>
        <time>2025-04-26T15:10:09Z</time>
      </trkpt>
      <trkpt lat="43.487091036513448" lon="-0.777824018150568">
        <ele>65.030000000000001</ele>
        <time>2025-04-26T15:10:10Z</time>
      </trkpt>
      <trkpt lat="43.487077038735151" lon="-0.777988974004984">
        <ele>65.030000000000001</ele>
        <time>2025-04-26T15:10:11Z</time>
      </trkpt>
      <trkpt lat="43.487067986279726" lon="-0.778170023113489">
        <ele>64.549999999999997</ele>
        <time>2025-04-26T15:10:12Z</time>
      </trkpt>
      <trkpt lat="43.487086007371545" lon="-0.778349982574582">
        <ele>64.549999999999997</ele>
        <time>2025-04-26T15:10:13Z</time>
      </trkpt>
      <trkpt lat="43.487136969342828" lon="-0.778521979227662">
        <ele>64.549999999999997</ele>
        <time>2025-04-26T15:10:14Z</time>
      </trkpt>
      <trkpt lat="43.487184997648001" lon="-0.778685007244349">
        <ele>65.030000000000001</ele>
        <time>2025-04-26T15:10:15Z</time>
      </trkpt>
      <trkpt lat="43.487711967900395" lon="-0.780267007648945">
        <ele>66.469999999999999</ele>
        <time>2025-04-26T15:10:26Z</time>
      </trkpt>
      <trkpt lat="43.488355027511716" lon="-0.782243041321635">
        <ele>67.909999999999997</ele>
        <time>2025-04-26T15:10:39Z</time>
      </trkpt>
      <trkpt lat="43.488964978605509" lon="-0.784063003957272">
        <ele>69.829999999999998</ele>
        <time>2025-04-26T15:10:51Z</time>
      </trkpt>
      <trkpt lat="43.489273013547063" lon="-0.784943019971251">
        <ele>69.829999999999998</ele>
        <time>2025-04-26T15:10:58Z</time>
      </trkpt>
      <trkpt lat="43.489337973296642" lon="-0.785064976662397">
        <ele>69.829999999999998</ele>
        <time>2025-04-26T15:10:59Z</time>
      </trkpt>
      <trkpt lat="43.489393964409828" lon="-0.785168996080756">
        <ele>69.829999999999998</ele>
        <time>2025-04-26T15:11:00Z</time>
      </trkpt>
      <trkpt lat="43.489445010200143" lon="-0.78526496887207">
        <ele>69.829999999999998</ele>
        <time>2025-04-26T15:11:01Z</time>
      </trkpt>
      <trkpt lat="43.489506030455232" lon="-0.785335041582584">
        <ele>69.349999999999994</ele>
        <time>2025-04-26T15:11:02Z</time>
      </trkpt>
      <trkpt lat="43.489564033225179" lon="-0.785401007160544">
        <ele>69.349999999999994</ele>
        <time>2025-04-26T15:11:03Z</time>
      </trkpt>
      <trkpt lat="43.489622035995126" lon="-0.785453980788589">
        <ele>68.870000000000005</ele>
        <time>2025-04-26T15:11:04Z</time>
      </trkpt>
      <trkpt lat="43.489677021279931" lon="-0.785488011315465">
        <ele>68.870000000000005</ele>
        <time>2025-04-26T15:11:05Z</time>
      </trkpt>
      <trkpt lat="43.489734018221498" lon="-0.785524975508451">
        <ele>68.870000000000005</ele>
        <time>2025-04-26T15:11:06Z</time>
      </trkpt>
      <trkpt lat="43.489797972142696" lon="-0.78556596301496">
        <ele>68.870000000000005</ele>
        <time>2025-04-26T15:11:07Z</time>
      </trkpt>
      <trkpt lat="43.489873996004462" lon="-0.785587001591921">
        <ele>68.870000000000005</ele>
        <time>2025-04-26T15:11:08Z</time>
      </trkpt>
      <trkpt lat="43.489923030138016" lon="-0.785636035725474">
        <ele>68.870000000000005</ele>
        <time>2025-04-26T15:11:09Z</time>
      </trkpt>
      <trkpt lat="43.489973992109299" lon="-0.785686997696757">
        <ele>68.870000000000005</ele>
        <time>2025-04-26T15:11:10Z</time>
      </trkpt>
      <trkpt lat="43.489981032907963" lon="-0.785785987973213">
        <ele>69.349999999999994</ele>
        <time>2025-04-26T15:11:11Z</time>
      </trkpt>
      <trkpt lat="43.489981032907963" lon="-0.785879027098417">
        <ele>69.349999999999994</ele>
        <time>2025-04-26T15:11:12Z</time>
      </trkpt>
      <trkpt lat="43.489981032907963" lon="-0.785982962697744">
        <ele>69.349999999999994</ele>
        <time>2025-04-26T15:11:13Z</time>
      </trkpt>
      <trkpt lat="43.489981032907963" lon="-0.786091005429626">
        <ele>69.349999999999994</ele>
        <time>2025-04-26T15:11:14Z</time>
      </trkpt>
      <trkpt lat="43.489981032907963" lon="-0.786206005141139">
        <ele>69.349999999999994</ele>
        <time>2025-04-26T15:11:15Z</time>
      </trkpt>
      <trkpt lat="43.48995597101748" lon="-0.787391038611531">
        <ele>66.469999999999999</ele>
        <time>2025-04-26T15:11:23Z</time>
      </trkpt>
      <trkpt lat="43.489866033196449" lon="-0.789058031514287">
        <ele>66.469999999999999</ele>
        <time>2025-04-26T15:11:33Z</time>
      </trkpt>
      <trkpt lat="43.489782968536019" lon="-0.790541963651776">
        <ele>65.989999999999995</ele>
        <time>2025-04-26T15:11:41Z</time>
      </trkpt>
      <trkpt lat="43.489723959937692" lon="-0.791671006008983">
        <ele>64.549999999999997</ele>
        <time>2025-04-26T15:11:48Z</time>
      </trkpt>
      <trkpt lat="43.489715997129679" lon="-0.791840991005301">
        <ele>64.069999999999993</ele>
        <time>2025-04-26T15:11:49Z</time>
      </trkpt>
      <trkpt lat="43.489691019058228" lon="-0.792342983186245">
        <ele>63.100000000000001</ele>
        <time>2025-04-26T15:11:52Z</time>
      </trkpt>
      <trkpt lat="43.489620024338365" lon="-0.793820964172482">
        <ele>59.740000000000002</ele>
        <time>2025-04-26T15:12:01Z</time>
      </trkpt>
      <trkpt lat="43.489604014903307" lon="-0.79415800049901">
        <ele>58.299999999999997</ele>
        <time>2025-04-26T15:12:03Z</time>
      </trkpt>
      <trkpt lat="43.489588005468249" lon="-0.794489001855254">
        <ele>56.859999999999999</ele>
        <time>2025-04-26T15:12:05Z</time>
      </trkpt>
      <trkpt lat="43.489506030455232" lon="-0.7961340341717">
        <ele>53.969999999999999</ele>
        <time>2025-04-26T15:12:15Z</time>
      </trkpt>
      <trkpt lat="43.489405028522015" lon="-0.797948967665434">
        <ele>55.409999999999997</ele>
        <time>2025-04-26T15:12:26Z</time>
      </trkpt>
      <trkpt lat="43.489263039082289" lon="-0.80015198327601">
        <ele>58.780000000000001</ele>
        <time>2025-04-26T15:12:39Z</time>
      </trkpt>
      <trkpt lat="43.489223979413509" lon="-0.800973996520042">
        <ele>59.740000000000002</ele>
        <time>2025-04-26T15:12:44Z</time>
      </trkpt>
      <trkpt lat="43.489217022433877" lon="-0.801135012879968">
        <ele>60.219999999999999</ele>
        <time>2025-04-26T15:12:45Z</time>
      </trkpt>
      <trkpt lat="43.489085007458925" lon="-0.80303099937737">
        <ele>62.619999999999997</ele>
        <time>2025-04-26T15:12:56Z</time>
      </trkpt>
      <trkpt lat="43.488974031060934" lon="-0.80378302372992">
        <ele>62.140000000000001</ele>
        <time>2025-04-26T15:13:00Z</time>
      </trkpt>
      <trkpt lat="43.488910999149084" lon="-0.803974969312549">
        <ele>62.140000000000001</ele>
        <time>2025-04-26T15:13:01Z</time>
      </trkpt>
      <trkpt lat="43.488834975287318" lon="-0.804171022027731">
        <ele>61.659999999999997</ele>
        <time>2025-04-26T15:13:02Z</time>
      </trkpt>
      <trkpt lat="43.488759035244584" lon="-0.804369002580643">
        <ele>61.659999999999997</ele>
        <time>2025-04-26T15:13:03Z</time>
      </trkpt>
      <trkpt lat="43.488668007776141" lon="-0.804554997012019">
        <ele>61.18</ele>
        <time>2025-04-26T15:13:04Z</time>
      </trkpt>
      <trkpt lat="43.487508036196232" lon="-0.806748038157821">
        <ele>58.780000000000001</ele>
        <time>2025-04-26T15:13:15Z</time>
      </trkpt>
      <trkpt lat="43.486563982442021" lon="-0.808550985530019">
        <ele>58.299999999999997</ele>
        <time>2025-04-26T15:13:23Z</time>
      </trkpt>
      <trkpt lat="43.485867027193308" lon="-0.809976998716593">
        <ele>58.780000000000001</ele>
        <time>2025-04-26T15:13:29Z</time>
      </trkpt>
      <trkpt lat="43.485768036916852" lon="-0.810228958725929">
        <ele>59.259999999999998</ele>
        <time>2025-04-26T15:13:30Z</time>
      </trkpt>
      <trkpt lat="43.485715985298157" lon="-0.81050799228251">
        <ele>59.740000000000002</ele>
        <time>2025-04-26T15:13:31Z</time>
      </trkpt>
      <trkpt lat="43.485669968649745" lon="-0.810798006132245">
        <ele>60.700000000000003</ele>
        <time>2025-04-26T15:13:32Z</time>
      </trkpt>
      <trkpt lat="43.485652031376958" lon="-0.811099000275135">
        <ele>62.140000000000001</ele>
        <time>2025-04-26T15:13:33Z</time>
      </trkpt>
      <trkpt lat="43.485662005841732" lon="-0.811406029388309">
        <ele>63.100000000000001</ele>
        <time>2025-04-26T15:13:34Z</time>
      </trkpt>
      <trkpt lat="43.48570098169148" lon="-0.811708029359579">
        <ele>64.549999999999997</ele>
        <time>2025-04-26T15:13:35Z</time>
      </trkpt>
      <trkpt lat="43.485772982239723" lon="-0.812005000188947">
        <ele>65.989999999999995</ele>
        <time>2025-04-26T15:13:36Z</time>
      </trkpt>
      <trkpt lat="43.485857974737883" lon="-0.812286967411637">
        <ele>67.909999999999997</ele>
        <time>2025-04-26T15:13:37Z</time>
      </trkpt>
      <trkpt lat="43.485978003591299" lon="-0.812545968219638">
        <ele>69.349999999999994</ele>
        <time>2025-04-26T15:13:38Z</time>
      </trkpt>
      <trkpt lat="43.486120998859406" lon="-0.81278502009809">
        <ele>70.790000000000006</ele>
        <time>2025-04-26T15:13:39Z</time>
      </trkpt>
      <trkpt lat="43.486273968592286" lon="-0.81300001591444">
        <ele>71.760000000000005</ele>
        <time>2025-04-26T15:13:40Z</time>
      </trkpt>
      <trkpt lat="43.486450994387269" lon="-0.813191961497068">
        <ele>73.200000000000003</ele>
        <time>2025-04-26T15:13:41Z</time>
      </trkpt>
      <trkpt lat="43.486630031839013" lon="-0.81338600255549">
        <ele>74.640000000000001</ele>
        <time>2025-04-26T15:13:42Z</time>
      </trkpt>
      <trkpt lat="43.487316006794572" lon="-0.814144983887672">
        <ele>77.519999999999996</ele>
        <time>2025-04-26T15:13:46Z</time>
      </trkpt>
      <trkpt lat="43.487472999840975" lon="-0.814325027167797">
        <ele>77.519999999999996</ele>
        <time>2025-04-26T15:13:47Z</time>
      </trkpt>
      <trkpt lat="43.490043981000781" lon="-0.817103963345289">
        <ele>74.159999999999997</ele>
        <time>2025-04-26T15:14:03Z</time>
      </trkpt>
      <trkpt lat="43.492113975808024" lon="-0.81936095841229">
        <ele>71.760000000000005</ele>
        <time>2025-04-26T15:14:16Z</time>
      </trkpt>
      <trkpt lat="43.493779040873051" lon="-0.821172036230564">
        <ele>67.430000000000007</ele>
        <time>2025-04-26T15:14:26Z</time>
      </trkpt>
      <trkpt lat="43.496024971827865" lon="-0.82361401990056">
        <ele>58.780000000000001</ele>
        <time>2025-04-26T15:14:39Z</time>
      </trkpt>
      <trkpt lat="43.497633039951324" lon="-0.825361981987953">
        <ele>53.969999999999999</ele>
        <time>2025-04-26T15:14:49Z</time>
      </trkpt>
      <trkpt lat="43.498758981004357" lon="-0.826593032106757">
        <ele>53.969999999999999</ele>
        <time>2025-04-26T15:14:56Z</time>
      </trkpt>
      <trkpt lat="43.500161021947861" lon="-0.828122980892658">
        <ele>54.450000000000003</ele>
        <time>2025-04-26T15:15:05Z</time>
      </trkpt>
      <trkpt lat="43.502014009281993" lon="-0.830137990415096">
        <ele>53.490000000000002</ele>
        <time>2025-04-26T15:15:17Z</time>
      </trkpt>
      <trkpt lat="43.503702040761709" lon="-0.831978991627693">
        <ele>46.759999999999998</ele>
        <time>2025-04-26T15:15:28Z</time>
      </trkpt>
      <trkpt lat="43.505819980055094" lon="-0.834288038313389">
        <ele>50.130000000000003</ele>
        <time>2025-04-26T15:15:41Z</time>
      </trkpt>
      <trkpt lat="43.508085021749139" lon="-0.836759023368359">
        <ele>49.649999999999999</ele>
        <time>2025-04-26T15:15:55Z</time>
      </trkpt>
      <trkpt lat="43.509411960840225" lon="-0.838213032111526">
        <ele>50.609999999999999</ele>
        <time>2025-04-26T15:16:04Z</time>
      </trkpt>
      <trkpt lat="43.510327013209462" lon="-0.839268984273076">
        <ele>49.159999999999997</ele>
        <time>2025-04-26T15:16:11Z</time>
      </trkpt>
      <trkpt lat="43.510455004870892" lon="-0.839455984532833">
        <ele>49.159999999999997</ele>
        <time>2025-04-26T15:16:12Z</time>
      </trkpt>
      <trkpt lat="43.510562041774392" lon="-0.839680032804608">
        <ele>49.649999999999999</ele>
        <time>2025-04-26T15:16:13Z</time>
      </trkpt>
      <trkpt lat="43.5109259840101" lon="-0.840625008568168">
        <ele>50.609999999999999</ele>
        <time>2025-04-26T15:16:17Z</time>
      </trkpt>
      <trkpt lat="43.510992033407092" lon="-0.840883003547788">
        <ele>51.090000000000003</ele>
        <time>2025-04-26T15:16:18Z</time>
      </trkpt>
      <trkpt lat="43.511033020913601" lon="-0.842804973945022">
        <ele>52.049999999999997</ele>
        <time>2025-04-26T15:16:25Z</time>
      </trkpt>
      <trkpt lat="43.510825987905264" lon="-0.845624981448054">
        <ele>52.049999999999997</ele>
        <time>2025-04-26T15:16:35Z</time>
      </trkpt>
      <trkpt lat="43.510504961013794" lon="-0.848862994462252">
        <ele>50.609999999999999</ele>
        <time>2025-04-26T15:16:47Z</time>
      </trkpt>
      <trkpt lat="43.510347967967391" lon="-0.850713970139623">
        <ele>51.57</ele>
        <time>2025-04-26T15:16:54Z</time>
      </trkpt>
      <trkpt lat="43.510168008506298" lon="-0.852377023547888">
        <ele>52.530000000000001</ele>
        <time>2025-04-26T15:17:01Z</time>
      </trkpt>
      <trkpt lat="43.510098019614816" lon="-0.852596964687109">
        <ele>53.009999999999998</ele>
        <time>2025-04-26T15:17:02Z</time>
      </trkpt>
      <trkpt lat="43.510016966611147" lon="-0.852825036272407">
        <ele>53.009999999999998</ele>
        <time>2025-04-26T15:17:03Z</time>
      </trkpt>
      <trkpt lat="43.50993599742651" lon="-0.853052018210292">
        <ele>53.490000000000002</ele>
        <time>2025-04-26T15:17:04Z</time>
      </trkpt>
      <trkpt lat="43.509820997714996" lon="-0.8532639965415">
        <ele>53.969999999999999</ele>
        <time>2025-04-26T15:17:05Z</time>
      </trkpt>
      <trkpt lat="43.508521970361471" lon="-0.855636997148395">
        <ele>58.299999999999997</ele>
        <time>2025-04-26T15:17:16Z</time>
      </trkpt>
      <trkpt lat="43.508313009515405" lon="-0.855994988232851">
        <ele>59.259999999999998</ele>
        <time>2025-04-26T15:17:18Z</time>
      </trkpt>
      <trkpt lat="43.508211001753807" lon="-0.856166984885931">
        <ele>59.740000000000002</ele>
        <time>2025-04-26T15:17:19Z</time>
      </trkpt>
      <trkpt lat="43.508107988163829" lon="-0.856338981539011">
        <ele>59.259999999999998</ele>
        <time>2025-04-26T15:17:20Z</time>
      </trkpt>
      <trkpt lat="43.50735797546804" lon="-0.857686037197709">
        <ele>57.82</ele>
        <time>2025-04-26T15:17:28Z</time>
      </trkpt>
      <trkpt lat="43.507270971313119" lon="-0.857847975566983">
        <ele>57.340000000000003</ele>
        <time>2025-04-26T15:17:29Z</time>
      </trkpt>
      <trkpt lat="43.507209029048681" lon="-0.858030030503869">
        <ele>57.340000000000003</ele>
        <time>2025-04-26T15:17:30Z</time>
      </trkpt>
      <trkpt lat="43.50714398548007" lon="-0.858218958601356">
        <ele>56.859999999999999</ele>
        <time>2025-04-26T15:17:31Z</time>
      </trkpt>
      <trkpt lat="43.507076008245349" lon="-0.858414005488157">
        <ele>56.859999999999999</ele>
        <time>2025-04-26T15:17:32Z</time>
      </trkpt>
      <trkpt lat="43.507038038223982" lon="-0.858627995476127">
        <ele>56.369999999999997</ele>
        <time>2025-04-26T15:17:33Z</time>
      </trkpt>
      <trkpt lat="43.507009036839008" lon="-0.858842991292477">
        <ele>56.369999999999997</ele>
        <time>2025-04-26T15:17:34Z</time>
      </trkpt>
      <trkpt lat="43.506980035454035" lon="-0.859053963795304">
        <ele>55.890000000000001</ele>
        <time>2025-04-26T15:17:35Z</time>
      </trkpt>
      <trkpt lat="43.506952039897442" lon="-0.8592579793185">
        <ele>55.890000000000001</ele>
        <time>2025-04-26T15:17:36Z</time>
      </trkpt>
      <trkpt lat="43.506931001320481" lon="-0.859452020376921">
        <ele>55.409999999999997</ele>
        <time>2025-04-26T15:17:37Z</time>
      </trkpt>
      <trkpt lat="43.506891019642353" lon="-0.860715005546808">
        <ele>53.969999999999999</ele>
        <time>2025-04-26T15:17:45Z</time>
      </trkpt>
      <trkpt lat="43.506797980517149" lon="-0.862132972106338">
        <ele>53.490000000000002</ele>
        <time>2025-04-26T15:17:51Z</time>
      </trkpt>
      <trkpt lat="43.506685998290777" lon="-0.864274967461824">
        <ele>50.609999999999999</ele>
        <time>2025-04-26T15:17:59Z</time>
      </trkpt>
      <trkpt lat="43.506578961387277" lon="-0.866168020293117">
        <ele>51.57</ele>
        <time>2025-04-26T15:18:06Z</time>
      </trkpt>
      <trkpt lat="43.506511989980936" lon="-0.868318984284997">
        <ele>51.57</ele>
        <time>2025-04-26T15:18:14Z</time>
      </trkpt>
      <trkpt lat="43.506549960002303" lon="-0.868573961779475">
        <ele>51.57</ele>
        <time>2025-04-26T15:18:15Z</time>
      </trkpt>
      <trkpt lat="43.506589019671082" lon="-0.868843020871282">
        <ele>51.57</ele>
        <time>2025-04-26T15:18:16Z</time>
      </trkpt>
      <trkpt lat="43.506660014390945" lon="-0.86907796561718">
        <ele>51.57</ele>
        <time>2025-04-26T15:18:17Z</time>
      </trkpt>
      <trkpt lat="43.506741989403963" lon="-0.869324980303645">
        <ele>51.57</ele>
        <time>2025-04-26T15:18:18Z</time>
      </trkpt>
      <trkpt lat="43.506846008822322" lon="-0.869563026353717">
        <ele>51.57</ele>
        <time>2025-04-26T15:18:19Z</time>
      </trkpt>
      <trkpt lat="43.506952039897442" lon="-0.869801994413137">
        <ele>51.57</ele>
        <time>2025-04-26T15:18:20Z</time>
      </trkpt>
      <trkpt lat="43.508428009226918" lon="-0.873073032125831">
        <ele>49.649999999999999</ele>
        <time>2025-04-26T15:18:34Z</time>
      </trkpt>
      <trkpt lat="43.509407015517354" lon="-0.875246040523052">
        <ele>53.969999999999999</ele>
        <time>2025-04-26T15:18:43Z</time>
      </trkpt>
      <trkpt lat="43.510748036205769" lon="-0.878194039687514">
        <ele>53.969999999999999</ele>
        <time>2025-04-26T15:18:55Z</time>
      </trkpt>
      <trkpt lat="43.511929968371987" lon="-0.880558993667364">
        <ele>52.530000000000001</ele>
        <time>2025-04-26T15:19:05Z</time>
      </trkpt>
      <trkpt lat="43.512089978903532" lon="-0.880754040554166">
        <ele>52.049999999999997</ele>
        <time>2025-04-26T15:19:06Z</time>
      </trkpt>
      <trkpt lat="43.512262981384993" lon="-0.880940034985542">
        <ele>51.57</ele>
        <time>2025-04-26T15:19:07Z</time>
      </trkpt>
      <trkpt lat="43.512452999129891" lon="-0.881083030253649">
        <ele>51.090000000000003</ele>
        <time>2025-04-26T15:19:08Z</time>
      </trkpt>
      <trkpt lat="43.512647962197661" lon="-0.881227031350136">
        <ele>50.609999999999999</ele>
        <time>2025-04-26T15:19:09Z</time>
      </trkpt>
      <trkpt lat="43.512853989377618" lon="-0.881330966949463">
        <ele>49.649999999999999</ele>
        <time>2025-04-26T15:19:10Z</time>
      </trkpt>
      <trkpt lat="43.514689039438963" lon="-0.882050972431898">
        <ele>44.840000000000003</ele>
        <time>2025-04-26T15:19:19Z</time>
      </trkpt>
      <trkpt lat="43.51698299869895" lon="-0.882318019866943">
        <ele>46.759999999999998</ele>
        <time>2025-04-26T15:19:30Z</time>
      </trkpt>
      <trkpt lat="43.517382983118296" lon="-0.882435031235218">
        <ele>46.759999999999998</ele>
        <time>2025-04-26T15:19:32Z</time>
      </trkpt>
      <trkpt lat="43.517566965892911" lon="-0.882565034553409">
        <ele>46.759999999999998</ele>
        <time>2025-04-26T15:19:33Z</time>
      </trkpt>
      <trkpt lat="43.519162964075804" lon="-0.883895996958017">
        <ele>46.280000000000001</ele>
        <time>2025-04-26T15:19:42Z</time>
      </trkpt>
      <trkpt lat="43.520427038893104" lon="-0.885606994852424">
        <ele>45.799999999999997</ele>
        <time>2025-04-26T15:19:51Z</time>
      </trkpt>
      <trkpt lat="43.520757034420967" lon="-0.886216023936868">
        <ele>45.799999999999997</ele>
        <time>2025-04-26T15:19:54Z</time>
      </trkpt>
      <trkpt lat="43.520844960585237" lon="-0.886426996439695">
        <ele>45.799999999999997</ele>
        <time>2025-04-26T15:19:55Z</time>
      </trkpt>
      <trkpt lat="43.520908998325467" lon="-0.886661019176245">
        <ele>45.32</ele>
        <time>2025-04-26T15:19:56Z</time>
      </trkpt>
      <trkpt lat="43.521186020225286" lon="-0.888087032362819">
        <ele>43.880000000000003</ele>
        <time>2025-04-26T15:20:02Z</time>
      </trkpt>
      <trkpt lat="43.521376959979534" lon="-0.889182966202497">
        <ele>43.880000000000003</ele>
        <time>2025-04-26T15:20:08Z</time>
      </trkpt>
      <trkpt lat="43.521621040999889" lon="-0.890648039057851">
        <ele>46.759999999999998</ele>
        <time>2025-04-26T15:20:17Z</time>
      </trkpt>
      <trkpt lat="43.521980959922075" lon="-0.892791040241718">
        <ele>47.240000000000002</ele>
        <time>2025-04-26T15:20:30Z</time>
      </trkpt>
      <trkpt lat="43.522296035662293" lon="-0.894576972350478">
        <ele>46.759999999999998</ele>
        <time>2025-04-26T15:20:41Z</time>
      </trkpt>
      <trkpt lat="43.522688979282975" lon="-0.896818041801453">
        <ele>46.759999999999998</ele>
        <time>2025-04-26T15:20:55Z</time>
      </trkpt>
      <trkpt lat="43.522717980667949" lon="-0.896972017362714">
        <ele>46.759999999999998</ele>
        <time>2025-04-26T15:20:56Z</time>
      </trkpt>
      <trkpt lat="43.522746982052922" lon="-0.897128004580736">
        <ele>47.240000000000002</ele>
        <time>2025-04-26T15:20:57Z</time>
      </trkpt>
      <trkpt lat="43.523079995065928" lon="-0.899116024374962">
        <ele>47.719999999999999</ele>
        <time>2025-04-26T15:21:09Z</time>
      </trkpt>
      <trkpt lat="43.52338601835072" lon="-0.90089600533247">
        <ele>47.719999999999999</ele>
        <time>2025-04-26T15:21:20Z</time>
      </trkpt>
      <trkpt lat="43.523740991950035" lon="-0.902999024838209">
        <ele>48.68</ele>
        <time>2025-04-26T15:21:33Z</time>
      </trkpt>
      <trkpt lat="43.524008961394429" lon="-0.904498966410756">
        <ele>48.68</ele>
        <time>2025-04-26T15:21:41Z</time>
      </trkpt>
      <trkpt lat="43.524454962462187" lon="-0.907048992812634">
        <ele>47.240000000000002</ele>
        <time>2025-04-26T15:21:52Z</time>
      </trkpt>
      <trkpt lat="43.524741036817431" lon="-0.908749010413885">
        <ele>46.759999999999998</ele>
        <time>2025-04-26T15:22:00Z</time>
      </trkpt>
      <trkpt lat="43.525015041232109" lon="-0.910362023860216">
        <ele>47.240000000000002</ele>
        <time>2025-04-26T15:22:10Z</time>
      </trkpt>
      <trkpt lat="43.525388035923243" lon="-0.912468982860446">
        <ele>45.799999999999997</ele>
        <time>2025-04-26T15:22:23Z</time>
      </trkpt>
      <trkpt lat="43.525644019246101" lon="-0.914075039327145">
        <ele>46.759999999999998</ele>
        <time>2025-04-26T15:22:33Z</time>
      </trkpt>
      <trkpt lat="43.525809980928898" lon="-0.914555992931128">
        <ele>47.719999999999999</ele>
        <time>2025-04-26T15:22:36Z</time>
      </trkpt>
      <trkpt lat="43.526670970022678" lon="-0.916374027729034">
        <ele>47.240000000000002</ele>
        <time>2025-04-26T15:22:49Z</time>
      </trkpt>
      <trkpt lat="43.527393992990255" lon="-0.917915040627122">
        <ele>45.32</ele>
        <time>2025-04-26T15:23:00Z</time>
      </trkpt>
      <trkpt lat="43.528268979862332" lon="-0.919261006638408">
        <ele>43.399999999999999</ele>
        <time>2025-04-26T15:23:11Z</time>
      </trkpt>
      <trkpt lat="43.528543990105391" lon="-0.919568035751581">
        <ele>42.920000000000002</ele>
        <time>2025-04-26T15:23:14Z</time>
      </trkpt>
      <trkpt lat="43.528645997866988" lon="-0.919653028249741">
        <ele>42.920000000000002</ele>
        <time>2025-04-26T15:23:15Z</time>
      </trkpt>
      <trkpt lat="43.529711002483964" lon="-0.920504964888096">
        <ele>42.439999999999998</ele>
        <time>2025-04-26T15:23:24Z</time>
      </trkpt>
      <trkpt lat="43.529967991635203" lon="-0.92079103924334">
        <ele>40.509999999999998</ele>
        <time>2025-04-26T15:23:26Z</time>
      </trkpt>
      <trkpt lat="43.530086008831859" lon="-0.920961024239659">
        <ele>39.549999999999997</ele>
        <time>2025-04-26T15:23:27Z</time>
      </trkpt>
      <trkpt lat="43.531044982373714" lon="-0.92261997051537">
        <ele>37.149999999999999</ele>
        <time>2025-04-26T15:23:36Z</time>
      </trkpt>
      <trkpt lat="43.532224986702204" lon="-0.92414204031229">
        <ele>35.229999999999997</ele>
        <time>2025-04-26T15:23:45Z</time>
      </trkpt>
      <trkpt lat="43.533326033502817" lon="-0.925464034080505">
        <ele>34.259999999999998</ele>
        <time>2025-04-26T15:23:53Z</time>
      </trkpt>
      <trkpt lat="43.53483603335917" lon="-0.927330013364553">
        <ele>35.710000000000001</ele>
        <time>2025-04-26T15:24:04Z</time>
      </trkpt>
      <trkpt lat="43.53634100407362" lon="-0.929250977933407">
        <ele>30.899999999999999</ele>
        <time>2025-04-26T15:24:15Z</time>
      </trkpt>
      <trkpt lat="43.536465978249907" lon="-0.929457005113363">
        <ele>30.899999999999999</ele>
        <time>2025-04-26T15:24:16Z</time>
      </trkpt>
      <trkpt lat="43.536563040688634" lon="-0.92968599870801">
        <ele>30.899999999999999</ele>
        <time>2025-04-26T15:24:17Z</time>
      </trkpt>
      <trkpt lat="43.537397962063551" lon="-0.931654991582036">
        <ele>32.82</ele>
        <time>2025-04-26T15:24:25Z</time>
      </trkpt>
      <trkpt lat="43.5382329672575" lon="-0.93363999389112">
        <ele>34.259999999999998</ele>
        <time>2025-04-26T15:24:32Z</time>
      </trkpt>
      <trkpt lat="43.539204010739923" lon="-0.935948034748435">
        <ele>33.299999999999997</ele>
        <time>2025-04-26T15:24:41Z</time>
      </trkpt>
      <trkpt lat="43.539915969595313" lon="-0.937804961577058">
        <ele>34.259999999999998</ele>
        <time>2025-04-26T15:24:48Z</time>
      </trkpt>
      <trkpt lat="43.540503038093448" lon="-0.940381977707148">
        <ele>36.189999999999998</ele>
        <time>2025-04-26T15:24:57Z</time>
      </trkpt>
      <trkpt lat="43.541064960882068" lon="-0.942848017439246">
        <ele>33.299999999999997</ele>
        <time>2025-04-26T15:25:06Z</time>
      </trkpt>
      <trkpt lat="43.541543986648321" lon="-0.944952964782715">
        <ele>31.379999999999999</ele>
        <time>2025-04-26T15:25:14Z</time>
      </trkpt>
      <trkpt lat="43.542140023782849" lon="-0.947564011439681">
        <ele>33.780000000000001</ele>
        <time>2025-04-26T15:25:24Z</time>
      </trkpt>
      <trkpt lat="43.5426140204072" lon="-0.949730984866619">
        <ele>34.259999999999998</ele>
        <time>2025-04-26T15:25:33Z</time>
      </trkpt>
      <trkpt lat="43.54341097176075" lon="-0.953236967325211">
        <ele>38.590000000000003</ele>
        <time>2025-04-26T15:25:47Z</time>
      </trkpt>
      <trkpt lat="43.54396996088326" lon="-0.955605022609234">
        <ele>49.159999999999997</ele>
        <time>2025-04-26T15:25:56Z</time>
      </trkpt>
      <trkpt lat="43.544780993834138" lon="-0.959122991189361">
        <ele>53.969999999999999</ele>
        <time>2025-04-26T15:26:10Z</time>
      </trkpt>
      <trkpt lat="43.544968999922276" lon="-0.959898987784982">
        <ele>52.530000000000001</ele>
        <time>2025-04-26T15:26:13Z</time>
      </trkpt>
      <trkpt lat="43.545226994901896" lon="-0.960967009887099">
        <ele>49.649999999999999</ele>
        <time>2025-04-26T15:26:17Z</time>
      </trkpt>
      <trkpt lat="43.545908024534583" lon="-0.96384602598846">
        <ele>58.299999999999997</ele>
        <time>2025-04-26T15:26:28Z</time>
      </trkpt>
      <trkpt lat="43.546494003385305" lon="-0.966319022700191">
        <ele>65.030000000000001</ele>
        <time>2025-04-26T15:26:37Z</time>
      </trkpt>
      <trkpt lat="43.547071013599634" lon="-0.96872697584331">
        <ele>65.510000000000005</ele>
        <time>2025-04-26T15:26:46Z</time>
      </trkpt>
      <trkpt lat="43.547719018533826" lon="-0.971576990559697">
        <ele>61.18</ele>
        <time>2025-04-26T15:26:57Z</time>
      </trkpt>
      <trkpt lat="43.547901995480061" lon="-0.972361033782363">
        <ele>59.259999999999998</ele>
        <time>2025-04-26T15:27:00Z</time>
      </trkpt>
      <trkpt lat="43.547962009906769" lon="-0.972616011276841">
        <ele>58.299999999999997</ele>
        <time>2025-04-26T15:27:01Z</time>
      </trkpt>
      <trkpt lat="43.548397030681372" lon="-0.974458018317819">
        <ele>57.340000000000003</ele>
        <time>2025-04-26T15:27:08Z</time>
      </trkpt>
      <trkpt lat="43.549014022573829" lon="-0.977007960900664">
        <ele>63.100000000000001</ele>
        <time>2025-04-26T15:27:18Z</time>
      </trkpt>
      <trkpt lat="43.549327002838254" lon="-0.978373037651181">
        <ele>61.659999999999997</ele>
        <time>2025-04-26T15:27:25Z</time>
      </trkpt>
      <trkpt lat="43.549393974244595" lon="-0.978655004873872">
        <ele>61.18</ele>
        <time>2025-04-26T15:27:27Z</time>
      </trkpt>
      <trkpt lat="43.549423981457949" lon="-0.978786014020443">
        <ele>60.700000000000003</ele>
        <time>2025-04-26T15:27:28Z</time>
      </trkpt>
      <trkpt lat="43.549453988671303" lon="-0.978920040652156">
        <ele>60.219999999999999</ele>
        <time>2025-04-26T15:27:29Z</time>
      </trkpt>
      <trkpt lat="43.549483995884657" lon="-0.979062030091882">
        <ele>60.219999999999999</ele>
        <time>2025-04-26T15:27:30Z</time>
      </trkpt>
      <trkpt lat="43.549515008926392" lon="-0.979211982339621">
        <ele>60.219999999999999</ele>
        <time>2025-04-26T15:27:31Z</time>
      </trkpt>
      <trkpt lat="43.549630008637905" lon="-0.979694025591016">
        <ele>59.740000000000002</ele>
        <time>2025-04-26T15:27:34Z</time>
      </trkpt>
      <trkpt lat="43.550034016370773" lon="-0.981452967971563">
        <ele>55.890000000000001</ele>
        <time>2025-04-26T15:27:45Z</time>
      </trkpt>
      <trkpt lat="43.550107022747397" lon="-0.98176502622664">
        <ele>54.450000000000003</ele>
        <time>2025-04-26T15:27:47Z</time>
      </trkpt>
      <trkpt lat="43.550486974418163" lon="-0.983321964740753">
        <ele>52.530000000000001</ele>
        <time>2025-04-26T15:27:57Z</time>
      </trkpt>
      <trkpt lat="43.55088503099978" lon="-0.984894996508956">
        <ele>51.090000000000003</ele>
        <time>2025-04-26T15:28:07Z</time>
      </trkpt>
      <trkpt lat="43.551183007657528" lon="-0.986337019130588">
        <ele>47.240000000000002</ele>
        <time>2025-04-26T15:28:16Z</time>
      </trkpt>
      <trkpt lat="43.551385011523962" lon="-0.987264979630709">
        <ele>49.159999999999997</ele>
        <time>2025-04-26T15:28:22Z</time>
      </trkpt>
      <trkpt lat="43.551399009302258" lon="-0.987425995990634">
        <ele>49.649999999999999</ele>
        <time>2025-04-26T15:28:23Z</time>
      </trkpt>
      <trkpt lat="43.551409989595413" lon="-0.98758801817894">
        <ele>50.130000000000003</ele>
        <time>2025-04-26T15:28:24Z</time>
      </trkpt>
      <trkpt lat="43.551330026239157" lon="-0.98909298889339">
        <ele>50.609999999999999</ele>
        <time>2025-04-26T15:28:33Z</time>
      </trkpt>
      <trkpt lat="43.551201028749347" lon="-0.990591002628207">
        <ele>45.32</ele>
        <time>2025-04-26T15:28:42Z</time>
      </trkpt>
      <trkpt lat="43.551075970754027" lon="-0.992093961685896">
        <ele>39.549999999999997</ele>
        <time>2025-04-26T15:28:49Z</time>
      </trkpt>
      <trkpt lat="43.550962982699275" lon="-0.993456020951271">
        <ele>43.399999999999999</ele>
        <time>2025-04-26T15:28:57Z</time>
      </trkpt>
      <trkpt lat="43.55084203183651" lon="-0.995133994147182">
        <ele>49.159999999999997</ele>
        <time>2025-04-26T15:29:07Z</time>
      </trkpt>
      <trkpt lat="43.550816969946027" lon="-0.995469018816948">
        <ele>49.159999999999997</ele>
        <time>2025-04-26T15:29:09Z</time>
      </trkpt>
      <trkpt lat="43.550803977996111" lon="-0.995635986328125">
        <ele>49.649999999999999</ele>
        <time>2025-04-26T15:29:10Z</time>
      </trkpt>
      <trkpt lat="43.550655031576753" lon="-0.997558040544391">
        <ele>48.200000000000003</ele>
        <time>2025-04-26T15:29:20Z</time>
      </trkpt>
      <trkpt lat="43.550636004656553" lon="-0.997759038582444">
        <ele>47.719999999999999</ele>
        <time>2025-04-26T15:29:21Z</time>
      </trkpt>
      <trkpt lat="43.550618989393115" lon="-0.997954001650214">
        <ele>47.240000000000002</ele>
        <time>2025-04-26T15:29:22Z</time>
      </trkpt>
      <trkpt lat="43.550519999116659" lon="-0.999398035928607">
        <ele>44.359999999999999</ele>
        <time>2025-04-26T15:29:29Z</time>
      </trkpt>
      <trkpt lat="43.550319001078606" lon="-1.001916965469718">
        <ele>44.359999999999999</ele>
        <time>2025-04-26T15:29:41Z</time>
      </trkpt>
      <trkpt lat="43.550139963626862" lon="-1.004147976636887">
        <ele>44.359999999999999</ele>
        <time>2025-04-26T15:29:51Z</time>
      </trkpt>
      <trkpt lat="43.549995962530375" lon="-1.005929969251156">
        <ele>42.920000000000002</ele>
        <time>2025-04-26T15:29:59Z</time>
      </trkpt>
      <trkpt lat="43.549837963655591" lon="-1.008010022342205">
        <ele>37.149999999999999</ele>
        <time>2025-04-26T15:30:07Z</time>
      </trkpt>
      <trkpt lat="43.549814997240901" lon="-1.00830003619194">
        <ele>36.189999999999998</ele>
        <time>2025-04-26T15:30:08Z</time>
      </trkpt>
      <trkpt lat="43.549724975600839" lon="-1.009423965588212">
        <ele>33.780000000000001</ele>
        <time>2025-04-26T15:30:12Z</time>
      </trkpt>
      <trkpt lat="43.549703015014529" lon="-1.009692018851638">
        <ele>33.780000000000001</ele>
        <time>2025-04-26T15:30:13Z</time>
      </trkpt>
      <trkpt lat="43.549430016428232" lon="-1.013406040146947">
        <ele>38.109999999999999</ele>
        <time>2025-04-26T15:30:27Z</time>
      </trkpt>
      <trkpt lat="43.548980997875333" lon="-1.015746016055346">
        <ele>40.030000000000001</ele>
        <time>2025-04-26T15:30:36Z</time>
      </trkpt>
      <trkpt lat="43.548183040693402" lon="-1.018814966082573">
        <ele>40.509999999999998</ele>
        <time>2025-04-26T15:30:48Z</time>
      </trkpt>
      <trkpt lat="43.547481978312135" lon="-1.021473035216332">
        <ele>39.07</ele>
        <time>2025-04-26T15:30:58Z</time>
      </trkpt>
      <trkpt lat="43.547006975859404" lon="-1.023306995630264">
        <ele>39.07</ele>
        <time>2025-04-26T15:31:05Z</time>
      </trkpt>
      <trkpt lat="43.546387972310185" lon="-1.025625010952354">
        <ele>38.590000000000003</ele>
        <time>2025-04-26T15:31:14Z</time>
      </trkpt>
      <trkpt lat="43.54579696431756" lon="-1.027889968827367">
        <ele>36.189999999999998</ele>
        <time>2025-04-26T15:31:23Z</time>
      </trkpt>
      <trkpt lat="43.545548021793365" lon="-1.029112972319126">
        <ele>35.710000000000001</ele>
        <time>2025-04-26T15:31:28Z</time>
      </trkpt>
      <trkpt lat="43.545542992651463" lon="-1.029374990612268">
        <ele>35.710000000000001</ele>
        <time>2025-04-26T15:31:29Z</time>
      </trkpt>
      <trkpt lat="43.545553972944617" lon="-1.029637008905411">
        <ele>35.710000000000001</ele>
        <time>2025-04-26T15:31:30Z</time>
      </trkpt>
      <trkpt lat="43.545684982091188" lon="-1.031727958470583">
        <ele>35.229999999999997</ele>
        <time>2025-04-26T15:31:38Z</time>
      </trkpt>
      <trkpt lat="43.545809034258127" lon="-1.033828966319561">
        <ele>30.899999999999999</ele>
        <time>2025-04-26T15:31:46Z</time>
      </trkpt>
      <trkpt lat="43.545982036739588" lon="-1.036574961617589">
        <ele>26.57</ele>
        <time>2025-04-26T15:31:56Z</time>
      </trkpt>
      <trkpt lat="43.546000979840755" lon="-1.036862041801214">
        <ele>26.57</ele>
        <time>2025-04-26T15:31:57Z</time>
      </trkpt>
      <trkpt lat="43.546124026179314" lon="-1.038864981383085">
        <ele>23.210000000000001</ele>
        <time>2025-04-26T15:32:04Z</time>
      </trkpt>
      <trkpt lat="43.546252017840743" lon="-1.040586037561297">
        <ele>18.879999999999999</ele>
        <time>2025-04-26T15:32:10Z</time>
      </trkpt>
      <trkpt lat="43.546271966770291" lon="-1.04085199534893">
        <ele>17.920000000000002</ele>
        <time>2025-04-26T15:32:11Z</time>
      </trkpt>
      <trkpt lat="43.546290993690491" lon="-1.04110898450017">
        <ele>17.440000000000001</ele>
        <time>2025-04-26T15:32:12Z</time>
      </trkpt>
      <trkpt lat="43.546640016138554" lon="-1.043698992580175">
        <ele>19.359999999999999</ele>
        <time>2025-04-26T15:32:22Z</time>
      </trkpt>
      <trkpt lat="43.547328002750874" lon="-1.047975020483136">
        <ele>17.920000000000002</ele>
        <time>2025-04-26T15:32:38Z</time>
      </trkpt>
      <trkpt lat="43.547595972195268" lon="-1.049793977290392">
        <ele>15.52</ele>
        <time>2025-04-26T15:32:45Z</time>
      </trkpt>
      <trkpt lat="43.547610975801945" lon="-1.050044009461999">
        <ele>15.52</ele>
        <time>2025-04-26T15:32:46Z</time>
      </trkpt>
      <trkpt lat="43.547617010772228" lon="-1.050294963642955">
        <ele>15.52</ele>
        <time>2025-04-26T15:32:47Z</time>
      </trkpt>
      <trkpt lat="43.547331020236015" lon="-1.052638962864876">
        <ele>14.56</ele>
        <time>2025-04-26T15:32:56Z</time>
      </trkpt>
      <trkpt lat="43.547031031921506" lon="-1.054893024265766">
        <ele>16</ele>
        <time>2025-04-26T15:33:05Z</time>
      </trkpt>
      <trkpt lat="43.547002030536532" lon="-1.05514096096158">
        <ele>16.48</ele>
        <time>2025-04-26T15:33:06Z</time>
      </trkpt>
      <trkpt lat="43.546828022226691" lon="-1.057340037077665">
        <ele>16.960000000000001</ele>
        <time>2025-04-26T15:33:15Z</time>
      </trkpt>
      <trkpt lat="43.546692989766598" lon="-1.059761987999082">
        <ele>17.920000000000002</ele>
        <time>2025-04-26T15:33:25Z</time>
      </trkpt>
      <trkpt lat="43.54663297533989" lon="-1.060933023691177">
        <ele>19.84</ele>
        <time>2025-04-26T15:33:31Z</time>
      </trkpt>
      <trkpt lat="43.546629035845399" lon="-1.061100997030735">
        <ele>20.809999999999999</ele>
        <time>2025-04-26T15:33:32Z</time>
      </trkpt>
      <trkpt lat="43.546528033912182" lon="-1.062902016565204">
        <ele>23.690000000000001</ele>
        <time>2025-04-26T15:33:43Z</time>
      </trkpt>
      <trkpt lat="43.546211030334234" lon="-1.064718961715698">
        <ele>21.289999999999999</ele>
        <time>2025-04-26T15:33:54Z</time>
      </trkpt>
      <trkpt lat="43.545968038961291" lon="-1.065798969939351">
        <ele>22.73</ele>
        <time>2025-04-26T15:34:00Z</time>
      </trkpt>
      <trkpt lat="43.545929985120893" lon="-1.065982030704618">
        <ele>23.210000000000001</ele>
        <time>2025-04-26T15:34:01Z</time>
      </trkpt>
      <trkpt lat="43.545891009271145" lon="-1.066172970458865">
        <ele>23.690000000000001</ele>
        <time>2025-04-26T15:34:02Z</time>
      </trkpt>
      <trkpt lat="43.545851027593017" lon="-1.066367011517286">
        <ele>24.649999999999999</ele>
        <time>2025-04-26T15:34:03Z</time>
      </trkpt>
      <trkpt lat="43.545810962095857" lon="-1.066560968756676">
        <ele>25.609999999999999</ele>
        <time>2025-04-26T15:34:04Z</time>
      </trkpt>
      <trkpt lat="43.545396979898214" lon="-1.068558041006327">
        <ele>38.109999999999999</ele>
        <time>2025-04-26T15:34:14Z</time>
      </trkpt>
      <trkpt lat="43.545074025169015" lon="-1.070015989243984">
        <ele>46.280000000000001</ele>
        <time>2025-04-26T15:34:23Z</time>
      </trkpt>
      <trkpt lat="43.545007975772023" lon="-1.070289993658662">
        <ele>47.240000000000002</ele>
        <time>2025-04-26T15:34:25Z</time>
      </trkpt>
      <trkpt lat="43.544948967173696" lon="-1.07041496783495">
        <ele>47.719999999999999</ele>
        <time>2025-04-26T15:34:26Z</time>
      </trkpt>
      <trkpt lat="43.544889958575368" lon="-1.070539020001888">
        <ele>47.719999999999999</ele>
        <time>2025-04-26T15:34:27Z</time>
      </trkpt>
      <trkpt lat="43.54478401131928" lon="-1.07075896114111">
        <ele>47.719999999999999</ele>
        <time>2025-04-26T15:34:28Z</time>
      </trkpt>
      <trkpt lat="43.54476498439908" lon="-1.070805983617902">
        <ele>47.719999999999999</ele>
        <time>2025-04-26T15:34:29Z</time>
      </trkpt>
      <trkpt lat="43.544647973030806" lon="-1.071100020781159">
        <ele>48.200000000000003</ele>
        <time>2025-04-26T15:34:31Z</time>
      </trkpt>
      <trkpt lat="43.544592987746" lon="-1.071466980502009">
        <ele>48.200000000000003</ele>
        <time>2025-04-26T15:34:33Z</time>
      </trkpt>
      <trkpt lat="43.544597011059523" lon="-1.07163998298347">
        <ele>47.719999999999999</ele>
        <time>2025-04-26T15:34:34Z</time>
      </trkpt>
      <trkpt lat="43.544602040201426" lon="-1.071826983243227">
        <ele>47.240000000000002</ele>
        <time>2025-04-26T15:34:35Z</time>
      </trkpt>
      <trkpt lat="43.544645039364696" lon="-1.07353001832962">
        <ele>40.509999999999998</ele>
        <time>2025-04-26T15:34:42Z</time>
      </trkpt>
      <trkpt lat="43.544711004942656" lon="-1.075572017580271">
        <ele>32.340000000000003</ele>
        <time>2025-04-26T15:34:50Z</time>
      </trkpt>
      <trkpt lat="43.544799014925957" lon="-1.077794982120395">
        <ele>28.5</ele>
        <time>2025-04-26T15:34:59Z</time>
      </trkpt>
      <trkpt lat="43.544844025745988" lon="-1.080141998827457">
        <ele>28.02</ele>
        <time>2025-04-26T15:35:09Z</time>
      </trkpt>
      <trkpt lat="43.544861963018775" lon="-1.080618007108569">
        <ele>27.530000000000001</ele>
        <time>2025-04-26T15:35:11Z</time>
      </trkpt>
      <trkpt lat="43.544878978282213" lon="-1.08156499452889">
        <ele>26.57</ele>
        <time>2025-04-26T15:35:15Z</time>
      </trkpt>
      <trkpt lat="43.544949973002076" lon="-1.083887033164501">
        <ele>25.609999999999999</ele>
        <time>2025-04-26T15:35:25Z</time>
      </trkpt>
      <trkpt lat="43.545033037662506" lon="-1.085743959993124">
        <ele>27.050000000000001</ele>
        <time>2025-04-26T15:35:33Z</time>
      </trkpt>
      <trkpt lat="43.545118030160666" lon="-1.088114026933909">
        <ele>29.460000000000001</ele>
        <time>2025-04-26T15:35:43Z</time>
      </trkpt>
      <trkpt lat="43.545181984081864" lon="-1.090170023962855">
        <ele>27.050000000000001</ele>
        <time>2025-04-26T15:35:52Z</time>
      </trkpt>
      <trkpt lat="43.545190030708909" lon="-1.09054796397686">
        <ele>27.050000000000001</ele>
        <time>2025-04-26T15:35:54Z</time>
      </trkpt>
      <trkpt lat="43.545191958546638" lon="-1.090861028060317">
        <ele>27.050000000000001</ele>
        <time>2025-04-26T15:35:56Z</time>
      </trkpt>
      <trkpt lat="43.545191958546638" lon="-1.091010980308056">
        <ele>27.530000000000001</ele>
        <time>2025-04-26T15:35:57Z</time>
      </trkpt>
      <trkpt lat="43.545191958546638" lon="-1.091165961697698">
        <ele>27.530000000000001</ele>
        <time>2025-04-26T15:35:58Z</time>
      </trkpt>
      <trkpt lat="43.545196987688541" lon="-1.091334018856287">
        <ele>28.02</ele>
        <time>2025-04-26T15:35:59Z</time>
      </trkpt>
      <trkpt lat="43.545212997123599" lon="-1.091529987752438">
        <ele>28.5</ele>
        <time>2025-04-26T15:36:00Z</time>
      </trkpt>
      <trkpt lat="43.545218026265502" lon="-1.091678012162447">
        <ele>28.5</ele>
        <time>2025-04-26T15:36:01Z</time>
      </trkpt>
      <trkpt lat="43.545222971588373" lon="-1.091846991330385">
        <ele>28.5</ele>
        <time>2025-04-26T15:36:02Z</time>
      </trkpt>
      <trkpt lat="43.545275023207068" lon="-1.093331007286906">
        <ele>28.5</ele>
        <time>2025-04-26T15:36:11Z</time>
      </trkpt>
      <trkpt lat="43.545307964086533" lon="-1.09432702884078">
        <ele>29.940000000000001</ele>
        <time>2025-04-26T15:36:17Z</time>
      </trkpt>
      <trkpt lat="43.545311987400055" lon="-1.094493996351957">
        <ele>30.420000000000002</ele>
        <time>2025-04-26T15:36:18Z</time>
      </trkpt>
      <trkpt lat="43.545368984341621" lon="-1.096489978954196">
        <ele>27.530000000000001</ele>
        <time>2025-04-26T15:36:30Z</time>
      </trkpt>
      <trkpt lat="43.545388011261821" lon="-1.097058020532131">
        <ele>26.57</ele>
        <time>2025-04-26T15:36:34Z</time>
      </trkpt>
      <trkpt lat="43.545304024592042" lon="-1.097062965855002">
        <ele>26.09</ele>
        <time>2025-04-26T15:36:35Z</time>
      </trkpt>
      <trkpt lat="43.54523504152894" lon="-1.097118034958839">
        <ele>26.09</ele>
        <time>2025-04-26T15:36:36Z</time>
      </trkpt>
      <trkpt lat="43.545161029323936" lon="-1.097176959738135">
        <ele>26.09</ele>
        <time>2025-04-26T15:36:37Z</time>
      </trkpt>
      <trkpt lat="43.54508500546217" lon="-1.097237979993224">
        <ele>26.09</ele>
        <time>2025-04-26T15:36:38Z</time>
      </trkpt>
      <trkpt lat="43.544995989650488" lon="-1.097296988591552">
        <ele>25.609999999999999</ele>
        <time>2025-04-26T15:36:39Z</time>
      </trkpt>
      <trkpt lat="43.544896999374032" lon="-1.097363037988544">
        <ele>25.129999999999999</ele>
        <time>2025-04-26T15:36:40Z</time>
      </trkpt>
      <trkpt lat="43.54478401131928" lon="-1.097431015223265">
        <ele>24.649999999999999</ele>
        <time>2025-04-26T15:36:41Z</time>
      </trkpt>
      <trkpt lat="43.544662976637483" lon="-1.097504021599889">
        <ele>24.170000000000002</ele>
        <time>2025-04-26T15:36:42Z</time>
      </trkpt>
      <trkpt lat="43.543659998103976" lon="-1.098153032362461">
        <ele>19.84</ele>
        <time>2025-04-26T15:36:51Z</time>
      </trkpt>
      <trkpt lat="43.542741006240249" lon="-1.098854010924697">
        <ele>18.399999999999999</ele>
        <time>2025-04-26T15:37:00Z</time>
      </trkpt>
      <trkpt lat="43.542667999863625" lon="-1.098996000364423">
        <ele>18.399999999999999</ele>
        <time>2025-04-26T15:37:01Z</time>
      </trkpt>
      <trkpt lat="43.542628018185496" lon="-1.099150981754065">
        <ele>17.920000000000002</ele>
        <time>2025-04-26T15:37:02Z</time>
      </trkpt>
      <trkpt lat="43.542617037892342" lon="-1.099255001172423">
        <ele>17.920000000000002</ele>
        <time>2025-04-26T15:37:03Z</time>
      </trkpt>
      <trkpt lat="43.542659031227231" lon="-1.0994409956038">
        <ele>17.920000000000002</ele>
        <time>2025-04-26T15:37:04Z</time>
      </trkpt>
      <trkpt lat="43.542692977935076" lon="-1.099589020013809">
        <ele>18.399999999999999</ele>
        <time>2025-04-26T15:37:05Z</time>
      </trkpt>
      <trkpt lat="43.542730025947094" lon="-1.09974299557507">
        <ele>18.879999999999999</ele>
        <time>2025-04-26T15:37:06Z</time>
      </trkpt>
      <trkpt lat="43.54310997761786" lon="-1.101100025698543">
        <ele>25.609999999999999</ele>
        <time>2025-04-26T15:37:15Z</time>
      </trkpt>
      <trkpt lat="43.543450031429529" lon="-1.102546993643045">
        <ele>27.050000000000001</ele>
        <time>2025-04-26T15:37:24Z</time>
      </trkpt>
      <trkpt lat="43.54373199865222" lon="-1.10380201600492">
        <ele>26.09</ele>
        <time>2025-04-26T15:37:32Z</time>
      </trkpt>
      <trkpt lat="43.543722024187446" lon="-1.104133017361164">
        <ele>24.649999999999999</ele>
        <time>2025-04-26T15:37:34Z</time>
      </trkpt>
      <trkpt lat="43.54371297173202" lon="-1.104453038424254">
        <ele>23.210000000000001</ele>
        <time>2025-04-26T15:37:36Z</time>
      </trkpt>
      <trkpt lat="43.543740967288613" lon="-1.104600979015231">
        <ele>22.73</ele>
        <time>2025-04-26T15:37:37Z</time>
      </trkpt>
      <trkpt lat="43.54377600364387" lon="-1.10470499843359">
        <ele>22.25</ele>
        <time>2025-04-26T15:37:38Z</time>
      </trkpt>
      <trkpt lat="43.543846998363733" lon="-1.104809017851949">
        <ele>22.25</ele>
        <time>2025-04-26T15:37:39Z</time>
      </trkpt>
      <trkpt lat="43.543897960335016" lon="-1.104883030056953">
        <ele>21.77</ele>
        <time>2025-04-26T15:37:40Z</time>
      </trkpt>
      <trkpt lat="43.544055037200451" lon="-1.104898033663631">
        <ele>21.77</ele>
        <time>2025-04-26T15:37:41Z</time>
      </trkpt>
      <trkpt lat="43.544055037200451" lon="-1.104898033663631">
        <ele>21.77</ele>
        <time>2025-04-26T15:37:42Z</time>
      </trkpt>
      <trkpt lat="43.544105999171734" lon="-1.104918988421559">
        <ele>21.289999999999999</ele>
        <time>2025-04-26T15:37:43Z</time>
      </trkpt>
      <trkpt lat="43.544174982234836" lon="-1.104980008676648">
        <ele>21.77</ele>
        <time>2025-04-26T15:37:44Z</time>
      </trkpt>
      <trkpt lat="43.544200966134667" lon="-1.105058966204524">
        <ele>21.289999999999999</ele>
        <time>2025-04-26T15:37:45Z</time>
      </trkpt>
      <trkpt lat="43.54422602802515" lon="-1.10513499006629">
        <ele>21.289999999999999</ele>
        <time>2025-04-26T15:37:46Z</time>
      </trkpt>
      <trkpt lat="43.544166013598442" lon="-1.105278991162777">
        <ele>20.809999999999999</ele>
        <time>2025-04-26T15:37:47Z</time>
      </trkpt>
      <trkpt lat="43.54420498944819" lon="-1.10541301779449">
        <ele>20.32</ele>
        <time>2025-04-26T15:37:49Z</time>
      </trkpt>
      <trkpt lat="43.544270033016801" lon="-1.105562970042229">
        <ele>20.32</ele>
        <time>2025-04-26T15:37:50Z</time>
      </trkpt>
      <trkpt lat="43.544360976666212" lon="-1.105767991393805">
        <ele>18.879999999999999</ele>
        <time>2025-04-26T15:37:52Z</time>
      </trkpt>
      <trkpt lat="43.54446399025619" lon="-1.106005031615496">
        <ele>18.399999999999999</ele>
        <time>2025-04-26T15:37:54Z</time>
      </trkpt>
      <trkpt lat="43.544514030218124" lon="-1.10612497664988">
        <ele>18.399999999999999</ele>
        <time>2025-04-26T15:37:55Z</time>
      </trkpt>
      <trkpt lat="43.544842014089227" lon="-1.106822015717626">
        <ele>17.440000000000001</ele>
        <time>2025-04-26T15:38:01Z</time>
      </trkpt>
      <trkpt lat="43.544896999374032" lon="-1.106923017650843">
        <ele>16.960000000000001</ele>
        <time>2025-04-26T15:38:02Z</time>
      </trkpt>
      <trkpt lat="43.544948967173696" lon="-1.107019996270537">
        <ele>16.48</ele>
        <time>2025-04-26T15:38:03Z</time>
      </trkpt>
      <trkpt lat="43.545113001018763" lon="-1.107321996241808">
        <ele>15.039999999999999</ele>
        <time>2025-04-26T15:38:06Z</time>
      </trkpt>
      <trkpt lat="43.545160023495555" lon="-1.107420986518264">
        <ele>15.039999999999999</ele>
        <time>2025-04-26T15:38:07Z</time>
      </trkpt>
      <trkpt lat="43.545200005173683" lon="-1.107543027028441">
        <ele>14.56</ele>
        <time>2025-04-26T15:38:08Z</time>
      </trkpt>
      <trkpt lat="43.545240992680192" lon="-1.10767001286149">
        <ele>14.56</ele>
        <time>2025-04-26T15:38:09Z</time>
      </trkpt>
      <trkpt lat="43.545283991843462" lon="-1.107801022008061">
        <ele>14.56</ele>
        <time>2025-04-26T15:38:10Z</time>
      </trkpt>
      <trkpt lat="43.545326991006732" lon="-1.107935970649123">
        <ele>14.08</ele>
        <time>2025-04-26T15:38:11Z</time>
      </trkpt>
      <trkpt lat="43.545747008174658" lon="-1.109223011881113">
        <ele>16.48</ele>
        <time>2025-04-26T15:38:20Z</time>
      </trkpt>
      <trkpt lat="43.546169959008694" lon="-1.110577024519444">
        <ele>20.809999999999999</ele>
        <time>2025-04-26T15:38:29Z</time>
      </trkpt>
      <trkpt lat="43.546198038384318" lon="-1.11074298620224">
        <ele>21.289999999999999</ele>
        <time>2025-04-26T15:38:30Z</time>
      </trkpt>
      <trkpt lat="43.546222010627389" lon="-1.110897967591882">
        <ele>21.289999999999999</ele>
        <time>2025-04-26T15:38:31Z</time>
      </trkpt>
      <trkpt lat="43.546222010627389" lon="-1.111067030578852">
        <ele>21.77</ele>
        <time>2025-04-26T15:38:32Z</time>
      </trkpt>
      <trkpt lat="43.546222010627389" lon="-1.111235003918409">
        <ele>21.77</ele>
        <time>2025-04-26T15:38:33Z</time>
      </trkpt>
      <trkpt lat="43.546300968155265" lon="-1.111733978614211">
        <ele>21.77</ele>
        <time>2025-04-26T15:38:36Z</time>
      </trkpt>
      <trkpt lat="43.546342961490154" lon="-1.111886026337743">
        <ele>21.77</ele>
        <time>2025-04-26T15:38:37Z</time>
      </trkpt>
      <trkpt lat="43.546411022543907" lon="-1.112012006342411">
        <ele>21.289999999999999</ele>
        <time>2025-04-26T15:38:38Z</time>
      </trkpt>
      <trkpt lat="43.546478999778628" lon="-1.112107979133725">
        <ele>21.289999999999999</ele>
        <time>2025-04-26T15:38:39Z</time>
      </trkpt>
      <trkpt lat="43.546574972569942" lon="-1.112228007987142">
        <ele>21.289999999999999</ele>
        <time>2025-04-26T15:38:40Z</time>
      </trkpt>
      <trkpt lat="43.546721991151571" lon="-1.11248399131">
        <ele>20.809999999999999</ele>
        <time>2025-04-26T15:38:42Z</time>
      </trkpt>
      <trkpt lat="43.546794997528195" lon="-1.11261198297143">
        <ele>20.809999999999999</ele>
        <time>2025-04-26T15:38:43Z</time>
      </trkpt>
      <trkpt lat="43.547318028286099" lon="-1.114076972007752">
        <ele>21.289999999999999</ele>
        <time>2025-04-26T15:38:53Z</time>
      </trkpt>
      <trkpt lat="43.547359015792608" lon="-1.114210998639464">
        <ele>21.289999999999999</ele>
        <time>2025-04-26T15:38:54Z</time>
      </trkpt>
      <trkpt lat="43.54740503244102" lon="-1.114364974200726">
        <ele>21.289999999999999</ele>
        <time>2025-04-26T15:38:56Z</time>
      </trkpt>
      <trkpt lat="43.547453982755542" lon="-1.114518027752638">
        <ele>20.809999999999999</ele>
        <time>2025-04-26T15:38:58Z</time>
      </trkpt>
      <trkpt lat="43.547486001625657" lon="-1.114612994715571">
        <ele>20.809999999999999</ele>
        <time>2025-04-26T15:38:59Z</time>
      </trkpt>
      <trkpt lat="43.54755699634552" lon="-1.11482597887516">
        <ele>20.809999999999999</ele>
        <time>2025-04-26T15:39:01Z</time>
      </trkpt>
      <trkpt lat="43.547597983852029" lon="-1.114949025213718">
        <ele>20.809999999999999</ele>
        <time>2025-04-26T15:39:02Z</time>
      </trkpt>
      <trkpt lat="43.548020012676716" lon="-1.11630798317492">
        <ele>19.359999999999999</ele>
        <time>2025-04-26T15:39:11Z</time>
      </trkpt>
      <trkpt lat="43.548066029325128" lon="-1.116452990099788">
        <ele>19.359999999999999</ele>
        <time>2025-04-26T15:39:12Z</time>
      </trkpt>
      <trkpt lat="43.548553017899394" lon="-1.117977993562818">
        <ele>16</ele>
        <time>2025-04-26T15:39:22Z</time>
      </trkpt>
      <trkpt lat="43.549134973436594" lon="-1.119798962026835">
        <ele>12.15</ele>
        <time>2025-04-26T15:39:34Z</time>
      </trkpt>
      <trkpt lat="43.549331026151776" lon="-1.120412014424801">
        <ele>12.15</ele>
        <time>2025-04-26T15:39:38Z</time>
      </trkpt>
      <trkpt lat="43.549379976466298" lon="-1.120566995814443">
        <ele>12.630000000000001</ele>
        <time>2025-04-26T15:39:39Z</time>
      </trkpt>
      <trkpt lat="43.549977019429207" lon="-1.12238796427846">
        <ele>12.15</ele>
        <time>2025-04-26T15:39:51Z</time>
      </trkpt>
      <trkpt lat="43.550492003560066" lon="-1.123973987996578">
        <ele>12.630000000000001</ele>
        <time>2025-04-26T15:40:02Z</time>
      </trkpt>
      <trkpt lat="43.550677997991443" lon="-1.124533982947469">
        <ele>13.6</ele>
        <time>2025-04-26T15:40:10Z</time>
      </trkpt>
      <trkpt lat="43.550724014639854" lon="-1.124683013185859">
        <ele>14.08</ele>
        <time>2025-04-26T15:40:19Z</time>
      </trkpt>
      <trkpt lat="43.551001036539674" lon="-1.125560011714697">
        <ele>14.08</ele>
        <time>2025-04-26T15:40:27Z</time>
      </trkpt>
      <trkpt lat="43.551588021218777" lon="-1.12741400487721">
        <ele>15.039999999999999</ele>
        <time>2025-04-26T15:40:38Z</time>
      </trkpt>
      <trkpt lat="43.55200401507318" lon="-1.128641031682491">
        <ele>15.52</ele>
        <time>2025-04-26T15:40:47Z</time>
      </trkpt>
      <trkpt lat="43.552208030596375" lon="-1.128887962549925">
        <ele>15.52</ele>
        <time>2025-04-26T15:40:53Z</time>
      </trkpt>
      <trkpt lat="43.552208030596375" lon="-1.129016960039735">
        <ele>15.52</ele>
        <time>2025-04-26T15:40:54Z</time>
      </trkpt>
      <trkpt lat="43.552163019776344" lon="-1.129201026633382">
        <ele>15.52</ele>
        <time>2025-04-26T15:40:55Z</time>
      </trkpt>
      <trkpt lat="43.552200989797711" lon="-1.129317032173276">
        <ele>15.52</ele>
        <time>2025-04-26T15:40:56Z</time>
      </trkpt>
      <trkpt lat="43.552242983132601" lon="-1.129442006349564">
        <ele>15.52</ele>
        <time>2025-04-26T15:40:57Z</time>
      </trkpt>
      <trkpt lat="43.552287993952632" lon="-1.129577960819006">
        <ele>15.039999999999999</ele>
        <time>2025-04-26T15:40:58Z</time>
      </trkpt>
      <trkpt lat="43.552708011120558" lon="-1.130884028971195">
        <ele>16.960000000000001</ele>
        <time>2025-04-26T15:41:06Z</time>
      </trkpt>
      <trkpt lat="43.553290972486138" lon="-1.132736010476947">
        <ele>18.879999999999999</ele>
        <time>2025-04-26T15:41:18Z</time>
      </trkpt>
      <trkpt lat="43.553481996059418" lon="-1.133304974064231">
        <ele>19.359999999999999</ele>
        <time>2025-04-26T15:41:22Z</time>
      </trkpt>
      <trkpt lat="43.553556008264422" lon="-1.133405975997448">
        <ele>19.359999999999999</ele>
        <time>2025-04-26T15:41:23Z</time>
      </trkpt>
      <trkpt lat="43.553631026297808" lon="-1.133507983759046">
        <ele>19.359999999999999</ele>
        <time>2025-04-26T15:41:24Z</time>
      </trkpt>
      <trkpt lat="43.553769998252392" lon="-1.133708981797099">
        <ele>19.359999999999999</ele>
        <time>2025-04-26T15:41:26Z</time>
      </trkpt>
      <trkpt lat="43.553775027394295" lon="-1.133861029520631">
        <ele>19.359999999999999</ele>
        <time>2025-04-26T15:41:27Z</time>
      </trkpt>
      <trkpt lat="43.553775027394295" lon="-1.133997989818454">
        <ele>19.359999999999999</ele>
        <time>2025-04-26T15:41:28Z</time>
      </trkpt>
      <trkpt lat="43.553775027394295" lon="-1.134145008400083">
        <ele>18.879999999999999</ele>
        <time>2025-04-26T15:41:29Z</time>
      </trkpt>
      <trkpt lat="43.553785001859069" lon="-1.134306024760008">
        <ele>18.879999999999999</ele>
        <time>2025-04-26T15:41:30Z</time>
      </trkpt>
      <trkpt lat="43.553826995193958" lon="-1.134447008371353">
        <ele>18.879999999999999</ele>
        <time>2025-04-26T15:41:31Z</time>
      </trkpt>
      <trkpt lat="43.553866976872087" lon="-1.134582962840796">
        <ele>18.879999999999999</ele>
        <time>2025-04-26T15:41:32Z</time>
      </trkpt>
      <trkpt lat="43.553910981863737" lon="-1.134721012786031">
        <ele>18.399999999999999</ele>
        <time>2025-04-26T15:41:33Z</time>
      </trkpt>
      <trkpt lat="43.554087001830339" lon="-1.135015971958637">
        <ele>16</ele>
        <time>2025-04-26T15:41:36Z</time>
      </trkpt>
      <trkpt lat="43.55415103957057" lon="-1.135104987770319">
        <ele>16</ele>
        <time>2025-04-26T15:41:37Z</time>
      </trkpt>
      <trkpt lat="43.554219016805291" lon="-1.135195009410381">
        <ele>15.52</ele>
        <time>2025-04-26T15:41:38Z</time>
      </trkpt>
      <trkpt lat="43.554263021796942" lon="-1.135316966101527">
        <ele>15.52</ele>
        <time>2025-04-26T15:41:39Z</time>
      </trkpt>
      <trkpt lat="43.554250029847026" lon="-1.135445041581988">
        <ele>15.52</ele>
        <time>2025-04-26T15:41:40Z</time>
      </trkpt>
      <trkpt lat="43.554271990433335" lon="-1.135603040456772">
        <ele>15.52</ele>
        <time>2025-04-26T15:41:41Z</time>
      </trkpt>
      <trkpt lat="43.554335022345185" lon="-1.135916020721197">
        <ele>16</ele>
        <time>2025-04-26T15:41:43Z</time>
      </trkpt>
      <trkpt lat="43.554414985701442" lon="-1.136252973228693">
        <ele>16</ele>
        <time>2025-04-26T15:41:45Z</time>
      </trkpt>
      <trkpt lat="43.554841037839651" lon="-1.137676974758506">
        <ele>16.960000000000001</ele>
        <time>2025-04-26T15:41:53Z</time>
      </trkpt>
      <trkpt lat="43.554895017296076" lon="-1.137848971411586">
        <ele>17.440000000000001</ele>
        <time>2025-04-26T15:41:54Z</time>
      </trkpt>
      <trkpt lat="43.555655004456639" lon="-1.14021903835237">
        <ele>24.170000000000002</ele>
        <time>2025-04-26T15:42:07Z</time>
      </trkpt>
      <trkpt lat="43.556346008554101" lon="-1.14243102259934">
        <ele>33.780000000000001</ele>
        <time>2025-04-26T15:42:18Z</time>
      </trkpt>
      <trkpt lat="43.557108007371426" lon="-1.144798994064331">
        <ele>35.710000000000001</ele>
        <time>2025-04-26T15:42:28Z</time>
      </trkpt>
      <trkpt lat="43.558264961466193" lon="-1.148450989276171">
        <ele>28.98</ele>
        <time>2025-04-26T15:42:43Z</time>
      </trkpt>
      <trkpt lat="43.559047998860478" lon="-1.151010990142822">
        <ele>30.420000000000002</ele>
        <time>2025-04-26T15:42:54Z</time>
      </trkpt>
      <trkpt lat="43.559788037091494" lon="-1.153364963829517">
        <ele>32.340000000000003</ele>
        <time>2025-04-26T15:43:04Z</time>
      </trkpt>
      <trkpt lat="43.560427995398641" lon="-1.155952960252762">
        <ele>31.379999999999999</ele>
        <time>2025-04-26T15:43:14Z</time>
      </trkpt>
      <trkpt lat="43.560882965102792" lon="-1.158717982470989">
        <ele>28.02</ele>
        <time>2025-04-26T15:43:25Z</time>
      </trkpt>
      <trkpt lat="43.561097038909793" lon="-1.16000896319747">
        <ele>27.530000000000001</ele>
        <time>2025-04-26T15:43:30Z</time>
      </trkpt>
      <trkpt lat="43.561515966430306" lon="-1.162593020126224">
        <ele>29.460000000000001</ele>
        <time>2025-04-26T15:43:40Z</time>
      </trkpt>
      <trkpt lat="43.562047965824604" lon="-1.165886018425226">
        <ele>30.420000000000002</ele>
        <time>2025-04-26T15:43:53Z</time>
      </trkpt>
      <trkpt lat="43.562500001862645" lon="-1.168655985966325">
        <ele>29.940000000000001</ele>
        <time>2025-04-26T15:44:04Z</time>
      </trkpt>
      <trkpt lat="43.562827985733747" lon="-1.170687004923821">
        <ele>30.420000000000002</ele>
        <time>2025-04-26T15:44:12Z</time>
      </trkpt>
      <trkpt lat="43.563291002064943" lon="-1.173430988565087">
        <ele>33.299999999999997</ele>
        <time>2025-04-26T15:44:23Z</time>
      </trkpt>
      <trkpt lat="43.563366020098329" lon="-1.173868020996451">
        <ele>33.780000000000001</ele>
        <time>2025-04-26T15:44:25Z</time>
      </trkpt>
      <trkpt lat="43.563403990119696" lon="-1.174069019034505">
        <ele>33.780000000000001</ele>
        <time>2025-04-26T15:44:26Z</time>
      </trkpt>
      <trkpt lat="43.56343399733305" lon="-1.174270017072558">
        <ele>34.259999999999998</ele>
        <time>2025-04-26T15:44:27Z</time>
      </trkpt>
      <trkpt lat="43.563488982617855" lon="-1.174641000106931">
        <ele>34.259999999999998</ele>
        <time>2025-04-26T15:44:29Z</time>
      </trkpt>
      <trkpt lat="43.563726022839546" lon="-1.176198022440076">
        <ele>32.82</ele>
        <time>2025-04-26T15:44:38Z</time>
      </trkpt>
      <trkpt lat="43.563944958150387" lon="-1.177551029250026">
        <ele>29.460000000000001</ele>
        <time>2025-04-26T15:44:47Z</time>
      </trkpt>
      <trkpt lat="43.564243018627167" lon="-1.179351964965463">
        <ele>29.940000000000001</ele>
        <time>2025-04-26T15:44:58Z</time>
      </trkpt>
      <trkpt lat="43.564619030803442" lon="-1.181090036407113">
        <ele>34.259999999999998</ele>
        <time>2025-04-26T15:45:09Z</time>
      </trkpt>
      <trkpt lat="43.565061008557677" lon="-1.182654015719891">
        <ele>35.229999999999997</ele>
        <time>2025-04-26T15:45:19Z</time>
      </trkpt>
      <trkpt lat="43.565086992457509" lon="-1.182812014594674">
        <ele>35.710000000000001</ele>
        <time>2025-04-26T15:45:20Z</time>
      </trkpt>
      <trkpt lat="43.565118005499244" lon="-1.183487009257078">
        <ele>35.710000000000001</ele>
        <time>2025-04-26T15:45:24Z</time>
      </trkpt>
      <trkpt lat="43.565097972750664" lon="-1.183653976768255">
        <ele>35.710000000000001</ele>
        <time>2025-04-26T15:45:25Z</time>
      </trkpt>
      <trkpt lat="43.565072994679213" lon="-1.1838139872998">
        <ele>35.710000000000001</ele>
        <time>2025-04-26T15:45:26Z</time>
      </trkpt>
      <trkpt lat="43.565029995515943" lon="-1.183977015316486">
        <ele>35.710000000000001</ele>
        <time>2025-04-26T15:45:27Z</time>
      </trkpt>
      <trkpt lat="43.564980961382389" lon="-1.184142976999283">
        <ele>35.710000000000001</ele>
        <time>2025-04-26T15:45:28Z</time>
      </trkpt>
      <trkpt lat="43.564914995804429" lon="-1.184326037764549">
        <ele>35.710000000000001</ele>
        <time>2025-04-26T15:45:29Z</time>
      </trkpt>
      <trkpt lat="43.564845006912947" lon="-1.184521000832319">
        <ele>35.710000000000001</ele>
        <time>2025-04-26T15:45:30Z</time>
      </trkpt>
      <trkpt lat="43.564070016145706" lon="-1.186569035053253">
        <ele>34.740000000000002</ele>
        <time>2025-04-26T15:45:39Z</time>
      </trkpt>
      <trkpt lat="43.562923958525062" lon="-1.189547963440418">
        <ele>35.229999999999997</ele>
        <time>2025-04-26T15:45:51Z</time>
      </trkpt>
      <trkpt lat="43.561993986368179" lon="-1.191950971260667">
        <ele>34.259999999999998</ele>
        <time>2025-04-26T15:46:01Z</time>
      </trkpt>
      <trkpt lat="43.560823034495115" lon="-1.195021010935307">
        <ele>33.299999999999997</ele>
        <time>2025-04-26T15:46:14Z</time>
      </trkpt>
      <trkpt lat="43.559803040698171" lon="-1.197644965723157">
        <ele>30.420000000000002</ele>
        <time>2025-04-26T15:46:25Z</time>
      </trkpt>
      <trkpt lat="43.558798972517252" lon="-1.200423985719681">
        <ele>27.050000000000001</ele>
        <time>2025-04-26T15:46:37Z</time>
      </trkpt>
      <trkpt lat="43.558734012767673" lon="-1.200676029548049">
        <ele>26.57</ele>
        <time>2025-04-26T15:46:38Z</time>
      </trkpt>
      <trkpt lat="43.558712974190712" lon="-1.200939975678921">
        <ele>26.57</ele>
        <time>2025-04-26T15:46:39Z</time>
      </trkpt>
      <trkpt lat="43.558695036917925" lon="-1.201205011457205">
        <ele>26.09</ele>
        <time>2025-04-26T15:46:40Z</time>
      </trkpt>
      <trkpt lat="43.558709034696221" lon="-1.201462000608444">
        <ele>25.609999999999999</ele>
        <time>2025-04-26T15:46:41Z</time>
      </trkpt>
      <trkpt lat="43.558739963918924" lon="-1.201727036386728">
        <ele>25.129999999999999</ele>
        <time>2025-04-26T15:46:42Z</time>
      </trkpt>
      <trkpt lat="43.558775000274181" lon="-1.202015960589051">
        <ele>24.649999999999999</ele>
        <time>2025-04-26T15:46:43Z</time>
      </trkpt>
      <trkpt lat="43.558847000822425" lon="-1.202233973890543">
        <ele>24.170000000000002</ele>
        <time>2025-04-26T15:46:44Z</time>
      </trkpt>
      <trkpt lat="43.558927970007062" lon="-1.202475959435105">
        <ele>23.210000000000001</ele>
        <time>2025-04-26T15:46:45Z</time>
      </trkpt>
      <trkpt lat="43.559036012738943" lon="-1.2026990018785">
        <ele>22.73</ele>
        <time>2025-04-26T15:46:46Z</time>
      </trkpt>
      <trkpt lat="43.55915897525847" lon="-1.202906034886837">
        <ele>22.25</ele>
        <time>2025-04-26T15:46:47Z</time>
      </trkpt>
      <trkpt lat="43.559301970526576" lon="-1.203090017661452">
        <ele>21.77</ele>
        <time>2025-04-26T15:46:48Z</time>
      </trkpt>
      <trkpt lat="43.559454018250108" lon="-1.203266037628055">
        <ele>21.289999999999999</ele>
        <time>2025-04-26T15:46:49Z</time>
      </trkpt>
      <trkpt lat="43.559630960226059" lon="-1.203399980440736">
        <ele>20.809999999999999</ele>
        <time>2025-04-26T15:46:50Z</time>
      </trkpt>
      <trkpt lat="43.559808991849422" lon="-1.20353601872921">
        <ele>19.84</ele>
        <time>2025-04-26T15:46:51Z</time>
      </trkpt>
      <trkpt lat="43.560711974278092" lon="-1.204042034223676">
        <ele>15.52</ele>
        <time>2025-04-26T15:46:56Z</time>
      </trkpt>
      <trkpt lat="43.560898974537849" lon="-1.204097019508481">
        <ele>15.039999999999999</ele>
        <time>2025-04-26T15:46:57Z</time>
      </trkpt>
      <trkpt lat="43.561097038909793" lon="-1.204140018671751">
        <ele>14.56</ele>
        <time>2025-04-26T15:46:58Z</time>
      </trkpt>
      <trkpt lat="43.561294013634324" lon="-1.20413800701499">
        <ele>14.08</ele>
        <time>2025-04-26T15:46:59Z</time>
      </trkpt>
      <trkpt lat="43.561495011672378" lon="-1.204120991751552">
        <ele>13.6</ele>
        <time>2025-04-26T15:47:00Z</time>
      </trkpt>
      <trkpt lat="43.561695003882051" lon="-1.204100036993623">
        <ele>13.119999999999999</ele>
        <time>2025-04-26T15:47:01Z</time>
      </trkpt>
      <trkpt lat="43.56437997892499" lon="-1.203612964600325">
        <ele>5.42</ele>
        <time>2025-04-26T15:47:15Z</time>
      </trkpt>
      <trkpt lat="43.565817978233099" lon="-1.203348012641072">
        <ele>0.62</ele>
        <time>2025-04-26T15:47:22Z</time>
      </trkpt>
      <trkpt lat="43.567219013348222" lon="-1.2031289935112">
        <ele>-2.75</ele>
        <time>2025-04-26T15:47:29Z</time>
      </trkpt>
      <trkpt lat="43.568427013233304" lon="-1.203238964080811">
        <ele>-2.75</ele>
        <time>2025-04-26T15:47:35Z</time>
      </trkpt>
      <trkpt lat="43.568614013493061" lon="-1.203335020691156">
        <ele>-2.75</ele>
        <time>2025-04-26T15:47:36Z</time>
      </trkpt>
      <trkpt lat="43.568796990439296" lon="-1.203428981825709">
        <ele>-3.23</ele>
        <time>2025-04-26T15:47:37Z</time>
      </trkpt>
      <trkpt lat="43.568974016234279" lon="-1.203520009294152">
        <ele>-2.75</ele>
        <time>2025-04-26T15:47:38Z</time>
      </trkpt>
      <trkpt lat="43.569150036200881" lon="-1.203636014834046">
        <ele>-2.75</ele>
        <time>2025-04-26T15:47:39Z</time>
      </trkpt>
      <trkpt lat="43.570007001981139" lon="-1.204805038869381">
        <ele>-0.82</ele>
        <time>2025-04-26T15:47:45Z</time>
      </trkpt>
      <trkpt lat="43.570379996672273" lon="-1.205780021846294">
        <ele>-1.3</ele>
        <time>2025-04-26T15:47:49Z</time>
      </trkpt>
      <trkpt lat="43.570933034643531" lon="-1.207867031916976">
        <ele>-0.82</ele>
        <time>2025-04-26T15:47:57Z</time>
      </trkpt>
      <trkpt lat="43.571611968800426" lon="-1.210673963651061">
        <ele>12.15</ele>
        <time>2025-04-26T15:48:08Z</time>
      </trkpt>
      <trkpt lat="43.57226500287652" lon="-1.213406966999173">
        <ele>29.460000000000001</ele>
        <time>2025-04-26T15:48:19Z</time>
      </trkpt>
      <trkpt lat="43.572660963982344" lon="-1.215107990428805">
        <ele>39.07</ele>
        <time>2025-04-26T15:48:26Z</time>
      </trkpt>
      <trkpt lat="43.572691977024078" lon="-1.215361962094903">
        <ele>40.509999999999998</ele>
        <time>2025-04-26T15:48:27Z</time>
      </trkpt>
      <trkpt lat="43.572706980630755" lon="-1.215625992044807">
        <ele>41.469999999999999</ele>
        <time>2025-04-26T15:48:28Z</time>
      </trkpt>
      <trkpt lat="43.5727150272578" lon="-1.215889016166329">
        <ele>42.920000000000002</ele>
        <time>2025-04-26T15:48:29Z</time>
      </trkpt>
      <trkpt lat="43.572701029479504" lon="-1.216198978945613">
        <ele>44.359999999999999</ele>
        <time>2025-04-26T15:48:30Z</time>
      </trkpt>
      <trkpt lat="43.572685020044446" lon="-1.216411963105202">
        <ele>45.799999999999997</ele>
        <time>2025-04-26T15:48:31Z</time>
      </trkpt>
      <trkpt lat="43.572341026738286" lon="-1.217948030680418">
        <ele>54.93</ele>
        <time>2025-04-26T15:48:38Z</time>
      </trkpt>
      <trkpt lat="43.571638958528638" lon="-1.21986597776413">
        <ele>58.299999999999997</ele>
        <time>2025-04-26T15:48:48Z</time>
      </trkpt>
      <trkpt lat="43.570621982216835" lon="-1.221706978976727">
        <ele>56.859999999999999</ele>
        <time>2025-04-26T15:48:57Z</time>
      </trkpt>
      <trkpt lat="43.569382969290018" lon="-1.223271964117885">
        <ele>55.890000000000001</ele>
        <time>2025-04-26T15:49:06Z</time>
      </trkpt>
      <trkpt lat="43.56805301271379" lon="-1.224702000617981">
        <ele>52.530000000000001</ele>
        <time>2025-04-26T15:49:15Z</time>
      </trkpt>
      <trkpt lat="43.567539034411311" lon="-1.225368026643992">
        <ele>54.93</ele>
        <time>2025-04-26T15:49:19Z</time>
      </trkpt>
      <trkpt lat="43.567417999729514" lon="-1.225562989711762">
        <ele>55.409999999999997</ele>
        <time>2025-04-26T15:49:20Z</time>
      </trkpt>
      <trkpt lat="43.567314986139536" lon="-1.225770022720099">
        <ele>55.890000000000001</ele>
        <time>2025-04-26T15:49:21Z</time>
      </trkpt>
      <trkpt lat="43.567244997248054" lon="-1.226023994386196">
        <ele>56.369999999999997</ele>
        <time>2025-04-26T15:49:22Z</time>
      </trkpt>
      <trkpt lat="43.567178025841713" lon="-1.226271009072661">
        <ele>56.859999999999999</ele>
        <time>2025-04-26T15:49:23Z</time>
      </trkpt>
      <trkpt lat="43.567117005586624" lon="-1.226514000445604">
        <ele>57.340000000000003</ele>
        <time>2025-04-26T15:49:24Z</time>
      </trkpt>
      <trkpt lat="43.567085992544889" lon="-1.226774007081986">
        <ele>58.299999999999997</ele>
        <time>2025-04-26T15:49:25Z</time>
      </trkpt>
      <trkpt lat="43.567053973674774" lon="-1.227038037031889">
        <ele>58.780000000000001</ele>
        <time>2025-04-26T15:49:26Z</time>
      </trkpt>
      <trkpt lat="43.566676033660769" lon="-1.230546031147242">
        <ele>61.659999999999997</ele>
        <time>2025-04-26T15:49:39Z</time>
      </trkpt>
      <trkpt lat="43.566317958757281" lon="-1.23408897779882">
        <ele>56.859999999999999</ele>
        <time>2025-04-26T15:49:52Z</time>
      </trkpt>
      <trkpt lat="43.565911017358303" lon="-1.23799997381866">
        <ele>52.530000000000001</ele>
        <time>2025-04-26T15:50:06Z</time>
      </trkpt>
      <trkpt lat="43.565783025696874" lon="-1.239941976964474">
        <ele>50.609999999999999</ele>
        <time>2025-04-26T15:50:13Z</time>
      </trkpt>
      <trkpt lat="43.565642964094877" lon="-1.242223028093576">
        <ele>40.509999999999998</ele>
        <time>2025-04-26T15:50:22Z</time>
      </trkpt>
      <trkpt lat="43.565536011010408" lon="-1.24437902122736">
        <ele>30.899999999999999</ele>
        <time>2025-04-26T15:50:30Z</time>
      </trkpt>
      <trkpt lat="43.565440038219094" lon="-1.246659988537431">
        <ele>29.940000000000001</ele>
        <time>2025-04-26T15:50:39Z</time>
      </trkpt>
      <trkpt lat="43.565396033227444" lon="-1.247068019583821">
        <ele>30.899999999999999</ele>
        <time>2025-04-26T15:50:41Z</time>
      </trkpt>
      <trkpt lat="43.56508799828589" lon="-1.248810030519962">
        <ele>34.740000000000002</ele>
        <time>2025-04-26T15:50:50Z</time>
      </trkpt>
      <trkpt lat="43.564623976126313" lon="-1.251098038628697">
        <ele>35.229999999999997</ele>
        <time>2025-04-26T15:50:59Z</time>
      </trkpt>
      <trkpt lat="43.563921991735697" lon="-1.254513999447227">
        <ele>34.740000000000002</ele>
        <time>2025-04-26T15:51:11Z</time>
      </trkpt>
      <trkpt lat="43.563237022608519" lon="-1.257918979972601">
        <ele>32.340000000000003</ele>
        <time>2025-04-26T15:51:23Z</time>
      </trkpt>
      <trkpt lat="43.562803007662296" lon="-1.260058041661978">
        <ele>30.899999999999999</ele>
        <time>2025-04-26T15:51:31Z</time>
      </trkpt>
      <trkpt lat="43.562225997447968" lon="-1.262905960902572">
        <ele>30.420000000000002</ele>
        <time>2025-04-26T15:51:42Z</time>
      </trkpt>
      <trkpt lat="43.561745965853333" lon="-1.265248032286763">
        <ele>34.740000000000002</ele>
        <time>2025-04-26T15:51:51Z</time>
      </trkpt>
      <trkpt lat="43.561336006969213" lon="-1.267248960211873">
        <ele>38.590000000000003</ele>
        <time>2025-04-26T15:51:59Z</time>
      </trkpt>
      <trkpt lat="43.560842983424664" lon="-1.269635958597064">
        <ele>42.439999999999998</ele>
        <time>2025-04-26T15:52:10Z</time>
      </trkpt>
      <trkpt lat="43.560482980683446" lon="-1.27121502533555">
        <ele>42.920000000000002</ele>
        <time>2025-04-26T15:52:20Z</time>
      </trkpt>
      <trkpt lat="43.560128007084131" lon="-1.272943960502744">
        <ele>42.439999999999998</ele>
        <time>2025-04-26T15:52:31Z</time>
      </trkpt>
      <trkpt lat="43.55937397107482" lon="-1.275413017719984">
        <ele>36.189999999999998</ele>
        <time>2025-04-26T15:52:47Z</time>
      </trkpt>
      <trkpt lat="43.558824034407735" lon="-1.277033993974328">
        <ele>35.710000000000001</ele>
        <time>2025-04-26T15:52:56Z</time>
      </trkpt>
      <trkpt lat="43.558160020038486" lon="-1.278984965756536">
        <ele>38.109999999999999</ele>
        <time>2025-04-26T15:53:04Z</time>
      </trkpt>
      <trkpt lat="43.557070037350059" lon="-1.282136980444193">
        <ele>39.549999999999997</ele>
        <time>2025-04-26T15:53:16Z</time>
      </trkpt>
      <trkpt lat="43.556070998311043" lon="-1.285081962123513">
        <ele>40.030000000000001</ele>
        <time>2025-04-26T15:53:28Z</time>
      </trkpt>
      <trkpt lat="43.555344035848975" lon="-1.287213983014226">
        <ele>40.990000000000002</ele>
        <time>2025-04-26T15:53:37Z</time>
      </trkpt>
      <trkpt lat="43.55479896068573" lon="-1.288794977590442">
        <ele>45.799999999999997</ele>
        <time>2025-04-26T15:53:44Z</time>
      </trkpt>
      <trkpt lat="43.554241983219981" lon="-1.290581999346614">
        <ele>46.759999999999998</ele>
        <time>2025-04-26T15:53:52Z</time>
      </trkpt>
      <trkpt lat="43.554225973784924" lon="-1.290803030133247">
        <ele>46.759999999999998</ele>
        <time>2025-04-26T15:53:53Z</time>
      </trkpt>
      <trkpt lat="43.554209964349866" lon="-1.291030012071133">
        <ele>46.759999999999998</ele>
        <time>2025-04-26T15:53:54Z</time>
      </trkpt>
      <trkpt lat="43.554161014035344" lon="-1.293563023209572">
        <ele>44.359999999999999</ele>
        <time>2025-04-26T15:54:04Z</time>
      </trkpt>
      <trkpt lat="43.554139975458384" lon="-1.297594970092177">
        <ele>40.030000000000001</ele>
        <time>2025-04-26T15:54:18Z</time>
      </trkpt>
      <trkpt lat="43.554104017093778" lon="-1.301024006679654">
        <ele>39.07</ele>
        <time>2025-04-26T15:54:30Z</time>
      </trkpt>
      <trkpt lat="43.554096976295114" lon="-1.304332008585334">
        <ele>40.030000000000001</ele>
        <time>2025-04-26T15:54:43Z</time>
      </trkpt>
      <trkpt lat="43.554075015708804" lon="-1.306563019752502">
        <ele>40.990000000000002</ele>
        <time>2025-04-26T15:54:52Z</time>
      </trkpt>
      <trkpt lat="43.554052971303463" lon="-1.308960998430848">
        <ele>43.399999999999999</ele>
        <time>2025-04-26T15:55:02Z</time>
      </trkpt>
      <trkpt lat="43.554032016545534" lon="-1.311663994565606">
        <ele>49.649999999999999</ele>
        <time>2025-04-26T15:55:13Z</time>
      </trkpt>
      <trkpt lat="43.554010977968574" lon="-1.314045041799545">
        <ele>53.009999999999998</ele>
        <time>2025-04-26T15:55:23Z</time>
      </trkpt>
      <trkpt lat="43.554010977968574" lon="-1.316752983257175">
        <ele>54.450000000000003</ele>
        <time>2025-04-26T15:55:35Z</time>
      </trkpt>
      <trkpt lat="43.554010977968574" lon="-1.318781990557909">
        <ele>56.369999999999997</ele>
        <time>2025-04-26T15:55:44Z</time>
      </trkpt>
      <trkpt lat="43.553974013775587" lon="-1.319592017680407">
        <ele>59.740000000000002</ele>
        <time>2025-04-26T15:55:48Z</time>
      </trkpt>
      <trkpt lat="43.553930008783937" lon="-1.319756973534823">
        <ele>60.219999999999999</ele>
        <time>2025-04-26T15:55:49Z</time>
      </trkpt>
      <trkpt lat="43.553862031549215" lon="-1.319882031530142">
        <ele>61.18</ele>
        <time>2025-04-26T15:55:50Z</time>
      </trkpt>
      <trkpt lat="43.553783996030688" lon="-1.320013962686062">
        <ele>61.659999999999997</ele>
        <time>2025-04-26T15:55:51Z</time>
      </trkpt>
      <trkpt lat="43.553702021017671" lon="-1.320152012631297">
        <ele>62.140000000000001</ele>
        <time>2025-04-26T15:55:52Z</time>
      </trkpt>
      <trkpt lat="43.553613005205989" lon="-1.320271035656333">
        <ele>62.619999999999997</ele>
        <time>2025-04-26T15:55:53Z</time>
      </trkpt>
      <trkpt lat="43.553494988009334" lon="-1.320353010669351">
        <ele>62.619999999999997</ele>
        <time>2025-04-26T15:55:54Z</time>
      </trkpt>
      <trkpt lat="43.553366996347904" lon="-1.320441020652652">
        <ele>63.100000000000001</ele>
        <time>2025-04-26T15:55:55Z</time>
      </trkpt>
      <trkpt lat="43.553247973322868" lon="-1.32045996375382">
        <ele>63.579999999999998</ele>
        <time>2025-04-26T15:55:56Z</time>
      </trkpt>
      <trkpt lat="43.553105983883142" lon="-1.320447977632284">
        <ele>64.069999999999993</ele>
        <time>2025-04-26T15:55:57Z</time>
      </trkpt>
      <trkpt lat="43.552960976958275" lon="-1.320435991510749">
        <ele>64.549999999999997</ele>
        <time>2025-04-26T15:55:58Z</time>
      </trkpt>
      <trkpt lat="43.552814964205027" lon="-1.320424005389214">
        <ele>65.030000000000001</ele>
        <time>2025-04-26T15:55:59Z</time>
      </trkpt>
      <trkpt lat="43.551292978227139" lon="-1.320217978209257">
        <ele>62.619999999999997</ele>
        <time>2025-04-26T15:56:09Z</time>
      </trkpt>
      <trkpt lat="43.550613038241863" lon="-1.320185959339142">
        <ele>60.700000000000003</ele>
        <time>2025-04-26T15:56:13Z</time>
      </trkpt>
      <trkpt lat="43.550452021881938" lon="-1.320240022614598">
        <ele>59.740000000000002</ele>
        <time>2025-04-26T15:56:14Z</time>
      </trkpt>
      <trkpt lat="43.550282036885619" lon="-1.320303976535797">
        <ele>58.780000000000001</ele>
        <time>2025-04-26T15:56:15Z</time>
      </trkpt>
      <trkpt lat="43.550129989162087" lon="-1.320430040359497">
        <ele>57.82</ele>
        <time>2025-04-26T15:56:16Z</time>
      </trkpt>
      <trkpt lat="43.549970984458923" lon="-1.320560965687037">
        <ele>56.859999999999999</ele>
        <time>2025-04-26T15:56:17Z</time>
      </trkpt>
      <trkpt lat="43.549847016111016" lon="-1.32075903005898">
        <ele>55.890000000000001</ele>
        <time>2025-04-26T15:56:18Z</time>
      </trkpt>
      <trkpt lat="43.549736039713025" lon="-1.320971008390188">
        <ele>54.93</ele>
        <time>2025-04-26T15:56:19Z</time>
      </trkpt>
      <trkpt lat="43.549629002809525" lon="-1.321178963407874">
        <ele>54.450000000000003</ele>
        <time>2025-04-26T15:56:20Z</time>
      </trkpt>
      <trkpt lat="43.549549039453268" lon="-1.321406029164791">
        <ele>53.969999999999999</ele>
        <time>2025-04-26T15:56:21Z</time>
      </trkpt>
      <trkpt lat="43.549480978399515" lon="-1.321650026366115">
        <ele>53.490000000000002</ele>
        <time>2025-04-26T15:56:22Z</time>
      </trkpt>
      <trkpt lat="43.548723002895713" lon="-1.324358973652124">
        <ele>50.130000000000003</ele>
        <time>2025-04-26T15:56:33Z</time>
      </trkpt>
      <trkpt lat="43.548228973522782" lon="-1.32621699012816">
        <ele>47.719999999999999</ele>
        <time>2025-04-26T15:56:39Z</time>
      </trkpt>
      <trkpt lat="43.547633020207286" lon="-1.328302994370461">
        <ele>42.920000000000002</ele>
        <time>2025-04-26T15:56:47Z</time>
      </trkpt>
      <trkpt lat="43.547489019110799" lon="-1.328810015693307">
        <ele>40.990000000000002</ele>
        <time>2025-04-26T15:56:49Z</time>
      </trkpt>
      <trkpt lat="43.547415006905794" lon="-1.329070022329688">
        <ele>40.030000000000001</ele>
        <time>2025-04-26T15:56:50Z</time>
      </trkpt>
      <trkpt lat="43.547338983044028" lon="-1.329340003430843">
        <ele>39.07</ele>
        <time>2025-04-26T15:56:51Z</time>
      </trkpt>
      <trkpt lat="43.547263965010643" lon="-1.329605039209127">
        <ele>37.630000000000003</ele>
        <time>2025-04-26T15:56:52Z</time>
      </trkpt>
      <trkpt lat="43.54719297029078" lon="-1.329859010875225">
        <ele>36.670000000000002</ele>
        <time>2025-04-26T15:56:53Z</time>
      </trkpt>
      <trkpt lat="43.54663398116827" lon="-1.331892041489482">
        <ele>28.98</ele>
        <time>2025-04-26T15:57:01Z</time>
      </trkpt>
      <trkpt lat="43.546132994815707" lon="-1.333705969154835">
        <ele>31.379999999999999</ele>
        <time>2025-04-26T15:57:08Z</time>
      </trkpt>
      <trkpt lat="43.545896960422397" lon="-1.334699979051948">
        <ele>33.780000000000001</ele>
        <time>2025-04-26T15:57:12Z</time>
      </trkpt>
      <trkpt lat="43.54583702981472" lon="-1.334970965981484">
        <ele>34.259999999999998</ele>
        <time>2025-04-26T15:57:13Z</time>
      </trkpt>
      <trkpt lat="43.545807022601366" lon="-1.335253017023206">
        <ele>34.259999999999998</ele>
        <time>2025-04-26T15:57:14Z</time>
      </trkpt>
      <trkpt lat="43.54579595848918" lon="-1.335540013387799">
        <ele>34.259999999999998</ele>
        <time>2025-04-26T15:57:15Z</time>
      </trkpt>
      <trkpt lat="43.545820014551282" lon="-1.335828015580773">
        <ele>34.740000000000002</ele>
        <time>2025-04-26T15:57:16Z</time>
      </trkpt>
      <trkpt lat="43.545856978744268" lon="-1.336125992238522">
        <ele>34.740000000000002</ele>
        <time>2025-04-26T15:57:17Z</time>
      </trkpt>
      <trkpt lat="43.545911964029074" lon="-1.336399996653199">
        <ele>34.740000000000002</ele>
        <time>2025-04-26T15:57:18Z</time>
      </trkpt>
      <trkpt lat="43.54596896097064" lon="-1.336685987189412">
        <ele>34.740000000000002</ele>
        <time>2025-04-26T15:57:19Z</time>
      </trkpt>
      <trkpt lat="43.546351008117199" lon="-1.33857199922204">
        <ele>34.740000000000002</ele>
        <time>2025-04-26T15:57:26Z</time>
      </trkpt>
      <trkpt lat="43.546351008117199" lon="-1.339128976687789">
        <ele>35.710000000000001</ele>
        <time>2025-04-26T15:57:28Z</time>
      </trkpt>
      <trkpt lat="43.546351008117199" lon="-1.339411027729511">
        <ele>36.189999999999998</ele>
        <time>2025-04-26T15:57:29Z</time>
      </trkpt>
      <trkpt lat="43.546316977590322" lon="-1.339697018265724">
        <ele>36.670000000000002</ele>
        <time>2025-04-26T15:57:30Z</time>
      </trkpt>
      <trkpt lat="43.546276995912194" lon="-1.339970016852021">
        <ele>37.630000000000003</ele>
        <time>2025-04-26T15:57:31Z</time>
      </trkpt>
      <trkpt lat="43.546225028112531" lon="-1.340229017660022">
        <ele>38.590000000000003</ele>
        <time>2025-04-26T15:57:32Z</time>
      </trkpt>
      <trkpt lat="43.546069040894508" lon="-1.340943994000554">
        <ele>41.950000000000003</ele>
        <time>2025-04-26T15:57:35Z</time>
      </trkpt>
      <trkpt lat="43.545885980129242" lon="-1.341805988922715">
        <ele>46.759999999999998</ele>
        <time>2025-04-26T15:57:40Z</time>
      </trkpt>
      <trkpt lat="43.545566964894533" lon="-1.34323401376605">
        <ele>51.090000000000003</ele>
        <time>2025-04-26T15:57:49Z</time>
      </trkpt>
      <trkpt lat="43.54549496434629" lon="-1.34355797432363">
        <ele>51.57</ele>
        <time>2025-04-26T15:57:51Z</time>
      </trkpt>
      <trkpt lat="43.545459005981684" lon="-1.343721002340317">
        <ele>52.049999999999997</ele>
        <time>2025-04-26T15:57:52Z</time>
      </trkpt>
      <trkpt lat="43.545118030160666" lon="-1.345289004966617">
        <ele>54.450000000000003</ele>
        <time>2025-04-26T15:58:02Z</time>
      </trkpt>
      <trkpt lat="43.544739000499249" lon="-1.346904030069709">
        <ele>57.82</ele>
        <time>2025-04-26T15:58:12Z</time>
      </trkpt>
      <trkpt lat="43.544410010799766" lon="-1.348294001072645">
        <ele>55.409999999999997</ele>
        <time>2025-04-26T15:58:19Z</time>
      </trkpt>
      <trkpt lat="43.543978007510304" lon="-1.350215971469879">
        <ele>49.649999999999999</ele>
        <time>2025-04-26T15:58:26Z</time>
      </trkpt>
      <trkpt lat="43.5434740036726" lon="-1.352436002343893">
        <ele>46.280000000000001</ele>
        <time>2025-04-26T15:58:34Z</time>
      </trkpt>
      <trkpt lat="43.542974023148417" lon="-1.354619991034269">
        <ele>49.159999999999997</ele>
        <time>2025-04-26T15:58:42Z</time>
      </trkpt>
      <trkpt lat="43.54239902459085" lon="-1.357041019946337">
        <ele>45.799999999999997</ele>
        <time>2025-04-26T15:58:51Z</time>
      </trkpt>
      <trkpt lat="43.542065005749464" lon="-1.359208999201655">
        <ele>40.509999999999998</ele>
        <time>2025-04-26T15:58:59Z</time>
      </trkpt>
      <trkpt lat="43.542005997151136" lon="-1.359768994152546">
        <ele>40.509999999999998</ele>
        <time>2025-04-26T15:59:01Z</time>
      </trkpt>
      <trkpt lat="43.54197003878653" lon="-1.360054984688759">
        <ele>40.030000000000001</ele>
        <time>2025-04-26T15:59:02Z</time>
      </trkpt>
      <trkpt lat="43.541880017146468" lon="-1.360905999317765">
        <ele>39.549999999999997</ele>
        <time>2025-04-26T15:59:05Z</time>
      </trkpt>
      <trkpt lat="43.541852021589875" lon="-1.361188972368836">
        <ele>39.07</ele>
        <time>2025-04-26T15:59:06Z</time>
      </trkpt>
      <trkpt lat="43.541823020204902" lon="-1.36147303506732">
        <ele>38.590000000000003</ele>
        <time>2025-04-26T15:59:07Z</time>
      </trkpt>
      <trkpt lat="43.541766023263335" lon="-1.362024983391166">
        <ele>37.149999999999999</ele>
        <time>2025-04-26T15:59:09Z</time>
      </trkpt>
      <trkpt lat="43.541737021878362" lon="-1.362298987805843">
        <ele>36.670000000000002</ele>
        <time>2025-04-26T15:59:10Z</time>
      </trkpt>
      <trkpt lat="43.541396968066692" lon="-1.36469897814095">
        <ele>38.109999999999999</ele>
        <time>2025-04-26T15:59:19Z</time>
      </trkpt>
      <trkpt lat="43.541302001103759" lon="-1.3649330008775">
        <ele>38.109999999999999</ele>
        <time>2025-04-26T15:59:20Z</time>
      </trkpt>
      <trkpt lat="43.540904028341174" lon="-1.365833971649408">
        <ele>38.109999999999999</ele>
        <time>2025-04-26T15:59:24Z</time>
      </trkpt>
      <trkpt lat="43.539967015385628" lon="-1.3676199875772">
        <ele>37.630000000000003</ele>
        <time>2025-04-26T15:59:32Z</time>
      </trkpt>
      <trkpt lat="43.539008041843772" lon="-1.369389994069934">
        <ele>39.549999999999997</ele>
        <time>2025-04-26T15:59:40Z</time>
      </trkpt>
      <trkpt lat="43.537991987541318" lon="-1.371344989165664">
        <ele>42.920000000000002</ele>
        <time>2025-04-26T15:59:49Z</time>
      </trkpt>
      <trkpt lat="43.536905022338033" lon="-1.373279029503465">
        <ele>46.280000000000001</ele>
        <time>2025-04-26T15:59:58Z</time>
      </trkpt>
      <trkpt lat="43.535996004939079" lon="-1.375221032649279">
        <ele>48.68</ele>
        <time>2025-04-26T16:00:07Z</time>
      </trkpt>
      <trkpt lat="43.535163011401892" lon="-1.377863008528948">
        <ele>44.359999999999999</ele>
        <time>2025-04-26T16:00:18Z</time>
      </trkpt>
      <trkpt lat="43.534290036186576" lon="-1.380519988015294">
        <ele>35.229999999999997</ele>
        <time>2025-04-26T16:00:29Z</time>
      </trkpt>
      <trkpt lat="43.53389298543334" lon="-1.381727987900376">
        <ele>33.780000000000001</ele>
        <time>2025-04-26T16:00:34Z</time>
      </trkpt>
      <trkpt lat="43.533811010420322" lon="-1.381977014243603">
        <ele>33.780000000000001</ele>
        <time>2025-04-26T16:00:35Z</time>
      </trkpt>
      <trkpt lat="43.533001989126205" lon="-1.384450010955334">
        <ele>27.530000000000001</ele>
        <time>2025-04-26T16:00:45Z</time>
      </trkpt>
      <trkpt lat="43.532672999426723" lon="-1.385225001722574">
        <ele>28.02</ele>
        <time>2025-04-26T16:00:49Z</time>
      </trkpt>
      <trkpt lat="43.532592030242085" lon="-1.385361962020397">
        <ele>28.5</ele>
        <time>2025-04-26T16:00:50Z</time>
      </trkpt>
      <trkpt lat="43.532509971410036" lon="-1.385500011965632">
        <ele>28.98</ele>
        <time>2025-04-26T16:00:51Z</time>
      </trkpt>
      <trkpt lat="43.532443000003695" lon="-1.385582992807031">
        <ele>28.98</ele>
        <time>2025-04-26T16:00:52Z</time>
      </trkpt>
      <trkpt lat="43.532376028597355" lon="-1.38566697947681">
        <ele>29.460000000000001</ele>
        <time>2025-04-26T16:00:53Z</time>
      </trkpt>
      <trkpt lat="43.532312996685505" lon="-1.385744009166956">
        <ele>29.940000000000001</ele>
        <time>2025-04-26T16:00:54Z</time>
      </trkpt>
      <trkpt lat="43.532246025279164" lon="-1.385827995836735">
        <ele>30.420000000000002</ele>
        <time>2025-04-26T16:00:55Z</time>
      </trkpt>
      <trkpt lat="43.53217201307416" lon="-1.385918017476797">
        <ele>30.899999999999999</ele>
        <time>2025-04-26T16:00:56Z</time>
      </trkpt>
      <trkpt lat="43.532087020576" lon="-1.386000998318195">
        <ele>31.379999999999999</ele>
        <time>2025-04-26T16:00:57Z</time>
      </trkpt>
      <trkpt lat="43.530908022075891" lon="-1.386941028758884">
        <ele>40.030000000000001</ele>
        <time>2025-04-26T16:01:09Z</time>
      </trkpt>
      <trkpt lat="43.530738959088922" lon="-1.387067008763552">
        <ele>40.990000000000002</ele>
        <time>2025-04-26T16:01:12Z</time>
      </trkpt>
      <trkpt lat="43.530580960214138" lon="-1.387184020131826">
        <ele>42.920000000000002</ele>
        <time>2025-04-26T16:01:20Z</time>
      </trkpt>
      <trkpt lat="43.530500996857882" lon="-1.387241017073393">
        <ele>43.399999999999999</ele>
        <time>2025-04-26T16:01:51Z</time>
      </trkpt>
      <trkpt lat="43.530168989673257" lon="-1.387537987902761">
        <ele>44.359999999999999</ele>
        <time>2025-04-26T16:01:56Z</time>
      </trkpt>
      <trkpt lat="43.52987403050065" lon="-1.387912994250655">
        <ele>45.799999999999997</ele>
        <time>2025-04-26T16:02:00Z</time>
      </trkpt>
      <trkpt lat="43.529802029952407" lon="-1.388033023104072">
        <ele>46.280000000000001</ele>
        <time>2025-04-26T16:02:01Z</time>
      </trkpt>
      <trkpt lat="43.529732041060925" lon="-1.388152968138456">
        <ele>46.759999999999998</ele>
        <time>2025-04-26T16:02:02Z</time>
      </trkpt>
      <trkpt lat="43.52908001281321" lon="-1.389358034357429">
        <ele>47.240000000000002</ele>
        <time>2025-04-26T16:02:11Z</time>
      </trkpt>
      <trkpt lat="43.528522029519081" lon="-1.390447011217475">
        <ele>43.880000000000003</ele>
        <time>2025-04-26T16:02:19Z</time>
      </trkpt>
      <trkpt lat="43.527871007099748" lon="-1.391615029424429">
        <ele>40.030000000000001</ele>
        <time>2025-04-26T16:02:28Z</time>
      </trkpt>
      <trkpt lat="43.527224007993937" lon="-1.392855970188975">
        <ele>33.780000000000001</ele>
        <time>2025-04-26T16:02:37Z</time>
      </trkpt>
      <trkpt lat="43.526671975851059" lon="-1.393918041139841">
        <ele>26.57</ele>
        <time>2025-04-26T16:02:45Z</time>
      </trkpt>
      <trkpt lat="43.526600981131196" lon="-1.394051983952522">
        <ele>25.609999999999999</ele>
        <time>2025-04-26T16:02:46Z</time>
      </trkpt>
      <trkpt lat="43.526182975620031" lon="-1.394857987761498">
        <ele>19.359999999999999</ele>
        <time>2025-04-26T16:02:52Z</time>
      </trkpt>
      <trkpt lat="43.526112986728549" lon="-1.394993020221591">
        <ele>18.399999999999999</ele>
        <time>2025-04-26T16:02:53Z</time>
      </trkpt>
      <trkpt lat="43.525560032576323" lon="-1.396054001525044">
        <ele>14.56</ele>
        <time>2025-04-26T16:03:01Z</time>
      </trkpt>
      <trkpt lat="43.525015041232109" lon="-1.397079024463892">
        <ele>15.039999999999999</ele>
        <time>2025-04-26T16:03:09Z</time>
      </trkpt>
      <trkpt lat="43.524942034855485" lon="-1.397211961448193">
        <ele>15.52</ele>
        <time>2025-04-26T16:03:10Z</time>
      </trkpt>
      <trkpt lat="43.524385979399085" lon="-1.398246958851814">
        <ele>17.440000000000001</ele>
        <time>2025-04-26T16:03:17Z</time>
      </trkpt>
      <trkpt lat="43.524089008569717" lon="-1.398824974894524">
        <ele>18.399999999999999</ele>
        <time>2025-04-26T16:03:21Z</time>
      </trkpt>
      <trkpt lat="43.524008961394429" lon="-1.398977022618055">
        <ele>18.399999999999999</ele>
        <time>2025-04-26T16:03:22Z</time>
      </trkpt>
      <trkpt lat="43.523371014744043" lon="-1.400381997227669">
        <ele>25.129999999999999</ele>
        <time>2025-04-26T16:03:31Z</time>
      </trkpt>
      <trkpt lat="43.523332038894296" lon="-1.400570003315806">
        <ele>26.57</ele>
        <time>2025-04-26T16:03:32Z</time>
      </trkpt>
      <trkpt lat="43.523260038346052" lon="-1.400949032977223">
        <ele>28.5</ele>
        <time>2025-04-26T16:03:34Z</time>
      </trkpt>
      <trkpt lat="43.523248974233866" lon="-1.401506010442972">
        <ele>30.420000000000002</ele>
        <time>2025-04-26T16:03:37Z</time>
      </trkpt>
      <trkpt lat="43.523259032517672" lon="-1.401685969904065">
        <ele>31.379999999999999</ele>
        <time>2025-04-26T16:03:38Z</time>
      </trkpt>
      <trkpt lat="43.523465981706977" lon="-1.403309041634202">
        <ele>34.259999999999998</ele>
        <time>2025-04-26T16:03:47Z</time>
      </trkpt>
      <trkpt lat="43.523546028882265" lon="-1.404028041288257">
        <ele>36.670000000000002</ele>
        <time>2025-04-26T16:03:51Z</time>
      </trkpt>
      <trkpt lat="43.523831013590097" lon="-1.405998039990664">
        <ele>38.109999999999999</ele>
        <time>2025-04-26T16:04:02Z</time>
      </trkpt>
      <trkpt lat="43.524054978042841" lon="-1.40766897238791">
        <ele>32.340000000000003</ele>
        <time>2025-04-26T16:04:12Z</time>
      </trkpt>
      <trkpt lat="43.524386985227466" lon="-1.410114979371429">
        <ele>32.82</ele>
        <time>2025-04-26T16:04:27Z</time>
      </trkpt>
      <trkpt lat="43.524687979370356" lon="-1.412409022450447">
        <ele>31.379999999999999</ele>
        <time>2025-04-26T16:04:41Z</time>
      </trkpt>
      <trkpt lat="43.524963995441794" lon="-1.414704993367195">
        <ele>29.460000000000001</ele>
        <time>2025-04-26T16:04:55Z</time>
      </trkpt>
      <trkpt lat="43.524799039587379" lon="-1.41619898378849">
        <ele>30.420000000000002</ele>
        <time>2025-04-26T16:05:04Z</time>
      </trkpt>
      <trkpt lat="43.524646991863847" lon="-1.416999036446214">
        <ele>32.340000000000003</ele>
        <time>2025-04-26T16:05:11Z</time>
      </trkpt>
      <trkpt lat="43.524641040712595" lon="-1.417066007852554">
        <ele>32.82</ele>
        <time>2025-04-26T16:05:12Z</time>
      </trkpt>
      <trkpt lat="43.524635005742311" lon="-1.417129039764404">
        <ele>32.82</ele>
        <time>2025-04-26T16:05:13Z</time>
      </trkpt>
      <trkpt lat="43.524658977985382" lon="-1.417355015873909">
        <ele>33.299999999999997</ele>
        <time>2025-04-26T16:05:15Z</time>
      </trkpt>
      <trkpt lat="43.524641962721944" lon="-1.417455011978746">
        <ele>33.299999999999997</ele>
        <time>2025-04-26T16:05:16Z</time>
      </trkpt>
      <trkpt lat="43.524568034335971" lon="-1.417560959234834">
        <ele>33.299999999999997</ele>
        <time>2025-04-26T16:05:17Z</time>
      </trkpt>
      <trkpt lat="43.524507014080882" lon="-1.417621979489923">
        <ele>33.299999999999997</ele>
        <time>2025-04-26T16:05:18Z</time>
      </trkpt>
      <trkpt lat="43.524411963298917" lon="-1.417602030560374">
        <ele>32.82</ele>
        <time>2025-04-26T16:05:19Z</time>
      </trkpt>
      <trkpt lat="43.524341974407434" lon="-1.417586021125317">
        <ele>32.340000000000003</ele>
        <time>2025-04-26T16:05:20Z</time>
      </trkpt>
      <trkpt lat="43.524252958595753" lon="-1.417627008631825">
        <ele>32.340000000000003</ele>
        <time>2025-04-26T16:05:21Z</time>
      </trkpt>
      <trkpt lat="43.524186993017793" lon="-1.417678976431489">
        <ele>32.340000000000003</ele>
        <time>2025-04-26T16:05:22Z</time>
      </trkpt>
      <trkpt lat="43.524119015783072" lon="-1.417733039706945">
        <ele>32.340000000000003</ele>
        <time>2025-04-26T16:05:23Z</time>
      </trkpt>
      <trkpt lat="43.524045003578067" lon="-1.417790036648512">
        <ele>32.340000000000003</ele>
        <time>2025-04-26T16:05:24Z</time>
      </trkpt>
      <trkpt lat="43.52396696805954" lon="-1.417866982519627">
        <ele>32.340000000000003</ele>
        <time>2025-04-26T16:05:25Z</time>
      </trkpt>
      <trkpt lat="43.523075971752405" lon="-1.418743981048465">
        <ele>28.98</ele>
        <time>2025-04-26T16:05:34Z</time>
      </trkpt>
      <trkpt lat="43.522185981273651" lon="-1.419619973748922">
        <ele>24.170000000000002</ele>
        <time>2025-04-26T16:05:41Z</time>
      </trkpt>
      <trkpt lat="43.522049020975828" lon="-1.419755006209016">
        <ele>23.210000000000001</ele>
        <time>2025-04-26T16:05:42Z</time>
      </trkpt>
      <trkpt lat="43.521114019677043" lon="-1.420675003901124">
        <ele>18.879999999999999</ele>
        <time>2025-04-26T16:05:49Z</time>
      </trkpt>
      <trkpt lat="43.520216988399625" lon="-1.421560971066356">
        <ele>16</ele>
        <time>2025-04-26T16:05:56Z</time>
      </trkpt>
      <trkpt lat="43.519093981012702" lon="-1.42287902534008">
        <ele>17.920000000000002</ele>
        <time>2025-04-26T16:06:06Z</time>
      </trkpt>
      <trkpt lat="43.51853197440505" lon="-1.424316018819809">
        <ele>20.809999999999999</ele>
        <time>2025-04-26T16:06:14Z</time>
      </trkpt>
      <trkpt lat="43.518185969442129" lon="-1.425449000671506">
        <ele>24.170000000000002</ele>
        <time>2025-04-26T16:06:22Z</time>
      </trkpt>
      <trkpt lat="43.517528995871544" lon="-1.427415981888771">
        <ele>29.460000000000001</ele>
        <time>2025-04-26T16:06:35Z</time>
      </trkpt>
      <trkpt lat="43.516976041719317" lon="-1.428644014522433">
        <ele>31.859999999999999</ele>
        <time>2025-04-26T16:06:45Z</time>
      </trkpt>
      <trkpt lat="43.51653398014605" lon="-1.429645987227559">
        <ele>34.740000000000002</ele>
        <time>2025-04-26T16:06:55Z</time>
      </trkpt>
      <trkpt lat="43.515814980491996" lon="-1.43121600151062">
        <ele>32.340000000000003</ele>
        <time>2025-04-26T16:07:06Z</time>
      </trkpt>
      <trkpt lat="43.515119031071663" lon="-1.432751985266805">
        <ele>26.09</ele>
        <time>2025-04-26T16:07:16Z</time>
      </trkpt>
      <trkpt lat="43.514476977288723" lon="-1.434162994846702">
        <ele>30.899999999999999</ele>
        <time>2025-04-26T16:07:26Z</time>
      </trkpt>
      <trkpt lat="43.513926034793258" lon="-1.435401001945138">
        <ele>34.259999999999998</ele>
        <time>2025-04-26T16:07:35Z</time>
      </trkpt>
      <trkpt lat="43.513775998726487" lon="-1.435726974159479">
        <ele>34.740000000000002</ele>
        <time>2025-04-26T16:07:42Z</time>
      </trkpt>
      <trkpt lat="43.513728976249695" lon="-1.435826970264316">
        <ele>34.740000000000002</ele>
        <time>2025-04-26T16:07:52Z</time>
      </trkpt>
      <trkpt lat="43.513769041746855" lon="-1.435916991904378">
        <ele>34.740000000000002</ele>
        <time>2025-04-26T16:07:53Z</time>
      </trkpt>
      <trkpt lat="43.513805000111461" lon="-1.435953034088016">
        <ele>34.740000000000002</ele>
        <time>2025-04-26T16:07:54Z</time>
      </trkpt>
      <trkpt lat="43.513843975961208" lon="-1.435991004109383">
        <ele>34.259999999999998</ele>
        <time>2025-04-26T16:07:55Z</time>
      </trkpt>
      <trkpt lat="43.513898961246014" lon="-1.435998966917396">
        <ele>34.259999999999998</ele>
        <time>2025-04-26T16:07:56Z</time>
      </trkpt>
      <trkpt lat="43.513960987329483" lon="-1.436009025201201">
        <ele>34.259999999999998</ele>
        <time>2025-04-26T16:07:57Z</time>
      </trkpt>
      <trkpt lat="43.514028964564204" lon="-1.436018999665976">
        <ele>34.259999999999998</ele>
        <time>2025-04-26T16:07:58Z</time>
      </trkpt>
      <trkpt lat="43.514858018606901" lon="-1.436067027971149">
        <ele>35.710000000000001</ele>
        <time>2025-04-26T16:08:07Z</time>
      </trkpt>
      <trkpt lat="43.514967989176512" lon="-1.436059987172484">
        <ele>36.189999999999998</ele>
        <time>2025-04-26T16:08:08Z</time>
      </trkpt>
      <trkpt lat="43.515077959746122" lon="-1.436042971909046">
        <ele>36.670000000000002</ele>
        <time>2025-04-26T16:08:09Z</time>
      </trkpt>
      <trkpt lat="43.516229968518019" lon="-1.435580961406231">
        <ele>34.740000000000002</ele>
        <time>2025-04-26T16:08:18Z</time>
      </trkpt>
      <trkpt lat="43.517711972817779" lon="-1.435002023354173">
        <ele>36.670000000000002</ele>
        <time>2025-04-26T16:08:29Z</time>
      </trkpt>
      <trkpt lat="43.518682010471821" lon="-1.434519980102778">
        <ele>36.189999999999998</ele>
        <time>2025-04-26T16:08:36Z</time>
      </trkpt>
      <trkpt lat="43.520102994516492" lon="-1.43400901928544">
        <ele>40.030000000000001</ele>
        <time>2025-04-26T16:08:46Z</time>
      </trkpt>
      <trkpt lat="43.521183002740145" lon="-1.433988986536861">
        <ele>44.359999999999999</ele>
        <time>2025-04-26T16:08:55Z</time>
      </trkpt>
      <trkpt lat="43.522252030670643" lon="-1.434141034260392">
        <ele>44.840000000000003</ele>
        <time>2025-04-26T16:09:04Z</time>
      </trkpt>
      <trkpt lat="43.522362001240253" lon="-1.434226026758552">
        <ele>44.840000000000003</ele>
        <time>2025-04-26T16:09:05Z</time>
      </trkpt>
      <trkpt lat="43.52246199734509" lon="-1.434319987893105">
        <ele>44.840000000000003</ele>
        <time>2025-04-26T16:09:06Z</time>
      </trkpt>
      <trkpt lat="43.522560987621546" lon="-1.434413027018309">
        <ele>44.840000000000003</ele>
        <time>2025-04-26T16:09:07Z</time>
      </trkpt>
      <trkpt lat="43.522660983726382" lon="-1.434519980102778">
        <ele>44.840000000000003</ele>
        <time>2025-04-26T16:09:08Z</time>
      </trkpt>
      <trkpt lat="43.52349397726357" lon="-1.435518013313413">
        <ele>45.799999999999997</ele>
        <time>2025-04-26T16:09:17Z</time>
      </trkpt>
      <trkpt lat="43.52360000833869" lon="-1.435607029125094">
        <ele>45.799999999999997</ele>
        <time>2025-04-26T16:09:18Z</time>
      </trkpt>
      <trkpt lat="43.523714002221823" lon="-1.435675006359816">
        <ele>45.799999999999997</ele>
        <time>2025-04-26T16:09:19Z</time>
      </trkpt>
      <trkpt lat="43.524055983871222" lon="-1.435819007456303">
        <ele>45.799999999999997</ele>
        <time>2025-04-26T16:09:22Z</time>
      </trkpt>
      <trkpt lat="43.524147011339664" lon="-1.435928978025913">
        <ele>45.799999999999997</ele>
        <time>2025-04-26T16:09:23Z</time>
      </trkpt>
      <trkpt lat="43.524249019101262" lon="-1.436055041849613">
        <ele>46.280000000000001</ele>
        <time>2025-04-26T16:09:24Z</time>
      </trkpt>
      <trkpt lat="43.52428900077939" lon="-1.43617901019752">
        <ele>46.759999999999998</ele>
        <time>2025-04-26T16:09:25Z</time>
      </trkpt>
      <trkpt lat="43.524336023256183" lon="-1.436324017122388">
        <ele>46.759999999999998</ele>
        <time>2025-04-26T16:09:26Z</time>
      </trkpt>
      <trkpt lat="43.524383967742324" lon="-1.436473969370127">
        <ele>47.240000000000002</ele>
        <time>2025-04-26T16:09:27Z</time>
      </trkpt>
      <trkpt lat="43.524510031566024" lon="-1.437118034809828">
        <ele>48.200000000000003</ele>
        <time>2025-04-26T16:09:31Z</time>
      </trkpt>
      <trkpt lat="43.524529980495572" lon="-1.437282990664244">
        <ele>48.200000000000003</ele>
        <time>2025-04-26T16:09:32Z</time>
      </trkpt>
      <trkpt lat="43.524550013244152" lon="-1.437456998974085">
        <ele>48.68</ele>
        <time>2025-04-26T16:09:33Z</time>
      </trkpt>
      <trkpt lat="43.52458999492228" lon="-1.438472969457507">
        <ele>48.68</ele>
        <time>2025-04-26T16:09:38Z</time>
      </trkpt>
      <trkpt lat="43.524608016014099" lon="-1.438686037436128">
        <ele>48.68</ele>
        <time>2025-04-26T16:09:39Z</time>
      </trkpt>
      <trkpt lat="43.524672975763679" lon="-1.438888041302562">
        <ele>48.68</ele>
        <time>2025-04-26T16:09:40Z</time>
      </trkpt>
      <trkpt lat="43.524758974090219" lon="-1.439076969400048">
        <ele>48.68</ele>
        <time>2025-04-26T16:09:41Z</time>
      </trkpt>
      <trkpt lat="43.5248479899019" lon="-1.439266987144947">
        <ele>48.68</ele>
        <time>2025-04-26T16:09:42Z</time>
      </trkpt>
      <trkpt lat="43.524945974349976" lon="-1.439452981576324">
        <ele>48.68</ele>
        <time>2025-04-26T16:09:43Z</time>
      </trkpt>
      <trkpt lat="43.526165960356593" lon="-1.441143024712801">
        <ele>49.159999999999997</ele>
        <time>2025-04-26T16:09:53Z</time>
      </trkpt>
      <trkpt lat="43.526294035837054" lon="-1.441304041072726">
        <ele>49.159999999999997</ele>
        <time>2025-04-26T16:09:54Z</time>
      </trkpt>
      <trkpt lat="43.526411969214678" lon="-1.441471008583903">
        <ele>48.68</ele>
        <time>2025-04-26T16:09:55Z</time>
      </trkpt>
      <trkpt lat="43.526523029431701" lon="-1.441647028550506">
        <ele>48.68</ele>
        <time>2025-04-26T16:09:56Z</time>
      </trkpt>
      <trkpt lat="43.526738025248051" lon="-1.442006025463343">
        <ele>49.159999999999997</ele>
        <time>2025-04-26T16:09:58Z</time>
      </trkpt>
      <trkpt lat="43.526838021352887" lon="-1.442178022116423">
        <ele>49.649999999999999</ele>
        <time>2025-04-26T16:09:59Z</time>
      </trkpt>
      <trkpt lat="43.527039019390941" lon="-1.442508017644286">
        <ele>51.090000000000003</ele>
        <time>2025-04-26T16:10:01Z</time>
      </trkpt>
      <trkpt lat="43.528367970138788" lon="-1.444163024425507">
        <ele>51.57</ele>
        <time>2025-04-26T16:10:12Z</time>
      </trkpt>
      <trkpt lat="43.529339013621211" lon="-1.445690961554647">
        <ele>50.609999999999999</ele>
        <time>2025-04-26T16:10:21Z</time>
      </trkpt>
      <trkpt lat="43.529888028278947" lon="-1.446521021425724">
        <ele>50.609999999999999</ele>
        <time>2025-04-26T16:10:26Z</time>
      </trkpt>
      <trkpt lat="43.530016019940376" lon="-1.446650018915534">
        <ele>50.609999999999999</ele>
        <time>2025-04-26T16:10:27Z</time>
      </trkpt>
      <trkpt lat="43.530162032693624" lon="-1.446719001978636">
        <ele>51.090000000000003</ele>
        <time>2025-04-26T16:10:28Z</time>
      </trkpt>
      <trkpt lat="43.530305027961731" lon="-1.446769963949919">
        <ele>51.57</ele>
        <time>2025-04-26T16:10:29Z</time>
      </trkpt>
      <trkpt lat="43.530451962724328" lon="-1.446796031668782">
        <ele>52.049999999999997</ele>
        <time>2025-04-26T16:10:30Z</time>
      </trkpt>
      <trkpt lat="43.53058498352766" lon="-1.446818998083472">
        <ele>52.049999999999997</ele>
        <time>2025-04-26T16:10:31Z</time>
      </trkpt>
      <trkpt lat="43.530714986845851" lon="-1.446841964498162">
        <ele>52.530000000000001</ele>
        <time>2025-04-26T16:10:32Z</time>
      </trkpt>
      <trkpt lat="43.53083903901279" lon="-1.446901978924871">
        <ele>52.530000000000001</ele>
        <time>2025-04-26T16:10:33Z</time>
      </trkpt>
      <trkpt lat="43.530965019017458" lon="-1.446980014443398">
        <ele>52.049999999999997</ele>
        <time>2025-04-26T16:10:34Z</time>
      </trkpt>
      <trkpt lat="43.531080018728971" lon="-1.447066012769938">
        <ele>52.049999999999997</ele>
        <time>2025-04-26T16:10:35Z</time>
      </trkpt>
      <trkpt lat="43.531189989298582" lon="-1.447169026359916">
        <ele>52.049999999999997</ele>
        <time>2025-04-26T16:10:36Z</time>
      </trkpt>
      <trkpt lat="43.531899014487863" lon="-1.447874028235674">
        <ele>51.090000000000003</ele>
        <time>2025-04-26T16:10:43Z</time>
      </trkpt>
      <trkpt lat="43.531975038349628" lon="-1.4480160176754">
        <ele>51.090000000000003</ele>
        <time>2025-04-26T16:10:44Z</time>
      </trkpt>
      <trkpt lat="43.532047038897872" lon="-1.448163036257029">
        <ele>51.090000000000003</ele>
        <time>2025-04-26T16:10:45Z</time>
      </trkpt>
      <trkpt lat="43.532100012525916" lon="-1.448332015424967">
        <ele>51.090000000000003</ele>
        <time>2025-04-26T16:10:46Z</time>
      </trkpt>
      <trkpt lat="43.532154997810721" lon="-1.448506023734808">
        <ele>50.609999999999999</ele>
        <time>2025-04-26T16:10:47Z</time>
      </trkpt>
      <trkpt lat="43.532370999455452" lon="-1.449645962566137">
        <ele>49.649999999999999</ele>
        <time>2025-04-26T16:10:53Z</time>
      </trkpt>
      <trkpt lat="43.532406035810709" lon="-1.449840003624558">
        <ele>49.159999999999997</ele>
        <time>2025-04-26T16:10:54Z</time>
      </trkpt>
      <trkpt lat="43.532467978075147" lon="-1.450019963085651">
        <ele>49.159999999999997</ele>
        <time>2025-04-26T16:10:55Z</time>
      </trkpt>
      <trkpt lat="43.532554982230067" lon="-1.450182991102338">
        <ele>48.68</ele>
        <time>2025-04-26T16:10:56Z</time>
      </trkpt>
      <trkpt lat="43.532641986384988" lon="-1.450346019119024">
        <ele>48.200000000000003</ele>
        <time>2025-04-26T16:10:57Z</time>
      </trkpt>
      <trkpt lat="43.532726978883147" lon="-1.450506029650569">
        <ele>47.719999999999999</ele>
        <time>2025-04-26T16:10:58Z</time>
      </trkpt>
      <trkpt lat="43.53348596021533" lon="-1.451932964846492">
        <ele>45.32</ele>
        <time>2025-04-26T16:11:09Z</time>
      </trkpt>
      <trkpt lat="43.533615041524172" lon="-1.452176040038467">
        <ele>45.32</ele>
        <time>2025-04-26T16:11:15Z</time>
      </trkpt>
      <trkpt lat="43.533687964081764" lon="-1.452309982851148">
        <ele>45.32</ele>
        <time>2025-04-26T16:11:27Z</time>
      </trkpt>
      <trkpt lat="43.533715037629008" lon="-1.45235700532794">
        <ele>45.32</ele>
        <time>2025-04-26T16:11:28Z</time>
      </trkpt>
      <trkpt lat="43.533790977671742" lon="-1.452385000884533">
        <ele>44.840000000000003</ele>
        <time>2025-04-26T16:11:29Z</time>
      </trkpt>
      <trkpt lat="43.533818973228335" lon="-1.452351976186037">
        <ele>44.359999999999999</ele>
        <time>2025-04-26T16:11:30Z</time>
      </trkpt>
      <trkpt lat="43.533853003755212" lon="-1.452311994507909">
        <ele>43.880000000000003</ele>
        <time>2025-04-26T16:11:31Z</time>
      </trkpt>
      <trkpt lat="43.533888962119818" lon="-1.452273018658161">
        <ele>43.399999999999999</ele>
        <time>2025-04-26T16:11:32Z</time>
      </trkpt>
      <trkpt lat="43.53393598459661" lon="-1.452245023101568">
        <ele>43.399999999999999</ele>
        <time>2025-04-26T16:11:33Z</time>
      </trkpt>
      <trkpt lat="43.533984012901783" lon="-1.452217027544975">
        <ele>42.920000000000002</ele>
        <time>2025-04-26T16:11:34Z</time>
      </trkpt>
      <trkpt lat="43.534032963216305" lon="-1.452187020331621">
        <ele>42.920000000000002</ele>
        <time>2025-04-26T16:11:35Z</time>
      </trkpt>
      <trkpt lat="43.534098006784916" lon="-1.452147960662842">
        <ele>42.439999999999998</ele>
        <time>2025-04-26T16:11:36Z</time>
      </trkpt>
      <trkpt lat="43.534126002341509" lon="-1.452155001461506">
        <ele>42.439999999999998</ele>
        <time>2025-04-26T16:11:37Z</time>
      </trkpt>
      <trkpt lat="43.534190962091088" lon="-1.452176040038467">
        <ele>42.439999999999998</ele>
        <time>2025-04-26T16:11:38Z</time>
      </trkpt>
      <trkpt lat="43.534250976517797" lon="-1.452229013666511">
        <ele>42.439999999999998</ele>
        <time>2025-04-26T16:11:39Z</time>
      </trkpt>
      <trkpt lat="43.534319959580898" lon="-1.452289028093219">
        <ele>42.439999999999998</ele>
        <time>2025-04-26T16:11:40Z</time>
      </trkpt>
      <trkpt lat="43.535165023058653" lon="-1.453039040789008">
        <ele>40.509999999999998</ele>
        <time>2025-04-26T16:11:50Z</time>
      </trkpt>
      <trkpt lat="43.535334002226591" lon="-1.453184969723225">
        <ele>40.030000000000001</ele>
        <time>2025-04-26T16:11:52Z</time>
      </trkpt>
      <trkpt lat="43.535538017749786" lon="-1.453275997191668">
        <ele>38.109999999999999</ele>
        <time>2025-04-26T16:11:54Z</time>
      </trkpt>
      <trkpt lat="43.535647988319397" lon="-1.453295024111867">
        <ele>37.149999999999999</ele>
        <time>2025-04-26T16:11:55Z</time>
      </trkpt>
      <trkpt lat="43.535760976374149" lon="-1.453314973041415">
        <ele>36.189999999999998</ele>
        <time>2025-04-26T16:11:56Z</time>
      </trkpt>
      <trkpt lat="43.535877987742424" lon="-1.453336011618376">
        <ele>35.229999999999997</ele>
        <time>2025-04-26T16:11:57Z</time>
      </trkpt>
      <trkpt lat="43.53599701076746" lon="-1.453356966376305">
        <ele>34.740000000000002</ele>
        <time>2025-04-26T16:11:58Z</time>
      </trkpt>
      <trkpt lat="43.536107987165451" lon="-1.453383034095168">
        <ele>33.780000000000001</ele>
        <time>2025-04-26T16:11:59Z</time>
      </trkpt>
      <trkpt lat="43.536208989098668" lon="-1.453418992459774">
        <ele>32.82</ele>
        <time>2025-04-26T16:12:00Z</time>
      </trkpt>
      <trkpt lat="43.536307979375124" lon="-1.453454028815031">
        <ele>31.859999999999999</ele>
        <time>2025-04-26T16:12:01Z</time>
      </trkpt>
      <trkpt lat="43.536405963823199" lon="-1.453488981351256">
        <ele>31.379999999999999</ele>
        <time>2025-04-26T16:12:02Z</time>
      </trkpt>
      <trkpt lat="43.536502020433545" lon="-1.453528041020036">
        <ele>30.420000000000002</ele>
        <time>2025-04-26T16:12:03Z</time>
      </trkpt>
      <trkpt lat="43.536596987396479" lon="-1.453568022698164">
        <ele>30.420000000000002</ele>
        <time>2025-04-26T16:12:04Z</time>
      </trkpt>
      <trkpt lat="43.536773007363081" lon="-1.453620996326208">
        <ele>30.420000000000002</ele>
        <time>2025-04-26T16:12:06Z</time>
      </trkpt>
      <trkpt lat="43.536840984597802" lon="-1.453606998547912">
        <ele>30.420000000000002</ele>
        <time>2025-04-26T16:12:07Z</time>
      </trkpt>
      <trkpt lat="43.536907033994794" lon="-1.453593000769615">
        <ele>30.899999999999999</ele>
        <time>2025-04-26T16:12:08Z</time>
      </trkpt>
      <trkpt lat="43.536969982087612" lon="-1.453580008819699">
        <ele>31.379999999999999</ele>
        <time>2025-04-26T16:12:09Z</time>
      </trkpt>
      <trkpt lat="43.537034019827843" lon="-1.453566011041403">
        <ele>32.340000000000003</ele>
        <time>2025-04-26T16:12:10Z</time>
      </trkpt>
      <trkpt lat="43.537101997062564" lon="-1.453552013263106">
        <ele>32.82</ele>
        <time>2025-04-26T16:12:11Z</time>
      </trkpt>
      <trkpt lat="43.53718196041882" lon="-1.453555030748248">
        <ele>33.780000000000001</ele>
        <time>2025-04-26T16:12:12Z</time>
      </trkpt>
      <trkpt lat="43.537262007594109" lon="-1.453582020476461">
        <ele>34.259999999999998</ele>
        <time>2025-04-26T16:12:13Z</time>
      </trkpt>
      <trkpt lat="43.537596026435494" lon="-1.453692996874452">
        <ele>35.710000000000001</ele>
        <time>2025-04-26T16:12:17Z</time>
      </trkpt>
      <trkpt lat="43.53769401088357" lon="-1.453663995489478">
        <ele>36.189999999999998</ele>
        <time>2025-04-26T16:12:18Z</time>
      </trkpt>
      <trkpt lat="43.537785960361362" lon="-1.453637005761266">
        <ele>36.670000000000002</ele>
        <time>2025-04-26T16:12:19Z</time>
      </trkpt>
      <trkpt lat="43.537874976173043" lon="-1.453611021861434">
        <ele>37.149999999999999</ele>
        <time>2025-04-26T16:12:20Z</time>
      </trkpt>
      <trkpt lat="43.53797203861177" lon="-1.453575985506177">
        <ele>37.149999999999999</ele>
        <time>2025-04-26T16:12:21Z</time>
      </trkpt>
      <trkpt lat="43.538054013624787" lon="-1.453500967472792">
        <ele>37.630000000000003</ele>
        <time>2025-04-26T16:12:22Z</time>
      </trkpt>
      <trkpt lat="43.538135988637805" lon="-1.453427039086819">
        <ele>38.109999999999999</ele>
        <time>2025-04-26T16:12:23Z</time>
      </trkpt>
      <trkpt lat="43.53821100667119" lon="-1.453339029103518">
        <ele>38.590000000000003</ele>
        <time>2025-04-26T16:12:24Z</time>
      </trkpt>
      <trkpt lat="43.53827303275466" lon="-1.453245989978313">
        <ele>39.549999999999997</ele>
        <time>2025-04-26T16:12:25Z</time>
      </trkpt>
      <trkpt lat="43.538332963362336" lon="-1.453123027458787">
        <ele>39.549999999999997</ele>
        <time>2025-04-26T16:12:26Z</time>
      </trkpt>
      <trkpt lat="43.538630018010736" lon="-1.452329009771347">
        <ele>39.549999999999997</ele>
        <time>2025-04-26T16:12:33Z</time>
      </trkpt>
      <trkpt lat="43.538657007738948" lon="-1.452258015051484">
        <ele>39.549999999999997</ele>
        <time>2025-04-26T16:12:34Z</time>
      </trkpt>
      <trkpt lat="43.538672011345625" lon="-1.452115019783378">
        <ele>39.07</ele>
        <time>2025-04-26T16:12:35Z</time>
      </trkpt>
      <trkpt lat="43.538647033274174" lon="-1.452041007578373">
        <ele>39.07</ele>
        <time>2025-04-26T16:12:36Z</time>
      </trkpt>
      <trkpt lat="43.53861995972693" lon="-1.451959032565355">
        <ele>39.07</ele>
        <time>2025-04-26T16:12:37Z</time>
      </trkpt>
      <trkpt lat="43.538591964170337" lon="-1.451874040067196">
        <ele>39.07</ele>
        <time>2025-04-26T16:12:38Z</time>
      </trkpt>
      <trkpt lat="43.538562962785363" lon="-1.451788963750005">
        <ele>39.07</ele>
        <time>2025-04-26T16:12:39Z</time>
      </trkpt>
      <trkpt lat="43.538566986098886" lon="-1.451725009828806">
        <ele>39.07</ele>
        <time>2025-04-26T16:12:40Z</time>
      </trkpt>
      <trkpt lat="43.53857402689755" lon="-1.451640017330647">
        <ele>39.549999999999997</ele>
        <time>2025-04-26T16:12:41Z</time>
      </trkpt>
      <trkpt lat="43.538581989705563" lon="-1.451557036489248">
        <ele>39.549999999999997</ele>
        <time>2025-04-26T16:12:42Z</time>
      </trkpt>
      <trkpt lat="43.538589030504227" lon="-1.45147698931396">
        <ele>39.07</ele>
        <time>2025-04-26T16:12:43Z</time>
      </trkpt>
      <trkpt lat="43.538595987483859" lon="-1.451403982937336">
        <ele>39.07</ele>
        <time>2025-04-26T16:12:44Z</time>
      </trkpt>
      <trkpt lat="43.538604034110904" lon="-1.451311027631164">
        <ele>39.07</ele>
        <time>2025-04-26T16:12:45Z</time>
      </trkpt>
      <trkpt lat="43.538650972768664" lon="-1.45128202624619">
        <ele>39.07</ele>
        <time>2025-04-26T16:12:46Z</time>
      </trkpt>
      <trkpt lat="43.538708975538611" lon="-1.451245984062553">
        <ele>38.590000000000003</ele>
        <time>2025-04-26T16:12:47Z</time>
      </trkpt>
      <trkpt lat="43.538774019107223" lon="-1.451204996556044">
        <ele>38.590000000000003</ele>
        <time>2025-04-26T16:12:48Z</time>
      </trkpt>
      <trkpt lat="43.538841996341944" lon="-1.451163003221154">
        <ele>38.109999999999999</ele>
        <time>2025-04-26T16:12:49Z</time>
      </trkpt>
      <trkpt lat="43.538908967748284" lon="-1.451121009886265">
        <ele>38.109999999999999</ele>
        <time>2025-04-26T16:12:50Z</time>
      </trkpt>
      <trkpt lat="43.538948027417064" lon="-1.451097037643194">
        <ele>37.630000000000003</ele>
        <time>2025-04-26T16:12:51Z</time>
      </trkpt>
      <trkpt lat="43.539019022136927" lon="-1.451001986861229">
        <ele>37.149999999999999</ele>
        <time>2025-04-26T16:12:52Z</time>
      </trkpt>
      <trkpt lat="43.539076019078493" lon="-1.450925040990114">
        <ele>37.149999999999999</ele>
        <time>2025-04-26T16:12:53Z</time>
      </trkpt>
      <trkpt lat="43.539092028513551" lon="-1.450843987986445">
        <ele>37.149999999999999</ele>
        <time>2025-04-26T16:12:54Z</time>
      </trkpt>
      <trkpt lat="43.539109965786338" lon="-1.450747009366751">
        <ele>36.670000000000002</ele>
        <time>2025-04-26T16:12:55Z</time>
      </trkpt>
      <trkpt lat="43.539127986878157" lon="-1.450647013261914">
        <ele>36.670000000000002</ele>
        <time>2025-04-26T16:12:56Z</time>
      </trkpt>
      <trkpt lat="43.539147013798356" lon="-1.450547017157078">
        <ele>36.189999999999998</ele>
        <time>2025-04-26T16:12:57Z</time>
      </trkpt>
      <trkpt lat="43.539166040718555" lon="-1.450449032709003">
        <ele>36.189999999999998</ele>
        <time>2025-04-26T16:12:58Z</time>
      </trkpt>
      <trkpt lat="43.539182972162962" lon="-1.45035800524056">
        <ele>36.189999999999998</ele>
        <time>2025-04-26T16:12:59Z</time>
      </trkpt>
      <trkpt lat="43.539197975769639" lon="-1.450274018570781">
        <ele>35.710000000000001</ele>
        <time>2025-04-26T16:13:00Z</time>
      </trkpt>
      <trkpt lat="43.539164029061794" lon="-1.450191959738731">
        <ele>35.710000000000001</ele>
        <time>2025-04-26T16:13:01Z</time>
      </trkpt>
      <trkpt lat="43.539114994928241" lon="-1.450137980282307">
        <ele>35.710000000000001</ele>
        <time>2025-04-26T16:13:02Z</time>
      </trkpt>
      <trkpt lat="43.539067972451448" lon="-1.450085006654263">
        <ele>35.710000000000001</ele>
        <time>2025-04-26T16:13:03Z</time>
      </trkpt>
      <trkpt lat="43.539020027965307" lon="-1.450031027197838">
        <ele>35.710000000000001</ele>
        <time>2025-04-26T16:13:04Z</time>
      </trkpt>
      <trkpt lat="43.538973005488515" lon="-1.449978975579143">
        <ele>36.189999999999998</ele>
        <time>2025-04-26T16:13:05Z</time>
      </trkpt>
      <trkpt lat="43.538784999400377" lon="-1.449831034988165">
        <ele>36.670000000000002</ele>
        <time>2025-04-26T16:13:08Z</time>
      </trkpt>
      <trkpt lat="43.538714004680514" lon="-1.449831034988165">
        <ele>36.670000000000002</ele>
        <time>2025-04-26T16:13:09Z</time>
      </trkpt>
      <trkpt lat="43.538649966940284" lon="-1.449815025553107">
        <ele>36.670000000000002</ele>
        <time>2025-04-26T16:13:10Z</time>
      </trkpt>
      <trkpt lat="43.538547959178686" lon="-1.449880991131067">
        <ele>36.670000000000002</ele>
        <time>2025-04-26T16:13:11Z</time>
      </trkpt>
      <trkpt lat="43.538478976115584" lon="-1.449943017214537">
        <ele>36.670000000000002</ele>
        <time>2025-04-26T16:13:12Z</time>
      </trkpt>
      <trkpt lat="43.538282001391053" lon="-1.450174022465944">
        <ele>36.670000000000002</ele>
        <time>2025-04-26T16:13:16Z</time>
      </trkpt>
      <trkpt lat="43.538154009729624" lon="-1.450174022465944">
        <ele>36.670000000000002</ele>
        <time>2025-04-26T16:13:17Z</time>
      </trkpt>
      <trkpt lat="43.53810396976769" lon="-1.450117025524378">
        <ele>36.670000000000002</ele>
        <time>2025-04-26T16:13:18Z</time>
      </trkpt>
      <trkpt lat="43.538059964776039" lon="-1.450065979734063">
        <ele>36.670000000000002</ele>
        <time>2025-04-26T16:13:19Z</time>
      </trkpt>
      <trkpt lat="43.538015959784389" lon="-1.450016023591161">
        <ele>36.670000000000002</ele>
        <time>2025-04-26T16:13:20Z</time>
      </trkpt>
      <trkpt lat="43.53799601085484" lon="-1.449973024427891">
        <ele>36.670000000000002</ele>
        <time>2025-04-26T16:13:21Z</time>
      </trkpt>
      <trkpt lat="43.537976983934641" lon="-1.449904963374138">
        <ele>36.670000000000002</ele>
        <time>2025-04-26T16:13:22Z</time>
      </trkpt>
      <trkpt lat="43.537959968671203" lon="-1.449845032766461">
        <ele>36.670000000000002</ele>
        <time>2025-04-26T16:13:23Z</time>
      </trkpt>
      <trkpt lat="43.53788897395134" lon="-1.449765991419554">
        <ele>36.189999999999998</ele>
        <time>2025-04-26T16:13:25Z</time>
      </trkpt>
      <trkpt lat="43.537863995879889" lon="-1.449765991419554">
        <ele>36.189999999999998</ele>
        <time>2025-04-26T16:13:26Z</time>
      </trkpt>
      <trkpt lat="43.537826025858521" lon="-1.449765991419554">
        <ele>36.189999999999998</ele>
        <time>2025-04-26T16:13:27Z</time>
      </trkpt>
      <trkpt lat="43.537782020866871" lon="-1.449765991419554">
        <ele>36.189999999999998</ele>
        <time>2025-04-26T16:13:28Z</time>
      </trkpt>
      <trkpt lat="43.537741033360362" lon="-1.449765991419554">
        <ele>35.710000000000001</ele>
        <time>2025-04-26T16:13:29Z</time>
      </trkpt>
      <trkpt lat="43.537405002862215" lon="-1.449856013059616">
        <ele>35.229999999999997</ele>
        <time>2025-04-26T16:13:38Z</time>
      </trkpt>
      <trkpt lat="43.537407014518976" lon="-1.449943017214537">
        <ele>35.229999999999997</ele>
        <time>2025-04-26T16:13:41Z</time>
      </trkpt>
      <trkpt lat="43.537408020347357" lon="-1.449990961700678">
        <ele>35.710000000000001</ele>
        <time>2025-04-26T16:13:52Z</time>
      </trkpt>
    </trkseg>
  </trk>

</gpx>